<?xml version='1.0' encoding='UTF-8'?><gpx version="1.1" creator="JPX - https://github.com/jenetics/jpx" xmlns="http://www.topografix.com/GPX/1/1"><trk><trkseg><trkpt lat="44.5258536" lon="10.8664426"><ele>132.0</ele><time>2026-04-26T07:02:24.23Z</time></trkpt><trkpt lat="44.5257952" lon="10.8663824"><ele>132.0</ele><time>2026-04-26T07:02:25.225Z</time></trkpt><trkpt lat="44.5257262" lon="10.8663345"><ele>132.0</ele><time>2026-04-26T07:02:26.236Z</time></trkpt><trkpt lat="44.525672" lon="10.8662612"><ele>132.0</ele><time>2026-04-26T07:02:27.228Z</time></trkpt><trkpt lat="44.5255969" lon="10.8662286"><ele>132.0</ele><time>2026-04-26T07:02:28.235Z</time></trkpt><trkpt lat="44.5255141" lon="10.8661953"><ele>132.0</ele><time>2026-04-26T07:02:29.235Z</time></trkpt><trkpt lat="44.5254336" lon="10.8661539"><ele>132.4</ele><time>2026-04-26T07:02:30.226Z</time></trkpt><trkpt lat="44.5253456" lon="10.8661017"><ele>132.79999999999998</ele><time>2026-04-26T07:02:31.227Z</time></trkpt><trkpt lat="44.525253" lon="10.866045"><ele>133.2</ele><time>2026-04-26T07:02:32.229Z</time></trkpt><trkpt lat="44.5251657" lon="10.8659826"><ele>133.6</ele><time>2026-04-26T07:02:33.227Z</time></trkpt><trkpt lat="44.5250871" lon="10.8659296"><ele>134.0</ele><time>2026-04-26T07:02:34.228Z</time></trkpt><trkpt lat="44.5250086" lon="10.8658628"><ele>134.4</ele><time>2026-04-26T07:02:35.23Z</time></trkpt><trkpt lat="44.5249422" lon="10.8657738"><ele>134.8</ele><time>2026-04-26T07:02:36.229Z</time></trkpt><trkpt lat="44.5248945" lon="10.8656679"><ele>135.2</ele><time>2026-04-26T07:02:37.223Z</time></trkpt><trkpt lat="44.5248642" lon="10.8655378"><ele>135.6</ele><time>2026-04-26T07:02:38.226Z</time></trkpt><trkpt lat="44.5248445" lon="10.8653812"><ele>136.0</ele><time>2026-04-26T07:02:39.233Z</time></trkpt><trkpt lat="44.5248284" lon="10.8651958"><ele>136.66666666666669</ele><time>2026-04-26T07:02:40.225Z</time></trkpt><trkpt lat="44.5248126" lon="10.8649967"><ele>137.33333333333334</ele><time>2026-04-26T07:02:41.224Z</time></trkpt><trkpt lat="44.5247947" lon="10.8647913"><ele>138.0</ele><time>2026-04-26T07:02:42.226Z</time></trkpt><trkpt lat="44.5247746" lon="10.8645668"><ele>138.0</ele><time>2026-04-26T07:02:43.226Z</time></trkpt><trkpt lat="44.5247562" lon="10.8643393"><ele>138.0</ele><time>2026-04-26T07:02:44.232Z</time></trkpt><trkpt lat="44.5247379" lon="10.8641334"><ele>138.0</ele><time>2026-04-26T07:02:45.236Z</time></trkpt><trkpt lat="44.5247016" lon="10.8639515"><ele>138.0</ele><time>2026-04-26T07:02:46.225Z</time></trkpt><trkpt lat="44.524646" lon="10.8637901"><ele>138.75</ele><time>2026-04-26T07:02:47.235Z</time></trkpt><trkpt lat="44.5245769" lon="10.863648"><ele>139.5</ele><time>2026-04-26T07:02:48.227Z</time></trkpt><trkpt lat="44.5245116" lon="10.8635124"><ele>140.25</ele><time>2026-04-26T07:02:49.227Z</time></trkpt><trkpt lat="44.5244377" lon="10.8633918"><ele>141.0</ele><time>2026-04-26T07:02:50.226Z</time></trkpt><trkpt lat="44.5243608" lon="10.8632646"><ele>143.33333333333334</ele><time>2026-04-26T07:02:51.225Z</time></trkpt><trkpt lat="44.5242676" lon="10.8631181"><ele>145.66666666666669</ele><time>2026-04-26T07:02:52.226Z</time></trkpt><trkpt lat="44.5241657" lon="10.862955"><ele>148.0</ele><time>2026-04-26T07:02:53.226Z</time></trkpt><trkpt lat="44.5240499" lon="10.8627529"><ele>148.0</ele><time>2026-04-26T07:02:54.23Z</time></trkpt><trkpt lat="44.5239294" lon="10.8624871"><ele>148.0</ele><time>2026-04-26T07:02:55.234Z</time></trkpt><trkpt lat="44.5238301" lon="10.8622212"><ele>148.0</ele><time>2026-04-26T07:02:56.228Z</time></trkpt><trkpt lat="44.5236874" lon="10.8619452"><ele>150.33333333333334</ele><time>2026-04-26T07:02:57.225Z</time></trkpt><trkpt lat="44.5235747" lon="10.861719"><ele>152.66666666666666</ele><time>2026-04-26T07:02:58.227Z</time></trkpt><trkpt lat="44.5234635" lon="10.8615158"><ele>155.0</ele><time>2026-04-26T07:02:59.23Z</time></trkpt><trkpt lat="44.5233587" lon="10.8613376"><ele>155.0</ele><time>2026-04-26T07:03:00.24Z</time></trkpt><trkpt lat="44.5232631" lon="10.8611819"><ele>155.0</ele><time>2026-04-26T07:03:01.228Z</time></trkpt><trkpt lat="44.5231788" lon="10.8610348"><ele>155.0</ele><time>2026-04-26T07:03:02.226Z</time></trkpt><trkpt lat="44.523099" lon="10.8609173"><ele>155.0</ele><time>2026-04-26T07:03:03.229Z</time></trkpt><trkpt lat="44.5230355" lon="10.8608126"><ele>155.6</ele><time>2026-04-26T07:03:04.226Z</time></trkpt><trkpt lat="44.5229833" lon="10.8607321"><ele>156.2</ele><time>2026-04-26T07:03:05.227Z</time></trkpt><trkpt lat="44.5229349" lon="10.8606314"><ele>156.8</ele><time>2026-04-26T07:03:06.232Z</time></trkpt><trkpt lat="44.5229039" lon="10.8605039"><ele>157.4</ele><time>2026-04-26T07:03:07.225Z</time></trkpt><trkpt lat="44.5229003" lon="10.8603695"><ele>158.0</ele><time>2026-04-26T07:03:08.227Z</time></trkpt><trkpt lat="44.5229279" lon="10.860242"><ele>157.0</ele><time>2026-04-26T07:03:09.23Z</time></trkpt><trkpt lat="44.5229635" lon="10.860111"><ele>156.0</ele><time>2026-04-26T07:03:10.224Z</time></trkpt><trkpt lat="44.5230498" lon="10.859987"><ele>155.0</ele><time>2026-04-26T07:03:11.225Z</time></trkpt><trkpt lat="44.5231537" lon="10.8598897"><ele>154.0</ele><time>2026-04-26T07:03:12.223Z</time></trkpt><trkpt lat="44.5232599" lon="10.8598019"><ele>154.0</ele><time>2026-04-26T07:03:13.224Z</time></trkpt><trkpt lat="44.5233695" lon="10.8597245"><ele>154.0</ele><time>2026-04-26T07:03:14.23Z</time></trkpt><trkpt lat="44.5234782" lon="10.8596473"><ele>154.0</ele><time>2026-04-26T07:03:15.224Z</time></trkpt><trkpt lat="44.5235882" lon="10.8595802"><ele>154.0</ele><time>2026-04-26T07:03:16.224Z</time></trkpt><trkpt lat="44.5236918" lon="10.859523"><ele>153.6</ele><time>2026-04-26T07:03:17.23Z</time></trkpt><trkpt lat="44.5237891" lon="10.8594646"><ele>153.2</ele><time>2026-04-26T07:03:18.221Z</time></trkpt><trkpt lat="44.5238774" lon="10.8594026"><ele>152.79999999999998</ele><time>2026-04-26T07:03:19.225Z</time></trkpt><trkpt lat="44.5239439" lon="10.8593202"><ele>152.4</ele><time>2026-04-26T07:03:20.229Z</time></trkpt><trkpt lat="44.5239794" lon="10.8592389"><ele>152.0</ele><time>2026-04-26T07:03:21.227Z</time></trkpt><trkpt lat="44.5239726" lon="10.859114"><ele>151.6</ele><time>2026-04-26T07:03:23.225Z</time></trkpt><trkpt lat="44.523865" lon="10.8590434"><ele>151.2</ele><time>2026-04-26T07:03:25.223Z</time></trkpt><trkpt lat="44.5237864" lon="10.8590189"><ele>150.8</ele><time>2026-04-26T07:03:26.22Z</time></trkpt><trkpt lat="44.5237021" lon="10.8589907"><ele>150.4</ele><time>2026-04-26T07:03:27.23Z</time></trkpt><trkpt lat="44.5236149" lon="10.8589474"><ele>150.0</ele><time>2026-04-26T07:03:28.223Z</time></trkpt><trkpt lat="44.523531" lon="10.8588843"><ele>150.0</ele><time>2026-04-26T07:03:29.229Z</time></trkpt><trkpt lat="44.5234509" lon="10.8587998"><ele>150.0</ele><time>2026-04-26T07:03:30.224Z</time></trkpt><trkpt lat="44.52338" lon="10.8587046"><ele>150.0</ele><time>2026-04-26T07:03:31.227Z</time></trkpt><trkpt lat="44.5233234" lon="10.8586102"><ele>150.0</ele><time>2026-04-26T07:03:32.227Z</time></trkpt><trkpt lat="44.5232901" lon="10.8585079"><ele>150.0</ele><time>2026-04-26T07:03:33.228Z</time></trkpt><trkpt lat="44.5232548" lon="10.8583654"><ele>149.25</ele><time>2026-04-26T07:03:34.227Z</time></trkpt><trkpt lat="44.5232504" lon="10.858217"><ele>148.5</ele><time>2026-04-26T07:03:35.223Z</time></trkpt><trkpt lat="44.5232585" lon="10.8580461"><ele>147.75</ele><time>2026-04-26T07:03:36.225Z</time></trkpt><trkpt lat="44.5232742" lon="10.85786"><ele>147.0</ele><time>2026-04-26T07:03:37.227Z</time></trkpt><trkpt lat="44.5232699" lon="10.8576836"><ele>145.75</ele><time>2026-04-26T07:03:38.227Z</time></trkpt><trkpt lat="44.5232705" lon="10.8575348"><ele>144.5</ele><time>2026-04-26T07:03:39.229Z</time></trkpt><trkpt lat="44.5232774" lon="10.8574265"><ele>143.25</ele><time>2026-04-26T07:03:40.23Z</time></trkpt><trkpt lat="44.523345" lon="10.8573237"><ele>142.0</ele><time>2026-04-26T07:03:42.224Z</time></trkpt><trkpt lat="44.5235371" lon="10.8572984"><ele>142.0</ele><time>2026-04-26T07:03:44.222Z</time></trkpt><trkpt lat="44.5236733" lon="10.8572717"><ele>142.0</ele><time>2026-04-26T07:03:45.225Z</time></trkpt><trkpt lat="44.5238019" lon="10.857255"><ele>142.0</ele><time>2026-04-26T07:03:46.224Z</time></trkpt><trkpt lat="44.5239332" lon="10.85724"><ele>142.0</ele><time>2026-04-26T07:03:47.223Z</time></trkpt><trkpt lat="44.5240685" lon="10.8572185"><ele>141.75</ele><time>2026-04-26T07:03:48.233Z</time></trkpt><trkpt lat="44.5242036" lon="10.8571969"><ele>141.5</ele><time>2026-04-26T07:03:49.223Z</time></trkpt><trkpt lat="44.524337" lon="10.8571741"><ele>141.25</ele><time>2026-04-26T07:03:50.23Z</time></trkpt><trkpt lat="44.5244705" lon="10.8571495"><ele>141.0</ele><time>2026-04-26T07:03:51.236Z</time></trkpt><trkpt lat="44.5246137" lon="10.8571208"><ele>141.0</ele><time>2026-04-26T07:03:52.225Z</time></trkpt><trkpt lat="44.5247641" lon="10.8570926"><ele>141.0</ele><time>2026-04-26T07:03:53.225Z</time></trkpt><trkpt lat="44.5249214" lon="10.8570648"><ele>141.0</ele><time>2026-04-26T07:03:54.224Z</time></trkpt><trkpt lat="44.5250792" lon="10.8570413"><ele>141.0</ele><time>2026-04-26T07:03:55.224Z</time></trkpt><trkpt lat="44.5252371" lon="10.8570241"><ele>141.0</ele><time>2026-04-26T07:03:56.225Z</time></trkpt><trkpt lat="44.525402" lon="10.8570086"><ele>141.0</ele><time>2026-04-26T07:03:57.226Z</time></trkpt><trkpt lat="44.5255778" lon="10.857009"><ele>141.0</ele><time>2026-04-26T07:03:58.228Z</time></trkpt><trkpt lat="44.5257556" lon="10.8570277"><ele>141.0</ele><time>2026-04-26T07:03:59.23Z</time></trkpt><trkpt lat="44.5259338" lon="10.8570628"><ele>141.0</ele><time>2026-04-26T07:04:00.23Z</time></trkpt><trkpt lat="44.526114" lon="10.8571071"><ele>140.33333333333334</ele><time>2026-04-26T07:04:01.243Z</time></trkpt><trkpt lat="44.5262991" lon="10.8571517"><ele>139.66666666666669</ele><time>2026-04-26T07:04:02.226Z</time></trkpt><trkpt lat="44.5264825" lon="10.8571948"><ele>139.0</ele><time>2026-04-26T07:04:03.223Z</time></trkpt><trkpt lat="44.5266631" lon="10.8572397"><ele>139.0</ele><time>2026-04-26T07:04:04.224Z</time></trkpt><trkpt lat="44.5268371" lon="10.8572781"><ele>139.0</ele><time>2026-04-26T07:04:05.232Z</time></trkpt><trkpt lat="44.5270035" lon="10.8573081"><ele>139.0</ele><time>2026-04-26T07:04:06.227Z</time></trkpt><trkpt lat="44.5271766" lon="10.8573439"><ele>138.33333333333334</ele><time>2026-04-26T07:04:07.229Z</time></trkpt><trkpt lat="44.5273441" lon="10.8573833"><ele>137.66666666666666</ele><time>2026-04-26T07:04:08.224Z</time></trkpt><trkpt lat="44.5274953" lon="10.8574301"><ele>137.0</ele><time>2026-04-26T07:04:09.229Z</time></trkpt><trkpt lat="44.5276404" lon="10.8574704"><ele>137.0</ele><time>2026-04-26T07:04:10.225Z</time></trkpt><trkpt lat="44.527779" lon="10.8575036"><ele>137.0</ele><time>2026-04-26T07:04:11.23Z</time></trkpt><trkpt lat="44.5279068" lon="10.857535"><ele>137.0</ele><time>2026-04-26T07:04:12.228Z</time></trkpt><trkpt lat="44.5280292" lon="10.8575629"><ele>137.0</ele><time>2026-04-26T07:04:13.229Z</time></trkpt><trkpt lat="44.528145" lon="10.8575881"><ele>137.0</ele><time>2026-04-26T07:04:14.228Z</time></trkpt><trkpt lat="44.5282409" lon="10.8576195"><ele>137.0</ele><time>2026-04-26T07:04:15.227Z</time></trkpt><trkpt lat="44.5283184" lon="10.8576617"><ele>137.0</ele><time>2026-04-26T07:04:16.226Z</time></trkpt><trkpt lat="44.528431" lon="10.8576879"><ele>137.0</ele><time>2026-04-26T07:04:18.232Z</time></trkpt><trkpt lat="44.5284931" lon="10.8575863"><ele>137.0</ele><time>2026-04-26T07:04:20.228Z</time></trkpt><trkpt lat="44.5285181" lon="10.8574896"><ele>137.0</ele><time>2026-04-26T07:04:21.228Z</time></trkpt><trkpt lat="44.5285493" lon="10.8573334"><ele>137.0</ele><time>2026-04-26T07:04:22.228Z</time></trkpt><trkpt lat="44.528587" lon="10.857152"><ele>137.0</ele><time>2026-04-26T07:04:23.223Z</time></trkpt><trkpt lat="44.5286215" lon="10.8569285"><ele>137.0</ele><time>2026-04-26T07:04:24.225Z</time></trkpt><trkpt lat="44.5286572" lon="10.856725"><ele>137.0</ele><time>2026-04-26T07:04:25.225Z</time></trkpt><trkpt lat="44.5286954" lon="10.8565242"><ele>137.0</ele><time>2026-04-26T07:04:26.224Z</time></trkpt><trkpt lat="44.5287296" lon="10.856335"><ele>137.0</ele><time>2026-04-26T07:04:27.227Z</time></trkpt><trkpt lat="44.5287664" lon="10.8561374"><ele>137.0</ele><time>2026-04-26T07:04:28.229Z</time></trkpt><trkpt lat="44.5288058" lon="10.8559383"><ele>135.5</ele><time>2026-04-26T07:04:29.228Z</time></trkpt><trkpt lat="44.5288514" lon="10.8557441"><ele>134.0</ele><time>2026-04-26T07:04:30.226Z</time></trkpt><trkpt lat="44.5289054" lon="10.8555446"><ele>132.5</ele><time>2026-04-26T07:04:31.229Z</time></trkpt><trkpt lat="44.5289609" lon="10.8553578"><ele>131.0</ele><time>2026-04-26T07:04:32.236Z</time></trkpt><trkpt lat="44.5290166" lon="10.8551903"><ele>131.6</ele><time>2026-04-26T07:04:33.226Z</time></trkpt><trkpt lat="44.5290762" lon="10.855047"><ele>132.2</ele><time>2026-04-26T07:04:34.237Z</time></trkpt><trkpt lat="44.5291447" lon="10.8549378"><ele>132.8</ele><time>2026-04-26T07:04:35.232Z</time></trkpt><trkpt lat="44.5292148" lon="10.8548386"><ele>133.4</ele><time>2026-04-26T07:04:36.224Z</time></trkpt><trkpt lat="44.5293003" lon="10.854784"><ele>134.0</ele><time>2026-04-26T07:04:37.237Z</time></trkpt><trkpt lat="44.5293687" lon="10.8547092"><ele>134.0</ele><time>2026-04-26T07:04:38.23Z</time></trkpt><trkpt lat="44.5294297" lon="10.8545994"><ele>134.0</ele><time>2026-04-26T07:04:39.226Z</time></trkpt><trkpt lat="44.5294774" lon="10.8544682"><ele>134.0</ele><time>2026-04-26T07:04:40.226Z</time></trkpt><trkpt lat="44.5295334" lon="10.8543217"><ele>134.0</ele><time>2026-04-26T07:04:41.231Z</time></trkpt><trkpt lat="44.5296071" lon="10.8541791"><ele>134.0</ele><time>2026-04-26T07:04:42.228Z</time></trkpt><trkpt lat="44.5296839" lon="10.8540519"><ele>133.4</ele><time>2026-04-26T07:04:43.227Z</time></trkpt><trkpt lat="44.5297844" lon="10.8539636"><ele>132.8</ele><time>2026-04-26T07:04:44.23Z</time></trkpt><trkpt lat="44.5298837" lon="10.8539159"><ele>132.2</ele><time>2026-04-26T07:04:45.229Z</time></trkpt><trkpt lat="44.5299698" lon="10.8538545"><ele>131.6</ele><time>2026-04-26T07:04:46.227Z</time></trkpt><trkpt lat="44.5300293" lon="10.8537647"><ele>131.0</ele><time>2026-04-26T07:04:47.223Z</time></trkpt><trkpt lat="44.5300495" lon="10.8536551"><ele>131.0</ele><time>2026-04-26T07:04:48.228Z</time></trkpt><trkpt lat="44.5300613" lon="10.8535454"><ele>131.0</ele><time>2026-04-26T07:04:49.225Z</time></trkpt><trkpt lat="44.5299973" lon="10.8534716"><ele>131.0</ele><time>2026-04-26T07:04:50.225Z</time></trkpt><trkpt lat="44.5299193" lon="10.8534286"><ele>131.0</ele><time>2026-04-26T07:04:51.226Z</time></trkpt><trkpt lat="44.529837" lon="10.8534239"><ele>131.0</ele><time>2026-04-26T07:04:52.227Z</time></trkpt><trkpt lat="44.529748" lon="10.8534247"><ele>131.0</ele><time>2026-04-26T07:04:53.225Z</time></trkpt><trkpt lat="44.5296653" lon="10.8534023"><ele>130.83333333333331</ele><time>2026-04-26T07:04:54.233Z</time></trkpt><trkpt lat="44.5295975" lon="10.8533822"><ele>130.66666666666666</ele><time>2026-04-26T07:04:55.23Z</time></trkpt><trkpt lat="44.5295069" lon="10.8533311"><ele>130.5</ele><time>2026-04-26T07:04:57.227Z</time></trkpt><trkpt lat="44.529393" lon="10.8532573"><ele>130.33333333333334</ele><time>2026-04-26T07:04:59.227Z</time></trkpt><trkpt lat="44.5293177" lon="10.8532036"><ele>130.16666666666669</ele><time>2026-04-26T07:05:00.227Z</time></trkpt><trkpt lat="44.5292531" lon="10.8531586"><ele>130.0</ele><time>2026-04-26T07:05:01.225Z</time></trkpt><trkpt lat="44.5291501" lon="10.8530923"><ele>130.8</ele><time>2026-04-26T07:05:03.225Z</time></trkpt><trkpt lat="44.5290537" lon="10.8530373"><ele>131.6</ele><time>2026-04-26T07:05:05.226Z</time></trkpt><trkpt lat="44.5289667" lon="10.8529786"><ele>132.4</ele><time>2026-04-26T07:05:07.229Z</time></trkpt><trkpt lat="44.5288833" lon="10.8529256"><ele>133.2</ele><time>2026-04-26T07:05:09.224Z</time></trkpt><trkpt lat="44.528803" lon="10.8528889"><ele>134.0</ele><time>2026-04-26T07:05:11.227Z</time></trkpt><trkpt lat="44.5287201" lon="10.8528643"><ele>134.2</ele><time>2026-04-26T07:05:13.229Z</time></trkpt><trkpt lat="44.5286554" lon="10.8528438"><ele>134.4</ele><time>2026-04-26T07:05:14.224Z</time></trkpt><trkpt lat="44.5285721" lon="10.8528097"><ele>134.6</ele><time>2026-04-26T07:05:15.227Z</time></trkpt><trkpt lat="44.5284826" lon="10.8527472"><ele>134.8</ele><time>2026-04-26T07:05:16.227Z</time></trkpt><trkpt lat="44.5283927" lon="10.8526534"><ele>135.0</ele><time>2026-04-26T07:05:17.232Z</time></trkpt><trkpt lat="44.5283027" lon="10.8525588"><ele>135.0</ele><time>2026-04-26T07:05:18.226Z</time></trkpt><trkpt lat="44.5282132" lon="10.8524327"><ele>135.0</ele><time>2026-04-26T07:05:19.225Z</time></trkpt><trkpt lat="44.5281302" lon="10.8522958"><ele>135.0</ele><time>2026-04-26T07:05:20.229Z</time></trkpt><trkpt lat="44.528068" lon="10.8521314"><ele>135.0</ele><time>2026-04-26T07:05:21.225Z</time></trkpt><trkpt lat="44.5280134" lon="10.8519496"><ele>135.0</ele><time>2026-04-26T07:05:22.227Z</time></trkpt><trkpt lat="44.5279834" lon="10.8517549"><ele>135.0</ele><time>2026-04-26T07:05:23.23Z</time></trkpt><trkpt lat="44.52795" lon="10.851561"><ele>135.0</ele><time>2026-04-26T07:05:24.228Z</time></trkpt><trkpt lat="44.5279189" lon="10.85138"><ele>135.0</ele><time>2026-04-26T07:05:25.234Z</time></trkpt><trkpt lat="44.5278856" lon="10.8512115"><ele>136.0</ele><time>2026-04-26T07:05:26.24Z</time></trkpt><trkpt lat="44.5278568" lon="10.8510426"><ele>137.0</ele><time>2026-04-26T07:05:27.229Z</time></trkpt><trkpt lat="44.5278296" lon="10.8508766"><ele>138.0</ele><time>2026-04-26T07:05:28.227Z</time></trkpt><trkpt lat="44.5278123" lon="10.8507087"><ele>139.0</ele><time>2026-04-26T07:05:29.232Z</time></trkpt><trkpt lat="44.5278188" lon="10.8505362"><ele>139.0</ele><time>2026-04-26T07:05:30.233Z</time></trkpt><trkpt lat="44.5278523" lon="10.8503581"><ele>139.0</ele><time>2026-04-26T07:05:31.237Z</time></trkpt><trkpt lat="44.5278993" lon="10.8501794"><ele>139.0</ele><time>2026-04-26T07:05:32.231Z</time></trkpt><trkpt lat="44.5279517" lon="10.8500015"><ele>139.0</ele><time>2026-04-26T07:05:33.23Z</time></trkpt><trkpt lat="44.5280024" lon="10.8498285"><ele>138.75</ele><time>2026-04-26T07:05:34.238Z</time></trkpt><trkpt lat="44.5280469" lon="10.8496583"><ele>138.5</ele><time>2026-04-26T07:05:35.228Z</time></trkpt><trkpt lat="44.528087" lon="10.8494921"><ele>138.25</ele><time>2026-04-26T07:05:36.227Z</time></trkpt><trkpt lat="44.5281203" lon="10.8493288"><ele>138.0</ele><time>2026-04-26T07:05:37.231Z</time></trkpt><trkpt lat="44.5281541" lon="10.8491581"><ele>137.75</ele><time>2026-04-26T07:05:38.227Z</time></trkpt><trkpt lat="44.5281762" lon="10.8489847"><ele>137.5</ele><time>2026-04-26T07:05:39.225Z</time></trkpt><trkpt lat="44.5281888" lon="10.8488097"><ele>137.25</ele><time>2026-04-26T07:05:40.223Z</time></trkpt><trkpt lat="44.5281968" lon="10.8486303"><ele>137.0</ele><time>2026-04-26T07:05:41.227Z</time></trkpt><trkpt lat="44.5282005" lon="10.8484542"><ele>137.0</ele><time>2026-04-26T07:05:42.226Z</time></trkpt><trkpt lat="44.5282003" lon="10.8482769"><ele>137.0</ele><time>2026-04-26T07:05:43.222Z</time></trkpt><trkpt lat="44.5281968" lon="10.8480961"><ele>137.0</ele><time>2026-04-26T07:05:44.227Z</time></trkpt><trkpt lat="44.5281939" lon="10.8479129"><ele>137.0</ele><time>2026-04-26T07:05:45.229Z</time></trkpt><trkpt lat="44.5281945" lon="10.847727"><ele>136.75</ele><time>2026-04-26T07:05:46.227Z</time></trkpt><trkpt lat="44.5281931" lon="10.8475386"><ele>136.5</ele><time>2026-04-26T07:05:47.224Z</time></trkpt><trkpt lat="44.5281908" lon="10.8473652"><ele>136.25</ele><time>2026-04-26T07:05:48.226Z</time></trkpt><trkpt lat="44.5281848" lon="10.8472053"><ele>136.0</ele><time>2026-04-26T07:05:49.231Z</time></trkpt><trkpt lat="44.5281738" lon="10.8470552"><ele>136.0</ele><time>2026-04-26T07:05:50.227Z</time></trkpt><trkpt lat="44.52816" lon="10.8469213"><ele>136.0</ele><time>2026-04-26T07:05:51.233Z</time></trkpt><trkpt lat="44.5281409" lon="10.8468056"><ele>136.0</ele><time>2026-04-26T07:05:52.227Z</time></trkpt><trkpt lat="44.5281149" lon="10.8467161"><ele>136.0</ele><time>2026-04-26T07:05:53.226Z</time></trkpt><trkpt lat="44.5280295" lon="10.8466355"><ele>136.0</ele><time>2026-04-26T07:05:55.227Z</time></trkpt><trkpt lat="44.5279662" lon="10.8466363"><ele>136.0</ele><time>2026-04-26T07:05:56.227Z</time></trkpt><trkpt lat="44.5278904" lon="10.8466563"><ele>136.2</ele><time>2026-04-26T07:05:57.229Z</time></trkpt><trkpt lat="44.5278017" lon="10.8466918"><ele>136.39999999999998</ele><time>2026-04-26T07:05:58.228Z</time></trkpt><trkpt lat="44.527703" lon="10.8467304"><ele>136.6</ele><time>2026-04-26T07:05:59.227Z</time></trkpt><trkpt lat="44.527602" lon="10.846764"><ele>136.79999999999998</ele><time>2026-04-26T07:06:00.238Z</time></trkpt><trkpt lat="44.5274941" lon="10.8467518"><ele>137.0</ele><time>2026-04-26T07:06:01.225Z</time></trkpt><trkpt lat="44.5273812" lon="10.8467133"><ele>137.0</ele><time>2026-04-26T07:06:02.225Z</time></trkpt><trkpt lat="44.5272648" lon="10.8466494"><ele>137.0</ele><time>2026-04-26T07:06:03.235Z</time></trkpt><trkpt lat="44.52715" lon="10.8465802"><ele>137.0</ele><time>2026-04-26T07:06:04.228Z</time></trkpt><trkpt lat="44.5270347" lon="10.8465154"><ele>137.0</ele><time>2026-04-26T07:06:05.228Z</time></trkpt><trkpt lat="44.5269204" lon="10.8464567"><ele>137.2</ele><time>2026-04-26T07:06:06.232Z</time></trkpt><trkpt lat="44.5268198" lon="10.8464066"><ele>137.39999999999998</ele><time>2026-04-26T07:06:07.224Z</time></trkpt><trkpt lat="44.5267321" lon="10.8463605"><ele>137.60000000000002</ele><time>2026-04-26T07:06:08.232Z</time></trkpt><trkpt lat="44.5266642" lon="10.8462736"><ele>137.8</ele><time>2026-04-26T07:06:09.229Z</time></trkpt><trkpt lat="44.5266016" lon="10.8461525"><ele>138.0</ele><time>2026-04-26T07:06:10.224Z</time></trkpt><trkpt lat="44.5265087" lon="10.8460601"><ele>138.0</ele><time>2026-04-26T07:06:11.235Z</time></trkpt><trkpt lat="44.5264158" lon="10.8459854"><ele>138.0</ele><time>2026-04-26T07:06:12.238Z</time></trkpt><trkpt lat="44.5263022" lon="10.8459341"><ele>138.0</ele><time>2026-04-26T07:06:13.226Z</time></trkpt><trkpt lat="44.5261865" lon="10.8458762"><ele>138.0</ele><time>2026-04-26T07:06:14.233Z</time></trkpt><trkpt lat="44.5260748" lon="10.8458072"><ele>138.6</ele><time>2026-04-26T07:06:15.225Z</time></trkpt><trkpt lat="44.5259667" lon="10.8457395"><ele>139.20000000000002</ele><time>2026-04-26T07:06:16.23Z</time></trkpt><trkpt lat="44.5258642" lon="10.8456762"><ele>139.8</ele><time>2026-04-26T07:06:17.229Z</time></trkpt><trkpt lat="44.5257731" lon="10.8456187"><ele>140.4</ele><time>2026-04-26T07:06:18.229Z</time></trkpt><trkpt lat="44.525696" lon="10.8455733"><ele>141.0</ele><time>2026-04-26T07:06:19.228Z</time></trkpt><trkpt lat="44.5256208" lon="10.8455249"><ele>141.0</ele><time>2026-04-26T07:06:20.224Z</time></trkpt><trkpt lat="44.5255489" lon="10.8454679"><ele>141.0</ele><time>2026-04-26T07:06:21.234Z</time></trkpt><trkpt lat="44.5254783" lon="10.845423"><ele>141.0</ele><time>2026-04-26T07:06:22.228Z</time></trkpt><trkpt lat="44.5254092" lon="10.8454094"><ele>141.0</ele><time>2026-04-26T07:06:23.229Z</time></trkpt><trkpt lat="44.525339" lon="10.8454037"><ele>141.0</ele><time>2026-04-26T07:06:24.23Z</time></trkpt><trkpt lat="44.5252763" lon="10.8454729"><ele>141.0</ele><time>2026-04-26T07:06:25.238Z</time></trkpt><trkpt lat="44.5252268" lon="10.8455707"><ele>141.0</ele><time>2026-04-26T07:06:26.234Z</time></trkpt><trkpt lat="44.5251765" lon="10.8456758"><ele>141.0</ele><time>2026-04-26T07:06:27.232Z</time></trkpt><trkpt lat="44.5251177" lon="10.845755"><ele>141.0</ele><time>2026-04-26T07:06:28.232Z</time></trkpt><trkpt lat="44.525048" lon="10.8457988"><ele>141.0</ele><time>2026-04-26T07:06:29.232Z</time></trkpt><trkpt lat="44.5249678" lon="10.8458098"><ele>141.0</ele><time>2026-04-26T07:06:30.231Z</time></trkpt><trkpt lat="44.524892" lon="10.8458192"><ele>141.0</ele><time>2026-04-26T07:06:31.231Z</time></trkpt><trkpt lat="44.5248037" lon="10.845767"><ele>141.0</ele><time>2026-04-26T07:06:32.235Z</time></trkpt><trkpt lat="44.5246997" lon="10.8457005"><ele>141.0</ele><time>2026-04-26T07:06:33.235Z</time></trkpt><trkpt lat="44.524592" lon="10.8456365"><ele>141.0</ele><time>2026-04-26T07:06:34.234Z</time></trkpt><trkpt lat="44.5244803" lon="10.8455707"><ele>141.0</ele><time>2026-04-26T07:06:35.236Z</time></trkpt><trkpt lat="44.5243671" lon="10.845506"><ele>141.2</ele><time>2026-04-26T07:06:36.232Z</time></trkpt><trkpt lat="44.5242483" lon="10.8454437"><ele>141.39999999999998</ele><time>2026-04-26T07:06:37.234Z</time></trkpt><trkpt lat="44.5241351" lon="10.8453893"><ele>141.6</ele><time>2026-04-26T07:06:38.236Z</time></trkpt><trkpt lat="44.5240349" lon="10.8453445"><ele>141.79999999999998</ele><time>2026-04-26T07:06:39.24Z</time></trkpt><trkpt lat="44.523955" lon="10.8453"><ele>142.0</ele><time>2026-04-26T07:06:40.238Z</time></trkpt><trkpt lat="44.5238881" lon="10.8452611"><ele>142.0</ele><time>2026-04-26T07:06:41.24Z</time></trkpt><trkpt lat="44.5238474" lon="10.8451307"><ele>142.0</ele><time>2026-04-26T07:06:43.235Z</time></trkpt><trkpt lat="44.523878" lon="10.845008"><ele>142.0</ele><time>2026-04-26T07:06:45.235Z</time></trkpt><trkpt lat="44.5239321" lon="10.8448932"><ele>142.0</ele><time>2026-04-26T07:06:47.247Z</time></trkpt><trkpt lat="44.5239756" lon="10.8447505"><ele>142.0</ele><time>2026-04-26T07:06:49.23Z</time></trkpt><trkpt lat="44.5240169" lon="10.844611"><ele>142.2</ele><time>2026-04-26T07:06:51.229Z</time></trkpt><trkpt lat="44.5240438" lon="10.8445217"><ele>142.39999999999998</ele><time>2026-04-26T07:06:52.227Z</time></trkpt><trkpt lat="44.5240735" lon="10.8444252"><ele>142.60000000000002</ele><time>2026-04-26T07:06:53.228Z</time></trkpt><trkpt lat="44.5241272" lon="10.8442958"><ele>142.8</ele><time>2026-04-26T07:06:54.227Z</time></trkpt><trkpt lat="44.5241884" lon="10.8441512"><ele>143.0</ele><time>2026-04-26T07:06:55.232Z</time></trkpt><trkpt lat="44.5242567" lon="10.843999"><ele>143.0</ele><time>2026-04-26T07:06:56.229Z</time></trkpt><trkpt lat="44.5243295" lon="10.8438436"><ele>143.0</ele><time>2026-04-26T07:06:57.232Z</time></trkpt><trkpt lat="44.5244012" lon="10.8436913"><ele>143.0</ele><time>2026-04-26T07:06:58.228Z</time></trkpt><trkpt lat="44.5244691" lon="10.843552"><ele>143.0</ele><time>2026-04-26T07:06:59.244Z</time></trkpt><trkpt lat="44.5245259" lon="10.8434392"><ele>142.6</ele><time>2026-04-26T07:07:00.228Z</time></trkpt><trkpt lat="44.5245753" lon="10.8433475"><ele>142.20000000000002</ele><time>2026-04-26T07:07:01.234Z</time></trkpt><trkpt lat="44.5246372" lon="10.8432443"><ele>141.8</ele><time>2026-04-26T07:07:03.232Z</time></trkpt><trkpt lat="44.5246628" lon="10.8431245"><ele>141.4</ele><time>2026-04-26T07:07:06.234Z</time></trkpt><trkpt lat="44.5246035" lon="10.8430006"><ele>141.0</ele><time>2026-04-26T07:07:08.238Z</time></trkpt><trkpt lat="44.5245494" lon="10.8429216"><ele>141.0</ele><time>2026-04-26T07:07:09.227Z</time></trkpt><trkpt lat="44.5244819" lon="10.842838"><ele>141.0</ele><time>2026-04-26T07:07:10.226Z</time></trkpt><trkpt lat="44.5244063" lon="10.842754"><ele>141.0</ele><time>2026-04-26T07:07:11.237Z</time></trkpt><trkpt lat="44.5243264" lon="10.8426672"><ele>141.0</ele><time>2026-04-26T07:07:12.227Z</time></trkpt><trkpt lat="44.5242393" lon="10.8425761"><ele>141.0</ele><time>2026-04-26T07:07:13.242Z</time></trkpt><trkpt lat="44.5241485" lon="10.8424794"><ele>140.75</ele><time>2026-04-26T07:07:14.229Z</time></trkpt><trkpt lat="44.5240507" lon="10.8423893"><ele>140.5</ele><time>2026-04-26T07:07:15.239Z</time></trkpt><trkpt lat="44.5239434" lon="10.8423156"><ele>140.25</ele><time>2026-04-26T07:07:16.233Z</time></trkpt><trkpt lat="44.5238244" lon="10.8422707"><ele>140.0</ele><time>2026-04-26T07:07:17.232Z</time></trkpt><trkpt lat="44.5236922" lon="10.8422596"><ele>140.0</ele><time>2026-04-26T07:07:18.235Z</time></trkpt><trkpt lat="44.5235549" lon="10.842289"><ele>140.0</ele><time>2026-04-26T07:07:19.235Z</time></trkpt><trkpt lat="44.5234074" lon="10.8423605"><ele>140.0</ele><time>2026-04-26T07:07:20.235Z</time></trkpt><trkpt lat="44.5232477" lon="10.8424643"><ele>140.0</ele><time>2026-04-26T07:07:21.231Z</time></trkpt><trkpt lat="44.5230737" lon="10.842587"><ele>140.0</ele><time>2026-04-26T07:07:22.246Z</time></trkpt><trkpt lat="44.5228973" lon="10.8427107"><ele>140.0</ele><time>2026-04-26T07:07:23.232Z</time></trkpt><trkpt lat="44.5227173" lon="10.8428385"><ele>141.0</ele><time>2026-04-26T07:07:24.232Z</time></trkpt><trkpt lat="44.5225244" lon="10.8429337"><ele>142.0</ele><time>2026-04-26T07:07:25.239Z</time></trkpt><trkpt lat="44.5223291" lon="10.8429824"><ele>143.0</ele><time>2026-04-26T07:07:26.235Z</time></trkpt><trkpt lat="44.5221276" lon="10.8429844"><ele>143.33333333333331</ele><time>2026-04-26T07:07:27.235Z</time></trkpt><trkpt lat="44.5219237" lon="10.8429403"><ele>143.66666666666666</ele><time>2026-04-26T07:07:28.235Z</time></trkpt><trkpt lat="44.521721" lon="10.8428732"><ele>144.0</ele><time>2026-04-26T07:07:29.234Z</time></trkpt><trkpt lat="44.5215225" lon="10.8428057"><ele>144.0</ele><time>2026-04-26T07:07:30.233Z</time></trkpt><trkpt lat="44.5213175" lon="10.8427521"><ele>144.0</ele><time>2026-04-26T07:07:31.234Z</time></trkpt><trkpt lat="44.5211165" lon="10.842707"><ele>144.0</ele><time>2026-04-26T07:07:32.224Z</time></trkpt><trkpt lat="44.5209189" lon="10.8426661"><ele>143.66666666666666</ele><time>2026-04-26T07:07:33.232Z</time></trkpt><trkpt lat="44.5207227" lon="10.8426162"><ele>143.33333333333331</ele><time>2026-04-26T07:07:34.23Z</time></trkpt><trkpt lat="44.5205332" lon="10.8425553"><ele>143.0</ele><time>2026-04-26T07:07:35.227Z</time></trkpt><trkpt lat="44.5203415" lon="10.8424848"><ele>143.0</ele><time>2026-04-26T07:07:36.23Z</time></trkpt><trkpt lat="44.5201548" lon="10.8424019"><ele>143.0</ele><time>2026-04-26T07:07:37.228Z</time></trkpt><trkpt lat="44.5199669" lon="10.8423157"><ele>143.0</ele><time>2026-04-26T07:07:38.226Z</time></trkpt><trkpt lat="44.5197806" lon="10.8422388"><ele>143.0</ele><time>2026-04-26T07:07:39.229Z</time></trkpt><trkpt lat="44.5195954" lon="10.8421623"><ele>143.0</ele><time>2026-04-26T07:07:40.229Z</time></trkpt><trkpt lat="44.5194127" lon="10.8420796"><ele>143.0</ele><time>2026-04-26T07:07:41.227Z</time></trkpt><trkpt lat="44.5192229" lon="10.8419959"><ele>144.33333333333331</ele><time>2026-04-26T07:07:42.235Z</time></trkpt><trkpt lat="44.519033" lon="10.8419164"><ele>145.66666666666666</ele><time>2026-04-26T07:07:43.234Z</time></trkpt><trkpt lat="44.5188375" lon="10.8418434"><ele>147.0</ele><time>2026-04-26T07:07:44.234Z</time></trkpt><trkpt lat="44.5186428" lon="10.8417835"><ele>147.0</ele><time>2026-04-26T07:07:45.233Z</time></trkpt><trkpt lat="44.518446" lon="10.841729"><ele>147.0</ele><time>2026-04-26T07:07:46.233Z</time></trkpt><trkpt lat="44.5182482" lon="10.8416785"><ele>147.0</ele><time>2026-04-26T07:07:47.234Z</time></trkpt><trkpt lat="44.5180473" lon="10.8416263"><ele>148.0</ele><time>2026-04-26T07:07:48.234Z</time></trkpt><trkpt lat="44.5178474" lon="10.841574"><ele>149.0</ele><time>2026-04-26T07:07:49.227Z</time></trkpt><trkpt lat="44.5176472" lon="10.841516"><ele>150.0</ele><time>2026-04-26T07:07:50.23Z</time></trkpt><trkpt lat="44.5174532" lon="10.8414398"><ele>150.0</ele><time>2026-04-26T07:07:51.232Z</time></trkpt><trkpt lat="44.5172658" lon="10.8413439"><ele>150.0</ele><time>2026-04-26T07:07:52.225Z</time></trkpt><trkpt lat="44.5170909" lon="10.841234"><ele>150.0</ele><time>2026-04-26T07:07:53.233Z</time></trkpt><trkpt lat="44.5169241" lon="10.841115"><ele>150.0</ele><time>2026-04-26T07:07:54.231Z</time></trkpt><trkpt lat="44.5167541" lon="10.8409968"><ele>150.0</ele><time>2026-04-26T07:07:55.227Z</time></trkpt><trkpt lat="44.516599" lon="10.8408715"><ele>150.0</ele><time>2026-04-26T07:07:56.228Z</time></trkpt><trkpt lat="44.5164538" lon="10.8407643"><ele>150.0</ele><time>2026-04-26T07:07:57.231Z</time></trkpt><trkpt lat="44.516316" lon="10.8406642"><ele>150.0</ele><time>2026-04-26T07:07:58.233Z</time></trkpt><trkpt lat="44.5161762" lon="10.8405625"><ele>150.0</ele><time>2026-04-26T07:07:59.227Z</time></trkpt><trkpt lat="44.5160338" lon="10.840456"><ele>149.66666666666666</ele><time>2026-04-26T07:08:00.232Z</time></trkpt><trkpt lat="44.5158885" lon="10.8403394"><ele>149.33333333333331</ele><time>2026-04-26T07:08:01.231Z</time></trkpt><trkpt lat="44.515744" lon="10.8401999"><ele>149.0</ele><time>2026-04-26T07:08:02.228Z</time></trkpt><trkpt lat="44.5156073" lon="10.8400287"><ele>149.0</ele><time>2026-04-26T07:08:03.244Z</time></trkpt><trkpt lat="44.5154703" lon="10.8398578"><ele>149.0</ele><time>2026-04-26T07:08:04.227Z</time></trkpt><trkpt lat="44.5153526" lon="10.8396572"><ele>149.0</ele><time>2026-04-26T07:08:05.235Z</time></trkpt><trkpt lat="44.5152314" lon="10.8394543"><ele>149.66666666666666</ele><time>2026-04-26T07:08:06.235Z</time></trkpt><trkpt lat="44.515105" lon="10.8392512"><ele>150.33333333333334</ele><time>2026-04-26T07:08:07.234Z</time></trkpt><trkpt lat="44.5149779" lon="10.839048"><ele>151.0</ele><time>2026-04-26T07:08:08.23Z</time></trkpt><trkpt lat="44.5148545" lon="10.8388523"><ele>151.0</ele><time>2026-04-26T07:08:09.228Z</time></trkpt><trkpt lat="44.5147216" lon="10.8386574"><ele>151.0</ele><time>2026-04-26T07:08:10.229Z</time></trkpt><trkpt lat="44.5145844" lon="10.8384679"><ele>151.0</ele><time>2026-04-26T07:08:11.232Z</time></trkpt><trkpt lat="44.5144499" lon="10.8382854"><ele>152.33333333333334</ele><time>2026-04-26T07:08:12.23Z</time></trkpt><trkpt lat="44.5143114" lon="10.8381056"><ele>153.66666666666666</ele><time>2026-04-26T07:08:13.231Z</time></trkpt><trkpt lat="44.5141771" lon="10.8379389"><ele>155.0</ele><time>2026-04-26T07:08:14.232Z</time></trkpt><trkpt lat="44.5140487" lon="10.8377849"><ele>155.0</ele><time>2026-04-26T07:08:15.23Z</time></trkpt><trkpt lat="44.5139298" lon="10.8376447"><ele>155.0</ele><time>2026-04-26T07:08:16.229Z</time></trkpt><trkpt lat="44.5138106" lon="10.8375197"><ele>155.0</ele><time>2026-04-26T07:08:17.231Z</time></trkpt><trkpt lat="44.5137053" lon="10.8374045"><ele>155.0</ele><time>2026-04-26T07:08:18.239Z</time></trkpt><trkpt lat="44.5135991" lon="10.8373055"><ele>155.5</ele><time>2026-04-26T07:08:19.231Z</time></trkpt><trkpt lat="44.513498" lon="10.8372139"><ele>156.0</ele><time>2026-04-26T07:08:20.23Z</time></trkpt><trkpt lat="44.5133996" lon="10.8371092"><ele>156.5</ele><time>2026-04-26T07:08:21.233Z</time></trkpt><trkpt lat="44.5132992" lon="10.8370093"><ele>157.0</ele><time>2026-04-26T07:08:22.234Z</time></trkpt><trkpt lat="44.5132112" lon="10.8369198"><ele>157.0</ele><time>2026-04-26T07:08:23.227Z</time></trkpt><trkpt lat="44.5131263" lon="10.8368383"><ele>157.0</ele><time>2026-04-26T07:08:24.23Z</time></trkpt><trkpt lat="44.51305" lon="10.8367712"><ele>157.0</ele><time>2026-04-26T07:08:25.227Z</time></trkpt><trkpt lat="44.5130056" lon="10.8366995"><ele>157.0</ele><time>2026-04-26T07:08:26.233Z</time></trkpt><trkpt lat="44.5130195" lon="10.8365193"><ele>157.0</ele><time>2026-04-26T07:08:28.232Z</time></trkpt><trkpt lat="44.5130497" lon="10.8364163"><ele>156.66666666666669</ele><time>2026-04-26T07:08:29.227Z</time></trkpt><trkpt lat="44.5131024" lon="10.8362476"><ele>156.33333333333334</ele><time>2026-04-26T07:08:31.236Z</time></trkpt><trkpt lat="44.5131313" lon="10.8361246"><ele>156.0</ele><time>2026-04-26T07:08:33.232Z</time></trkpt><trkpt lat="44.5131127" lon="10.8360134"><ele>155.66666666666666</ele><time>2026-04-26T07:08:35.231Z</time></trkpt><trkpt lat="44.5130697" lon="10.8359481"><ele>155.33333333333331</ele><time>2026-04-26T07:08:36.231Z</time></trkpt><trkpt lat="44.5130237" lon="10.8358764"><ele>155.0</ele><time>2026-04-26T07:08:37.227Z</time></trkpt><trkpt lat="44.5129505" lon="10.8358263"><ele>155.75</ele><time>2026-04-26T07:08:38.232Z</time></trkpt><trkpt lat="44.5128597" lon="10.8357361"><ele>156.5</ele><time>2026-04-26T07:08:39.231Z</time></trkpt><trkpt lat="44.5127469" lon="10.8356439"><ele>157.25</ele><time>2026-04-26T07:08:40.228Z</time></trkpt><trkpt lat="44.5126296" lon="10.8355405"><ele>158.0</ele><time>2026-04-26T07:08:41.226Z</time></trkpt><trkpt lat="44.512517" lon="10.8354297"><ele>158.0</ele><time>2026-04-26T07:08:42.232Z</time></trkpt><trkpt lat="44.5124082" lon="10.8353101"><ele>158.0</ele><time>2026-04-26T07:08:43.227Z</time></trkpt><trkpt lat="44.5123169" lon="10.8351755"><ele>158.0</ele><time>2026-04-26T07:08:44.232Z</time></trkpt><trkpt lat="44.5122297" lon="10.8350252"><ele>158.0</ele><time>2026-04-26T07:08:45.236Z</time></trkpt><trkpt lat="44.5121535" lon="10.834889"><ele>158.0</ele><time>2026-04-26T07:08:46.236Z</time></trkpt><trkpt lat="44.5120857" lon="10.8347626"><ele>158.0</ele><time>2026-04-26T07:08:47.237Z</time></trkpt><trkpt lat="44.5120223" lon="10.8346351"><ele>158.0</ele><time>2026-04-26T07:08:48.233Z</time></trkpt><trkpt lat="44.5119597" lon="10.8345176"><ele>158.0</ele><time>2026-04-26T07:08:49.242Z</time></trkpt><trkpt lat="44.5119204" lon="10.8343876"><ele>158.0</ele><time>2026-04-26T07:08:50.237Z</time></trkpt><trkpt lat="44.5119016" lon="10.8342627"><ele>158.60000000000002</ele><time>2026-04-26T07:08:51.238Z</time></trkpt><trkpt lat="44.5119048" lon="10.834131"><ele>159.20000000000002</ele><time>2026-04-26T07:08:52.241Z</time></trkpt><trkpt lat="44.5119205" lon="10.8340045"><ele>159.8</ele><time>2026-04-26T07:08:53.228Z</time></trkpt><trkpt lat="44.5119436" lon="10.8338769"><ele>160.4</ele><time>2026-04-26T07:08:54.231Z</time></trkpt><trkpt lat="44.5119708" lon="10.8337442"><ele>161.0</ele><time>2026-04-26T07:08:55.227Z</time></trkpt><trkpt lat="44.5120041" lon="10.8336041"><ele>162.4</ele><time>2026-04-26T07:08:56.228Z</time></trkpt><trkpt lat="44.5120393" lon="10.8334622"><ele>163.8</ele><time>2026-04-26T07:08:57.227Z</time></trkpt><trkpt lat="44.512071" lon="10.8333366"><ele>165.20000000000002</ele><time>2026-04-26T07:08:58.232Z</time></trkpt><trkpt lat="44.5121056" lon="10.8331975"><ele>166.60000000000002</ele><time>2026-04-26T07:08:59.229Z</time></trkpt><trkpt lat="44.5121372" lon="10.8330584"><ele>168.0</ele><time>2026-04-26T07:09:00.224Z</time></trkpt><trkpt lat="44.512173" lon="10.832935"><ele>168.5</ele><time>2026-04-26T07:09:01.231Z</time></trkpt><trkpt lat="44.5122186" lon="10.8327975"><ele>169.0</ele><time>2026-04-26T07:09:02.229Z</time></trkpt><trkpt lat="44.512256" lon="10.8326272"><ele>169.5</ele><time>2026-04-26T07:09:03.224Z</time></trkpt><trkpt lat="44.5122848" lon="10.8324527"><ele>170.0</ele><time>2026-04-26T07:09:04.225Z</time></trkpt><trkpt lat="44.5123067" lon="10.8322738"><ele>170.0</ele><time>2026-04-26T07:09:05.227Z</time></trkpt><trkpt lat="44.5123197" lon="10.8320949"><ele>170.0</ele><time>2026-04-26T07:09:06.232Z</time></trkpt><trkpt lat="44.5123252" lon="10.8319112"><ele>170.0</ele><time>2026-04-26T07:09:07.229Z</time></trkpt><trkpt lat="44.5123183" lon="10.8317297"><ele>170.0</ele><time>2026-04-26T07:09:08.238Z</time></trkpt><trkpt lat="44.5123089" lon="10.8315485"><ele>169.75</ele><time>2026-04-26T07:09:09.222Z</time></trkpt><trkpt lat="44.5122859" lon="10.8313656"><ele>169.5</ele><time>2026-04-26T07:09:10.226Z</time></trkpt><trkpt lat="44.5122597" lon="10.8311751"><ele>169.25</ele><time>2026-04-26T07:09:11.224Z</time></trkpt><trkpt lat="44.5122368" lon="10.8309839"><ele>169.0</ele><time>2026-04-26T07:09:12.223Z</time></trkpt><trkpt lat="44.5122115" lon="10.8308015"><ele>168.25</ele><time>2026-04-26T07:09:13.228Z</time></trkpt><trkpt lat="44.5121726" lon="10.8306182"><ele>167.5</ele><time>2026-04-26T07:09:14.235Z</time></trkpt><trkpt lat="44.5121233" lon="10.8304328"><ele>166.75</ele><time>2026-04-26T07:09:15.228Z</time></trkpt><trkpt lat="44.5120682" lon="10.8302431"><ele>166.0</ele><time>2026-04-26T07:09:16.231Z</time></trkpt><trkpt lat="44.5120058" lon="10.8300522"><ele>169.66666666666669</ele><time>2026-04-26T07:09:17.228Z</time></trkpt><trkpt lat="44.5119389" lon="10.8298569"><ele>173.33333333333334</ele><time>2026-04-26T07:09:18.227Z</time></trkpt><trkpt lat="44.5118668" lon="10.8296657"><ele>177.0</ele><time>2026-04-26T07:09:19.241Z</time></trkpt><trkpt lat="44.5118015" lon="10.8294747"><ele>175.25</ele><time>2026-04-26T07:09:20.235Z</time></trkpt><trkpt lat="44.5117389" lon="10.829285"><ele>173.5</ele><time>2026-04-26T07:09:21.224Z</time></trkpt><trkpt lat="44.5116759" lon="10.8290958"><ele>171.75</ele><time>2026-04-26T07:09:22.227Z</time></trkpt><trkpt lat="44.5116138" lon="10.8289109"><ele>170.0</ele><time>2026-04-26T07:09:23.253Z</time></trkpt><trkpt lat="44.5115564" lon="10.8287308"><ele>170.0</ele><time>2026-04-26T07:09:24.231Z</time></trkpt><trkpt lat="44.5115043" lon="10.8285613"><ele>170.0</ele><time>2026-04-26T07:09:25.232Z</time></trkpt><trkpt lat="44.5114522" lon="10.828398"><ele>170.0</ele><time>2026-04-26T07:09:26.236Z</time></trkpt><trkpt lat="44.511402" lon="10.8282405"><ele>170.0</ele><time>2026-04-26T07:09:27.235Z</time></trkpt><trkpt lat="44.511354" lon="10.8280887"><ele>171.0</ele><time>2026-04-26T07:09:28.228Z</time></trkpt><trkpt lat="44.5113107" lon="10.8279456"><ele>172.0</ele><time>2026-04-26T07:09:29.228Z</time></trkpt><trkpt lat="44.5112733" lon="10.8278161"><ele>173.0</ele><time>2026-04-26T07:09:30.227Z</time></trkpt><trkpt lat="44.5112386" lon="10.8276918"><ele>174.0</ele><time>2026-04-26T07:09:31.234Z</time></trkpt><trkpt lat="44.511215" lon="10.8275729"><ele>175.0</ele><time>2026-04-26T07:09:32.227Z</time></trkpt><trkpt lat="44.5111934" lon="10.8274658"><ele>175.0</ele><time>2026-04-26T07:09:33.229Z</time></trkpt><trkpt lat="44.5112197" lon="10.8273629"><ele>175.0</ele><time>2026-04-26T07:09:34.231Z</time></trkpt><trkpt lat="44.5112614" lon="10.8272542"><ele>175.0</ele><time>2026-04-26T07:09:35.228Z</time></trkpt><trkpt lat="44.5113204" lon="10.8271461"><ele>175.0</ele><time>2026-04-26T07:09:36.228Z</time></trkpt><trkpt lat="44.5113866" lon="10.8270352"><ele>175.0</ele><time>2026-04-26T07:09:37.227Z</time></trkpt><trkpt lat="44.5114608" lon="10.8269316"><ele>175.5</ele><time>2026-04-26T07:09:38.223Z</time></trkpt><trkpt lat="44.5115396" lon="10.8268045"><ele>176.0</ele><time>2026-04-26T07:09:39.231Z</time></trkpt><trkpt lat="44.5116261" lon="10.8266723"><ele>176.5</ele><time>2026-04-26T07:09:40.226Z</time></trkpt><trkpt lat="44.5117286" lon="10.826549"><ele>177.0</ele><time>2026-04-26T07:09:41.232Z</time></trkpt><trkpt lat="44.511841" lon="10.8264403"><ele>177.0</ele><time>2026-04-26T07:09:42.23Z</time></trkpt><trkpt lat="44.5119474" lon="10.8263403"><ele>177.0</ele><time>2026-04-26T07:09:43.233Z</time></trkpt><trkpt lat="44.5120413" lon="10.8262501"><ele>177.0</ele><time>2026-04-26T07:09:44.228Z</time></trkpt><trkpt lat="44.5120991" lon="10.8261665"><ele>177.0</ele><time>2026-04-26T07:09:45.234Z</time></trkpt><trkpt lat="44.5121322" lon="10.8260645"><ele>177.0</ele><time>2026-04-26T07:09:46.235Z</time></trkpt><trkpt lat="44.5121091" lon="10.8259255"><ele>178.8</ele><time>2026-04-26T07:09:47.234Z</time></trkpt><trkpt lat="44.5120817" lon="10.8257698"><ele>180.6</ele><time>2026-04-26T07:09:48.231Z</time></trkpt><trkpt lat="44.5120465" lon="10.8256082"><ele>182.4</ele><time>2026-04-26T07:09:49.227Z</time></trkpt><trkpt lat="44.512016" lon="10.8254674"><ele>184.20000000000002</ele><time>2026-04-26T07:09:50.223Z</time></trkpt><trkpt lat="44.5120347" lon="10.8253318"><ele>186.0</ele><time>2026-04-26T07:09:51.225Z</time></trkpt><trkpt lat="44.5120458" lon="10.8252162"><ele>186.0</ele><time>2026-04-26T07:09:53.223Z</time></trkpt><trkpt lat="44.5121105" lon="10.8252743"><ele>186.0</ele><time>2026-04-26T07:09:55.23Z</time></trkpt><trkpt lat="44.5121444" lon="10.8253545"><ele>186.0</ele><time>2026-04-26T07:09:56.22Z</time></trkpt><trkpt lat="44.5121798" lon="10.8254452"><ele>186.0</ele><time>2026-04-26T07:09:57.227Z</time></trkpt><trkpt lat="44.5122241" lon="10.8255383"><ele>186.0</ele><time>2026-04-26T07:09:58.232Z</time></trkpt><trkpt lat="44.5122735" lon="10.8256387"><ele>186.0</ele><time>2026-04-26T07:09:59.229Z</time></trkpt><trkpt lat="44.5123296" lon="10.8257344"><ele>186.0</ele><time>2026-04-26T07:10:00.226Z</time></trkpt><trkpt lat="44.5123988" lon="10.8258153"><ele>186.0</ele><time>2026-04-26T07:10:01.233Z</time></trkpt><trkpt lat="44.5124779" lon="10.8258937"><ele>186.0</ele><time>2026-04-26T07:10:02.232Z</time></trkpt><trkpt lat="44.5125603" lon="10.8259623"><ele>186.0</ele><time>2026-04-26T07:10:03.228Z</time></trkpt><trkpt lat="44.5126527" lon="10.8260291"><ele>186.0</ele><time>2026-04-26T07:10:04.223Z</time></trkpt><trkpt lat="44.5127483" lon="10.8260966"><ele>185.8</ele><time>2026-04-26T07:10:05.236Z</time></trkpt><trkpt lat="44.5128469" lon="10.8261618"><ele>185.60000000000002</ele><time>2026-04-26T07:10:06.235Z</time></trkpt><trkpt lat="44.5129466" lon="10.8262274"><ele>185.4</ele><time>2026-04-26T07:10:07.228Z</time></trkpt><trkpt lat="44.5130395" lon="10.8262819"><ele>185.2</ele><time>2026-04-26T07:10:08.232Z</time></trkpt><trkpt lat="44.5131327" lon="10.8263137"><ele>185.0</ele><time>2026-04-26T07:10:09.225Z</time></trkpt><trkpt lat="44.5132387" lon="10.8263122"><ele>187.0</ele><time>2026-04-26T07:10:10.227Z</time></trkpt><trkpt lat="44.513354" lon="10.8262782"><ele>189.0</ele><time>2026-04-26T07:10:11.227Z</time></trkpt><trkpt lat="44.513481" lon="10.8262416"><ele>191.0</ele><time>2026-04-26T07:10:12.223Z</time></trkpt><trkpt lat="44.5136102" lon="10.8261743"><ele>193.0</ele><time>2026-04-26T07:10:13.231Z</time></trkpt><trkpt lat="44.5137322" lon="10.826106"><ele>195.75</ele><time>2026-04-26T07:10:14.226Z</time></trkpt><trkpt lat="44.5138547" lon="10.8260335"><ele>198.5</ele><time>2026-04-26T07:10:15.228Z</time></trkpt><trkpt lat="44.5139614" lon="10.8259583"><ele>201.25</ele><time>2026-04-26T07:10:16.227Z</time></trkpt><trkpt lat="44.5140527" lon="10.8258873"><ele>204.0</ele><time>2026-04-26T07:10:17.234Z</time></trkpt><trkpt lat="44.5141326" lon="10.8258205"><ele>204.0</ele><time>2026-04-26T07:10:18.225Z</time></trkpt><trkpt lat="44.5142119" lon="10.825753"><ele>204.0</ele><time>2026-04-26T07:10:19.231Z</time></trkpt><trkpt lat="44.5142902" lon="10.8256899"><ele>204.0</ele><time>2026-04-26T07:10:20.224Z</time></trkpt><trkpt lat="44.5143718" lon="10.8256253"><ele>204.0</ele><time>2026-04-26T07:10:21.222Z</time></trkpt><trkpt lat="44.5144628" lon="10.8255588"><ele>204.0</ele><time>2026-04-26T07:10:22.238Z</time></trkpt><trkpt lat="44.5145513" lon="10.8254851"><ele>206.0</ele><time>2026-04-26T07:10:23.222Z</time></trkpt><trkpt lat="44.5146291" lon="10.8253998"><ele>208.0</ele><time>2026-04-26T07:10:24.227Z</time></trkpt><trkpt lat="44.514688" lon="10.8252937"><ele>209.99999999999997</ele><time>2026-04-26T07:10:25.224Z</time></trkpt><trkpt lat="44.5147439" lon="10.8251766"><ele>212.0</ele><time>2026-04-26T07:10:26.23Z</time></trkpt><trkpt lat="44.5147691" lon="10.8250292"><ele>214.0</ele><time>2026-04-26T07:10:27.228Z</time></trkpt><trkpt lat="44.5147929" lon="10.8248862"><ele>214.0</ele><time>2026-04-26T07:10:28.224Z</time></trkpt><trkpt lat="44.5148156" lon="10.8247432"><ele>213.99999999999997</ele><time>2026-04-26T07:10:29.237Z</time></trkpt><trkpt lat="44.5148437" lon="10.8245993"><ele>213.99999999999997</ele><time>2026-04-26T07:10:30.228Z</time></trkpt><trkpt lat="44.5148728" lon="10.8244616"><ele>214.0</ele><time>2026-04-26T07:10:31.226Z</time></trkpt><trkpt lat="44.5149044" lon="10.8243133"><ele>214.0</ele><time>2026-04-26T07:10:32.229Z</time></trkpt><trkpt lat="44.514944" lon="10.8241487"><ele>213.5</ele><time>2026-04-26T07:10:33.226Z</time></trkpt><trkpt lat="44.5149763" lon="10.8239932"><ele>213.0</ele><time>2026-04-26T07:10:34.228Z</time></trkpt><trkpt lat="44.5150025" lon="10.8238219"><ele>212.5</ele><time>2026-04-26T07:10:35.227Z</time></trkpt><trkpt lat="44.5150178" lon="10.8236594"><ele>212.0</ele><time>2026-04-26T07:10:36.265Z</time></trkpt><trkpt lat="44.5150318" lon="10.8234878"><ele>212.25</ele><time>2026-04-26T07:10:37.23Z</time></trkpt><trkpt lat="44.5150384" lon="10.8233117"><ele>212.5</ele><time>2026-04-26T07:10:38.235Z</time></trkpt><trkpt lat="44.515037" lon="10.8231349"><ele>212.75</ele><time>2026-04-26T07:10:39.23Z</time></trkpt><trkpt lat="44.5150294" lon="10.8229596"><ele>213.0</ele><time>2026-04-26T07:10:40.229Z</time></trkpt><trkpt lat="44.5150138" lon="10.8227804"><ele>213.0</ele><time>2026-04-26T07:10:41.236Z</time></trkpt><trkpt lat="44.5149999" lon="10.8226008"><ele>213.0</ele><time>2026-04-26T07:10:42.231Z</time></trkpt><trkpt lat="44.5149846" lon="10.8224235"><ele>213.0</ele><time>2026-04-26T07:10:43.229Z</time></trkpt><trkpt lat="44.5149678" lon="10.8222518"><ele>213.0</ele><time>2026-04-26T07:10:44.232Z</time></trkpt><trkpt lat="44.5149503" lon="10.8220857"><ele>213.0</ele><time>2026-04-26T07:10:45.245Z</time></trkpt><trkpt lat="44.5149294" lon="10.8219261"><ele>213.0</ele><time>2026-04-26T07:10:46.227Z</time></trkpt><trkpt lat="44.5149078" lon="10.8217702"><ele>213.0</ele><time>2026-04-26T07:10:47.225Z</time></trkpt><trkpt lat="44.5148865" lon="10.8216122"><ele>213.0</ele><time>2026-04-26T07:10:48.229Z</time></trkpt><trkpt lat="44.5148649" lon="10.8214477"><ele>214.4</ele><time>2026-04-26T07:10:49.24Z</time></trkpt><trkpt lat="44.5148425" lon="10.821282"><ele>215.8</ele><time>2026-04-26T07:10:50.234Z</time></trkpt><trkpt lat="44.5148178" lon="10.8211331"><ele>217.2</ele><time>2026-04-26T07:10:51.234Z</time></trkpt><trkpt lat="44.5148004" lon="10.8210008"><ele>218.6</ele><time>2026-04-26T07:10:52.235Z</time></trkpt><trkpt lat="44.5147989" lon="10.8208725"><ele>220.0</ele><time>2026-04-26T07:10:53.238Z</time></trkpt><trkpt lat="44.514821" lon="10.8207572"><ele>221.2</ele><time>2026-04-26T07:10:54.236Z</time></trkpt><trkpt lat="44.5148702" lon="10.8206601"><ele>222.4</ele><time>2026-04-26T07:10:55.239Z</time></trkpt><trkpt lat="44.5149416" lon="10.8205814"><ele>223.60000000000002</ele><time>2026-04-26T07:10:56.237Z</time></trkpt><trkpt lat="44.5150304" lon="10.8205188"><ele>224.8</ele><time>2026-04-26T07:10:57.236Z</time></trkpt><trkpt lat="44.515126" lon="10.8204648"><ele>226.0</ele><time>2026-04-26T07:10:58.237Z</time></trkpt><trkpt lat="44.5152168" lon="10.8204143"><ele>226.0</ele><time>2026-04-26T07:10:59.233Z</time></trkpt><trkpt lat="44.5152973" lon="10.8203836"><ele>226.00000000000003</ele><time>2026-04-26T07:11:00.233Z</time></trkpt><trkpt lat="44.5153819" lon="10.8202808"><ele>226.00000000000003</ele><time>2026-04-26T07:11:02.241Z</time></trkpt><trkpt lat="44.515335" lon="10.8201534"><ele>226.0</ele><time>2026-04-26T07:11:04.232Z</time></trkpt><trkpt lat="44.5152678" lon="10.8201289"><ele>226.0</ele><time>2026-04-26T07:11:05.238Z</time></trkpt><trkpt lat="44.5151794" lon="10.820143"><ele>228.20000000000002</ele><time>2026-04-26T07:11:06.234Z</time></trkpt><trkpt lat="44.5150888" lon="10.8201249"><ele>230.40000000000003</ele><time>2026-04-26T07:11:07.232Z</time></trkpt><trkpt lat="44.5150043" lon="10.820076"><ele>232.6</ele><time>2026-04-26T07:11:08.238Z</time></trkpt><trkpt lat="44.5149258" lon="10.8200113"><ele>234.8</ele><time>2026-04-26T07:11:09.244Z</time></trkpt><trkpt lat="44.514855" lon="10.8199168"><ele>237.0</ele><time>2026-04-26T07:11:10.232Z</time></trkpt><trkpt lat="44.5147942" lon="10.8198116"><ele>237.0</ele><time>2026-04-26T07:11:11.243Z</time></trkpt><trkpt lat="44.5147324" lon="10.8197027"><ele>237.0</ele><time>2026-04-26T07:11:12.237Z</time></trkpt><trkpt lat="44.5146822" lon="10.8195846"><ele>237.0</ele><time>2026-04-26T07:11:13.235Z</time></trkpt><trkpt lat="44.5146438" lon="10.8194766"><ele>237.0</ele><time>2026-04-26T07:11:14.249Z</time></trkpt><trkpt lat="44.5145893" lon="10.8193881"><ele>237.0</ele><time>2026-04-26T07:11:15.227Z</time></trkpt><trkpt lat="44.5145409" lon="10.8192964"><ele>237.0</ele><time>2026-04-26T07:11:16.231Z</time></trkpt><trkpt lat="44.5144745" lon="10.8191855"><ele>237.66666666666666</ele><time>2026-04-26T07:11:17.231Z</time></trkpt><trkpt lat="44.5143952" lon="10.8191002"><ele>238.33333333333331</ele><time>2026-04-26T07:11:18.227Z</time></trkpt><trkpt lat="44.5143207" lon="10.8190282"><ele>239.0</ele><time>2026-04-26T07:11:19.232Z</time></trkpt><trkpt lat="44.5142607" lon="10.8189515"><ele>239.66666666666666</ele><time>2026-04-26T07:11:20.228Z</time></trkpt><trkpt lat="44.5141975" lon="10.8188817"><ele>240.33333333333331</ele><time>2026-04-26T07:11:21.235Z</time></trkpt><trkpt lat="44.5141268" lon="10.8188247"><ele>241.0</ele><time>2026-04-26T07:11:22.231Z</time></trkpt><trkpt lat="44.514047" lon="10.818775"><ele>241.0</ele><time>2026-04-26T07:11:23.228Z</time></trkpt><trkpt lat="44.5139642" lon="10.818735"><ele>241.00000000000003</ele><time>2026-04-26T07:11:24.238Z</time></trkpt><trkpt lat="44.5138659" lon="10.8187128"><ele>241.00000000000003</ele><time>2026-04-26T07:11:25.238Z</time></trkpt><trkpt lat="44.5137659" lon="10.8186971"><ele>241.0</ele><time>2026-04-26T07:11:26.231Z</time></trkpt><trkpt lat="44.5136596" lon="10.8186856"><ele>241.0</ele><time>2026-04-26T07:11:27.234Z</time></trkpt><trkpt lat="44.5135513" lon="10.8186731"><ele>241.0</ele><time>2026-04-26T07:11:28.239Z</time></trkpt><trkpt lat="44.5134465" lon="10.8186591"><ele>241.00000000000003</ele><time>2026-04-26T07:11:29.231Z</time></trkpt><trkpt lat="44.513339" lon="10.8186629"><ele>241.00000000000003</ele><time>2026-04-26T07:11:30.237Z</time></trkpt><trkpt lat="44.5132259" lon="10.8186759"><ele>241.0</ele><time>2026-04-26T07:11:31.228Z</time></trkpt><trkpt lat="44.5131077" lon="10.8186877"><ele>241.0</ele><time>2026-04-26T07:11:32.227Z</time></trkpt><trkpt lat="44.5129902" lon="10.8186985"><ele>244.0</ele><time>2026-04-26T07:11:33.225Z</time></trkpt><trkpt lat="44.5128699" lon="10.8186878"><ele>247.0</ele><time>2026-04-26T07:11:34.227Z</time></trkpt><trkpt lat="44.5127524" lon="10.8186841"><ele>250.0</ele><time>2026-04-26T07:11:35.229Z</time></trkpt><trkpt lat="44.5126386" lon="10.8187049"><ele>253.0</ele><time>2026-04-26T07:11:36.232Z</time></trkpt><trkpt lat="44.5125283" lon="10.8187488"><ele>253.0</ele><time>2026-04-26T07:11:37.229Z</time></trkpt><trkpt lat="44.5124204" lon="10.8187964"><ele>253.0</ele><time>2026-04-26T07:11:38.227Z</time></trkpt><trkpt lat="44.5123206" lon="10.8188716"><ele>253.0</ele><time>2026-04-26T07:11:39.232Z</time></trkpt><trkpt lat="44.5122239" lon="10.8189529"><ele>253.0</ele><time>2026-04-26T07:11:40.235Z</time></trkpt><trkpt lat="44.512131" lon="10.8190389"><ele>255.2</ele><time>2026-04-26T07:11:41.232Z</time></trkpt><trkpt lat="44.5120391" lon="10.8191242"><ele>257.4</ele><time>2026-04-26T07:11:42.228Z</time></trkpt><trkpt lat="44.5119506" lon="10.8192174"><ele>259.59999999999997</ele><time>2026-04-26T07:11:43.228Z</time></trkpt><trkpt lat="44.5118628" lon="10.8193162"><ele>261.8</ele><time>2026-04-26T07:11:44.235Z</time></trkpt><trkpt lat="44.5117791" lon="10.8194193"><ele>264.0</ele><time>2026-04-26T07:11:45.231Z</time></trkpt><trkpt lat="44.5116982" lon="10.8195199"><ele>264.0</ele><time>2026-04-26T07:11:46.233Z</time></trkpt><trkpt lat="44.5116215" lon="10.8196299"><ele>264.0</ele><time>2026-04-26T07:11:47.227Z</time></trkpt><trkpt lat="44.5115476" lon="10.8197331"><ele>264.0</ele><time>2026-04-26T07:11:48.236Z</time></trkpt><trkpt lat="44.5114691" lon="10.819858"><ele>264.0</ele><time>2026-04-26T07:11:49.238Z</time></trkpt><trkpt lat="44.5113967" lon="10.8199743"><ele>264.0</ele><time>2026-04-26T07:11:50.231Z</time></trkpt><trkpt lat="44.5113295" lon="10.8200955"><ele>264.8</ele><time>2026-04-26T07:11:51.236Z</time></trkpt><trkpt lat="44.5112691" lon="10.8202068"><ele>265.59999999999997</ele><time>2026-04-26T07:11:52.225Z</time></trkpt><trkpt lat="44.5112007" lon="10.8202935"><ele>266.4</ele><time>2026-04-26T07:11:53.234Z</time></trkpt><trkpt lat="44.5111285" lon="10.820378"><ele>267.2</ele><time>2026-04-26T07:11:54.232Z</time></trkpt><trkpt lat="44.5110239" lon="10.8204384"><ele>268.0</ele><time>2026-04-26T07:11:55.225Z</time></trkpt><trkpt lat="44.5109171" lon="10.8205024"><ele>268.0</ele><time>2026-04-26T07:11:56.233Z</time></trkpt><trkpt lat="44.5108004" lon="10.8205607"><ele>268.0</ele><time>2026-04-26T07:11:57.225Z</time></trkpt><trkpt lat="44.510685" lon="10.8206261"><ele>268.0</ele><time>2026-04-26T07:11:58.227Z</time></trkpt><trkpt lat="44.5105703" lon="10.8206975"><ele>268.0</ele><time>2026-04-26T07:11:59.228Z</time></trkpt><trkpt lat="44.5104503" lon="10.8207707"><ele>270.2</ele><time>2026-04-26T07:12:00.227Z</time></trkpt><trkpt lat="44.5103346" lon="10.8208405"><ele>272.4</ele><time>2026-04-26T07:12:01.233Z</time></trkpt><trkpt lat="44.5102255" lon="10.8208942"><ele>274.59999999999997</ele><time>2026-04-26T07:12:02.229Z</time></trkpt><trkpt lat="44.5101309" lon="10.820935"><ele>276.8</ele><time>2026-04-26T07:12:03.227Z</time></trkpt><trkpt lat="44.5100378" lon="10.8209331"><ele>279.0</ele><time>2026-04-26T07:12:04.229Z</time></trkpt><trkpt lat="44.5099522" lon="10.8209067"><ele>279.0</ele><time>2026-04-26T07:12:05.239Z</time></trkpt><trkpt lat="44.5098611" lon="10.8208386"><ele>279.0</ele><time>2026-04-26T07:12:06.23Z</time></trkpt><trkpt lat="44.5097641" lon="10.8207489"><ele>279.0</ele><time>2026-04-26T07:12:07.23Z</time></trkpt><trkpt lat="44.5096624" lon="10.8206491"><ele>279.0</ele><time>2026-04-26T07:12:08.229Z</time></trkpt><trkpt lat="44.5095576" lon="10.8205529"><ele>277.0</ele><time>2026-04-26T07:12:09.231Z</time></trkpt><trkpt lat="44.5094485" lon="10.820449"><ele>275.0</ele><time>2026-04-26T07:12:10.232Z</time></trkpt><trkpt lat="44.5093411" lon="10.8203524"><ele>273.0</ele><time>2026-04-26T07:12:11.239Z</time></trkpt><trkpt lat="44.5092458" lon="10.8202567"><ele>271.0</ele><time>2026-04-26T07:12:12.231Z</time></trkpt><trkpt lat="44.5091624" lon="10.8201567"><ele>272.8333333333333</ele><time>2026-04-26T07:12:13.244Z</time></trkpt><trkpt lat="44.5090859" lon="10.8200624"><ele>274.66666666666663</ele><time>2026-04-26T07:12:14.231Z</time></trkpt><trkpt lat="44.5090399" lon="10.8199576"><ele>276.5</ele><time>2026-04-26T07:12:15.238Z</time></trkpt><trkpt lat="44.508999" lon="10.8198465"><ele>278.3333333333333</ele><time>2026-04-26T07:12:16.229Z</time></trkpt><trkpt lat="44.5089673" lon="10.8197405"><ele>280.1666666666667</ele><time>2026-04-26T07:12:17.23Z</time></trkpt><trkpt lat="44.5089397" lon="10.8196393"><ele>282.0</ele><time>2026-04-26T07:12:18.232Z</time></trkpt><trkpt lat="44.5089175" lon="10.8195305"><ele>282.0</ele><time>2026-04-26T07:12:19.232Z</time></trkpt><trkpt lat="44.5088986" lon="10.8194297"><ele>282.0</ele><time>2026-04-26T07:12:20.234Z</time></trkpt><trkpt lat="44.5088872" lon="10.8193189"><ele>282.0</ele><time>2026-04-26T07:12:21.236Z</time></trkpt><trkpt lat="44.5089089" lon="10.8191991"><ele>282.0</ele><time>2026-04-26T07:12:22.233Z</time></trkpt><trkpt lat="44.5089445" lon="10.8190707"><ele>282.0</ele><time>2026-04-26T07:12:23.234Z</time></trkpt><trkpt lat="44.5090058" lon="10.8189618"><ele>282.0</ele><time>2026-04-26T07:12:24.229Z</time></trkpt><trkpt lat="44.5090766" lon="10.8188639"><ele>283.0</ele><time>2026-04-26T07:12:25.233Z</time></trkpt><trkpt lat="44.5091515" lon="10.8187386"><ele>284.0</ele><time>2026-04-26T07:12:26.235Z</time></trkpt><trkpt lat="44.5092243" lon="10.8185859"><ele>285.0</ele><time>2026-04-26T07:12:27.228Z</time></trkpt><trkpt lat="44.5092825" lon="10.818432"><ele>286.0</ele><time>2026-04-26T07:12:28.229Z</time></trkpt><trkpt lat="44.5093353" lon="10.8182907"><ele>286.0</ele><time>2026-04-26T07:12:29.228Z</time></trkpt><trkpt lat="44.5093749" lon="10.8181613"><ele>286.0</ele><time>2026-04-26T07:12:30.234Z</time></trkpt><trkpt lat="44.5094158" lon="10.818032"><ele>286.0</ele><time>2026-04-26T07:12:31.231Z</time></trkpt><trkpt lat="44.5094584" lon="10.8178943"><ele>286.0</ele><time>2026-04-26T07:12:32.24Z</time></trkpt><trkpt lat="44.5094997" lon="10.8177437"><ele>286.0</ele><time>2026-04-26T07:12:33.231Z</time></trkpt><trkpt lat="44.5095313" lon="10.8175892"><ele>283.75</ele><time>2026-04-26T07:12:34.233Z</time></trkpt><trkpt lat="44.5095428" lon="10.8174348"><ele>281.5</ele><time>2026-04-26T07:12:35.23Z</time></trkpt><trkpt lat="44.50955" lon="10.8172808"><ele>279.25</ele><time>2026-04-26T07:12:36.239Z</time></trkpt><trkpt lat="44.5095088" lon="10.8171225"><ele>277.0</ele><time>2026-04-26T07:12:37.228Z</time></trkpt><trkpt lat="44.5094458" lon="10.8169574"><ele>277.5</ele><time>2026-04-26T07:12:38.24Z</time></trkpt><trkpt lat="44.5093684" lon="10.816791"><ele>278.0</ele><time>2026-04-26T07:12:39.237Z</time></trkpt><trkpt lat="44.5092792" lon="10.8166297"><ele>278.5</ele><time>2026-04-26T07:12:40.238Z</time></trkpt><trkpt lat="44.5091877" lon="10.8164673"><ele>279.0</ele><time>2026-04-26T07:12:41.23Z</time></trkpt><trkpt lat="44.5090964" lon="10.8163085"><ele>279.0</ele><time>2026-04-26T07:12:42.235Z</time></trkpt><trkpt lat="44.5090045" lon="10.8161502"><ele>279.0</ele><time>2026-04-26T07:12:43.236Z</time></trkpt><trkpt lat="44.5089143" lon="10.8159967"><ele>279.0</ele><time>2026-04-26T07:12:44.238Z</time></trkpt><trkpt lat="44.5088242" lon="10.8158494"><ele>279.0</ele><time>2026-04-26T07:12:45.235Z</time></trkpt><trkpt lat="44.5087368" lon="10.8157172"><ele>278.25</ele><time>2026-04-26T07:12:46.229Z</time></trkpt><trkpt lat="44.508651" lon="10.8155917"><ele>277.5</ele><time>2026-04-26T07:12:47.228Z</time></trkpt><trkpt lat="44.5085539" lon="10.8154911"><ele>276.75</ele><time>2026-04-26T07:12:48.228Z</time></trkpt><trkpt lat="44.5084269" lon="10.8154132"><ele>276.0</ele><time>2026-04-26T07:12:49.231Z</time></trkpt><trkpt lat="44.5082873" lon="10.8153376"><ele>276.0</ele><time>2026-04-26T07:12:50.233Z</time></trkpt><trkpt lat="44.5081495" lon="10.8152519"><ele>276.0</ele><time>2026-04-26T07:12:51.235Z</time></trkpt><trkpt lat="44.5080152" lon="10.8151709"><ele>276.0</ele><time>2026-04-26T07:12:52.234Z</time></trkpt><trkpt lat="44.5079116" lon="10.8150663"><ele>276.0</ele><time>2026-04-26T07:12:53.232Z</time></trkpt><trkpt lat="44.5078142" lon="10.814956"><ele>278.5</ele><time>2026-04-26T07:12:54.233Z</time></trkpt><trkpt lat="44.5077153" lon="10.8148457"><ele>281.0</ele><time>2026-04-26T07:12:55.235Z</time></trkpt><trkpt lat="44.5076237" lon="10.8147194"><ele>283.5</ele><time>2026-04-26T07:12:56.235Z</time></trkpt><trkpt lat="44.5075342" lon="10.8145855"><ele>286.0</ele><time>2026-04-26T07:12:57.234Z</time></trkpt><trkpt lat="44.5074432" lon="10.8144456"><ele>285.75</ele><time>2026-04-26T07:12:58.236Z</time></trkpt><trkpt lat="44.507358" lon="10.8142888"><ele>285.5</ele><time>2026-04-26T07:12:59.253Z</time></trkpt><trkpt lat="44.5072708" lon="10.8141291"><ele>285.25</ele><time>2026-04-26T07:13:00.234Z</time></trkpt><trkpt lat="44.5071848" lon="10.813962"><ele>285.0</ele><time>2026-04-26T07:13:01.241Z</time></trkpt><trkpt lat="44.5071052" lon="10.813799"><ele>288.25</ele><time>2026-04-26T07:13:02.234Z</time></trkpt><trkpt lat="44.5070207" lon="10.8136409"><ele>291.5</ele><time>2026-04-26T07:13:03.241Z</time></trkpt><trkpt lat="44.5069296" lon="10.8135"><ele>294.75</ele><time>2026-04-26T07:13:04.228Z</time></trkpt><trkpt lat="44.5068326" lon="10.8133749"><ele>298.0</ele><time>2026-04-26T07:13:05.237Z</time></trkpt><trkpt lat="44.5067293" lon="10.8132573"><ele>298.0</ele><time>2026-04-26T07:13:06.233Z</time></trkpt><trkpt lat="44.5066309" lon="10.8131361"><ele>298.0</ele><time>2026-04-26T07:13:07.233Z</time></trkpt><trkpt lat="44.5065216" lon="10.813032"><ele>298.0</ele><time>2026-04-26T07:13:08.234Z</time></trkpt><trkpt lat="44.5064084" lon="10.8129322"><ele>298.0</ele><time>2026-04-26T07:13:09.239Z</time></trkpt><trkpt lat="44.5062934" lon="10.8128432"><ele>298.6</ele><time>2026-04-26T07:13:10.232Z</time></trkpt><trkpt lat="44.5061913" lon="10.8127533"><ele>299.20000000000005</ele><time>2026-04-26T07:13:11.233Z</time></trkpt><trkpt lat="44.5061019" lon="10.8126755"><ele>299.8</ele><time>2026-04-26T07:13:12.228Z</time></trkpt><trkpt lat="44.506022" lon="10.8125968"><ele>300.40000000000003</ele><time>2026-04-26T07:13:13.239Z</time></trkpt><trkpt lat="44.5059496" lon="10.812518"><ele>301.0</ele><time>2026-04-26T07:13:14.236Z</time></trkpt><trkpt lat="44.505887" lon="10.8124398"><ele>301.16666666666663</ele><time>2026-04-26T07:13:15.237Z</time></trkpt><trkpt lat="44.5058251" lon="10.8123611"><ele>301.3333333333333</ele><time>2026-04-26T07:13:16.233Z</time></trkpt><trkpt lat="44.505768" lon="10.8122801"><ele>301.5</ele><time>2026-04-26T07:13:17.234Z</time></trkpt><trkpt lat="44.5057212" lon="10.8122006"><ele>301.6666666666667</ele><time>2026-04-26T07:13:18.237Z</time></trkpt><trkpt lat="44.5056751" lon="10.8121334"><ele>301.83333333333337</ele><time>2026-04-26T07:13:19.236Z</time></trkpt><trkpt lat="44.5055815" lon="10.8120216"><ele>302.0</ele><time>2026-04-26T07:13:21.236Z</time></trkpt><trkpt lat="44.5055301" lon="10.8119705"><ele>302.0</ele><time>2026-04-26T07:13:22.234Z</time></trkpt><trkpt lat="44.5054706" lon="10.8119223"><ele>302.0</ele><time>2026-04-26T07:13:23.236Z</time></trkpt><trkpt lat="44.505412" lon="10.8118719"><ele>302.0</ele><time>2026-04-26T07:13:24.235Z</time></trkpt><trkpt lat="44.5053579" lon="10.8118235"><ele>302.0</ele><time>2026-04-26T07:13:25.237Z</time></trkpt><trkpt lat="44.5052616" lon="10.8117456"><ele>302.0</ele><time>2026-04-26T07:13:27.247Z</time></trkpt><trkpt lat="44.5051823" lon="10.8116742"><ele>302.0</ele><time>2026-04-26T07:13:29.238Z</time></trkpt><trkpt lat="44.5051303" lon="10.8116089"><ele>303.4</ele><time>2026-04-26T07:13:32.239Z</time></trkpt><trkpt lat="44.5050657" lon="10.8115512"><ele>304.79999999999995</ele><time>2026-04-26T07:13:34.231Z</time></trkpt><trkpt lat="44.504997" lon="10.811436"><ele>306.2</ele><time>2026-04-26T07:13:36.235Z</time></trkpt><trkpt lat="44.504938" lon="10.8112823"><ele>307.59999999999997</ele><time>2026-04-26T07:13:38.233Z</time></trkpt><trkpt lat="44.5049043" lon="10.8111921"><ele>309.0</ele><time>2026-04-26T07:13:39.247Z</time></trkpt><trkpt lat="44.5048629" lon="10.8110974"><ele>309.0</ele><time>2026-04-26T07:13:40.234Z</time></trkpt><trkpt lat="44.5048188" lon="10.8109987"><ele>309.0</ele><time>2026-04-26T07:13:41.237Z</time></trkpt><trkpt lat="44.5047759" lon="10.8109036"><ele>309.0</ele><time>2026-04-26T07:13:42.242Z</time></trkpt><trkpt lat="44.5047325" lon="10.8108074"><ele>309.0</ele><time>2026-04-26T07:13:43.239Z</time></trkpt><trkpt lat="44.5046895" lon="10.8107068"><ele>309.0</ele><time>2026-04-26T07:13:44.23Z</time></trkpt><trkpt lat="44.5046431" lon="10.8106093"><ele>309.0</ele><time>2026-04-26T07:13:45.239Z</time></trkpt><trkpt lat="44.5046004" lon="10.8105196"><ele>309.3333333333333</ele><time>2026-04-26T07:13:46.235Z</time></trkpt><trkpt lat="44.5045583" lon="10.8104319"><ele>309.6666666666667</ele><time>2026-04-26T07:13:47.234Z</time></trkpt><trkpt lat="44.5045084" lon="10.8103457"><ele>310.0</ele><time>2026-04-26T07:13:48.235Z</time></trkpt><trkpt lat="44.504471" lon="10.8102712"><ele>310.33333333333337</ele><time>2026-04-26T07:13:49.24Z</time></trkpt><trkpt lat="44.5044304" lon="10.8101297"><ele>310.6666666666667</ele><time>2026-04-26T07:13:51.245Z</time></trkpt><trkpt lat="44.5044294" lon="10.8100282"><ele>311.0</ele><time>2026-04-26T07:13:52.233Z</time></trkpt><trkpt lat="44.5044333" lon="10.8099126"><ele>311.0</ele><time>2026-04-26T07:13:53.237Z</time></trkpt><trkpt lat="44.5044381" lon="10.8097857"><ele>311.0</ele><time>2026-04-26T07:13:54.231Z</time></trkpt><trkpt lat="44.5044428" lon="10.8096518"><ele>311.0</ele><time>2026-04-26T07:13:55.231Z</time></trkpt><trkpt lat="44.5044475" lon="10.80951"><ele>311.0</ele><time>2026-04-26T07:13:56.228Z</time></trkpt><trkpt lat="44.5044381" lon="10.8093656"><ele>311.0</ele><time>2026-04-26T07:13:57.238Z</time></trkpt><trkpt lat="44.5044173" lon="10.8092038"><ele>313.25</ele><time>2026-04-26T07:13:58.232Z</time></trkpt><trkpt lat="44.5043925" lon="10.8090414"><ele>315.5</ele><time>2026-04-26T07:13:59.234Z</time></trkpt><trkpt lat="44.5043568" lon="10.8088719"><ele>317.75</ele><time>2026-04-26T07:14:00.227Z</time></trkpt><trkpt lat="44.5043215" lon="10.8087241"><ele>320.0</ele><time>2026-04-26T07:14:01.235Z</time></trkpt><trkpt lat="44.5042965" lon="10.8085946"><ele>320.0</ele><time>2026-04-26T07:14:02.227Z</time></trkpt><trkpt lat="44.504271" lon="10.8085079"><ele>320.0</ele><time>2026-04-26T07:14:06.235Z</time></trkpt><trkpt lat="44.5042333" lon="10.8084162"><ele>320.0</ele><time>2026-04-26T07:14:08.231Z</time></trkpt><trkpt lat="44.5041911" lon="10.8082938"><ele>320.0</ele><time>2026-04-26T07:14:10.237Z</time></trkpt><trkpt lat="44.5041537" lon="10.8081918"><ele>320.0</ele><time>2026-04-26T07:14:12.239Z</time></trkpt><trkpt lat="44.504128" lon="10.808073"><ele>320.0</ele><time>2026-04-26T07:14:14.236Z</time></trkpt><trkpt lat="44.5040749" lon="10.8079742"><ele>320.8</ele><time>2026-04-26T07:14:16.236Z</time></trkpt><trkpt lat="44.5039953" lon="10.8079085"><ele>321.6</ele><time>2026-04-26T07:14:18.243Z</time></trkpt><trkpt lat="44.5039008" lon="10.807861"><ele>322.4</ele><time>2026-04-26T07:14:20.236Z</time></trkpt><trkpt lat="44.503779" lon="10.8078316"><ele>323.2</ele><time>2026-04-26T07:14:22.243Z</time></trkpt><trkpt lat="44.5037157" lon="10.8078251"><ele>324.0</ele><time>2026-04-26T07:14:23.237Z</time></trkpt><trkpt lat="44.5036275" lon="10.8078064"><ele>325.0</ele><time>2026-04-26T07:14:24.238Z</time></trkpt><trkpt lat="44.5035536" lon="10.8077615"><ele>326.0</ele><time>2026-04-26T07:14:25.233Z</time></trkpt><trkpt lat="44.503482" lon="10.807723"><ele>327.0</ele><time>2026-04-26T07:14:26.232Z</time></trkpt><trkpt lat="44.5034151" lon="10.8076806"><ele>328.0</ele><time>2026-04-26T07:14:27.242Z</time></trkpt><trkpt lat="44.5033379" lon="10.8076213"><ele>329.0</ele><time>2026-04-26T07:14:28.23Z</time></trkpt><trkpt lat="44.5032558" lon="10.8075398"><ele>330.0</ele><time>2026-04-26T07:14:29.238Z</time></trkpt><trkpt lat="44.5031751" lon="10.8074556"><ele>330.6</ele><time>2026-04-26T07:14:30.237Z</time></trkpt><trkpt lat="44.5030901" lon="10.8073746"><ele>331.2</ele><time>2026-04-26T07:14:31.228Z</time></trkpt><trkpt lat="44.5030044" lon="10.8072949"><ele>331.79999999999995</ele><time>2026-04-26T07:14:32.23Z</time></trkpt><trkpt lat="44.5029269" lon="10.8072183"><ele>332.4</ele><time>2026-04-26T07:14:33.23Z</time></trkpt><trkpt lat="44.5028517" lon="10.8071453"><ele>333.0</ele><time>2026-04-26T07:14:34.235Z</time></trkpt><trkpt lat="44.5027797" lon="10.8070684"><ele>333.0</ele><time>2026-04-26T07:14:35.237Z</time></trkpt><trkpt lat="44.50271" lon="10.8069823"><ele>333.0</ele><time>2026-04-26T07:14:36.24Z</time></trkpt><trkpt lat="44.5026493" lon="10.8068857"><ele>333.0</ele><time>2026-04-26T07:14:37.228Z</time></trkpt><trkpt lat="44.5025984" lon="10.8067671"><ele>333.0</ele><time>2026-04-26T07:14:38.228Z</time></trkpt><trkpt lat="44.5025563" lon="10.8066514"><ele>333.0</ele><time>2026-04-26T07:14:39.228Z</time></trkpt><trkpt lat="44.5025301" lon="10.8065266"><ele>335.59999999999997</ele><time>2026-04-26T07:14:40.233Z</time></trkpt><trkpt lat="44.502507" lon="10.8064114"><ele>338.2</ele><time>2026-04-26T07:14:41.229Z</time></trkpt><trkpt lat="44.5024835" lon="10.8062841"><ele>340.8</ele><time>2026-04-26T07:14:42.226Z</time></trkpt><trkpt lat="44.5024593" lon="10.8061581"><ele>343.4</ele><time>2026-04-26T07:14:43.237Z</time></trkpt><trkpt lat="44.5024424" lon="10.8060096"><ele>346.0</ele><time>2026-04-26T07:14:44.234Z</time></trkpt><trkpt lat="44.5024272" lon="10.8058671"><ele>346.0</ele><time>2026-04-26T07:14:45.23Z</time></trkpt><trkpt lat="44.5024091" lon="10.8057357"><ele>346.0</ele><time>2026-04-26T07:14:46.229Z</time></trkpt><trkpt lat="44.5023785" lon="10.8056118"><ele>346.0</ele><time>2026-04-26T07:14:47.237Z</time></trkpt><trkpt lat="44.5023308" lon="10.8054848"><ele>346.0</ele><time>2026-04-26T07:14:48.23Z</time></trkpt><trkpt lat="44.5022838" lon="10.8053659"><ele>346.0</ele><time>2026-04-26T07:14:49.232Z</time></trkpt><trkpt lat="44.5022349" lon="10.8052508"><ele>344.5</ele><time>2026-04-26T07:14:50.233Z</time></trkpt><trkpt lat="44.5021887" lon="10.8051441"><ele>343.0</ele><time>2026-04-26T07:14:51.241Z</time></trkpt><trkpt lat="44.5021369" lon="10.8050393"><ele>341.5</ele><time>2026-04-26T07:14:52.232Z</time></trkpt><trkpt lat="44.5020892" lon="10.804937"><ele>340.0</ele><time>2026-04-26T07:14:53.231Z</time></trkpt><trkpt lat="44.5020423" lon="10.8048395"><ele>338.5</ele><time>2026-04-26T07:14:54.231Z</time></trkpt><trkpt lat="44.5020012" lon="10.8047492"><ele>337.0</ele><time>2026-04-26T07:14:55.235Z</time></trkpt><trkpt lat="44.5019628" lon="10.8046642"><ele>337.00000000000006</ele><time>2026-04-26T07:14:56.235Z</time></trkpt><trkpt lat="44.5019258" lon="10.8045846"><ele>337.0</ele><time>2026-04-26T07:14:57.236Z</time></trkpt><trkpt lat="44.5018596" lon="10.8044649"><ele>337.0</ele><time>2026-04-26T07:14:59.235Z</time></trkpt><trkpt lat="44.5018195" lon="10.8043928"><ele>337.0</ele><time>2026-04-26T07:15:01.25Z</time></trkpt><trkpt lat="44.5017706" lon="10.8043343"><ele>337.0</ele><time>2026-04-26T07:15:04.232Z</time></trkpt><trkpt lat="44.5017184" lon="10.8042772"><ele>337.00000000000006</ele><time>2026-04-26T07:15:06.236Z</time></trkpt><trkpt lat="44.5016617" lon="10.804225"><ele>337.0</ele><time>2026-04-26T07:15:08.231Z</time></trkpt><trkpt lat="44.5015876" lon="10.8041657"><ele>336.66666666666663</ele><time>2026-04-26T07:15:10.232Z</time></trkpt><trkpt lat="44.501493" lon="10.804098"><ele>336.3333333333333</ele><time>2026-04-26T07:15:12.231Z</time></trkpt><trkpt lat="44.5013786" lon="10.8040223"><ele>336.0</ele><time>2026-04-26T07:15:14.235Z</time></trkpt><trkpt lat="44.5013189" lon="10.8039827"><ele>335.6666666666667</ele><time>2026-04-26T07:15:15.235Z</time></trkpt><trkpt lat="44.5012562" lon="10.8039419"><ele>335.33333333333337</ele><time>2026-04-26T07:15:16.241Z</time></trkpt><trkpt lat="44.5011913" lon="10.8039005"><ele>335.0</ele><time>2026-04-26T07:15:17.234Z</time></trkpt><trkpt lat="44.5011237" lon="10.8038583"><ele>332.6666666666667</ele><time>2026-04-26T07:15:18.23Z</time></trkpt><trkpt lat="44.5010544" lon="10.8038187"><ele>330.33333333333337</ele><time>2026-04-26T07:15:19.227Z</time></trkpt><trkpt lat="44.5009799" lon="10.8037755"><ele>328.0</ele><time>2026-04-26T07:15:20.242Z</time></trkpt><trkpt lat="44.5009019" lon="10.803727"><ele>325.6666666666667</ele><time>2026-04-26T07:15:21.236Z</time></trkpt><trkpt lat="44.5008192" lon="10.8036742"><ele>323.3333333333333</ele><time>2026-04-26T07:15:22.233Z</time></trkpt><trkpt lat="44.5007316" lon="10.8036155"><ele>321.0</ele><time>2026-04-26T07:15:23.232Z</time></trkpt><trkpt lat="44.5006393" lon="10.8035515"><ele>318.40000000000003</ele><time>2026-04-26T07:15:24.235Z</time></trkpt><trkpt lat="44.5005452" lon="10.803483"><ele>315.8</ele><time>2026-04-26T07:15:25.236Z</time></trkpt><trkpt lat="44.5004495" lon="10.8034119"><ele>313.20000000000005</ele><time>2026-04-26T07:15:26.232Z</time></trkpt><trkpt lat="44.5003583" lon="10.8033392"><ele>310.6</ele><time>2026-04-26T07:15:27.255Z</time></trkpt><trkpt lat="44.5002729" lon="10.8032697"><ele>308.0</ele><time>2026-04-26T07:15:28.235Z</time></trkpt><trkpt lat="44.5001862" lon="10.8031994"><ele>305.75</ele><time>2026-04-26T07:15:29.234Z</time></trkpt><trkpt lat="44.5000981" lon="10.8031285"><ele>303.5</ele><time>2026-04-26T07:15:30.23Z</time></trkpt><trkpt lat="44.4999948" lon="10.8030469"><ele>301.25</ele><time>2026-04-26T07:15:31.232Z</time></trkpt><trkpt lat="44.49986" lon="10.8029416"><ele>299.0</ele><time>2026-04-26T07:15:32.236Z</time></trkpt><trkpt lat="44.49974" lon="10.8028326"><ele>299.0</ele><time>2026-04-26T07:15:33.231Z</time></trkpt><trkpt lat="44.4996304" lon="10.8027337"><ele>299.0</ele><time>2026-04-26T07:15:34.236Z</time></trkpt><trkpt lat="44.4995338" lon="10.802639"><ele>299.0</ele><time>2026-04-26T07:15:35.233Z</time></trkpt><trkpt lat="44.4994453" lon="10.802552"><ele>299.0</ele><time>2026-04-26T07:15:36.236Z</time></trkpt><trkpt lat="44.4993818" lon="10.8024563"><ele>298.2857142857143</ele><time>2026-04-26T07:15:37.243Z</time></trkpt><trkpt lat="44.4993443" lon="10.8023568"><ele>297.57142857142856</ele><time>2026-04-26T07:15:38.241Z</time></trkpt><trkpt lat="44.4993156" lon="10.8022667"><ele>296.8571428571429</ele><time>2026-04-26T07:15:39.232Z</time></trkpt><trkpt lat="44.499276" lon="10.8021915"><ele>296.1428571428571</ele><time>2026-04-26T07:15:40.244Z</time></trkpt><trkpt lat="44.499226" lon="10.802124"><ele>295.42857142857144</ele><time>2026-04-26T07:15:41.234Z</time></trkpt><trkpt lat="44.4991767" lon="10.802062"><ele>294.7142857142857</ele><time>2026-04-26T07:15:42.244Z</time></trkpt><trkpt lat="44.4991028" lon="10.8020194"><ele>294.0</ele><time>2026-04-26T07:15:43.231Z</time></trkpt><trkpt lat="44.499021" lon="10.8019719"><ele>294.0</ele><time>2026-04-26T07:15:44.236Z</time></trkpt><trkpt lat="44.498928" lon="10.8019115"><ele>294.0</ele><time>2026-04-26T07:15:45.233Z</time></trkpt><trkpt lat="44.4988356" lon="10.8018449"><ele>294.0</ele><time>2026-04-26T07:15:46.239Z</time></trkpt><trkpt lat="44.4987572" lon="10.8017369"><ele>294.0</ele><time>2026-04-26T07:15:47.244Z</time></trkpt><trkpt lat="44.4986918" lon="10.8016143"><ele>294.0</ele><time>2026-04-26T07:15:48.238Z</time></trkpt><trkpt lat="44.498643" lon="10.8014843"><ele>295.8</ele><time>2026-04-26T07:15:49.224Z</time></trkpt><trkpt lat="44.4985935" lon="10.8013427"><ele>297.59999999999997</ele><time>2026-04-26T07:15:50.237Z</time></trkpt><trkpt lat="44.4985543" lon="10.8012001"><ele>299.4</ele><time>2026-04-26T07:15:51.234Z</time></trkpt><trkpt lat="44.4985114" lon="10.8010601"><ele>301.2</ele><time>2026-04-26T07:15:52.226Z</time></trkpt><trkpt lat="44.4984559" lon="10.8009447"><ele>303.0</ele><time>2026-04-26T07:15:53.233Z</time></trkpt><trkpt lat="44.4984018" lon="10.8008317"><ele>304.2</ele><time>2026-04-26T07:15:54.231Z</time></trkpt><trkpt lat="44.4983169" lon="10.8007325"><ele>305.4</ele><time>2026-04-26T07:15:55.239Z</time></trkpt><trkpt lat="44.4982324" lon="10.8006466"><ele>306.59999999999997</ele><time>2026-04-26T07:15:56.231Z</time></trkpt><trkpt lat="44.498155" lon="10.8005642"><ele>307.8</ele><time>2026-04-26T07:15:57.235Z</time></trkpt><trkpt lat="44.4980834" lon="10.8004476"><ele>309.0</ele><time>2026-04-26T07:15:58.23Z</time></trkpt><trkpt lat="44.4980173" lon="10.8002987"><ele>309.0</ele><time>2026-04-26T07:15:59.235Z</time></trkpt><trkpt lat="44.4979485" lon="10.8001701"><ele>309.0</ele><time>2026-04-26T07:16:00.233Z</time></trkpt><trkpt lat="44.4978672" lon="10.8000486"><ele>309.0</ele><time>2026-04-26T07:16:01.233Z</time></trkpt><trkpt lat="44.4977935" lon="10.7999453"><ele>309.0</ele><time>2026-04-26T07:16:02.235Z</time></trkpt><trkpt lat="44.4977365" lon="10.7998542"><ele>309.0</ele><time>2026-04-26T07:16:03.233Z</time></trkpt><trkpt lat="44.4976814" lon="10.7997495"><ele>310.0</ele><time>2026-04-26T07:16:04.231Z</time></trkpt><trkpt lat="44.4976286" lon="10.7996202"><ele>311.0</ele><time>2026-04-26T07:16:05.231Z</time></trkpt><trkpt lat="44.4975715" lon="10.7994668"><ele>312.0</ele><time>2026-04-26T07:16:06.238Z</time></trkpt><trkpt lat="44.49751" lon="10.7993008"><ele>313.0</ele><time>2026-04-26T07:16:07.235Z</time></trkpt><trkpt lat="44.4974479" lon="10.7991495"><ele>313.6</ele><time>2026-04-26T07:16:08.235Z</time></trkpt><trkpt lat="44.4973978" lon="10.7990102"><ele>314.20000000000005</ele><time>2026-04-26T07:16:09.229Z</time></trkpt><trkpt lat="44.497348" lon="10.7988806"><ele>314.8</ele><time>2026-04-26T07:16:10.232Z</time></trkpt><trkpt lat="44.4973216" lon="10.7987632"><ele>315.40000000000003</ele><time>2026-04-26T07:16:11.236Z</time></trkpt><trkpt lat="44.4973198" lon="10.7986364"><ele>316.0</ele><time>2026-04-26T07:16:12.231Z</time></trkpt><trkpt lat="44.4973463" lon="10.7985082"><ele>318.0</ele><time>2026-04-26T07:16:13.229Z</time></trkpt><trkpt lat="44.4973992" lon="10.7983727"><ele>320.0</ele><time>2026-04-26T07:16:14.232Z</time></trkpt><trkpt lat="44.4974442" lon="10.7982342"><ele>322.0</ele><time>2026-04-26T07:16:15.233Z</time></trkpt><trkpt lat="44.4974364" lon="10.7981081"><ele>324.0</ele><time>2026-04-26T07:16:16.231Z</time></trkpt><trkpt lat="44.4974247" lon="10.7979798"><ele>326.0</ele><time>2026-04-26T07:16:17.244Z</time></trkpt><trkpt lat="44.4973936" lon="10.7978591"><ele>326.0</ele><time>2026-04-26T07:16:18.239Z</time></trkpt><trkpt lat="44.4973669" lon="10.7977443"><ele>326.0</ele><time>2026-04-26T07:16:19.226Z</time></trkpt><trkpt lat="44.4973703" lon="10.7976066"><ele>326.0</ele><time>2026-04-26T07:16:20.231Z</time></trkpt><trkpt lat="44.4973912" lon="10.7974276"><ele>326.0</ele><time>2026-04-26T07:16:21.229Z</time></trkpt><trkpt lat="44.4974177" lon="10.7972807"><ele>326.0</ele><time>2026-04-26T07:16:22.228Z</time></trkpt><trkpt lat="44.4974402" lon="10.7971568"><ele>326.33333333333337</ele><time>2026-04-26T07:16:23.229Z</time></trkpt><trkpt lat="44.4974216" lon="10.7970573"><ele>326.6666666666667</ele><time>2026-04-26T07:16:25.229Z</time></trkpt><trkpt lat="44.4973636" lon="10.7969658"><ele>327.0</ele><time>2026-04-26T07:16:28.235Z</time></trkpt><trkpt lat="44.4972944" lon="10.7968698"><ele>327.3333333333333</ele><time>2026-04-26T07:16:31.233Z</time></trkpt><trkpt lat="44.4972531" lon="10.7967906"><ele>327.66666666666663</ele><time>2026-04-26T07:16:33.236Z</time></trkpt><trkpt lat="44.4972075" lon="10.7967046"><ele>328.0</ele><time>2026-04-26T07:16:35.241Z</time></trkpt><trkpt lat="44.4971598" lon="10.796616"><ele>328.0</ele><time>2026-04-26T07:16:37.236Z</time></trkpt><trkpt lat="44.4971152" lon="10.7965204"><ele>328.0</ele><time>2026-04-26T07:16:39.243Z</time></trkpt><trkpt lat="44.4970764" lon="10.7964282"><ele>328.0</ele><time>2026-04-26T07:16:41.232Z</time></trkpt><trkpt lat="44.4970379" lon="10.7963273"><ele>328.0</ele><time>2026-04-26T07:16:43.238Z</time></trkpt><trkpt lat="44.4969923" lon="10.796212"><ele>328.0</ele><time>2026-04-26T07:16:45.249Z</time></trkpt><trkpt lat="44.4969475" lon="10.7961009"><ele>328.0</ele><time>2026-04-26T07:16:47.233Z</time></trkpt><trkpt lat="44.4969063" lon="10.7959793"><ele>328.16666666666663</ele><time>2026-04-26T07:16:49.239Z</time></trkpt><trkpt lat="44.4968507" lon="10.7958261"><ele>328.3333333333333</ele><time>2026-04-26T07:16:51.236Z</time></trkpt><trkpt lat="44.4968139" lon="10.7957439"><ele>328.5</ele><time>2026-04-26T07:16:52.234Z</time></trkpt><trkpt lat="44.4967686" lon="10.7956545"><ele>328.6666666666667</ele><time>2026-04-26T07:16:53.235Z</time></trkpt><trkpt lat="44.4967204" lon="10.7955752"><ele>328.83333333333337</ele><time>2026-04-26T07:16:54.239Z</time></trkpt><trkpt lat="44.4966589" lon="10.7954998"><ele>329.0</ele><time>2026-04-26T07:16:55.24Z</time></trkpt><trkpt lat="44.496596" lon="10.795426"><ele>329.0</ele><time>2026-04-26T07:16:56.238Z</time></trkpt><trkpt lat="44.4965323" lon="10.7953494"><ele>329.0</ele><time>2026-04-26T07:16:57.243Z</time></trkpt><trkpt lat="44.4964758" lon="10.7952606"><ele>329.0</ele><time>2026-04-26T07:16:58.237Z</time></trkpt><trkpt lat="44.4964285" lon="10.7951561"><ele>329.0</ele><time>2026-04-26T07:16:59.231Z</time></trkpt><trkpt lat="44.4963832" lon="10.7950339"><ele>329.0</ele><time>2026-04-26T07:17:00.242Z</time></trkpt><trkpt lat="44.4963349" lon="10.7948996"><ele>329.4</ele><time>2026-04-26T07:17:01.232Z</time></trkpt><trkpt lat="44.496287" lon="10.7947618"><ele>329.79999999999995</ele><time>2026-04-26T07:17:02.237Z</time></trkpt><trkpt lat="44.4962346" lon="10.7946229"><ele>330.20000000000005</ele><time>2026-04-26T07:17:03.235Z</time></trkpt><trkpt lat="44.4961849" lon="10.7944887"><ele>330.6</ele><time>2026-04-26T07:17:04.24Z</time></trkpt><trkpt lat="44.4961406" lon="10.7943991"><ele>331.0</ele><time>2026-04-26T07:17:05.236Z</time></trkpt><trkpt lat="44.4960978" lon="10.7943167"><ele>333.66666666666663</ele><time>2026-04-26T07:17:06.24Z</time></trkpt><trkpt lat="44.4960388" lon="10.7942469"><ele>336.3333333333333</ele><time>2026-04-26T07:17:07.238Z</time></trkpt><trkpt lat="44.4959856" lon="10.7941961"><ele>339.0</ele><time>2026-04-26T07:17:08.239Z</time></trkpt><trkpt lat="44.4959276" lon="10.7941472"><ele>341.6666666666667</ele><time>2026-04-26T07:17:09.24Z</time></trkpt><trkpt lat="44.4958506" lon="10.7941195"><ele>344.33333333333337</ele><time>2026-04-26T07:17:10.235Z</time></trkpt><trkpt lat="44.4957483" lon="10.7940715"><ele>347.0</ele><time>2026-04-26T07:17:11.24Z</time></trkpt><trkpt lat="44.4956427" lon="10.7940333"><ele>347.0</ele><time>2026-04-26T07:17:12.247Z</time></trkpt><trkpt lat="44.4955503" lon="10.7940098"><ele>347.0</ele><time>2026-04-26T07:17:13.241Z</time></trkpt><trkpt lat="44.4954809" lon="10.7939831"><ele>347.0</ele><time>2026-04-26T07:17:14.236Z</time></trkpt><trkpt lat="44.4953942" lon="10.7939148"><ele>347.0</ele><time>2026-04-26T07:17:16.24Z</time></trkpt><trkpt lat="44.4953344" lon="10.793854"><ele>347.0</ele><time>2026-04-26T07:17:18.239Z</time></trkpt><trkpt lat="44.4952626" lon="10.7937888"><ele>347.0</ele><time>2026-04-26T07:17:29.246Z</time></trkpt><trkpt lat="44.4951629" lon="10.7937418"><ele>349.0</ele><time>2026-04-26T07:17:31.256Z</time></trkpt><trkpt lat="44.49505" lon="10.7936726"><ele>351.0</ele><time>2026-04-26T07:17:33.24Z</time></trkpt><trkpt lat="44.4949583" lon="10.7935389"><ele>353.0</ele><time>2026-04-26T07:17:35.236Z</time></trkpt><trkpt lat="44.4949136" lon="10.7934575"><ele>355.0</ele><time>2026-04-26T07:17:36.239Z</time></trkpt><trkpt lat="44.4948625" lon="10.793368"><ele>357.0</ele><time>2026-04-26T07:17:37.24Z</time></trkpt><trkpt lat="44.4948077" lon="10.7932836"><ele>357.5</ele><time>2026-04-26T07:17:38.242Z</time></trkpt><trkpt lat="44.4947555" lon="10.7932025"><ele>358.0</ele><time>2026-04-26T07:17:39.239Z</time></trkpt><trkpt lat="44.4947048" lon="10.7931254"><ele>358.5</ele><time>2026-04-26T07:17:40.238Z</time></trkpt><trkpt lat="44.4946549" lon="10.7930494"><ele>359.0</ele><time>2026-04-26T07:17:41.232Z</time></trkpt><trkpt lat="44.494604" lon="10.7929709"><ele>359.5</ele><time>2026-04-26T07:17:42.238Z</time></trkpt><trkpt lat="44.4945601" lon="10.7928851"><ele>360.0</ele><time>2026-04-26T07:17:43.233Z</time></trkpt><trkpt lat="44.494521" lon="10.7927998"><ele>360.0</ele><time>2026-04-26T07:17:44.242Z</time></trkpt><trkpt lat="44.4944869" lon="10.792704"><ele>360.0</ele><time>2026-04-26T07:17:45.235Z</time></trkpt><trkpt lat="44.4944515" lon="10.7926037"><ele>360.0</ele><time>2026-04-26T07:17:46.24Z</time></trkpt><trkpt lat="44.4944199" lon="10.7924918"><ele>360.0</ele><time>2026-04-26T07:17:47.233Z</time></trkpt><trkpt lat="44.4943895" lon="10.7923815"><ele>360.0</ele><time>2026-04-26T07:17:48.246Z</time></trkpt><trkpt lat="44.49437" lon="10.7922752"><ele>360.0</ele><time>2026-04-26T07:17:49.237Z</time></trkpt><trkpt lat="44.4943383" lon="10.7921664"><ele>362.3333333333333</ele><time>2026-04-26T07:17:50.23Z</time></trkpt><trkpt lat="44.4942946" lon="10.7920541"><ele>364.6666666666667</ele><time>2026-04-26T07:17:51.235Z</time></trkpt><trkpt lat="44.4942508" lon="10.7919398"><ele>367.0</ele><time>2026-04-26T07:17:52.238Z</time></trkpt><trkpt lat="44.4942068" lon="10.7918194"><ele>369.33333333333337</ele><time>2026-04-26T07:17:53.239Z</time></trkpt><trkpt lat="44.4941619" lon="10.7917112"><ele>371.6666666666667</ele><time>2026-04-26T07:17:54.236Z</time></trkpt><trkpt lat="44.494126" lon="10.7916201"><ele>374.0</ele><time>2026-04-26T07:17:55.241Z</time></trkpt><trkpt lat="44.4940797" lon="10.7915096"><ele>375.2</ele><time>2026-04-26T07:17:57.244Z</time></trkpt><trkpt lat="44.4940259" lon="10.7914052"><ele>376.4</ele><time>2026-04-26T07:17:59.238Z</time></trkpt><trkpt lat="44.4939435" lon="10.7912916"><ele>377.6</ele><time>2026-04-26T07:18:01.241Z</time></trkpt><trkpt lat="44.4938881" lon="10.791239"><ele>378.8</ele><time>2026-04-26T07:18:02.232Z</time></trkpt><trkpt lat="44.4938304" lon="10.7911917"><ele>380.0</ele><time>2026-04-26T07:18:03.238Z</time></trkpt><trkpt lat="44.4937241" lon="10.7911255"><ele>380.0</ele><time>2026-04-26T07:18:05.237Z</time></trkpt><trkpt lat="44.4936271" lon="10.7911113"><ele>380.0</ele><time>2026-04-26T07:18:07.233Z</time></trkpt><trkpt lat="44.4935411" lon="10.7911127"><ele>380.0</ele><time>2026-04-26T07:18:09.284Z</time></trkpt><trkpt lat="44.4934738" lon="10.7911151"><ele>380.0</ele><time>2026-04-26T07:18:11.239Z</time></trkpt><trkpt lat="44.4933871" lon="10.7911334"><ele>380.0</ele><time>2026-04-26T07:18:21.235Z</time></trkpt><trkpt lat="44.4932899" lon="10.7911499"><ele>380.0</ele><time>2026-04-26T07:18:23.241Z</time></trkpt><trkpt lat="44.4931625" lon="10.7911403"><ele>380.0</ele><time>2026-04-26T07:18:25.237Z</time></trkpt><trkpt lat="44.4930912" lon="10.7911236"><ele>380.0</ele><time>2026-04-26T07:18:26.24Z</time></trkpt><trkpt lat="44.4930136" lon="10.7911099"><ele>380.0</ele><time>2026-04-26T07:18:27.231Z</time></trkpt><trkpt lat="44.4929371" lon="10.7911102"><ele>380.0</ele><time>2026-04-26T07:18:28.229Z</time></trkpt><trkpt lat="44.4928604" lon="10.7911346"><ele>380.0</ele><time>2026-04-26T07:18:29.229Z</time></trkpt><trkpt lat="44.4927831" lon="10.7911969"><ele>380.0</ele><time>2026-04-26T07:18:30.233Z</time></trkpt><trkpt lat="44.4927157" lon="10.7912883"><ele>380.0</ele><time>2026-04-26T07:18:31.232Z</time></trkpt><trkpt lat="44.4926509" lon="10.7913781"><ele>380.0</ele><time>2026-04-26T07:18:32.237Z</time></trkpt><trkpt lat="44.4925888" lon="10.7914571"><ele>380.0</ele><time>2026-04-26T07:18:33.23Z</time></trkpt><trkpt lat="44.4924913" lon="10.7914719"><ele>380.0</ele><time>2026-04-26T07:18:34.233Z</time></trkpt><trkpt lat="44.4924005" lon="10.7914652"><ele>380.0</ele><time>2026-04-26T07:18:35.226Z</time></trkpt><trkpt lat="44.4923093" lon="10.7914927"><ele>380.0</ele><time>2026-04-26T07:18:36.228Z</time></trkpt><trkpt lat="44.4922408" lon="10.7915532"><ele>380.0</ele><time>2026-04-26T07:18:37.245Z</time></trkpt><trkpt lat="44.4921766" lon="10.7916579"><ele>380.0</ele><time>2026-04-26T07:18:38.233Z</time></trkpt><trkpt lat="44.492116" lon="10.791786"><ele>380.0</ele><time>2026-04-26T07:18:39.238Z</time></trkpt><trkpt lat="44.4920593" lon="10.7919152"><ele>380.0</ele><time>2026-04-26T07:18:40.235Z</time></trkpt><trkpt lat="44.4920086" lon="10.7920399"><ele>378.8</ele><time>2026-04-26T07:18:41.237Z</time></trkpt><trkpt lat="44.4919603" lon="10.7921614"><ele>377.6</ele><time>2026-04-26T07:18:42.237Z</time></trkpt><trkpt lat="44.4919146" lon="10.7922762"><ele>376.4</ele><time>2026-04-26T07:18:43.229Z</time></trkpt><trkpt lat="44.491868" lon="10.7923932"><ele>375.2</ele><time>2026-04-26T07:18:44.233Z</time></trkpt><trkpt lat="44.4918199" lon="10.7925146"><ele>374.0</ele><time>2026-04-26T07:18:45.229Z</time></trkpt><trkpt lat="44.4917725" lon="10.7926374"><ele>372.0</ele><time>2026-04-26T07:18:46.233Z</time></trkpt><trkpt lat="44.4917297" lon="10.7927599"><ele>370.0</ele><time>2026-04-26T07:18:47.233Z</time></trkpt><trkpt lat="44.4916901" lon="10.7928801"><ele>368.0</ele><time>2026-04-26T07:18:48.237Z</time></trkpt><trkpt lat="44.4916531" lon="10.7929971"><ele>366.0</ele><time>2026-04-26T07:18:49.231Z</time></trkpt><trkpt lat="44.4916204" lon="10.7931125"><ele>364.0</ele><time>2026-04-26T07:18:50.239Z</time></trkpt><trkpt lat="44.4915934" lon="10.7932353"><ele>364.0</ele><time>2026-04-26T07:18:51.232Z</time></trkpt><trkpt lat="44.4915729" lon="10.7933668"><ele>364.0</ele><time>2026-04-26T07:18:52.236Z</time></trkpt><trkpt lat="44.4915601" lon="10.7935005"><ele>364.0</ele><time>2026-04-26T07:18:53.237Z</time></trkpt><trkpt lat="44.491547" lon="10.7936344"><ele>364.0</ele><time>2026-04-26T07:18:54.236Z</time></trkpt><trkpt lat="44.4915304" lon="10.793762"><ele>364.0</ele><time>2026-04-26T07:18:55.231Z</time></trkpt><trkpt lat="44.4915092" lon="10.7938837"><ele>363.16666666666663</ele><time>2026-04-26T07:18:56.24Z</time></trkpt><trkpt lat="44.4914855" lon="10.7940038"><ele>362.3333333333333</ele><time>2026-04-26T07:18:57.24Z</time></trkpt><trkpt lat="44.4914612" lon="10.7941212"><ele>361.5</ele><time>2026-04-26T07:18:58.241Z</time></trkpt><trkpt lat="44.4914381" lon="10.7942366"><ele>360.6666666666667</ele><time>2026-04-26T07:18:59.241Z</time></trkpt><trkpt lat="44.4914132" lon="10.7943465"><ele>359.83333333333337</ele><time>2026-04-26T07:19:00.233Z</time></trkpt><trkpt lat="44.491391" lon="10.7944552"><ele>359.0</ele><time>2026-04-26T07:19:01.238Z</time></trkpt><trkpt lat="44.4913687" lon="10.7945568"><ele>358.1666666666667</ele><time>2026-04-26T07:19:02.23Z</time></trkpt><trkpt lat="44.4913472" lon="10.7946534"><ele>357.33333333333337</ele><time>2026-04-26T07:19:03.237Z</time></trkpt><trkpt lat="44.4913323" lon="10.7947403"><ele>356.5</ele><time>2026-04-26T07:19:04.235Z</time></trkpt><trkpt lat="44.4913005" lon="10.794865"><ele>355.6666666666667</ele><time>2026-04-26T07:19:06.227Z</time></trkpt><trkpt lat="44.4912454" lon="10.7949098"><ele>354.8333333333333</ele><time>2026-04-26T07:19:08.232Z</time></trkpt><trkpt lat="44.4911631" lon="10.7948985"><ele>354.0</ele><time>2026-04-26T07:19:10.235Z</time></trkpt><trkpt lat="44.4910804" lon="10.7948813"><ele>354.0</ele><time>2026-04-26T07:19:12.233Z</time></trkpt><trkpt lat="44.4909986" lon="10.7948627"><ele>354.0</ele><time>2026-04-26T07:19:14.239Z</time></trkpt><trkpt lat="44.4909141" lon="10.794848"><ele>354.0</ele><time>2026-04-26T07:19:16.239Z</time></trkpt><trkpt lat="44.4908318" lon="10.7948292"><ele>354.0</ele><time>2026-04-26T07:19:18.241Z</time></trkpt><trkpt lat="44.4907587" lon="10.7948184"><ele>354.0</ele><time>2026-04-26T07:19:20.238Z</time></trkpt><trkpt lat="44.4906785" lon="10.7948154"><ele>354.0</ele><time>2026-04-26T07:19:22.225Z</time></trkpt><trkpt lat="44.4905964" lon="10.7948108"><ele>354.0</ele><time>2026-04-26T07:19:24.233Z</time></trkpt><trkpt lat="44.4905129" lon="10.794813"><ele>354.0</ele><time>2026-04-26T07:19:26.23Z</time></trkpt><trkpt lat="44.4904271" lon="10.7948148"><ele>354.0</ele><time>2026-04-26T07:19:28.234Z</time></trkpt><trkpt lat="44.4903307" lon="10.7948088"><ele>354.0</ele><time>2026-04-26T07:19:30.232Z</time></trkpt><trkpt lat="44.4902308" lon="10.7947963"><ele>354.0</ele><time>2026-04-26T07:19:32.231Z</time></trkpt><trkpt lat="44.4901331" lon="10.7947688"><ele>352.6</ele><time>2026-04-26T07:19:34.229Z</time></trkpt><trkpt lat="44.4900393" lon="10.7947192"><ele>351.2</ele><time>2026-04-26T07:19:36.23Z</time></trkpt><trkpt lat="44.4899481" lon="10.794659"><ele>349.8</ele><time>2026-04-26T07:19:38.234Z</time></trkpt><trkpt lat="44.4898482" lon="10.7945869"><ele>348.40000000000003</ele><time>2026-04-26T07:19:40.232Z</time></trkpt><trkpt lat="44.4897415" lon="10.7945165"><ele>347.0</ele><time>2026-04-26T07:19:42.24Z</time></trkpt><trkpt lat="44.4896423" lon="10.794492"><ele>346.5</ele><time>2026-04-26T07:19:44.231Z</time></trkpt><trkpt lat="44.4895495" lon="10.7945517"><ele>346.0</ele><time>2026-04-26T07:19:46.245Z</time></trkpt><trkpt lat="44.4894587" lon="10.7945998"><ele>345.5</ele><time>2026-04-26T07:19:48.236Z</time></trkpt><trkpt lat="44.4893577" lon="10.7946544"><ele>345.0</ele><time>2026-04-26T07:19:50.228Z</time></trkpt><trkpt lat="44.4892974" lon="10.7947015"><ele>344.5</ele><time>2026-04-26T07:19:51.239Z</time></trkpt><trkpt lat="44.4892342" lon="10.7947507"><ele>344.0</ele><time>2026-04-26T07:19:52.24Z</time></trkpt><trkpt lat="44.4891654" lon="10.794803"><ele>344.0</ele><time>2026-04-26T07:19:53.235Z</time></trkpt><trkpt lat="44.489101" lon="10.7948483"><ele>344.0</ele><time>2026-04-26T07:19:54.232Z</time></trkpt><trkpt lat="44.4890318" lon="10.7948886"><ele>344.0</ele><time>2026-04-26T07:19:55.235Z</time></trkpt><trkpt lat="44.4889648" lon="10.79493"><ele>344.0</ele><time>2026-04-26T07:19:56.243Z</time></trkpt><trkpt lat="44.4888643" lon="10.7949206"><ele>344.0</ele><time>2026-04-26T07:19:58.241Z</time></trkpt><trkpt lat="44.4887795" lon="10.7947936"><ele>344.0</ele><time>2026-04-26T07:20:00.234Z</time></trkpt><trkpt lat="44.4887346" lon="10.7946879"><ele>342.33333333333337</ele><time>2026-04-26T07:20:01.24Z</time></trkpt><trkpt lat="44.4886893" lon="10.7945905"><ele>340.6666666666667</ele><time>2026-04-26T07:20:02.24Z</time></trkpt><trkpt lat="44.4886309" lon="10.7945092"><ele>339.0</ele><time>2026-04-26T07:20:03.229Z</time></trkpt><trkpt lat="44.4885701" lon="10.794456"><ele>337.3333333333333</ele><time>2026-04-26T07:20:04.229Z</time></trkpt><trkpt lat="44.4885315" lon="10.7943294"><ele>335.66666666666663</ele><time>2026-04-26T07:20:06.229Z</time></trkpt><trkpt lat="44.4885563" lon="10.7942015"><ele>334.0</ele><time>2026-04-26T07:20:08.237Z</time></trkpt><trkpt lat="44.4885843" lon="10.7940908"><ele>334.0</ele><time>2026-04-26T07:20:09.244Z</time></trkpt><trkpt lat="44.4886043" lon="10.7939642"><ele>334.0</ele><time>2026-04-26T07:20:10.227Z</time></trkpt><trkpt lat="44.4886276" lon="10.7938415"><ele>334.0</ele><time>2026-04-26T07:20:11.237Z</time></trkpt><trkpt lat="44.4886619" lon="10.7937109"><ele>334.0</ele><time>2026-04-26T07:20:12.239Z</time></trkpt><trkpt lat="44.4886969" lon="10.793584"><ele>334.0</ele><time>2026-04-26T07:20:13.229Z</time></trkpt><trkpt lat="44.4887272" lon="10.793469"><ele>334.5</ele><time>2026-04-26T07:20:14.234Z</time></trkpt><trkpt lat="44.4887402" lon="10.793357"><ele>335.0</ele><time>2026-04-26T07:20:15.228Z</time></trkpt><trkpt lat="44.4887519" lon="10.7932507"><ele>335.5</ele><time>2026-04-26T07:20:16.225Z</time></trkpt><trkpt lat="44.4887208" lon="10.7931504"><ele>336.0</ele><time>2026-04-26T07:20:17.223Z</time></trkpt><trkpt lat="44.488673" lon="10.7930478"><ele>336.5</ele><time>2026-04-26T07:20:18.228Z</time></trkpt><trkpt lat="44.4886179" lon="10.7929431"><ele>337.0</ele><time>2026-04-26T07:20:19.23Z</time></trkpt><trkpt lat="44.4885625" lon="10.7928417"><ele>337.0</ele><time>2026-04-26T07:20:20.232Z</time></trkpt><trkpt lat="44.4885081" lon="10.7927405"><ele>337.0</ele><time>2026-04-26T07:20:21.229Z</time></trkpt><trkpt lat="44.488453" lon="10.7926499"><ele>337.0</ele><time>2026-04-26T07:20:22.232Z</time></trkpt><trkpt lat="44.4884011" lon="10.7925689"><ele>337.0</ele><time>2026-04-26T07:20:23.231Z</time></trkpt><trkpt lat="44.4883241" lon="10.7924459"><ele>337.0</ele><time>2026-04-26T07:20:25.239Z</time></trkpt><trkpt lat="44.4883337" lon="10.7923333"><ele>336.6</ele><time>2026-04-26T07:20:27.231Z</time></trkpt><trkpt lat="44.4884242" lon="10.7922728"><ele>336.20000000000005</ele><time>2026-04-26T07:20:29.248Z</time></trkpt><trkpt lat="44.4884922" lon="10.7922272"><ele>335.8</ele><time>2026-04-26T07:20:30.232Z</time></trkpt><trkpt lat="44.4885791" lon="10.7921635"><ele>335.4</ele><time>2026-04-26T07:20:31.23Z</time></trkpt><trkpt lat="44.4886629" lon="10.7920992"><ele>335.0</ele><time>2026-04-26T07:20:32.224Z</time></trkpt><trkpt lat="44.4887566" lon="10.7920172"><ele>333.1666666666667</ele><time>2026-04-26T07:20:33.237Z</time></trkpt><trkpt lat="44.4888166" lon="10.7919606"><ele>331.33333333333337</ele><time>2026-04-26T07:20:34.235Z</time></trkpt><trkpt lat="44.4888779" lon="10.7918412"><ele>329.5</ele><time>2026-04-26T07:20:36.237Z</time></trkpt><trkpt lat="44.4888581" lon="10.7917028"><ele>327.6666666666667</ele><time>2026-04-26T07:20:38.236Z</time></trkpt><trkpt lat="44.488806" lon="10.791609"><ele>325.8333333333333</ele><time>2026-04-26T07:20:40.231Z</time></trkpt><trkpt lat="44.4887414" lon="10.7915303"><ele>324.0</ele><time>2026-04-26T07:20:42.227Z</time></trkpt><trkpt lat="44.4886998" lon="10.7914608"><ele>324.0</ele><time>2026-04-26T07:20:44.232Z</time></trkpt><trkpt lat="44.488666" lon="10.7913581"><ele>324.0</ele><time>2026-04-26T07:20:47.228Z</time></trkpt><trkpt lat="44.4886504" lon="10.7912551"><ele>324.0</ele><time>2026-04-26T07:20:49.227Z</time></trkpt><trkpt lat="44.4886637" lon="10.7911341"><ele>324.0</ele><time>2026-04-26T07:20:51.229Z</time></trkpt><trkpt lat="44.4886778" lon="10.7910028"><ele>324.0</ele><time>2026-04-26T07:20:53.228Z</time></trkpt><trkpt lat="44.4886722" lon="10.790899"><ele>324.0</ele><time>2026-04-26T07:20:55.228Z</time></trkpt><trkpt lat="44.4886004" lon="10.7908084"><ele>324.0</ele><time>2026-04-26T07:20:57.237Z</time></trkpt><trkpt lat="44.4885337" lon="10.7907006"><ele>324.0</ele><time>2026-04-26T07:20:59.223Z</time></trkpt><trkpt lat="44.4885308" lon="10.7906023"><ele>324.0</ele><time>2026-04-26T07:21:00.234Z</time></trkpt><trkpt lat="44.4885308" lon="10.7905043"><ele>324.0</ele><time>2026-04-26T07:21:01.231Z</time></trkpt><trkpt lat="44.4885541" lon="10.7903222"><ele>324.0</ele><time>2026-04-26T07:21:03.228Z</time></trkpt><trkpt lat="44.4885873" lon="10.7902347"><ele>324.0</ele><time>2026-04-26T07:21:04.225Z</time></trkpt><trkpt lat="44.488614" lon="10.7901375"><ele>324.0</ele><time>2026-04-26T07:21:05.233Z</time></trkpt><trkpt lat="44.4885897" lon="10.789959"><ele>324.0</ele><time>2026-04-26T07:21:07.232Z</time></trkpt><trkpt lat="44.4885366" lon="10.7898477"><ele>324.0</ele><time>2026-04-26T07:21:08.224Z</time></trkpt><trkpt lat="44.4884861" lon="10.7897465"><ele>324.0</ele><time>2026-04-26T07:21:09.232Z</time></trkpt><trkpt lat="44.4884373" lon="10.7896642"><ele>324.0</ele><time>2026-04-26T07:21:10.228Z</time></trkpt><trkpt lat="44.4883963" lon="10.789573"><ele>324.0</ele><time>2026-04-26T07:21:11.233Z</time></trkpt><trkpt lat="44.4883476" lon="10.7894804"><ele>324.0</ele><time>2026-04-26T07:21:12.228Z</time></trkpt><trkpt lat="44.4882961" lon="10.789391"><ele>324.0</ele><time>2026-04-26T07:21:13.231Z</time></trkpt><trkpt lat="44.4882404" lon="10.7892962"><ele>324.0</ele><time>2026-04-26T07:21:14.228Z</time></trkpt><trkpt lat="44.4881872" lon="10.7892166"><ele>324.0</ele><time>2026-04-26T07:21:15.232Z</time></trkpt><trkpt lat="44.4881301" lon="10.7891473"><ele>324.0</ele><time>2026-04-26T07:21:16.228Z</time></trkpt><trkpt lat="44.4880837" lon="10.7890855"><ele>323.1666666666667</ele><time>2026-04-26T07:21:17.232Z</time></trkpt><trkpt lat="44.487998" lon="10.7890249"><ele>322.3333333333333</ele><time>2026-04-26T07:21:19.229Z</time></trkpt><trkpt lat="44.4879315" lon="10.7890969"><ele>321.5</ele><time>2026-04-26T07:21:21.233Z</time></trkpt><trkpt lat="44.4879204" lon="10.7892488"><ele>320.66666666666663</ele><time>2026-04-26T07:21:23.227Z</time></trkpt><trkpt lat="44.4879189" lon="10.7893542"><ele>319.8333333333333</ele><time>2026-04-26T07:21:24.232Z</time></trkpt><trkpt lat="44.4879141" lon="10.7894624"><ele>319.0</ele><time>2026-04-26T07:21:25.228Z</time></trkpt><trkpt lat="44.4878908" lon="10.789553"><ele>314.66666666666663</ele><time>2026-04-26T07:21:26.229Z</time></trkpt><trkpt lat="44.4878545" lon="10.7896537"><ele>310.3333333333333</ele><time>2026-04-26T07:21:27.227Z</time></trkpt><trkpt lat="44.4878106" lon="10.7897625"><ele>306.0</ele><time>2026-04-26T07:21:28.23Z</time></trkpt><trkpt lat="44.4877624" lon="10.789877"><ele>301.6666666666667</ele><time>2026-04-26T07:21:29.231Z</time></trkpt><trkpt lat="44.4877214" lon="10.7899799"><ele>297.33333333333337</ele><time>2026-04-26T07:21:30.228Z</time></trkpt><trkpt lat="44.4876937" lon="10.7900799"><ele>293.0</ele><time>2026-04-26T07:21:31.235Z</time></trkpt><trkpt lat="44.487684" lon="10.7901781"><ele>293.0</ele><time>2026-04-26T07:21:32.231Z</time></trkpt><trkpt lat="44.4876858" lon="10.7902981"><ele>293.0</ele><time>2026-04-26T07:21:33.236Z</time></trkpt><trkpt lat="44.4876909" lon="10.7904202"><ele>293.0</ele><time>2026-04-26T07:21:34.232Z</time></trkpt><trkpt lat="44.4876861" lon="10.7905416"><ele>293.0</ele><time>2026-04-26T07:21:35.227Z</time></trkpt><trkpt lat="44.4876812" lon="10.7906634"><ele>293.0</ele><time>2026-04-26T07:21:36.239Z</time></trkpt><trkpt lat="44.4876527" lon="10.7907775"><ele>293.0</ele><time>2026-04-26T07:21:37.231Z</time></trkpt><trkpt lat="44.4876155" lon="10.7908972"><ele>294.1666666666667</ele><time>2026-04-26T07:21:38.227Z</time></trkpt><trkpt lat="44.4875942" lon="10.7910207"><ele>295.33333333333337</ele><time>2026-04-26T07:21:39.231Z</time></trkpt><trkpt lat="44.4875701" lon="10.7911394"><ele>296.5</ele><time>2026-04-26T07:21:40.231Z</time></trkpt><trkpt lat="44.4875404" lon="10.7912383"><ele>297.6666666666667</ele><time>2026-04-26T07:21:41.224Z</time></trkpt><trkpt lat="44.4874846" lon="10.7913399"><ele>298.8333333333333</ele><time>2026-04-26T07:21:42.229Z</time></trkpt><trkpt lat="44.48742" lon="10.7914436"><ele>300.0</ele><time>2026-04-26T07:21:43.231Z</time></trkpt><trkpt lat="44.4873521" lon="10.7915387"><ele>300.0</ele><time>2026-04-26T07:21:44.224Z</time></trkpt><trkpt lat="44.4872847" lon="10.7916058"><ele>300.0</ele><time>2026-04-26T07:21:45.225Z</time></trkpt><trkpt lat="44.4872142" lon="10.7916623"><ele>300.0</ele><time>2026-04-26T07:21:46.234Z</time></trkpt><trkpt lat="44.4871476" lon="10.7917111"><ele>300.0</ele><time>2026-04-26T07:21:47.226Z</time></trkpt><trkpt lat="44.4870811" lon="10.7917574"><ele>300.0</ele><time>2026-04-26T07:21:48.227Z</time></trkpt><trkpt lat="44.4870032" lon="10.7918123"><ele>300.0</ele><time>2026-04-26T07:21:49.228Z</time></trkpt><trkpt lat="44.4869244" lon="10.7918795"><ele>296.0</ele><time>2026-04-26T07:21:50.237Z</time></trkpt><trkpt lat="44.4868578" lon="10.7919703"><ele>292.0</ele><time>2026-04-26T07:21:51.237Z</time></trkpt><trkpt lat="44.4867911" lon="10.7920634"><ele>288.0</ele><time>2026-04-26T07:21:52.229Z</time></trkpt><trkpt lat="44.4867407" lon="10.7921759"><ele>284.0</ele><time>2026-04-26T07:21:53.229Z</time></trkpt><trkpt lat="44.4866864" lon="10.7922712"><ele>280.0</ele><time>2026-04-26T07:21:54.226Z</time></trkpt><trkpt lat="44.4866376" lon="10.7923571"><ele>276.0</ele><time>2026-04-26T07:21:55.235Z</time></trkpt><trkpt lat="44.4865968" lon="10.7924519"><ele>276.0</ele><time>2026-04-26T07:21:56.236Z</time></trkpt><trkpt lat="44.4865602" lon="10.7925299"><ele>276.0</ele><time>2026-04-26T07:21:57.225Z</time></trkpt><trkpt lat="44.4865107" lon="10.7926244"><ele>276.0</ele><time>2026-04-26T07:21:59.23Z</time></trkpt><trkpt lat="44.4864491" lon="10.7926802"><ele>276.0</ele><time>2026-04-26T07:22:15.241Z</time></trkpt><trkpt lat="44.4863585" lon="10.7927027"><ele>276.0</ele><time>2026-04-26T07:22:18.228Z</time></trkpt><trkpt lat="44.4862987" lon="10.792755"><ele>276.0</ele><time>2026-04-26T07:22:21.232Z</time></trkpt><trkpt lat="44.4862484" lon="10.7928381"><ele>272.5</ele><time>2026-04-26T07:22:24.227Z</time></trkpt><trkpt lat="44.4861962" lon="10.7929049"><ele>269.0</ele><time>2026-04-26T07:22:26.236Z</time></trkpt><trkpt lat="44.4861426" lon="10.7929912"><ele>265.5</ele><time>2026-04-26T07:22:28.225Z</time></trkpt><trkpt lat="44.4860802" lon="10.7930871"><ele>262.0</ele><time>2026-04-26T07:22:30.237Z</time></trkpt><trkpt lat="44.4860317" lon="10.7931728"><ele>258.5</ele><time>2026-04-26T07:22:32.239Z</time></trkpt><trkpt lat="44.4859907" lon="10.7932414"><ele>255.0</ele><time>2026-04-26T07:22:34.228Z</time></trkpt><trkpt lat="44.4859372" lon="10.7933333"><ele>255.0</ele><time>2026-04-26T07:22:37.231Z</time></trkpt><trkpt lat="44.4859163" lon="10.7934227"><ele>255.0</ele><time>2026-04-26T07:22:39.235Z</time></trkpt><trkpt lat="44.4858997" lon="10.7935135"><ele>255.0</ele><time>2026-04-26T07:22:41.23Z</time></trkpt><trkpt lat="44.4858633" lon="10.7936045"><ele>255.0</ele><time>2026-04-26T07:22:44.235Z</time></trkpt><trkpt lat="44.4858429" lon="10.7935121"><ele>255.0</ele><time>2026-04-26T07:22:49.241Z</time></trkpt><trkpt lat="44.4858337" lon="10.7934198"><ele>255.0</ele><time>2026-04-26T07:22:51.235Z</time></trkpt><trkpt lat="44.4858291" lon="10.7932472"><ele>255.0</ele><time>2026-04-26T07:22:53.232Z</time></trkpt><trkpt lat="44.4858313" lon="10.793144"><ele>255.0</ele><time>2026-04-26T07:22:54.229Z</time></trkpt><trkpt lat="44.4858248" lon="10.793044"><ele>255.0</ele><time>2026-04-26T07:22:55.239Z</time></trkpt><trkpt lat="44.4858107" lon="10.7929438"><ele>255.0</ele><time>2026-04-26T07:22:56.228Z</time></trkpt><trkpt lat="44.4857823" lon="10.7928447"><ele>255.0</ele><time>2026-04-26T07:22:57.235Z</time></trkpt><trkpt lat="44.4857521" lon="10.7927438"><ele>255.0</ele><time>2026-04-26T07:22:58.235Z</time></trkpt><trkpt lat="44.4856954" lon="10.7926484"><ele>254.83333333333334</ele><time>2026-04-26T07:22:59.228Z</time></trkpt><trkpt lat="44.4856434" lon="10.7925616"><ele>254.66666666666669</ele><time>2026-04-26T07:23:00.227Z</time></trkpt><trkpt lat="44.4855766" lon="10.7924819"><ele>254.5</ele><time>2026-04-26T07:23:01.23Z</time></trkpt><trkpt lat="44.4855005" lon="10.792425"><ele>254.33333333333334</ele><time>2026-04-26T07:23:02.231Z</time></trkpt><trkpt lat="44.485411" lon="10.7924003"><ele>254.16666666666669</ele><time>2026-04-26T07:23:03.231Z</time></trkpt><trkpt lat="44.4853204" lon="10.7923783"><ele>254.0</ele><time>2026-04-26T07:23:04.225Z</time></trkpt><trkpt lat="44.4852235" lon="10.7924157"><ele>254.0</ele><time>2026-04-26T07:23:05.225Z</time></trkpt><trkpt lat="44.4851375" lon="10.7924817"><ele>254.0</ele><time>2026-04-26T07:23:06.232Z</time></trkpt><trkpt lat="44.4850562" lon="10.7925719"><ele>254.0</ele><time>2026-04-26T07:23:07.231Z</time></trkpt><trkpt lat="44.4849687" lon="10.7926745"><ele>254.0</ele><time>2026-04-26T07:23:08.231Z</time></trkpt><trkpt lat="44.4848824" lon="10.7928335"><ele>253.66666666666669</ele><time>2026-04-26T07:23:09.228Z</time></trkpt><trkpt lat="44.4847805" lon="10.7930278"><ele>253.33333333333331</ele><time>2026-04-26T07:23:10.23Z</time></trkpt><trkpt lat="44.4846747" lon="10.7932252"><ele>253.0</ele><time>2026-04-26T07:23:11.228Z</time></trkpt><trkpt lat="44.4845753" lon="10.7934154"><ele>254.0</ele><time>2026-04-26T07:23:12.23Z</time></trkpt><trkpt lat="44.4844791" lon="10.7935665"><ele>255.0</ele><time>2026-04-26T07:23:13.228Z</time></trkpt><trkpt lat="44.4843883" lon="10.7936971"><ele>256.0</ele><time>2026-04-26T07:23:14.23Z</time></trkpt><trkpt lat="44.4842803" lon="10.7937586"><ele>257.0</ele><time>2026-04-26T07:23:15.228Z</time></trkpt><trkpt lat="44.4841781" lon="10.7937924"><ele>257.0</ele><time>2026-04-26T07:23:16.228Z</time></trkpt><trkpt lat="44.484076" lon="10.793738"><ele>257.0</ele><time>2026-04-26T07:23:17.234Z</time></trkpt><trkpt lat="44.484009" lon="10.7936453"><ele>257.0</ele><time>2026-04-26T07:23:18.23Z</time></trkpt><trkpt lat="44.4839706" lon="10.7935205"><ele>257.0</ele><time>2026-04-26T07:23:19.226Z</time></trkpt><trkpt lat="44.4839264" lon="10.7933475"><ele>257.0</ele><time>2026-04-26T07:23:20.234Z</time></trkpt><trkpt lat="44.4838814" lon="10.7931814"><ele>257.25</ele><time>2026-04-26T07:23:21.237Z</time></trkpt><trkpt lat="44.4838072" lon="10.7930051"><ele>257.5</ele><time>2026-04-26T07:23:22.229Z</time></trkpt><trkpt lat="44.4837331" lon="10.7928539"><ele>257.75</ele><time>2026-04-26T07:23:23.237Z</time></trkpt><trkpt lat="44.4836614" lon="10.7927169"><ele>258.0</ele><time>2026-04-26T07:23:24.237Z</time></trkpt><trkpt lat="44.4835872" lon="10.792615"><ele>258.0</ele><time>2026-04-26T07:23:25.225Z</time></trkpt><trkpt lat="44.4835144" lon="10.7925546"><ele>258.0</ele><time>2026-04-26T07:23:26.231Z</time></trkpt><trkpt lat="44.4834302" lon="10.7925455"><ele>258.0</ele><time>2026-04-26T07:23:27.231Z</time></trkpt><trkpt lat="44.483342" lon="10.7925825"><ele>258.0</ele><time>2026-04-26T07:23:28.234Z</time></trkpt><trkpt lat="44.4832472" lon="10.7926546"><ele>258.0</ele><time>2026-04-26T07:23:29.227Z</time></trkpt><trkpt lat="44.4831462" lon="10.7927479"><ele>258.0</ele><time>2026-04-26T07:23:30.227Z</time></trkpt><trkpt lat="44.4830435" lon="10.7928257"><ele>258.0</ele><time>2026-04-26T07:23:31.231Z</time></trkpt><trkpt lat="44.4829334" lon="10.7928574"><ele>258.0</ele><time>2026-04-26T07:23:32.261Z</time></trkpt><trkpt lat="44.4828119" lon="10.79286"><ele>258.0</ele><time>2026-04-26T07:23:33.235Z</time></trkpt><trkpt lat="44.4826843" lon="10.7928376"><ele>257.75</ele><time>2026-04-26T07:23:34.249Z</time></trkpt><trkpt lat="44.4825525" lon="10.7927945"><ele>257.5</ele><time>2026-04-26T07:23:35.234Z</time></trkpt><trkpt lat="44.4824276" lon="10.7927251"><ele>257.25</ele><time>2026-04-26T07:23:36.236Z</time></trkpt><trkpt lat="44.4823135" lon="10.7926227"><ele>257.0</ele><time>2026-04-26T07:23:37.241Z</time></trkpt><trkpt lat="44.4822036" lon="10.792494"><ele>259.25</ele><time>2026-04-26T07:23:38.238Z</time></trkpt><trkpt lat="44.4820925" lon="10.7923521"><ele>261.5</ele><time>2026-04-26T07:23:39.238Z</time></trkpt><trkpt lat="44.4819842" lon="10.7922114"><ele>263.75</ele><time>2026-04-26T07:23:40.244Z</time></trkpt><trkpt lat="44.4818798" lon="10.7920776"><ele>266.0</ele><time>2026-04-26T07:23:41.235Z</time></trkpt><trkpt lat="44.4817676" lon="10.7919468"><ele>266.0</ele><time>2026-04-26T07:23:42.229Z</time></trkpt><trkpt lat="44.4816643" lon="10.7918292"><ele>266.0</ele><time>2026-04-26T07:23:43.229Z</time></trkpt><trkpt lat="44.481531" lon="10.7917761"><ele>266.0</ele><time>2026-04-26T07:23:44.225Z</time></trkpt><trkpt lat="44.4813849" lon="10.7917219"><ele>266.0</ele><time>2026-04-26T07:23:45.233Z</time></trkpt><trkpt lat="44.4812293" lon="10.7916601"><ele>266.0</ele><time>2026-04-26T07:23:46.229Z</time></trkpt><trkpt lat="44.4810665" lon="10.7915957"><ele>266.0</ele><time>2026-04-26T07:23:47.228Z</time></trkpt><trkpt lat="44.4809078" lon="10.7915519"><ele>266.0</ele><time>2026-04-26T07:23:48.23Z</time></trkpt><trkpt lat="44.4807408" lon="10.791534"><ele>266.0</ele><time>2026-04-26T07:23:49.231Z</time></trkpt><trkpt lat="44.48058" lon="10.7915366"><ele>266.0</ele><time>2026-04-26T07:23:50.229Z</time></trkpt><trkpt lat="44.4804297" lon="10.7915491"><ele>266.0</ele><time>2026-04-26T07:23:51.228Z</time></trkpt><trkpt lat="44.4802904" lon="10.7915602"><ele>267.5</ele><time>2026-04-26T07:23:52.226Z</time></trkpt><trkpt lat="44.4801622" lon="10.7915703"><ele>269.0</ele><time>2026-04-26T07:23:53.233Z</time></trkpt><trkpt lat="44.4800414" lon="10.7915695"><ele>270.5</ele><time>2026-04-26T07:23:54.227Z</time></trkpt><trkpt lat="44.4799294" lon="10.7915697"><ele>272.0</ele><time>2026-04-26T07:23:55.231Z</time></trkpt><trkpt lat="44.4798266" lon="10.7915602"><ele>272.0</ele><time>2026-04-26T07:23:56.237Z</time></trkpt><trkpt lat="44.4797206" lon="10.7915421"><ele>272.0</ele><time>2026-04-26T07:23:57.232Z</time></trkpt><trkpt lat="44.4796162" lon="10.7915124"><ele>272.0</ele><time>2026-04-26T07:23:58.233Z</time></trkpt><trkpt lat="44.4795385" lon="10.7914567"><ele>272.0</ele><time>2026-04-26T07:23:59.232Z</time></trkpt><trkpt lat="44.4794825" lon="10.7914124"><ele>272.0</ele><time>2026-04-26T07:24:00.23Z</time></trkpt><trkpt lat="44.4795035" lon="10.791315"><ele>272.0</ele><time>2026-04-26T07:24:02.244Z</time></trkpt><trkpt lat="44.4795726" lon="10.791289"><ele>272.0</ele><time>2026-04-26T07:24:03.231Z</time></trkpt><trkpt lat="44.4796385" lon="10.7912987"><ele>272.0</ele><time>2026-04-26T07:24:04.229Z</time></trkpt><trkpt lat="44.479725" lon="10.7912854"><ele>272.0</ele><time>2026-04-26T07:24:05.23Z</time></trkpt><trkpt lat="44.479817" lon="10.7912066"><ele>272.0</ele><time>2026-04-26T07:24:06.234Z</time></trkpt><trkpt lat="44.479895" lon="10.7910975"><ele>272.0</ele><time>2026-04-26T07:24:07.235Z</time></trkpt><trkpt lat="44.4799777" lon="10.7910023"><ele>272.6666666666667</ele><time>2026-04-26T07:24:08.23Z</time></trkpt><trkpt lat="44.4800413" lon="10.7909245"><ele>273.33333333333337</ele><time>2026-04-26T07:24:09.231Z</time></trkpt><trkpt lat="44.4801068" lon="10.790847"><ele>274.0</ele><time>2026-04-26T07:24:10.237Z</time></trkpt><trkpt lat="44.4801727" lon="10.7907844"><ele>274.6666666666667</ele><time>2026-04-26T07:24:11.231Z</time></trkpt><trkpt lat="44.4802388" lon="10.7907269"><ele>275.3333333333333</ele><time>2026-04-26T07:24:12.235Z</time></trkpt><trkpt lat="44.4803038" lon="10.7906717"><ele>276.0</ele><time>2026-04-26T07:24:13.233Z</time></trkpt><trkpt lat="44.4803666" lon="10.7906133"><ele>276.0</ele><time>2026-04-26T07:24:14.236Z</time></trkpt><trkpt lat="44.4804248" lon="10.790555"><ele>276.0</ele><time>2026-04-26T07:24:15.243Z</time></trkpt><trkpt lat="44.480477" lon="10.7904973"><ele>276.0</ele><time>2026-04-26T07:24:16.238Z</time></trkpt><trkpt lat="44.4805674" lon="10.790386"><ele>276.0</ele><time>2026-04-26T07:24:18.238Z</time></trkpt><trkpt lat="44.4806431" lon="10.7902697"><ele>276.0</ele><time>2026-04-26T07:24:20.235Z</time></trkpt><trkpt lat="44.480714" lon="10.7901373"><ele>277.6666666666667</ele><time>2026-04-26T07:24:22.231Z</time></trkpt><trkpt lat="44.4807452" lon="10.7900523"><ele>279.3333333333333</ele><time>2026-04-26T07:24:23.238Z</time></trkpt><trkpt lat="44.4807721" lon="10.7899607"><ele>281.0</ele><time>2026-04-26T07:24:24.229Z</time></trkpt><trkpt lat="44.4807997" lon="10.7898624"><ele>282.66666666666663</ele><time>2026-04-26T07:24:25.23Z</time></trkpt><trkpt lat="44.4808247" lon="10.7897577"><ele>284.3333333333333</ele><time>2026-04-26T07:24:26.235Z</time></trkpt><trkpt lat="44.4808449" lon="10.789644"><ele>286.0</ele><time>2026-04-26T07:24:27.234Z</time></trkpt><trkpt lat="44.4808553" lon="10.7895282"><ele>285.99999999999994</ele><time>2026-04-26T07:24:28.23Z</time></trkpt><trkpt lat="44.4808549" lon="10.789424"><ele>286.0</ele><time>2026-04-26T07:24:29.232Z</time></trkpt><trkpt lat="44.4808439" lon="10.7893274"><ele>286.0</ele><time>2026-04-26T07:24:30.23Z</time></trkpt><trkpt lat="44.4808237" lon="10.7892398"><ele>286.0</ele><time>2026-04-26T07:24:31.229Z</time></trkpt><trkpt lat="44.4807937" lon="10.7891591"><ele>286.0</ele><time>2026-04-26T07:24:32.238Z</time></trkpt><trkpt lat="44.4807549" lon="10.7890809"><ele>285.99999999999994</ele><time>2026-04-26T07:24:33.243Z</time></trkpt><trkpt lat="44.480709" lon="10.7890103"><ele>286.0</ele><time>2026-04-26T07:24:34.228Z</time></trkpt><trkpt lat="44.4806544" lon="10.7889549"><ele>287.66666666666663</ele><time>2026-04-26T07:24:35.24Z</time></trkpt><trkpt lat="44.4805888" lon="10.7889206"><ele>289.3333333333333</ele><time>2026-04-26T07:24:36.234Z</time></trkpt><trkpt lat="44.4805153" lon="10.7889121"><ele>291.0</ele><time>2026-04-26T07:24:37.239Z</time></trkpt><trkpt lat="44.480438" lon="10.7889283"><ele>292.6666666666667</ele><time>2026-04-26T07:24:38.231Z</time></trkpt><trkpt lat="44.4803569" lon="10.7889645"><ele>294.33333333333337</ele><time>2026-04-26T07:24:39.237Z</time></trkpt><trkpt lat="44.4802803" lon="10.7890034"><ele>296.0</ele><time>2026-04-26T07:24:40.24Z</time></trkpt><trkpt lat="44.4802138" lon="10.789032"><ele>297.8</ele><time>2026-04-26T07:24:41.239Z</time></trkpt><trkpt lat="44.4801023" lon="10.7890301"><ele>299.6</ele><time>2026-04-26T07:24:43.234Z</time></trkpt><trkpt lat="44.480052" lon="10.7889087"><ele>301.4</ele><time>2026-04-26T07:24:45.232Z</time></trkpt><trkpt lat="44.4800349" lon="10.7888165"><ele>303.2</ele><time>2026-04-26T07:24:46.23Z</time></trkpt><trkpt lat="44.4800505" lon="10.7886978"><ele>305.0</ele><time>2026-04-26T07:24:47.232Z</time></trkpt><trkpt lat="44.4800603" lon="10.7885588"><ele>307.5</ele><time>2026-04-26T07:24:48.23Z</time></trkpt><trkpt lat="44.4800667" lon="10.7884013"><ele>310.0</ele><time>2026-04-26T07:24:49.228Z</time></trkpt><trkpt lat="44.4800669" lon="10.7882253"><ele>312.5</ele><time>2026-04-26T07:24:50.232Z</time></trkpt><trkpt lat="44.4800783" lon="10.7880589"><ele>315.0</ele><time>2026-04-26T07:24:51.227Z</time></trkpt><trkpt lat="44.4800912" lon="10.7879104"><ele>315.0</ele><time>2026-04-26T07:24:52.236Z</time></trkpt><trkpt lat="44.4801374" lon="10.787803"><ele>315.0</ele><time>2026-04-26T07:24:53.231Z</time></trkpt><trkpt lat="44.4801708" lon="10.7877009"><ele>315.0</ele><time>2026-04-26T07:24:54.237Z</time></trkpt><trkpt lat="44.4801863" lon="10.7876064"><ele>315.0</ele><time>2026-04-26T07:24:55.232Z</time></trkpt><trkpt lat="44.4801761" lon="10.7875083"><ele>315.0</ele><time>2026-04-26T07:24:56.234Z</time></trkpt><trkpt lat="44.4801348" lon="10.7874113"><ele>315.0</ele><time>2026-04-26T07:24:57.239Z</time></trkpt><trkpt lat="44.4800799" lon="10.7873315"><ele>315.8</ele><time>2026-04-26T07:24:58.236Z</time></trkpt><trkpt lat="44.4800065" lon="10.7872749"><ele>316.6</ele><time>2026-04-26T07:24:59.233Z</time></trkpt><trkpt lat="44.4799259" lon="10.7872319"><ele>317.4</ele><time>2026-04-26T07:25:00.239Z</time></trkpt><trkpt lat="44.4798321" lon="10.787248"><ele>318.2</ele><time>2026-04-26T07:25:01.233Z</time></trkpt><trkpt lat="44.4797263" lon="10.7872676"><ele>319.0</ele><time>2026-04-26T07:25:02.242Z</time></trkpt><trkpt lat="44.4796072" lon="10.7872989"><ele>321.79999999999995</ele><time>2026-04-26T07:25:03.236Z</time></trkpt><trkpt lat="44.4795043" lon="10.7873054"><ele>324.59999999999997</ele><time>2026-04-26T07:25:04.232Z</time></trkpt><trkpt lat="44.4794329" lon="10.7873252"><ele>327.4</ele><time>2026-04-26T07:25:05.24Z</time></trkpt><trkpt lat="44.4793236" lon="10.7874219"><ele>330.2</ele><time>2026-04-26T07:25:07.231Z</time></trkpt><trkpt lat="44.479298" lon="10.7875337"><ele>333.0</ele><time>2026-04-26T07:25:08.23Z</time></trkpt><trkpt lat="44.4792956" lon="10.7876746"><ele>332.59999999999997</ele><time>2026-04-26T07:25:09.236Z</time></trkpt><trkpt lat="44.47929" lon="10.7878122"><ele>332.2</ele><time>2026-04-26T07:25:10.236Z</time></trkpt><trkpt lat="44.4792679" lon="10.7879425"><ele>331.8</ele><time>2026-04-26T07:25:11.235Z</time></trkpt><trkpt lat="44.4792162" lon="10.7880771"><ele>331.4</ele><time>2026-04-26T07:25:12.236Z</time></trkpt><trkpt lat="44.479146" lon="10.7881967"><ele>331.0</ele><time>2026-04-26T07:25:13.236Z</time></trkpt><trkpt lat="44.4790793" lon="10.788322"><ele>331.0</ele><time>2026-04-26T07:25:14.233Z</time></trkpt><trkpt lat="44.4790161" lon="10.7884139"><ele>331.0</ele><time>2026-04-26T07:25:15.239Z</time></trkpt><trkpt lat="44.4789604" lon="10.7884726"><ele>331.0</ele><time>2026-04-26T07:25:16.233Z</time></trkpt><trkpt lat="44.4788859" lon="10.7885049"><ele>331.0</ele><time>2026-04-26T07:25:17.231Z</time></trkpt><trkpt lat="44.4788087" lon="10.7884716"><ele>331.0</ele><time>2026-04-26T07:25:18.231Z</time></trkpt><trkpt lat="44.4787295" lon="10.7883987"><ele>331.0</ele><time>2026-04-26T07:25:19.232Z</time></trkpt><trkpt lat="44.4786598" lon="10.7883086"><ele>331.4</ele><time>2026-04-26T07:25:20.24Z</time></trkpt><trkpt lat="44.4785579" lon="10.7882644"><ele>331.8</ele><time>2026-04-26T07:25:21.233Z</time></trkpt><trkpt lat="44.4784489" lon="10.7882289"><ele>332.2</ele><time>2026-04-26T07:25:22.24Z</time></trkpt><trkpt lat="44.4783469" lon="10.7881885"><ele>332.59999999999997</ele><time>2026-04-26T07:25:23.236Z</time></trkpt><trkpt lat="44.4782645" lon="10.7881542"><ele>333.0</ele><time>2026-04-26T07:25:24.236Z</time></trkpt><trkpt lat="44.4782173" lon="10.7880933"><ele>333.0</ele><time>2026-04-26T07:25:25.233Z</time></trkpt><trkpt lat="44.4782175" lon="10.7879822"><ele>333.0</ele><time>2026-04-26T07:25:27.236Z</time></trkpt><trkpt lat="44.4782965" lon="10.7879123"><ele>333.0</ele><time>2026-04-26T07:25:29.235Z</time></trkpt><trkpt lat="44.4783773" lon="10.7878784"><ele>333.0</ele><time>2026-04-26T07:25:30.246Z</time></trkpt><trkpt lat="44.4784557" lon="10.7878364"><ele>333.0</ele><time>2026-04-26T07:25:31.236Z</time></trkpt><trkpt lat="44.4785051" lon="10.7877778"><ele>333.0</ele><time>2026-04-26T07:25:32.234Z</time></trkpt><trkpt lat="44.4785468" lon="10.7876197"><ele>335.79999999999995</ele><time>2026-04-26T07:25:34.236Z</time></trkpt><trkpt lat="44.4785325" lon="10.7875236"><ele>338.6</ele><time>2026-04-26T07:25:35.236Z</time></trkpt><trkpt lat="44.4784948" lon="10.7874091"><ele>341.4</ele><time>2026-04-26T07:25:36.238Z</time></trkpt><trkpt lat="44.4784507" lon="10.7872899"><ele>344.20000000000005</ele><time>2026-04-26T07:25:37.233Z</time></trkpt><trkpt lat="44.4783951" lon="10.7871398"><ele>347.0</ele><time>2026-04-26T07:25:38.238Z</time></trkpt><trkpt lat="44.4783302" lon="10.7869882"><ele>347.25</ele><time>2026-04-26T07:25:39.236Z</time></trkpt><trkpt lat="44.4782621" lon="10.7868409"><ele>347.5</ele><time>2026-04-26T07:25:40.237Z</time></trkpt><trkpt lat="44.4782069" lon="10.7867356"><ele>347.75</ele><time>2026-04-26T07:25:41.237Z</time></trkpt><trkpt lat="44.4781072" lon="10.7866235"><ele>348.0</ele><time>2026-04-26T07:25:42.233Z</time></trkpt><trkpt lat="44.478005" lon="10.786495"><ele>351.0</ele><time>2026-04-26T07:25:43.233Z</time></trkpt><trkpt lat="44.4778896" lon="10.7863587"><ele>354.0</ele><time>2026-04-26T07:25:44.231Z</time></trkpt><trkpt lat="44.4777807" lon="10.7862265"><ele>357.0</ele><time>2026-04-26T07:25:45.238Z</time></trkpt><trkpt lat="44.4776802" lon="10.7861224"><ele>360.0</ele><time>2026-04-26T07:25:46.237Z</time></trkpt><trkpt lat="44.4775895" lon="10.7860459"><ele>362.1666666666667</ele><time>2026-04-26T07:25:47.232Z</time></trkpt><trkpt lat="44.4775233" lon="10.7859608"><ele>364.3333333333333</ele><time>2026-04-26T07:25:48.235Z</time></trkpt><trkpt lat="44.4774733" lon="10.7858624"><ele>366.5</ele><time>2026-04-26T07:25:49.228Z</time></trkpt><trkpt lat="44.4774321" lon="10.7857729"><ele>368.66666666666663</ele><time>2026-04-26T07:25:50.24Z</time></trkpt><trkpt lat="44.4774272" lon="10.7856594"><ele>370.8333333333333</ele><time>2026-04-26T07:25:51.232Z</time></trkpt><trkpt lat="44.4774188" lon="10.7855536"><ele>373.0</ele><time>2026-04-26T07:25:52.236Z</time></trkpt><trkpt lat="44.4774307" lon="10.785461"><ele>373.0</ele><time>2026-04-26T07:25:53.231Z</time></trkpt><trkpt lat="44.4774749" lon="10.7853835"><ele>373.0</ele><time>2026-04-26T07:25:54.24Z</time></trkpt><trkpt lat="44.477537" lon="10.7853246"><ele>373.0</ele><time>2026-04-26T07:25:55.233Z</time></trkpt><trkpt lat="44.4776087" lon="10.7852674"><ele>373.0</ele><time>2026-04-26T07:25:56.235Z</time></trkpt><trkpt lat="44.4777109" lon="10.7852347"><ele>373.0</ele><time>2026-04-26T07:25:57.234Z</time></trkpt><trkpt lat="44.4778265" lon="10.7852035"><ele>374.4</ele><time>2026-04-26T07:25:58.235Z</time></trkpt><trkpt lat="44.4779338" lon="10.7851748"><ele>375.79999999999995</ele><time>2026-04-26T07:25:59.231Z</time></trkpt><trkpt lat="44.478021" lon="10.7851605"><ele>377.2</ele><time>2026-04-26T07:26:00.227Z</time></trkpt><trkpt lat="44.4781165" lon="10.7851658"><ele>378.6</ele><time>2026-04-26T07:26:02.233Z</time></trkpt><trkpt lat="44.478179" lon="10.785126"><ele>380.0</ele><time>2026-04-26T07:26:05.246Z</time></trkpt><trkpt lat="44.4781713" lon="10.7849863"><ele>380.0</ele><time>2026-04-26T07:26:32.25Z</time></trkpt><trkpt lat="44.4780856" lon="10.7848864"><ele>380.0</ele><time>2026-04-26T07:26:34.235Z</time></trkpt><trkpt lat="44.4780249" lon="10.7848403"><ele>380.0</ele><time>2026-04-26T07:26:35.241Z</time></trkpt><trkpt lat="44.4779525" lon="10.7847925"><ele>380.0</ele><time>2026-04-26T07:26:36.236Z</time></trkpt><trkpt lat="44.4778651" lon="10.7847407"><ele>380.0</ele><time>2026-04-26T07:26:37.231Z</time></trkpt><trkpt lat="44.4777665" lon="10.7846904"><ele>382.4</ele><time>2026-04-26T07:26:38.24Z</time></trkpt><trkpt lat="44.477658" lon="10.784645"><ele>384.8</ele><time>2026-04-26T07:26:39.236Z</time></trkpt><trkpt lat="44.4775476" lon="10.784606"><ele>387.20000000000005</ele><time>2026-04-26T07:26:40.247Z</time></trkpt><trkpt lat="44.4774444" lon="10.7845613"><ele>389.6</ele><time>2026-04-26T07:26:41.23Z</time></trkpt><trkpt lat="44.4773453" lon="10.7845008"><ele>392.0</ele><time>2026-04-26T07:26:42.244Z</time></trkpt><trkpt lat="44.4772578" lon="10.784429"><ele>391.99999999999994</ele><time>2026-04-26T07:26:43.241Z</time></trkpt><trkpt lat="44.4771762" lon="10.7843745"><ele>392.0</ele><time>2026-04-26T07:26:44.241Z</time></trkpt><trkpt lat="44.477098" lon="10.7843302"><ele>392.0</ele><time>2026-04-26T07:26:45.241Z</time></trkpt><trkpt lat="44.4770133" lon="10.7843199"><ele>392.0</ele><time>2026-04-26T07:26:46.237Z</time></trkpt><trkpt lat="44.4769219" lon="10.7843193"><ele>391.99999999999994</ele><time>2026-04-26T07:26:47.232Z</time></trkpt><trkpt lat="44.476842" lon="10.7843082"><ele>392.0</ele><time>2026-04-26T07:26:48.231Z</time></trkpt><trkpt lat="44.4767746" lon="10.7842928"><ele>395.16666666666663</ele><time>2026-04-26T07:26:49.234Z</time></trkpt><trkpt lat="44.4766896" lon="10.7841717"><ele>398.3333333333333</ele><time>2026-04-26T07:26:51.237Z</time></trkpt><trkpt lat="44.476657" lon="10.784084"><ele>401.5</ele><time>2026-04-26T07:26:52.231Z</time></trkpt><trkpt lat="44.4766207" lon="10.7839954"><ele>404.66666666666663</ele><time>2026-04-26T07:26:53.231Z</time></trkpt><trkpt lat="44.4765685" lon="10.7839255"><ele>407.8333333333333</ele><time>2026-04-26T07:26:54.237Z</time></trkpt><trkpt lat="44.4764982" lon="10.7838852"><ele>411.0</ele><time>2026-04-26T07:26:55.233Z</time></trkpt><trkpt lat="44.4764154" lon="10.7838636"><ele>411.0</ele><time>2026-04-26T07:26:56.23Z</time></trkpt><trkpt lat="44.4763168" lon="10.783864"><ele>411.0</ele><time>2026-04-26T07:26:57.235Z</time></trkpt><trkpt lat="44.4762101" lon="10.7838708"><ele>411.0</ele><time>2026-04-26T07:26:58.231Z</time></trkpt><trkpt lat="44.4761052" lon="10.7839063"><ele>411.0</ele><time>2026-04-26T07:26:59.242Z</time></trkpt><trkpt lat="44.476013" lon="10.7839359"><ele>411.0</ele><time>2026-04-26T07:27:00.235Z</time></trkpt><trkpt lat="44.4759245" lon="10.783921"><ele>413.20000000000005</ele><time>2026-04-26T07:27:01.242Z</time></trkpt><trkpt lat="44.4758348" lon="10.7838662"><ele>415.40000000000003</ele><time>2026-04-26T07:27:02.232Z</time></trkpt><trkpt lat="44.4757348" lon="10.7837986"><ele>417.6</ele><time>2026-04-26T07:27:03.239Z</time></trkpt><trkpt lat="44.4756486" lon="10.7837311"><ele>419.8</ele><time>2026-04-26T07:27:04.235Z</time></trkpt><trkpt lat="44.4755851" lon="10.7836475"><ele>422.0</ele><time>2026-04-26T07:27:05.237Z</time></trkpt><trkpt lat="44.475534" lon="10.7835401"><ele>423.6</ele><time>2026-04-26T07:27:06.24Z</time></trkpt><trkpt lat="44.4754846" lon="10.7834248"><ele>425.20000000000005</ele><time>2026-04-26T07:27:07.24Z</time></trkpt><trkpt lat="44.4754246" lon="10.7833188"><ele>426.8</ele><time>2026-04-26T07:27:08.242Z</time></trkpt><trkpt lat="44.4753529" lon="10.7832202"><ele>428.4</ele><time>2026-04-26T07:27:09.235Z</time></trkpt><trkpt lat="44.4752874" lon="10.78312"><ele>430.0</ele><time>2026-04-26T07:27:10.242Z</time></trkpt><trkpt lat="44.4752394" lon="10.7830017"><ele>431.8</ele><time>2026-04-26T07:27:11.244Z</time></trkpt><trkpt lat="44.4752124" lon="10.7828627"><ele>433.6</ele><time>2026-04-26T07:27:12.238Z</time></trkpt><trkpt lat="44.4751923" lon="10.7827133"><ele>435.4</ele><time>2026-04-26T07:27:13.23Z</time></trkpt><trkpt lat="44.47517" lon="10.7825624"><ele>437.2</ele><time>2026-04-26T07:27:14.242Z</time></trkpt><trkpt lat="44.475142" lon="10.7824263"><ele>439.0</ele><time>2026-04-26T07:27:15.234Z</time></trkpt><trkpt lat="44.4751115" lon="10.7823004"><ele>440.1666666666667</ele><time>2026-04-26T07:27:16.234Z</time></trkpt><trkpt lat="44.475093" lon="10.782188"><ele>441.33333333333337</ele><time>2026-04-26T07:27:17.233Z</time></trkpt><trkpt lat="44.4750933" lon="10.7820809"><ele>442.5</ele><time>2026-04-26T07:27:18.242Z</time></trkpt><trkpt lat="44.4751117" lon="10.7819775"><ele>443.66666666666663</ele><time>2026-04-26T07:27:19.232Z</time></trkpt><trkpt lat="44.4751454" lon="10.7818639"><ele>444.8333333333333</ele><time>2026-04-26T07:27:20.235Z</time></trkpt><trkpt lat="44.4751887" lon="10.7817287"><ele>446.0</ele><time>2026-04-26T07:27:21.239Z</time></trkpt><trkpt lat="44.4752399" lon="10.7815741"><ele>448.0</ele><time>2026-04-26T07:27:22.24Z</time></trkpt><trkpt lat="44.4752893" lon="10.7814133"><ele>450.0</ele><time>2026-04-26T07:27:23.232Z</time></trkpt><trkpt lat="44.4753351" lon="10.7812625"><ele>452.0</ele><time>2026-04-26T07:27:24.241Z</time></trkpt><trkpt lat="44.4753657" lon="10.7811328"><ele>454.0</ele><time>2026-04-26T07:27:25.232Z</time></trkpt><trkpt lat="44.4753803" lon="10.7810142"><ele>456.0</ele><time>2026-04-26T07:27:26.236Z</time></trkpt><trkpt lat="44.4753897" lon="10.780896"><ele>457.5</ele><time>2026-04-26T07:27:27.239Z</time></trkpt><trkpt lat="44.4753846" lon="10.7807689"><ele>459.0</ele><time>2026-04-26T07:27:28.242Z</time></trkpt><trkpt lat="44.4753765" lon="10.7806482"><ele>460.5</ele><time>2026-04-26T07:27:29.237Z</time></trkpt><trkpt lat="44.4753501" lon="10.7805386"><ele>462.0</ele><time>2026-04-26T07:27:30.24Z</time></trkpt><trkpt lat="44.4753092" lon="10.7804226"><ele>463.5</ele><time>2026-04-26T07:27:31.24Z</time></trkpt><trkpt lat="44.4752723" lon="10.780302"><ele>465.0</ele><time>2026-04-26T07:27:32.232Z</time></trkpt><trkpt lat="44.4752515" lon="10.7801805"><ele>465.8333333333333</ele><time>2026-04-26T07:27:33.239Z</time></trkpt><trkpt lat="44.4752405" lon="10.7800593"><ele>466.66666666666663</ele><time>2026-04-26T07:27:34.236Z</time></trkpt><trkpt lat="44.4752515" lon="10.7799417"><ele>467.5</ele><time>2026-04-26T07:27:35.237Z</time></trkpt><trkpt lat="44.4752813" lon="10.7798334"><ele>468.3333333333333</ele><time>2026-04-26T07:27:36.235Z</time></trkpt><trkpt lat="44.4753339" lon="10.7797383"><ele>469.16666666666663</ele><time>2026-04-26T07:27:37.255Z</time></trkpt><trkpt lat="44.4754104" lon="10.7796523"><ele>470.0</ele><time>2026-04-26T07:27:38.235Z</time></trkpt><trkpt lat="44.4755051" lon="10.7795708"><ele>471.25</ele><time>2026-04-26T07:27:39.233Z</time></trkpt><trkpt lat="44.4756128" lon="10.7794952"><ele>472.5</ele><time>2026-04-26T07:27:40.239Z</time></trkpt><trkpt lat="44.47572" lon="10.77942"><ele>473.75</ele><time>2026-04-26T07:27:41.244Z</time></trkpt><trkpt lat="44.4758193" lon="10.7793447"><ele>475.0</ele><time>2026-04-26T07:27:42.24Z</time></trkpt><trkpt lat="44.4759065" lon="10.7792582"><ele>475.0</ele><time>2026-04-26T07:27:43.247Z</time></trkpt><trkpt lat="44.4759925" lon="10.7791663"><ele>475.0</ele><time>2026-04-26T07:27:44.233Z</time></trkpt><trkpt lat="44.4760723" lon="10.7790561"><ele>475.0</ele><time>2026-04-26T07:27:45.232Z</time></trkpt><trkpt lat="44.4761489" lon="10.7789366"><ele>475.0</ele><time>2026-04-26T07:27:46.232Z</time></trkpt><trkpt lat="44.4762159" lon="10.7788376"><ele>475.0</ele><time>2026-04-26T07:27:47.235Z</time></trkpt><trkpt lat="44.4762719" lon="10.7787492"><ele>476.6666666666667</ele><time>2026-04-26T07:27:48.234Z</time></trkpt><trkpt lat="44.4763058" lon="10.7786719"><ele>478.33333333333337</ele><time>2026-04-26T07:27:49.233Z</time></trkpt><trkpt lat="44.4763098" lon="10.7785313"><ele>480.0</ele><time>2026-04-26T07:27:51.236Z</time></trkpt><trkpt lat="44.4762306" lon="10.7784492"><ele>481.66666666666663</ele><time>2026-04-26T07:27:53.232Z</time></trkpt><trkpt lat="44.476162" lon="10.7784337"><ele>483.3333333333333</ele><time>2026-04-26T07:27:54.235Z</time></trkpt><trkpt lat="44.4760822" lon="10.7784123"><ele>485.0</ele><time>2026-04-26T07:27:55.228Z</time></trkpt><trkpt lat="44.4759889" lon="10.7784026"><ele>484.99999999999994</ele><time>2026-04-26T07:27:56.234Z</time></trkpt><trkpt lat="44.4759056" lon="10.778397"><ele>485.0</ele><time>2026-04-26T07:27:57.232Z</time></trkpt><trkpt lat="44.4758417" lon="10.7783838"><ele>485.0</ele><time>2026-04-26T07:27:58.234Z</time></trkpt><trkpt lat="44.4757697" lon="10.7782977"><ele>485.0</ele><time>2026-04-26T07:28:00.234Z</time></trkpt><trkpt lat="44.4757428" lon="10.778183"><ele>484.99999999999994</ele><time>2026-04-26T07:28:02.242Z</time></trkpt><trkpt lat="44.4758103" lon="10.7781085"><ele>485.0</ele><time>2026-04-26T07:28:04.241Z</time></trkpt><trkpt lat="44.475875" lon="10.7780629"><ele>484.99999999999994</ele><time>2026-04-26T07:28:05.239Z</time></trkpt><trkpt lat="44.4759319" lon="10.7779943"><ele>485.0</ele><time>2026-04-26T07:28:06.24Z</time></trkpt><trkpt lat="44.4759719" lon="10.7779221"><ele>485.0</ele><time>2026-04-26T07:28:07.235Z</time></trkpt><trkpt lat="44.475988" lon="10.7777607"><ele>485.0</ele><time>2026-04-26T07:28:09.237Z</time></trkpt><trkpt lat="44.4759707" lon="10.777665"><ele>484.99999999999994</ele><time>2026-04-26T07:28:10.236Z</time></trkpt><trkpt lat="44.4759391" lon="10.777566"><ele>485.0</ele><time>2026-04-26T07:28:11.233Z</time></trkpt><trkpt lat="44.4759032" lon="10.7774678"><ele>486.49999999999994</ele><time>2026-04-26T07:28:12.233Z</time></trkpt><trkpt lat="44.4758685" lon="10.7773802"><ele>488.0</ele><time>2026-04-26T07:28:13.239Z</time></trkpt><trkpt lat="44.4758019" lon="10.7772393"><ele>489.5</ele><time>2026-04-26T07:28:15.237Z</time></trkpt><trkpt lat="44.4757611" lon="10.7771433"><ele>491.0</ele><time>2026-04-26T07:28:17.235Z</time></trkpt><trkpt lat="44.4757761" lon="10.7770523"><ele>492.49999999999994</ele><time>2026-04-26T07:28:50.233Z</time></trkpt><trkpt lat="44.4758507" lon="10.776942"><ele>494.0</ele><time>2026-04-26T07:28:52.236Z</time></trkpt><trkpt lat="44.4759214" lon="10.7768629"><ele>494.6</ele><time>2026-04-26T07:28:53.236Z</time></trkpt><trkpt lat="44.4759926" lon="10.776783"><ele>495.2</ele><time>2026-04-26T07:28:54.231Z</time></trkpt><trkpt lat="44.4760706" lon="10.7766837"><ele>495.80000000000007</ele><time>2026-04-26T07:28:55.239Z</time></trkpt><trkpt lat="44.4761467" lon="10.7765749"><ele>496.40000000000003</ele><time>2026-04-26T07:28:56.235Z</time></trkpt><trkpt lat="44.4762232" lon="10.7764532"><ele>497.0</ele><time>2026-04-26T07:28:57.233Z</time></trkpt><trkpt lat="44.4762928" lon="10.7763381"><ele>496.99999999999994</ele><time>2026-04-26T07:28:58.237Z</time></trkpt><trkpt lat="44.4763554" lon="10.7762321"><ele>497.0</ele><time>2026-04-26T07:28:59.232Z</time></trkpt><trkpt lat="44.4764125" lon="10.7761361"><ele>497.0</ele><time>2026-04-26T07:29:00.253Z</time></trkpt><trkpt lat="44.4764604" lon="10.7760519"><ele>497.0</ele><time>2026-04-26T07:29:01.237Z</time></trkpt><trkpt lat="44.4765049" lon="10.7759675"><ele>496.99999999999994</ele><time>2026-04-26T07:29:02.244Z</time></trkpt><trkpt lat="44.4765427" lon="10.7758862"><ele>497.0</ele><time>2026-04-26T07:29:03.237Z</time></trkpt><trkpt lat="44.4765786" lon="10.7757549"><ele>498.0</ele><time>2026-04-26T07:29:05.24Z</time></trkpt><trkpt lat="44.4765576" lon="10.7756353"><ele>499.00000000000006</ele><time>2026-04-26T07:29:07.236Z</time></trkpt><trkpt lat="44.476501" lon="10.7755544"><ele>500.00000000000006</ele><time>2026-04-26T07:29:08.245Z</time></trkpt><trkpt lat="44.4764178" lon="10.7754413"><ele>501.0</ele><time>2026-04-26T07:29:09.232Z</time></trkpt><trkpt lat="44.4763101" lon="10.7752965"><ele>502.0</ele><time>2026-04-26T07:29:10.23Z</time></trkpt><trkpt lat="44.4761946" lon="10.775133"><ele>503.5</ele><time>2026-04-26T07:29:11.244Z</time></trkpt><trkpt lat="44.4761042" lon="10.7749705"><ele>505.0</ele><time>2026-04-26T07:29:12.244Z</time></trkpt><trkpt lat="44.4760177" lon="10.7748319"><ele>506.5</ele><time>2026-04-26T07:29:13.245Z</time></trkpt><trkpt lat="44.4759376" lon="10.7747039"><ele>508.0</ele><time>2026-04-26T07:29:14.234Z</time></trkpt><trkpt lat="44.4758351" lon="10.774642"><ele>508.0</ele><time>2026-04-26T07:29:15.234Z</time></trkpt><trkpt lat="44.475706" lon="10.7746222"><ele>508.0</ele><time>2026-04-26T07:29:16.23Z</time></trkpt><trkpt lat="44.4755655" lon="10.774601"><ele>508.0</ele><time>2026-04-26T07:29:17.239Z</time></trkpt><trkpt lat="44.4754001" lon="10.7746128"><ele>508.0</ele><time>2026-04-26T07:29:18.231Z</time></trkpt><trkpt lat="44.4752387" lon="10.774617"><ele>504.0</ele><time>2026-04-26T07:29:19.232Z</time></trkpt><trkpt lat="44.4750926" lon="10.7746164"><ele>500.0</ele><time>2026-04-26T07:29:20.237Z</time></trkpt><trkpt lat="44.4749565" lon="10.7746221"><ele>496.0</ele><time>2026-04-26T07:29:21.233Z</time></trkpt><trkpt lat="44.4748443" lon="10.7746038"><ele>492.0</ele><time>2026-04-26T07:29:22.231Z</time></trkpt><trkpt lat="44.4747821" lon="10.7745101"><ele>492.0</ele><time>2026-04-26T07:29:23.235Z</time></trkpt><trkpt lat="44.4747405" lon="10.7744042"><ele>492.00000000000006</ele><time>2026-04-26T07:29:24.231Z</time></trkpt><trkpt lat="44.4747513" lon="10.7742977"><ele>492.00000000000006</ele><time>2026-04-26T07:29:25.233Z</time></trkpt><trkpt lat="44.4748174" lon="10.7741348"><ele>492.0</ele><time>2026-04-26T07:29:26.237Z</time></trkpt><trkpt lat="44.4749383" lon="10.7740081"><ele>492.0</ele><time>2026-04-26T07:29:27.238Z</time></trkpt><trkpt lat="44.4750762" lon="10.7738721"><ele>496.33333333333337</ele><time>2026-04-26T07:29:28.231Z</time></trkpt><trkpt lat="44.4752259" lon="10.7737331"><ele>500.6666666666667</ele><time>2026-04-26T07:29:29.23Z</time></trkpt><trkpt lat="44.4753428" lon="10.7735785"><ele>505.0</ele><time>2026-04-26T07:29:30.233Z</time></trkpt><trkpt lat="44.4754397" lon="10.7734431"><ele>505.0</ele><time>2026-04-26T07:29:31.235Z</time></trkpt><trkpt lat="44.4755007" lon="10.7733063"><ele>505.0</ele><time>2026-04-26T07:29:32.229Z</time></trkpt><trkpt lat="44.4755377" lon="10.7731552"><ele>505.0</ele><time>2026-04-26T07:29:33.233Z</time></trkpt><trkpt lat="44.4755198" lon="10.7729834"><ele>505.0</ele><time>2026-04-26T07:29:34.232Z</time></trkpt><trkpt lat="44.4754483" lon="10.7728027"><ele>498.6666666666667</ele><time>2026-04-26T07:29:35.235Z</time></trkpt><trkpt lat="44.4753372" lon="10.7726364"><ele>492.33333333333337</ele><time>2026-04-26T07:29:36.232Z</time></trkpt><trkpt lat="44.4752005" lon="10.7724648"><ele>486.0</ele><time>2026-04-26T07:29:37.232Z</time></trkpt><trkpt lat="44.4750566" lon="10.7722677"><ele>486.0</ele><time>2026-04-26T07:29:38.23Z</time></trkpt><trkpt lat="44.4749233" lon="10.7720892"><ele>486.0</ele><time>2026-04-26T07:29:39.247Z</time></trkpt><trkpt lat="44.4748034" lon="10.771936"><ele>486.0</ele><time>2026-04-26T07:29:40.238Z</time></trkpt><trkpt lat="44.4746928" lon="10.7717893"><ele>483.75</ele><time>2026-04-26T07:29:41.24Z</time></trkpt><trkpt lat="44.4745917" lon="10.7716572"><ele>481.5</ele><time>2026-04-26T07:29:42.238Z</time></trkpt><trkpt lat="44.4744977" lon="10.7715316"><ele>479.25</ele><time>2026-04-26T07:29:43.239Z</time></trkpt><trkpt lat="44.4744129" lon="10.7714075"><ele>477.0</ele><time>2026-04-26T07:29:44.24Z</time></trkpt><trkpt lat="44.4743351" lon="10.7712847"><ele>477.0</ele><time>2026-04-26T07:29:45.235Z</time></trkpt><trkpt lat="44.4742633" lon="10.7711569"><ele>477.00000000000006</ele><time>2026-04-26T07:29:46.246Z</time></trkpt><trkpt lat="44.4741933" lon="10.7710251"><ele>477.00000000000006</ele><time>2026-04-26T07:29:47.232Z</time></trkpt><trkpt lat="44.4741244" lon="10.7709023"><ele>477.0</ele><time>2026-04-26T07:29:48.241Z</time></trkpt><trkpt lat="44.4740782" lon="10.770789"><ele>477.0</ele><time>2026-04-26T07:29:49.233Z</time></trkpt><trkpt lat="44.4740377" lon="10.7706878"><ele>478.75</ele><time>2026-04-26T07:29:50.235Z</time></trkpt><trkpt lat="44.4740317" lon="10.7705514"><ele>480.5</ele><time>2026-04-26T07:29:51.232Z</time></trkpt><trkpt lat="44.4740579" lon="10.7703767"><ele>482.25</ele><time>2026-04-26T07:29:52.23Z</time></trkpt><trkpt lat="44.4740913" lon="10.7701806"><ele>484.0</ele><time>2026-04-26T07:29:53.228Z</time></trkpt><trkpt lat="44.4741366" lon="10.769964"><ele>484.0</ele><time>2026-04-26T07:29:54.229Z</time></trkpt><trkpt lat="44.4741916" lon="10.7697374"><ele>484.0</ele><time>2026-04-26T07:29:55.233Z</time></trkpt><trkpt lat="44.474238" lon="10.7695257"><ele>484.0</ele><time>2026-04-26T07:29:56.23Z</time></trkpt><trkpt lat="44.4742689" lon="10.7693248"><ele>482.5</ele><time>2026-04-26T07:29:57.225Z</time></trkpt><trkpt lat="44.4742722" lon="10.7691296"><ele>481.0</ele><time>2026-04-26T07:29:58.231Z</time></trkpt><trkpt lat="44.4742473" lon="10.7689409"><ele>479.5</ele><time>2026-04-26T07:29:59.232Z</time></trkpt><trkpt lat="44.4742166" lon="10.7687516"><ele>478.0</ele><time>2026-04-26T07:30:00.237Z</time></trkpt><trkpt lat="44.4741239" lon="10.7685878"><ele>477.33333333333337</ele><time>2026-04-26T07:30:01.232Z</time></trkpt><trkpt lat="44.4740136" lon="10.7684564"><ele>476.66666666666663</ele><time>2026-04-26T07:30:02.23Z</time></trkpt><trkpt lat="44.4738766" lon="10.7683453"><ele>476.0</ele><time>2026-04-26T07:30:03.23Z</time></trkpt><trkpt lat="44.47372" lon="10.7681972"><ele>473.0</ele><time>2026-04-26T07:30:04.228Z</time></trkpt><trkpt lat="44.4735719" lon="10.7680333"><ele>470.0</ele><time>2026-04-26T07:30:05.23Z</time></trkpt><trkpt lat="44.4734387" lon="10.7678693"><ele>467.0</ele><time>2026-04-26T07:30:06.234Z</time></trkpt><trkpt lat="44.4733095" lon="10.7677173"><ele>471.0</ele><time>2026-04-26T07:30:07.236Z</time></trkpt><trkpt lat="44.4731894" lon="10.7675695"><ele>475.0</ele><time>2026-04-26T07:30:08.239Z</time></trkpt><trkpt lat="44.4730708" lon="10.7674337"><ele>479.0</ele><time>2026-04-26T07:30:09.231Z</time></trkpt><trkpt lat="44.472948" lon="10.7673138"><ele>473.75</ele><time>2026-04-26T07:30:10.229Z</time></trkpt><trkpt lat="44.4728172" lon="10.7672417"><ele>468.5</ele><time>2026-04-26T07:30:11.238Z</time></trkpt><trkpt lat="44.4726692" lon="10.7672126"><ele>463.25</ele><time>2026-04-26T07:30:12.231Z</time></trkpt><trkpt lat="44.4725225" lon="10.767202"><ele>458.0</ele><time>2026-04-26T07:30:13.228Z</time></trkpt><trkpt lat="44.4723955" lon="10.7671774"><ele>458.0</ele><time>2026-04-26T07:30:14.231Z</time></trkpt><trkpt lat="44.4722936" lon="10.7671216"><ele>458.0</ele><time>2026-04-26T07:30:15.229Z</time></trkpt><trkpt lat="44.4721935" lon="10.7670522"><ele>458.0</ele><time>2026-04-26T07:30:16.24Z</time></trkpt><trkpt lat="44.4721138" lon="10.7668841"><ele>458.0</ele><time>2026-04-26T07:30:17.228Z</time></trkpt><trkpt lat="44.4720523" lon="10.7666985"><ele>456.66666666666663</ele><time>2026-04-26T07:30:18.231Z</time></trkpt><trkpt lat="44.471979" lon="10.7664849"><ele>455.33333333333337</ele><time>2026-04-26T07:30:19.229Z</time></trkpt><trkpt lat="44.471904" lon="10.7662648"><ele>454.0</ele><time>2026-04-26T07:30:20.243Z</time></trkpt><trkpt lat="44.4718304" lon="10.7660766"><ele>455.5</ele><time>2026-04-26T07:30:21.235Z</time></trkpt><trkpt lat="44.4717514" lon="10.7659138"><ele>457.0</ele><time>2026-04-26T07:30:22.246Z</time></trkpt><trkpt lat="44.4716452" lon="10.7657548"><ele>458.5</ele><time>2026-04-26T07:30:23.231Z</time></trkpt><trkpt lat="44.4715269" lon="10.7656201"><ele>460.0</ele><time>2026-04-26T07:30:24.238Z</time></trkpt><trkpt lat="44.4714041" lon="10.7655067"><ele>460.0</ele><time>2026-04-26T07:30:25.227Z</time></trkpt><trkpt lat="44.4712791" lon="10.7654098"><ele>460.0</ele><time>2026-04-26T07:30:26.231Z</time></trkpt><trkpt lat="44.4711585" lon="10.7653182"><ele>460.0</ele><time>2026-04-26T07:30:27.234Z</time></trkpt><trkpt lat="44.471037" lon="10.7652143"><ele>460.0</ele><time>2026-04-26T07:30:28.234Z</time></trkpt><trkpt lat="44.4709138" lon="10.7651069"><ele>457.6666666666667</ele><time>2026-04-26T07:30:29.234Z</time></trkpt><trkpt lat="44.4707884" lon="10.7649961"><ele>455.33333333333337</ele><time>2026-04-26T07:30:30.229Z</time></trkpt><trkpt lat="44.4706599" lon="10.764882"><ele>453.0</ele><time>2026-04-26T07:30:31.237Z</time></trkpt><trkpt lat="44.4705262" lon="10.7647602"><ele>446.0</ele><time>2026-04-26T07:30:32.229Z</time></trkpt><trkpt lat="44.4703905" lon="10.7646407"><ele>439.0</ele><time>2026-04-26T07:30:33.227Z</time></trkpt><trkpt lat="44.4702523" lon="10.7645229"><ele>432.0</ele><time>2026-04-26T07:30:34.235Z</time></trkpt><trkpt lat="44.4701077" lon="10.764407"><ele>435.33333333333337</ele><time>2026-04-26T07:30:35.232Z</time></trkpt><trkpt lat="44.4699592" lon="10.7642979"><ele>438.6666666666667</ele><time>2026-04-26T07:30:36.23Z</time></trkpt><trkpt lat="44.4698129" lon="10.7642063"><ele>442.0</ele><time>2026-04-26T07:30:37.231Z</time></trkpt><trkpt lat="44.4696662" lon="10.7641395"><ele>440.6666666666667</ele><time>2026-04-26T07:30:38.233Z</time></trkpt><trkpt lat="44.4695143" lon="10.764093"><ele>439.33333333333337</ele><time>2026-04-26T07:30:39.238Z</time></trkpt><trkpt lat="44.4693559" lon="10.764073"><ele>438.0</ele><time>2026-04-26T07:30:40.234Z</time></trkpt><trkpt lat="44.4691903" lon="10.7640802"><ele>438.0</ele><time>2026-04-26T07:30:41.228Z</time></trkpt><trkpt lat="44.4690187" lon="10.7640869"><ele>438.0</ele><time>2026-04-26T07:30:42.231Z</time></trkpt><trkpt lat="44.4688476" lon="10.7640808"><ele>438.0</ele><time>2026-04-26T07:30:43.236Z</time></trkpt><trkpt lat="44.4686829" lon="10.7640662"><ele>436.66666666666663</ele><time>2026-04-26T07:30:44.228Z</time></trkpt><trkpt lat="44.4685283" lon="10.7640363"><ele>435.3333333333333</ele><time>2026-04-26T07:30:45.231Z</time></trkpt><trkpt lat="44.468374" lon="10.7640243"><ele>434.0</ele><time>2026-04-26T07:30:46.238Z</time></trkpt><trkpt lat="44.4682097" lon="10.7640312"><ele>434.0</ele><time>2026-04-26T07:30:47.231Z</time></trkpt><trkpt lat="44.4680501" lon="10.7640401"><ele>434.0</ele><time>2026-04-26T07:30:48.232Z</time></trkpt><trkpt lat="44.4678976" lon="10.7640377"><ele>434.0</ele><time>2026-04-26T07:30:49.238Z</time></trkpt><trkpt lat="44.4677474" lon="10.7640088"><ele>435.5</ele><time>2026-04-26T07:30:50.236Z</time></trkpt><trkpt lat="44.4676034" lon="10.7639537"><ele>437.0</ele><time>2026-04-26T07:30:51.238Z</time></trkpt><trkpt lat="44.4674591" lon="10.7638809"><ele>438.5</ele><time>2026-04-26T07:30:52.235Z</time></trkpt><trkpt lat="44.4673272" lon="10.7638098"><ele>440.0</ele><time>2026-04-26T07:30:53.235Z</time></trkpt><trkpt lat="44.4672097" lon="10.7637514"><ele>443.4</ele><time>2026-04-26T07:30:54.232Z</time></trkpt><trkpt lat="44.4671054" lon="10.763715"><ele>446.8</ele><time>2026-04-26T07:30:55.249Z</time></trkpt><trkpt lat="44.467007" lon="10.7637327"><ele>450.20000000000005</ele><time>2026-04-26T07:30:56.233Z</time></trkpt><trkpt lat="44.4669244" lon="10.7637922"><ele>453.6</ele><time>2026-04-26T07:30:57.233Z</time></trkpt><trkpt lat="44.4668635" lon="10.7638954"><ele>457.0</ele><time>2026-04-26T07:30:58.232Z</time></trkpt><trkpt lat="44.466813" lon="10.7640219"><ele>457.0</ele><time>2026-04-26T07:30:59.235Z</time></trkpt><trkpt lat="44.466765" lon="10.764157"><ele>457.0</ele><time>2026-04-26T07:31:00.238Z</time></trkpt><trkpt lat="44.4667118" lon="10.764301"><ele>457.0</ele><time>2026-04-26T07:31:01.239Z</time></trkpt><trkpt lat="44.4666468" lon="10.7644424"><ele>457.0</ele><time>2026-04-26T07:31:02.232Z</time></trkpt><trkpt lat="44.4665744" lon="10.7645828"><ele>456.25</ele><time>2026-04-26T07:31:03.235Z</time></trkpt><trkpt lat="44.4664939" lon="10.7647246"><ele>455.5</ele><time>2026-04-26T07:31:04.23Z</time></trkpt><trkpt lat="44.4664058" lon="10.7648596"><ele>454.75</ele><time>2026-04-26T07:31:05.236Z</time></trkpt><trkpt lat="44.466318" lon="10.7649942"><ele>454.0</ele><time>2026-04-26T07:31:06.231Z</time></trkpt><trkpt lat="44.4662242" lon="10.7651233"><ele>458.25</ele><time>2026-04-26T07:31:07.246Z</time></trkpt><trkpt lat="44.4661185" lon="10.7652279"><ele>462.5</ele><time>2026-04-26T07:31:08.241Z</time></trkpt><trkpt lat="44.466029" lon="10.7653301"><ele>466.75</ele><time>2026-04-26T07:31:09.239Z</time></trkpt><trkpt lat="44.4659402" lon="10.7654283"><ele>471.0</ele><time>2026-04-26T07:31:10.23Z</time></trkpt><trkpt lat="44.4658578" lon="10.7655269"><ele>471.0</ele><time>2026-04-26T07:31:11.229Z</time></trkpt><trkpt lat="44.4657911" lon="10.7656265"><ele>471.0</ele><time>2026-04-26T07:31:12.237Z</time></trkpt><trkpt lat="44.4657387" lon="10.7657255"><ele>471.0</ele><time>2026-04-26T07:31:13.232Z</time></trkpt><trkpt lat="44.4657142" lon="10.7658446"><ele>471.0</ele><time>2026-04-26T07:31:14.231Z</time></trkpt><trkpt lat="44.4657259" lon="10.7659722"><ele>471.0</ele><time>2026-04-26T07:31:15.238Z</time></trkpt><trkpt lat="44.4657551" lon="10.7660964"><ele>472.5</ele><time>2026-04-26T07:31:16.238Z</time></trkpt><trkpt lat="44.4658426" lon="10.7661554"><ele>474.0</ele><time>2026-04-26T07:31:17.23Z</time></trkpt><trkpt lat="44.4659497" lon="10.7661815"><ele>475.5</ele><time>2026-04-26T07:31:18.233Z</time></trkpt><trkpt lat="44.4660685" lon="10.7661769"><ele>477.0</ele><time>2026-04-26T07:31:19.24Z</time></trkpt><trkpt lat="44.4661981" lon="10.7661656"><ele>475.75</ele><time>2026-04-26T07:31:20.232Z</time></trkpt><trkpt lat="44.4663369" lon="10.7661431"><ele>474.5</ele><time>2026-04-26T07:31:21.234Z</time></trkpt><trkpt lat="44.4664772" lon="10.7661131"><ele>473.25</ele><time>2026-04-26T07:31:22.233Z</time></trkpt><trkpt lat="44.4666068" lon="10.7660905"><ele>472.0</ele><time>2026-04-26T07:31:23.24Z</time></trkpt><trkpt lat="44.4667166" lon="10.7661069"><ele>472.0</ele><time>2026-04-26T07:31:24.239Z</time></trkpt><trkpt lat="44.4668299" lon="10.7661332"><ele>472.0</ele><time>2026-04-26T07:31:25.235Z</time></trkpt><trkpt lat="44.4669099" lon="10.7662443"><ele>472.0</ele><time>2026-04-26T07:31:26.236Z</time></trkpt><trkpt lat="44.4669759" lon="10.7664067"><ele>472.0</ele><time>2026-04-26T07:31:27.241Z</time></trkpt><trkpt lat="44.4670236" lon="10.7665774"><ele>472.0</ele><time>2026-04-26T07:31:28.229Z</time></trkpt><trkpt lat="44.4670431" lon="10.7667739"><ele>472.0</ele><time>2026-04-26T07:31:29.235Z</time></trkpt><trkpt lat="44.46705" lon="10.7669838"><ele>472.0</ele><time>2026-04-26T07:31:30.235Z</time></trkpt><trkpt lat="44.4670665" lon="10.7672092"><ele>471.6666666666667</ele><time>2026-04-26T07:31:31.232Z</time></trkpt><trkpt lat="44.4671115" lon="10.7674451"><ele>471.33333333333337</ele><time>2026-04-26T07:31:32.232Z</time></trkpt><trkpt lat="44.4671751" lon="10.7676702"><ele>471.0</ele><time>2026-04-26T07:31:33.233Z</time></trkpt><trkpt lat="44.4672361" lon="10.7678687"><ele>471.0</ele><time>2026-04-26T07:31:34.229Z</time></trkpt><trkpt lat="44.4672837" lon="10.7680461"><ele>471.0</ele><time>2026-04-26T07:31:35.231Z</time></trkpt><trkpt lat="44.4673279" lon="10.7682237"><ele>471.0</ele><time>2026-04-26T07:31:36.235Z</time></trkpt><trkpt lat="44.467328" lon="10.7683828"><ele>471.0</ele><time>2026-04-26T07:31:37.238Z</time></trkpt><trkpt lat="44.4672883" lon="10.7685118"><ele>471.20000000000005</ele><time>2026-04-26T07:31:38.232Z</time></trkpt><trkpt lat="44.4672235" lon="10.7685699"><ele>471.40000000000003</ele><time>2026-04-26T07:31:39.232Z</time></trkpt><trkpt lat="44.4671439" lon="10.7685703"><ele>471.6</ele><time>2026-04-26T07:31:40.237Z</time></trkpt><trkpt lat="44.4670584" lon="10.768525"><ele>471.8</ele><time>2026-04-26T07:31:41.236Z</time></trkpt><trkpt lat="44.4669611" lon="10.7684297"><ele>472.0</ele><time>2026-04-26T07:31:42.238Z</time></trkpt><trkpt lat="44.4668591" lon="10.7683071"><ele>474.0</ele><time>2026-04-26T07:31:43.234Z</time></trkpt><trkpt lat="44.4667737" lon="10.7681576"><ele>476.0</ele><time>2026-04-26T07:31:44.232Z</time></trkpt><trkpt lat="44.4667095" lon="10.7679724"><ele>478.0</ele><time>2026-04-26T07:31:45.232Z</time></trkpt><trkpt lat="44.4666462" lon="10.7677836"><ele>480.0</ele><time>2026-04-26T07:31:46.238Z</time></trkpt><trkpt lat="44.4665779" lon="10.76763"><ele>480.0</ele><time>2026-04-26T07:31:47.241Z</time></trkpt><trkpt lat="44.4665052" lon="10.7675256"><ele>480.0</ele><time>2026-04-26T07:31:48.232Z</time></trkpt><trkpt lat="44.466416" lon="10.7674834"><ele>480.0</ele><time>2026-04-26T07:31:49.229Z</time></trkpt><trkpt lat="44.4663243" lon="10.7675097"><ele>480.0</ele><time>2026-04-26T07:31:50.235Z</time></trkpt><trkpt lat="44.4662471" lon="10.7676008"><ele>480.0</ele><time>2026-04-26T07:31:51.232Z</time></trkpt><trkpt lat="44.4661953" lon="10.7677445"><ele>484.0</ele><time>2026-04-26T07:31:52.227Z</time></trkpt><trkpt lat="44.4661573" lon="10.7679354"><ele>488.0</ele><time>2026-04-26T07:31:53.233Z</time></trkpt><trkpt lat="44.4661258" lon="10.7681493"><ele>492.0</ele><time>2026-04-26T07:31:54.235Z</time></trkpt><trkpt lat="44.4661167" lon="10.7683479"><ele>496.0</ele><time>2026-04-26T07:31:55.233Z</time></trkpt><trkpt lat="44.4661094" lon="10.7685509"><ele>497.6666666666667</ele><time>2026-04-26T07:31:56.232Z</time></trkpt><trkpt lat="44.4661891" lon="10.7687329"><ele>499.33333333333337</ele><time>2026-04-26T07:31:57.231Z</time></trkpt><trkpt lat="44.4662816" lon="10.7689041"><ele>501.0</ele><time>2026-04-26T07:31:58.245Z</time></trkpt><trkpt lat="44.4663916" lon="10.769072"><ele>498.5</ele><time>2026-04-26T07:31:59.231Z</time></trkpt><trkpt lat="44.4665043" lon="10.7692216"><ele>496.0</ele><time>2026-04-26T07:32:00.23Z</time></trkpt><trkpt lat="44.4666022" lon="10.7693469"><ele>493.5</ele><time>2026-04-26T07:32:01.235Z</time></trkpt><trkpt lat="44.4666668" lon="10.7694649"><ele>491.0</ele><time>2026-04-26T07:32:02.238Z</time></trkpt><trkpt lat="44.4666848" lon="10.7695849"><ele>491.0</ele><time>2026-04-26T07:32:03.232Z</time></trkpt><trkpt lat="44.4667015" lon="10.7697014"><ele>491.0</ele><time>2026-04-26T07:32:04.233Z</time></trkpt><trkpt lat="44.4666252" lon="10.7698132"><ele>491.0</ele><time>2026-04-26T07:32:05.24Z</time></trkpt><trkpt lat="44.4665394" lon="10.7699212"><ele>491.0</ele><time>2026-04-26T07:32:06.235Z</time></trkpt><trkpt lat="44.4664361" lon="10.7699859"><ele>491.0</ele><time>2026-04-26T07:32:07.239Z</time></trkpt><trkpt lat="44.4663391" lon="10.7700134"><ele>492.0</ele><time>2026-04-26T07:32:08.235Z</time></trkpt><trkpt lat="44.4662341" lon="10.7699318"><ele>493.0</ele><time>2026-04-26T07:32:09.237Z</time></trkpt><trkpt lat="44.4661198" lon="10.7698136"><ele>494.0</ele><time>2026-04-26T07:32:10.23Z</time></trkpt><trkpt lat="44.4660029" lon="10.7696538"><ele>495.0</ele><time>2026-04-26T07:32:11.229Z</time></trkpt><trkpt lat="44.465879" lon="10.7694904"><ele>497.0</ele><time>2026-04-26T07:32:12.231Z</time></trkpt><trkpt lat="44.4657658" lon="10.7692997"><ele>499.0</ele><time>2026-04-26T07:32:13.23Z</time></trkpt><trkpt lat="44.4656794" lon="10.7690909"><ele>501.0</ele><time>2026-04-26T07:32:14.236Z</time></trkpt><trkpt lat="44.4656074" lon="10.7688868"><ele>501.0</ele><time>2026-04-26T07:32:15.235Z</time></trkpt><trkpt lat="44.4655393" lon="10.7687113"><ele>501.0</ele><time>2026-04-26T07:32:16.235Z</time></trkpt><trkpt lat="44.4654596" lon="10.768557"><ele>501.0</ele><time>2026-04-26T07:32:17.236Z</time></trkpt><trkpt lat="44.4653691" lon="10.76842"><ele>501.0</ele><time>2026-04-26T07:32:18.233Z</time></trkpt><trkpt lat="44.4652368" lon="10.7683068"><ele>505.33333333333337</ele><time>2026-04-26T07:32:19.237Z</time></trkpt><trkpt lat="44.4650901" lon="10.7681884"><ele>509.6666666666667</ele><time>2026-04-26T07:32:20.243Z</time></trkpt><trkpt lat="44.4649489" lon="10.7680789"><ele>514.0</ele><time>2026-04-26T07:32:21.243Z</time></trkpt><trkpt lat="44.4648148" lon="10.7679898"><ele>514.0</ele><time>2026-04-26T07:32:22.23Z</time></trkpt><trkpt lat="44.4646786" lon="10.7679408"><ele>514.0</ele><time>2026-04-26T07:32:23.236Z</time></trkpt><trkpt lat="44.4645439" lon="10.7679067"><ele>514.0</ele><time>2026-04-26T07:32:24.241Z</time></trkpt><trkpt lat="44.4643876" lon="10.7679315"><ele>514.0</ele><time>2026-04-26T07:32:25.24Z</time></trkpt><trkpt lat="44.4642209" lon="10.7679051"><ele>513.6666666666667</ele><time>2026-04-26T07:32:26.237Z</time></trkpt><trkpt lat="44.464067" lon="10.7678019"><ele>513.3333333333334</ele><time>2026-04-26T07:32:27.231Z</time></trkpt><trkpt lat="44.4639284" lon="10.7676389"><ele>513.0</ele><time>2026-04-26T07:32:28.231Z</time></trkpt><trkpt lat="44.4637775" lon="10.7675244"><ele>518.3333333333334</ele><time>2026-04-26T07:32:29.233Z</time></trkpt><trkpt lat="44.4636153" lon="10.7674278"><ele>523.6666666666667</ele><time>2026-04-26T07:32:30.237Z</time></trkpt><trkpt lat="44.4634593" lon="10.767318"><ele>529.0</ele><time>2026-04-26T07:32:31.23Z</time></trkpt><trkpt lat="44.4633308" lon="10.7671788"><ele>529.0</ele><time>2026-04-26T07:32:32.24Z</time></trkpt><trkpt lat="44.463229" lon="10.7670151"><ele>529.0</ele><time>2026-04-26T07:32:33.237Z</time></trkpt><trkpt lat="44.4631681" lon="10.7668249"><ele>529.0</ele><time>2026-04-26T07:32:34.241Z</time></trkpt><trkpt lat="44.4631281" lon="10.7666412"><ele>529.0</ele><time>2026-04-26T07:32:35.238Z</time></trkpt><trkpt lat="44.4630906" lon="10.7664872"><ele>528.0</ele><time>2026-04-26T07:32:36.233Z</time></trkpt><trkpt lat="44.4630361" lon="10.76638"><ele>527.0</ele><time>2026-04-26T07:32:37.236Z</time></trkpt><trkpt lat="44.4629731" lon="10.766312"><ele>526.0</ele><time>2026-04-26T07:32:38.231Z</time></trkpt><trkpt lat="44.4628897" lon="10.7663335"><ele>525.0</ele><time>2026-04-26T07:32:39.24Z</time></trkpt><trkpt lat="44.4628259" lon="10.766419"><ele>524.0</ele><time>2026-04-26T07:32:40.248Z</time></trkpt><trkpt lat="44.4628045" lon="10.7665469"><ele>523.0</ele><time>2026-04-26T07:32:41.24Z</time></trkpt><trkpt lat="44.4628207" lon="10.7667067"><ele>525.0</ele><time>2026-04-26T07:32:42.23Z</time></trkpt><trkpt lat="44.4628573" lon="10.766893"><ele>527.0</ele><time>2026-04-26T07:32:43.239Z</time></trkpt><trkpt lat="44.4629118" lon="10.7671109"><ele>529.0</ele><time>2026-04-26T07:32:44.23Z</time></trkpt><trkpt lat="44.4629763" lon="10.7673502"><ele>529.0</ele><time>2026-04-26T07:32:45.234Z</time></trkpt><trkpt lat="44.4630437" lon="10.7675688"><ele>529.0</ele><time>2026-04-26T07:32:46.231Z</time></trkpt><trkpt lat="44.4631004" lon="10.7677621"><ele>529.0</ele><time>2026-04-26T07:32:47.232Z</time></trkpt><trkpt lat="44.4631203" lon="10.7679205"><ele>529.0</ele><time>2026-04-26T07:32:48.235Z</time></trkpt><trkpt lat="44.4630835" lon="10.7680928"><ele>530.25</ele><time>2026-04-26T07:32:49.236Z</time></trkpt><trkpt lat="44.4630283" lon="10.7682395"><ele>531.5</ele><time>2026-04-26T07:32:50.235Z</time></trkpt><trkpt lat="44.462906" lon="10.7683501"><ele>532.75</ele><time>2026-04-26T07:32:51.23Z</time></trkpt><trkpt lat="44.4627508" lon="10.7684626"><ele>534.0</ele><time>2026-04-26T07:32:52.235Z</time></trkpt><trkpt lat="44.4626112" lon="10.7685615"><ele>531.5</ele><time>2026-04-26T07:32:53.232Z</time></trkpt><trkpt lat="44.4624795" lon="10.7686222"><ele>529.0</ele><time>2026-04-26T07:32:54.242Z</time></trkpt><trkpt lat="44.4623536" lon="10.7686691"><ele>526.5</ele><time>2026-04-26T07:32:55.23Z</time></trkpt><trkpt lat="44.4622355" lon="10.7686344"><ele>524.0</ele><time>2026-04-26T07:32:56.241Z</time></trkpt><trkpt lat="44.4621233" lon="10.76853"><ele>530.0</ele><time>2026-04-26T07:32:57.235Z</time></trkpt><trkpt lat="44.4619812" lon="10.7684093"><ele>536.0</ele><time>2026-04-26T07:32:58.232Z</time></trkpt><trkpt lat="44.4618126" lon="10.7683907"><ele>542.0</ele><time>2026-04-26T07:32:59.237Z</time></trkpt><trkpt lat="44.4616484" lon="10.7684897"><ele>539.0</ele><time>2026-04-26T07:33:00.233Z</time></trkpt><trkpt lat="44.4614879" lon="10.7686246"><ele>536.0</ele><time>2026-04-26T07:33:01.229Z</time></trkpt><trkpt lat="44.4613358" lon="10.7687378"><ele>533.0</ele><time>2026-04-26T07:33:02.232Z</time></trkpt><trkpt lat="44.4611868" lon="10.768862"><ele>533.0</ele><time>2026-04-26T07:33:03.233Z</time></trkpt><trkpt lat="44.461013" lon="10.7689224"><ele>533.0</ele><time>2026-04-26T07:33:04.236Z</time></trkpt><trkpt lat="44.4608442" lon="10.7689828"><ele>533.0</ele><time>2026-04-26T07:33:05.239Z</time></trkpt><trkpt lat="44.460697" lon="10.7690418"><ele>533.0</ele><time>2026-04-26T07:33:06.227Z</time></trkpt><trkpt lat="44.4605816" lon="10.7691415"><ele>533.0</ele><time>2026-04-26T07:33:07.228Z</time></trkpt><trkpt lat="44.4604779" lon="10.769268"><ele>533.0</ele><time>2026-04-26T07:33:08.233Z</time></trkpt><trkpt lat="44.4603912" lon="10.7694676"><ele>533.0</ele><time>2026-04-26T07:33:09.229Z</time></trkpt><trkpt lat="44.4603154" lon="10.7696835"><ele>531.6666666666666</ele><time>2026-04-26T07:33:10.229Z</time></trkpt><trkpt lat="44.460235" lon="10.7699094"><ele>530.3333333333334</ele><time>2026-04-26T07:33:11.232Z</time></trkpt><trkpt lat="44.4601611" lon="10.770131"><ele>529.0</ele><time>2026-04-26T07:33:12.235Z</time></trkpt><trkpt lat="44.4601144" lon="10.7703379"><ele>529.0</ele><time>2026-04-26T07:33:13.231Z</time></trkpt><trkpt lat="44.4600684" lon="10.7705597"><ele>529.0</ele><time>2026-04-26T07:33:14.237Z</time></trkpt><trkpt lat="44.4600687" lon="10.7707864"><ele>529.0</ele><time>2026-04-26T07:33:15.232Z</time></trkpt><trkpt lat="44.4600714" lon="10.771017"><ele>524.3333333333334</ele><time>2026-04-26T07:33:16.235Z</time></trkpt><trkpt lat="44.460054" lon="10.7712453"><ele>519.6666666666666</ele><time>2026-04-26T07:33:17.23Z</time></trkpt><trkpt lat="44.459983" lon="10.7714589"><ele>515.0</ele><time>2026-04-26T07:33:18.235Z</time></trkpt><trkpt lat="44.4598778" lon="10.7716891"><ele>516.0</ele><time>2026-04-26T07:33:19.233Z</time></trkpt><trkpt lat="44.4597756" lon="10.7719057"><ele>517.0</ele><time>2026-04-26T07:33:20.235Z</time></trkpt><trkpt lat="44.4596762" lon="10.7721005"><ele>518.0</ele><time>2026-04-26T07:33:21.234Z</time></trkpt><trkpt lat="44.4595701" lon="10.7722766"><ele>518.0</ele><time>2026-04-26T07:33:22.233Z</time></trkpt><trkpt lat="44.4594556" lon="10.772433"><ele>518.0</ele><time>2026-04-26T07:33:23.233Z</time></trkpt><trkpt lat="44.4593516" lon="10.7725721"><ele>518.0</ele><time>2026-04-26T07:33:24.243Z</time></trkpt><trkpt lat="44.4592263" lon="10.77265"><ele>518.0</ele><time>2026-04-26T07:33:25.235Z</time></trkpt><trkpt lat="44.4591007" lon="10.7726576"><ele>518.0</ele><time>2026-04-26T07:33:26.233Z</time></trkpt><trkpt lat="44.4589872" lon="10.7726439"><ele>518.0</ele><time>2026-04-26T07:33:27.23Z</time></trkpt><trkpt lat="44.4588823" lon="10.7725366"><ele>518.0</ele><time>2026-04-26T07:33:28.23Z</time></trkpt><trkpt lat="44.4587829" lon="10.7723943"><ele>518.0</ele><time>2026-04-26T07:33:29.232Z</time></trkpt><trkpt lat="44.4587086" lon="10.7721783"><ele>515.3333333333333</ele><time>2026-04-26T07:33:30.233Z</time></trkpt><trkpt lat="44.4586309" lon="10.7719522"><ele>512.6666666666666</ele><time>2026-04-26T07:33:31.236Z</time></trkpt><trkpt lat="44.4585947" lon="10.7716839"><ele>510.0</ele><time>2026-04-26T07:33:32.236Z</time></trkpt><trkpt lat="44.4585694" lon="10.7714066"><ele>510.0</ele><time>2026-04-26T07:33:33.228Z</time></trkpt><trkpt lat="44.458555" lon="10.7711446"><ele>510.0</ele><time>2026-04-26T07:33:34.228Z</time></trkpt><trkpt lat="44.4585284" lon="10.770878"><ele>510.0</ele><time>2026-04-26T07:33:35.237Z</time></trkpt><trkpt lat="44.4584567" lon="10.7706532"><ele>512.0</ele><time>2026-04-26T07:33:36.228Z</time></trkpt><trkpt lat="44.4583402" lon="10.7704565"><ele>514.0</ele><time>2026-04-26T07:33:37.23Z</time></trkpt><trkpt lat="44.4582097" lon="10.7702958"><ele>516.0</ele><time>2026-04-26T07:33:38.228Z</time></trkpt><trkpt lat="44.4580526" lon="10.7701656"><ele>515.3333333333334</ele><time>2026-04-26T07:33:39.238Z</time></trkpt><trkpt lat="44.4578917" lon="10.7700442"><ele>514.6666666666667</ele><time>2026-04-26T07:33:40.227Z</time></trkpt><trkpt lat="44.4577326" lon="10.7699301"><ele>514.0</ele><time>2026-04-26T07:33:41.236Z</time></trkpt><trkpt lat="44.4576089" lon="10.7698152"><ele>514.0</ele><time>2026-04-26T07:33:42.232Z</time></trkpt><trkpt lat="44.4575038" lon="10.7696679"><ele>514.0</ele><time>2026-04-26T07:33:43.236Z</time></trkpt><trkpt lat="44.4574053" lon="10.7695135"><ele>514.0</ele><time>2026-04-26T07:33:44.233Z</time></trkpt><trkpt lat="44.4573143" lon="10.7693619"><ele>514.0</ele><time>2026-04-26T07:33:45.228Z</time></trkpt><trkpt lat="44.4572385" lon="10.769233"><ele>516.0</ele><time>2026-04-26T07:33:46.231Z</time></trkpt><trkpt lat="44.4571927" lon="10.7690781"><ele>518.0</ele><time>2026-04-26T07:33:47.233Z</time></trkpt><trkpt lat="44.4571931" lon="10.768898"><ele>520.0</ele><time>2026-04-26T07:33:48.231Z</time></trkpt><trkpt lat="44.4572067" lon="10.7686834"><ele>522.0</ele><time>2026-04-26T07:33:49.229Z</time></trkpt><trkpt lat="44.4571912" lon="10.7684544"><ele>522.6666666666666</ele><time>2026-04-26T07:33:50.241Z</time></trkpt><trkpt lat="44.4571404" lon="10.7682077"><ele>523.3333333333333</ele><time>2026-04-26T07:33:51.23Z</time></trkpt><trkpt lat="44.4570675" lon="10.767955"><ele>524.0</ele><time>2026-04-26T07:33:52.231Z</time></trkpt><trkpt lat="44.4569987" lon="10.7677078"><ele>519.0</ele><time>2026-04-26T07:33:53.236Z</time></trkpt><trkpt lat="44.4569321" lon="10.7674825"><ele>514.0</ele><time>2026-04-26T07:33:54.231Z</time></trkpt><trkpt lat="44.4568692" lon="10.7672828"><ele>509.0</ele><time>2026-04-26T07:33:55.231Z</time></trkpt><trkpt lat="44.4567531" lon="10.7671311"><ele>509.0</ele><time>2026-04-26T07:33:56.229Z</time></trkpt><trkpt lat="44.4566154" lon="10.7670044"><ele>509.0</ele><time>2026-04-26T07:33:57.231Z</time></trkpt><trkpt lat="44.4564483" lon="10.7668828"><ele>509.0</ele><time>2026-04-26T07:33:58.237Z</time></trkpt><trkpt lat="44.4562814" lon="10.7667885"><ele>509.0</ele><time>2026-04-26T07:33:59.229Z</time></trkpt><trkpt lat="44.4561167" lon="10.7667094"><ele>509.0</ele><time>2026-04-26T07:34:00.23Z</time></trkpt><trkpt lat="44.4559676" lon="10.76666"><ele>509.0</ele><time>2026-04-26T07:34:01.232Z</time></trkpt><trkpt lat="44.4558238" lon="10.7666035"><ele>509.0</ele><time>2026-04-26T07:34:02.225Z</time></trkpt><trkpt lat="44.4556886" lon="10.7665143"><ele>509.0</ele><time>2026-04-26T07:34:03.241Z</time></trkpt><trkpt lat="44.4555682" lon="10.7663896"><ele>509.0</ele><time>2026-04-26T07:34:04.234Z</time></trkpt><trkpt lat="44.4554523" lon="10.7662499"><ele>509.3333333333333</ele><time>2026-04-26T07:34:05.235Z</time></trkpt><trkpt lat="44.4553349" lon="10.7661056"><ele>509.66666666666663</ele><time>2026-04-26T07:34:06.228Z</time></trkpt><trkpt lat="44.4552251" lon="10.7659606"><ele>510.0</ele><time>2026-04-26T07:34:07.227Z</time></trkpt><trkpt lat="44.4551154" lon="10.7658256"><ele>510.0</ele><time>2026-04-26T07:34:08.233Z</time></trkpt><trkpt lat="44.4550149" lon="10.765693"><ele>510.0</ele><time>2026-04-26T07:34:09.236Z</time></trkpt><trkpt lat="44.4549197" lon="10.7655658"><ele>510.0</ele><time>2026-04-26T07:34:10.228Z</time></trkpt><trkpt lat="44.4548263" lon="10.7654439"><ele>510.0</ele><time>2026-04-26T07:34:11.239Z</time></trkpt><trkpt lat="44.4547387" lon="10.7653208"><ele>511.5</ele><time>2026-04-26T07:34:12.236Z</time></trkpt><trkpt lat="44.4546522" lon="10.7651881"><ele>513.0</ele><time>2026-04-26T07:34:13.235Z</time></trkpt><trkpt lat="44.454568" lon="10.7650502"><ele>514.5</ele><time>2026-04-26T07:34:14.228Z</time></trkpt><trkpt lat="44.4544874" lon="10.7649112"><ele>516.0</ele><time>2026-04-26T07:34:15.235Z</time></trkpt><trkpt lat="44.4544071" lon="10.7647722"><ele>513.75</ele><time>2026-04-26T07:34:16.235Z</time></trkpt><trkpt lat="44.454326" lon="10.7646389"><ele>511.5</ele><time>2026-04-26T07:34:17.232Z</time></trkpt><trkpt lat="44.454245" lon="10.7644875"><ele>509.25</ele><time>2026-04-26T07:34:18.235Z</time></trkpt><trkpt lat="44.4541735" lon="10.7643462"><ele>507.0</ele><time>2026-04-26T07:34:19.237Z</time></trkpt><trkpt lat="44.4540961" lon="10.7642219"><ele>507.0</ele><time>2026-04-26T07:34:20.238Z</time></trkpt><trkpt lat="44.4540055" lon="10.7641024"><ele>507.0</ele><time>2026-04-26T07:34:21.232Z</time></trkpt><trkpt lat="44.4539101" lon="10.7639942"><ele>507.0</ele><time>2026-04-26T07:34:22.235Z</time></trkpt><trkpt lat="44.453817" lon="10.7638869"><ele>507.0</ele><time>2026-04-26T07:34:23.235Z</time></trkpt><trkpt lat="44.4537176" lon="10.7637869"><ele>506.25</ele><time>2026-04-26T07:34:24.235Z</time></trkpt><trkpt lat="44.4536224" lon="10.7636851"><ele>505.5</ele><time>2026-04-26T07:34:25.231Z</time></trkpt><trkpt lat="44.4535284" lon="10.7635832"><ele>504.75</ele><time>2026-04-26T07:34:26.232Z</time></trkpt><trkpt lat="44.4534338" lon="10.7634857"><ele>504.0</ele><time>2026-04-26T07:34:27.229Z</time></trkpt><trkpt lat="44.4533375" lon="10.7633873"><ele>503.75</ele><time>2026-04-26T07:34:28.232Z</time></trkpt><trkpt lat="44.4532351" lon="10.7632861"><ele>503.5</ele><time>2026-04-26T07:34:29.236Z</time></trkpt><trkpt lat="44.453128" lon="10.7631796"><ele>503.25</ele><time>2026-04-26T07:34:30.238Z</time></trkpt><trkpt lat="44.4530132" lon="10.7630694"><ele>503.0</ele><time>2026-04-26T07:34:31.23Z</time></trkpt><trkpt lat="44.4528918" lon="10.762967"><ele>503.0</ele><time>2026-04-26T07:34:32.237Z</time></trkpt><trkpt lat="44.4527582" lon="10.7628792"><ele>503.0</ele><time>2026-04-26T07:34:33.233Z</time></trkpt><trkpt lat="44.4526184" lon="10.7628112"><ele>503.0</ele><time>2026-04-26T07:34:34.229Z</time></trkpt><trkpt lat="44.4524771" lon="10.7627697"><ele>503.0</ele><time>2026-04-26T07:34:35.229Z</time></trkpt><trkpt lat="44.4523244" lon="10.7627398"><ele>503.0</ele><time>2026-04-26T07:34:36.239Z</time></trkpt><trkpt lat="44.4521644" lon="10.7627488"><ele>503.0</ele><time>2026-04-26T07:34:37.239Z</time></trkpt><trkpt lat="44.452003" lon="10.7627457"><ele>503.0</ele><time>2026-04-26T07:34:38.233Z</time></trkpt><trkpt lat="44.4518344" lon="10.7627506"><ele>502.0</ele><time>2026-04-26T07:34:39.233Z</time></trkpt><trkpt lat="44.4516649" lon="10.7627589"><ele>501.0</ele><time>2026-04-26T07:34:40.233Z</time></trkpt><trkpt lat="44.4514968" lon="10.7627679"><ele>500.0</ele><time>2026-04-26T07:34:41.23Z</time></trkpt><trkpt lat="44.451341" lon="10.7627765"><ele>501.0</ele><time>2026-04-26T07:34:42.232Z</time></trkpt><trkpt lat="44.4511983" lon="10.7627841"><ele>502.0</ele><time>2026-04-26T07:34:43.229Z</time></trkpt><trkpt lat="44.4510661" lon="10.7627996"><ele>503.0</ele><time>2026-04-26T07:34:44.236Z</time></trkpt><trkpt lat="44.4509398" lon="10.7628236"><ele>504.0</ele><time>2026-04-26T07:34:45.232Z</time></trkpt><trkpt lat="44.4508337" lon="10.7628628"><ele>504.0</ele><time>2026-04-26T07:34:46.238Z</time></trkpt><trkpt lat="44.450736" lon="10.7629063"><ele>504.0</ele><time>2026-04-26T07:34:47.234Z</time></trkpt><trkpt lat="44.4506416" lon="10.7629493"><ele>504.0</ele><time>2026-04-26T07:34:48.236Z</time></trkpt><trkpt lat="44.4505583" lon="10.7629975"><ele>504.0</ele><time>2026-04-26T07:34:49.238Z</time></trkpt><trkpt lat="44.450489" lon="10.7630635"><ele>504.0</ele><time>2026-04-26T07:34:50.232Z</time></trkpt><trkpt lat="44.4504409" lon="10.7631531"><ele>505.0</ele><time>2026-04-26T07:34:51.237Z</time></trkpt><trkpt lat="44.4503922" lon="10.7632565"><ele>506.0</ele><time>2026-04-26T07:34:52.235Z</time></trkpt><trkpt lat="44.4503813" lon="10.7634087"><ele>507.0</ele><time>2026-04-26T07:34:53.242Z</time></trkpt><trkpt lat="44.4503668" lon="10.7635665"><ele>508.0</ele><time>2026-04-26T07:34:54.232Z</time></trkpt><trkpt lat="44.4503489" lon="10.763735"><ele>509.0</ele><time>2026-04-26T07:34:55.234Z</time></trkpt><trkpt lat="44.4503145" lon="10.7639025"><ele>509.6</ele><time>2026-04-26T07:34:56.234Z</time></trkpt><trkpt lat="44.4502798" lon="10.764055"><ele>510.2</ele><time>2026-04-26T07:34:57.232Z</time></trkpt><trkpt lat="44.4502309" lon="10.7641859"><ele>510.80000000000007</ele><time>2026-04-26T07:34:58.231Z</time></trkpt><trkpt lat="44.4501702" lon="10.7643"><ele>511.40000000000003</ele><time>2026-04-26T07:34:59.23Z</time></trkpt><trkpt lat="44.4501051" lon="10.7644043"><ele>512.0</ele><time>2026-04-26T07:35:00.235Z</time></trkpt><trkpt lat="44.4500305" lon="10.7644562"><ele>512.3333333333333</ele><time>2026-04-26T07:35:01.232Z</time></trkpt><trkpt lat="44.4499636" lon="10.7644709"><ele>512.6666666666666</ele><time>2026-04-26T07:35:02.235Z</time></trkpt><trkpt lat="44.4498385" lon="10.7645085"><ele>513.0</ele><time>2026-04-26T07:35:04.238Z</time></trkpt><trkpt lat="44.449762" lon="10.7645321"><ele>513.3333333333334</ele><time>2026-04-26T07:35:05.237Z</time></trkpt><trkpt lat="44.4496845" lon="10.7645697"><ele>513.6666666666667</ele><time>2026-04-26T07:35:06.24Z</time></trkpt><trkpt lat="44.4496042" lon="10.7646096"><ele>514.0</ele><time>2026-04-26T07:35:07.235Z</time></trkpt><trkpt lat="44.4495228" lon="10.7646476"><ele>515.6</ele><time>2026-04-26T07:35:08.238Z</time></trkpt><trkpt lat="44.4494392" lon="10.7646918"><ele>517.2</ele><time>2026-04-26T07:35:09.237Z</time></trkpt><trkpt lat="44.4493502" lon="10.7647296"><ele>518.8000000000001</ele><time>2026-04-26T07:35:10.231Z</time></trkpt><trkpt lat="44.4492704" lon="10.7647685"><ele>520.4</ele><time>2026-04-26T07:35:11.233Z</time></trkpt><trkpt lat="44.4491761" lon="10.7648069"><ele>522.0</ele><time>2026-04-26T07:35:12.235Z</time></trkpt><trkpt lat="44.4490798" lon="10.7648485"><ele>522.0</ele><time>2026-04-26T07:35:13.237Z</time></trkpt><trkpt lat="44.4489846" lon="10.7648879"><ele>522.0</ele><time>2026-04-26T07:35:14.233Z</time></trkpt><trkpt lat="44.4488847" lon="10.7649305"><ele>522.0</ele><time>2026-04-26T07:35:15.236Z</time></trkpt><trkpt lat="44.4487855" lon="10.764965"><ele>522.0</ele><time>2026-04-26T07:35:16.236Z</time></trkpt><trkpt lat="44.4486849" lon="10.7650044"><ele>522.0</ele><time>2026-04-26T07:35:17.237Z</time></trkpt><trkpt lat="44.4485916" lon="10.7650478"><ele>522.75</ele><time>2026-04-26T07:35:18.232Z</time></trkpt><trkpt lat="44.4484841" lon="10.7650947"><ele>523.5</ele><time>2026-04-26T07:35:19.233Z</time></trkpt><trkpt lat="44.4483643" lon="10.7651323"><ele>524.25</ele><time>2026-04-26T07:35:20.232Z</time></trkpt><trkpt lat="44.4482546" lon="10.7651837"><ele>525.0</ele><time>2026-04-26T07:35:21.235Z</time></trkpt><trkpt lat="44.4481516" lon="10.7652201"><ele>525.0</ele><time>2026-04-26T07:35:22.24Z</time></trkpt><trkpt lat="44.4480495" lon="10.7652555"><ele>525.0</ele><time>2026-04-26T07:35:23.237Z</time></trkpt><trkpt lat="44.4479496" lon="10.7652897"><ele>525.0</ele><time>2026-04-26T07:35:24.237Z</time></trkpt><trkpt lat="44.4478519" lon="10.7653164"><ele>525.0</ele><time>2026-04-26T07:35:25.23Z</time></trkpt><trkpt lat="44.447757" lon="10.7653486"><ele>525.0</ele><time>2026-04-26T07:35:26.241Z</time></trkpt><trkpt lat="44.447662" lon="10.7653776"><ele>526.5</ele><time>2026-04-26T07:35:27.232Z</time></trkpt><trkpt lat="44.4475764" lon="10.7653928"><ele>528.0</ele><time>2026-04-26T07:35:28.239Z</time></trkpt><trkpt lat="44.4474945" lon="10.7654088"><ele>529.5</ele><time>2026-04-26T07:35:29.238Z</time></trkpt><trkpt lat="44.4474193" lon="10.7654292"><ele>531.0</ele><time>2026-04-26T07:35:30.241Z</time></trkpt><trkpt lat="44.4473533" lon="10.7654514"><ele>532.5</ele><time>2026-04-26T07:35:31.237Z</time></trkpt><trkpt lat="44.4472333" lon="10.7655131"><ele>534.0</ele><time>2026-04-26T07:35:33.235Z</time></trkpt><trkpt lat="44.4471593" lon="10.7655486"><ele>536.2</ele><time>2026-04-26T07:35:34.238Z</time></trkpt><trkpt lat="44.4470695" lon="10.7655797"><ele>538.4</ele><time>2026-04-26T07:35:35.234Z</time></trkpt><trkpt lat="44.4469822" lon="10.7656147"><ele>540.6</ele><time>2026-04-26T07:35:36.243Z</time></trkpt><trkpt lat="44.4468769" lon="10.7656198"><ele>542.8</ele><time>2026-04-26T07:35:37.236Z</time></trkpt><trkpt lat="44.4467539" lon="10.7656133"><ele>545.0</ele><time>2026-04-26T07:35:38.245Z</time></trkpt><trkpt lat="44.446623" lon="10.7656053"><ele>545.0</ele><time>2026-04-26T07:35:39.229Z</time></trkpt><trkpt lat="44.4464898" lon="10.7655863"><ele>545.0</ele><time>2026-04-26T07:35:40.235Z</time></trkpt><trkpt lat="44.4463666" lon="10.765528"><ele>545.0</ele><time>2026-04-26T07:35:41.231Z</time></trkpt><trkpt lat="44.4462491" lon="10.7654508"><ele>545.0</ele><time>2026-04-26T07:35:42.24Z</time></trkpt><trkpt lat="44.4461251" lon="10.7653618"><ele>545.25</ele><time>2026-04-26T07:35:43.232Z</time></trkpt><trkpt lat="44.4459997" lon="10.7652884"><ele>545.5</ele><time>2026-04-26T07:35:44.238Z</time></trkpt><trkpt lat="44.4458688" lon="10.7652163"><ele>545.75</ele><time>2026-04-26T07:35:45.24Z</time></trkpt><trkpt lat="44.4457336" lon="10.7651353"><ele>546.0</ele><time>2026-04-26T07:35:46.232Z</time></trkpt><trkpt lat="44.4455935" lon="10.7650444"><ele>547.6666666666666</ele><time>2026-04-26T07:35:47.232Z</time></trkpt><trkpt lat="44.4454485" lon="10.7649516"><ele>549.3333333333333</ele><time>2026-04-26T07:35:48.228Z</time></trkpt><trkpt lat="44.4453097" lon="10.7648594"><ele>551.0</ele><time>2026-04-26T07:35:49.231Z</time></trkpt><trkpt lat="44.4451613" lon="10.7647604"><ele>551.0</ele><time>2026-04-26T07:35:50.234Z</time></trkpt><trkpt lat="44.445009" lon="10.7646658"><ele>551.0</ele><time>2026-04-26T07:35:51.235Z</time></trkpt><trkpt lat="44.4448553" lon="10.7645746"><ele>551.0</ele><time>2026-04-26T07:35:52.232Z</time></trkpt><trkpt lat="44.4447032" lon="10.7644795"><ele>549.6666666666666</ele><time>2026-04-26T07:35:53.235Z</time></trkpt><trkpt lat="44.4445461" lon="10.7643798"><ele>548.3333333333334</ele><time>2026-04-26T07:35:54.234Z</time></trkpt><trkpt lat="44.4443882" lon="10.7642792"><ele>547.0</ele><time>2026-04-26T07:35:55.249Z</time></trkpt><trkpt lat="44.4442311" lon="10.7641809"><ele>547.0</ele><time>2026-04-26T07:35:56.234Z</time></trkpt><trkpt lat="44.4440701" lon="10.7640945"><ele>547.0</ele><time>2026-04-26T07:35:57.236Z</time></trkpt><trkpt lat="44.443906" lon="10.7640416"><ele>547.0</ele><time>2026-04-26T07:35:58.233Z</time></trkpt><trkpt lat="44.4437335" lon="10.7640226"><ele>549.6666666666667</ele><time>2026-04-26T07:35:59.237Z</time></trkpt><trkpt lat="44.443557" lon="10.7640029"><ele>552.3333333333334</ele><time>2026-04-26T07:36:00.231Z</time></trkpt><trkpt lat="44.4433677" lon="10.7639789"><ele>555.0</ele><time>2026-04-26T07:36:01.236Z</time></trkpt><trkpt lat="44.4431749" lon="10.7639282"><ele>555.0</ele><time>2026-04-26T07:36:02.235Z</time></trkpt><trkpt lat="44.4429732" lon="10.7638577"><ele>555.0</ele><time>2026-04-26T07:36:03.234Z</time></trkpt><trkpt lat="44.4427778" lon="10.7637555"><ele>555.0</ele><time>2026-04-26T07:36:04.232Z</time></trkpt><trkpt lat="44.4425879" lon="10.7636374"><ele>555.0</ele><time>2026-04-26T07:36:05.242Z</time></trkpt><trkpt lat="44.4423957" lon="10.7635184"><ele>555.0</ele><time>2026-04-26T07:36:06.23Z</time></trkpt><trkpt lat="44.4422073" lon="10.7634051"><ele>555.0</ele><time>2026-04-26T07:36:07.231Z</time></trkpt><trkpt lat="44.4420424" lon="10.7633176"><ele>561.0</ele><time>2026-04-26T07:36:08.236Z</time></trkpt><trkpt lat="44.4418804" lon="10.7632286"><ele>567.0</ele><time>2026-04-26T07:36:09.231Z</time></trkpt><trkpt lat="44.4417205" lon="10.7631388"><ele>573.0</ele><time>2026-04-26T07:36:10.228Z</time></trkpt><trkpt lat="44.4415583" lon="10.7630404"><ele>573.0</ele><time>2026-04-26T07:36:11.24Z</time></trkpt><trkpt lat="44.4414151" lon="10.7629475"><ele>573.0</ele><time>2026-04-26T07:36:12.228Z</time></trkpt><trkpt lat="44.4412764" lon="10.7628675"><ele>573.0</ele><time>2026-04-26T07:36:13.24Z</time></trkpt><trkpt lat="44.4411767" lon="10.7627508"><ele>573.0</ele><time>2026-04-26T07:36:14.235Z</time></trkpt><trkpt lat="44.4410857" lon="10.7626043"><ele>574.5</ele><time>2026-04-26T07:36:15.231Z</time></trkpt><trkpt lat="44.4409943" lon="10.7624697"><ele>576.0</ele><time>2026-04-26T07:36:16.233Z</time></trkpt><trkpt lat="44.4408983" lon="10.7623397"><ele>577.5</ele><time>2026-04-26T07:36:17.231Z</time></trkpt><trkpt lat="44.4407994" lon="10.7622032"><ele>579.0</ele><time>2026-04-26T07:36:18.228Z</time></trkpt><trkpt lat="44.4406965" lon="10.7620757"><ele>579.0</ele><time>2026-04-26T07:36:19.235Z</time></trkpt><trkpt lat="44.4405847" lon="10.7619393"><ele>579.0</ele><time>2026-04-26T07:36:20.231Z</time></trkpt><trkpt lat="44.4404727" lon="10.7617988"><ele>579.0</ele><time>2026-04-26T07:36:21.237Z</time></trkpt><trkpt lat="44.4403599" lon="10.7616587"><ele>579.0</ele><time>2026-04-26T07:36:22.231Z</time></trkpt><trkpt lat="44.4402528" lon="10.7615255"><ele>578.75</ele><time>2026-04-26T07:36:23.24Z</time></trkpt><trkpt lat="44.4401658" lon="10.761389"><ele>578.5</ele><time>2026-04-26T07:36:24.233Z</time></trkpt><trkpt lat="44.440109" lon="10.7612086"><ele>578.25</ele><time>2026-04-26T07:36:25.239Z</time></trkpt><trkpt lat="44.4400505" lon="10.7610255"><ele>578.0</ele><time>2026-04-26T07:36:26.232Z</time></trkpt><trkpt lat="44.4400406" lon="10.7608373"><ele>578.0</ele><time>2026-04-26T07:36:27.229Z</time></trkpt><trkpt lat="44.4400352" lon="10.760654"><ele>578.0</ele><time>2026-04-26T07:36:28.237Z</time></trkpt><trkpt lat="44.4399946" lon="10.7605029"><ele>578.0</ele><time>2026-04-26T07:36:29.227Z</time></trkpt><trkpt lat="44.4399089" lon="10.7603747"><ele>578.0</ele><time>2026-04-26T07:36:30.231Z</time></trkpt><trkpt lat="44.4397847" lon="10.7602884"><ele>578.0</ele><time>2026-04-26T07:36:31.235Z</time></trkpt><trkpt lat="44.4396437" lon="10.7602007"><ele>578.0</ele><time>2026-04-26T07:36:32.239Z</time></trkpt><trkpt lat="44.4394903" lon="10.7601121"><ele>578.0</ele><time>2026-04-26T07:36:33.232Z</time></trkpt><trkpt lat="44.439334" lon="10.7600242"><ele>579.6666666666666</ele><time>2026-04-26T07:36:34.238Z</time></trkpt><trkpt lat="44.4391745" lon="10.7599766"><ele>581.3333333333334</ele><time>2026-04-26T07:36:35.233Z</time></trkpt><trkpt lat="44.439016" lon="10.7599742"><ele>583.0</ele><time>2026-04-26T07:36:36.243Z</time></trkpt><trkpt lat="44.4388548" lon="10.7599962"><ele>589.3333333333334</ele><time>2026-04-26T07:36:37.235Z</time></trkpt><trkpt lat="44.4387044" lon="10.7600216"><ele>595.6666666666666</ele><time>2026-04-26T07:36:38.238Z</time></trkpt><trkpt lat="44.438546" lon="10.760025"><ele>602.0</ele><time>2026-04-26T07:36:39.231Z</time></trkpt><trkpt lat="44.4384058" lon="10.7599667"><ele>602.0</ele><time>2026-04-26T07:36:40.239Z</time></trkpt><trkpt lat="44.4382835" lon="10.7598221"><ele>602.0</ele><time>2026-04-26T07:36:41.233Z</time></trkpt><trkpt lat="44.4381926" lon="10.7596418"><ele>602.0</ele><time>2026-04-26T07:36:42.236Z</time></trkpt><trkpt lat="44.4381534" lon="10.7594267"><ele>598.6666666666666</ele><time>2026-04-26T07:36:43.234Z</time></trkpt><trkpt lat="44.4381668" lon="10.7591959"><ele>595.3333333333334</ele><time>2026-04-26T07:36:44.23Z</time></trkpt><trkpt lat="44.438204" lon="10.7589668"><ele>592.0</ele><time>2026-04-26T07:36:45.228Z</time></trkpt><trkpt lat="44.4382458" lon="10.7587436"><ele>593.3333333333334</ele><time>2026-04-26T07:36:46.229Z</time></trkpt><trkpt lat="44.4383162" lon="10.7585248"><ele>594.6666666666666</ele><time>2026-04-26T07:36:47.232Z</time></trkpt><trkpt lat="44.4384192" lon="10.7583875"><ele>596.0</ele><time>2026-04-26T07:36:48.248Z</time></trkpt><trkpt lat="44.4385832" lon="10.7582819"><ele>596.0</ele><time>2026-04-26T07:36:49.235Z</time></trkpt><trkpt lat="44.4386906" lon="10.7581396"><ele>596.0</ele><time>2026-04-26T07:36:50.246Z</time></trkpt><trkpt lat="44.4387522" lon="10.757982"><ele>596.0</ele><time>2026-04-26T07:36:51.237Z</time></trkpt><trkpt lat="44.4388083" lon="10.7578329"><ele>596.0</ele><time>2026-04-26T07:36:52.233Z</time></trkpt><trkpt lat="44.4387798" lon="10.7576958"><ele>596.0</ele><time>2026-04-26T07:36:53.234Z</time></trkpt><trkpt lat="44.4387112" lon="10.757557"><ele>596.0</ele><time>2026-04-26T07:36:54.232Z</time></trkpt><trkpt lat="44.4386084" lon="10.7574107"><ele>596.0</ele><time>2026-04-26T07:36:55.235Z</time></trkpt><trkpt lat="44.4384815" lon="10.7572684"><ele>596.0</ele><time>2026-04-26T07:36:56.232Z</time></trkpt><trkpt lat="44.4383385" lon="10.7571273"><ele>596.0</ele><time>2026-04-26T07:36:57.236Z</time></trkpt><trkpt lat="44.438203" lon="10.7569819"><ele>596.0</ele><time>2026-04-26T07:36:58.238Z</time></trkpt><trkpt lat="44.4380847" lon="10.7568458"><ele>596.0</ele><time>2026-04-26T07:36:59.233Z</time></trkpt><trkpt lat="44.4380313" lon="10.7566683"><ele>594.5</ele><time>2026-04-26T07:37:00.231Z</time></trkpt><trkpt lat="44.4379929" lon="10.7565004"><ele>593.0</ele><time>2026-04-26T07:37:01.237Z</time></trkpt><trkpt lat="44.4379737" lon="10.7563215"><ele>591.5</ele><time>2026-04-26T07:37:02.237Z</time></trkpt><trkpt lat="44.4378926" lon="10.7561896"><ele>590.0</ele><time>2026-04-26T07:37:03.233Z</time></trkpt><trkpt lat="44.4377843" lon="10.7560902"><ele>592.75</ele><time>2026-04-26T07:37:04.234Z</time></trkpt><trkpt lat="44.4376549" lon="10.7560154"><ele>595.5</ele><time>2026-04-26T07:37:05.237Z</time></trkpt><trkpt lat="44.4375125" lon="10.7559643"><ele>598.25</ele><time>2026-04-26T07:37:06.235Z</time></trkpt><trkpt lat="44.4373553" lon="10.7559194"><ele>601.0</ele><time>2026-04-26T07:37:07.232Z</time></trkpt><trkpt lat="44.4372008" lon="10.755873"><ele>602.75</ele><time>2026-04-26T07:37:08.24Z</time></trkpt><trkpt lat="44.4370505" lon="10.7558295"><ele>604.5</ele><time>2026-04-26T07:37:09.233Z</time></trkpt><trkpt lat="44.4369049" lon="10.7557892"><ele>606.25</ele><time>2026-04-26T07:37:10.235Z</time></trkpt><trkpt lat="44.4367678" lon="10.7557478"><ele>608.0</ele><time>2026-04-26T07:37:11.237Z</time></trkpt><trkpt lat="44.4366417" lon="10.7557057"><ele>608.0</ele><time>2026-04-26T07:37:12.233Z</time></trkpt><trkpt lat="44.4365284" lon="10.7556468"><ele>608.0</ele><time>2026-04-26T07:37:13.243Z</time></trkpt><trkpt lat="44.4364602" lon="10.7555311"><ele>608.0</ele><time>2026-04-26T07:37:14.233Z</time></trkpt><trkpt lat="44.4364133" lon="10.7553965"><ele>608.0</ele><time>2026-04-26T07:37:15.249Z</time></trkpt><trkpt lat="44.4364151" lon="10.7552144"><ele>608.0</ele><time>2026-04-26T07:37:16.24Z</time></trkpt><trkpt lat="44.43644" lon="10.7550227"><ele>608.0</ele><time>2026-04-26T07:37:17.237Z</time></trkpt><trkpt lat="44.4364637" lon="10.7548215"><ele>608.0</ele><time>2026-04-26T07:37:18.243Z</time></trkpt><trkpt lat="44.4365055" lon="10.7546172"><ele>608.0</ele><time>2026-04-26T07:37:19.237Z</time></trkpt><trkpt lat="44.4365666" lon="10.7544086"><ele>609.6666666666666</ele><time>2026-04-26T07:37:20.229Z</time></trkpt><trkpt lat="44.4366515" lon="10.7542105"><ele>611.3333333333334</ele><time>2026-04-26T07:37:21.236Z</time></trkpt><trkpt lat="44.436758" lon="10.7540164"><ele>613.0</ele><time>2026-04-26T07:37:22.236Z</time></trkpt><trkpt lat="44.4368739" lon="10.7538238"><ele>613.0</ele><time>2026-04-26T07:37:23.239Z</time></trkpt><trkpt lat="44.4369868" lon="10.7536453"><ele>613.0</ele><time>2026-04-26T07:37:24.24Z</time></trkpt><trkpt lat="44.4371028" lon="10.7534911"><ele>613.0</ele><time>2026-04-26T07:37:25.231Z</time></trkpt><trkpt lat="44.4372182" lon="10.7533571"><ele>610.8</ele><time>2026-04-26T07:37:26.238Z</time></trkpt><trkpt lat="44.4373166" lon="10.7532507"><ele>608.5999999999999</ele><time>2026-04-26T07:37:27.236Z</time></trkpt><trkpt lat="44.4373876" lon="10.7531362"><ele>606.4000000000001</ele><time>2026-04-26T07:37:28.243Z</time></trkpt><trkpt lat="44.4374169" lon="10.7529987"><ele>604.2</ele><time>2026-04-26T07:37:29.233Z</time></trkpt><trkpt lat="44.4374266" lon="10.7528628"><ele>602.0</ele><time>2026-04-26T07:37:30.235Z</time></trkpt><trkpt lat="44.4373594" lon="10.7527565"><ele>604.0</ele><time>2026-04-26T07:37:31.233Z</time></trkpt><trkpt lat="44.4372567" lon="10.7526417"><ele>606.0</ele><time>2026-04-26T07:37:32.234Z</time></trkpt><trkpt lat="44.4371333" lon="10.7525159"><ele>608.0</ele><time>2026-04-26T07:37:33.238Z</time></trkpt><trkpt lat="44.4369931" lon="10.7523769"><ele>610.0</ele><time>2026-04-26T07:37:34.237Z</time></trkpt><trkpt lat="44.4368696" lon="10.7522347"><ele>612.0</ele><time>2026-04-26T07:37:35.242Z</time></trkpt><trkpt lat="44.436772" lon="10.7520843"><ele>614.0</ele><time>2026-04-26T07:37:36.238Z</time></trkpt><trkpt lat="44.4367192" lon="10.7519117"><ele>616.0</ele><time>2026-04-26T07:37:37.243Z</time></trkpt><trkpt lat="44.4367002" lon="10.7517052"><ele>616.0</ele><time>2026-04-26T07:37:38.237Z</time></trkpt><trkpt lat="44.4366845" lon="10.7514802"><ele>616.0</ele><time>2026-04-26T07:37:39.239Z</time></trkpt><trkpt lat="44.4367239" lon="10.7512106"><ele>616.0</ele><time>2026-04-26T07:37:40.235Z</time></trkpt><trkpt lat="44.4367636" lon="10.7509314"><ele>619.0</ele><time>2026-04-26T07:37:41.245Z</time></trkpt><trkpt lat="44.4368172" lon="10.7506261"><ele>622.0</ele><time>2026-04-26T07:37:42.235Z</time></trkpt><trkpt lat="44.4368617" lon="10.7503009"><ele>626.3333333333334</ele><time>2026-04-26T07:37:43.24Z</time></trkpt><trkpt lat="44.4369049" lon="10.7500002"><ele>630.6666666666666</ele><time>2026-04-26T07:37:44.229Z</time></trkpt><trkpt lat="44.4369475" lon="10.7497356"><ele>635.0</ele><time>2026-04-26T07:37:45.228Z</time></trkpt><trkpt lat="44.4369918" lon="10.7495016"><ele>635.0</ele><time>2026-04-26T07:37:46.239Z</time></trkpt><trkpt lat="44.4370294" lon="10.7492918"><ele>635.0</ele><time>2026-04-26T07:37:47.235Z</time></trkpt><trkpt lat="44.4370597" lon="10.7491117"><ele>635.0</ele><time>2026-04-26T07:37:48.237Z</time></trkpt><trkpt lat="44.4370721" lon="10.7489553"><ele>635.0</ele><time>2026-04-26T07:37:49.237Z</time></trkpt><trkpt lat="44.4370555" lon="10.7488238"><ele>635.0</ele><time>2026-04-26T07:37:50.236Z</time></trkpt><trkpt lat="44.4370022" lon="10.7487255"><ele>635.0</ele><time>2026-04-26T07:37:51.233Z</time></trkpt><trkpt lat="44.4369157" lon="10.748642"><ele>635.0</ele><time>2026-04-26T07:37:52.227Z</time></trkpt><trkpt lat="44.4367934" lon="10.7485599"><ele>635.0</ele><time>2026-04-26T07:37:53.237Z</time></trkpt><trkpt lat="44.4366543" lon="10.7484658"><ele>634.0</ele><time>2026-04-26T07:37:54.241Z</time></trkpt><trkpt lat="44.436524" lon="10.748393"><ele>633.0</ele><time>2026-04-26T07:37:55.232Z</time></trkpt><trkpt lat="44.4364129" lon="10.7483704"><ele>632.0</ele><time>2026-04-26T07:37:56.231Z</time></trkpt><trkpt lat="44.4363233" lon="10.748404"><ele>631.0</ele><time>2026-04-26T07:37:57.237Z</time></trkpt><trkpt lat="44.4362558" lon="10.7484959"><ele>630.0</ele><time>2026-04-26T07:37:58.236Z</time></trkpt><trkpt lat="44.4362028" lon="10.7486389"><ele>633.0</ele><time>2026-04-26T07:37:59.239Z</time></trkpt><trkpt lat="44.4361442" lon="10.7487995"><ele>636.0</ele><time>2026-04-26T07:38:00.239Z</time></trkpt><trkpt lat="44.4360686" lon="10.7489595"><ele>639.0</ele><time>2026-04-26T07:38:01.235Z</time></trkpt><trkpt lat="44.4359523" lon="10.7490765"><ele>642.0</ele><time>2026-04-26T07:38:02.231Z</time></trkpt><trkpt lat="44.4358145" lon="10.7491304"><ele>642.0</ele><time>2026-04-26T07:38:03.24Z</time></trkpt><trkpt lat="44.4356599" lon="10.7491525"><ele>642.0</ele><time>2026-04-26T07:38:04.234Z</time></trkpt><trkpt lat="44.4354841" lon="10.7491712"><ele>642.0</ele><time>2026-04-26T07:38:05.235Z</time></trkpt><trkpt lat="44.4353037" lon="10.7491848"><ele>642.3333333333334</ele><time>2026-04-26T07:38:06.229Z</time></trkpt><trkpt lat="44.4351253" lon="10.749194"><ele>642.6666666666667</ele><time>2026-04-26T07:38:07.243Z</time></trkpt><trkpt lat="44.4349715" lon="10.749167"><ele>643.0</ele><time>2026-04-26T07:38:08.236Z</time></trkpt><trkpt lat="44.4348284" lon="10.7490939"><ele>643.0</ele><time>2026-04-26T07:38:09.232Z</time></trkpt><trkpt lat="44.4347063" lon="10.7489797"><ele>643.0</ele><time>2026-04-26T07:38:10.232Z</time></trkpt><trkpt lat="44.4345853" lon="10.748853"><ele>643.0</ele><time>2026-04-26T07:38:11.233Z</time></trkpt><trkpt lat="44.4344709" lon="10.7487738"><ele>643.0</ele><time>2026-04-26T07:38:12.233Z</time></trkpt><trkpt lat="44.43434" lon="10.7487646"><ele>646.25</ele><time>2026-04-26T07:38:13.233Z</time></trkpt><trkpt lat="44.4342116" lon="10.7488089"><ele>649.5</ele><time>2026-04-26T07:38:14.234Z</time></trkpt><trkpt lat="44.4340877" lon="10.7488328"><ele>652.75</ele><time>2026-04-26T07:38:15.23Z</time></trkpt><trkpt lat="44.4339357" lon="10.748863"><ele>656.0</ele><time>2026-04-26T07:38:16.241Z</time></trkpt><trkpt lat="44.4338105" lon="10.748785"><ele>656.25</ele><time>2026-04-26T07:38:17.231Z</time></trkpt><trkpt lat="44.4337216" lon="10.7486634"><ele>656.5</ele><time>2026-04-26T07:38:18.229Z</time></trkpt><trkpt lat="44.4336532" lon="10.7485205"><ele>656.75</ele><time>2026-04-26T07:38:19.24Z</time></trkpt><trkpt lat="44.4335984" lon="10.7483927"><ele>657.0</ele><time>2026-04-26T07:38:20.235Z</time></trkpt><trkpt lat="44.4335233" lon="10.7482861"><ele>657.0</ele><time>2026-04-26T07:38:21.241Z</time></trkpt><trkpt lat="44.433427" lon="10.7482041"><ele>657.0</ele><time>2026-04-26T07:38:22.237Z</time></trkpt><trkpt lat="44.4333207" lon="10.7481457"><ele>657.0</ele><time>2026-04-26T07:38:23.233Z</time></trkpt><trkpt lat="44.4332099" lon="10.7480822"><ele>657.0</ele><time>2026-04-26T07:38:24.232Z</time></trkpt><trkpt lat="44.4330904" lon="10.7480161"><ele>659.0</ele><time>2026-04-26T07:38:25.241Z</time></trkpt><trkpt lat="44.4329722" lon="10.7479222"><ele>661.0</ele><time>2026-04-26T07:38:26.233Z</time></trkpt><trkpt lat="44.4328547" lon="10.747806"><ele>663.0</ele><time>2026-04-26T07:38:27.231Z</time></trkpt><trkpt lat="44.4327343" lon="10.7476669"><ele>665.0</ele><time>2026-04-26T07:38:28.238Z</time></trkpt><trkpt lat="44.432607" lon="10.747518"><ele>665.0</ele><time>2026-04-26T07:38:29.231Z</time></trkpt><trkpt lat="44.432469" lon="10.7473669"><ele>665.0</ele><time>2026-04-26T07:38:30.235Z</time></trkpt><trkpt lat="44.4323258" lon="10.747223"><ele>665.0</ele><time>2026-04-26T07:38:31.231Z</time></trkpt><trkpt lat="44.4321779" lon="10.747085"><ele>666.3333333333333</ele><time>2026-04-26T07:38:32.24Z</time></trkpt><trkpt lat="44.4320316" lon="10.7469525"><ele>667.6666666666666</ele><time>2026-04-26T07:38:33.234Z</time></trkpt><trkpt lat="44.4318897" lon="10.7468279"><ele>669.0</ele><time>2026-04-26T07:38:34.244Z</time></trkpt><trkpt lat="44.431758" lon="10.7467057"><ele>669.0</ele><time>2026-04-26T07:38:35.244Z</time></trkpt><trkpt lat="44.4316273" lon="10.7465834"><ele>669.0</ele><time>2026-04-26T07:38:36.231Z</time></trkpt><trkpt lat="44.431501" lon="10.7464672"><ele>669.0</ele><time>2026-04-26T07:38:37.243Z</time></trkpt><trkpt lat="44.4313782" lon="10.7463566"><ele>671.0</ele><time>2026-04-26T07:38:38.237Z</time></trkpt><trkpt lat="44.4312595" lon="10.7462462"><ele>673.0</ele><time>2026-04-26T07:38:39.237Z</time></trkpt><trkpt lat="44.4311459" lon="10.7461291"><ele>675.0</ele><time>2026-04-26T07:38:40.243Z</time></trkpt><trkpt lat="44.4310419" lon="10.7460023"><ele>677.0</ele><time>2026-04-26T07:38:41.233Z</time></trkpt><trkpt lat="44.4309509" lon="10.7458637"><ele>677.0</ele><time>2026-04-26T07:38:42.245Z</time></trkpt><trkpt lat="44.4308695" lon="10.7457124"><ele>677.0</ele><time>2026-04-26T07:38:43.24Z</time></trkpt><trkpt lat="44.4307968" lon="10.74555"><ele>677.0</ele><time>2026-04-26T07:38:44.237Z</time></trkpt><trkpt lat="44.4307362" lon="10.745379"><ele>677.0</ele><time>2026-04-26T07:38:45.236Z</time></trkpt><trkpt lat="44.4306967" lon="10.7451982"><ele>677.25</ele><time>2026-04-26T07:38:46.235Z</time></trkpt><trkpt lat="44.4306878" lon="10.7450164"><ele>677.5</ele><time>2026-04-26T07:38:47.241Z</time></trkpt><trkpt lat="44.4307133" lon="10.7448432"><ele>677.75</ele><time>2026-04-26T07:38:48.235Z</time></trkpt><trkpt lat="44.4307657" lon="10.7446765"><ele>678.0</ele><time>2026-04-26T07:38:49.24Z</time></trkpt><trkpt lat="44.430831" lon="10.744507"><ele>681.3333333333334</ele><time>2026-04-26T07:38:50.235Z</time></trkpt><trkpt lat="44.4308983" lon="10.7443245"><ele>684.6666666666667</ele><time>2026-04-26T07:38:51.241Z</time></trkpt><trkpt lat="44.4309549" lon="10.7441246"><ele>688.0</ele><time>2026-04-26T07:38:52.235Z</time></trkpt><trkpt lat="44.4309927" lon="10.743913"><ele>688.0</ele><time>2026-04-26T07:38:53.241Z</time></trkpt><trkpt lat="44.4310028" lon="10.7437009"><ele>688.0</ele><time>2026-04-26T07:38:54.237Z</time></trkpt><trkpt lat="44.4309818" lon="10.7434856"><ele>688.0</ele><time>2026-04-26T07:38:55.239Z</time></trkpt><trkpt lat="44.4309442" lon="10.7432579"><ele>689.6666666666667</ele><time>2026-04-26T07:38:56.235Z</time></trkpt><trkpt lat="44.4309057" lon="10.7430152"><ele>691.3333333333334</ele><time>2026-04-26T07:38:57.233Z</time></trkpt><trkpt lat="44.4308769" lon="10.742787"><ele>693.0</ele><time>2026-04-26T07:38:58.243Z</time></trkpt><trkpt lat="44.4308505" lon="10.7425975"><ele>693.0</ele><time>2026-04-26T07:38:59.232Z</time></trkpt><trkpt lat="44.4308279" lon="10.7424433"><ele>693.0</ele><time>2026-04-26T07:39:00.233Z</time></trkpt><trkpt lat="44.4307759" lon="10.7423584"><ele>693.0</ele><time>2026-04-26T07:39:01.238Z</time></trkpt><trkpt lat="44.4307087" lon="10.7423335"><ele>693.0</ele><time>2026-04-26T07:39:02.245Z</time></trkpt><trkpt lat="44.4306323" lon="10.7423628"><ele>693.0</ele><time>2026-04-26T07:39:03.232Z</time></trkpt><trkpt lat="44.4305631" lon="10.7424476"><ele>693.0</ele><time>2026-04-26T07:39:04.296Z</time></trkpt><trkpt lat="44.4305078" lon="10.742578"><ele>693.0</ele><time>2026-04-26T07:39:05.238Z</time></trkpt><trkpt lat="44.4304666" lon="10.742741"><ele>693.0</ele><time>2026-04-26T07:39:06.237Z</time></trkpt><trkpt lat="44.4304532" lon="10.7429379"><ele>693.0</ele><time>2026-04-26T07:39:07.233Z</time></trkpt><trkpt lat="44.4304692" lon="10.7431485"><ele>693.0</ele><time>2026-04-26T07:39:08.236Z</time></trkpt><trkpt lat="44.4304846" lon="10.7433322"><ele>693.0</ele><time>2026-04-26T07:39:09.237Z</time></trkpt><trkpt lat="44.4304957" lon="10.743464"><ele>693.0</ele><time>2026-04-26T07:39:10.239Z</time></trkpt><trkpt lat="44.4304443" lon="10.7435759"><ele>693.0</ele><time>2026-04-26T07:39:11.24Z</time></trkpt><trkpt lat="44.4303842" lon="10.743653"><ele>693.0</ele><time>2026-04-26T07:39:12.232Z</time></trkpt><trkpt lat="44.4302531" lon="10.7436993"><ele>693.0</ele><time>2026-04-26T07:39:13.233Z</time></trkpt><trkpt lat="44.4301159" lon="10.7437315"><ele>695.2</ele><time>2026-04-26T07:39:14.235Z</time></trkpt><trkpt lat="44.4299918" lon="10.7437339"><ele>697.4</ele><time>2026-04-26T07:39:15.233Z</time></trkpt><trkpt lat="44.4298822" lon="10.7437084"><ele>699.6</ele><time>2026-04-26T07:39:16.245Z</time></trkpt><trkpt lat="44.4297946" lon="10.7436754"><ele>701.8000000000001</ele><time>2026-04-26T07:39:17.236Z</time></trkpt><trkpt lat="44.4297207" lon="10.7436461"><ele>704.0</ele><time>2026-04-26T07:39:18.24Z</time></trkpt><trkpt lat="44.429659" lon="10.7436242"><ele>704.4000000000001</ele><time>2026-04-26T07:39:19.236Z</time></trkpt><trkpt lat="44.4295607" lon="10.7436209"><ele>704.8</ele><time>2026-04-26T07:39:22.235Z</time></trkpt><trkpt lat="44.4294837" lon="10.7437445"><ele>705.2</ele><time>2026-04-26T07:39:24.245Z</time></trkpt><trkpt lat="44.4294451" lon="10.7438355"><ele>705.5999999999999</ele><time>2026-04-26T07:39:25.249Z</time></trkpt><trkpt lat="44.4294105" lon="10.7439335"><ele>706.0</ele><time>2026-04-26T07:39:26.235Z</time></trkpt><trkpt lat="44.4293765" lon="10.7440389"><ele>706.0</ele><time>2026-04-26T07:39:27.241Z</time></trkpt><trkpt lat="44.4293429" lon="10.7441415"><ele>706.0</ele><time>2026-04-26T07:39:28.232Z</time></trkpt><trkpt lat="44.4293154" lon="10.7442373"><ele>706.0</ele><time>2026-04-26T07:39:29.231Z</time></trkpt><trkpt lat="44.429291" lon="10.744339"><ele>706.0</ele><time>2026-04-26T07:39:30.232Z</time></trkpt><trkpt lat="44.4292749" lon="10.7444378"><ele>706.0</ele><time>2026-04-26T07:39:31.233Z</time></trkpt><trkpt lat="44.4292553" lon="10.7445309"><ele>706.0</ele><time>2026-04-26T07:39:32.236Z</time></trkpt><trkpt lat="44.4292138" lon="10.7446828"><ele>706.4</ele><time>2026-04-26T07:39:34.246Z</time></trkpt><trkpt lat="44.4291734" lon="10.7448237"><ele>706.8</ele><time>2026-04-26T07:39:36.233Z</time></trkpt><trkpt lat="44.4290982" lon="10.744905"><ele>707.1999999999999</ele><time>2026-04-26T07:39:38.228Z</time></trkpt><trkpt lat="44.4289885" lon="10.7449268"><ele>707.5999999999999</ele><time>2026-04-26T07:39:40.235Z</time></trkpt><trkpt lat="44.4289166" lon="10.7449259"><ele>708.0</ele><time>2026-04-26T07:39:41.233Z</time></trkpt><trkpt lat="44.4288382" lon="10.7449278"><ele>706.3333333333334</ele><time>2026-04-26T07:39:42.234Z</time></trkpt><trkpt lat="44.4287539" lon="10.7449367"><ele>704.6666666666666</ele><time>2026-04-26T07:39:43.234Z</time></trkpt><trkpt lat="44.4286665" lon="10.7449531"><ele>703.0</ele><time>2026-04-26T07:39:44.236Z</time></trkpt><trkpt lat="44.4285804" lon="10.7449817"><ele>701.3333333333333</ele><time>2026-04-26T07:39:45.232Z</time></trkpt><trkpt lat="44.428498" lon="10.7450123"><ele>699.6666666666666</ele><time>2026-04-26T07:39:46.232Z</time></trkpt><trkpt lat="44.4284168" lon="10.7450499"><ele>698.0</ele><time>2026-04-26T07:39:47.228Z</time></trkpt><trkpt lat="44.4283391" lon="10.7451048"><ele>698.0</ele><time>2026-04-26T07:39:48.231Z</time></trkpt><trkpt lat="44.4282814" lon="10.7451932"><ele>698.0</ele><time>2026-04-26T07:39:49.235Z</time></trkpt><trkpt lat="44.4282054" lon="10.7452436"><ele>698.0</ele><time>2026-04-26T07:39:50.232Z</time></trkpt><trkpt lat="44.428126" lon="10.7452734"><ele>698.0</ele><time>2026-04-26T07:39:51.234Z</time></trkpt><trkpt lat="44.4280436" lon="10.7453505"><ele>698.0</ele><time>2026-04-26T07:39:52.247Z</time></trkpt><trkpt lat="44.427959" lon="10.7453719"><ele>698.0</ele><time>2026-04-26T07:39:53.233Z</time></trkpt><trkpt lat="44.4278851" lon="10.7453845"><ele>698.4</ele><time>2026-04-26T07:39:54.236Z</time></trkpt><trkpt lat="44.4278059" lon="10.7453837"><ele>698.8</ele><time>2026-04-26T07:39:55.235Z</time></trkpt><trkpt lat="44.4277208" lon="10.745343"><ele>699.2</ele><time>2026-04-26T07:39:56.237Z</time></trkpt><trkpt lat="44.4276388" lon="10.7452788"><ele>699.6</ele><time>2026-04-26T07:39:57.227Z</time></trkpt><trkpt lat="44.427559" lon="10.745208"><ele>700.0</ele><time>2026-04-26T07:39:58.227Z</time></trkpt><trkpt lat="44.427464" lon="10.7451582"><ele>697.6</ele><time>2026-04-26T07:39:59.258Z</time></trkpt><trkpt lat="44.4273647" lon="10.7451224"><ele>695.2</ele><time>2026-04-26T07:40:00.232Z</time></trkpt><trkpt lat="44.4272558" lon="10.7451314"><ele>692.8</ele><time>2026-04-26T07:40:01.237Z</time></trkpt><trkpt lat="44.4271594" lon="10.745172"><ele>690.4</ele><time>2026-04-26T07:40:02.251Z</time></trkpt><trkpt lat="44.4270479" lon="10.7452204"><ele>688.0</ele><time>2026-04-26T07:40:03.254Z</time></trkpt><trkpt lat="44.4269077" lon="10.7453091"><ele>688.0</ele><time>2026-04-26T07:40:04.249Z</time></trkpt><trkpt lat="44.4267725" lon="10.7453792"><ele>688.0</ele><time>2026-04-26T07:40:05.242Z</time></trkpt><trkpt lat="44.4266194" lon="10.7454226"><ele>688.0</ele><time>2026-04-26T07:40:06.236Z</time></trkpt><trkpt lat="44.4264761" lon="10.7454416"><ele>688.0</ele><time>2026-04-26T07:40:07.237Z</time></trkpt><trkpt lat="44.4263522" lon="10.7454284"><ele>686.5999999999999</ele><time>2026-04-26T07:40:08.233Z</time></trkpt><trkpt lat="44.4262461" lon="10.7453722"><ele>685.1999999999999</ele><time>2026-04-26T07:40:09.251Z</time></trkpt><trkpt lat="44.4261602" lon="10.7452851"><ele>683.8</ele><time>2026-04-26T07:40:10.237Z</time></trkpt><trkpt lat="44.4260793" lon="10.7451978"><ele>682.4</ele><time>2026-04-26T07:40:11.236Z</time></trkpt><trkpt lat="44.426004" lon="10.7451271"><ele>681.0</ele><time>2026-04-26T07:40:12.233Z</time></trkpt><trkpt lat="44.42593" lon="10.745084"><ele>678.5999999999999</ele><time>2026-04-26T07:40:13.232Z</time></trkpt><trkpt lat="44.4258521" lon="10.7450765"><ele>676.2</ele><time>2026-04-26T07:40:14.237Z</time></trkpt><trkpt lat="44.425763" lon="10.7450983"><ele>673.8</ele><time>2026-04-26T07:40:15.242Z</time></trkpt><trkpt lat="44.4256606" lon="10.7451402"><ele>671.4000000000001</ele><time>2026-04-26T07:40:16.243Z</time></trkpt><trkpt lat="44.4255553" lon="10.7451922"><ele>669.0</ele><time>2026-04-26T07:40:17.233Z</time></trkpt><trkpt lat="44.4254525" lon="10.7452571"><ele>668.0</ele><time>2026-04-26T07:40:18.234Z</time></trkpt><trkpt lat="44.4253605" lon="10.7453408"><ele>667.0</ele><time>2026-04-26T07:40:19.234Z</time></trkpt><trkpt lat="44.4252832" lon="10.7454492"><ele>666.0</ele><time>2026-04-26T07:40:20.235Z</time></trkpt><trkpt lat="44.4252204" lon="10.7455816"><ele>665.0</ele><time>2026-04-26T07:40:21.234Z</time></trkpt><trkpt lat="44.4251646" lon="10.745735"><ele>665.0</ele><time>2026-04-26T07:40:22.233Z</time></trkpt><trkpt lat="44.4251132" lon="10.7458953"><ele>665.0</ele><time>2026-04-26T07:40:23.234Z</time></trkpt><trkpt lat="44.4250674" lon="10.7460533"><ele>665.0</ele><time>2026-04-26T07:40:24.227Z</time></trkpt><trkpt lat="44.4250283" lon="10.7462077"><ele>665.0</ele><time>2026-04-26T07:40:25.228Z</time></trkpt><trkpt lat="44.4249865" lon="10.7463534"><ele>665.2</ele><time>2026-04-26T07:40:26.235Z</time></trkpt><trkpt lat="44.4249431" lon="10.7464902"><ele>665.4</ele><time>2026-04-26T07:40:27.234Z</time></trkpt><trkpt lat="44.4249016" lon="10.7466262"><ele>665.5999999999999</ele><time>2026-04-26T07:40:28.239Z</time></trkpt><trkpt lat="44.4248614" lon="10.7467646"><ele>665.8</ele><time>2026-04-26T07:40:29.232Z</time></trkpt><trkpt lat="44.424807" lon="10.7469012"><ele>666.0</ele><time>2026-04-26T07:40:30.232Z</time></trkpt><trkpt lat="44.4247474" lon="10.747031"><ele>664.25</ele><time>2026-04-26T07:40:31.236Z</time></trkpt><trkpt lat="44.424659" lon="10.7471394"><ele>662.5</ele><time>2026-04-26T07:40:32.248Z</time></trkpt><trkpt lat="44.4245479" lon="10.7472033"><ele>660.75</ele><time>2026-04-26T07:40:33.235Z</time></trkpt><trkpt lat="44.4244495" lon="10.7472775"><ele>659.0</ele><time>2026-04-26T07:40:34.227Z</time></trkpt><trkpt lat="44.4243674" lon="10.7473754"><ele>659.0</ele><time>2026-04-26T07:40:35.233Z</time></trkpt><trkpt lat="44.4242886" lon="10.7474711"><ele>659.0</ele><time>2026-04-26T07:40:36.231Z</time></trkpt><trkpt lat="44.4242333" lon="10.747613"><ele>659.0</ele><time>2026-04-26T07:40:37.228Z</time></trkpt><trkpt lat="44.4241885" lon="10.7477607"><ele>659.0</ele><time>2026-04-26T07:40:38.229Z</time></trkpt><trkpt lat="44.4241425" lon="10.7479055"><ele>659.0</ele><time>2026-04-26T07:40:39.236Z</time></trkpt><trkpt lat="44.4240934" lon="10.7480458"><ele>661.6</ele><time>2026-04-26T07:40:40.23Z</time></trkpt><trkpt lat="44.4240456" lon="10.7481836"><ele>664.2</ele><time>2026-04-26T07:40:41.229Z</time></trkpt><trkpt lat="44.4239959" lon="10.7483166"><ele>666.8000000000001</ele><time>2026-04-26T07:40:42.228Z</time></trkpt><trkpt lat="44.423944" lon="10.7484444"><ele>669.4000000000001</ele><time>2026-04-26T07:40:43.232Z</time></trkpt><trkpt lat="44.4239038" lon="10.7485802"><ele>672.0</ele><time>2026-04-26T07:40:44.238Z</time></trkpt><trkpt lat="44.4238609" lon="10.7487203"><ele>670.6</ele><time>2026-04-26T07:40:45.228Z</time></trkpt><trkpt lat="44.4238094" lon="10.7488474"><ele>669.2</ele><time>2026-04-26T07:40:46.229Z</time></trkpt><trkpt lat="44.4237545" lon="10.7489691"><ele>667.8</ele><time>2026-04-26T07:40:47.241Z</time></trkpt><trkpt lat="44.4236912" lon="10.7490769"><ele>666.4</ele><time>2026-04-26T07:40:48.228Z</time></trkpt><trkpt lat="44.4236172" lon="10.7491662"><ele>665.0</ele><time>2026-04-26T07:40:49.248Z</time></trkpt><trkpt lat="44.4235293" lon="10.7492293"><ele>665.0</ele><time>2026-04-26T07:40:50.228Z</time></trkpt><trkpt lat="44.4234476" lon="10.7492695"><ele>665.0</ele><time>2026-04-26T07:40:51.229Z</time></trkpt><trkpt lat="44.4233501" lon="10.7492791"><ele>665.0</ele><time>2026-04-26T07:40:52.236Z</time></trkpt><trkpt lat="44.4232593" lon="10.7492741"><ele>665.0</ele><time>2026-04-26T07:40:53.237Z</time></trkpt><trkpt lat="44.4231642" lon="10.7492724"><ele>665.0</ele><time>2026-04-26T07:40:54.241Z</time></trkpt><trkpt lat="44.4230638" lon="10.7492513"><ele>664.6</ele><time>2026-04-26T07:40:55.232Z</time></trkpt><trkpt lat="44.4229648" lon="10.749219"><ele>664.2</ele><time>2026-04-26T07:40:56.24Z</time></trkpt><trkpt lat="44.4228734" lon="10.749185"><ele>663.8</ele><time>2026-04-26T07:40:57.234Z</time></trkpt><trkpt lat="44.4227872" lon="10.7491573"><ele>663.4</ele><time>2026-04-26T07:40:58.229Z</time></trkpt><trkpt lat="44.4227025" lon="10.7491375"><ele>663.0</ele><time>2026-04-26T07:40:59.233Z</time></trkpt><trkpt lat="44.4226095" lon="10.7491339"><ele>663.0</ele><time>2026-04-26T07:41:00.241Z</time></trkpt><trkpt lat="44.4225104" lon="10.749137"><ele>663.0</ele><time>2026-04-26T07:41:01.236Z</time></trkpt><trkpt lat="44.422409" lon="10.749149"><ele>663.0</ele><time>2026-04-26T07:41:02.233Z</time></trkpt><trkpt lat="44.4223133" lon="10.7491634"><ele>663.0</ele><time>2026-04-26T07:41:03.229Z</time></trkpt><trkpt lat="44.4222227" lon="10.7491779"><ele>663.0</ele><time>2026-04-26T07:41:04.239Z</time></trkpt><trkpt lat="44.4221413" lon="10.7491953"><ele>662.4285714285713</ele><time>2026-04-26T07:41:05.235Z</time></trkpt><trkpt lat="44.4220688" lon="10.7492123"><ele>661.8571428571429</ele><time>2026-04-26T07:41:06.229Z</time></trkpt><trkpt lat="44.4219979" lon="10.749231"><ele>661.2857142857142</ele><time>2026-04-26T07:41:07.231Z</time></trkpt><trkpt lat="44.4219257" lon="10.7492488"><ele>660.7142857142857</ele><time>2026-04-26T07:41:08.235Z</time></trkpt><trkpt lat="44.4218545" lon="10.7492656"><ele>660.1428571428571</ele><time>2026-04-26T07:41:09.238Z</time></trkpt><trkpt lat="44.4217805" lon="10.7492676"><ele>659.5714285714286</ele><time>2026-04-26T07:41:10.236Z</time></trkpt><trkpt lat="44.4217086" lon="10.7492534"><ele>659.0</ele><time>2026-04-26T07:41:11.237Z</time></trkpt><trkpt lat="44.4216439" lon="10.7492107"><ele>659.0</ele><time>2026-04-26T07:41:12.233Z</time></trkpt><trkpt lat="44.4215756" lon="10.7491632"><ele>659.0</ele><time>2026-04-26T07:41:13.236Z</time></trkpt><trkpt lat="44.4214992" lon="10.7491246"><ele>659.0</ele><time>2026-04-26T07:41:14.257Z</time></trkpt><trkpt lat="44.4214195" lon="10.7490987"><ele>659.0</ele><time>2026-04-26T07:41:15.231Z</time></trkpt><trkpt lat="44.4213405" lon="10.7490833"><ele>659.0</ele><time>2026-04-26T07:41:16.232Z</time></trkpt><trkpt lat="44.4212652" lon="10.7490738"><ele>659.0</ele><time>2026-04-26T07:41:17.233Z</time></trkpt><trkpt lat="44.4211581" lon="10.7490556"><ele>657.8333333333333</ele><time>2026-04-26T07:41:19.231Z</time></trkpt><trkpt lat="44.4210734" lon="10.7490959"><ele>656.6666666666666</ele><time>2026-04-26T07:41:21.233Z</time></trkpt><trkpt lat="44.4210163" lon="10.7492201"><ele>655.5</ele><time>2026-04-26T07:41:23.235Z</time></trkpt><trkpt lat="44.420971" lon="10.7493707"><ele>654.3333333333334</ele><time>2026-04-26T07:41:25.229Z</time></trkpt><trkpt lat="44.4209443" lon="10.7494622"><ele>653.1666666666667</ele><time>2026-04-26T07:41:26.233Z</time></trkpt><trkpt lat="44.4209097" lon="10.7495404"><ele>652.0</ele><time>2026-04-26T07:41:27.237Z</time></trkpt><trkpt lat="44.4208771" lon="10.7496506"><ele>651.5</ele><time>2026-04-26T07:41:28.231Z</time></trkpt><trkpt lat="44.4208473" lon="10.7497677"><ele>651.0</ele><time>2026-04-26T07:41:29.232Z</time></trkpt><trkpt lat="44.4208247" lon="10.7498722"><ele>650.5</ele><time>2026-04-26T07:41:30.239Z</time></trkpt><trkpt lat="44.4208138" lon="10.749999"><ele>650.0</ele><time>2026-04-26T07:41:31.231Z</time></trkpt><trkpt lat="44.4208059" lon="10.7501237"><ele>649.5</ele><time>2026-04-26T07:41:32.229Z</time></trkpt><trkpt lat="44.4207994" lon="10.7502495"><ele>649.0</ele><time>2026-04-26T07:41:33.235Z</time></trkpt><trkpt lat="44.4207988" lon="10.7503768"><ele>648.8333333333334</ele><time>2026-04-26T07:41:34.227Z</time></trkpt><trkpt lat="44.4207977" lon="10.7505063"><ele>648.6666666666667</ele><time>2026-04-26T07:41:35.241Z</time></trkpt><trkpt lat="44.4208039" lon="10.7506268"><ele>648.5</ele><time>2026-04-26T07:41:36.228Z</time></trkpt><trkpt lat="44.4207999" lon="10.7507485"><ele>648.3333333333334</ele><time>2026-04-26T07:41:37.231Z</time></trkpt><trkpt lat="44.4207862" lon="10.7508548"><ele>648.1666666666666</ele><time>2026-04-26T07:41:38.24Z</time></trkpt><trkpt lat="44.4207582" lon="10.7509483"><ele>648.0</ele><time>2026-04-26T07:41:39.242Z</time></trkpt><trkpt lat="44.4207184" lon="10.7510919"><ele>648.0</ele><time>2026-04-26T07:41:41.229Z</time></trkpt><trkpt lat="44.4206289" lon="10.7511788"><ele>648.0</ele><time>2026-04-26T07:41:43.233Z</time></trkpt><trkpt lat="44.4205437" lon="10.7512313"><ele>648.0</ele><time>2026-04-26T07:41:44.236Z</time></trkpt><trkpt lat="44.4204634" lon="10.7512965"><ele>648.0</ele><time>2026-04-26T07:41:45.234Z</time></trkpt><trkpt lat="44.4203789" lon="10.751365"><ele>648.0</ele><time>2026-04-26T07:41:46.235Z</time></trkpt><trkpt lat="44.4202874" lon="10.7514455"><ele>643.8</ele><time>2026-04-26T07:41:47.231Z</time></trkpt><trkpt lat="44.4201975" lon="10.7515369"><ele>639.5999999999999</ele><time>2026-04-26T07:41:48.232Z</time></trkpt><trkpt lat="44.4201" lon="10.7516299"><ele>635.4000000000001</ele><time>2026-04-26T07:41:49.232Z</time></trkpt><trkpt lat="44.4200059" lon="10.7517153"><ele>631.2</ele><time>2026-04-26T07:41:50.23Z</time></trkpt><trkpt lat="44.4199211" lon="10.7517928"><ele>627.0</ele><time>2026-04-26T07:41:51.249Z</time></trkpt><trkpt lat="44.4198386" lon="10.7518577"><ele>626.4</ele><time>2026-04-26T07:41:52.239Z</time></trkpt><trkpt lat="44.4197601" lon="10.7519106"><ele>625.8000000000001</ele><time>2026-04-26T07:41:53.237Z</time></trkpt><trkpt lat="44.4196934" lon="10.7519518"><ele>625.2</ele><time>2026-04-26T07:41:54.232Z</time></trkpt><trkpt lat="44.4196036" lon="10.7521157"><ele>624.6</ele><time>2026-04-26T07:41:56.236Z</time></trkpt><trkpt lat="44.4195594" lon="10.7522276"><ele>624.0</ele><time>2026-04-26T07:41:57.229Z</time></trkpt><trkpt lat="44.4195242" lon="10.7523429"><ele>622.1666666666666</ele><time>2026-04-26T07:41:58.228Z</time></trkpt><trkpt lat="44.4194937" lon="10.7524361"><ele>620.3333333333334</ele><time>2026-04-26T07:41:59.232Z</time></trkpt><trkpt lat="44.4195094" lon="10.7525811"><ele>618.5</ele><time>2026-04-26T07:42:01.239Z</time></trkpt><trkpt lat="44.4195277" lon="10.7526813"><ele>616.6666666666667</ele><time>2026-04-26T07:42:02.237Z</time></trkpt><trkpt lat="44.4195687" lon="10.7527809"><ele>614.8333333333334</ele><time>2026-04-26T07:42:03.233Z</time></trkpt><trkpt lat="44.4196268" lon="10.7528991"><ele>613.0</ele><time>2026-04-26T07:42:04.229Z</time></trkpt><trkpt lat="44.4196749" lon="10.7530218"><ele>613.0</ele><time>2026-04-26T07:42:05.242Z</time></trkpt><trkpt lat="44.4197095" lon="10.7531421"><ele>613.0</ele><time>2026-04-26T07:42:06.235Z</time></trkpt><trkpt lat="44.4197477" lon="10.7532629"><ele>613.0</ele><time>2026-04-26T07:42:07.236Z</time></trkpt><trkpt lat="44.4197821" lon="10.7533732"><ele>613.0</ele><time>2026-04-26T07:42:08.231Z</time></trkpt><trkpt lat="44.419816" lon="10.7534772"><ele>613.0</ele><time>2026-04-26T07:42:09.227Z</time></trkpt><trkpt lat="44.4198593" lon="10.7535706"><ele>613.0</ele><time>2026-04-26T07:42:10.23Z</time></trkpt><trkpt lat="44.4199114" lon="10.7536658"><ele>611.0</ele><time>2026-04-26T07:42:11.228Z</time></trkpt><trkpt lat="44.4199763" lon="10.7537533"><ele>609.0</ele><time>2026-04-26T07:42:12.229Z</time></trkpt><trkpt lat="44.4200436" lon="10.7538625"><ele>607.0</ele><time>2026-04-26T07:42:13.235Z</time></trkpt><trkpt lat="44.4201019" lon="10.7539691"><ele>605.0</ele><time>2026-04-26T07:42:14.231Z</time></trkpt><trkpt lat="44.4201528" lon="10.754054"><ele>603.0</ele><time>2026-04-26T07:42:15.228Z</time></trkpt><trkpt lat="44.4201911" lon="10.7541272"><ele>601.0</ele><time>2026-04-26T07:42:16.227Z</time></trkpt><trkpt lat="44.4202134" lon="10.7542225"><ele>601.0</ele><time>2026-04-26T07:42:17.233Z</time></trkpt><trkpt lat="44.4202022" lon="10.7543359"><ele>601.0</ele><time>2026-04-26T07:42:18.241Z</time></trkpt><trkpt lat="44.4201614" lon="10.7544499"><ele>601.0</ele><time>2026-04-26T07:42:19.226Z</time></trkpt><trkpt lat="44.4201123" lon="10.7545872"><ele>601.0</ele><time>2026-04-26T07:42:20.246Z</time></trkpt><trkpt lat="44.4200609" lon="10.7547438"><ele>601.0</ele><time>2026-04-26T07:42:21.234Z</time></trkpt><trkpt lat="44.42002" lon="10.7548792"><ele>601.6</ele><time>2026-04-26T07:42:22.229Z</time></trkpt><trkpt lat="44.4199782" lon="10.7549907"><ele>602.2</ele><time>2026-04-26T07:42:23.231Z</time></trkpt><trkpt lat="44.4199177" lon="10.7550852"><ele>602.8</ele><time>2026-04-26T07:42:24.227Z</time></trkpt><trkpt lat="44.4198442" lon="10.7551851"><ele>603.4</ele><time>2026-04-26T07:42:25.229Z</time></trkpt><trkpt lat="44.4197744" lon="10.7552733"><ele>604.0</ele><time>2026-04-26T07:42:26.226Z</time></trkpt><trkpt lat="44.4197034" lon="10.7553478"><ele>599.6</ele><time>2026-04-26T07:42:27.228Z</time></trkpt><trkpt lat="44.4196493" lon="10.7554059"><ele>595.2</ele><time>2026-04-26T07:42:28.245Z</time></trkpt><trkpt lat="44.419587" lon="10.755553"><ele>590.8000000000001</ele><time>2026-04-26T07:42:30.236Z</time></trkpt><trkpt lat="44.4195691" lon="10.7557166"><ele>586.4</ele><time>2026-04-26T07:42:32.229Z</time></trkpt><trkpt lat="44.4195571" lon="10.7558091"><ele>582.0</ele><time>2026-04-26T07:42:33.23Z</time></trkpt><trkpt lat="44.4195269" lon="10.7559689"><ele>584.4</ele><time>2026-04-26T07:42:35.232Z</time></trkpt><trkpt lat="44.4194447" lon="10.7561082"><ele>586.8000000000001</ele><time>2026-04-26T07:42:37.233Z</time></trkpt><trkpt lat="44.419379" lon="10.7561753"><ele>589.2</ele><time>2026-04-26T07:42:38.228Z</time></trkpt><trkpt lat="44.4192966" lon="10.756231"><ele>591.6</ele><time>2026-04-26T07:42:39.23Z</time></trkpt><trkpt lat="44.4192095" lon="10.7562828"><ele>594.0</ele><time>2026-04-26T07:42:40.24Z</time></trkpt><trkpt lat="44.4191304" lon="10.7563495"><ele>594.0</ele><time>2026-04-26T07:42:41.23Z</time></trkpt><trkpt lat="44.419053" lon="10.756407"><ele>594.0</ele><time>2026-04-26T07:42:42.231Z</time></trkpt><trkpt lat="44.4189802" lon="10.7564537"><ele>594.0</ele><time>2026-04-26T07:42:43.232Z</time></trkpt><trkpt lat="44.4189124" lon="10.7564913"><ele>594.0</ele><time>2026-04-26T07:42:44.226Z</time></trkpt><trkpt lat="44.4188378" lon="10.7565275"><ele>594.0</ele><time>2026-04-26T07:42:45.237Z</time></trkpt><trkpt lat="44.4187635" lon="10.7565566"><ele>594.0</ele><time>2026-04-26T07:42:46.229Z</time></trkpt><trkpt lat="44.4186927" lon="10.7565815"><ele>591.5</ele><time>2026-04-26T07:42:47.232Z</time></trkpt><trkpt lat="44.4186273" lon="10.7566013"><ele>589.0</ele><time>2026-04-26T07:42:48.227Z</time></trkpt><trkpt lat="44.4185066" lon="10.7566058"><ele>586.5</ele><time>2026-04-26T07:42:50.238Z</time></trkpt><trkpt lat="44.4184035" lon="10.7566664"><ele>584.0</ele><time>2026-04-26T07:42:52.246Z</time></trkpt><trkpt lat="44.4183582" lon="10.7567324"><ele>581.5</ele><time>2026-04-26T07:42:53.25Z</time></trkpt><trkpt lat="44.4183169" lon="10.7568211"><ele>579.0</ele><time>2026-04-26T07:42:54.233Z</time></trkpt><trkpt lat="44.4182757" lon="10.7569245"><ele>579.0</ele><time>2026-04-26T07:42:55.231Z</time></trkpt><trkpt lat="44.4182307" lon="10.7570359"><ele>579.0</ele><time>2026-04-26T07:42:56.24Z</time></trkpt><trkpt lat="44.418185" lon="10.7571494"><ele>579.0</ele><time>2026-04-26T07:42:57.237Z</time></trkpt><trkpt lat="44.4181414" lon="10.7572561"><ele>579.0</ele><time>2026-04-26T07:42:58.241Z</time></trkpt><trkpt lat="44.4181023" lon="10.7573531"><ele>579.0</ele><time>2026-04-26T07:42:59.232Z</time></trkpt><trkpt lat="44.4180576" lon="10.7574543"><ele>579.0</ele><time>2026-04-26T07:43:00.233Z</time></trkpt><trkpt lat="44.4180143" lon="10.7575592"><ele>575.0</ele><time>2026-04-26T07:43:01.235Z</time></trkpt><trkpt lat="44.4179722" lon="10.7576712"><ele>571.0</ele><time>2026-04-26T07:43:02.237Z</time></trkpt><trkpt lat="44.417933" lon="10.7577855"><ele>567.0</ele><time>2026-04-26T07:43:03.239Z</time></trkpt><trkpt lat="44.4179017" lon="10.7579009"><ele>563.0</ele><time>2026-04-26T07:43:04.237Z</time></trkpt><trkpt lat="44.417864" lon="10.758019"><ele>559.0</ele><time>2026-04-26T07:43:05.233Z</time></trkpt><trkpt lat="44.4178218" lon="10.7581222"><ele>555.0</ele><time>2026-04-26T07:43:06.23Z</time></trkpt><trkpt lat="44.4177794" lon="10.7582153"><ele>555.0</ele><time>2026-04-26T07:43:07.232Z</time></trkpt><trkpt lat="44.4177386" lon="10.7583028"><ele>555.0</ele><time>2026-04-26T07:43:08.239Z</time></trkpt><trkpt lat="44.417698" lon="10.7583927"><ele>555.0</ele><time>2026-04-26T07:43:09.231Z</time></trkpt><trkpt lat="44.417655" lon="10.7584733"><ele>555.0</ele><time>2026-04-26T07:43:10.228Z</time></trkpt><trkpt lat="44.4175725" lon="10.7585725"><ele>555.0</ele><time>2026-04-26T07:43:12.229Z</time></trkpt><trkpt lat="44.4175042" lon="10.7586257"><ele>555.0</ele><time>2026-04-26T07:43:14.233Z</time></trkpt><trkpt lat="44.4174437" lon="10.7586782"><ele>553.1666666666666</ele><time>2026-04-26T07:43:16.234Z</time></trkpt><trkpt lat="44.4173742" lon="10.7587397"><ele>551.3333333333334</ele><time>2026-04-26T07:43:18.234Z</time></trkpt><trkpt lat="44.4172987" lon="10.7588245"><ele>549.5</ele><time>2026-04-26T07:43:20.232Z</time></trkpt><trkpt lat="44.4172352" lon="10.7589207"><ele>547.6666666666667</ele><time>2026-04-26T07:43:22.23Z</time></trkpt><trkpt lat="44.4171824" lon="10.7590114"><ele>545.8333333333334</ele><time>2026-04-26T07:43:24.234Z</time></trkpt><trkpt lat="44.4171431" lon="10.7591082"><ele>544.0</ele><time>2026-04-26T07:43:26.232Z</time></trkpt><trkpt lat="44.4170997" lon="10.7592233"><ele>544.0</ele><time>2026-04-26T07:43:28.251Z</time></trkpt><trkpt lat="44.417049" lon="10.7593415"><ele>544.0</ele><time>2026-04-26T07:43:30.237Z</time></trkpt><trkpt lat="44.4169904" lon="10.7594515"><ele>544.0</ele><time>2026-04-26T07:43:32.232Z</time></trkpt><trkpt lat="44.41693" lon="10.7595584"><ele>544.0</ele><time>2026-04-26T07:43:34.232Z</time></trkpt><trkpt lat="44.4168811" lon="10.7596764"><ele>544.0</ele><time>2026-04-26T07:43:36.231Z</time></trkpt><trkpt lat="44.4168644" lon="10.7597642"><ele>544.8</ele><time>2026-04-26T07:43:37.229Z</time></trkpt><trkpt lat="44.4168514" lon="10.7598563"><ele>545.5999999999999</ele><time>2026-04-26T07:43:38.228Z</time></trkpt><trkpt lat="44.4168378" lon="10.7599483"><ele>546.4</ele><time>2026-04-26T07:43:39.232Z</time></trkpt><trkpt lat="44.4168178" lon="10.7601189"><ele>547.1999999999999</ele><time>2026-04-26T07:43:41.23Z</time></trkpt><trkpt lat="44.4167927" lon="10.760278"><ele>548.0</ele><time>2026-04-26T07:43:43.23Z</time></trkpt><trkpt lat="44.4167507" lon="10.7604351"><ele>549.8</ele><time>2026-04-26T07:43:45.238Z</time></trkpt><trkpt lat="44.4167167" lon="10.7605214"><ele>551.5999999999999</ele><time>2026-04-26T07:43:46.227Z</time></trkpt><trkpt lat="44.4166744" lon="10.7606056"><ele>553.4000000000001</ele><time>2026-04-26T07:43:47.237Z</time></trkpt><trkpt lat="44.416632" lon="10.7606823"><ele>555.2</ele><time>2026-04-26T07:43:48.227Z</time></trkpt><trkpt lat="44.4165547" lon="10.7608031"><ele>557.0</ele><time>2026-04-26T07:43:50.229Z</time></trkpt><trkpt lat="44.4164665" lon="10.7609277"><ele>557.0</ele><time>2026-04-26T07:43:52.231Z</time></trkpt><trkpt lat="44.4164176" lon="10.7610028"><ele>557.0</ele><time>2026-04-26T07:43:53.235Z</time></trkpt><trkpt lat="44.4163688" lon="10.7610798"><ele>557.0</ele><time>2026-04-26T07:43:54.228Z</time></trkpt><trkpt lat="44.4163298" lon="10.7611664"><ele>557.0</ele><time>2026-04-26T07:43:55.228Z</time></trkpt><trkpt lat="44.4162878" lon="10.7612557"><ele>557.0</ele><time>2026-04-26T07:43:56.232Z</time></trkpt><trkpt lat="44.4162418" lon="10.7613462"><ele>557.0</ele><time>2026-04-26T07:43:57.231Z</time></trkpt><trkpt lat="44.4161933" lon="10.7614513"><ele>553.0</ele><time>2026-04-26T07:43:58.237Z</time></trkpt><trkpt lat="44.4161486" lon="10.7615656"><ele>549.0</ele><time>2026-04-26T07:43:59.224Z</time></trkpt><trkpt lat="44.4161093" lon="10.7616753"><ele>545.0</ele><time>2026-04-26T07:44:00.231Z</time></trkpt><trkpt lat="44.4160697" lon="10.7617843"><ele>541.0</ele><time>2026-04-26T07:44:01.235Z</time></trkpt><trkpt lat="44.4160266" lon="10.7618892"><ele>537.0</ele><time>2026-04-26T07:44:02.23Z</time></trkpt><trkpt lat="44.4159849" lon="10.762"><ele>533.0</ele><time>2026-04-26T07:44:03.231Z</time></trkpt><trkpt lat="44.4159431" lon="10.7621264"><ele>533.0</ele><time>2026-04-26T07:44:04.227Z</time></trkpt><trkpt lat="44.4159076" lon="10.7622505"><ele>533.0</ele><time>2026-04-26T07:44:05.232Z</time></trkpt><trkpt lat="44.415883" lon="10.7623751"><ele>533.0</ele><time>2026-04-26T07:44:06.231Z</time></trkpt><trkpt lat="44.4158569" lon="10.7624866"><ele>533.0</ele><time>2026-04-26T07:44:07.228Z</time></trkpt><trkpt lat="44.4158286" lon="10.7625934"><ele>533.0</ele><time>2026-04-26T07:44:08.231Z</time></trkpt><trkpt lat="44.4157812" lon="10.7626946"><ele>533.0</ele><time>2026-04-26T07:44:09.235Z</time></trkpt><trkpt lat="44.4157354" lon="10.7627932"><ele>533.3333333333333</ele><time>2026-04-26T07:44:10.233Z</time></trkpt><trkpt lat="44.4156908" lon="10.7628946"><ele>533.6666666666666</ele><time>2026-04-26T07:44:11.231Z</time></trkpt><trkpt lat="44.4156431" lon="10.7629863"><ele>534.0</ele><time>2026-04-26T07:44:12.24Z</time></trkpt><trkpt lat="44.4155958" lon="10.7630737"><ele>534.3333333333334</ele><time>2026-04-26T07:44:13.232Z</time></trkpt><trkpt lat="44.4155377" lon="10.7631587"><ele>534.6666666666667</ele><time>2026-04-26T07:44:14.23Z</time></trkpt><trkpt lat="44.415463" lon="10.7632386"><ele>535.0</ele><time>2026-04-26T07:44:15.227Z</time></trkpt><trkpt lat="44.4153854" lon="10.7633123"><ele>532.2</ele><time>2026-04-26T07:44:16.229Z</time></trkpt><trkpt lat="44.4152916" lon="10.7633499"><ele>529.4</ele><time>2026-04-26T07:44:17.227Z</time></trkpt><trkpt lat="44.4152056" lon="10.7633716"><ele>526.6</ele><time>2026-04-26T07:44:18.23Z</time></trkpt><trkpt lat="44.4151303" lon="10.7634344"><ele>523.8</ele><time>2026-04-26T07:44:19.231Z</time></trkpt><trkpt lat="44.4150625" lon="10.7635303"><ele>521.0</ele><time>2026-04-26T07:44:20.229Z</time></trkpt><trkpt lat="44.4149914" lon="10.7636307"><ele>521.0</ele><time>2026-04-26T07:44:21.242Z</time></trkpt><trkpt lat="44.4149199" lon="10.7637352"><ele>521.0</ele><time>2026-04-26T07:44:22.238Z</time></trkpt><trkpt lat="44.414849" lon="10.7638314"><ele>521.0</ele><time>2026-04-26T07:44:23.229Z</time></trkpt><trkpt lat="44.4147802" lon="10.7639189"><ele>521.0</ele><time>2026-04-26T07:44:24.237Z</time></trkpt><trkpt lat="44.4147085" lon="10.7639917"><ele>521.0</ele><time>2026-04-26T07:44:25.234Z</time></trkpt><trkpt lat="44.4146368" lon="10.7640629"><ele>523.0</ele><time>2026-04-26T07:44:26.241Z</time></trkpt><trkpt lat="44.4145345" lon="10.7641151"><ele>525.0</ele><time>2026-04-26T07:44:27.232Z</time></trkpt><trkpt lat="44.4144271" lon="10.7641693"><ele>527.0</ele><time>2026-04-26T07:44:28.237Z</time></trkpt><trkpt lat="44.4143065" lon="10.7642372"><ele>529.0</ele><time>2026-04-26T07:44:29.233Z</time></trkpt><trkpt lat="44.4141946" lon="10.7643113"><ele>529.6</ele><time>2026-04-26T07:44:30.234Z</time></trkpt><trkpt lat="44.4141" lon="10.7643952"><ele>530.2</ele><time>2026-04-26T07:44:31.227Z</time></trkpt><trkpt lat="44.4140062" lon="10.764496"><ele>530.8000000000001</ele><time>2026-04-26T07:44:32.225Z</time></trkpt><trkpt lat="44.4139134" lon="10.7645987"><ele>531.4</ele><time>2026-04-26T07:44:33.231Z</time></trkpt><trkpt lat="44.4138263" lon="10.7646565"><ele>532.0</ele><time>2026-04-26T07:44:34.235Z</time></trkpt><trkpt lat="44.4137446" lon="10.7647131"><ele>534.2</ele><time>2026-04-26T07:44:35.228Z</time></trkpt><trkpt lat="44.4136561" lon="10.7647198"><ele>536.4000000000001</ele><time>2026-04-26T07:44:36.239Z</time></trkpt><trkpt lat="44.4135611" lon="10.7646985"><ele>538.5999999999999</ele><time>2026-04-26T07:44:37.231Z</time></trkpt><trkpt lat="44.413468" lon="10.7647111"><ele>540.8</ele><time>2026-04-26T07:44:38.227Z</time></trkpt><trkpt lat="44.4133771" lon="10.7647457"><ele>543.0</ele><time>2026-04-26T07:44:39.24Z</time></trkpt><trkpt lat="44.4132824" lon="10.7647916"><ele>543.0</ele><time>2026-04-26T07:44:40.224Z</time></trkpt><trkpt lat="44.4132032" lon="10.7648432"><ele>543.0</ele><time>2026-04-26T07:44:41.233Z</time></trkpt><trkpt lat="44.413138" lon="10.7648799"><ele>543.0</ele><time>2026-04-26T07:44:42.225Z</time></trkpt><trkpt lat="44.4130523" lon="10.7648281"><ele>543.0</ele><time>2026-04-26T07:44:44.231Z</time></trkpt><trkpt lat="44.4130475" lon="10.7647294"><ele>543.0</ele><time>2026-04-26T07:44:46.236Z</time></trkpt><trkpt lat="44.4130852" lon="10.7645294"><ele>543.0</ele><time>2026-04-26T07:44:48.231Z</time></trkpt><trkpt lat="44.4131319" lon="10.764382"><ele>543.0</ele><time>2026-04-26T07:44:49.238Z</time></trkpt><trkpt lat="44.4131797" lon="10.76423"><ele>543.0</ele><time>2026-04-26T07:44:50.231Z</time></trkpt><trkpt lat="44.4132184" lon="10.764101"><ele>543.0</ele><time>2026-04-26T07:44:51.227Z</time></trkpt><trkpt lat="44.4132319" lon="10.7639887"><ele>543.0</ele><time>2026-04-26T07:44:52.231Z</time></trkpt><trkpt lat="44.4132288" lon="10.7638639"><ele>544.4</ele><time>2026-04-26T07:44:53.239Z</time></trkpt><trkpt lat="44.4132039" lon="10.7637279"><ele>545.8</ele><time>2026-04-26T07:44:54.23Z</time></trkpt><trkpt lat="44.413176" lon="10.7636046"><ele>547.2</ele><time>2026-04-26T07:44:55.238Z</time></trkpt><trkpt lat="44.4131272" lon="10.763493"><ele>548.6</ele><time>2026-04-26T07:44:56.234Z</time></trkpt><trkpt lat="44.4130671" lon="10.7633846"><ele>550.0</ele><time>2026-04-26T07:44:57.231Z</time></trkpt><trkpt lat="44.4130088" lon="10.7632835"><ele>553.1666666666667</ele><time>2026-04-26T07:44:58.232Z</time></trkpt><trkpt lat="44.4129527" lon="10.7632268"><ele>556.3333333333334</ele><time>2026-04-26T07:44:59.238Z</time></trkpt><trkpt lat="44.4128449" lon="10.7631984"><ele>559.5</ele><time>2026-04-26T07:45:01.242Z</time></trkpt><trkpt lat="44.4127797" lon="10.7632304"><ele>562.6666666666666</ele><time>2026-04-26T07:45:02.228Z</time></trkpt><trkpt lat="44.4127124" lon="10.7632898"><ele>565.8333333333333</ele><time>2026-04-26T07:45:03.239Z</time></trkpt><trkpt lat="44.4126434" lon="10.7633788"><ele>569.0</ele><time>2026-04-26T07:45:04.236Z</time></trkpt><trkpt lat="44.4125909" lon="10.7634543"><ele>569.0</ele><time>2026-04-26T07:45:05.227Z</time></trkpt><trkpt lat="44.41253" lon="10.7635256"><ele>569.0</ele><time>2026-04-26T07:45:06.232Z</time></trkpt><trkpt lat="44.4124191" lon="10.7634855"><ele>569.0</ele><time>2026-04-26T07:45:08.231Z</time></trkpt><trkpt lat="44.4123419" lon="10.7634095"><ele>569.0</ele><time>2026-04-26T07:45:09.234Z</time></trkpt><trkpt lat="44.4122397" lon="10.7633545"><ele>569.0</ele><time>2026-04-26T07:45:10.231Z</time></trkpt><trkpt lat="44.412144" lon="10.7633095"><ele>572.6</ele><time>2026-04-26T07:45:11.231Z</time></trkpt><trkpt lat="44.4120461" lon="10.7633075"><ele>576.2</ele><time>2026-04-26T07:45:12.231Z</time></trkpt><trkpt lat="44.4119505" lon="10.7633157"><ele>579.8000000000001</ele><time>2026-04-26T07:45:13.227Z</time></trkpt><trkpt lat="44.4118636" lon="10.7633269"><ele>583.4</ele><time>2026-04-26T07:45:14.228Z</time></trkpt><trkpt lat="44.4117702" lon="10.7633033"><ele>587.0</ele><time>2026-04-26T07:45:15.234Z</time></trkpt><trkpt lat="44.4116664" lon="10.7632356"><ele>587.0</ele><time>2026-04-26T07:45:16.227Z</time></trkpt><trkpt lat="44.4115673" lon="10.7631712"><ele>587.0</ele><time>2026-04-26T07:45:17.237Z</time></trkpt><trkpt lat="44.4114739" lon="10.7631235"><ele>587.0</ele><time>2026-04-26T07:45:18.232Z</time></trkpt><trkpt lat="44.4113943" lon="10.763095"><ele>587.0</ele><time>2026-04-26T07:45:19.231Z</time></trkpt><trkpt lat="44.4113162" lon="10.7630984"><ele>587.0</ele><time>2026-04-26T07:45:20.24Z</time></trkpt><trkpt lat="44.4112379" lon="10.7631086"><ele>587.0</ele><time>2026-04-26T07:45:21.233Z</time></trkpt><trkpt lat="44.4111736" lon="10.7631553"><ele>588.8333333333333</ele><time>2026-04-26T07:45:22.242Z</time></trkpt><trkpt lat="44.4111023" lon="10.7631967"><ele>590.6666666666666</ele><time>2026-04-26T07:45:23.245Z</time></trkpt><trkpt lat="44.4110269" lon="10.7632105"><ele>592.5</ele><time>2026-04-26T07:45:24.232Z</time></trkpt><trkpt lat="44.4109515" lon="10.7632117"><ele>594.3333333333334</ele><time>2026-04-26T07:45:25.245Z</time></trkpt><trkpt lat="44.4108714" lon="10.7632658"><ele>596.1666666666667</ele><time>2026-04-26T07:45:26.239Z</time></trkpt><trkpt lat="44.4107949" lon="10.7633215"><ele>598.0</ele><time>2026-04-26T07:45:27.236Z</time></trkpt><trkpt lat="44.4107156" lon="10.7634112"><ele>598.0</ele><time>2026-04-26T07:45:28.248Z</time></trkpt><trkpt lat="44.4106008" lon="10.7635012"><ele>598.0</ele><time>2026-04-26T07:45:29.236Z</time></trkpt><trkpt lat="44.4104872" lon="10.7635923"><ele>598.0</ele><time>2026-04-26T07:45:30.232Z</time></trkpt><trkpt lat="44.4103743" lon="10.7636742"><ele>598.0</ele><time>2026-04-26T07:45:31.233Z</time></trkpt><trkpt lat="44.4102632" lon="10.7637196"><ele>599.5</ele><time>2026-04-26T07:45:32.238Z</time></trkpt><trkpt lat="44.4101417" lon="10.7637283"><ele>601.0</ele><time>2026-04-26T07:45:33.228Z</time></trkpt><trkpt lat="44.4100075" lon="10.7637126"><ele>602.5</ele><time>2026-04-26T07:45:34.23Z</time></trkpt><trkpt lat="44.4098668" lon="10.7636811"><ele>604.0</ele><time>2026-04-26T07:45:35.234Z</time></trkpt><trkpt lat="44.4097246" lon="10.7636501"><ele>606.25</ele><time>2026-04-26T07:45:36.229Z</time></trkpt><trkpt lat="44.4095784" lon="10.7636086"><ele>608.5</ele><time>2026-04-26T07:45:37.234Z</time></trkpt><trkpt lat="44.4094297" lon="10.7635755"><ele>610.75</ele><time>2026-04-26T07:45:38.241Z</time></trkpt><trkpt lat="44.4092954" lon="10.7635418"><ele>613.0</ele><time>2026-04-26T07:45:39.229Z</time></trkpt><trkpt lat="44.4091714" lon="10.763507"><ele>613.0</ele><time>2026-04-26T07:45:40.232Z</time></trkpt><trkpt lat="44.4090527" lon="10.7634712"><ele>613.0</ele><time>2026-04-26T07:45:41.229Z</time></trkpt><trkpt lat="44.4089448" lon="10.7634384"><ele>613.0</ele><time>2026-04-26T07:45:42.234Z</time></trkpt><trkpt lat="44.4088519" lon="10.7634216"><ele>613.0</ele><time>2026-04-26T07:45:43.228Z</time></trkpt><trkpt lat="44.4087718" lon="10.7634271"><ele>613.0</ele><time>2026-04-26T07:45:44.233Z</time></trkpt><trkpt lat="44.408697" lon="10.7634634"><ele>615.1999999999999</ele><time>2026-04-26T07:45:45.226Z</time></trkpt><trkpt lat="44.4086233" lon="10.7635038"><ele>617.4</ele><time>2026-04-26T07:45:46.231Z</time></trkpt><trkpt lat="44.4085433" lon="10.7635568"><ele>619.5999999999999</ele><time>2026-04-26T07:45:47.241Z</time></trkpt><trkpt lat="44.4084592" lon="10.7636104"><ele>621.8</ele><time>2026-04-26T07:45:48.239Z</time></trkpt><trkpt lat="44.4083464" lon="10.7636632"><ele>624.0</ele><time>2026-04-26T07:45:49.234Z</time></trkpt><trkpt lat="44.4082437" lon="10.7637136"><ele>624.3333333333334</ele><time>2026-04-26T07:45:50.228Z</time></trkpt><trkpt lat="44.4081544" lon="10.7637638"><ele>624.6666666666666</ele><time>2026-04-26T07:45:51.231Z</time></trkpt><trkpt lat="44.4080859" lon="10.7638287"><ele>625.0</ele><time>2026-04-26T07:45:52.235Z</time></trkpt><trkpt lat="44.4080339" lon="10.7638996"><ele>625.3333333333333</ele><time>2026-04-26T07:45:53.239Z</time></trkpt><trkpt lat="44.4079956" lon="10.7640141"><ele>625.6666666666666</ele><time>2026-04-26T07:45:55.227Z</time></trkpt><trkpt lat="44.4080316" lon="10.764118"><ele>626.0</ele><time>2026-04-26T07:45:58.24Z</time></trkpt><trkpt lat="44.4081424" lon="10.7642172"><ele>626.0</ele><time>2026-04-26T07:46:00.232Z</time></trkpt><trkpt lat="44.4082086" lon="10.7642877"><ele>626.0</ele><time>2026-04-26T07:46:01.231Z</time></trkpt><trkpt lat="44.4082695" lon="10.7643718"><ele>626.0</ele><time>2026-04-26T07:46:02.229Z</time></trkpt><trkpt lat="44.4083205" lon="10.7644678"><ele>626.0</ele><time>2026-04-26T07:46:03.235Z</time></trkpt><trkpt lat="44.4083591" lon="10.764567"><ele>626.0</ele><time>2026-04-26T07:46:04.231Z</time></trkpt><trkpt lat="44.4083915" lon="10.7646656"><ele>626.0</ele><time>2026-04-26T07:46:05.229Z</time></trkpt><trkpt lat="44.4084194" lon="10.7647651"><ele>625.8333333333333</ele><time>2026-04-26T07:46:06.227Z</time></trkpt><trkpt lat="44.4084367" lon="10.7648703"><ele>625.6666666666666</ele><time>2026-04-26T07:46:07.239Z</time></trkpt><trkpt lat="44.4084409" lon="10.7649784"><ele>625.5</ele><time>2026-04-26T07:46:08.23Z</time></trkpt><trkpt lat="44.4084329" lon="10.7650858"><ele>625.3333333333334</ele><time>2026-04-26T07:46:09.242Z</time></trkpt><trkpt lat="44.4084152" lon="10.7651905"><ele>625.1666666666667</ele><time>2026-04-26T07:46:10.231Z</time></trkpt><trkpt lat="44.4083946" lon="10.7652934"><ele>625.0</ele><time>2026-04-26T07:46:11.236Z</time></trkpt><trkpt lat="44.4083717" lon="10.7653955"><ele>624.5</ele><time>2026-04-26T07:46:12.231Z</time></trkpt><trkpt lat="44.4083499" lon="10.7654937"><ele>624.0</ele><time>2026-04-26T07:46:13.235Z</time></trkpt><trkpt lat="44.4083294" lon="10.7655921"><ele>623.5</ele><time>2026-04-26T07:46:14.232Z</time></trkpt><trkpt lat="44.4083134" lon="10.7656942"><ele>623.0</ele><time>2026-04-26T07:46:15.24Z</time></trkpt><trkpt lat="44.4083034" lon="10.7657988"><ele>622.5</ele><time>2026-04-26T07:46:16.235Z</time></trkpt><trkpt lat="44.4083027" lon="10.7659101"><ele>622.0</ele><time>2026-04-26T07:46:17.234Z</time></trkpt><trkpt lat="44.408303" lon="10.7660167"><ele>621.0</ele><time>2026-04-26T07:46:18.233Z</time></trkpt><trkpt lat="44.4083135" lon="10.7661293"><ele>620.0</ele><time>2026-04-26T07:46:19.23Z</time></trkpt><trkpt lat="44.4083289" lon="10.7662378"><ele>619.0</ele><time>2026-04-26T07:46:20.23Z</time></trkpt><trkpt lat="44.408349" lon="10.7663437"><ele>618.0</ele><time>2026-04-26T07:46:21.227Z</time></trkpt><trkpt lat="44.4083743" lon="10.7664493"><ele>617.0</ele><time>2026-04-26T07:46:22.23Z</time></trkpt><trkpt lat="44.4084081" lon="10.7665561"><ele>616.0</ele><time>2026-04-26T07:46:23.238Z</time></trkpt><trkpt lat="44.408457" lon="10.7666639"><ele>616.0</ele><time>2026-04-26T07:46:24.231Z</time></trkpt><trkpt lat="44.4085185" lon="10.7667694"><ele>616.0</ele><time>2026-04-26T07:46:25.242Z</time></trkpt><trkpt lat="44.4085959" lon="10.7668765"><ele>616.0</ele><time>2026-04-26T07:46:26.232Z</time></trkpt><trkpt lat="44.4086863" lon="10.7669902"><ele>616.0</ele><time>2026-04-26T07:46:27.236Z</time></trkpt><trkpt lat="44.4087809" lon="10.7671124"><ele>614.25</ele><time>2026-04-26T07:46:28.237Z</time></trkpt><trkpt lat="44.4088696" lon="10.7672352"><ele>612.5</ele><time>2026-04-26T07:46:29.237Z</time></trkpt><trkpt lat="44.4089522" lon="10.7673515"><ele>610.75</ele><time>2026-04-26T07:46:30.238Z</time></trkpt><trkpt lat="44.4090343" lon="10.7674632"><ele>609.0</ele><time>2026-04-26T07:46:31.243Z</time></trkpt><trkpt lat="44.4091193" lon="10.7675725"><ele>609.0</ele><time>2026-04-26T07:46:32.233Z</time></trkpt><trkpt lat="44.4092064" lon="10.7676758"><ele>609.0</ele><time>2026-04-26T07:46:33.229Z</time></trkpt><trkpt lat="44.4092968" lon="10.7677659"><ele>609.0</ele><time>2026-04-26T07:46:34.229Z</time></trkpt><trkpt lat="44.4093915" lon="10.7678464"><ele>609.0</ele><time>2026-04-26T07:46:35.241Z</time></trkpt><trkpt lat="44.4094928" lon="10.7679272"><ele>610.25</ele><time>2026-04-26T07:46:36.237Z</time></trkpt><trkpt lat="44.4095965" lon="10.7680086"><ele>611.5</ele><time>2026-04-26T07:46:37.225Z</time></trkpt><trkpt lat="44.4097104" lon="10.7680968"><ele>612.75</ele><time>2026-04-26T07:46:38.245Z</time></trkpt><trkpt lat="44.4098325" lon="10.7681979"><ele>614.0</ele><time>2026-04-26T07:46:39.231Z</time></trkpt><trkpt lat="44.4099586" lon="10.7683047"><ele>614.0</ele><time>2026-04-26T07:46:40.23Z</time></trkpt><trkpt lat="44.4100858" lon="10.7684151"><ele>614.0</ele><time>2026-04-26T07:46:41.227Z</time></trkpt><trkpt lat="44.4102159" lon="10.7685295"><ele>614.0</ele><time>2026-04-26T07:46:42.232Z</time></trkpt><trkpt lat="44.4103465" lon="10.7686614"><ele>615.5</ele><time>2026-04-26T07:46:43.232Z</time></trkpt><trkpt lat="44.4104693" lon="10.7687902"><ele>617.0</ele><time>2026-04-26T07:46:44.228Z</time></trkpt><trkpt lat="44.4105741" lon="10.768908"><ele>618.5</ele><time>2026-04-26T07:46:45.229Z</time></trkpt><trkpt lat="44.4106548" lon="10.7690215"><ele>620.0</ele><time>2026-04-26T07:46:46.229Z</time></trkpt><trkpt lat="44.4107351" lon="10.7691454"><ele>620.0</ele><time>2026-04-26T07:46:47.227Z</time></trkpt><trkpt lat="44.4108063" lon="10.769304"><ele>620.0</ele><time>2026-04-26T07:46:48.235Z</time></trkpt><trkpt lat="44.4108661" lon="10.76945"><ele>620.0</ele><time>2026-04-26T07:46:49.228Z</time></trkpt><trkpt lat="44.4109198" lon="10.7695727"><ele>620.0</ele><time>2026-04-26T07:46:50.23Z</time></trkpt><trkpt lat="44.4109624" lon="10.7696918"><ele>622.1666666666666</ele><time>2026-04-26T07:46:51.224Z</time></trkpt><trkpt lat="44.4110042" lon="10.7698105"><ele>624.3333333333333</ele><time>2026-04-26T07:46:52.231Z</time></trkpt><trkpt lat="44.411041" lon="10.7699133"><ele>626.5</ele><time>2026-04-26T07:46:53.228Z</time></trkpt><trkpt lat="44.4110662" lon="10.7699952"><ele>628.6666666666666</ele><time>2026-04-26T07:46:54.227Z</time></trkpt><trkpt lat="44.4111003" lon="10.7701164"><ele>630.8333333333334</ele><time>2026-04-26T07:46:56.229Z</time></trkpt><trkpt lat="44.4111302" lon="10.7702279"><ele>633.0</ele><time>2026-04-26T07:46:58.23Z</time></trkpt><trkpt lat="44.4111705" lon="10.7703379"><ele>632.7142857142857</ele><time>2026-04-26T07:47:00.231Z</time></trkpt><trkpt lat="44.4112062" lon="10.7704144"><ele>632.4285714285714</ele><time>2026-04-26T07:47:02.229Z</time></trkpt><trkpt lat="44.4112468" lon="10.7704929"><ele>632.1428571428571</ele><time>2026-04-26T07:47:04.236Z</time></trkpt><trkpt lat="44.4112887" lon="10.770576"><ele>631.8571428571429</ele><time>2026-04-26T07:47:06.233Z</time></trkpt><trkpt lat="44.4113313" lon="10.7706674"><ele>631.5714285714286</ele><time>2026-04-26T07:47:08.233Z</time></trkpt><trkpt lat="44.411379" lon="10.7707568"><ele>631.2857142857143</ele><time>2026-04-26T07:47:10.229Z</time></trkpt><trkpt lat="44.4114263" lon="10.7708337"><ele>631.0</ele><time>2026-04-26T07:47:12.243Z</time></trkpt><trkpt lat="44.4114898" lon="10.7709223"><ele>633.3333333333334</ele><time>2026-04-26T07:47:14.236Z</time></trkpt><trkpt lat="44.4115645" lon="10.7710297"><ele>635.6666666666667</ele><time>2026-04-26T07:47:16.231Z</time></trkpt><trkpt lat="44.4116272" lon="10.7711241"><ele>638.0</ele><time>2026-04-26T07:47:18.231Z</time></trkpt><trkpt lat="44.4116779" lon="10.7712199"><ele>640.3333333333334</ele><time>2026-04-26T07:47:20.235Z</time></trkpt><trkpt lat="44.4117238" lon="10.7713159"><ele>642.6666666666666</ele><time>2026-04-26T07:47:22.232Z</time></trkpt><trkpt lat="44.4117621" lon="10.7714116"><ele>645.0</ele><time>2026-04-26T07:47:24.239Z</time></trkpt><trkpt lat="44.4118084" lon="10.7715228"><ele>645.0</ele><time>2026-04-26T07:47:26.231Z</time></trkpt><trkpt lat="44.411875" lon="10.771672"><ele>645.0</ele><time>2026-04-26T07:47:28.226Z</time></trkpt><trkpt lat="44.4119171" lon="10.7717587"><ele>645.0</ele><time>2026-04-26T07:47:29.242Z</time></trkpt><trkpt lat="44.4119627" lon="10.7718532"><ele>645.0</ele><time>2026-04-26T07:47:30.232Z</time></trkpt><trkpt lat="44.4120099" lon="10.7719547"><ele>645.0</ele><time>2026-04-26T07:47:31.23Z</time></trkpt><trkpt lat="44.4120604" lon="10.7720629"><ele>645.8</ele><time>2026-04-26T07:47:32.228Z</time></trkpt><trkpt lat="44.412113" lon="10.772175"><ele>646.6</ele><time>2026-04-26T07:47:33.227Z</time></trkpt><trkpt lat="44.4121659" lon="10.7722913"><ele>647.4000000000001</ele><time>2026-04-26T07:47:34.232Z</time></trkpt><trkpt lat="44.4122186" lon="10.7724143"><ele>648.2</ele><time>2026-04-26T07:47:35.23Z</time></trkpt><trkpt lat="44.4122673" lon="10.7725463"><ele>649.0</ele><time>2026-04-26T07:47:36.231Z</time></trkpt><trkpt lat="44.4123037" lon="10.7726939"><ele>650.75</ele><time>2026-04-26T07:47:37.228Z</time></trkpt><trkpt lat="44.4123336" lon="10.772853"><ele>652.5</ele><time>2026-04-26T07:47:38.233Z</time></trkpt><trkpt lat="44.4123644" lon="10.7730205"><ele>654.25</ele><time>2026-04-26T07:47:39.237Z</time></trkpt><trkpt lat="44.4124016" lon="10.7731976"><ele>656.0</ele><time>2026-04-26T07:47:40.235Z</time></trkpt><trkpt lat="44.412447" lon="10.7733744"><ele>657.8</ele><time>2026-04-26T07:47:41.235Z</time></trkpt><trkpt lat="44.4124915" lon="10.7735436"><ele>659.5999999999999</ele><time>2026-04-26T07:47:42.238Z</time></trkpt><trkpt lat="44.412519" lon="10.773697"><ele>661.4</ele><time>2026-04-26T07:47:43.235Z</time></trkpt><trkpt lat="44.4125297" lon="10.7738323"><ele>663.2</ele><time>2026-04-26T07:47:44.236Z</time></trkpt><trkpt lat="44.412548" lon="10.7739482"><ele>665.0</ele><time>2026-04-26T07:47:45.233Z</time></trkpt><trkpt lat="44.4125925" lon="10.7740318"><ele>665.0</ele><time>2026-04-26T07:47:46.231Z</time></trkpt><trkpt lat="44.4126642" lon="10.7740856"><ele>665.0</ele><time>2026-04-26T07:47:47.243Z</time></trkpt><trkpt lat="44.4127536" lon="10.7741354"><ele>665.0</ele><time>2026-04-26T07:47:48.229Z</time></trkpt><trkpt lat="44.4128696" lon="10.7741878"><ele>665.0</ele><time>2026-04-26T07:47:49.228Z</time></trkpt><trkpt lat="44.4129859" lon="10.7742607"><ele>665.0</ele><time>2026-04-26T07:47:50.245Z</time></trkpt><trkpt lat="44.4130828" lon="10.7743416"><ele>664.2</ele><time>2026-04-26T07:47:51.228Z</time></trkpt><trkpt lat="44.4131664" lon="10.7744284"><ele>663.4</ele><time>2026-04-26T07:47:52.252Z</time></trkpt><trkpt lat="44.4132277" lon="10.7745307"><ele>662.5999999999999</ele><time>2026-04-26T07:47:53.229Z</time></trkpt><trkpt lat="44.4132827" lon="10.774633"><ele>661.8</ele><time>2026-04-26T07:47:54.236Z</time></trkpt><trkpt lat="44.4132815" lon="10.7747729"><ele>661.0</ele><time>2026-04-26T07:47:55.23Z</time></trkpt><trkpt lat="44.4132759" lon="10.7749307"><ele>661.0</ele><time>2026-04-26T07:47:56.24Z</time></trkpt><trkpt lat="44.4132596" lon="10.7751125"><ele>661.0</ele><time>2026-04-26T07:47:57.233Z</time></trkpt><trkpt lat="44.4132507" lon="10.775306"><ele>661.0</ele><time>2026-04-26T07:47:58.226Z</time></trkpt><trkpt lat="44.4132404" lon="10.7755081"><ele>661.0</ele><time>2026-04-26T07:47:59.229Z</time></trkpt><trkpt lat="44.4132305" lon="10.7757126"><ele>661.25</ele><time>2026-04-26T07:48:00.229Z</time></trkpt><trkpt lat="44.4132176" lon="10.7759136"><ele>661.5</ele><time>2026-04-26T07:48:01.238Z</time></trkpt><trkpt lat="44.4132066" lon="10.7761068"><ele>661.75</ele><time>2026-04-26T07:48:02.229Z</time></trkpt><trkpt lat="44.4131957" lon="10.7762827"><ele>662.0</ele><time>2026-04-26T07:48:03.233Z</time></trkpt><trkpt lat="44.4131875" lon="10.7764382"><ele>662.6</ele><time>2026-04-26T07:48:04.244Z</time></trkpt><trkpt lat="44.4131815" lon="10.7765795"><ele>663.2</ele><time>2026-04-26T07:48:05.232Z</time></trkpt><trkpt lat="44.4131726" lon="10.7767284"><ele>663.8</ele><time>2026-04-26T07:48:06.244Z</time></trkpt><trkpt lat="44.4131482" lon="10.7768735"><ele>664.4</ele><time>2026-04-26T07:48:07.232Z</time></trkpt><trkpt lat="44.4130994" lon="10.7769946"><ele>665.0</ele><time>2026-04-26T07:48:08.231Z</time></trkpt><trkpt lat="44.4130234" lon="10.7770966"><ele>667.5</ele><time>2026-04-26T07:48:09.231Z</time></trkpt><trkpt lat="44.4129191" lon="10.7771968"><ele>670.0</ele><time>2026-04-26T07:48:10.23Z</time></trkpt><trkpt lat="44.4128053" lon="10.7772891"><ele>672.5</ele><time>2026-04-26T07:48:11.23Z</time></trkpt><trkpt lat="44.4127097" lon="10.7773634"><ele>675.0</ele><time>2026-04-26T07:48:12.232Z</time></trkpt><trkpt lat="44.4126158" lon="10.7774264"><ele>675.0</ele><time>2026-04-26T07:48:13.228Z</time></trkpt><trkpt lat="44.4125126" lon="10.7774608"><ele>675.0</ele><time>2026-04-26T07:48:14.229Z</time></trkpt><trkpt lat="44.4124099" lon="10.7774837"><ele>675.0</ele><time>2026-04-26T07:48:15.245Z</time></trkpt><trkpt lat="44.4123042" lon="10.7774837"><ele>675.0</ele><time>2026-04-26T07:48:16.23Z</time></trkpt><trkpt lat="44.4122116" lon="10.7774513"><ele>675.0</ele><time>2026-04-26T07:48:17.232Z</time></trkpt><trkpt lat="44.4121238" lon="10.7774204"><ele>675.4</ele><time>2026-04-26T07:48:18.231Z</time></trkpt><trkpt lat="44.4120285" lon="10.7774348"><ele>675.8</ele><time>2026-04-26T07:48:19.233Z</time></trkpt><trkpt lat="44.4119375" lon="10.7774868"><ele>676.2</ele><time>2026-04-26T07:48:20.234Z</time></trkpt><trkpt lat="44.4118512" lon="10.7775675"><ele>676.6</ele><time>2026-04-26T07:48:21.23Z</time></trkpt><trkpt lat="44.4117755" lon="10.7776686"><ele>677.0</ele><time>2026-04-26T07:48:22.231Z</time></trkpt><trkpt lat="44.4117068" lon="10.7777902"><ele>677.0</ele><time>2026-04-26T07:48:23.234Z</time></trkpt><trkpt lat="44.4116444" lon="10.7779272"><ele>677.0</ele><time>2026-04-26T07:48:24.229Z</time></trkpt><trkpt lat="44.4115824" lon="10.7780685"><ele>677.0</ele><time>2026-04-26T07:48:25.246Z</time></trkpt><trkpt lat="44.4115193" lon="10.7781987"><ele>677.0</ele><time>2026-04-26T07:48:26.232Z</time></trkpt><trkpt lat="44.4114561" lon="10.7783199"><ele>677.0</ele><time>2026-04-26T07:48:27.229Z</time></trkpt><trkpt lat="44.4113833" lon="10.7784156"><ele>677.0</ele><time>2026-04-26T07:48:28.241Z</time></trkpt><trkpt lat="44.411285" lon="10.7784885"><ele>677.0</ele><time>2026-04-26T07:48:29.232Z</time></trkpt><trkpt lat="44.4111902" lon="10.778556"><ele>677.0</ele><time>2026-04-26T07:48:30.237Z</time></trkpt><trkpt lat="44.4111116" lon="10.7786496"><ele>677.0</ele><time>2026-04-26T07:48:31.233Z</time></trkpt><trkpt lat="44.4110437" lon="10.778755"><ele>678.4000000000001</ele><time>2026-04-26T07:48:32.229Z</time></trkpt><trkpt lat="44.4109896" lon="10.7788808"><ele>679.8000000000001</ele><time>2026-04-26T07:48:33.232Z</time></trkpt><trkpt lat="44.4109311" lon="10.7789961"><ele>681.2</ele><time>2026-04-26T07:48:34.228Z</time></trkpt><trkpt lat="44.4108573" lon="10.7790849"><ele>682.6</ele><time>2026-04-26T07:48:35.241Z</time></trkpt><trkpt lat="44.4107655" lon="10.7791455"><ele>684.0</ele><time>2026-04-26T07:48:36.239Z</time></trkpt><trkpt lat="44.4106437" lon="10.779171"><ele>684.0</ele><time>2026-04-26T07:48:37.227Z</time></trkpt><trkpt lat="44.4105368" lon="10.7791935"><ele>684.0</ele><time>2026-04-26T07:48:38.238Z</time></trkpt><trkpt lat="44.4104601" lon="10.7792681"><ele>684.0</ele><time>2026-04-26T07:48:39.232Z</time></trkpt><trkpt lat="44.4104061" lon="10.7793861"><ele>684.0</ele><time>2026-04-26T07:48:40.233Z</time></trkpt><trkpt lat="44.4103631" lon="10.7795137"><ele>684.0</ele><time>2026-04-26T07:48:41.229Z</time></trkpt><trkpt lat="44.4103264" lon="10.77966"><ele>687.25</ele><time>2026-04-26T07:48:42.236Z</time></trkpt><trkpt lat="44.410293" lon="10.7798191"><ele>690.5</ele><time>2026-04-26T07:48:43.24Z</time></trkpt><trkpt lat="44.4102613" lon="10.7799866"><ele>693.75</ele><time>2026-04-26T07:48:44.227Z</time></trkpt><trkpt lat="44.4102343" lon="10.7801753"><ele>697.0</ele><time>2026-04-26T07:48:45.241Z</time></trkpt><trkpt lat="44.4101956" lon="10.7803495"><ele>697.0</ele><time>2026-04-26T07:48:46.231Z</time></trkpt><trkpt lat="44.4101643" lon="10.7805136"><ele>697.0</ele><time>2026-04-26T07:48:47.234Z</time></trkpt><trkpt lat="44.4101256" lon="10.7806568"><ele>697.0</ele><time>2026-04-26T07:48:48.224Z</time></trkpt><trkpt lat="44.410084" lon="10.7807967"><ele>697.0</ele><time>2026-04-26T07:48:49.241Z</time></trkpt><trkpt lat="44.4100259" lon="10.7809028"><ele>697.0</ele><time>2026-04-26T07:48:50.237Z</time></trkpt><trkpt lat="44.4099483" lon="10.780984"><ele>696.4000000000001</ele><time>2026-04-26T07:48:51.241Z</time></trkpt><trkpt lat="44.4098587" lon="10.7810414"><ele>695.8000000000001</ele><time>2026-04-26T07:48:52.233Z</time></trkpt><trkpt lat="44.4097904" lon="10.7811308"><ele>695.2</ele><time>2026-04-26T07:48:53.239Z</time></trkpt><trkpt lat="44.4097453" lon="10.7812462"><ele>694.6</ele><time>2026-04-26T07:48:54.23Z</time></trkpt><trkpt lat="44.4097249" lon="10.7813798"><ele>694.0</ele><time>2026-04-26T07:48:55.24Z</time></trkpt><trkpt lat="44.4097272" lon="10.7815293"><ele>694.0</ele><time>2026-04-26T07:48:56.229Z</time></trkpt><trkpt lat="44.409748" lon="10.7816894"><ele>694.0</ele><time>2026-04-26T07:48:57.236Z</time></trkpt><trkpt lat="44.4097903" lon="10.7818485"><ele>694.0</ele><time>2026-04-26T07:48:58.241Z</time></trkpt><trkpt lat="44.4098312" lon="10.7820075"><ele>694.0</ele><time>2026-04-26T07:48:59.229Z</time></trkpt><trkpt lat="44.4098989" lon="10.7821402"><ele>695.5</ele><time>2026-04-26T07:49:00.233Z</time></trkpt><trkpt lat="44.4099773" lon="10.7822718"><ele>697.0</ele><time>2026-04-26T07:49:01.229Z</time></trkpt><trkpt lat="44.4100607" lon="10.7824117"><ele>698.5</ele><time>2026-04-26T07:49:02.23Z</time></trkpt><trkpt lat="44.4101435" lon="10.7825507"><ele>700.0</ele><time>2026-04-26T07:49:03.233Z</time></trkpt><trkpt lat="44.4102182" lon="10.7826781"><ele>702.6</ele><time>2026-04-26T07:49:04.23Z</time></trkpt><trkpt lat="44.4102813" lon="10.7827773"><ele>705.2</ele><time>2026-04-26T07:49:05.23Z</time></trkpt><trkpt lat="44.4103648" lon="10.7828243"><ele>707.8</ele><time>2026-04-26T07:49:06.23Z</time></trkpt><trkpt lat="44.4104504" lon="10.7828684"><ele>710.4</ele><time>2026-04-26T07:49:07.23Z</time></trkpt><trkpt lat="44.4105509" lon="10.7828595"><ele>713.0</ele><time>2026-04-26T07:49:08.23Z</time></trkpt><trkpt lat="44.410652" lon="10.7828854"><ele>713.25</ele><time>2026-04-26T07:49:09.236Z</time></trkpt><trkpt lat="44.4107719" lon="10.7829327"><ele>713.5</ele><time>2026-04-26T07:49:10.231Z</time></trkpt><trkpt lat="44.410891" lon="10.7830222"><ele>713.75</ele><time>2026-04-26T07:49:11.232Z</time></trkpt><trkpt lat="44.4110125" lon="10.7831144"><ele>714.0</ele><time>2026-04-26T07:49:12.231Z</time></trkpt><trkpt lat="44.4111422" lon="10.7831569"><ele>714.0</ele><time>2026-04-26T07:49:13.242Z</time></trkpt><trkpt lat="44.4112246" lon="10.7831753"><ele>714.0</ele><time>2026-04-26T07:49:14.241Z</time></trkpt><trkpt lat="44.4112891" lon="10.7831971"><ele>714.0</ele><time>2026-04-26T07:49:15.228Z</time></trkpt><trkpt lat="44.4113662" lon="10.7833499"><ele>714.0</ele><time>2026-04-26T07:49:17.23Z</time></trkpt><trkpt lat="44.4113442" lon="10.7834651"><ele>714.0</ele><time>2026-04-26T07:49:18.233Z</time></trkpt><trkpt lat="44.4113034" lon="10.7836249"><ele>715.8000000000001</ele><time>2026-04-26T07:49:19.237Z</time></trkpt><trkpt lat="44.4113079" lon="10.7837972"><ele>717.6</ele><time>2026-04-26T07:49:20.226Z</time></trkpt><trkpt lat="44.4113168" lon="10.7839533"><ele>719.4</ele><time>2026-04-26T07:49:21.239Z</time></trkpt><trkpt lat="44.4113599" lon="10.7840554"><ele>721.2</ele><time>2026-04-26T07:49:22.232Z</time></trkpt><trkpt lat="44.4114392" lon="10.7841192"><ele>723.0</ele><time>2026-04-26T07:49:23.239Z</time></trkpt><trkpt lat="44.4115421" lon="10.784127"><ele>723.0</ele><time>2026-04-26T07:49:24.226Z</time></trkpt><trkpt lat="44.411626" lon="10.784133"><ele>723.0</ele><time>2026-04-26T07:49:25.232Z</time></trkpt><trkpt lat="44.4116875" lon="10.784152"><ele>723.0</ele><time>2026-04-26T07:49:26.229Z</time></trkpt><trkpt lat="44.4116375" lon="10.7842768"><ele>723.0</ele><time>2026-04-26T07:49:29.236Z</time></trkpt><trkpt lat="44.4115612" lon="10.7843492"><ele>723.0</ele><time>2026-04-26T07:49:30.234Z</time></trkpt><trkpt lat="44.4114704" lon="10.7844568"><ele>724.2</ele><time>2026-04-26T07:49:31.236Z</time></trkpt><trkpt lat="44.4114048" lon="10.7845825"><ele>725.4</ele><time>2026-04-26T07:49:32.232Z</time></trkpt><trkpt lat="44.4113727" lon="10.7847265"><ele>726.6</ele><time>2026-04-26T07:49:33.235Z</time></trkpt><trkpt lat="44.4113399" lon="10.7848654"><ele>727.8000000000001</ele><time>2026-04-26T07:49:34.234Z</time></trkpt><trkpt lat="44.4113003" lon="10.7850261"><ele>729.0</ele><time>2026-04-26T07:49:35.234Z</time></trkpt><trkpt lat="44.4112453" lon="10.7851771"><ele>731.25</ele><time>2026-04-26T07:49:36.241Z</time></trkpt><trkpt lat="44.4111896" lon="10.7853353"><ele>733.5</ele><time>2026-04-26T07:49:37.23Z</time></trkpt><trkpt lat="44.4111284" lon="10.785485"><ele>735.75</ele><time>2026-04-26T07:49:38.227Z</time></trkpt><trkpt lat="44.411068" lon="10.7856421"><ele>738.0</ele><time>2026-04-26T07:49:39.23Z</time></trkpt><trkpt lat="44.4110026" lon="10.7858001"><ele>738.0</ele><time>2026-04-26T07:49:40.231Z</time></trkpt><trkpt lat="44.4109393" lon="10.7859786"><ele>738.0</ele><time>2026-04-26T07:49:41.236Z</time></trkpt><trkpt lat="44.4108869" lon="10.7861548"><ele>738.0</ele><time>2026-04-26T07:49:42.23Z</time></trkpt><trkpt lat="44.4108447" lon="10.7863141"><ele>738.0</ele><time>2026-04-26T07:49:43.239Z</time></trkpt><trkpt lat="44.4107979" lon="10.7864674"><ele>738.1666666666666</ele><time>2026-04-26T07:49:44.233Z</time></trkpt><trkpt lat="44.4107264" lon="10.7866035"><ele>738.3333333333334</ele><time>2026-04-26T07:49:45.239Z</time></trkpt><trkpt lat="44.4106667" lon="10.7867259"><ele>738.5</ele><time>2026-04-26T07:49:46.231Z</time></trkpt><trkpt lat="44.4106" lon="10.7867968"><ele>738.6666666666667</ele><time>2026-04-26T07:49:47.235Z</time></trkpt><trkpt lat="44.4105359" lon="10.786812"><ele>738.8333333333334</ele><time>2026-04-26T07:49:48.23Z</time></trkpt><trkpt lat="44.4104727" lon="10.7868579"><ele>739.0</ele><time>2026-04-26T07:49:50.232Z</time></trkpt><trkpt lat="44.4104291" lon="10.78695"><ele>740.5</ele><time>2026-04-26T07:49:52.242Z</time></trkpt><trkpt lat="44.410385" lon="10.7871416"><ele>742.0</ele><time>2026-04-26T07:49:54.244Z</time></trkpt><trkpt lat="44.4103583" lon="10.7872799"><ele>743.5</ele><time>2026-04-26T07:49:55.241Z</time></trkpt><trkpt lat="44.4103166" lon="10.7874366"><ele>745.0</ele><time>2026-04-26T07:49:56.243Z</time></trkpt><trkpt lat="44.4102721" lon="10.7875919"><ele>743.8</ele><time>2026-04-26T07:49:57.233Z</time></trkpt><trkpt lat="44.4102356" lon="10.787743"><ele>742.6</ele><time>2026-04-26T07:49:58.234Z</time></trkpt><trkpt lat="44.4102055" lon="10.7878861"><ele>741.4000000000001</ele><time>2026-04-26T07:49:59.231Z</time></trkpt><trkpt lat="44.4101658" lon="10.7880168"><ele>740.2</ele><time>2026-04-26T07:50:00.239Z</time></trkpt><trkpt lat="44.4101149" lon="10.7881403"><ele>739.0</ele><time>2026-04-26T07:50:01.235Z</time></trkpt><trkpt lat="44.4100628" lon="10.7882638"><ele>739.0</ele><time>2026-04-26T07:50:02.23Z</time></trkpt><trkpt lat="44.4100056" lon="10.7883899"><ele>739.0</ele><time>2026-04-26T07:50:03.231Z</time></trkpt><trkpt lat="44.4099517" lon="10.7885145"><ele>739.0</ele><time>2026-04-26T07:50:04.235Z</time></trkpt><trkpt lat="44.4099217" lon="10.788653"><ele>739.0</ele><time>2026-04-26T07:50:05.234Z</time></trkpt><trkpt lat="44.4099252" lon="10.7887971"><ele>739.0</ele><time>2026-04-26T07:50:06.233Z</time></trkpt><trkpt lat="44.4099294" lon="10.788947"><ele>738.6</ele><time>2026-04-26T07:50:07.245Z</time></trkpt><trkpt lat="44.4099557" lon="10.7890901"><ele>738.2</ele><time>2026-04-26T07:50:08.233Z</time></trkpt><trkpt lat="44.409989" lon="10.7892325"><ele>737.8000000000001</ele><time>2026-04-26T07:50:09.235Z</time></trkpt><trkpt lat="44.4100172" lon="10.7893899"><ele>737.4000000000001</ele><time>2026-04-26T07:50:10.232Z</time></trkpt><trkpt lat="44.4100499" lon="10.7895402"><ele>737.0</ele><time>2026-04-26T07:50:11.234Z</time></trkpt><trkpt lat="44.4100818" lon="10.7896887"><ele>736.2</ele><time>2026-04-26T07:50:12.234Z</time></trkpt><trkpt lat="44.4101147" lon="10.7898289"><ele>735.4000000000001</ele><time>2026-04-26T07:50:13.233Z</time></trkpt><trkpt lat="44.4101491" lon="10.7899728"><ele>734.5999999999999</ele><time>2026-04-26T07:50:14.232Z</time></trkpt><trkpt lat="44.4101884" lon="10.7901146"><ele>733.8</ele><time>2026-04-26T07:50:15.235Z</time></trkpt><trkpt lat="44.4102495" lon="10.790239"><ele>733.0</ele><time>2026-04-26T07:50:16.232Z</time></trkpt><trkpt lat="44.4103316" lon="10.790336"><ele>733.0</ele><time>2026-04-26T07:50:17.24Z</time></trkpt><trkpt lat="44.4104274" lon="10.7904239"><ele>733.0</ele><time>2026-04-26T07:50:18.236Z</time></trkpt><trkpt lat="44.4105231" lon="10.7905055"><ele>733.0</ele><time>2026-04-26T07:50:19.237Z</time></trkpt><trkpt lat="44.4106325" lon="10.7905724"><ele>733.0</ele><time>2026-04-26T07:50:20.236Z</time></trkpt><trkpt lat="44.4107414" lon="10.7906419"><ele>730.75</ele><time>2026-04-26T07:50:21.235Z</time></trkpt><trkpt lat="44.410848" lon="10.790712"><ele>728.5</ele><time>2026-04-26T07:50:22.292Z</time></trkpt><trkpt lat="44.4109507" lon="10.79078"><ele>726.25</ele><time>2026-04-26T07:50:23.241Z</time></trkpt><trkpt lat="44.4110468" lon="10.790862"><ele>724.0</ele><time>2026-04-26T07:50:24.232Z</time></trkpt><trkpt lat="44.4111367" lon="10.7909413"><ele>724.4000000000001</ele><time>2026-04-26T07:50:25.231Z</time></trkpt><trkpt lat="44.4112176" lon="10.791032"><ele>724.8</ele><time>2026-04-26T07:50:26.233Z</time></trkpt><trkpt lat="44.411296" lon="10.7911225"><ele>725.2</ele><time>2026-04-26T07:50:27.238Z</time></trkpt><trkpt lat="44.4113508" lon="10.7912356"><ele>725.5999999999999</ele><time>2026-04-26T07:50:28.235Z</time></trkpt><trkpt lat="44.4113608" lon="10.7913905"><ele>726.0</ele><time>2026-04-26T07:50:29.236Z</time></trkpt><trkpt lat="44.411367" lon="10.7915539"><ele>726.0</ele><time>2026-04-26T07:50:30.232Z</time></trkpt><trkpt lat="44.4113436" lon="10.7917353"><ele>726.0</ele><time>2026-04-26T07:50:31.233Z</time></trkpt><trkpt lat="44.4113236" lon="10.7919078"><ele>726.0</ele><time>2026-04-26T07:50:32.234Z</time></trkpt><trkpt lat="44.4113113" lon="10.7920831"><ele>726.0</ele><time>2026-04-26T07:50:33.227Z</time></trkpt><trkpt lat="44.4113362" lon="10.7922449"><ele>722.25</ele><time>2026-04-26T07:50:34.248Z</time></trkpt><trkpt lat="44.4113852" lon="10.792392"><ele>718.5</ele><time>2026-04-26T07:50:35.229Z</time></trkpt><trkpt lat="44.4114516" lon="10.7925269"><ele>714.75</ele><time>2026-04-26T07:50:36.237Z</time></trkpt><trkpt lat="44.4115297" lon="10.7926577"><ele>711.0</ele><time>2026-04-26T07:50:37.236Z</time></trkpt><trkpt lat="44.4115965" lon="10.7927988"><ele>711.0</ele><time>2026-04-26T07:50:38.241Z</time></trkpt><trkpt lat="44.4116593" lon="10.7929389"><ele>711.0</ele><time>2026-04-26T07:50:39.24Z</time></trkpt><trkpt lat="44.4116767" lon="10.7931086"><ele>711.0</ele><time>2026-04-26T07:50:40.237Z</time></trkpt><trkpt lat="44.411692" lon="10.7932802"><ele>711.0</ele><time>2026-04-26T07:50:41.251Z</time></trkpt><trkpt lat="44.4117088" lon="10.7934565"><ele>710.5</ele><time>2026-04-26T07:50:42.239Z</time></trkpt><trkpt lat="44.4117215" lon="10.7936295"><ele>710.0</ele><time>2026-04-26T07:50:43.238Z</time></trkpt><trkpt lat="44.4117316" lon="10.7937918"><ele>709.5</ele><time>2026-04-26T07:50:44.243Z</time></trkpt><trkpt lat="44.4117411" lon="10.7939455"><ele>709.0</ele><time>2026-04-26T07:50:45.238Z</time></trkpt><trkpt lat="44.411746" lon="10.7940838"><ele>709.0</ele><time>2026-04-26T07:50:46.235Z</time></trkpt><trkpt lat="44.4117452" lon="10.7941975"><ele>709.0</ele><time>2026-04-26T07:50:47.249Z</time></trkpt><trkpt lat="44.4117321" lon="10.7942838"><ele>709.0</ele><time>2026-04-26T07:50:48.237Z</time></trkpt><trkpt lat="44.4116682" lon="10.7943871"><ele>709.0</ele><time>2026-04-26T07:50:50.231Z</time></trkpt><trkpt lat="44.4116001" lon="10.7943791"><ele>709.0</ele><time>2026-04-26T07:50:51.231Z</time></trkpt><trkpt lat="44.4115105" lon="10.7943512"><ele>709.0</ele><time>2026-04-26T07:50:52.23Z</time></trkpt><trkpt lat="44.4113961" lon="10.7943145"><ele>710.0</ele><time>2026-04-26T07:50:53.233Z</time></trkpt><trkpt lat="44.4112655" lon="10.7942745"><ele>711.0</ele><time>2026-04-26T07:50:54.234Z</time></trkpt><trkpt lat="44.4111094" lon="10.7942305"><ele>712.0</ele><time>2026-04-26T07:50:55.235Z</time></trkpt><trkpt lat="44.410941" lon="10.7941874"><ele>712.0</ele><time>2026-04-26T07:50:56.251Z</time></trkpt><trkpt lat="44.4107785" lon="10.7941441"><ele>712.0</ele><time>2026-04-26T07:50:57.238Z</time></trkpt><trkpt lat="44.4106258" lon="10.794157"><ele>712.0</ele><time>2026-04-26T07:50:58.232Z</time></trkpt><trkpt lat="44.4104888" lon="10.7942167"><ele>711.0</ele><time>2026-04-26T07:50:59.231Z</time></trkpt><trkpt lat="44.4103521" lon="10.7942853"><ele>710.0</ele><time>2026-04-26T07:51:00.229Z</time></trkpt><trkpt lat="44.4102349" lon="10.7944587"><ele>709.0</ele><time>2026-04-26T07:51:01.236Z</time></trkpt><trkpt lat="44.4101176" lon="10.7946323"><ele>709.0</ele><time>2026-04-26T07:51:02.231Z</time></trkpt><trkpt lat="44.4099849" lon="10.794818"><ele>709.0</ele><time>2026-04-26T07:51:03.262Z</time></trkpt><trkpt lat="44.4098449" lon="10.7950129"><ele>709.0</ele><time>2026-04-26T07:51:04.234Z</time></trkpt><trkpt lat="44.4096973" lon="10.7952177"><ele>709.6666666666667</ele><time>2026-04-26T07:51:05.238Z</time></trkpt><trkpt lat="44.4095564" lon="10.7954148"><ele>710.3333333333334</ele><time>2026-04-26T07:51:06.232Z</time></trkpt><trkpt lat="44.4094184" lon="10.7955786"><ele>711.0</ele><time>2026-04-26T07:51:07.234Z</time></trkpt><trkpt lat="44.4092773" lon="10.795735"><ele>711.0</ele><time>2026-04-26T07:51:08.234Z</time></trkpt><trkpt lat="44.4091273" lon="10.7958462"><ele>711.0</ele><time>2026-04-26T07:51:09.23Z</time></trkpt><trkpt lat="44.4089595" lon="10.7959053"><ele>711.0</ele><time>2026-04-26T07:51:10.232Z</time></trkpt><trkpt lat="44.4087866" lon="10.7959217"><ele>711.6666666666666</ele><time>2026-04-26T07:51:11.234Z</time></trkpt><trkpt lat="44.4086289" lon="10.7959581"><ele>712.3333333333333</ele><time>2026-04-26T07:51:12.237Z</time></trkpt><trkpt lat="44.4084858" lon="10.7960543"><ele>713.0</ele><time>2026-04-26T07:51:13.231Z</time></trkpt><trkpt lat="44.4083676" lon="10.7962032"><ele>713.0</ele><time>2026-04-26T07:51:14.231Z</time></trkpt><trkpt lat="44.4082719" lon="10.7963717"><ele>713.0</ele><time>2026-04-26T07:51:15.244Z</time></trkpt><trkpt lat="44.4081803" lon="10.7965625"><ele>713.0</ele><time>2026-04-26T07:51:16.231Z</time></trkpt><trkpt lat="44.4080851" lon="10.7967553"><ele>711.6666666666666</ele><time>2026-04-26T07:51:17.241Z</time></trkpt><trkpt lat="44.4079908" lon="10.7969438"><ele>710.3333333333334</ele><time>2026-04-26T07:51:18.231Z</time></trkpt><trkpt lat="44.4078748" lon="10.7971061"><ele>709.0</ele><time>2026-04-26T07:51:19.232Z</time></trkpt><trkpt lat="44.4077491" lon="10.7972334"><ele>709.0</ele><time>2026-04-26T07:51:20.241Z</time></trkpt><trkpt lat="44.4076327" lon="10.7973579"><ele>709.0</ele><time>2026-04-26T07:51:21.234Z</time></trkpt><trkpt lat="44.4075152" lon="10.7974854"><ele>709.0</ele><time>2026-04-26T07:51:22.238Z</time></trkpt><trkpt lat="44.4073907" lon="10.7976095"><ele>709.0</ele><time>2026-04-26T07:51:23.231Z</time></trkpt><trkpt lat="44.4072681" lon="10.7977332"><ele>710.3333333333334</ele><time>2026-04-26T07:51:24.232Z</time></trkpt><trkpt lat="44.4071475" lon="10.797861"><ele>711.6666666666666</ele><time>2026-04-26T07:51:25.23Z</time></trkpt><trkpt lat="44.4070335" lon="10.7979946"><ele>713.0</ele><time>2026-04-26T07:51:26.229Z</time></trkpt><trkpt lat="44.406926" lon="10.7981455"><ele>713.0</ele><time>2026-04-26T07:51:27.232Z</time></trkpt><trkpt lat="44.4068245" lon="10.7983113"><ele>713.0</ele><time>2026-04-26T07:51:28.231Z</time></trkpt><trkpt lat="44.4067298" lon="10.7984756"><ele>713.0</ele><time>2026-04-26T07:51:29.243Z</time></trkpt><trkpt lat="44.4066389" lon="10.7986576"><ele>712.0</ele><time>2026-04-26T07:51:30.235Z</time></trkpt><trkpt lat="44.4065227" lon="10.7988047"><ele>711.0</ele><time>2026-04-26T07:51:31.23Z</time></trkpt><trkpt lat="44.4063928" lon="10.7989292"><ele>710.0</ele><time>2026-04-26T07:51:32.238Z</time></trkpt><trkpt lat="44.4062506" lon="10.7990363"><ele>710.0</ele><time>2026-04-26T07:51:33.23Z</time></trkpt><trkpt lat="44.4061084" lon="10.7991273"><ele>710.0</ele><time>2026-04-26T07:51:34.239Z</time></trkpt><trkpt lat="44.405964" lon="10.7992125"><ele>710.0</ele><time>2026-04-26T07:51:35.231Z</time></trkpt><trkpt lat="44.4058174" lon="10.7992982"><ele>710.3333333333333</ele><time>2026-04-26T07:51:36.236Z</time></trkpt><trkpt lat="44.4056658" lon="10.7993786"><ele>710.6666666666666</ele><time>2026-04-26T07:51:37.235Z</time></trkpt><trkpt lat="44.4055149" lon="10.7994639"><ele>711.0</ele><time>2026-04-26T07:51:38.234Z</time></trkpt><trkpt lat="44.4053681" lon="10.7995494"><ele>711.0</ele><time>2026-04-26T07:51:39.236Z</time></trkpt><trkpt lat="44.4052272" lon="10.7996251"><ele>711.0</ele><time>2026-04-26T07:51:40.24Z</time></trkpt><trkpt lat="44.4051069" lon="10.7997359"><ele>711.0</ele><time>2026-04-26T07:51:41.236Z</time></trkpt><trkpt lat="44.4050097" lon="10.7998758"><ele>711.0</ele><time>2026-04-26T07:51:42.26Z</time></trkpt><trkpt lat="44.4049414" lon="10.8000322"><ele>710.5</ele><time>2026-04-26T07:51:43.24Z</time></trkpt><trkpt lat="44.4048829" lon="10.8002076"><ele>710.0</ele><time>2026-04-26T07:51:44.24Z</time></trkpt><trkpt lat="44.4048278" lon="10.8003869"><ele>709.5</ele><time>2026-04-26T07:51:45.233Z</time></trkpt><trkpt lat="44.4047656" lon="10.800567"><ele>709.0</ele><time>2026-04-26T07:51:46.234Z</time></trkpt><trkpt lat="44.4046981" lon="10.8007415"><ele>710.0</ele><time>2026-04-26T07:51:47.231Z</time></trkpt><trkpt lat="44.4046244" lon="10.8009142"><ele>711.0</ele><time>2026-04-26T07:51:48.235Z</time></trkpt><trkpt lat="44.4045438" lon="10.8010891"><ele>712.0</ele><time>2026-04-26T07:51:49.231Z</time></trkpt><trkpt lat="44.4044553" lon="10.8012598"><ele>713.0</ele><time>2026-04-26T07:51:50.232Z</time></trkpt><trkpt lat="44.404357" lon="10.8014243"><ele>713.0</ele><time>2026-04-26T07:51:51.246Z</time></trkpt><trkpt lat="44.404255" lon="10.8015844"><ele>713.0</ele><time>2026-04-26T07:51:52.231Z</time></trkpt><trkpt lat="44.4041399" lon="10.801731"><ele>713.0</ele><time>2026-04-26T07:51:53.232Z</time></trkpt><trkpt lat="44.4040204" lon="10.8018717"><ele>711.75</ele><time>2026-04-26T07:51:54.234Z</time></trkpt><trkpt lat="44.4039051" lon="10.8020114"><ele>710.5</ele><time>2026-04-26T07:51:55.235Z</time></trkpt><trkpt lat="44.4037941" lon="10.8021464"><ele>709.25</ele><time>2026-04-26T07:51:56.232Z</time></trkpt><trkpt lat="44.4036934" lon="10.8022718"><ele>708.0</ele><time>2026-04-26T07:51:57.237Z</time></trkpt><trkpt lat="44.4035939" lon="10.802386"><ele>708.0</ele><time>2026-04-26T07:51:58.251Z</time></trkpt><trkpt lat="44.4034947" lon="10.8024871"><ele>708.0</ele><time>2026-04-26T07:51:59.236Z</time></trkpt><trkpt lat="44.4033818" lon="10.8025591"><ele>708.0</ele><time>2026-04-26T07:52:00.231Z</time></trkpt><trkpt lat="44.4032518" lon="10.8025997"><ele>708.0</ele><time>2026-04-26T07:52:01.235Z</time></trkpt><trkpt lat="44.4031151" lon="10.802604"><ele>707.75</ele><time>2026-04-26T07:52:02.237Z</time></trkpt><trkpt lat="44.4029848" lon="10.8025823"><ele>707.5</ele><time>2026-04-26T07:52:03.236Z</time></trkpt><trkpt lat="44.4028693" lon="10.8025629"><ele>707.25</ele><time>2026-04-26T07:52:04.234Z</time></trkpt><trkpt lat="44.4027492" lon="10.8025228"><ele>707.0</ele><time>2026-04-26T07:52:05.242Z</time></trkpt><trkpt lat="44.4026367" lon="10.8024895"><ele>707.0</ele><time>2026-04-26T07:52:06.227Z</time></trkpt><trkpt lat="44.4025307" lon="10.8024566"><ele>707.0</ele><time>2026-04-26T07:52:07.245Z</time></trkpt><trkpt lat="44.4024347" lon="10.8024249"><ele>707.0</ele><time>2026-04-26T07:52:08.233Z</time></trkpt><trkpt lat="44.4023617" lon="10.8024151"><ele>707.0</ele><time>2026-04-26T07:52:09.23Z</time></trkpt><trkpt lat="44.4022988" lon="10.8024399"><ele>707.0</ele><time>2026-04-26T07:52:10.232Z</time></trkpt><trkpt lat="44.4022442" lon="10.8025839"><ele>707.2</ele><time>2026-04-26T07:52:12.231Z</time></trkpt><trkpt lat="44.4022152" lon="10.8027034"><ele>707.4000000000001</ele><time>2026-04-26T07:52:13.245Z</time></trkpt><trkpt lat="44.4021831" lon="10.8028345"><ele>707.5999999999999</ele><time>2026-04-26T07:52:14.233Z</time></trkpt><trkpt lat="44.4021497" lon="10.8029861"><ele>707.8</ele><time>2026-04-26T07:52:15.235Z</time></trkpt><trkpt lat="44.4021207" lon="10.8031393"><ele>708.0</ele><time>2026-04-26T07:52:16.228Z</time></trkpt><trkpt lat="44.4020934" lon="10.8032843"><ele>708.0</ele><time>2026-04-26T07:52:17.232Z</time></trkpt><trkpt lat="44.4020597" lon="10.8034203"><ele>708.0</ele><time>2026-04-26T07:52:18.233Z</time></trkpt><trkpt lat="44.4020207" lon="10.8035598"><ele>708.0</ele><time>2026-04-26T07:52:19.234Z</time></trkpt><trkpt lat="44.4019703" lon="10.8036983"><ele>708.0</ele><time>2026-04-26T07:52:20.23Z</time></trkpt><trkpt lat="44.4019136" lon="10.8038361"><ele>708.0</ele><time>2026-04-26T07:52:21.233Z</time></trkpt><trkpt lat="44.4018589" lon="10.8039821"><ele>708.75</ele><time>2026-04-26T07:52:22.236Z</time></trkpt><trkpt lat="44.4018046" lon="10.8041337"><ele>709.5</ele><time>2026-04-26T07:52:23.23Z</time></trkpt><trkpt lat="44.4017537" lon="10.8042811"><ele>710.25</ele><time>2026-04-26T07:52:24.247Z</time></trkpt><trkpt lat="44.4017085" lon="10.8044217"><ele>711.0</ele><time>2026-04-26T07:52:25.236Z</time></trkpt><trkpt lat="44.4016636" lon="10.8045561"><ele>711.0</ele><time>2026-04-26T07:52:26.232Z</time></trkpt><trkpt lat="44.4016513" lon="10.8047064"><ele>711.0</ele><time>2026-04-26T07:52:27.228Z</time></trkpt><trkpt lat="44.4016646" lon="10.8048574"><ele>711.0</ele><time>2026-04-26T07:52:28.241Z</time></trkpt><trkpt lat="44.4017153" lon="10.8049846"><ele>711.0</ele><time>2026-04-26T07:52:29.252Z</time></trkpt><trkpt lat="44.40179" lon="10.80509"><ele>711.0</ele><time>2026-04-26T07:52:30.231Z</time></trkpt><trkpt lat="44.4018935" lon="10.805131"><ele>711.0</ele><time>2026-04-26T07:52:31.231Z</time></trkpt><trkpt lat="44.4020249" lon="10.8051371"><ele>711.0</ele><time>2026-04-26T07:52:32.235Z</time></trkpt><trkpt lat="44.4021736" lon="10.8051257"><ele>711.0</ele><time>2026-04-26T07:52:33.235Z</time></trkpt><trkpt lat="44.4023166" lon="10.8051115"><ele>711.0</ele><time>2026-04-26T07:52:34.24Z</time></trkpt><trkpt lat="44.4024406" lon="10.805112"><ele>711.5999999999999</ele><time>2026-04-26T07:52:35.236Z</time></trkpt><trkpt lat="44.4025565" lon="10.8051257"><ele>712.2</ele><time>2026-04-26T07:52:36.235Z</time></trkpt><trkpt lat="44.4026515" lon="10.8051938"><ele>712.8</ele><time>2026-04-26T07:52:37.236Z</time></trkpt><trkpt lat="44.402724" lon="10.8052959"><ele>713.4000000000001</ele><time>2026-04-26T07:52:38.229Z</time></trkpt><trkpt lat="44.4027551" lon="10.8054349"><ele>714.0</ele><time>2026-04-26T07:52:39.231Z</time></trkpt><trkpt lat="44.4027475" lon="10.8055693"><ele>714.0</ele><time>2026-04-26T07:52:40.232Z</time></trkpt><trkpt lat="44.4027044" lon="10.8056905"><ele>714.0</ele><time>2026-04-26T07:52:41.233Z</time></trkpt><trkpt lat="44.4026241" lon="10.8058042"><ele>714.0</ele><time>2026-04-26T07:52:42.229Z</time></trkpt><trkpt lat="44.4025141" lon="10.8059198"><ele>714.0</ele><time>2026-04-26T07:52:43.232Z</time></trkpt><trkpt lat="44.4023801" lon="10.8060402"><ele>716.3333333333334</ele><time>2026-04-26T07:52:44.233Z</time></trkpt><trkpt lat="44.4022347" lon="10.8061714"><ele>718.6666666666667</ele><time>2026-04-26T07:52:45.233Z</time></trkpt><trkpt lat="44.4020786" lon="10.8062958"><ele>721.0</ele><time>2026-04-26T07:52:46.233Z</time></trkpt><trkpt lat="44.4019304" lon="10.8064043"><ele>721.6666666666667</ele><time>2026-04-26T07:52:47.228Z</time></trkpt><trkpt lat="44.4017679" lon="10.80647"><ele>722.3333333333334</ele><time>2026-04-26T07:52:48.244Z</time></trkpt><trkpt lat="44.4015912" lon="10.8065233"><ele>723.0</ele><time>2026-04-26T07:52:49.24Z</time></trkpt><trkpt lat="44.401407" lon="10.8065696"><ele>724.6666666666666</ele><time>2026-04-26T07:52:50.229Z</time></trkpt><trkpt lat="44.4012304" lon="10.8066121"><ele>726.3333333333333</ele><time>2026-04-26T07:52:51.241Z</time></trkpt><trkpt lat="44.4010555" lon="10.8066591"><ele>728.0</ele><time>2026-04-26T07:52:52.231Z</time></trkpt><trkpt lat="44.4008824" lon="10.8067104"><ele>728.0</ele><time>2026-04-26T07:52:53.241Z</time></trkpt><trkpt lat="44.4007153" lon="10.806767"><ele>728.0</ele><time>2026-04-26T07:52:54.231Z</time></trkpt><trkpt lat="44.4005591" lon="10.8068277"><ele>728.0</ele><time>2026-04-26T07:52:55.233Z</time></trkpt><trkpt lat="44.4004135" lon="10.8068888"><ele>730.5</ele><time>2026-04-26T07:52:56.236Z</time></trkpt><trkpt lat="44.4002726" lon="10.8069499"><ele>733.0</ele><time>2026-04-26T07:52:57.228Z</time></trkpt><trkpt lat="44.400137" lon="10.8070082"><ele>735.5</ele><time>2026-04-26T07:52:58.248Z</time></trkpt><trkpt lat="44.400002" lon="10.8070632"><ele>738.0</ele><time>2026-04-26T07:52:59.233Z</time></trkpt><trkpt lat="44.3998669" lon="10.8071209"><ele>738.0</ele><time>2026-04-26T07:53:00.235Z</time></trkpt><trkpt lat="44.3997339" lon="10.8071814"><ele>738.0</ele><time>2026-04-26T07:53:01.237Z</time></trkpt><trkpt lat="44.3996051" lon="10.8072434"><ele>738.0</ele><time>2026-04-26T07:53:02.234Z</time></trkpt><trkpt lat="44.3994821" lon="10.8073015"><ele>738.0</ele><time>2026-04-26T07:53:03.243Z</time></trkpt><trkpt lat="44.3993653" lon="10.8073546"><ele>739.75</ele><time>2026-04-26T07:53:04.232Z</time></trkpt><trkpt lat="44.3992475" lon="10.8074074"><ele>741.5</ele><time>2026-04-26T07:53:05.234Z</time></trkpt><trkpt lat="44.3991292" lon="10.807461"><ele>743.25</ele><time>2026-04-26T07:53:06.24Z</time></trkpt><trkpt lat="44.3990092" lon="10.8075157"><ele>745.0</ele><time>2026-04-26T07:53:07.229Z</time></trkpt><trkpt lat="44.3988909" lon="10.8075807"><ele>746.75</ele><time>2026-04-26T07:53:08.244Z</time></trkpt><trkpt lat="44.3987826" lon="10.8076609"><ele>748.5</ele><time>2026-04-26T07:53:09.233Z</time></trkpt><trkpt lat="44.3986827" lon="10.8077613"><ele>750.25</ele><time>2026-04-26T07:53:10.233Z</time></trkpt><trkpt lat="44.3985883" lon="10.8078796"><ele>752.0</ele><time>2026-04-26T07:53:11.234Z</time></trkpt><trkpt lat="44.3984995" lon="10.8080131"><ele>752.0</ele><time>2026-04-26T07:53:12.234Z</time></trkpt><trkpt lat="44.3984134" lon="10.8081621"><ele>752.0</ele><time>2026-04-26T07:53:13.245Z</time></trkpt><trkpt lat="44.3983278" lon="10.8083201"><ele>752.0</ele><time>2026-04-26T07:53:14.236Z</time></trkpt><trkpt lat="44.3982402" lon="10.8084796"><ele>752.0</ele><time>2026-04-26T07:53:15.229Z</time></trkpt><trkpt lat="44.3981525" lon="10.8086399"><ele>752.25</ele><time>2026-04-26T07:53:16.231Z</time></trkpt><trkpt lat="44.3980666" lon="10.8087987"><ele>752.5</ele><time>2026-04-26T07:53:17.233Z</time></trkpt><trkpt lat="44.3979824" lon="10.808948"><ele>752.75</ele><time>2026-04-26T07:53:18.244Z</time></trkpt><trkpt lat="44.3978974" lon="10.8090917"><ele>753.0</ele><time>2026-04-26T07:53:19.261Z</time></trkpt><trkpt lat="44.3978077" lon="10.8092289"><ele>753.75</ele><time>2026-04-26T07:53:20.237Z</time></trkpt><trkpt lat="44.3977093" lon="10.8093581"><ele>754.5</ele><time>2026-04-26T07:53:21.248Z</time></trkpt><trkpt lat="44.3976029" lon="10.8094715"><ele>755.25</ele><time>2026-04-26T07:53:22.234Z</time></trkpt><trkpt lat="44.397499" lon="10.8095739"><ele>756.0</ele><time>2026-04-26T07:53:23.242Z</time></trkpt><trkpt lat="44.3974017" lon="10.809666"><ele>756.0</ele><time>2026-04-26T07:53:24.237Z</time></trkpt><trkpt lat="44.3973152" lon="10.8097474"><ele>756.0</ele><time>2026-04-26T07:53:25.232Z</time></trkpt><trkpt lat="44.3972395" lon="10.8098135"><ele>756.0</ele><time>2026-04-26T07:53:26.231Z</time></trkpt><trkpt lat="44.3971695" lon="10.8098739"><ele>756.0</ele><time>2026-04-26T07:53:27.232Z</time></trkpt><trkpt lat="44.3970944" lon="10.8099187"><ele>756.0</ele><time>2026-04-26T07:53:28.232Z</time></trkpt><trkpt lat="44.397022" lon="10.8099746"><ele>756.0</ele><time>2026-04-26T07:53:29.25Z</time></trkpt><trkpt lat="44.3969352" lon="10.8100315"><ele>756.0</ele><time>2026-04-26T07:53:30.233Z</time></trkpt><trkpt lat="44.3968345" lon="10.8100903"><ele>756.0</ele><time>2026-04-26T07:53:31.234Z</time></trkpt><trkpt lat="44.3967189" lon="10.8101545"><ele>756.0</ele><time>2026-04-26T07:53:32.235Z</time></trkpt><trkpt lat="44.3966085" lon="10.8102198"><ele>756.0</ele><time>2026-04-26T07:53:33.235Z</time></trkpt><trkpt lat="44.3964962" lon="10.8102556"><ele>756.0</ele><time>2026-04-26T07:53:34.231Z</time></trkpt><trkpt lat="44.3963665" lon="10.8102738"><ele>756.0</ele><time>2026-04-26T07:53:35.235Z</time></trkpt><trkpt lat="44.3962438" lon="10.8103218"><ele>756.0</ele><time>2026-04-26T07:53:36.235Z</time></trkpt><trkpt lat="44.3961342" lon="10.8103774"><ele>756.0</ele><time>2026-04-26T07:53:37.235Z</time></trkpt><trkpt lat="44.3960491" lon="10.810426"><ele>756.8333333333334</ele><time>2026-04-26T07:53:38.239Z</time></trkpt><trkpt lat="44.3959889" lon="10.8104773"><ele>757.6666666666666</ele><time>2026-04-26T07:53:39.236Z</time></trkpt><trkpt lat="44.3958636" lon="10.8105629"><ele>758.5</ele><time>2026-04-26T07:53:41.236Z</time></trkpt><trkpt lat="44.3957914" lon="10.810623"><ele>759.3333333333333</ele><time>2026-04-26T07:53:42.238Z</time></trkpt><trkpt lat="44.3957224" lon="10.8106796"><ele>760.1666666666666</ele><time>2026-04-26T07:53:43.235Z</time></trkpt><trkpt lat="44.3956627" lon="10.8107435"><ele>761.0</ele><time>2026-04-26T07:53:44.234Z</time></trkpt><trkpt lat="44.3956081" lon="10.8108289"><ele>761.0</ele><time>2026-04-26T07:53:45.239Z</time></trkpt><trkpt lat="44.3955566" lon="10.8108898"><ele>761.0</ele><time>2026-04-26T07:53:46.242Z</time></trkpt><trkpt lat="44.3954888" lon="10.8109219"><ele>761.0</ele><time>2026-04-26T07:53:47.239Z</time></trkpt><trkpt lat="44.3954163" lon="10.8109581"><ele>761.0</ele><time>2026-04-26T07:53:48.249Z</time></trkpt><trkpt lat="44.3953364" lon="10.8110131"><ele>761.0</ele><time>2026-04-26T07:53:49.238Z</time></trkpt><trkpt lat="44.3952487" lon="10.8110783"><ele>761.0</ele><time>2026-04-26T07:53:50.238Z</time></trkpt><trkpt lat="44.3951722" lon="10.8111414"><ele>761.3333333333333</ele><time>2026-04-26T07:53:51.235Z</time></trkpt><trkpt lat="44.3951011" lon="10.8111966"><ele>761.6666666666666</ele><time>2026-04-26T07:53:52.233Z</time></trkpt><trkpt lat="44.3950351" lon="10.8112458"><ele>762.0</ele><time>2026-04-26T07:53:53.237Z</time></trkpt><trkpt lat="44.3949647" lon="10.8112738"><ele>762.3333333333334</ele><time>2026-04-26T07:53:54.236Z</time></trkpt><trkpt lat="44.3948789" lon="10.8112956"><ele>762.6666666666667</ele><time>2026-04-26T07:53:55.239Z</time></trkpt><trkpt lat="44.3947923" lon="10.8113083"><ele>763.0</ele><time>2026-04-26T07:53:56.241Z</time></trkpt><trkpt lat="44.3946987" lon="10.8113508"><ele>764.0</ele><time>2026-04-26T07:53:57.235Z</time></trkpt><trkpt lat="44.3945878" lon="10.8113833"><ele>765.0</ele><time>2026-04-26T07:53:58.232Z</time></trkpt><trkpt lat="44.3944758" lon="10.8114084"><ele>766.0</ele><time>2026-04-26T07:53:59.232Z</time></trkpt><trkpt lat="44.3943771" lon="10.8114304"><ele>767.0</ele><time>2026-04-26T07:54:00.241Z</time></trkpt><trkpt lat="44.3942666" lon="10.8114393"><ele>768.0</ele><time>2026-04-26T07:54:01.234Z</time></trkpt><trkpt lat="44.3941418" lon="10.8114514"><ele>768.0</ele><time>2026-04-26T07:54:02.233Z</time></trkpt><trkpt lat="44.3940244" lon="10.8114624"><ele>768.0</ele><time>2026-04-26T07:54:03.231Z</time></trkpt><trkpt lat="44.3939136" lon="10.8114796"><ele>768.0</ele><time>2026-04-26T07:54:04.233Z</time></trkpt><trkpt lat="44.3938135" lon="10.8114963"><ele>768.0</ele><time>2026-04-26T07:54:05.231Z</time></trkpt><trkpt lat="44.3937266" lon="10.8114968"><ele>768.0</ele><time>2026-04-26T07:54:06.241Z</time></trkpt><trkpt lat="44.393637" lon="10.811481"><ele>767.5999999999999</ele><time>2026-04-26T07:54:07.236Z</time></trkpt><trkpt lat="44.3935354" lon="10.8114549"><ele>767.1999999999999</ele><time>2026-04-26T07:54:08.236Z</time></trkpt><trkpt lat="44.3934332" lon="10.8114294"><ele>766.8</ele><time>2026-04-26T07:54:09.233Z</time></trkpt><trkpt lat="44.3933553" lon="10.8114045"><ele>766.4</ele><time>2026-04-26T07:54:10.243Z</time></trkpt><trkpt lat="44.3932388" lon="10.8114127"><ele>766.0</ele><time>2026-04-26T07:54:12.235Z</time></trkpt><trkpt lat="44.3931588" lon="10.811424"><ele>766.0</ele><time>2026-04-26T07:54:13.229Z</time></trkpt><trkpt lat="44.3930528" lon="10.8114438"><ele>766.0</ele><time>2026-04-26T07:54:14.235Z</time></trkpt><trkpt lat="44.392945" lon="10.8114833"><ele>766.0</ele><time>2026-04-26T07:54:15.235Z</time></trkpt><trkpt lat="44.3928332" lon="10.8115278"><ele>766.0</ele><time>2026-04-26T07:54:16.243Z</time></trkpt><trkpt lat="44.3927426" lon="10.8115634"><ele>766.0</ele><time>2026-04-26T07:54:17.233Z</time></trkpt><trkpt lat="44.3926605" lon="10.811601"><ele>766.3333333333334</ele><time>2026-04-26T07:54:18.233Z</time></trkpt><trkpt lat="44.3925885" lon="10.8116119"><ele>766.6666666666667</ele><time>2026-04-26T07:54:19.232Z</time></trkpt><trkpt lat="44.3925256" lon="10.8116284"><ele>767.0</ele><time>2026-04-26T07:54:20.232Z</time></trkpt><trkpt lat="44.3924514" lon="10.8116334"><ele>767.3333333333334</ele><time>2026-04-26T07:54:22.237Z</time></trkpt><trkpt lat="44.3923559" lon="10.8116669"><ele>767.6666666666666</ele><time>2026-04-26T07:54:25.231Z</time></trkpt><trkpt lat="44.3922417" lon="10.8116917"><ele>768.0</ele><time>2026-04-26T07:54:27.233Z</time></trkpt><trkpt lat="44.392161" lon="10.8117114"><ele>768.5999999999999</ele><time>2026-04-26T07:54:28.24Z</time></trkpt><trkpt lat="44.3920625" lon="10.8117417"><ele>769.1999999999999</ele><time>2026-04-26T07:54:29.231Z</time></trkpt><trkpt lat="44.3919576" lon="10.811777"><ele>769.8</ele><time>2026-04-26T07:54:30.234Z</time></trkpt><trkpt lat="44.3918549" lon="10.8118136"><ele>770.4</ele><time>2026-04-26T07:54:31.24Z</time></trkpt><trkpt lat="44.3917457" lon="10.8118343"><ele>771.0</ele><time>2026-04-26T07:54:32.232Z</time></trkpt><trkpt lat="44.3916366" lon="10.8118612"><ele>769.8</ele><time>2026-04-26T07:54:33.243Z</time></trkpt><trkpt lat="44.3915377" lon="10.8119264"><ele>768.5999999999999</ele><time>2026-04-26T07:54:34.231Z</time></trkpt><trkpt lat="44.39145" lon="10.8119685"><ele>767.4</ele><time>2026-04-26T07:54:35.234Z</time></trkpt><trkpt lat="44.3913644" lon="10.8120234"><ele>766.2</ele><time>2026-04-26T07:54:36.23Z</time></trkpt><trkpt lat="44.3912788" lon="10.8120473"><ele>765.0</ele><time>2026-04-26T07:54:37.233Z</time></trkpt><trkpt lat="44.3912025" lon="10.8120775"><ele>765.0</ele><time>2026-04-26T07:54:38.237Z</time></trkpt><trkpt lat="44.3911188" lon="10.8120905"><ele>765.0</ele><time>2026-04-26T07:54:39.232Z</time></trkpt><trkpt lat="44.3910092" lon="10.8121164"><ele>765.0</ele><time>2026-04-26T07:54:40.253Z</time></trkpt><trkpt lat="44.390899" lon="10.8121456"><ele>765.0</ele><time>2026-04-26T07:54:41.232Z</time></trkpt><trkpt lat="44.3908021" lon="10.8121331"><ele>765.0</ele><time>2026-04-26T07:54:42.237Z</time></trkpt><trkpt lat="44.3907089" lon="10.8121289"><ele>765.0</ele><time>2026-04-26T07:54:43.233Z</time></trkpt><trkpt lat="44.3906404" lon="10.8121325"><ele>765.0</ele><time>2026-04-26T07:54:44.243Z</time></trkpt><trkpt lat="44.3905571" lon="10.8121654"><ele>765.0</ele><time>2026-04-26T07:54:45.233Z</time></trkpt><trkpt lat="44.3904523" lon="10.8121844"><ele>765.0</ele><time>2026-04-26T07:54:47.241Z</time></trkpt><trkpt lat="44.3903627" lon="10.8122407"><ele>765.0</ele><time>2026-04-26T07:54:53.237Z</time></trkpt><trkpt lat="44.3902971" lon="10.8122842"><ele>765.0</ele><time>2026-04-26T07:54:55.236Z</time></trkpt><trkpt lat="44.3901782" lon="10.8123388"><ele>765.2</ele><time>2026-04-26T07:54:57.233Z</time></trkpt><trkpt lat="44.3900632" lon="10.8123985"><ele>765.4</ele><time>2026-04-26T07:54:59.232Z</time></trkpt><trkpt lat="44.3899562" lon="10.8124521"><ele>765.5999999999999</ele><time>2026-04-26T07:55:01.239Z</time></trkpt><trkpt lat="44.3898566" lon="10.8124062"><ele>765.8</ele><time>2026-04-26T07:55:03.235Z</time></trkpt><trkpt lat="44.3897672" lon="10.8123602"><ele>766.0</ele><time>2026-04-26T07:55:05.238Z</time></trkpt><trkpt lat="44.389698" lon="10.8123296"><ele>765.4</ele><time>2026-04-26T07:55:07.239Z</time></trkpt><trkpt lat="44.3896217" lon="10.812341"><ele>764.8</ele><time>2026-04-26T07:55:09.235Z</time></trkpt><trkpt lat="44.3895574" lon="10.8123894"><ele>764.1999999999999</ele><time>2026-04-26T07:55:10.231Z</time></trkpt><trkpt lat="44.3894856" lon="10.8124587"><ele>763.5999999999999</ele><time>2026-04-26T07:55:11.241Z</time></trkpt><trkpt lat="44.3894046" lon="10.8125464"><ele>763.0</ele><time>2026-04-26T07:55:12.233Z</time></trkpt><trkpt lat="44.3893176" lon="10.8126467"><ele>763.75</ele><time>2026-04-26T07:55:13.232Z</time></trkpt><trkpt lat="44.3892273" lon="10.8127447"><ele>764.5</ele><time>2026-04-26T07:55:14.232Z</time></trkpt><trkpt lat="44.3891322" lon="10.8128456"><ele>765.25</ele><time>2026-04-26T07:55:15.233Z</time></trkpt><trkpt lat="44.3890314" lon="10.8129504"><ele>766.0</ele><time>2026-04-26T07:55:16.231Z</time></trkpt><trkpt lat="44.3889225" lon="10.8130586"><ele>765.0</ele><time>2026-04-26T07:55:17.232Z</time></trkpt><trkpt lat="44.3888108" lon="10.8131716"><ele>764.0</ele><time>2026-04-26T07:55:18.23Z</time></trkpt><trkpt lat="44.3886971" lon="10.8132885"><ele>763.0</ele><time>2026-04-26T07:55:19.239Z</time></trkpt><trkpt lat="44.3885765" lon="10.8134093"><ele>762.0</ele><time>2026-04-26T07:55:20.235Z</time></trkpt><trkpt lat="44.3884511" lon="10.813528"><ele>762.0</ele><time>2026-04-26T07:55:21.239Z</time></trkpt><trkpt lat="44.3883247" lon="10.8136448"><ele>762.0</ele><time>2026-04-26T07:55:22.232Z</time></trkpt><trkpt lat="44.3881959" lon="10.8137612"><ele>762.0</ele><time>2026-04-26T07:55:23.234Z</time></trkpt><trkpt lat="44.3880673" lon="10.8138776"><ele>763.0</ele><time>2026-04-26T07:55:24.231Z</time></trkpt><trkpt lat="44.3879384" lon="10.8139944"><ele>764.0</ele><time>2026-04-26T07:55:25.24Z</time></trkpt><trkpt lat="44.3878071" lon="10.8141109"><ele>765.0</ele><time>2026-04-26T07:55:26.231Z</time></trkpt><trkpt lat="44.3876741" lon="10.8142295"><ele>765.75</ele><time>2026-04-26T07:55:27.243Z</time></trkpt><trkpt lat="44.3875415" lon="10.8143461"><ele>766.5</ele><time>2026-04-26T07:55:28.233Z</time></trkpt><trkpt lat="44.3874184" lon="10.8144543"><ele>767.25</ele><time>2026-04-26T07:55:29.247Z</time></trkpt><trkpt lat="44.3873076" lon="10.8145478"><ele>768.0</ele><time>2026-04-26T07:55:30.234Z</time></trkpt><trkpt lat="44.3872008" lon="10.8146373"><ele>766.8</ele><time>2026-04-26T07:55:31.234Z</time></trkpt><trkpt lat="44.3871014" lon="10.8147153"><ele>765.5999999999999</ele><time>2026-04-26T07:55:32.237Z</time></trkpt><trkpt lat="44.3870189" lon="10.8147979"><ele>764.4000000000001</ele><time>2026-04-26T07:55:33.237Z</time></trkpt><trkpt lat="44.3869481" lon="10.8148695"><ele>763.2</ele><time>2026-04-26T07:55:34.235Z</time></trkpt><trkpt lat="44.3868877" lon="10.8149073"><ele>762.0</ele><time>2026-04-26T07:55:35.234Z</time></trkpt><trkpt lat="44.3867677" lon="10.8149188"><ele>762.0</ele><time>2026-04-26T07:55:37.234Z</time></trkpt><trkpt lat="44.3866332" lon="10.8149078"><ele>762.0</ele><time>2026-04-26T07:55:39.231Z</time></trkpt><trkpt lat="44.3865434" lon="10.8148992"><ele>762.0</ele><time>2026-04-26T07:55:40.233Z</time></trkpt><trkpt lat="44.3864561" lon="10.8148899"><ele>762.0</ele><time>2026-04-26T07:55:41.238Z</time></trkpt><trkpt lat="44.3863694" lon="10.8148786"><ele>762.0</ele><time>2026-04-26T07:55:42.23Z</time></trkpt><trkpt lat="44.3862845" lon="10.8148634"><ele>761.6666666666666</ele><time>2026-04-26T07:55:43.233Z</time></trkpt><trkpt lat="44.3861962" lon="10.8148437"><ele>761.3333333333334</ele><time>2026-04-26T07:55:44.232Z</time></trkpt><trkpt lat="44.3861086" lon="10.8148118"><ele>761.0</ele><time>2026-04-26T07:55:45.233Z</time></trkpt><trkpt lat="44.3860227" lon="10.8147766"><ele>760.6666666666667</ele><time>2026-04-26T07:55:46.239Z</time></trkpt><trkpt lat="44.3859403" lon="10.8147443"><ele>760.3333333333334</ele><time>2026-04-26T07:55:47.244Z</time></trkpt><trkpt lat="44.3858672" lon="10.8146873"><ele>760.0</ele><time>2026-04-26T07:55:48.235Z</time></trkpt><trkpt lat="44.3857887" lon="10.814611"><ele>760.0</ele><time>2026-04-26T07:55:49.231Z</time></trkpt><trkpt lat="44.3857168" lon="10.8145106"><ele>760.0</ele><time>2026-04-26T07:55:50.239Z</time></trkpt><trkpt lat="44.3856594" lon="10.814406"><ele>760.0</ele><time>2026-04-26T07:55:51.236Z</time></trkpt><trkpt lat="44.3856088" lon="10.8142984"><ele>760.0</ele><time>2026-04-26T07:55:52.23Z</time></trkpt><trkpt lat="44.3855542" lon="10.8141814"><ele>760.0</ele><time>2026-04-26T07:55:53.245Z</time></trkpt><trkpt lat="44.3855025" lon="10.8140704"><ele>758.6</ele><time>2026-04-26T07:55:54.238Z</time></trkpt><trkpt lat="44.385447" lon="10.813963"><ele>757.2</ele><time>2026-04-26T07:55:55.234Z</time></trkpt><trkpt lat="44.3853963" lon="10.8138554"><ele>755.8</ele><time>2026-04-26T07:55:56.242Z</time></trkpt><trkpt lat="44.3853452" lon="10.8137596"><ele>754.4</ele><time>2026-04-26T07:55:57.233Z</time></trkpt><trkpt lat="44.3852837" lon="10.8136624"><ele>753.0</ele><time>2026-04-26T07:55:58.237Z</time></trkpt><trkpt lat="44.3851953" lon="10.8135676"><ele>753.5</ele><time>2026-04-26T07:55:59.24Z</time></trkpt><trkpt lat="44.3850918" lon="10.813473"><ele>754.0</ele><time>2026-04-26T07:56:00.243Z</time></trkpt><trkpt lat="44.3849773" lon="10.8133887"><ele>754.5</ele><time>2026-04-26T07:56:01.239Z</time></trkpt><trkpt lat="44.3848652" lon="10.8133154"><ele>755.0</ele><time>2026-04-26T07:56:02.232Z</time></trkpt><trkpt lat="44.3847521" lon="10.8132365"><ele>756.0</ele><time>2026-04-26T07:56:03.235Z</time></trkpt><trkpt lat="44.384646" lon="10.8131692"><ele>757.0</ele><time>2026-04-26T07:56:04.24Z</time></trkpt><trkpt lat="44.3845374" lon="10.813107"><ele>758.0</ele><time>2026-04-26T07:56:05.229Z</time></trkpt><trkpt lat="44.3844225" lon="10.8130346"><ele>759.0</ele><time>2026-04-26T07:56:06.231Z</time></trkpt><trkpt lat="44.3843106" lon="10.8129674"><ele>759.0</ele><time>2026-04-26T07:56:07.232Z</time></trkpt><trkpt lat="44.384204" lon="10.8129073"><ele>759.0</ele><time>2026-04-26T07:56:08.23Z</time></trkpt><trkpt lat="44.384111" lon="10.8128592"><ele>759.0</ele><time>2026-04-26T07:56:09.225Z</time></trkpt><trkpt lat="44.3840189" lon="10.8128158"><ele>759.0</ele><time>2026-04-26T07:56:10.236Z</time></trkpt><trkpt lat="44.3839132" lon="10.8127381"><ele>759.0</ele><time>2026-04-26T07:56:11.23Z</time></trkpt><trkpt lat="44.3837791" lon="10.8126208"><ele>760.25</ele><time>2026-04-26T07:56:12.231Z</time></trkpt><trkpt lat="44.3836689" lon="10.8125027"><ele>761.5</ele><time>2026-04-26T07:56:13.237Z</time></trkpt><trkpt lat="44.3835606" lon="10.812388"><ele>762.75</ele><time>2026-04-26T07:56:14.233Z</time></trkpt><trkpt lat="44.3834631" lon="10.8122711"><ele>764.0</ele><time>2026-04-26T07:56:15.235Z</time></trkpt><trkpt lat="44.3833695" lon="10.8121768"><ele>764.0</ele><time>2026-04-26T07:56:16.235Z</time></trkpt><trkpt lat="44.3832809" lon="10.8120914"><ele>764.0</ele><time>2026-04-26T07:56:17.234Z</time></trkpt><trkpt lat="44.3832007" lon="10.8120173"><ele>764.0</ele><time>2026-04-26T07:56:18.238Z</time></trkpt><trkpt lat="44.3831252" lon="10.8119576"><ele>764.0</ele><time>2026-04-26T07:56:19.24Z</time></trkpt><trkpt lat="44.3830592" lon="10.8119092"><ele>764.0</ele><time>2026-04-26T07:56:20.235Z</time></trkpt><trkpt lat="44.3829439" lon="10.8118324"><ele>759.75</ele><time>2026-04-26T07:56:22.232Z</time></trkpt><trkpt lat="44.382839" lon="10.8117598"><ele>755.5</ele><time>2026-04-26T07:56:24.237Z</time></trkpt><trkpt lat="44.3827363" lon="10.8116913"><ele>751.25</ele><time>2026-04-26T07:56:26.245Z</time></trkpt><trkpt lat="44.3826226" lon="10.8116111"><ele>747.0</ele><time>2026-04-26T07:56:28.23Z</time></trkpt><trkpt lat="44.3825035" lon="10.8115635"><ele>747.0</ele><time>2026-04-26T07:56:30.23Z</time></trkpt><trkpt lat="44.3823812" lon="10.8115471"><ele>747.0</ele><time>2026-04-26T07:56:32.235Z</time></trkpt><trkpt lat="44.3823149" lon="10.8115542"><ele>747.0</ele><time>2026-04-26T07:56:33.233Z</time></trkpt><trkpt lat="44.3822498" lon="10.8115655"><ele>747.0</ele><time>2026-04-26T07:56:34.237Z</time></trkpt><trkpt lat="44.3821813" lon="10.811586"><ele>747.0</ele><time>2026-04-26T07:56:35.236Z</time></trkpt><trkpt lat="44.3821099" lon="10.8116087"><ele>747.0</ele><time>2026-04-26T07:56:36.234Z</time></trkpt><trkpt lat="44.3820322" lon="10.8116267"><ele>745.2</ele><time>2026-04-26T07:56:37.233Z</time></trkpt><trkpt lat="44.3819521" lon="10.8116205"><ele>743.4000000000001</ele><time>2026-04-26T07:56:38.233Z</time></trkpt><trkpt lat="44.3818752" lon="10.811589"><ele>741.5999999999999</ele><time>2026-04-26T07:56:39.233Z</time></trkpt><trkpt lat="44.3817906" lon="10.8115361"><ele>739.8</ele><time>2026-04-26T07:56:40.236Z</time></trkpt><trkpt lat="44.3816947" lon="10.8114803"><ele>738.0</ele><time>2026-04-26T07:56:41.234Z</time></trkpt><trkpt lat="44.3816013" lon="10.8114221"><ele>738.0</ele><time>2026-04-26T07:56:42.226Z</time></trkpt><trkpt lat="44.3815117" lon="10.8113655"><ele>738.0</ele><time>2026-04-26T07:56:43.229Z</time></trkpt><trkpt lat="44.3814248" lon="10.811312"><ele>738.0</ele><time>2026-04-26T07:56:44.228Z</time></trkpt><trkpt lat="44.3813396" lon="10.8112624"><ele>738.0</ele><time>2026-04-26T07:56:45.234Z</time></trkpt><trkpt lat="44.381256" lon="10.8112176"><ele>738.0</ele><time>2026-04-26T07:56:46.229Z</time></trkpt><trkpt lat="44.3811721" lon="10.8111825"><ele>736.5999999999999</ele><time>2026-04-26T07:56:47.232Z</time></trkpt><trkpt lat="44.3810832" lon="10.81116"><ele>735.1999999999999</ele><time>2026-04-26T07:56:48.232Z</time></trkpt><trkpt lat="44.3809759" lon="10.8111529"><ele>733.8</ele><time>2026-04-26T07:56:49.233Z</time></trkpt><trkpt lat="44.38087" lon="10.8111539"><ele>732.4</ele><time>2026-04-26T07:56:50.24Z</time></trkpt><trkpt lat="44.3807435" lon="10.811138"><ele>731.0</ele><time>2026-04-26T07:56:51.23Z</time></trkpt><trkpt lat="44.3806159" lon="10.8111381"><ele>729.25</ele><time>2026-04-26T07:56:52.226Z</time></trkpt><trkpt lat="44.3804848" lon="10.8111368"><ele>727.5</ele><time>2026-04-26T07:56:53.237Z</time></trkpt><trkpt lat="44.3803532" lon="10.8111317"><ele>725.75</ele><time>2026-04-26T07:56:54.233Z</time></trkpt><trkpt lat="44.3802209" lon="10.811124"><ele>724.0</ele><time>2026-04-26T07:56:55.229Z</time></trkpt><trkpt lat="44.3800878" lon="10.8110951"><ele>724.0</ele><time>2026-04-26T07:56:56.23Z</time></trkpt><trkpt lat="44.3799632" lon="10.8110587"><ele>724.0</ele><time>2026-04-26T07:56:57.234Z</time></trkpt><trkpt lat="44.379835" lon="10.8110204"><ele>724.0</ele><time>2026-04-26T07:56:58.236Z</time></trkpt><trkpt lat="44.3797075" lon="10.8109751"><ele>724.0</ele><time>2026-04-26T07:56:59.232Z</time></trkpt><trkpt lat="44.3795703" lon="10.8109348"><ele>724.75</ele><time>2026-04-26T07:57:00.227Z</time></trkpt><trkpt lat="44.3794315" lon="10.8108838"><ele>725.5</ele><time>2026-04-26T07:57:01.233Z</time></trkpt><trkpt lat="44.3793016" lon="10.8108266"><ele>726.25</ele><time>2026-04-26T07:57:02.236Z</time></trkpt><trkpt lat="44.3791846" lon="10.8107669"><ele>727.0</ele><time>2026-04-26T07:57:03.235Z</time></trkpt><trkpt lat="44.3790951" lon="10.8107275"><ele>727.0</ele><time>2026-04-26T07:57:04.229Z</time></trkpt><trkpt lat="44.3790294" lon="10.8107137"><ele>727.0</ele><time>2026-04-26T07:57:05.242Z</time></trkpt><trkpt lat="44.3789527" lon="10.8107402"><ele>727.0</ele><time>2026-04-26T07:57:07.233Z</time></trkpt><trkpt lat="44.3789877" lon="10.8108423"><ele>727.0</ele><time>2026-04-26T07:57:09.24Z</time></trkpt><trkpt lat="44.3790503" lon="10.8109029"><ele>727.0</ele><time>2026-04-26T07:57:10.235Z</time></trkpt><trkpt lat="44.3791257" lon="10.8109773"><ele>727.0</ele><time>2026-04-26T07:57:11.235Z</time></trkpt><trkpt lat="44.3792341" lon="10.811071"><ele>724.6666666666667</ele><time>2026-04-26T07:57:12.234Z</time></trkpt><trkpt lat="44.3793522" lon="10.8111785"><ele>722.3333333333334</ele><time>2026-04-26T07:57:13.234Z</time></trkpt><trkpt lat="44.3794817" lon="10.8112975"><ele>720.0</ele><time>2026-04-26T07:57:14.237Z</time></trkpt><trkpt lat="44.37962" lon="10.8114268"><ele>721.0</ele><time>2026-04-26T07:57:15.229Z</time></trkpt><trkpt lat="44.3797494" lon="10.8115527"><ele>722.0</ele><time>2026-04-26T07:57:16.238Z</time></trkpt><trkpt lat="44.3798658" lon="10.8116757"><ele>723.0</ele><time>2026-04-26T07:57:17.232Z</time></trkpt><trkpt lat="44.3799541" lon="10.8117934"><ele>724.0</ele><time>2026-04-26T07:57:18.229Z</time></trkpt><trkpt lat="44.3800282" lon="10.8119085"><ele>724.5</ele><time>2026-04-26T07:57:19.232Z</time></trkpt><trkpt lat="44.3800605" lon="10.8120519"><ele>725.0</ele><time>2026-04-26T07:57:20.236Z</time></trkpt><trkpt lat="44.3800459" lon="10.8122291"><ele>725.5</ele><time>2026-04-26T07:57:21.232Z</time></trkpt><trkpt lat="44.380017" lon="10.8124213"><ele>726.0</ele><time>2026-04-26T07:57:22.234Z</time></trkpt><trkpt lat="44.3800015" lon="10.8126218"><ele>725.25</ele><time>2026-04-26T07:57:23.235Z</time></trkpt><trkpt lat="44.3800056" lon="10.8128089"><ele>724.5</ele><time>2026-04-26T07:57:24.233Z</time></trkpt><trkpt lat="44.3800438" lon="10.8129923"><ele>723.75</ele><time>2026-04-26T07:57:25.24Z</time></trkpt><trkpt lat="44.3801003" lon="10.8131793"><ele>723.0</ele><time>2026-04-26T07:57:26.239Z</time></trkpt><trkpt lat="44.380184" lon="10.8133462"><ele>723.0</ele><time>2026-04-26T07:57:27.232Z</time></trkpt><trkpt lat="44.3802909" lon="10.8135038"><ele>723.0</ele><time>2026-04-26T07:57:28.227Z</time></trkpt><trkpt lat="44.3804115" lon="10.8136574"><ele>723.0</ele><time>2026-04-26T07:57:29.236Z</time></trkpt><trkpt lat="44.3805467" lon="10.8138172"><ele>723.6666666666666</ele><time>2026-04-26T07:57:30.235Z</time></trkpt><trkpt lat="44.3806863" lon="10.8139835"><ele>724.3333333333333</ele><time>2026-04-26T07:57:31.236Z</time></trkpt><trkpt lat="44.3808189" lon="10.8141361"><ele>725.0</ele><time>2026-04-26T07:57:32.235Z</time></trkpt><trkpt lat="44.3809419" lon="10.8142737"><ele>726.0</ele><time>2026-04-26T07:57:33.236Z</time></trkpt><trkpt lat="44.381045" lon="10.8144047"><ele>727.0</ele><time>2026-04-26T07:57:34.232Z</time></trkpt><trkpt lat="44.3811222" lon="10.8145436"><ele>728.0</ele><time>2026-04-26T07:57:35.229Z</time></trkpt><trkpt lat="44.3811664" lon="10.8146897"><ele>729.0</ele><time>2026-04-26T07:57:36.238Z</time></trkpt><trkpt lat="44.3811798" lon="10.8148408"><ele>729.0</ele><time>2026-04-26T07:57:37.245Z</time></trkpt><trkpt lat="44.3811677" lon="10.8149813"><ele>729.0</ele><time>2026-04-26T07:57:38.237Z</time></trkpt><trkpt lat="44.381123" lon="10.8150979"><ele>729.0</ele><time>2026-04-26T07:57:39.232Z</time></trkpt><trkpt lat="44.3810673" lon="10.8151853"><ele>729.0</ele><time>2026-04-26T07:57:40.237Z</time></trkpt><trkpt lat="44.3809734" lon="10.8152003"><ele>729.0</ele><time>2026-04-26T07:57:41.235Z</time></trkpt><trkpt lat="44.3808625" lon="10.8151786"><ele>729.0</ele><time>2026-04-26T07:57:42.231Z</time></trkpt><trkpt lat="44.3807433" lon="10.8151286"><ele>729.0</ele><time>2026-04-26T07:57:43.232Z</time></trkpt><trkpt lat="44.3806101" lon="10.8150485"><ele>729.0</ele><time>2026-04-26T07:57:44.235Z</time></trkpt><trkpt lat="44.3804737" lon="10.8149725"><ele>729.0</ele><time>2026-04-26T07:57:45.238Z</time></trkpt><trkpt lat="44.3803267" lon="10.8149329"><ele>730.3333333333334</ele><time>2026-04-26T07:57:46.229Z</time></trkpt><trkpt lat="44.3801777" lon="10.8149238"><ele>731.6666666666667</ele><time>2026-04-26T07:57:47.227Z</time></trkpt><trkpt lat="44.3800247" lon="10.8149222"><ele>733.0</ele><time>2026-04-26T07:57:48.232Z</time></trkpt><trkpt lat="44.3798691" lon="10.8149264"><ele>733.0</ele><time>2026-04-26T07:57:49.231Z</time></trkpt><trkpt lat="44.3797213" lon="10.8149206"><ele>733.0</ele><time>2026-04-26T07:57:50.23Z</time></trkpt><trkpt lat="44.379583" lon="10.8149318"><ele>733.0</ele><time>2026-04-26T07:57:51.236Z</time></trkpt><trkpt lat="44.379465" lon="10.8149655"><ele>733.0</ele><time>2026-04-26T07:57:52.229Z</time></trkpt><trkpt lat="44.3793687" lon="10.8150292"><ele>733.5</ele><time>2026-04-26T07:57:53.235Z</time></trkpt><trkpt lat="44.3793026" lon="10.8151308"><ele>734.0</ele><time>2026-04-26T07:57:54.228Z</time></trkpt><trkpt lat="44.3792593" lon="10.8152672"><ele>734.5</ele><time>2026-04-26T07:57:55.227Z</time></trkpt><trkpt lat="44.3792214" lon="10.8154337"><ele>735.0</ele><time>2026-04-26T07:57:56.229Z</time></trkpt><trkpt lat="44.3791853" lon="10.8156141"><ele>735.75</ele><time>2026-04-26T07:57:57.24Z</time></trkpt><trkpt lat="44.3791494" lon="10.815798"><ele>736.5</ele><time>2026-04-26T07:57:58.228Z</time></trkpt><trkpt lat="44.379112" lon="10.8159819"><ele>737.25</ele><time>2026-04-26T07:57:59.232Z</time></trkpt><trkpt lat="44.379074" lon="10.8161556"><ele>738.0</ele><time>2026-04-26T07:58:00.231Z</time></trkpt><trkpt lat="44.3790364" lon="10.8163147"><ele>739.0</ele><time>2026-04-26T07:58:01.235Z</time></trkpt><trkpt lat="44.3789962" lon="10.8164622"><ele>740.0</ele><time>2026-04-26T07:58:02.228Z</time></trkpt><trkpt lat="44.3789497" lon="10.8165906"><ele>741.0</ele><time>2026-04-26T07:58:03.229Z</time></trkpt><trkpt lat="44.3789" lon="10.8166963"><ele>742.0</ele><time>2026-04-26T07:58:04.232Z</time></trkpt><trkpt lat="44.378851" lon="10.8167924"><ele>743.0</ele><time>2026-04-26T07:58:05.228Z</time></trkpt><trkpt lat="44.3788029" lon="10.8168878"><ele>744.1666666666666</ele><time>2026-04-26T07:58:06.231Z</time></trkpt><trkpt lat="44.3787546" lon="10.8169784"><ele>745.3333333333333</ele><time>2026-04-26T07:58:07.235Z</time></trkpt><trkpt lat="44.3787336" lon="10.8170764"><ele>746.5</ele><time>2026-04-26T07:58:08.227Z</time></trkpt><trkpt lat="44.3787315" lon="10.817192"><ele>747.6666666666666</ele><time>2026-04-26T07:58:09.231Z</time></trkpt><trkpt lat="44.3787818" lon="10.8172934"><ele>748.8333333333334</ele><time>2026-04-26T07:58:10.228Z</time></trkpt><trkpt lat="44.378848" lon="10.8174033"><ele>750.0</ele><time>2026-04-26T07:58:11.232Z</time></trkpt><trkpt lat="44.3789324" lon="10.8175095"><ele>750.0</ele><time>2026-04-26T07:58:12.234Z</time></trkpt><trkpt lat="44.3790302" lon="10.8176213"><ele>750.0</ele><time>2026-04-26T07:58:13.233Z</time></trkpt><trkpt lat="44.3791296" lon="10.8177274"><ele>750.0</ele><time>2026-04-26T07:58:14.229Z</time></trkpt><trkpt lat="44.3792272" lon="10.8178251"><ele>750.0</ele><time>2026-04-26T07:58:15.238Z</time></trkpt><trkpt lat="44.3793213" lon="10.8179198"><ele>751.0</ele><time>2026-04-26T07:58:16.231Z</time></trkpt><trkpt lat="44.3794084" lon="10.8180092"><ele>752.0</ele><time>2026-04-26T07:58:17.227Z</time></trkpt><trkpt lat="44.3794995" lon="10.8180938"><ele>753.0</ele><time>2026-04-26T07:58:18.231Z</time></trkpt><trkpt lat="44.3795939" lon="10.8181445"><ele>754.0</ele><time>2026-04-26T07:58:19.23Z</time></trkpt><trkpt lat="44.3797103" lon="10.8181744"><ele>755.0</ele><time>2026-04-26T07:58:20.229Z</time></trkpt><trkpt lat="44.3798312" lon="10.8181931"><ele>755.5</ele><time>2026-04-26T07:58:21.231Z</time></trkpt><trkpt lat="44.3799429" lon="10.8182135"><ele>756.0</ele><time>2026-04-26T07:58:22.233Z</time></trkpt><trkpt lat="44.3800577" lon="10.8182417"><ele>756.5</ele><time>2026-04-26T07:58:23.235Z</time></trkpt><trkpt lat="44.3801654" lon="10.8183326"><ele>757.0</ele><time>2026-04-26T07:58:24.231Z</time></trkpt><trkpt lat="44.380254" lon="10.8184632"><ele>757.0</ele><time>2026-04-26T07:58:25.233Z</time></trkpt><trkpt lat="44.3803372" lon="10.8186311"><ele>757.0</ele><time>2026-04-26T07:58:26.233Z</time></trkpt><trkpt lat="44.3804167" lon="10.8188138"><ele>757.0</ele><time>2026-04-26T07:58:27.231Z</time></trkpt><trkpt lat="44.3804954" lon="10.8190054"><ele>756.25</ele><time>2026-04-26T07:58:28.229Z</time></trkpt><trkpt lat="44.3805727" lon="10.8191845"><ele>755.5</ele><time>2026-04-26T07:58:29.23Z</time></trkpt><trkpt lat="44.3806441" lon="10.8193535"><ele>754.75</ele><time>2026-04-26T07:58:30.23Z</time></trkpt><trkpt lat="44.3807121" lon="10.8195137"><ele>754.0</ele><time>2026-04-26T07:58:31.263Z</time></trkpt><trkpt lat="44.3807753" lon="10.8196626"><ele>754.0</ele><time>2026-04-26T07:58:32.235Z</time></trkpt><trkpt lat="44.3808332" lon="10.8198054"><ele>754.0</ele><time>2026-04-26T07:58:33.228Z</time></trkpt><trkpt lat="44.3808842" lon="10.8199415"><ele>754.0</ele><time>2026-04-26T07:58:34.228Z</time></trkpt><trkpt lat="44.3809342" lon="10.8200695"><ele>754.0</ele><time>2026-04-26T07:58:35.233Z</time></trkpt><trkpt lat="44.3809803" lon="10.8201939"><ele>754.0</ele><time>2026-04-26T07:58:36.247Z</time></trkpt><trkpt lat="44.3810208" lon="10.8203154"><ele>753.5</ele><time>2026-04-26T07:58:37.247Z</time></trkpt><trkpt lat="44.3810568" lon="10.820434"><ele>753.0</ele><time>2026-04-26T07:58:38.236Z</time></trkpt><trkpt lat="44.3810888" lon="10.8205475"><ele>752.5</ele><time>2026-04-26T07:58:39.23Z</time></trkpt><trkpt lat="44.3811187" lon="10.8206358"><ele>752.0</ele><time>2026-04-26T07:58:40.23Z</time></trkpt><trkpt lat="44.3811517" lon="10.8207818"><ele>751.5</ele><time>2026-04-26T07:58:42.235Z</time></trkpt><trkpt lat="44.3811536" lon="10.8208885"><ele>751.0</ele><time>2026-04-26T07:58:44.228Z</time></trkpt><trkpt lat="44.3811499" lon="10.8209987"><ele>750.1999999999999</ele><time>2026-04-26T07:58:46.237Z</time></trkpt><trkpt lat="44.381079" lon="10.8211053"><ele>749.4</ele><time>2026-04-26T07:58:48.235Z</time></trkpt><trkpt lat="44.3810138" lon="10.8211675"><ele>748.6</ele><time>2026-04-26T07:58:49.235Z</time></trkpt><trkpt lat="44.3809312" lon="10.8212423"><ele>747.8</ele><time>2026-04-26T07:58:50.242Z</time></trkpt><trkpt lat="44.3808377" lon="10.8213309"><ele>747.0</ele><time>2026-04-26T07:58:51.231Z</time></trkpt><trkpt lat="44.3807377" lon="10.8214317"><ele>747.0</ele><time>2026-04-26T07:58:52.234Z</time></trkpt><trkpt lat="44.3806379" lon="10.8215348"><ele>747.0</ele><time>2026-04-26T07:58:53.233Z</time></trkpt><trkpt lat="44.3805342" lon="10.8216418"><ele>747.0</ele><time>2026-04-26T07:58:54.24Z</time></trkpt><trkpt lat="44.3804247" lon="10.8217532"><ele>747.0</ele><time>2026-04-26T07:58:55.233Z</time></trkpt><trkpt lat="44.380313" lon="10.8218706"><ele>747.25</ele><time>2026-04-26T07:58:56.234Z</time></trkpt><trkpt lat="44.3801965" lon="10.8219904"><ele>747.5</ele><time>2026-04-26T07:58:57.238Z</time></trkpt><trkpt lat="44.3800794" lon="10.8221108"><ele>747.75</ele><time>2026-04-26T07:58:58.235Z</time></trkpt><trkpt lat="44.3799671" lon="10.8222273"><ele>748.0</ele><time>2026-04-26T07:58:59.233Z</time></trkpt><trkpt lat="44.3798587" lon="10.822338"><ele>748.0</ele><time>2026-04-26T07:59:00.231Z</time></trkpt><trkpt lat="44.3797549" lon="10.8224416"><ele>748.0</ele><time>2026-04-26T07:59:01.235Z</time></trkpt><trkpt lat="44.3796536" lon="10.8225427"><ele>748.0</ele><time>2026-04-26T07:59:02.232Z</time></trkpt><trkpt lat="44.3795536" lon="10.8226423"><ele>748.0</ele><time>2026-04-26T07:59:03.233Z</time></trkpt><trkpt lat="44.3794528" lon="10.8227442"><ele>746.5</ele><time>2026-04-26T07:59:04.231Z</time></trkpt><trkpt lat="44.3793499" lon="10.8228425"><ele>745.0</ele><time>2026-04-26T07:59:05.229Z</time></trkpt><trkpt lat="44.3792424" lon="10.8229501"><ele>743.5</ele><time>2026-04-26T07:59:06.235Z</time></trkpt><trkpt lat="44.3791285" lon="10.8230596"><ele>742.0</ele><time>2026-04-26T07:59:07.239Z</time></trkpt><trkpt lat="44.3790143" lon="10.8231746"><ele>742.0</ele><time>2026-04-26T07:59:08.235Z</time></trkpt><trkpt lat="44.3788977" lon="10.8232988"><ele>742.0</ele><time>2026-04-26T07:59:09.235Z</time></trkpt><trkpt lat="44.3787747" lon="10.82343"><ele>742.0</ele><time>2026-04-26T07:59:10.242Z</time></trkpt><trkpt lat="44.3786389" lon="10.823564"><ele>739.0</ele><time>2026-04-26T07:59:11.242Z</time></trkpt><trkpt lat="44.3785074" lon="10.823686"><ele>736.0</ele><time>2026-04-26T07:59:12.234Z</time></trkpt><trkpt lat="44.3783744" lon="10.8238246"><ele>733.0</ele><time>2026-04-26T07:59:13.235Z</time></trkpt><trkpt lat="44.3782325" lon="10.8239584"><ele>733.0</ele><time>2026-04-26T07:59:14.236Z</time></trkpt><trkpt lat="44.3780891" lon="10.8241094"><ele>733.0</ele><time>2026-04-26T07:59:15.233Z</time></trkpt><trkpt lat="44.3779387" lon="10.8242544"><ele>733.0</ele><time>2026-04-26T07:59:16.233Z</time></trkpt><trkpt lat="44.3777845" lon="10.8243953"><ele>731.0</ele><time>2026-04-26T07:59:17.237Z</time></trkpt><trkpt lat="44.3776328" lon="10.8245535"><ele>729.0</ele><time>2026-04-26T07:59:18.234Z</time></trkpt><trkpt lat="44.3774817" lon="10.8247176"><ele>727.0</ele><time>2026-04-26T07:59:19.235Z</time></trkpt><trkpt lat="44.3773372" lon="10.8248887"><ele>727.0</ele><time>2026-04-26T07:59:20.23Z</time></trkpt><trkpt lat="44.3771964" lon="10.8250642"><ele>727.0</ele><time>2026-04-26T07:59:21.234Z</time></trkpt><trkpt lat="44.377062" lon="10.8252378"><ele>727.0</ele><time>2026-04-26T07:59:22.23Z</time></trkpt><trkpt lat="44.3769338" lon="10.8254081"><ele>727.0</ele><time>2026-04-26T07:59:23.232Z</time></trkpt><trkpt lat="44.3768063" lon="10.8255622"><ele>727.0</ele><time>2026-04-26T07:59:24.231Z</time></trkpt><trkpt lat="44.3766883" lon="10.8257162"><ele>727.0</ele><time>2026-04-26T07:59:25.24Z</time></trkpt><trkpt lat="44.3765775" lon="10.8258629"><ele>726.3333333333334</ele><time>2026-04-26T07:59:26.236Z</time></trkpt><trkpt lat="44.3764796" lon="10.8260183"><ele>725.6666666666666</ele><time>2026-04-26T07:59:27.235Z</time></trkpt><trkpt lat="44.3763693" lon="10.8261607"><ele>725.0</ele><time>2026-04-26T07:59:28.234Z</time></trkpt><trkpt lat="44.3762633" lon="10.8263238"><ele>725.0</ele><time>2026-04-26T07:59:29.237Z</time></trkpt><trkpt lat="44.3761495" lon="10.8264729"><ele>725.0</ele><time>2026-04-26T07:59:30.236Z</time></trkpt><trkpt lat="44.3760348" lon="10.8266365"><ele>725.0</ele><time>2026-04-26T07:59:31.237Z</time></trkpt><trkpt lat="44.3759359" lon="10.8268119"><ele>723.5</ele><time>2026-04-26T07:59:32.235Z</time></trkpt><trkpt lat="44.3758393" lon="10.8269764"><ele>722.0</ele><time>2026-04-26T07:59:33.239Z</time></trkpt><trkpt lat="44.3757615" lon="10.8271566"><ele>720.5</ele><time>2026-04-26T07:59:34.245Z</time></trkpt><trkpt lat="44.375691" lon="10.8273236"><ele>719.0</ele><time>2026-04-26T07:59:35.234Z</time></trkpt><trkpt lat="44.3756153" lon="10.8275046"><ele>718.5</ele><time>2026-04-26T07:59:36.232Z</time></trkpt><trkpt lat="44.3755454" lon="10.8276829"><ele>718.0</ele><time>2026-04-26T07:59:37.234Z</time></trkpt><trkpt lat="44.3754787" lon="10.8278574"><ele>717.5</ele><time>2026-04-26T07:59:38.235Z</time></trkpt><trkpt lat="44.3754111" lon="10.8280182"><ele>717.0</ele><time>2026-04-26T07:59:39.235Z</time></trkpt><trkpt lat="44.375347" lon="10.8281734"><ele>717.0</ele><time>2026-04-26T07:59:40.233Z</time></trkpt><trkpt lat="44.3752849" lon="10.8283155"><ele>717.0</ele><time>2026-04-26T07:59:41.232Z</time></trkpt><trkpt lat="44.3752241" lon="10.8284382"><ele>717.0</ele><time>2026-04-26T07:59:42.234Z</time></trkpt><trkpt lat="44.3751588" lon="10.8285332"><ele>717.0</ele><time>2026-04-26T07:59:43.238Z</time></trkpt><trkpt lat="44.3750947" lon="10.8286064"><ele>717.0</ele><time>2026-04-26T07:59:44.231Z</time></trkpt><trkpt lat="44.3750261" lon="10.8286145"><ele>717.0</ele><time>2026-04-26T07:59:45.23Z</time></trkpt><trkpt lat="44.3749622" lon="10.8285712"><ele>717.0</ele><time>2026-04-26T07:59:46.232Z</time></trkpt><trkpt lat="44.3748856" lon="10.8285073"><ele>717.0</ele><time>2026-04-26T07:59:47.236Z</time></trkpt><trkpt lat="44.3747984" lon="10.8284271"><ele>717.0</ele><time>2026-04-26T07:59:48.232Z</time></trkpt><trkpt lat="44.3746933" lon="10.8283422"><ele>717.0</ele><time>2026-04-26T07:59:49.235Z</time></trkpt><trkpt lat="44.3745763" lon="10.8282604"><ele>716.0</ele><time>2026-04-26T07:59:50.238Z</time></trkpt><trkpt lat="44.3744521" lon="10.8281814"><ele>715.0</ele><time>2026-04-26T07:59:51.237Z</time></trkpt><trkpt lat="44.3743177" lon="10.828109"><ele>714.0</ele><time>2026-04-26T07:59:52.236Z</time></trkpt><trkpt lat="44.3741743" lon="10.8280363"><ele>713.0</ele><time>2026-04-26T07:59:53.238Z</time></trkpt><trkpt lat="44.3740291" lon="10.8279654"><ele>713.0</ele><time>2026-04-26T07:59:54.239Z</time></trkpt><trkpt lat="44.3738888" lon="10.827898"><ele>713.0</ele><time>2026-04-26T07:59:55.232Z</time></trkpt><trkpt lat="44.3737466" lon="10.8278355"><ele>713.0</ele><time>2026-04-26T07:59:56.239Z</time></trkpt><trkpt lat="44.3735981" lon="10.8277766"><ele>714.0</ele><time>2026-04-26T07:59:57.24Z</time></trkpt><trkpt lat="44.3734465" lon="10.8277165"><ele>715.0</ele><time>2026-04-26T07:59:58.236Z</time></trkpt><trkpt lat="44.3732917" lon="10.8276582"><ele>716.0</ele><time>2026-04-26T07:59:59.24Z</time></trkpt><trkpt lat="44.3731389" lon="10.8276009"><ele>714.3333333333333</ele><time>2026-04-26T08:00:00.239Z</time></trkpt><trkpt lat="44.3729851" lon="10.8275444"><ele>712.6666666666666</ele><time>2026-04-26T08:00:01.236Z</time></trkpt><trkpt lat="44.372833" lon="10.8274903"><ele>711.0</ele><time>2026-04-26T08:00:02.239Z</time></trkpt><trkpt lat="44.372683" lon="10.827437"><ele>711.0</ele><time>2026-04-26T08:00:03.239Z</time></trkpt><trkpt lat="44.372544" lon="10.8273817"><ele>711.0</ele><time>2026-04-26T08:00:04.235Z</time></trkpt><trkpt lat="44.372427" lon="10.8272903"><ele>711.0</ele><time>2026-04-26T08:00:05.233Z</time></trkpt><trkpt lat="44.3723386" lon="10.8271705"><ele>711.0</ele><time>2026-04-26T08:00:06.232Z</time></trkpt><trkpt lat="44.3722815" lon="10.8270196"><ele>711.0</ele><time>2026-04-26T08:00:07.234Z</time></trkpt><trkpt lat="44.3722283" lon="10.8268684"><ele>711.0</ele><time>2026-04-26T08:00:08.239Z</time></trkpt><trkpt lat="44.372244" lon="10.8266904"><ele>711.0</ele><time>2026-04-26T08:00:09.235Z</time></trkpt><trkpt lat="44.3722892" lon="10.8264992"><ele>711.0</ele><time>2026-04-26T08:00:10.238Z</time></trkpt><trkpt lat="44.3723335" lon="10.8262936"><ele>712.5</ele><time>2026-04-26T08:00:11.232Z</time></trkpt><trkpt lat="44.3723786" lon="10.8260858"><ele>714.0</ele><time>2026-04-26T08:00:12.242Z</time></trkpt><trkpt lat="44.3724179" lon="10.8259036"><ele>715.5</ele><time>2026-04-26T08:00:13.237Z</time></trkpt><trkpt lat="44.3724542" lon="10.8257374"><ele>717.0</ele><time>2026-04-26T08:00:14.235Z</time></trkpt><trkpt lat="44.3724939" lon="10.825569"><ele>718.25</ele><time>2026-04-26T08:00:15.232Z</time></trkpt><trkpt lat="44.3725298" lon="10.8253938"><ele>719.5</ele><time>2026-04-26T08:00:16.239Z</time></trkpt><trkpt lat="44.3725624" lon="10.8252074"><ele>720.75</ele><time>2026-04-26T08:00:17.239Z</time></trkpt><trkpt lat="44.372594" lon="10.825015"><ele>722.0</ele><time>2026-04-26T08:00:18.23Z</time></trkpt><trkpt lat="44.3726119" lon="10.8248135"><ele>722.75</ele><time>2026-04-26T08:00:19.239Z</time></trkpt><trkpt lat="44.3726086" lon="10.8246134"><ele>723.5</ele><time>2026-04-26T08:00:20.237Z</time></trkpt><trkpt lat="44.3725858" lon="10.8244191"><ele>724.25</ele><time>2026-04-26T08:00:21.236Z</time></trkpt><trkpt lat="44.3725352" lon="10.8242344"><ele>725.0</ele><time>2026-04-26T08:00:22.236Z</time></trkpt><trkpt lat="44.3724605" lon="10.8240615"><ele>725.3333333333333</ele><time>2026-04-26T08:00:23.236Z</time></trkpt><trkpt lat="44.3723655" lon="10.8238887"><ele>725.6666666666666</ele><time>2026-04-26T08:00:24.229Z</time></trkpt><trkpt lat="44.3722645" lon="10.8237112"><ele>726.0</ele><time>2026-04-26T08:00:25.235Z</time></trkpt><trkpt lat="44.3721596" lon="10.8235315"><ele>727.0</ele><time>2026-04-26T08:00:26.236Z</time></trkpt><trkpt lat="44.372055" lon="10.8233419"><ele>728.0</ele><time>2026-04-26T08:00:27.238Z</time></trkpt><trkpt lat="44.3719476" lon="10.823154"><ele>729.0</ele><time>2026-04-26T08:00:28.235Z</time></trkpt><trkpt lat="44.3718397" lon="10.8229763"><ele>729.0</ele><time>2026-04-26T08:00:29.238Z</time></trkpt><trkpt lat="44.3717251" lon="10.8228041"><ele>729.0</ele><time>2026-04-26T08:00:30.237Z</time></trkpt><trkpt lat="44.3716061" lon="10.8226604"><ele>729.0</ele><time>2026-04-26T08:00:31.23Z</time></trkpt><trkpt lat="44.3714908" lon="10.8225159"><ele>728.6666666666666</ele><time>2026-04-26T08:00:32.234Z</time></trkpt><trkpt lat="44.3713683" lon="10.8223743"><ele>728.3333333333333</ele><time>2026-04-26T08:00:33.24Z</time></trkpt><trkpt lat="44.3712456" lon="10.8222259"><ele>728.0</ele><time>2026-04-26T08:00:34.242Z</time></trkpt><trkpt lat="44.3711193" lon="10.8220822"><ele>728.3333333333333</ele><time>2026-04-26T08:00:35.239Z</time></trkpt><trkpt lat="44.3709867" lon="10.821949"><ele>728.6666666666666</ele><time>2026-04-26T08:00:36.233Z</time></trkpt><trkpt lat="44.370852" lon="10.8218279"><ele>729.0</ele><time>2026-04-26T08:00:37.235Z</time></trkpt><trkpt lat="44.370714" lon="10.8217096"><ele>729.0</ele><time>2026-04-26T08:00:38.236Z</time></trkpt><trkpt lat="44.3705753" lon="10.821592"><ele>729.0</ele><time>2026-04-26T08:00:39.239Z</time></trkpt><trkpt lat="44.3704388" lon="10.8214781"><ele>729.0</ele><time>2026-04-26T08:00:40.231Z</time></trkpt><trkpt lat="44.3703005" lon="10.8213693"><ele>729.3333333333334</ele><time>2026-04-26T08:00:41.24Z</time></trkpt><trkpt lat="44.3701606" lon="10.8212704"><ele>729.6666666666667</ele><time>2026-04-26T08:00:42.235Z</time></trkpt><trkpt lat="44.3700203" lon="10.8211811"><ele>730.0</ele><time>2026-04-26T08:00:43.235Z</time></trkpt><trkpt lat="44.3698762" lon="10.8211011"><ele>730.0</ele><time>2026-04-26T08:00:44.235Z</time></trkpt><trkpt lat="44.3697319" lon="10.8210281"><ele>730.0</ele><time>2026-04-26T08:00:45.229Z</time></trkpt><trkpt lat="44.3695894" lon="10.8209603"><ele>730.0</ele><time>2026-04-26T08:00:46.238Z</time></trkpt><trkpt lat="44.369451" lon="10.8208966"><ele>731.25</ele><time>2026-04-26T08:00:47.239Z</time></trkpt><trkpt lat="44.3693137" lon="10.8208321"><ele>732.5</ele><time>2026-04-26T08:00:48.233Z</time></trkpt><trkpt lat="44.3691765" lon="10.820764"><ele>733.75</ele><time>2026-04-26T08:00:49.25Z</time></trkpt><trkpt lat="44.3690428" lon="10.8206918"><ele>735.0</ele><time>2026-04-26T08:00:50.232Z</time></trkpt><trkpt lat="44.3689074" lon="10.8206122"><ele>735.0</ele><time>2026-04-26T08:00:51.241Z</time></trkpt><trkpt lat="44.3687717" lon="10.8205192"><ele>735.0</ele><time>2026-04-26T08:00:52.233Z</time></trkpt><trkpt lat="44.3686388" lon="10.8204092"><ele>735.0</ele><time>2026-04-26T08:00:53.243Z</time></trkpt><trkpt lat="44.3685115" lon="10.8202888"><ele>735.0</ele><time>2026-04-26T08:00:54.235Z</time></trkpt><trkpt lat="44.3683891" lon="10.8201674"><ele>735.0</ele><time>2026-04-26T08:00:55.235Z</time></trkpt><trkpt lat="44.3682731" lon="10.8200487"><ele>735.0</ele><time>2026-04-26T08:00:56.234Z</time></trkpt><trkpt lat="44.3681543" lon="10.8199191"><ele>735.0</ele><time>2026-04-26T08:00:57.242Z</time></trkpt><trkpt lat="44.3680345" lon="10.8197921"><ele>735.6666666666666</ele><time>2026-04-26T08:00:58.244Z</time></trkpt><trkpt lat="44.3679098" lon="10.8196724"><ele>736.3333333333333</ele><time>2026-04-26T08:00:59.24Z</time></trkpt><trkpt lat="44.3677804" lon="10.8195624"><ele>737.0</ele><time>2026-04-26T08:01:00.234Z</time></trkpt><trkpt lat="44.3676481" lon="10.8194697"><ele>737.0</ele><time>2026-04-26T08:01:01.239Z</time></trkpt><trkpt lat="44.3675123" lon="10.8193902"><ele>737.0</ele><time>2026-04-26T08:01:02.235Z</time></trkpt><trkpt lat="44.3673803" lon="10.8193277"><ele>737.0</ele><time>2026-04-26T08:01:03.235Z</time></trkpt><trkpt lat="44.3672506" lon="10.8192986"><ele>737.0</ele><time>2026-04-26T08:01:04.234Z</time></trkpt><trkpt lat="44.367118" lon="10.8193035"><ele>739.75</ele><time>2026-04-26T08:01:05.235Z</time></trkpt><trkpt lat="44.366989" lon="10.8193173"><ele>742.5</ele><time>2026-04-26T08:01:06.236Z</time></trkpt><trkpt lat="44.3668427" lon="10.8193648"><ele>745.25</ele><time>2026-04-26T08:01:07.242Z</time></trkpt><trkpt lat="44.3667118" lon="10.8194339"><ele>748.0</ele><time>2026-04-26T08:01:08.233Z</time></trkpt><trkpt lat="44.3665802" lon="10.8195149"><ele>748.0</ele><time>2026-04-26T08:01:09.235Z</time></trkpt><trkpt lat="44.3664555" lon="10.8196222"><ele>748.0</ele><time>2026-04-26T08:01:10.234Z</time></trkpt><trkpt lat="44.3663605" lon="10.8197676"><ele>748.0</ele><time>2026-04-26T08:01:11.236Z</time></trkpt><trkpt lat="44.366286" lon="10.8198922"><ele>748.0</ele><time>2026-04-26T08:01:12.233Z</time></trkpt><trkpt lat="44.3662169" lon="10.8200138"><ele>749.5999999999999</ele><time>2026-04-26T08:01:13.236Z</time></trkpt><trkpt lat="44.3661664" lon="10.8200882"><ele>751.1999999999999</ele><time>2026-04-26T08:01:14.237Z</time></trkpt><trkpt lat="44.3661136" lon="10.8201452"><ele>752.8</ele><time>2026-04-26T08:01:15.234Z</time></trkpt><trkpt lat="44.3660246" lon="10.8200943"><ele>754.4</ele><time>2026-04-26T08:01:16.239Z</time></trkpt><trkpt lat="44.3659367" lon="10.8199974"><ele>756.0</ele><time>2026-04-26T08:01:17.238Z</time></trkpt><trkpt lat="44.3658098" lon="10.8198634"><ele>756.0</ele><time>2026-04-26T08:01:18.234Z</time></trkpt><trkpt lat="44.3656983" lon="10.8197248"><ele>756.0</ele><time>2026-04-26T08:01:19.231Z</time></trkpt><trkpt lat="44.3655469" lon="10.8195665"><ele>756.0</ele><time>2026-04-26T08:01:20.235Z</time></trkpt><trkpt lat="44.3654202" lon="10.8194114"><ele>754.0</ele><time>2026-04-26T08:01:21.234Z</time></trkpt><trkpt lat="44.3653015" lon="10.8192608"><ele>752.0</ele><time>2026-04-26T08:01:22.231Z</time></trkpt><trkpt lat="44.365196" lon="10.8191269"><ele>750.0</ele><time>2026-04-26T08:01:23.231Z</time></trkpt><trkpt lat="44.3650601" lon="10.8190296"><ele>750.0</ele><time>2026-04-26T08:01:24.235Z</time></trkpt><trkpt lat="44.3649262" lon="10.8189547"><ele>750.0</ele><time>2026-04-26T08:01:25.234Z</time></trkpt><trkpt lat="44.3648065" lon="10.8188765"><ele>750.0</ele><time>2026-04-26T08:01:26.232Z</time></trkpt><trkpt lat="44.3646856" lon="10.8188"><ele>750.0</ele><time>2026-04-26T08:01:27.231Z</time></trkpt><trkpt lat="44.3645659" lon="10.8187327"><ele>748.5</ele><time>2026-04-26T08:01:28.242Z</time></trkpt><trkpt lat="44.3644401" lon="10.8186815"><ele>747.0</ele><time>2026-04-26T08:01:29.239Z</time></trkpt><trkpt lat="44.3642991" lon="10.8186268"><ele>745.5</ele><time>2026-04-26T08:01:30.234Z</time></trkpt><trkpt lat="44.3641594" lon="10.8185871"><ele>744.0</ele><time>2026-04-26T08:01:31.238Z</time></trkpt><trkpt lat="44.3640146" lon="10.8185444"><ele>744.0</ele><time>2026-04-26T08:01:32.237Z</time></trkpt><trkpt lat="44.363875" lon="10.8185022"><ele>744.0</ele><time>2026-04-26T08:01:33.266Z</time></trkpt><trkpt lat="44.3637341" lon="10.8184618"><ele>744.0</ele><time>2026-04-26T08:01:34.246Z</time></trkpt><trkpt lat="44.3635906" lon="10.8184175"><ele>744.0</ele><time>2026-04-26T08:01:35.237Z</time></trkpt><trkpt lat="44.3634449" lon="10.8183679"><ele>743.3333333333334</ele><time>2026-04-26T08:01:36.234Z</time></trkpt><trkpt lat="44.3632988" lon="10.8183246"><ele>742.6666666666667</ele><time>2026-04-26T08:01:37.239Z</time></trkpt><trkpt lat="44.3631478" lon="10.8182773"><ele>742.0</ele><time>2026-04-26T08:01:38.237Z</time></trkpt><trkpt lat="44.3629914" lon="10.818221"><ele>741.6666666666667</ele><time>2026-04-26T08:01:39.238Z</time></trkpt><trkpt lat="44.3628319" lon="10.8181582"><ele>741.3333333333334</ele><time>2026-04-26T08:01:40.234Z</time></trkpt><trkpt lat="44.3626691" lon="10.8180929"><ele>741.0</ele><time>2026-04-26T08:01:41.237Z</time></trkpt><trkpt lat="44.3625076" lon="10.8180262"><ele>741.0</ele><time>2026-04-26T08:01:42.233Z</time></trkpt><trkpt lat="44.3623556" lon="10.8179665"><ele>741.0</ele><time>2026-04-26T08:01:43.237Z</time></trkpt><trkpt lat="44.3622114" lon="10.8179111"><ele>741.0</ele><time>2026-04-26T08:01:44.235Z</time></trkpt><trkpt lat="44.3620832" lon="10.8178635"><ele>741.0</ele><time>2026-04-26T08:01:45.24Z</time></trkpt><trkpt lat="44.3619493" lon="10.8177975"><ele>740.75</ele><time>2026-04-26T08:01:46.241Z</time></trkpt><trkpt lat="44.3618252" lon="10.8177437"><ele>740.5</ele><time>2026-04-26T08:01:47.237Z</time></trkpt><trkpt lat="44.3616966" lon="10.8176959"><ele>740.25</ele><time>2026-04-26T08:01:48.233Z</time></trkpt><trkpt lat="44.3615676" lon="10.8176386"><ele>740.0</ele><time>2026-04-26T08:01:49.241Z</time></trkpt><trkpt lat="44.3614376" lon="10.8176168"><ele>738.75</ele><time>2026-04-26T08:01:50.238Z</time></trkpt><trkpt lat="44.3613005" lon="10.8176045"><ele>737.5</ele><time>2026-04-26T08:01:51.247Z</time></trkpt><trkpt lat="44.3611628" lon="10.8175993"><ele>736.25</ele><time>2026-04-26T08:01:52.236Z</time></trkpt><trkpt lat="44.3610328" lon="10.8176114"><ele>735.0</ele><time>2026-04-26T08:01:53.236Z</time></trkpt><trkpt lat="44.3609081" lon="10.8176425"><ele>735.25</ele><time>2026-04-26T08:01:54.237Z</time></trkpt><trkpt lat="44.3607794" lon="10.8176851"><ele>735.5</ele><time>2026-04-26T08:01:55.239Z</time></trkpt><trkpt lat="44.3606356" lon="10.8177199"><ele>735.75</ele><time>2026-04-26T08:01:56.237Z</time></trkpt><trkpt lat="44.3604925" lon="10.817747"><ele>736.0</ele><time>2026-04-26T08:01:57.241Z</time></trkpt><trkpt lat="44.3603604" lon="10.8177665"><ele>733.75</ele><time>2026-04-26T08:01:58.238Z</time></trkpt><trkpt lat="44.3602355" lon="10.8177706"><ele>731.5</ele><time>2026-04-26T08:01:59.235Z</time></trkpt><trkpt lat="44.3601151" lon="10.8177505"><ele>729.25</ele><time>2026-04-26T08:02:00.235Z</time></trkpt><trkpt lat="44.3600023" lon="10.817696"><ele>727.0</ele><time>2026-04-26T08:02:01.242Z</time></trkpt><trkpt lat="44.3598895" lon="10.817614"><ele>727.0</ele><time>2026-04-26T08:02:02.232Z</time></trkpt><trkpt lat="44.3597968" lon="10.8174872"><ele>727.0</ele><time>2026-04-26T08:02:03.233Z</time></trkpt><trkpt lat="44.3597172" lon="10.8173343"><ele>727.0</ele><time>2026-04-26T08:02:04.236Z</time></trkpt><trkpt lat="44.3596522" lon="10.8171769"><ele>727.0</ele><time>2026-04-26T08:02:05.237Z</time></trkpt><trkpt lat="44.3595858" lon="10.817023"><ele>725.0</ele><time>2026-04-26T08:02:06.237Z</time></trkpt><trkpt lat="44.3595216" lon="10.8168773"><ele>723.0</ele><time>2026-04-26T08:02:07.239Z</time></trkpt><trkpt lat="44.3594493" lon="10.8167456"><ele>721.0</ele><time>2026-04-26T08:02:08.234Z</time></trkpt><trkpt lat="44.3593643" lon="10.8166342"><ele>719.0</ele><time>2026-04-26T08:02:09.24Z</time></trkpt><trkpt lat="44.3592649" lon="10.8165417"><ele>718.75</ele><time>2026-04-26T08:02:10.235Z</time></trkpt><trkpt lat="44.3591507" lon="10.81646"><ele>718.5</ele><time>2026-04-26T08:02:11.236Z</time></trkpt><trkpt lat="44.3590264" lon="10.8163825"><ele>718.25</ele><time>2026-04-26T08:02:12.237Z</time></trkpt><trkpt lat="44.3589012" lon="10.8163039"><ele>718.0</ele><time>2026-04-26T08:02:13.237Z</time></trkpt><trkpt lat="44.3587762" lon="10.816226"><ele>715.25</ele><time>2026-04-26T08:02:14.232Z</time></trkpt><trkpt lat="44.3586528" lon="10.8161472"><ele>712.5</ele><time>2026-04-26T08:02:15.243Z</time></trkpt><trkpt lat="44.358528" lon="10.8160713"><ele>709.75</ele><time>2026-04-26T08:02:16.236Z</time></trkpt><trkpt lat="44.3584044" lon="10.8159936"><ele>707.0</ele><time>2026-04-26T08:02:17.236Z</time></trkpt><trkpt lat="44.3582787" lon="10.8159171"><ele>705.5</ele><time>2026-04-26T08:02:18.236Z</time></trkpt><trkpt lat="44.3581591" lon="10.8158525"><ele>704.0</ele><time>2026-04-26T08:02:19.243Z</time></trkpt><trkpt lat="44.358038" lon="10.8158156"><ele>702.5</ele><time>2026-04-26T08:02:20.236Z</time></trkpt><trkpt lat="44.357911" lon="10.8158245"><ele>701.0</ele><time>2026-04-26T08:02:21.24Z</time></trkpt><trkpt lat="44.3577862" lon="10.8158704"><ele>699.0</ele><time>2026-04-26T08:02:22.236Z</time></trkpt><trkpt lat="44.3576615" lon="10.8159355"><ele>697.0</ele><time>2026-04-26T08:02:23.24Z</time></trkpt><trkpt lat="44.3575305" lon="10.816011"><ele>695.0</ele><time>2026-04-26T08:02:24.239Z</time></trkpt><trkpt lat="44.3573949" lon="10.8160886"><ele>693.0</ele><time>2026-04-26T08:02:25.235Z</time></trkpt><trkpt lat="44.3572554" lon="10.8161665"><ele>688.3333333333334</ele><time>2026-04-26T08:02:26.24Z</time></trkpt><trkpt lat="44.3571162" lon="10.8162444"><ele>683.6666666666667</ele><time>2026-04-26T08:02:27.237Z</time></trkpt><trkpt lat="44.3569766" lon="10.8163229"><ele>679.0</ele><time>2026-04-26T08:02:28.236Z</time></trkpt><trkpt lat="44.3568364" lon="10.8164022"><ele>679.0</ele><time>2026-04-26T08:02:29.235Z</time></trkpt><trkpt lat="44.3567003" lon="10.8164836"><ele>679.0</ele><time>2026-04-26T08:02:30.238Z</time></trkpt><trkpt lat="44.3565655" lon="10.8165637"><ele>679.0</ele><time>2026-04-26T08:02:31.232Z</time></trkpt><trkpt lat="44.3564348" lon="10.8166395"><ele>679.0</ele><time>2026-04-26T08:02:32.24Z</time></trkpt><trkpt lat="44.3563163" lon="10.8167031"><ele>676.8333333333334</ele><time>2026-04-26T08:02:33.237Z</time></trkpt><trkpt lat="44.3562177" lon="10.816747"><ele>674.6666666666667</ele><time>2026-04-26T08:02:34.24Z</time></trkpt><trkpt lat="44.3561367" lon="10.8167587"><ele>672.5</ele><time>2026-04-26T08:02:35.231Z</time></trkpt><trkpt lat="44.3560642" lon="10.8167367"><ele>670.3333333333334</ele><time>2026-04-26T08:02:36.232Z</time></trkpt><trkpt lat="44.3560141" lon="10.8166486"><ele>668.1666666666666</ele><time>2026-04-26T08:02:37.238Z</time></trkpt><trkpt lat="44.3559898" lon="10.8165058"><ele>666.0</ele><time>2026-04-26T08:02:38.234Z</time></trkpt><trkpt lat="44.3559688" lon="10.8163162"><ele>666.0</ele><time>2026-04-26T08:02:39.233Z</time></trkpt><trkpt lat="44.3559535" lon="10.8160968"><ele>666.0</ele><time>2026-04-26T08:02:40.228Z</time></trkpt><trkpt lat="44.3559352" lon="10.8158833"><ele>666.0</ele><time>2026-04-26T08:02:41.24Z</time></trkpt><trkpt lat="44.3559174" lon="10.8156741"><ele>663.75</ele><time>2026-04-26T08:02:42.233Z</time></trkpt><trkpt lat="44.3559034" lon="10.8154681"><ele>661.5</ele><time>2026-04-26T08:02:43.236Z</time></trkpt><trkpt lat="44.3558865" lon="10.815265"><ele>659.25</ele><time>2026-04-26T08:02:44.236Z</time></trkpt><trkpt lat="44.3558705" lon="10.8150698"><ele>657.0</ele><time>2026-04-26T08:02:45.238Z</time></trkpt><trkpt lat="44.3558521" lon="10.8148946"><ele>655.8</ele><time>2026-04-26T08:02:46.231Z</time></trkpt><trkpt lat="44.355836" lon="10.8147402"><ele>654.6</ele><time>2026-04-26T08:02:47.232Z</time></trkpt><trkpt lat="44.3558132" lon="10.8146024"><ele>653.4</ele><time>2026-04-26T08:02:48.232Z</time></trkpt><trkpt lat="44.3557679" lon="10.8144841"><ele>652.1999999999999</ele><time>2026-04-26T08:02:49.232Z</time></trkpt><trkpt lat="44.3556946" lon="10.8143969"><ele>651.0</ele><time>2026-04-26T08:02:50.232Z</time></trkpt><trkpt lat="44.3555986" lon="10.814347"><ele>646.75</ele><time>2026-04-26T08:02:51.228Z</time></trkpt><trkpt lat="44.3554782" lon="10.8143057"><ele>642.5</ele><time>2026-04-26T08:02:52.229Z</time></trkpt><trkpt lat="44.3553402" lon="10.8142461"><ele>638.25</ele><time>2026-04-26T08:02:53.234Z</time></trkpt><trkpt lat="44.3551898" lon="10.814161"><ele>634.0</ele><time>2026-04-26T08:02:54.232Z</time></trkpt><trkpt lat="44.3550433" lon="10.8140668"><ele>634.0</ele><time>2026-04-26T08:02:55.23Z</time></trkpt><trkpt lat="44.3549053" lon="10.8139687"><ele>634.0</ele><time>2026-04-26T08:02:56.238Z</time></trkpt><trkpt lat="44.354773" lon="10.8138697"><ele>634.0</ele><time>2026-04-26T08:02:57.229Z</time></trkpt><trkpt lat="44.3546478" lon="10.813774"><ele>634.0</ele><time>2026-04-26T08:02:58.238Z</time></trkpt><trkpt lat="44.354523" lon="10.8136882"><ele>632.25</ele><time>2026-04-26T08:02:59.238Z</time></trkpt><trkpt lat="44.3543899" lon="10.8136175"><ele>630.5</ele><time>2026-04-26T08:03:00.24Z</time></trkpt><trkpt lat="44.3542591" lon="10.8135584"><ele>628.75</ele><time>2026-04-26T08:03:01.231Z</time></trkpt><trkpt lat="44.3541211" lon="10.8135002"><ele>627.0</ele><time>2026-04-26T08:03:02.227Z</time></trkpt><trkpt lat="44.3539836" lon="10.8134406"><ele>623.0</ele><time>2026-04-26T08:03:03.231Z</time></trkpt><trkpt lat="44.3538447" lon="10.8133825"><ele>619.0</ele><time>2026-04-26T08:03:04.231Z</time></trkpt><trkpt lat="44.353709" lon="10.8133188"><ele>615.0</ele><time>2026-04-26T08:03:05.239Z</time></trkpt><trkpt lat="44.353585" lon="10.8132489"><ele>611.0</ele><time>2026-04-26T08:03:06.233Z</time></trkpt><trkpt lat="44.3534748" lon="10.8131598"><ele>611.0</ele><time>2026-04-26T08:03:07.229Z</time></trkpt><trkpt lat="44.3533835" lon="10.8130373"><ele>611.0</ele><time>2026-04-26T08:03:08.243Z</time></trkpt><trkpt lat="44.3533054" lon="10.8128912"><ele>611.0</ele><time>2026-04-26T08:03:09.233Z</time></trkpt><trkpt lat="44.3532348" lon="10.8127353"><ele>611.0</ele><time>2026-04-26T08:03:10.236Z</time></trkpt><trkpt lat="44.3531649" lon="10.8125804"><ele>610.0</ele><time>2026-04-26T08:03:11.231Z</time></trkpt><trkpt lat="44.3530933" lon="10.8124241"><ele>609.0</ele><time>2026-04-26T08:03:12.233Z</time></trkpt><trkpt lat="44.3530211" lon="10.8122703"><ele>608.0</ele><time>2026-04-26T08:03:13.237Z</time></trkpt><trkpt lat="44.3529561" lon="10.812123"><ele>607.0</ele><time>2026-04-26T08:03:14.237Z</time></trkpt><trkpt lat="44.3528948" lon="10.8119855"><ele>605.2</ele><time>2026-04-26T08:03:15.244Z</time></trkpt><trkpt lat="44.3528334" lon="10.8118647"><ele>603.4000000000001</ele><time>2026-04-26T08:03:16.237Z</time></trkpt><trkpt lat="44.3527695" lon="10.811763"><ele>601.5999999999999</ele><time>2026-04-26T08:03:17.233Z</time></trkpt><trkpt lat="44.3526922" lon="10.8116855"><ele>599.8</ele><time>2026-04-26T08:03:18.234Z</time></trkpt><trkpt lat="44.3525976" lon="10.8116509"><ele>598.0</ele><time>2026-04-26T08:03:19.233Z</time></trkpt><trkpt lat="44.3524934" lon="10.8116226"><ele>596.6</ele><time>2026-04-26T08:03:20.231Z</time></trkpt><trkpt lat="44.3523777" lon="10.8116416"><ele>595.1999999999999</ele><time>2026-04-26T08:03:21.234Z</time></trkpt><trkpt lat="44.3522567" lon="10.811662"><ele>593.8</ele><time>2026-04-26T08:03:22.232Z</time></trkpt><trkpt lat="44.3521544" lon="10.8116876"><ele>592.4</ele><time>2026-04-26T08:03:23.236Z</time></trkpt><trkpt lat="44.3520552" lon="10.8116948"><ele>591.0</ele><time>2026-04-26T08:03:24.233Z</time></trkpt><trkpt lat="44.3519463" lon="10.8116704"><ele>590.5</ele><time>2026-04-26T08:03:25.227Z</time></trkpt><trkpt lat="44.3518262" lon="10.8116528"><ele>590.0</ele><time>2026-04-26T08:03:26.231Z</time></trkpt><trkpt lat="44.3517178" lon="10.8116358"><ele>589.5</ele><time>2026-04-26T08:03:27.234Z</time></trkpt><trkpt lat="44.3516055" lon="10.8116167"><ele>589.0</ele><time>2026-04-26T08:03:28.236Z</time></trkpt><trkpt lat="44.3514977" lon="10.8115993"><ele>589.0</ele><time>2026-04-26T08:03:29.238Z</time></trkpt><trkpt lat="44.3513904" lon="10.8115812"><ele>589.0</ele><time>2026-04-26T08:03:30.239Z</time></trkpt><trkpt lat="44.3512856" lon="10.8115756"><ele>589.0</ele><time>2026-04-26T08:03:31.232Z</time></trkpt><trkpt lat="44.3511946" lon="10.8115821"><ele>589.0</ele><time>2026-04-26T08:03:32.232Z</time></trkpt><trkpt lat="44.3511136" lon="10.8115986"><ele>589.0</ele><time>2026-04-26T08:03:33.232Z</time></trkpt><trkpt lat="44.3510453" lon="10.8116316"><ele>589.8</ele><time>2026-04-26T08:03:34.232Z</time></trkpt><trkpt lat="44.3509714" lon="10.811741"><ele>590.5999999999999</ele><time>2026-04-26T08:03:36.235Z</time></trkpt><trkpt lat="44.3510066" lon="10.8118901"><ele>591.4</ele><time>2026-04-26T08:03:38.237Z</time></trkpt><trkpt lat="44.3510753" lon="10.8119383"><ele>592.1999999999999</ele><time>2026-04-26T08:03:39.236Z</time></trkpt><trkpt lat="44.3511453" lon="10.8119985"><ele>593.0</ele><time>2026-04-26T08:03:40.237Z</time></trkpt><trkpt lat="44.3512203" lon="10.8120772"><ele>593.8333333333333</ele><time>2026-04-26T08:03:41.234Z</time></trkpt><trkpt lat="44.3512869" lon="10.8121776"><ele>594.6666666666666</ele><time>2026-04-26T08:03:42.232Z</time></trkpt><trkpt lat="44.3513413" lon="10.8122954"><ele>595.5</ele><time>2026-04-26T08:03:43.235Z</time></trkpt><trkpt lat="44.3513833" lon="10.8124158"><ele>596.3333333333334</ele><time>2026-04-26T08:03:44.232Z</time></trkpt><trkpt lat="44.3514085" lon="10.8125191"><ele>597.1666666666667</ele><time>2026-04-26T08:03:45.236Z</time></trkpt><trkpt lat="44.351403" lon="10.8126244"><ele>598.0</ele><time>2026-04-26T08:03:46.231Z</time></trkpt><trkpt lat="44.3513712" lon="10.8127404"><ele>601.1666666666667</ele><time>2026-04-26T08:03:47.231Z</time></trkpt><trkpt lat="44.3513209" lon="10.8128361"><ele>604.3333333333334</ele><time>2026-04-26T08:03:48.235Z</time></trkpt><trkpt lat="44.3512746" lon="10.8129376"><ele>607.5</ele><time>2026-04-26T08:03:49.236Z</time></trkpt><trkpt lat="44.3512084" lon="10.8129919"><ele>610.6666666666666</ele><time>2026-04-26T08:03:50.231Z</time></trkpt><trkpt lat="44.3511343" lon="10.8129925"><ele>613.8333333333333</ele><time>2026-04-26T08:03:51.236Z</time></trkpt><trkpt lat="44.3510568" lon="10.8130184"><ele>617.0</ele><time>2026-04-26T08:03:52.232Z</time></trkpt><trkpt lat="44.3509709" lon="10.8130479"><ele>617.0</ele><time>2026-04-26T08:03:53.237Z</time></trkpt><trkpt lat="44.3508735" lon="10.8130638"><ele>617.0</ele><time>2026-04-26T08:03:54.232Z</time></trkpt><trkpt lat="44.350779" lon="10.8130722"><ele>617.0</ele><time>2026-04-26T08:03:55.233Z</time></trkpt><trkpt lat="44.3506766" lon="10.8130881"><ele>617.0</ele><time>2026-04-26T08:03:56.238Z</time></trkpt><trkpt lat="44.3505668" lon="10.8131056"><ele>617.0</ele><time>2026-04-26T08:03:57.231Z</time></trkpt><trkpt lat="44.3504557" lon="10.8131242"><ele>619.8000000000001</ele><time>2026-04-26T08:03:58.229Z</time></trkpt><trkpt lat="44.3503467" lon="10.8131441"><ele>622.6</ele><time>2026-04-26T08:03:59.233Z</time></trkpt><trkpt lat="44.3502411" lon="10.8131617"><ele>625.4000000000001</ele><time>2026-04-26T08:04:00.234Z</time></trkpt><trkpt lat="44.3501373" lon="10.8131847"><ele>628.2</ele><time>2026-04-26T08:04:01.233Z</time></trkpt><trkpt lat="44.3500343" lon="10.8131969"><ele>631.0</ele><time>2026-04-26T08:04:02.232Z</time></trkpt><trkpt lat="44.3499216" lon="10.8132085"><ele>631.0</ele><time>2026-04-26T08:04:03.235Z</time></trkpt><trkpt lat="44.3498052" lon="10.8132146"><ele>631.0</ele><time>2026-04-26T08:04:04.24Z</time></trkpt><trkpt lat="44.3496877" lon="10.813228"><ele>631.0</ele><time>2026-04-26T08:04:05.235Z</time></trkpt><trkpt lat="44.3495697" lon="10.8132411"><ele>631.0</ele><time>2026-04-26T08:04:06.231Z</time></trkpt><trkpt lat="44.3494552" lon="10.8132539"><ele>630.75</ele><time>2026-04-26T08:04:07.242Z</time></trkpt><trkpt lat="44.3493391" lon="10.8132697"><ele>630.5</ele><time>2026-04-26T08:04:08.235Z</time></trkpt><trkpt lat="44.34922" lon="10.8133075"><ele>630.25</ele><time>2026-04-26T08:04:09.232Z</time></trkpt><trkpt lat="44.3491025" lon="10.8133755"><ele>630.0</ele><time>2026-04-26T08:04:10.231Z</time></trkpt><trkpt lat="44.3489846" lon="10.8134907"><ele>634.6666666666666</ele><time>2026-04-26T08:04:11.228Z</time></trkpt><trkpt lat="44.3488703" lon="10.8136371"><ele>639.3333333333333</ele><time>2026-04-26T08:04:12.229Z</time></trkpt><trkpt lat="44.3487588" lon="10.8137977"><ele>644.0</ele><time>2026-04-26T08:04:13.231Z</time></trkpt><trkpt lat="44.348641" lon="10.8139609"><ele>644.0</ele><time>2026-04-26T08:04:14.229Z</time></trkpt><trkpt lat="44.3485414" lon="10.8141131"><ele>644.0</ele><time>2026-04-26T08:04:15.232Z</time></trkpt><trkpt lat="44.3484574" lon="10.8142489"><ele>644.0</ele><time>2026-04-26T08:04:16.236Z</time></trkpt><trkpt lat="44.3483817" lon="10.8143675"><ele>644.0</ele><time>2026-04-26T08:04:17.232Z</time></trkpt><trkpt lat="44.3483184" lon="10.8144667"><ele>644.8000000000001</ele><time>2026-04-26T08:04:18.238Z</time></trkpt><trkpt lat="44.3482738" lon="10.8145398"><ele>645.6</ele><time>2026-04-26T08:04:19.232Z</time></trkpt><trkpt lat="44.3482049" lon="10.8146399"><ele>646.4</ele><time>2026-04-26T08:04:21.23Z</time></trkpt><trkpt lat="44.3481871" lon="10.8147436"><ele>647.2</ele><time>2026-04-26T08:04:23.235Z</time></trkpt><trkpt lat="44.3482289" lon="10.8148659"><ele>648.0</ele><time>2026-04-26T08:04:25.233Z</time></trkpt><trkpt lat="44.34832" lon="10.8149989"><ele>648.0</ele><time>2026-04-26T08:04:27.238Z</time></trkpt><trkpt lat="44.3483532" lon="10.8150751"><ele>648.0</ele><time>2026-04-26T08:04:28.238Z</time></trkpt><trkpt lat="44.3483743" lon="10.8152636"><ele>648.0</ele><time>2026-04-26T08:04:30.24Z</time></trkpt><trkpt lat="44.3483434" lon="10.8153823"><ele>648.0</ele><time>2026-04-26T08:04:31.235Z</time></trkpt><trkpt lat="44.3483047" lon="10.8155088"><ele>648.0</ele><time>2026-04-26T08:04:32.237Z</time></trkpt><trkpt lat="44.3482671" lon="10.8156509"><ele>648.5</ele><time>2026-04-26T08:04:33.241Z</time></trkpt><trkpt lat="44.3482324" lon="10.8157814"><ele>649.0</ele><time>2026-04-26T08:04:34.238Z</time></trkpt><trkpt lat="44.3482003" lon="10.8158983"><ele>649.5</ele><time>2026-04-26T08:04:35.239Z</time></trkpt><trkpt lat="44.348168" lon="10.8160048"><ele>650.0</ele><time>2026-04-26T08:04:36.232Z</time></trkpt><trkpt lat="44.3481495" lon="10.8161209"><ele>650.5</ele><time>2026-04-26T08:04:37.232Z</time></trkpt><trkpt lat="44.3481232" lon="10.8162229"><ele>651.0</ele><time>2026-04-26T08:04:38.239Z</time></trkpt><trkpt lat="44.348098" lon="10.8163263"><ele>651.5</ele><time>2026-04-26T08:04:39.244Z</time></trkpt><trkpt lat="44.3480734" lon="10.8164278"><ele>652.0</ele><time>2026-04-26T08:04:40.239Z</time></trkpt><trkpt lat="44.348051" lon="10.8165163"><ele>652.5</ele><time>2026-04-26T08:04:41.232Z</time></trkpt><trkpt lat="44.3480265" lon="10.8166418"><ele>653.0</ele><time>2026-04-26T08:04:43.232Z</time></trkpt><trkpt lat="44.3480088" lon="10.816786"><ele>653.5</ele><time>2026-04-26T08:04:50.236Z</time></trkpt><trkpt lat="44.3480672" lon="10.8168685"><ele>654.0</ele><time>2026-04-26T08:04:52.24Z</time></trkpt><trkpt lat="44.3481292" lon="10.8168918"><ele>654.0</ele><time>2026-04-26T08:04:53.235Z</time></trkpt><trkpt lat="44.3481937" lon="10.8169163"><ele>654.0</ele><time>2026-04-26T08:04:54.245Z</time></trkpt><trkpt lat="44.3482391" lon="10.8169818"><ele>654.0</ele><time>2026-04-26T08:04:55.238Z</time></trkpt><trkpt lat="44.3482093" lon="10.8171236"><ele>654.0</ele><time>2026-04-26T08:04:57.232Z</time></trkpt><trkpt lat="44.3481395" lon="10.8171766"><ele>654.0</ele><time>2026-04-26T08:04:58.238Z</time></trkpt><trkpt lat="44.3480578" lon="10.8172376"><ele>654.0</ele><time>2026-04-26T08:04:59.236Z</time></trkpt><trkpt lat="44.3479543" lon="10.8173116"><ele>655.0</ele><time>2026-04-26T08:05:00.235Z</time></trkpt><trkpt lat="44.3478378" lon="10.8174029"><ele>656.0</ele><time>2026-04-26T08:05:01.235Z</time></trkpt><trkpt lat="44.3477193" lon="10.8175059"><ele>657.0</ele><time>2026-04-26T08:05:02.23Z</time></trkpt><trkpt lat="44.347593" lon="10.8176249"><ele>658.0</ele><time>2026-04-26T08:05:03.231Z</time></trkpt><trkpt lat="44.3474601" lon="10.8177573"><ele>658.0</ele><time>2026-04-26T08:05:04.231Z</time></trkpt><trkpt lat="44.3473258" lon="10.8178937"><ele>658.0</ele><time>2026-04-26T08:05:05.231Z</time></trkpt><trkpt lat="44.3472014" lon="10.8180041"><ele>658.0</ele><time>2026-04-26T08:05:06.232Z</time></trkpt><trkpt lat="44.3470721" lon="10.8180864"><ele>660.0</ele><time>2026-04-26T08:05:07.235Z</time></trkpt><trkpt lat="44.346935" lon="10.818139"><ele>662.0</ele><time>2026-04-26T08:05:08.242Z</time></trkpt><trkpt lat="44.3467924" lon="10.8181652"><ele>664.0</ele><time>2026-04-26T08:05:09.239Z</time></trkpt><trkpt lat="44.346648" lon="10.8181823"><ele>666.0</ele><time>2026-04-26T08:05:10.237Z</time></trkpt><trkpt lat="44.3465069" lon="10.8182209"><ele>668.75</ele><time>2026-04-26T08:05:11.234Z</time></trkpt><trkpt lat="44.3463705" lon="10.8182905"><ele>671.5</ele><time>2026-04-26T08:05:12.243Z</time></trkpt><trkpt lat="44.3462418" lon="10.8183881"><ele>674.25</ele><time>2026-04-26T08:05:13.238Z</time></trkpt><trkpt lat="44.3461198" lon="10.8185088"><ele>677.0</ele><time>2026-04-26T08:05:14.234Z</time></trkpt><trkpt lat="44.3460006" lon="10.8186415"><ele>677.0</ele><time>2026-04-26T08:05:15.238Z</time></trkpt><trkpt lat="44.3458806" lon="10.8187716"><ele>677.0</ele><time>2026-04-26T08:05:16.242Z</time></trkpt><trkpt lat="44.345762" lon="10.8188839"><ele>677.0</ele><time>2026-04-26T08:05:17.236Z</time></trkpt><trkpt lat="44.3456421" lon="10.8189823"><ele>677.0</ele><time>2026-04-26T08:05:18.236Z</time></trkpt><trkpt lat="44.3455065" lon="10.819022"><ele>678.75</ele><time>2026-04-26T08:05:19.236Z</time></trkpt><trkpt lat="44.3453642" lon="10.8190412"><ele>680.5</ele><time>2026-04-26T08:05:20.235Z</time></trkpt><trkpt lat="44.3452173" lon="10.819028"><ele>682.25</ele><time>2026-04-26T08:05:21.24Z</time></trkpt><trkpt lat="44.345072" lon="10.8189832"><ele>684.0</ele><time>2026-04-26T08:05:22.235Z</time></trkpt><trkpt lat="44.3449209" lon="10.8189279"><ele>684.0</ele><time>2026-04-26T08:05:23.236Z</time></trkpt><trkpt lat="44.344778" lon="10.8188587"><ele>684.0</ele><time>2026-04-26T08:05:24.243Z</time></trkpt><trkpt lat="44.3446225" lon="10.818798"><ele>684.0</ele><time>2026-04-26T08:05:25.239Z</time></trkpt><trkpt lat="44.3444661" lon="10.818718"><ele>686.0</ele><time>2026-04-26T08:05:26.237Z</time></trkpt><trkpt lat="44.3443166" lon="10.8186178"><ele>688.0</ele><time>2026-04-26T08:05:27.233Z</time></trkpt><trkpt lat="44.3441893" lon="10.8184987"><ele>690.0</ele><time>2026-04-26T08:05:28.234Z</time></trkpt><trkpt lat="44.3440747" lon="10.8183773"><ele>690.0</ele><time>2026-04-26T08:05:29.236Z</time></trkpt><trkpt lat="44.3439865" lon="10.8182542"><ele>690.0</ele><time>2026-04-26T08:05:30.236Z</time></trkpt><trkpt lat="44.3439087" lon="10.8181426"><ele>690.0</ele><time>2026-04-26T08:05:31.235Z</time></trkpt><trkpt lat="44.3438358" lon="10.8180289"><ele>690.0</ele><time>2026-04-26T08:05:32.234Z</time></trkpt><trkpt lat="44.3437597" lon="10.8179241"><ele>690.0</ele><time>2026-04-26T08:05:33.242Z</time></trkpt><trkpt lat="44.3436941" lon="10.817845"><ele>690.0</ele><time>2026-04-26T08:05:34.233Z</time></trkpt><trkpt lat="44.3436481" lon="10.8177803"><ele>690.0</ele><time>2026-04-26T08:05:35.244Z</time></trkpt><trkpt lat="44.343608" lon="10.8176405"><ele>690.0</ele><time>2026-04-26T08:05:37.238Z</time></trkpt><trkpt lat="44.3437033" lon="10.8175468"><ele>690.0</ele><time>2026-04-26T08:05:39.237Z</time></trkpt><trkpt lat="44.3437652" lon="10.8175096"><ele>690.0</ele><time>2026-04-26T08:05:40.241Z</time></trkpt><trkpt lat="44.3438283" lon="10.8174608"><ele>690.25</ele><time>2026-04-26T08:05:41.234Z</time></trkpt><trkpt lat="44.3438955" lon="10.8173807"><ele>690.5</ele><time>2026-04-26T08:05:42.241Z</time></trkpt><trkpt lat="44.3439604" lon="10.8172518"><ele>690.75</ele><time>2026-04-26T08:05:43.243Z</time></trkpt><trkpt lat="44.3440242" lon="10.8170959"><ele>691.0</ele><time>2026-04-26T08:05:44.236Z</time></trkpt><trkpt lat="44.3440866" lon="10.8169302"><ele>691.0</ele><time>2026-04-26T08:05:45.235Z</time></trkpt><trkpt lat="44.3441532" lon="10.8167591"><ele>691.0</ele><time>2026-04-26T08:05:46.234Z</time></trkpt><trkpt lat="44.3442138" lon="10.8165838"><ele>691.0</ele><time>2026-04-26T08:05:47.238Z</time></trkpt><trkpt lat="44.3442573" lon="10.8164068"><ele>691.0</ele><time>2026-04-26T08:05:48.235Z</time></trkpt><trkpt lat="44.3442743" lon="10.816227"><ele>691.0</ele><time>2026-04-26T08:05:49.233Z</time></trkpt><trkpt lat="44.344265" lon="10.8160397"><ele>691.0</ele><time>2026-04-26T08:05:50.237Z</time></trkpt><trkpt lat="44.3442349" lon="10.8158462"><ele>691.0</ele><time>2026-04-26T08:05:51.239Z</time></trkpt><trkpt lat="44.3441928" lon="10.8156664"><ele>691.0</ele><time>2026-04-26T08:05:52.236Z</time></trkpt><trkpt lat="44.3441292" lon="10.815514"><ele>689.75</ele><time>2026-04-26T08:05:53.254Z</time></trkpt><trkpt lat="44.3440441" lon="10.8153928"><ele>688.5</ele><time>2026-04-26T08:05:54.236Z</time></trkpt><trkpt lat="44.3439413" lon="10.8153036"><ele>687.25</ele><time>2026-04-26T08:05:55.243Z</time></trkpt><trkpt lat="44.3438385" lon="10.8152377"><ele>686.0</ele><time>2026-04-26T08:05:56.234Z</time></trkpt><trkpt lat="44.3437469" lon="10.8151838"><ele>686.3333333333333</ele><time>2026-04-26T08:05:57.239Z</time></trkpt><trkpt lat="44.3436749" lon="10.8151414"><ele>686.6666666666666</ele><time>2026-04-26T08:05:58.24Z</time></trkpt><trkpt lat="44.3436132" lon="10.8151079"><ele>687.0</ele><time>2026-04-26T08:05:59.235Z</time></trkpt><trkpt lat="44.3434961" lon="10.8150407"><ele>687.3333333333334</ele><time>2026-04-26T08:06:01.233Z</time></trkpt><trkpt lat="44.3434284" lon="10.8150035"><ele>687.6666666666667</ele><time>2026-04-26T08:06:02.235Z</time></trkpt><trkpt lat="44.3433514" lon="10.8149658"><ele>688.0</ele><time>2026-04-26T08:06:03.231Z</time></trkpt><trkpt lat="44.3432716" lon="10.8149325"><ele>688.0000000000001</ele><time>2026-04-26T08:06:04.233Z</time></trkpt><trkpt lat="44.3431943" lon="10.8149012"><ele>688.0</ele><time>2026-04-26T08:06:05.231Z</time></trkpt><trkpt lat="44.343119" lon="10.8148659"><ele>688.0</ele><time>2026-04-26T08:06:06.235Z</time></trkpt><trkpt lat="44.3430522" lon="10.8148306"><ele>688.0</ele><time>2026-04-26T08:06:07.244Z</time></trkpt><trkpt lat="44.3429881" lon="10.8148101"><ele>688.0</ele><time>2026-04-26T08:06:08.236Z</time></trkpt><trkpt lat="44.342924" lon="10.8147888"><ele>688.0000000000001</ele><time>2026-04-26T08:06:09.24Z</time></trkpt><trkpt lat="44.3428526" lon="10.8147764"><ele>688.0</ele><time>2026-04-26T08:06:10.236Z</time></trkpt><trkpt lat="44.3427886" lon="10.8147501"><ele>689.4</ele><time>2026-04-26T08:06:11.236Z</time></trkpt><trkpt lat="44.3427183" lon="10.8147143"><ele>690.8</ele><time>2026-04-26T08:06:12.236Z</time></trkpt><trkpt lat="44.3426464" lon="10.8147002"><ele>692.2</ele><time>2026-04-26T08:06:13.239Z</time></trkpt><trkpt lat="44.3425796" lon="10.8146763"><ele>693.6</ele><time>2026-04-26T08:06:14.243Z</time></trkpt><trkpt lat="44.3424568" lon="10.8146835"><ele>695.0</ele><time>2026-04-26T08:06:16.231Z</time></trkpt><trkpt lat="44.3423445" lon="10.8146849"><ele>695.0</ele><time>2026-04-26T08:06:18.243Z</time></trkpt><trkpt lat="44.3422238" lon="10.8146794"><ele>695.0</ele><time>2026-04-26T08:06:20.231Z</time></trkpt><trkpt lat="44.34216" lon="10.8146769"><ele>695.0</ele><time>2026-04-26T08:06:21.231Z</time></trkpt><trkpt lat="44.342054" lon="10.8146916"><ele>695.0</ele><time>2026-04-26T08:06:23.237Z</time></trkpt><trkpt lat="44.341958" lon="10.814694"><ele>695.0</ele><time>2026-04-26T08:06:25.232Z</time></trkpt><trkpt lat="44.3418663" lon="10.8146575"><ele>696.5</ele><time>2026-04-26T08:06:27.239Z</time></trkpt><trkpt lat="44.3417856" lon="10.8146126"><ele>698.0</ele><time>2026-04-26T08:06:29.241Z</time></trkpt><trkpt lat="44.3417005" lon="10.8146086"><ele>699.5</ele><time>2026-04-26T08:06:31.237Z</time></trkpt><trkpt lat="44.341633" lon="10.8146693"><ele>701.0</ele><time>2026-04-26T08:06:33.242Z</time></trkpt><trkpt lat="44.3415991" lon="10.8147729"><ele>702.5</ele><time>2026-04-26T08:06:35.234Z</time></trkpt><trkpt lat="44.3415612" lon="10.8148782"><ele>704.0</ele><time>2026-04-26T08:06:37.236Z</time></trkpt><trkpt lat="44.34153" lon="10.8149879"><ele>704.0</ele><time>2026-04-26T08:06:39.239Z</time></trkpt><trkpt lat="44.3414743" lon="10.8150473"><ele>704.0</ele><time>2026-04-26T08:06:41.239Z</time></trkpt><trkpt lat="44.3413989" lon="10.8150521"><ele>704.0</ele><time>2026-04-26T08:06:43.243Z</time></trkpt><trkpt lat="44.3413022" lon="10.8150764"><ele>704.0</ele><time>2026-04-26T08:06:45.232Z</time></trkpt><trkpt lat="44.3411833" lon="10.8151815"><ele>704.0</ele><time>2026-04-26T08:06:47.233Z</time></trkpt><trkpt lat="44.3411104" lon="10.8152635"><ele>708.3333333333333</ele><time>2026-04-26T08:06:48.235Z</time></trkpt><trkpt lat="44.3410427" lon="10.8153322"><ele>712.6666666666666</ele><time>2026-04-26T08:06:49.234Z</time></trkpt><trkpt lat="44.3409712" lon="10.8153971"><ele>717.0</ele><time>2026-04-26T08:06:50.247Z</time></trkpt><trkpt lat="44.3409012" lon="10.8154687"><ele>721.3333333333334</ele><time>2026-04-26T08:06:51.231Z</time></trkpt><trkpt lat="44.3408327" lon="10.8155324"><ele>725.6666666666667</ele><time>2026-04-26T08:06:52.231Z</time></trkpt><trkpt lat="44.340775" lon="10.8155814"><ele>730.0</ele><time>2026-04-26T08:06:53.227Z</time></trkpt><trkpt lat="44.3407209" lon="10.8156315"><ele>730.0</ele><time>2026-04-26T08:06:54.229Z</time></trkpt><trkpt lat="44.3406486" lon="10.8156629"><ele>730.0</ele><time>2026-04-26T08:06:55.229Z</time></trkpt><trkpt lat="44.3405664" lon="10.8156838"><ele>730.0</ele><time>2026-04-26T08:06:56.236Z</time></trkpt><trkpt lat="44.3404645" lon="10.8157121"><ele>730.0</ele><time>2026-04-26T08:06:57.229Z</time></trkpt><trkpt lat="44.3403528" lon="10.8157277"><ele>730.0</ele><time>2026-04-26T08:06:58.228Z</time></trkpt><trkpt lat="44.3402568" lon="10.8157476"><ele>732.2</ele><time>2026-04-26T08:06:59.229Z</time></trkpt><trkpt lat="44.3401688" lon="10.8157268"><ele>734.4</ele><time>2026-04-26T08:07:00.228Z</time></trkpt><trkpt lat="44.3400972" lon="10.815677"><ele>736.5999999999999</ele><time>2026-04-26T08:07:01.23Z</time></trkpt><trkpt lat="44.3400246" lon="10.8156116"><ele>738.8</ele><time>2026-04-26T08:07:02.23Z</time></trkpt><trkpt lat="44.339955" lon="10.8155574"><ele>741.0</ele><time>2026-04-26T08:07:03.228Z</time></trkpt><trkpt lat="44.3398344" lon="10.8155063"><ele>741.0</ele><time>2026-04-26T08:07:05.229Z</time></trkpt><trkpt lat="44.3397626" lon="10.8155283"><ele>741.0</ele><time>2026-04-26T08:07:06.23Z</time></trkpt><trkpt lat="44.3397067" lon="10.8155764"><ele>741.0</ele><time>2026-04-26T08:07:07.23Z</time></trkpt><trkpt lat="44.3396307" lon="10.8155737"><ele>741.0</ele><time>2026-04-26T08:07:08.236Z</time></trkpt><trkpt lat="44.3395569" lon="10.8155161"><ele>741.0</ele><time>2026-04-26T08:07:09.233Z</time></trkpt><trkpt lat="44.3394755" lon="10.8154676"><ele>741.0</ele><time>2026-04-26T08:07:10.227Z</time></trkpt><trkpt lat="44.3394131" lon="10.8154202"><ele>743.6666666666666</ele><time>2026-04-26T08:07:11.229Z</time></trkpt><trkpt lat="44.3393344" lon="10.8153853"><ele>746.3333333333334</ele><time>2026-04-26T08:07:12.239Z</time></trkpt><trkpt lat="44.339261" lon="10.815355"><ele>749.0</ele><time>2026-04-26T08:07:13.234Z</time></trkpt><trkpt lat="44.3391993" lon="10.8153192"><ele>751.6666666666667</ele><time>2026-04-26T08:07:14.228Z</time></trkpt><trkpt lat="44.3391334" lon="10.8152963"><ele>754.3333333333334</ele><time>2026-04-26T08:07:15.231Z</time></trkpt><trkpt lat="44.3390112" lon="10.8152591"><ele>757.0</ele><time>2026-04-26T08:07:17.229Z</time></trkpt><trkpt lat="44.3388955" lon="10.8152203"><ele>758.8</ele><time>2026-04-26T08:07:19.236Z</time></trkpt><trkpt lat="44.3387894" lon="10.815181"><ele>760.6</ele><time>2026-04-26T08:07:21.237Z</time></trkpt><trkpt lat="44.3386777" lon="10.8151242"><ele>762.4</ele><time>2026-04-26T08:07:23.231Z</time></trkpt><trkpt lat="44.3385909" lon="10.8150747"><ele>764.1999999999999</ele><time>2026-04-26T08:07:25.232Z</time></trkpt><trkpt lat="44.338482" lon="10.8149868"><ele>766.0</ele><time>2026-04-26T08:07:27.235Z</time></trkpt><trkpt lat="44.3384137" lon="10.8149429"><ele>761.4</ele><time>2026-04-26T08:07:28.233Z</time></trkpt><trkpt lat="44.3383516" lon="10.814904"><ele>756.8</ele><time>2026-04-26T08:07:29.235Z</time></trkpt><trkpt lat="44.3382866" lon="10.8148907"><ele>752.1999999999999</ele><time>2026-04-26T08:07:30.231Z</time></trkpt><trkpt lat="44.3381701" lon="10.8148822"><ele>747.5999999999999</ele><time>2026-04-26T08:07:32.228Z</time></trkpt><trkpt lat="44.3380409" lon="10.814841"><ele>743.0</ele><time>2026-04-26T08:07:34.231Z</time></trkpt><trkpt lat="44.3379736" lon="10.8148113"><ele>743.0</ele><time>2026-04-26T08:07:35.229Z</time></trkpt><trkpt lat="44.3379025" lon="10.8147829"><ele>743.0</ele><time>2026-04-26T08:07:36.242Z</time></trkpt><trkpt lat="44.3378264" lon="10.8147735"><ele>743.0</ele><time>2026-04-26T08:07:37.233Z</time></trkpt><trkpt lat="44.3377379" lon="10.8147746"><ele>743.0</ele><time>2026-04-26T08:07:38.231Z</time></trkpt><trkpt lat="44.3376572" lon="10.8147776"><ele>743.0</ele><time>2026-04-26T08:07:39.233Z</time></trkpt><trkpt lat="44.3375784" lon="10.8147801"><ele>743.0</ele><time>2026-04-26T08:07:40.239Z</time></trkpt><trkpt lat="44.3375065" lon="10.8147824"><ele>743.0</ele><time>2026-04-26T08:07:41.237Z</time></trkpt><trkpt lat="44.3374044" lon="10.8147062"><ele>743.0</ele><time>2026-04-26T08:07:43.231Z</time></trkpt><trkpt lat="44.3373666" lon="10.8145725"><ele>743.0</ele><time>2026-04-26T08:07:45.237Z</time></trkpt><trkpt lat="44.3373627" lon="10.8144819"><ele>743.0</ele><time>2026-04-26T08:07:46.235Z</time></trkpt><trkpt lat="44.3373776" lon="10.8143744"><ele>743.0</ele><time>2026-04-26T08:07:47.237Z</time></trkpt><trkpt lat="44.3373812" lon="10.8142721"><ele>743.0</ele><time>2026-04-26T08:07:48.236Z</time></trkpt><trkpt lat="44.3373765" lon="10.8141187"><ele>740.4</ele><time>2026-04-26T08:07:50.235Z</time></trkpt><trkpt lat="44.3373033" lon="10.8140279"><ele>737.8</ele><time>2026-04-26T08:07:52.236Z</time></trkpt><trkpt lat="44.3371839" lon="10.8139943"><ele>735.2</ele><time>2026-04-26T08:07:54.238Z</time></trkpt><trkpt lat="44.3371157" lon="10.8139941"><ele>732.6</ele><time>2026-04-26T08:07:55.236Z</time></trkpt><trkpt lat="44.3370374" lon="10.8140216"><ele>730.0</ele><time>2026-04-26T08:07:56.235Z</time></trkpt><trkpt lat="44.3369536" lon="10.8140463"><ele>730.0</ele><time>2026-04-26T08:07:57.236Z</time></trkpt><trkpt lat="44.3368794" lon="10.8140775"><ele>730.0</ele><time>2026-04-26T08:07:58.235Z</time></trkpt><trkpt lat="44.3368115" lon="10.814111"><ele>730.0</ele><time>2026-04-26T08:07:59.241Z</time></trkpt><trkpt lat="44.3367456" lon="10.8141573"><ele>730.0</ele><time>2026-04-26T08:08:00.235Z</time></trkpt><trkpt lat="44.3366761" lon="10.814203"><ele>730.0</ele><time>2026-04-26T08:08:01.23Z</time></trkpt><trkpt lat="44.3366152" lon="10.8142702"><ele>730.0</ele><time>2026-04-26T08:08:02.24Z</time></trkpt><trkpt lat="44.3365561" lon="10.814336"><ele>731.0</ele><time>2026-04-26T08:08:03.239Z</time></trkpt><trkpt lat="44.3364963" lon="10.8143959"><ele>732.0</ele><time>2026-04-26T08:08:04.246Z</time></trkpt><trkpt lat="44.3364338" lon="10.8144496"><ele>733.0</ele><time>2026-04-26T08:08:05.233Z</time></trkpt><trkpt lat="44.3363323" lon="10.8144765"><ele>734.0</ele><time>2026-04-26T08:08:06.242Z</time></trkpt><trkpt lat="44.3362178" lon="10.8145003"><ele>735.0</ele><time>2026-04-26T08:08:07.236Z</time></trkpt><trkpt lat="44.3361024" lon="10.8145245"><ele>735.0</ele><time>2026-04-26T08:08:08.236Z</time></trkpt><trkpt lat="44.3359888" lon="10.814538"><ele>735.0</ele><time>2026-04-26T08:08:09.235Z</time></trkpt><trkpt lat="44.335882" lon="10.8145394"><ele>735.0</ele><time>2026-04-26T08:08:10.237Z</time></trkpt><trkpt lat="44.3357784" lon="10.8145184"><ele>735.0</ele><time>2026-04-26T08:08:11.236Z</time></trkpt><trkpt lat="44.3356747" lon="10.8144947"><ele>735.0</ele><time>2026-04-26T08:08:12.245Z</time></trkpt><trkpt lat="44.3355586" lon="10.8144736"><ele>735.8</ele><time>2026-04-26T08:08:13.233Z</time></trkpt><trkpt lat="44.3354518" lon="10.8144546"><ele>736.6</ele><time>2026-04-26T08:08:14.229Z</time></trkpt><trkpt lat="44.3353521" lon="10.8144286"><ele>737.4000000000001</ele><time>2026-04-26T08:08:15.243Z</time></trkpt><trkpt lat="44.3352521" lon="10.814401"><ele>738.2</ele><time>2026-04-26T08:08:16.236Z</time></trkpt><trkpt lat="44.335151" lon="10.8143587"><ele>739.0</ele><time>2026-04-26T08:08:17.238Z</time></trkpt><trkpt lat="44.335063" lon="10.8143282"><ele>738.2</ele><time>2026-04-26T08:08:18.239Z</time></trkpt><trkpt lat="44.3349909" lon="10.8143011"><ele>737.4000000000001</ele><time>2026-04-26T08:08:19.234Z</time></trkpt><trkpt lat="44.3348881" lon="10.8142244"><ele>736.6</ele><time>2026-04-26T08:08:21.239Z</time></trkpt><trkpt lat="44.3348071" lon="10.8142085"><ele>735.8</ele><time>2026-04-26T08:08:22.233Z</time></trkpt><trkpt lat="44.3347109" lon="10.8142128"><ele>735.0</ele><time>2026-04-26T08:08:23.231Z</time></trkpt><trkpt lat="44.3345986" lon="10.8142199"><ele>735.0</ele><time>2026-04-26T08:08:24.238Z</time></trkpt><trkpt lat="44.3344592" lon="10.8142207"><ele>735.0</ele><time>2026-04-26T08:08:25.236Z</time></trkpt><trkpt lat="44.3343291" lon="10.8142257"><ele>735.0</ele><time>2026-04-26T08:08:26.235Z</time></trkpt><trkpt lat="44.3342129" lon="10.8142119"><ele>735.0</ele><time>2026-04-26T08:08:27.234Z</time></trkpt><trkpt lat="44.3340965" lon="10.8141924"><ele>735.0</ele><time>2026-04-26T08:08:28.236Z</time></trkpt><trkpt lat="44.3339761" lon="10.8141702"><ele>735.0</ele><time>2026-04-26T08:08:29.233Z</time></trkpt><trkpt lat="44.3338552" lon="10.8141556"><ele>735.0</ele><time>2026-04-26T08:08:30.231Z</time></trkpt><trkpt lat="44.3337265" lon="10.8141499"><ele>735.0</ele><time>2026-04-26T08:08:31.234Z</time></trkpt><trkpt lat="44.3335949" lon="10.8141558"><ele>734.25</ele><time>2026-04-26T08:08:32.238Z</time></trkpt><trkpt lat="44.3334623" lon="10.814167"><ele>733.5</ele><time>2026-04-26T08:08:33.233Z</time></trkpt><trkpt lat="44.3333367" lon="10.8141821"><ele>732.75</ele><time>2026-04-26T08:08:34.239Z</time></trkpt><trkpt lat="44.333212" lon="10.8141996"><ele>732.0</ele><time>2026-04-26T08:08:35.234Z</time></trkpt><trkpt lat="44.3330925" lon="10.8142116"><ele>731.0</ele><time>2026-04-26T08:08:36.236Z</time></trkpt><trkpt lat="44.3329754" lon="10.8142158"><ele>730.0</ele><time>2026-04-26T08:08:37.236Z</time></trkpt><trkpt lat="44.3328595" lon="10.8142289"><ele>729.0</ele><time>2026-04-26T08:08:38.242Z</time></trkpt><trkpt lat="44.332739" lon="10.8142714"><ele>728.0</ele><time>2026-04-26T08:08:39.238Z</time></trkpt><trkpt lat="44.3326166" lon="10.8143463"><ele>728.0</ele><time>2026-04-26T08:08:40.24Z</time></trkpt><trkpt lat="44.3324881" lon="10.8144278"><ele>728.0</ele><time>2026-04-26T08:08:41.233Z</time></trkpt><trkpt lat="44.3323615" lon="10.8145461"><ele>728.0</ele><time>2026-04-26T08:08:42.235Z</time></trkpt><trkpt lat="44.3322162" lon="10.8146479"><ele>728.0</ele><time>2026-04-26T08:08:43.236Z</time></trkpt><trkpt lat="44.3320523" lon="10.8147236"><ele>728.0</ele><time>2026-04-26T08:08:44.237Z</time></trkpt><trkpt lat="44.3318825" lon="10.8147922"><ele>728.0</ele><time>2026-04-26T08:08:45.233Z</time></trkpt><trkpt lat="44.3316788" lon="10.8148433"><ele>728.0</ele><time>2026-04-26T08:08:46.237Z</time></trkpt><trkpt lat="44.3314817" lon="10.8148714"><ele>728.0</ele><time>2026-04-26T08:08:47.236Z</time></trkpt><trkpt lat="44.3312822" lon="10.8148746"><ele>728.0</ele><time>2026-04-26T08:08:48.235Z</time></trkpt><trkpt lat="44.3310857" lon="10.8148248"><ele>729.3333333333333</ele><time>2026-04-26T08:08:49.235Z</time></trkpt><trkpt lat="44.3308976" lon="10.8147538"><ele>730.6666666666666</ele><time>2026-04-26T08:08:50.235Z</time></trkpt><trkpt lat="44.3307125" lon="10.8146694"><ele>732.0</ele><time>2026-04-26T08:08:51.235Z</time></trkpt><trkpt lat="44.3305299" lon="10.8146173"><ele>734.3333333333334</ele><time>2026-04-26T08:08:52.234Z</time></trkpt><trkpt lat="44.3303491" lon="10.8145993"><ele>736.6666666666667</ele><time>2026-04-26T08:08:53.232Z</time></trkpt><trkpt lat="44.3301657" lon="10.8145994"><ele>739.0</ele><time>2026-04-26T08:08:54.239Z</time></trkpt><trkpt lat="44.3299816" lon="10.8146312"><ele>739.0</ele><time>2026-04-26T08:08:55.232Z</time></trkpt><trkpt lat="44.3298038" lon="10.8146636"><ele>739.0</ele><time>2026-04-26T08:08:56.234Z</time></trkpt><trkpt lat="44.3296452" lon="10.8146903"><ele>739.0</ele><time>2026-04-26T08:08:57.239Z</time></trkpt><trkpt lat="44.3295066" lon="10.8146949"><ele>738.0</ele><time>2026-04-26T08:08:58.237Z</time></trkpt><trkpt lat="44.3293811" lon="10.814687"><ele>737.0</ele><time>2026-04-26T08:08:59.233Z</time></trkpt><trkpt lat="44.3292806" lon="10.8145999"><ele>736.0</ele><time>2026-04-26T08:09:00.238Z</time></trkpt><trkpt lat="44.3292103" lon="10.8144709"><ele>735.0</ele><time>2026-04-26T08:09:01.239Z</time></trkpt><trkpt lat="44.3291482" lon="10.8143147"><ele>735.0</ele><time>2026-04-26T08:09:02.238Z</time></trkpt><trkpt lat="44.3290867" lon="10.8141833"><ele>735.0</ele><time>2026-04-26T08:09:03.235Z</time></trkpt><trkpt lat="44.3289922" lon="10.8140836"><ele>735.0</ele><time>2026-04-26T08:09:04.236Z</time></trkpt><trkpt lat="44.328872" lon="10.8140196"><ele>735.0</ele><time>2026-04-26T08:09:05.24Z</time></trkpt><trkpt lat="44.3287436" lon="10.8140113"><ele>737.25</ele><time>2026-04-26T08:09:06.233Z</time></trkpt><trkpt lat="44.3286115" lon="10.8140333"><ele>739.5</ele><time>2026-04-26T08:09:07.238Z</time></trkpt><trkpt lat="44.3284808" lon="10.8141241"><ele>741.75</ele><time>2026-04-26T08:09:08.237Z</time></trkpt><trkpt lat="44.3283596" lon="10.8142542"><ele>744.0</ele><time>2026-04-26T08:09:09.24Z</time></trkpt><trkpt lat="44.3282382" lon="10.8143811"><ele>747.75</ele><time>2026-04-26T08:09:10.233Z</time></trkpt><trkpt lat="44.3281239" lon="10.8144957"><ele>751.5</ele><time>2026-04-26T08:09:11.244Z</time></trkpt><trkpt lat="44.3280128" lon="10.8145996"><ele>755.25</ele><time>2026-04-26T08:09:12.236Z</time></trkpt><trkpt lat="44.3278875" lon="10.8146731"><ele>759.0</ele><time>2026-04-26T08:09:13.236Z</time></trkpt><trkpt lat="44.3277504" lon="10.8146919"><ele>759.0</ele><time>2026-04-26T08:09:14.247Z</time></trkpt><trkpt lat="44.3276092" lon="10.8146615"><ele>759.0</ele><time>2026-04-26T08:09:15.231Z</time></trkpt><trkpt lat="44.3274678" lon="10.8145926"><ele>759.0</ele><time>2026-04-26T08:09:16.233Z</time></trkpt><trkpt lat="44.3273271" lon="10.8144956"><ele>759.0</ele><time>2026-04-26T08:09:17.236Z</time></trkpt><trkpt lat="44.3272043" lon="10.8143672"><ele>760.6666666666666</ele><time>2026-04-26T08:09:18.236Z</time></trkpt><trkpt lat="44.327107" lon="10.8142058"><ele>762.3333333333333</ele><time>2026-04-26T08:09:19.231Z</time></trkpt><trkpt lat="44.3270406" lon="10.8140143"><ele>764.0</ele><time>2026-04-26T08:09:20.231Z</time></trkpt><trkpt lat="44.3269916" lon="10.8138063"><ele>764.0</ele><time>2026-04-26T08:09:21.235Z</time></trkpt><trkpt lat="44.3269454" lon="10.8136135"><ele>764.0</ele><time>2026-04-26T08:09:22.234Z</time></trkpt><trkpt lat="44.3268931" lon="10.8134345"><ele>764.0</ele><time>2026-04-26T08:09:23.238Z</time></trkpt><trkpt lat="44.3268198" lon="10.813279"><ele>764.0</ele><time>2026-04-26T08:09:24.235Z</time></trkpt><trkpt lat="44.3267197" lon="10.8131505"><ele>760.6666666666666</ele><time>2026-04-26T08:09:25.238Z</time></trkpt><trkpt lat="44.3265927" lon="10.8130583"><ele>757.3333333333334</ele><time>2026-04-26T08:09:26.241Z</time></trkpt><trkpt lat="44.3264475" lon="10.8130133"><ele>754.0</ele><time>2026-04-26T08:09:27.237Z</time></trkpt><trkpt lat="44.3262896" lon="10.8130171"><ele>754.0</ele><time>2026-04-26T08:09:28.234Z</time></trkpt><trkpt lat="44.3261136" lon="10.8130428"><ele>754.0</ele><time>2026-04-26T08:09:29.237Z</time></trkpt><trkpt lat="44.3259357" lon="10.8131136"><ele>754.0</ele><time>2026-04-26T08:09:30.239Z</time></trkpt><trkpt lat="44.3257598" lon="10.8131758"><ele>754.0</ele><time>2026-04-26T08:09:31.24Z</time></trkpt><trkpt lat="44.3256019" lon="10.8132283"><ele>754.0</ele><time>2026-04-26T08:09:32.237Z</time></trkpt><trkpt lat="44.3254416" lon="10.8132366"><ele>754.0</ele><time>2026-04-26T08:09:33.235Z</time></trkpt><trkpt lat="44.3252801" lon="10.8132023"><ele>751.3333333333334</ele><time>2026-04-26T08:09:34.236Z</time></trkpt><trkpt lat="44.3251198" lon="10.8131712"><ele>748.6666666666666</ele><time>2026-04-26T08:09:35.237Z</time></trkpt><trkpt lat="44.3249692" lon="10.8131504"><ele>746.0</ele><time>2026-04-26T08:09:36.232Z</time></trkpt><trkpt lat="44.3248197" lon="10.8131453"><ele>744.5</ele><time>2026-04-26T08:09:37.235Z</time></trkpt><trkpt lat="44.3246759" lon="10.8131611"><ele>743.0</ele><time>2026-04-26T08:09:38.236Z</time></trkpt><trkpt lat="44.324539" lon="10.8131804"><ele>741.5</ele><time>2026-04-26T08:09:39.234Z</time></trkpt><trkpt lat="44.3244068" lon="10.8132024"><ele>740.0</ele><time>2026-04-26T08:09:40.235Z</time></trkpt><trkpt lat="44.3242754" lon="10.8132192"><ele>740.0</ele><time>2026-04-26T08:09:41.24Z</time></trkpt><trkpt lat="44.3241439" lon="10.8132198"><ele>740.0</ele><time>2026-04-26T08:09:42.238Z</time></trkpt><trkpt lat="44.3240163" lon="10.8131907"><ele>740.0</ele><time>2026-04-26T08:09:43.239Z</time></trkpt><trkpt lat="44.3238822" lon="10.8131478"><ele>740.0</ele><time>2026-04-26T08:09:44.234Z</time></trkpt><trkpt lat="44.3237541" lon="10.8131077"><ele>738.75</ele><time>2026-04-26T08:09:45.235Z</time></trkpt><trkpt lat="44.3236239" lon="10.8130657"><ele>737.5</ele><time>2026-04-26T08:09:46.241Z</time></trkpt><trkpt lat="44.3234971" lon="10.8130184"><ele>736.25</ele><time>2026-04-26T08:09:47.238Z</time></trkpt><trkpt lat="44.323373" lon="10.8129552"><ele>735.0</ele><time>2026-04-26T08:09:48.242Z</time></trkpt><trkpt lat="44.3232542" lon="10.812888"><ele>735.0</ele><time>2026-04-26T08:09:49.237Z</time></trkpt><trkpt lat="44.323135" lon="10.8127964"><ele>735.0</ele><time>2026-04-26T08:09:50.242Z</time></trkpt><trkpt lat="44.3230064" lon="10.8127197"><ele>735.0</ele><time>2026-04-26T08:09:51.241Z</time></trkpt><trkpt lat="44.3228771" lon="10.8126822"><ele>735.0</ele><time>2026-04-26T08:09:52.242Z</time></trkpt><trkpt lat="44.322742" lon="10.8126716"><ele>734.75</ele><time>2026-04-26T08:09:53.23Z</time></trkpt><trkpt lat="44.3226061" lon="10.8126728"><ele>734.5</ele><time>2026-04-26T08:09:54.243Z</time></trkpt><trkpt lat="44.3224699" lon="10.8126621"><ele>734.25</ele><time>2026-04-26T08:09:55.271Z</time></trkpt><trkpt lat="44.3223354" lon="10.8126317"><ele>734.0</ele><time>2026-04-26T08:09:56.236Z</time></trkpt><trkpt lat="44.3222103" lon="10.812555"><ele>731.6666666666666</ele><time>2026-04-26T08:09:57.234Z</time></trkpt><trkpt lat="44.3220877" lon="10.8124544"><ele>729.3333333333334</ele><time>2026-04-26T08:09:58.237Z</time></trkpt><trkpt lat="44.3219842" lon="10.8122822"><ele>727.0</ele><time>2026-04-26T08:09:59.242Z</time></trkpt><trkpt lat="44.3218791" lon="10.8121142"><ele>727.0</ele><time>2026-04-26T08:10:00.236Z</time></trkpt><trkpt lat="44.3217626" lon="10.8119635"><ele>727.0</ele><time>2026-04-26T08:10:01.236Z</time></trkpt><trkpt lat="44.3216205" lon="10.8118557"><ele>727.0</ele><time>2026-04-26T08:10:02.234Z</time></trkpt><trkpt lat="44.3214563" lon="10.8117714"><ele>725.0</ele><time>2026-04-26T08:10:03.233Z</time></trkpt><trkpt lat="44.3212782" lon="10.8117052"><ele>723.0</ele><time>2026-04-26T08:10:04.241Z</time></trkpt><trkpt lat="44.321099" lon="10.811622"><ele>721.0</ele><time>2026-04-26T08:10:05.239Z</time></trkpt><trkpt lat="44.3209304" lon="10.8115092"><ele>721.0</ele><time>2026-04-26T08:10:06.244Z</time></trkpt><trkpt lat="44.3207736" lon="10.8113883"><ele>721.0</ele><time>2026-04-26T08:10:07.233Z</time></trkpt><trkpt lat="44.3206501" lon="10.81126"><ele>721.0</ele><time>2026-04-26T08:10:08.239Z</time></trkpt><trkpt lat="44.3205266" lon="10.8111918"><ele>721.0</ele><time>2026-04-26T08:10:09.236Z</time></trkpt><trkpt lat="44.3204053" lon="10.8111748"><ele>721.0</ele><time>2026-04-26T08:10:10.235Z</time></trkpt><trkpt lat="44.3202805" lon="10.8112113"><ele>721.0</ele><time>2026-04-26T08:10:11.232Z</time></trkpt><trkpt lat="44.3201698" lon="10.8113042"><ele>721.0</ele><time>2026-04-26T08:10:12.236Z</time></trkpt><trkpt lat="44.3200562" lon="10.8114217"><ele>721.0</ele><time>2026-04-26T08:10:13.232Z</time></trkpt><trkpt lat="44.3199527" lon="10.8115746"><ele>721.0</ele><time>2026-04-26T08:10:14.261Z</time></trkpt><trkpt lat="44.319835" lon="10.8116874"><ele>721.0</ele><time>2026-04-26T08:10:15.232Z</time></trkpt><trkpt lat="44.319679" lon="10.8117101"><ele>722.6666666666667</ele><time>2026-04-26T08:10:16.229Z</time></trkpt><trkpt lat="44.3195069" lon="10.8116959"><ele>724.3333333333334</ele><time>2026-04-26T08:10:17.232Z</time></trkpt><trkpt lat="44.319324" lon="10.8116763"><ele>726.0</ele><time>2026-04-26T08:10:18.234Z</time></trkpt><trkpt lat="44.3191655" lon="10.8116453"><ele>726.0</ele><time>2026-04-26T08:10:19.24Z</time></trkpt><trkpt lat="44.3190362" lon="10.8115793"><ele>726.0</ele><time>2026-04-26T08:10:20.24Z</time></trkpt><trkpt lat="44.3189325" lon="10.8114672"><ele>726.0</ele><time>2026-04-26T08:10:21.232Z</time></trkpt><trkpt lat="44.3188207" lon="10.8113489"><ele>726.0</ele><time>2026-04-26T08:10:22.232Z</time></trkpt><trkpt lat="44.3186929" lon="10.8112738"><ele>729.0</ele><time>2026-04-26T08:10:23.235Z</time></trkpt><trkpt lat="44.3185443" lon="10.8112508"><ele>732.0</ele><time>2026-04-26T08:10:24.231Z</time></trkpt><trkpt lat="44.3183753" lon="10.8112581"><ele>735.0</ele><time>2026-04-26T08:10:25.239Z</time></trkpt><trkpt lat="44.3181926" lon="10.8112363"><ele>735.3333333333334</ele><time>2026-04-26T08:10:26.236Z</time></trkpt><trkpt lat="44.3180249" lon="10.811185"><ele>735.6666666666667</ele><time>2026-04-26T08:10:27.252Z</time></trkpt><trkpt lat="44.3178666" lon="10.8111196"><ele>736.0</ele><time>2026-04-26T08:10:28.24Z</time></trkpt><trkpt lat="44.3177308" lon="10.8110174"><ele>731.75</ele><time>2026-04-26T08:10:29.234Z</time></trkpt><trkpt lat="44.3176111" lon="10.8109022"><ele>727.5</ele><time>2026-04-26T08:10:30.236Z</time></trkpt><trkpt lat="44.317507" lon="10.8107965"><ele>723.25</ele><time>2026-04-26T08:10:31.238Z</time></trkpt><trkpt lat="44.3174109" lon="10.8107312"><ele>719.0</ele><time>2026-04-26T08:10:32.243Z</time></trkpt><trkpt lat="44.3173304" lon="10.8107012"><ele>719.0</ele><time>2026-04-26T08:10:33.236Z</time></trkpt><trkpt lat="44.3172599" lon="10.8106916"><ele>719.0</ele><time>2026-04-26T08:10:34.24Z</time></trkpt><trkpt lat="44.3171559" lon="10.810671"><ele>719.0</ele><time>2026-04-26T08:10:36.236Z</time></trkpt><trkpt lat="44.3171107" lon="10.8105566"><ele>719.0</ele><time>2026-04-26T08:10:38.237Z</time></trkpt><trkpt lat="44.3171083" lon="10.8104321"><ele>719.0</ele><time>2026-04-26T08:10:39.251Z</time></trkpt><trkpt lat="44.3171005" lon="10.8102885"><ele>716.75</ele><time>2026-04-26T08:10:40.236Z</time></trkpt><trkpt lat="44.3170817" lon="10.8101351"><ele>714.5</ele><time>2026-04-26T08:10:41.236Z</time></trkpt><trkpt lat="44.3170657" lon="10.8099685"><ele>712.25</ele><time>2026-04-26T08:10:42.233Z</time></trkpt><trkpt lat="44.317039" lon="10.8097854"><ele>710.0</ele><time>2026-04-26T08:10:43.241Z</time></trkpt><trkpt lat="44.3170151" lon="10.8096112"><ele>710.0</ele><time>2026-04-26T08:10:44.24Z</time></trkpt><trkpt lat="44.3170008" lon="10.809429"><ele>710.0</ele><time>2026-04-26T08:10:45.239Z</time></trkpt><trkpt lat="44.3170015" lon="10.8092436"><ele>710.0</ele><time>2026-04-26T08:10:46.231Z</time></trkpt><trkpt lat="44.3170077" lon="10.8090659"><ele>710.0</ele><time>2026-04-26T08:10:47.234Z</time></trkpt><trkpt lat="44.3170697" lon="10.8089042"><ele>710.25</ele><time>2026-04-26T08:10:48.251Z</time></trkpt><trkpt lat="44.3171303" lon="10.8087531"><ele>710.5</ele><time>2026-04-26T08:10:49.239Z</time></trkpt><trkpt lat="44.3171987" lon="10.8086001"><ele>710.75</ele><time>2026-04-26T08:10:50.241Z</time></trkpt><trkpt lat="44.3172616" lon="10.8084309"><ele>711.0</ele><time>2026-04-26T08:10:51.236Z</time></trkpt><trkpt lat="44.3173041" lon="10.8082587"><ele>710.25</ele><time>2026-04-26T08:10:52.239Z</time></trkpt><trkpt lat="44.3173352" lon="10.8080678"><ele>709.5</ele><time>2026-04-26T08:10:53.243Z</time></trkpt><trkpt lat="44.3173451" lon="10.8078685"><ele>708.75</ele><time>2026-04-26T08:10:54.232Z</time></trkpt><trkpt lat="44.3173312" lon="10.8076571"><ele>708.0</ele><time>2026-04-26T08:10:55.237Z</time></trkpt><trkpt lat="44.3173027" lon="10.8074389"><ele>709.0</ele><time>2026-04-26T08:10:56.233Z</time></trkpt><trkpt lat="44.3172549" lon="10.8072201"><ele>710.0</ele><time>2026-04-26T08:10:57.233Z</time></trkpt><trkpt lat="44.3171953" lon="10.8069972"><ele>711.0</ele><time>2026-04-26T08:10:58.232Z</time></trkpt><trkpt lat="44.3171217" lon="10.8067727"><ele>711.3333333333334</ele><time>2026-04-26T08:10:59.235Z</time></trkpt><trkpt lat="44.3170563" lon="10.8065431"><ele>711.6666666666667</ele><time>2026-04-26T08:11:00.236Z</time></trkpt><trkpt lat="44.3169865" lon="10.8063119"><ele>712.0</ele><time>2026-04-26T08:11:01.239Z</time></trkpt><trkpt lat="44.3169224" lon="10.8060881"><ele>715.0</ele><time>2026-04-26T08:11:02.235Z</time></trkpt><trkpt lat="44.3168529" lon="10.805878"><ele>718.0</ele><time>2026-04-26T08:11:03.237Z</time></trkpt><trkpt lat="44.3167807" lon="10.8056869"><ele>721.0</ele><time>2026-04-26T08:11:04.239Z</time></trkpt><trkpt lat="44.3166976" lon="10.8055167"><ele>721.0</ele><time>2026-04-26T08:11:05.245Z</time></trkpt><trkpt lat="44.3165906" lon="10.8053691"><ele>721.0</ele><time>2026-04-26T08:11:06.237Z</time></trkpt><trkpt lat="44.3164628" lon="10.8052459"><ele>721.0</ele><time>2026-04-26T08:11:07.233Z</time></trkpt><trkpt lat="44.3163155" lon="10.8051421"><ele>721.0</ele><time>2026-04-26T08:11:08.235Z</time></trkpt><trkpt lat="44.3161544" lon="10.8050395"><ele>721.0</ele><time>2026-04-26T08:11:09.235Z</time></trkpt><trkpt lat="44.3159877" lon="10.8049394"><ele>721.0</ele><time>2026-04-26T08:11:10.235Z</time></trkpt><trkpt lat="44.3158283" lon="10.8048461"><ele>721.0</ele><time>2026-04-26T08:11:11.237Z</time></trkpt><trkpt lat="44.3156794" lon="10.8047646"><ele>721.0</ele><time>2026-04-26T08:11:12.234Z</time></trkpt><trkpt lat="44.3155397" lon="10.8046885"><ele>721.0</ele><time>2026-04-26T08:11:13.232Z</time></trkpt><trkpt lat="44.3154027" lon="10.8046066"><ele>719.0</ele><time>2026-04-26T08:11:14.236Z</time></trkpt><trkpt lat="44.3152964" lon="10.8045138"><ele>717.0</ele><time>2026-04-26T08:11:15.241Z</time></trkpt><trkpt lat="44.31521" lon="10.8043786"><ele>715.0</ele><time>2026-04-26T08:11:16.239Z</time></trkpt><trkpt lat="44.3151504" lon="10.8042011"><ele>713.0</ele><time>2026-04-26T08:11:17.235Z</time></trkpt><trkpt lat="44.3151173" lon="10.8039852"><ele>713.0</ele><time>2026-04-26T08:11:18.24Z</time></trkpt><trkpt lat="44.3150933" lon="10.8037486"><ele>713.0</ele><time>2026-04-26T08:11:19.233Z</time></trkpt><trkpt lat="44.3150985" lon="10.8034807"><ele>713.0</ele><time>2026-04-26T08:11:20.232Z</time></trkpt><trkpt lat="44.3150734" lon="10.8032211"><ele>712.3333333333333</ele><time>2026-04-26T08:11:21.236Z</time></trkpt><trkpt lat="44.3150356" lon="10.80298"><ele>711.6666666666666</ele><time>2026-04-26T08:11:22.236Z</time></trkpt><trkpt lat="44.3149821" lon="10.8027564"><ele>711.0</ele><time>2026-04-26T08:11:23.252Z</time></trkpt><trkpt lat="44.3149249" lon="10.8025425"><ele>712.3333333333334</ele><time>2026-04-26T08:11:24.233Z</time></trkpt><trkpt lat="44.3148734" lon="10.8023325"><ele>713.6666666666667</ele><time>2026-04-26T08:11:25.235Z</time></trkpt><trkpt lat="44.3148253" lon="10.8021367"><ele>715.0</ele><time>2026-04-26T08:11:26.236Z</time></trkpt><trkpt lat="44.3147831" lon="10.8019414"><ele>715.0</ele><time>2026-04-26T08:11:27.236Z</time></trkpt><trkpt lat="44.3147585" lon="10.8017463"><ele>715.0</ele><time>2026-04-26T08:11:28.242Z</time></trkpt><trkpt lat="44.3147604" lon="10.8015496"><ele>715.0</ele><time>2026-04-26T08:11:29.234Z</time></trkpt><trkpt lat="44.3147966" lon="10.8013458"><ele>715.0</ele><time>2026-04-26T08:11:30.258Z</time></trkpt><trkpt lat="44.3148439" lon="10.801157"><ele>712.6666666666667</ele><time>2026-04-26T08:11:31.233Z</time></trkpt><trkpt lat="44.3149057" lon="10.8009241"><ele>710.3333333333334</ele><time>2026-04-26T08:11:32.241Z</time></trkpt><trkpt lat="44.3149704" lon="10.8006854"><ele>708.0</ele><time>2026-04-26T08:11:33.23Z</time></trkpt><trkpt lat="44.3150421" lon="10.8004426"><ele>708.0</ele><time>2026-04-26T08:11:34.239Z</time></trkpt><trkpt lat="44.3151185" lon="10.8002172"><ele>708.0</ele><time>2026-04-26T08:11:35.243Z</time></trkpt><trkpt lat="44.3151778" lon="10.7999989"><ele>708.0</ele><time>2026-04-26T08:11:36.234Z</time></trkpt><trkpt lat="44.3152295" lon="10.7998096"><ele>708.5</ele><time>2026-04-26T08:11:37.245Z</time></trkpt><trkpt lat="44.3152617" lon="10.7996434"><ele>709.0</ele><time>2026-04-26T08:11:38.239Z</time></trkpt><trkpt lat="44.3152603" lon="10.7994833"><ele>709.5</ele><time>2026-04-26T08:11:39.236Z</time></trkpt><trkpt lat="44.3152396" lon="10.799306"><ele>710.0</ele><time>2026-04-26T08:11:40.243Z</time></trkpt><trkpt lat="44.3151881" lon="10.7991046"><ele>710.0</ele><time>2026-04-26T08:11:41.232Z</time></trkpt><trkpt lat="44.3151207" lon="10.7988741"><ele>710.0</ele><time>2026-04-26T08:11:42.246Z</time></trkpt><trkpt lat="44.3150503" lon="10.7986446"><ele>710.0</ele><time>2026-04-26T08:11:43.232Z</time></trkpt><trkpt lat="44.3149252" lon="10.7984326"><ele>709.0</ele><time>2026-04-26T08:11:44.237Z</time></trkpt><trkpt lat="44.3147611" lon="10.7982329"><ele>708.0</ele><time>2026-04-26T08:11:45.235Z</time></trkpt><trkpt lat="44.3145845" lon="10.7980155"><ele>708.0</ele><time>2026-04-26T08:11:46.235Z</time></trkpt><trkpt lat="44.3144254" lon="10.7978162"><ele>708.0</ele><time>2026-04-26T08:11:47.242Z</time></trkpt><trkpt lat="44.3142735" lon="10.7976312"><ele>708.0</ele><time>2026-04-26T08:11:48.236Z</time></trkpt><trkpt lat="44.3141381" lon="10.7974586"><ele>707.6666666666666</ele><time>2026-04-26T08:11:49.232Z</time></trkpt><trkpt lat="44.3140126" lon="10.797288"><ele>707.3333333333333</ele><time>2026-04-26T08:11:50.237Z</time></trkpt><trkpt lat="44.3138914" lon="10.7971157"><ele>707.0</ele><time>2026-04-26T08:11:51.239Z</time></trkpt><trkpt lat="44.3137735" lon="10.7969404"><ele>710.3333333333333</ele><time>2026-04-26T08:11:52.251Z</time></trkpt><trkpt lat="44.3136575" lon="10.796762"><ele>713.6666666666666</ele><time>2026-04-26T08:11:53.233Z</time></trkpt><trkpt lat="44.3135441" lon="10.7965819"><ele>717.0</ele><time>2026-04-26T08:11:54.238Z</time></trkpt><trkpt lat="44.3134345" lon="10.7964061"><ele>717.0</ele><time>2026-04-26T08:11:55.239Z</time></trkpt><trkpt lat="44.3133339" lon="10.7962341"><ele>717.0</ele><time>2026-04-26T08:11:56.237Z</time></trkpt><trkpt lat="44.313238" lon="10.796063"><ele>717.0</ele><time>2026-04-26T08:11:57.251Z</time></trkpt><trkpt lat="44.313144" lon="10.7958916"><ele>716.0</ele><time>2026-04-26T08:11:58.236Z</time></trkpt><trkpt lat="44.3130546" lon="10.7957267"><ele>715.0</ele><time>2026-04-26T08:11:59.238Z</time></trkpt><trkpt lat="44.3129681" lon="10.7955635"><ele>714.0</ele><time>2026-04-26T08:12:00.242Z</time></trkpt><trkpt lat="44.3128803" lon="10.7953969"><ele>713.0</ele><time>2026-04-26T08:12:01.235Z</time></trkpt><trkpt lat="44.3127913" lon="10.7952285"><ele>715.0</ele><time>2026-04-26T08:12:02.251Z</time></trkpt><trkpt lat="44.3127015" lon="10.7950587"><ele>717.0</ele><time>2026-04-26T08:12:03.235Z</time></trkpt><trkpt lat="44.3126122" lon="10.7948866"><ele>719.0</ele><time>2026-04-26T08:12:04.239Z</time></trkpt><trkpt lat="44.3125238" lon="10.7947084"><ele>719.0</ele><time>2026-04-26T08:12:05.236Z</time></trkpt><trkpt lat="44.3124365" lon="10.7945146"><ele>719.0</ele><time>2026-04-26T08:12:06.232Z</time></trkpt><trkpt lat="44.3123577" lon="10.7943043"><ele>719.0</ele><time>2026-04-26T08:12:07.235Z</time></trkpt><trkpt lat="44.3122903" lon="10.7940821"><ele>717.0</ele><time>2026-04-26T08:12:08.232Z</time></trkpt><trkpt lat="44.3122313" lon="10.7938551"><ele>715.0</ele><time>2026-04-26T08:12:09.241Z</time></trkpt><trkpt lat="44.3121749" lon="10.7936187"><ele>713.0</ele><time>2026-04-26T08:12:10.232Z</time></trkpt><trkpt lat="44.3121207" lon="10.7933782"><ele>713.0</ele><time>2026-04-26T08:12:11.252Z</time></trkpt><trkpt lat="44.3120636" lon="10.7931343"><ele>713.0</ele><time>2026-04-26T08:12:12.235Z</time></trkpt><trkpt lat="44.3120057" lon="10.792887"><ele>713.0</ele><time>2026-04-26T08:12:13.241Z</time></trkpt><trkpt lat="44.3119498" lon="10.7926413"><ele>715.3333333333333</ele><time>2026-04-26T08:12:14.235Z</time></trkpt><trkpt lat="44.3118958" lon="10.7923987"><ele>717.6666666666666</ele><time>2026-04-26T08:12:15.239Z</time></trkpt><trkpt lat="44.3118426" lon="10.7921597"><ele>720.0</ele><time>2026-04-26T08:12:16.232Z</time></trkpt><trkpt lat="44.31179" lon="10.791923"><ele>722.0</ele><time>2026-04-26T08:12:17.239Z</time></trkpt><trkpt lat="44.3117363" lon="10.791689"><ele>724.0</ele><time>2026-04-26T08:12:18.239Z</time></trkpt><trkpt lat="44.3116823" lon="10.7914596"><ele>726.0</ele><time>2026-04-26T08:12:19.239Z</time></trkpt><trkpt lat="44.3116277" lon="10.7912301"><ele>727.6666666666666</ele><time>2026-04-26T08:12:20.229Z</time></trkpt><trkpt lat="44.311574" lon="10.7910069"><ele>729.3333333333333</ele><time>2026-04-26T08:12:21.236Z</time></trkpt><trkpt lat="44.3115233" lon="10.7907984"><ele>731.0</ele><time>2026-04-26T08:12:22.236Z</time></trkpt><trkpt lat="44.3114757" lon="10.7906115"><ele>731.0</ele><time>2026-04-26T08:12:23.238Z</time></trkpt><trkpt lat="44.311431" lon="10.7904426"><ele>731.0</ele><time>2026-04-26T08:12:24.242Z</time></trkpt><trkpt lat="44.3113847" lon="10.7903033"><ele>731.0</ele><time>2026-04-26T08:12:25.235Z</time></trkpt><trkpt lat="44.3113478" lon="10.7901687"><ele>731.0</ele><time>2026-04-26T08:12:26.243Z</time></trkpt><trkpt lat="44.3113506" lon="10.7900318"><ele>731.0</ele><time>2026-04-26T08:12:27.241Z</time></trkpt><trkpt lat="44.3113743" lon="10.7898855"><ele>733.25</ele><time>2026-04-26T08:12:28.24Z</time></trkpt><trkpt lat="44.3114204" lon="10.7897192"><ele>735.5</ele><time>2026-04-26T08:12:29.244Z</time></trkpt><trkpt lat="44.3114787" lon="10.7895455"><ele>737.75</ele><time>2026-04-26T08:12:30.239Z</time></trkpt><trkpt lat="44.3115284" lon="10.789379"><ele>740.0</ele><time>2026-04-26T08:12:31.236Z</time></trkpt><trkpt lat="44.3115586" lon="10.789229"><ele>740.0</ele><time>2026-04-26T08:12:32.244Z</time></trkpt><trkpt lat="44.3115631" lon="10.7890844"><ele>740.0</ele><time>2026-04-26T08:12:33.235Z</time></trkpt><trkpt lat="44.3115473" lon="10.7889449"><ele>740.0</ele><time>2026-04-26T08:12:34.239Z</time></trkpt><trkpt lat="44.3115029" lon="10.788813"><ele>740.0</ele><time>2026-04-26T08:12:35.236Z</time></trkpt><trkpt lat="44.311436" lon="10.7886971"><ele>740.0</ele><time>2026-04-26T08:12:36.239Z</time></trkpt><trkpt lat="44.311362" lon="10.78859"><ele>739.0</ele><time>2026-04-26T08:12:37.242Z</time></trkpt><trkpt lat="44.3112901" lon="10.7884929"><ele>738.0</ele><time>2026-04-26T08:12:38.245Z</time></trkpt><trkpt lat="44.3112324" lon="10.7883976"><ele>737.0</ele><time>2026-04-26T08:12:39.238Z</time></trkpt><trkpt lat="44.3111835" lon="10.788306"><ele>736.0</ele><time>2026-04-26T08:12:40.237Z</time></trkpt><trkpt lat="44.3111862" lon="10.7882013"><ele>735.0</ele><time>2026-04-26T08:12:41.242Z</time></trkpt><trkpt lat="44.3112179" lon="10.7880958"><ele>734.0</ele><time>2026-04-26T08:12:42.244Z</time></trkpt><trkpt lat="44.311284" lon="10.7879975"><ele>734.0</ele><time>2026-04-26T08:12:43.235Z</time></trkpt><trkpt lat="44.3113613" lon="10.7878739"><ele>734.0</ele><time>2026-04-26T08:12:44.282Z</time></trkpt><trkpt lat="44.3114203" lon="10.7877185"><ele>734.0</ele><time>2026-04-26T08:12:45.241Z</time></trkpt><trkpt lat="44.3114722" lon="10.7875159"><ele>734.0</ele><time>2026-04-26T08:12:46.241Z</time></trkpt><trkpt lat="44.3115307" lon="10.78728"><ele>737.0</ele><time>2026-04-26T08:12:47.243Z</time></trkpt><trkpt lat="44.3115985" lon="10.7869867"><ele>740.0</ele><time>2026-04-26T08:12:48.238Z</time></trkpt><trkpt lat="44.3116568" lon="10.7866968"><ele>743.0</ele><time>2026-04-26T08:12:49.236Z</time></trkpt><trkpt lat="44.3116991" lon="10.7864267"><ele>743.0</ele><time>2026-04-26T08:12:50.235Z</time></trkpt><trkpt lat="44.3117416" lon="10.7861834"><ele>743.0</ele><time>2026-04-26T08:12:51.236Z</time></trkpt><trkpt lat="44.3118016" lon="10.7859921"><ele>743.0</ele><time>2026-04-26T08:12:52.238Z</time></trkpt><trkpt lat="44.3118791" lon="10.7858172"><ele>741.3333333333333</ele><time>2026-04-26T08:12:53.236Z</time></trkpt><trkpt lat="44.3119457" lon="10.7856239"><ele>739.6666666666666</ele><time>2026-04-26T08:12:54.242Z</time></trkpt><trkpt lat="44.3119846" lon="10.7853931"><ele>738.0</ele><time>2026-04-26T08:12:55.234Z</time></trkpt><trkpt lat="44.3119942" lon="10.7851012"><ele>737.6666666666666</ele><time>2026-04-26T08:12:56.235Z</time></trkpt><trkpt lat="44.3119716" lon="10.7848141"><ele>737.3333333333333</ele><time>2026-04-26T08:12:57.239Z</time></trkpt><trkpt lat="44.3119427" lon="10.7845297"><ele>737.0</ele><time>2026-04-26T08:12:58.238Z</time></trkpt><trkpt lat="44.3118866" lon="10.7842523"><ele>737.6666666666666</ele><time>2026-04-26T08:12:59.25Z</time></trkpt><trkpt lat="44.3118387" lon="10.7839803"><ele>738.3333333333334</ele><time>2026-04-26T08:13:00.235Z</time></trkpt><trkpt lat="44.3118035" lon="10.7837063"><ele>739.0</ele><time>2026-04-26T08:13:01.237Z</time></trkpt><trkpt lat="44.3117871" lon="10.7834311"><ele>739.0</ele><time>2026-04-26T08:13:02.236Z</time></trkpt><trkpt lat="44.3117884" lon="10.7831522"><ele>739.0</ele><time>2026-04-26T08:13:03.241Z</time></trkpt><trkpt lat="44.3117982" lon="10.7828776"><ele>739.0</ele><time>2026-04-26T08:13:04.241Z</time></trkpt><trkpt lat="44.3118172" lon="10.7826006"><ele>738.3333333333334</ele><time>2026-04-26T08:13:05.235Z</time></trkpt><trkpt lat="44.3118337" lon="10.7823349"><ele>737.6666666666666</ele><time>2026-04-26T08:13:06.236Z</time></trkpt><trkpt lat="44.3118478" lon="10.7820876"><ele>737.0</ele><time>2026-04-26T08:13:07.24Z</time></trkpt><trkpt lat="44.3118548" lon="10.781856"><ele>738.3333333333333</ele><time>2026-04-26T08:13:08.233Z</time></trkpt><trkpt lat="44.3118441" lon="10.7816327"><ele>739.6666666666666</ele><time>2026-04-26T08:13:09.239Z</time></trkpt><trkpt lat="44.3118207" lon="10.7814192"><ele>741.0</ele><time>2026-04-26T08:13:10.236Z</time></trkpt><trkpt lat="44.3117911" lon="10.7812032"><ele>742.6666666666666</ele><time>2026-04-26T08:13:11.239Z</time></trkpt><trkpt lat="44.3117559" lon="10.7809857"><ele>744.3333333333333</ele><time>2026-04-26T08:13:12.241Z</time></trkpt><trkpt lat="44.3117097" lon="10.7807652"><ele>746.0</ele><time>2026-04-26T08:13:13.243Z</time></trkpt><trkpt lat="44.3116445" lon="10.7805485"><ele>746.0</ele><time>2026-04-26T08:13:14.238Z</time></trkpt><trkpt lat="44.3115547" lon="10.7803491"><ele>746.0</ele><time>2026-04-26T08:13:15.233Z</time></trkpt><trkpt lat="44.3114417" lon="10.7801783"><ele>746.0</ele><time>2026-04-26T08:13:16.256Z</time></trkpt><trkpt lat="44.3113164" lon="10.7800578"><ele>746.25</ele><time>2026-04-26T08:13:17.24Z</time></trkpt><trkpt lat="44.3111948" lon="10.7799695"><ele>746.5</ele><time>2026-04-26T08:13:18.233Z</time></trkpt><trkpt lat="44.3110904" lon="10.7798869"><ele>746.75</ele><time>2026-04-26T08:13:19.24Z</time></trkpt><trkpt lat="44.310997" lon="10.7798257"><ele>747.0</ele><time>2026-04-26T08:13:20.243Z</time></trkpt><trkpt lat="44.3109585" lon="10.7796695"><ele>747.0</ele><time>2026-04-26T08:13:21.236Z</time></trkpt><trkpt lat="44.3109521" lon="10.7795017"><ele>747.0</ele><time>2026-04-26T08:13:22.24Z</time></trkpt><trkpt lat="44.3109719" lon="10.7793371"><ele>747.0</ele><time>2026-04-26T08:13:23.239Z</time></trkpt><trkpt lat="44.3110167" lon="10.7791823"><ele>747.0</ele><time>2026-04-26T08:13:24.244Z</time></trkpt><trkpt lat="44.3110698" lon="10.7789923"><ele>747.0</ele><time>2026-04-26T08:13:25.229Z</time></trkpt><trkpt lat="44.311104" lon="10.7787664"><ele>747.0</ele><time>2026-04-26T08:13:26.235Z</time></trkpt><trkpt lat="44.3111269" lon="10.7785622"><ele>747.0</ele><time>2026-04-26T08:13:27.235Z</time></trkpt><trkpt lat="44.3111196" lon="10.7783703"><ele>746.5</ele><time>2026-04-26T08:13:28.235Z</time></trkpt><trkpt lat="44.3111095" lon="10.7781784"><ele>746.0</ele><time>2026-04-26T08:13:29.238Z</time></trkpt><trkpt lat="44.311103" lon="10.7779896"><ele>745.5</ele><time>2026-04-26T08:13:30.236Z</time></trkpt><trkpt lat="44.3110982" lon="10.7778062"><ele>745.0</ele><time>2026-04-26T08:13:31.239Z</time></trkpt><trkpt lat="44.3110919" lon="10.7776345"><ele>745.0</ele><time>2026-04-26T08:13:32.237Z</time></trkpt><trkpt lat="44.3110947" lon="10.7774749"><ele>745.0</ele><time>2026-04-26T08:13:33.239Z</time></trkpt><trkpt lat="44.3111081" lon="10.7773274"><ele>745.0</ele><time>2026-04-26T08:13:34.239Z</time></trkpt><trkpt lat="44.3111426" lon="10.7771897"><ele>745.0</ele><time>2026-04-26T08:13:35.245Z</time></trkpt><trkpt lat="44.3112029" lon="10.7770646"><ele>745.0</ele><time>2026-04-26T08:13:36.236Z</time></trkpt><trkpt lat="44.3112728" lon="10.7769547"><ele>745.0</ele><time>2026-04-26T08:13:37.248Z</time></trkpt><trkpt lat="44.3113762" lon="10.7768719"><ele>745.0</ele><time>2026-04-26T08:13:38.236Z</time></trkpt><trkpt lat="44.3114757" lon="10.7767975"><ele>745.0</ele><time>2026-04-26T08:13:39.237Z</time></trkpt><trkpt lat="44.3115733" lon="10.7767064"><ele>745.0</ele><time>2026-04-26T08:13:40.236Z</time></trkpt><trkpt lat="44.3116575" lon="10.7765789"><ele>744.75</ele><time>2026-04-26T08:13:41.239Z</time></trkpt><trkpt lat="44.3117245" lon="10.7764294"><ele>744.5</ele><time>2026-04-26T08:13:42.234Z</time></trkpt><trkpt lat="44.3117676" lon="10.7762602"><ele>744.25</ele><time>2026-04-26T08:13:43.235Z</time></trkpt><trkpt lat="44.3117879" lon="10.776074"><ele>744.0</ele><time>2026-04-26T08:13:44.235Z</time></trkpt><trkpt lat="44.3117986" lon="10.7758745"><ele>742.3333333333334</ele><time>2026-04-26T08:13:45.24Z</time></trkpt><trkpt lat="44.3117954" lon="10.7756585"><ele>740.6666666666667</ele><time>2026-04-26T08:13:46.241Z</time></trkpt><trkpt lat="44.3117823" lon="10.7754259"><ele>739.0</ele><time>2026-04-26T08:13:47.237Z</time></trkpt><trkpt lat="44.3117528" lon="10.7751893"><ele>736.6666666666667</ele><time>2026-04-26T08:13:48.232Z</time></trkpt><trkpt lat="44.311712" lon="10.774952"><ele>734.3333333333334</ele><time>2026-04-26T08:13:49.234Z</time></trkpt><trkpt lat="44.3116651" lon="10.7747189"><ele>732.0</ele><time>2026-04-26T08:13:50.237Z</time></trkpt><trkpt lat="44.3116144" lon="10.7745004"><ele>730.6666666666666</ele><time>2026-04-26T08:13:51.235Z</time></trkpt><trkpt lat="44.3115692" lon="10.7742806"><ele>729.3333333333333</ele><time>2026-04-26T08:13:52.232Z</time></trkpt><trkpt lat="44.3115384" lon="10.7740482"><ele>728.0</ele><time>2026-04-26T08:13:53.24Z</time></trkpt><trkpt lat="44.3115094" lon="10.7738296"><ele>728.0</ele><time>2026-04-26T08:13:54.241Z</time></trkpt><trkpt lat="44.3115064" lon="10.7736084"><ele>728.0</ele><time>2026-04-26T08:13:55.234Z</time></trkpt><trkpt lat="44.3115178" lon="10.7733994"><ele>728.0</ele><time>2026-04-26T08:13:56.235Z</time></trkpt><trkpt lat="44.3115199" lon="10.7732049"><ele>728.0</ele><time>2026-04-26T08:13:57.234Z</time></trkpt><trkpt lat="44.3115247" lon="10.7730016"><ele>728.75</ele><time>2026-04-26T08:13:58.235Z</time></trkpt><trkpt lat="44.3115384" lon="10.7728065"><ele>729.5</ele><time>2026-04-26T08:13:59.257Z</time></trkpt><trkpt lat="44.311562" lon="10.7726143"><ele>730.25</ele><time>2026-04-26T08:14:00.233Z</time></trkpt><trkpt lat="44.3115942" lon="10.7724314"><ele>731.0</ele><time>2026-04-26T08:14:01.239Z</time></trkpt><trkpt lat="44.3116325" lon="10.7722542"><ele>731.5</ele><time>2026-04-26T08:14:02.236Z</time></trkpt><trkpt lat="44.3116776" lon="10.7720813"><ele>732.0</ele><time>2026-04-26T08:14:03.237Z</time></trkpt><trkpt lat="44.3117315" lon="10.7719177"><ele>732.5</ele><time>2026-04-26T08:14:04.239Z</time></trkpt><trkpt lat="44.3118011" lon="10.7717629"><ele>733.0</ele><time>2026-04-26T08:14:05.244Z</time></trkpt><trkpt lat="44.3118833" lon="10.7716222"><ele>735.0</ele><time>2026-04-26T08:14:06.238Z</time></trkpt><trkpt lat="44.3119616" lon="10.771485"><ele>737.0</ele><time>2026-04-26T08:14:07.249Z</time></trkpt><trkpt lat="44.3120312" lon="10.7713475"><ele>739.0</ele><time>2026-04-26T08:14:08.24Z</time></trkpt><trkpt lat="44.3120889" lon="10.7711986"><ele>741.0</ele><time>2026-04-26T08:14:09.244Z</time></trkpt><trkpt lat="44.3121318" lon="10.7710365"><ele>742.25</ele><time>2026-04-26T08:14:10.243Z</time></trkpt><trkpt lat="44.3121603" lon="10.7708588"><ele>743.5</ele><time>2026-04-26T08:14:11.241Z</time></trkpt><trkpt lat="44.3121739" lon="10.7706713"><ele>744.75</ele><time>2026-04-26T08:14:12.245Z</time></trkpt><trkpt lat="44.3121733" lon="10.7704759"><ele>746.0</ele><time>2026-04-26T08:14:13.237Z</time></trkpt><trkpt lat="44.3121652" lon="10.7702844"><ele>748.3333333333333</ele><time>2026-04-26T08:14:14.234Z</time></trkpt><trkpt lat="44.3121415" lon="10.7700619"><ele>750.6666666666666</ele><time>2026-04-26T08:14:15.236Z</time></trkpt><trkpt lat="44.3121062" lon="10.7697946"><ele>753.0</ele><time>2026-04-26T08:14:16.236Z</time></trkpt><trkpt lat="44.3120612" lon="10.7694943"><ele>755.0</ele><time>2026-04-26T08:14:17.234Z</time></trkpt><trkpt lat="44.3120139" lon="10.7691895"><ele>757.0</ele><time>2026-04-26T08:14:18.245Z</time></trkpt><trkpt lat="44.3119644" lon="10.7688977"><ele>759.0</ele><time>2026-04-26T08:14:19.238Z</time></trkpt><trkpt lat="44.3119109" lon="10.7686278"><ele>759.0</ele><time>2026-04-26T08:14:20.237Z</time></trkpt><trkpt lat="44.3118377" lon="10.7683727"><ele>759.0</ele><time>2026-04-26T08:14:21.231Z</time></trkpt><trkpt lat="44.3117483" lon="10.7681218"><ele>759.0</ele><time>2026-04-26T08:14:22.235Z</time></trkpt><trkpt lat="44.3116616" lon="10.7678842"><ele>758.3333333333334</ele><time>2026-04-26T08:14:23.243Z</time></trkpt><trkpt lat="44.3115865" lon="10.767651"><ele>757.6666666666667</ele><time>2026-04-26T08:14:24.24Z</time></trkpt><trkpt lat="44.3115464" lon="10.767421"><ele>757.0</ele><time>2026-04-26T08:14:25.255Z</time></trkpt><trkpt lat="44.3115054" lon="10.7671828"><ele>757.0</ele><time>2026-04-26T08:14:26.234Z</time></trkpt><trkpt lat="44.3115066" lon="10.7669645"><ele>757.0</ele><time>2026-04-26T08:14:27.232Z</time></trkpt><trkpt lat="44.3115212" lon="10.7667554"><ele>757.0</ele><time>2026-04-26T08:14:28.239Z</time></trkpt><trkpt lat="44.3115452" lon="10.7665766"><ele>757.0</ele><time>2026-04-26T08:14:29.236Z</time></trkpt><trkpt lat="44.3115731" lon="10.7664174"><ele>758.0</ele><time>2026-04-26T08:14:30.236Z</time></trkpt><trkpt lat="44.3116457" lon="10.7662728"><ele>759.0</ele><time>2026-04-26T08:14:31.231Z</time></trkpt><trkpt lat="44.3117387" lon="10.7661434"><ele>760.0</ele><time>2026-04-26T08:14:32.243Z</time></trkpt><trkpt lat="44.3118743" lon="10.7660859"><ele>761.0</ele><time>2026-04-26T08:14:33.23Z</time></trkpt><trkpt lat="44.3120218" lon="10.7660881"><ele>761.5</ele><time>2026-04-26T08:14:34.231Z</time></trkpt><trkpt lat="44.3121006" lon="10.7659804"><ele>762.0</ele><time>2026-04-26T08:14:35.234Z</time></trkpt><trkpt lat="44.3121515" lon="10.765836"><ele>762.5</ele><time>2026-04-26T08:14:36.234Z</time></trkpt><trkpt lat="44.3121904" lon="10.76566"><ele>763.0</ele><time>2026-04-26T08:14:37.232Z</time></trkpt><trkpt lat="44.3122033" lon="10.7654265"><ele>765.0</ele><time>2026-04-26T08:14:38.232Z</time></trkpt><trkpt lat="44.3122031" lon="10.7651555"><ele>767.0</ele><time>2026-04-26T08:14:39.234Z</time></trkpt><trkpt lat="44.3122057" lon="10.7648578"><ele>769.0</ele><time>2026-04-26T08:14:40.232Z</time></trkpt><trkpt lat="44.3122134" lon="10.7645479"><ele>768.6666666666666</ele><time>2026-04-26T08:14:41.231Z</time></trkpt><trkpt lat="44.3122378" lon="10.7642844"><ele>768.3333333333333</ele><time>2026-04-26T08:14:42.233Z</time></trkpt><trkpt lat="44.3122788" lon="10.7640571"><ele>768.0</ele><time>2026-04-26T08:14:43.238Z</time></trkpt><trkpt lat="44.3123436" lon="10.7638565"><ele>768.0</ele><time>2026-04-26T08:14:44.235Z</time></trkpt><trkpt lat="44.3124129" lon="10.7636657"><ele>768.0</ele><time>2026-04-26T08:14:45.242Z</time></trkpt><trkpt lat="44.3125007" lon="10.7634887"><ele>768.0</ele><time>2026-04-26T08:14:46.237Z</time></trkpt><trkpt lat="44.3125625" lon="10.7633296"><ele>768.0</ele><time>2026-04-26T08:14:47.256Z</time></trkpt><trkpt lat="44.3125885" lon="10.7631606"><ele>770.0</ele><time>2026-04-26T08:14:48.237Z</time></trkpt><trkpt lat="44.3125528" lon="10.7629806"><ele>772.0</ele><time>2026-04-26T08:14:49.232Z</time></trkpt><trkpt lat="44.3124694" lon="10.7627931"><ele>774.0</ele><time>2026-04-26T08:14:50.233Z</time></trkpt><trkpt lat="44.3123896" lon="10.7626247"><ele>776.0</ele><time>2026-04-26T08:14:51.233Z</time></trkpt><trkpt lat="44.3123311" lon="10.7624671"><ele>776.4</ele><time>2026-04-26T08:14:52.233Z</time></trkpt><trkpt lat="44.3122845" lon="10.7623246"><ele>776.8</ele><time>2026-04-26T08:14:53.239Z</time></trkpt><trkpt lat="44.3122899" lon="10.7621821"><ele>777.1999999999999</ele><time>2026-04-26T08:14:54.236Z</time></trkpt><trkpt lat="44.3123179" lon="10.7620551"><ele>777.5999999999999</ele><time>2026-04-26T08:14:55.25Z</time></trkpt><trkpt lat="44.3123645" lon="10.7619371"><ele>778.0</ele><time>2026-04-26T08:14:56.232Z</time></trkpt><trkpt lat="44.3124446" lon="10.7618329"><ele>780.4</ele><time>2026-04-26T08:14:57.233Z</time></trkpt><trkpt lat="44.3125402" lon="10.7617628"><ele>782.8</ele><time>2026-04-26T08:14:58.236Z</time></trkpt><trkpt lat="44.3126379" lon="10.7617029"><ele>785.2</ele><time>2026-04-26T08:14:59.237Z</time></trkpt><trkpt lat="44.3127441" lon="10.7616542"><ele>787.6</ele><time>2026-04-26T08:15:00.236Z</time></trkpt><trkpt lat="44.3128331" lon="10.7615783"><ele>790.0</ele><time>2026-04-26T08:15:01.235Z</time></trkpt><trkpt lat="44.3129088" lon="10.7614672"><ele>790.0</ele><time>2026-04-26T08:15:02.232Z</time></trkpt><trkpt lat="44.3129664" lon="10.7613359"><ele>790.0</ele><time>2026-04-26T08:15:03.234Z</time></trkpt><trkpt lat="44.3130309" lon="10.7612048"><ele>790.0</ele><time>2026-04-26T08:15:04.232Z</time></trkpt><trkpt lat="44.313107" lon="10.7610926"><ele>790.0</ele><time>2026-04-26T08:15:05.238Z</time></trkpt><trkpt lat="44.3131845" lon="10.7610127"><ele>790.0</ele><time>2026-04-26T08:15:06.239Z</time></trkpt><trkpt lat="44.3132497" lon="10.7609508"><ele>790.3333333333333</ele><time>2026-04-26T08:15:07.239Z</time></trkpt><trkpt lat="44.3133081" lon="10.7609017"><ele>790.6666666666666</ele><time>2026-04-26T08:15:08.234Z</time></trkpt><trkpt lat="44.3133499" lon="10.7608269"><ele>791.0</ele><time>2026-04-26T08:15:09.238Z</time></trkpt><trkpt lat="44.3133717" lon="10.760733"><ele>791.3333333333333</ele><time>2026-04-26T08:15:10.241Z</time></trkpt><trkpt lat="44.3133699" lon="10.7606258"><ele>791.6666666666666</ele><time>2026-04-26T08:15:11.238Z</time></trkpt><trkpt lat="44.3133479" lon="10.7604983"><ele>792.0</ele><time>2026-04-26T08:15:12.243Z</time></trkpt><trkpt lat="44.3132749" lon="10.7603859"><ele>792.0</ele><time>2026-04-26T08:15:13.245Z</time></trkpt><trkpt lat="44.3132052" lon="10.760255"><ele>792.0</ele><time>2026-04-26T08:15:14.245Z</time></trkpt><trkpt lat="44.3131266" lon="10.7601161"><ele>792.0</ele><time>2026-04-26T08:15:15.232Z</time></trkpt><trkpt lat="44.3130612" lon="10.7599819"><ele>792.0</ele><time>2026-04-26T08:15:16.243Z</time></trkpt><trkpt lat="44.3130149" lon="10.7598416"><ele>792.2</ele><time>2026-04-26T08:15:17.241Z</time></trkpt><trkpt lat="44.312986" lon="10.7597009"><ele>792.4000000000001</ele><time>2026-04-26T08:15:18.248Z</time></trkpt><trkpt lat="44.3129753" lon="10.759554"><ele>792.5999999999999</ele><time>2026-04-26T08:15:19.245Z</time></trkpt><trkpt lat="44.3129878" lon="10.7594082"><ele>792.8</ele><time>2026-04-26T08:15:20.239Z</time></trkpt><trkpt lat="44.3130183" lon="10.7592788"><ele>793.0</ele><time>2026-04-26T08:15:21.237Z</time></trkpt><trkpt lat="44.3130854" lon="10.7591559"><ele>794.0</ele><time>2026-04-26T08:15:22.236Z</time></trkpt><trkpt lat="44.3131756" lon="10.7590736"><ele>795.0</ele><time>2026-04-26T08:15:23.249Z</time></trkpt><trkpt lat="44.3132481" lon="10.759009"><ele>796.0</ele><time>2026-04-26T08:15:24.24Z</time></trkpt><trkpt lat="44.313313" lon="10.7589207"><ele>797.0</ele><time>2026-04-26T08:15:25.233Z</time></trkpt><trkpt lat="44.3133412" lon="10.758809"><ele>798.0</ele><time>2026-04-26T08:15:26.237Z</time></trkpt><trkpt lat="44.3133429" lon="10.7586859"><ele>798.0</ele><time>2026-04-26T08:15:27.24Z</time></trkpt><trkpt lat="44.3132922" lon="10.7585436"><ele>798.0</ele><time>2026-04-26T08:15:28.246Z</time></trkpt><trkpt lat="44.3132222" lon="10.75842"><ele>798.0</ele><time>2026-04-26T08:15:29.237Z</time></trkpt><trkpt lat="44.313144" lon="10.7582836"><ele>798.0</ele><time>2026-04-26T08:15:30.242Z</time></trkpt><trkpt lat="44.3130642" lon="10.7581437"><ele>800.25</ele><time>2026-04-26T08:15:31.238Z</time></trkpt><trkpt lat="44.3129853" lon="10.7580096"><ele>802.5</ele><time>2026-04-26T08:15:32.238Z</time></trkpt><trkpt lat="44.3129106" lon="10.7578877"><ele>804.75</ele><time>2026-04-26T08:15:33.259Z</time></trkpt><trkpt lat="44.3128345" lon="10.7577735"><ele>807.0</ele><time>2026-04-26T08:15:34.239Z</time></trkpt><trkpt lat="44.3127567" lon="10.7576536"><ele>807.75</ele><time>2026-04-26T08:15:35.242Z</time></trkpt><trkpt lat="44.3126798" lon="10.7575358"><ele>808.5</ele><time>2026-04-26T08:15:36.237Z</time></trkpt><trkpt lat="44.3126117" lon="10.7574051"><ele>809.25</ele><time>2026-04-26T08:15:37.241Z</time></trkpt><trkpt lat="44.3125507" lon="10.7572641"><ele>810.0</ele><time>2026-04-26T08:15:38.243Z</time></trkpt><trkpt lat="44.3125254" lon="10.7570969"><ele>810.0</ele><time>2026-04-26T08:15:39.244Z</time></trkpt><trkpt lat="44.3125409" lon="10.7569393"><ele>810.0</ele><time>2026-04-26T08:15:40.272Z</time></trkpt><trkpt lat="44.3125867" lon="10.7567877"><ele>810.0</ele><time>2026-04-26T08:15:41.241Z</time></trkpt><trkpt lat="44.3126501" lon="10.7566449"><ele>810.0</ele><time>2026-04-26T08:15:42.239Z</time></trkpt><trkpt lat="44.3127236" lon="10.7565104"><ele>810.75</ele><time>2026-04-26T08:15:43.246Z</time></trkpt><trkpt lat="44.3127876" lon="10.75637"><ele>811.5</ele><time>2026-04-26T08:15:44.236Z</time></trkpt><trkpt lat="44.3128541" lon="10.756219"><ele>812.25</ele><time>2026-04-26T08:15:45.244Z</time></trkpt><trkpt lat="44.3128978" lon="10.7560444"><ele>813.0</ele><time>2026-04-26T08:15:46.237Z</time></trkpt><trkpt lat="44.3129091" lon="10.7558539"><ele>813.5</ele><time>2026-04-26T08:15:47.259Z</time></trkpt><trkpt lat="44.3128765" lon="10.7556611"><ele>814.0</ele><time>2026-04-26T08:15:48.244Z</time></trkpt><trkpt lat="44.312811" lon="10.7554735"><ele>814.5</ele><time>2026-04-26T08:15:49.246Z</time></trkpt><trkpt lat="44.3127278" lon="10.7552893"><ele>815.0</ele><time>2026-04-26T08:15:50.233Z</time></trkpt><trkpt lat="44.3126477" lon="10.755115"><ele>815.0</ele><time>2026-04-26T08:15:51.246Z</time></trkpt><trkpt lat="44.3125733" lon="10.7549252"><ele>815.0</ele><time>2026-04-26T08:15:52.239Z</time></trkpt><trkpt lat="44.3124612" lon="10.7547458"><ele>815.0</ele><time>2026-04-26T08:15:53.238Z</time></trkpt><trkpt lat="44.3123104" lon="10.7545556"><ele>817.5</ele><time>2026-04-26T08:15:54.236Z</time></trkpt><trkpt lat="44.3121314" lon="10.7543356"><ele>820.0</ele><time>2026-04-26T08:15:55.244Z</time></trkpt><trkpt lat="44.311976" lon="10.7541181"><ele>820.0</ele><time>2026-04-26T08:15:56.24Z</time></trkpt><trkpt lat="44.3118523" lon="10.7539091"><ele>820.0</ele><time>2026-04-26T08:15:57.242Z</time></trkpt><trkpt lat="44.3117488" lon="10.7537294"><ele>820.0</ele><time>2026-04-26T08:15:58.241Z</time></trkpt><trkpt lat="44.3116454" lon="10.7535903"><ele>819.75</ele><time>2026-04-26T08:15:59.238Z</time></trkpt><trkpt lat="44.3115397" lon="10.7534904"><ele>819.5</ele><time>2026-04-26T08:16:00.234Z</time></trkpt><trkpt lat="44.3114379" lon="10.7534209"><ele>819.25</ele><time>2026-04-26T08:16:01.233Z</time></trkpt><trkpt lat="44.3113362" lon="10.7533504"><ele>819.0</ele><time>2026-04-26T08:16:02.237Z</time></trkpt><trkpt lat="44.3112487" lon="10.7532639"><ele>821.6</ele><time>2026-04-26T08:16:03.243Z</time></trkpt><trkpt lat="44.3111839" lon="10.7531576"><ele>824.2</ele><time>2026-04-26T08:16:04.232Z</time></trkpt><trkpt lat="44.3111408" lon="10.7530322"><ele>826.8000000000001</ele><time>2026-04-26T08:16:05.238Z</time></trkpt><trkpt lat="44.3111213" lon="10.7528891"><ele>829.4000000000001</ele><time>2026-04-26T08:16:06.246Z</time></trkpt><trkpt lat="44.3111159" lon="10.7527319"><ele>832.0</ele><time>2026-04-26T08:16:07.243Z</time></trkpt><trkpt lat="44.3111036" lon="10.7525626"><ele>832.5</ele><time>2026-04-26T08:16:08.235Z</time></trkpt><trkpt lat="44.31107" lon="10.7523827"><ele>833.0</ele><time>2026-04-26T08:16:09.239Z</time></trkpt><trkpt lat="44.3110169" lon="10.7522087"><ele>833.5</ele><time>2026-04-26T08:16:10.243Z</time></trkpt><trkpt lat="44.3109447" lon="10.7520481"><ele>834.0</ele><time>2026-04-26T08:16:11.236Z</time></trkpt><trkpt lat="44.3108638" lon="10.7519085"><ele>833.25</ele><time>2026-04-26T08:16:12.24Z</time></trkpt><trkpt lat="44.3107826" lon="10.751785"><ele>832.5</ele><time>2026-04-26T08:16:13.238Z</time></trkpt><trkpt lat="44.3107126" lon="10.7516556"><ele>831.75</ele><time>2026-04-26T08:16:14.24Z</time></trkpt><trkpt lat="44.3106604" lon="10.7515104"><ele>831.0</ele><time>2026-04-26T08:16:15.237Z</time></trkpt><trkpt lat="44.3106367" lon="10.7513597"><ele>831.0</ele><time>2026-04-26T08:16:16.237Z</time></trkpt><trkpt lat="44.3106349" lon="10.751218"><ele>831.0</ele><time>2026-04-26T08:16:17.24Z</time></trkpt><trkpt lat="44.3106536" lon="10.751083"><ele>831.0</ele><time>2026-04-26T08:16:18.234Z</time></trkpt><trkpt lat="44.310696" lon="10.7509541"><ele>831.0</ele><time>2026-04-26T08:16:19.244Z</time></trkpt><trkpt lat="44.3107449" lon="10.7508388"><ele>831.0</ele><time>2026-04-26T08:16:20.235Z</time></trkpt><trkpt lat="44.3108279" lon="10.7507581"><ele>832.25</ele><time>2026-04-26T08:16:21.236Z</time></trkpt><trkpt lat="44.3109067" lon="10.7506649"><ele>833.5</ele><time>2026-04-26T08:16:22.234Z</time></trkpt><trkpt lat="44.3109578" lon="10.7505362"><ele>834.75</ele><time>2026-04-26T08:16:23.245Z</time></trkpt><trkpt lat="44.3109896" lon="10.7503714"><ele>836.0</ele><time>2026-04-26T08:16:24.236Z</time></trkpt><trkpt lat="44.3110118" lon="10.7501853"><ele>838.0</ele><time>2026-04-26T08:16:25.239Z</time></trkpt><trkpt lat="44.3110376" lon="10.7499887"><ele>840.0</ele><time>2026-04-26T08:16:26.238Z</time></trkpt><trkpt lat="44.3110842" lon="10.7498028"><ele>842.0</ele><time>2026-04-26T08:16:27.238Z</time></trkpt><trkpt lat="44.3111476" lon="10.7496395"><ele>844.0</ele><time>2026-04-26T08:16:28.236Z</time></trkpt><trkpt lat="44.3112247" lon="10.7495"><ele>844.0</ele><time>2026-04-26T08:16:29.233Z</time></trkpt><trkpt lat="44.3113123" lon="10.7493774"><ele>844.0</ele><time>2026-04-26T08:16:30.237Z</time></trkpt><trkpt lat="44.3113964" lon="10.7492605"><ele>844.0</ele><time>2026-04-26T08:16:31.238Z</time></trkpt><trkpt lat="44.3114699" lon="10.7491518"><ele>844.0</ele><time>2026-04-26T08:16:32.236Z</time></trkpt><trkpt lat="44.3115265" lon="10.7490505"><ele>844.0</ele><time>2026-04-26T08:16:33.248Z</time></trkpt><trkpt lat="44.3115329" lon="10.7489451"><ele>844.4000000000001</ele><time>2026-04-26T08:16:34.234Z</time></trkpt><trkpt lat="44.3115026" lon="10.7488383"><ele>844.8</ele><time>2026-04-26T08:16:35.238Z</time></trkpt><trkpt lat="44.3114378" lon="10.7487693"><ele>845.2</ele><time>2026-04-26T08:16:36.242Z</time></trkpt><trkpt lat="44.311347" lon="10.7487516"><ele>845.5999999999999</ele><time>2026-04-26T08:16:37.235Z</time></trkpt><trkpt lat="44.3112318" lon="10.7487804"><ele>846.0</ele><time>2026-04-26T08:16:38.235Z</time></trkpt><trkpt lat="44.3110969" lon="10.7488264"><ele>846.75</ele><time>2026-04-26T08:16:39.237Z</time></trkpt><trkpt lat="44.3109504" lon="10.7488658"><ele>847.5</ele><time>2026-04-26T08:16:40.241Z</time></trkpt><trkpt lat="44.3108146" lon="10.7488802"><ele>848.25</ele><time>2026-04-26T08:16:41.241Z</time></trkpt><trkpt lat="44.3106947" lon="10.7488497"><ele>849.0</ele><time>2026-04-26T08:16:42.234Z</time></trkpt><trkpt lat="44.310581" lon="10.7487802"><ele>848.0</ele><time>2026-04-26T08:16:43.238Z</time></trkpt><trkpt lat="44.3104792" lon="10.7486728"><ele>847.0</ele><time>2026-04-26T08:16:44.239Z</time></trkpt><trkpt lat="44.3103967" lon="10.7485515"><ele>846.0</ele><time>2026-04-26T08:16:45.233Z</time></trkpt><trkpt lat="44.3103403" lon="10.7484278"><ele>845.0</ele><time>2026-04-26T08:16:46.233Z</time></trkpt><trkpt lat="44.3102877" lon="10.748302"><ele>845.0</ele><time>2026-04-26T08:16:47.235Z</time></trkpt><trkpt lat="44.3103109" lon="10.7481863"><ele>845.0</ele><time>2026-04-26T08:16:48.24Z</time></trkpt><trkpt lat="44.310364" lon="10.7480589"><ele>845.0</ele><time>2026-04-26T08:16:49.235Z</time></trkpt><trkpt lat="44.3104347" lon="10.747932"><ele>845.0</ele><time>2026-04-26T08:16:50.235Z</time></trkpt><trkpt lat="44.3105088" lon="10.7477981"><ele>845.0</ele><time>2026-04-26T08:16:51.251Z</time></trkpt><trkpt lat="44.3105802" lon="10.7476424"><ele>851.25</ele><time>2026-04-26T08:16:52.234Z</time></trkpt><trkpt lat="44.3106314" lon="10.7474626"><ele>857.5</ele><time>2026-04-26T08:16:53.241Z</time></trkpt><trkpt lat="44.3106569" lon="10.7472856"><ele>863.75</ele><time>2026-04-26T08:16:54.24Z</time></trkpt><trkpt lat="44.3106795" lon="10.7471175"><ele>870.0</ele><time>2026-04-26T08:16:55.239Z</time></trkpt><trkpt lat="44.3106733" lon="10.7469493"><ele>870.75</ele><time>2026-04-26T08:16:56.243Z</time></trkpt><trkpt lat="44.310666" lon="10.7467783"><ele>871.5</ele><time>2026-04-26T08:16:57.238Z</time></trkpt><trkpt lat="44.3106564" lon="10.7465939"><ele>872.25</ele><time>2026-04-26T08:16:58.236Z</time></trkpt><trkpt lat="44.3106694" lon="10.7463554"><ele>873.0</ele><time>2026-04-26T08:16:59.237Z</time></trkpt><trkpt lat="44.3107036" lon="10.7460921"><ele>872.6666666666667</ele><time>2026-04-26T08:17:00.233Z</time></trkpt><trkpt lat="44.3107611" lon="10.7458171"><ele>872.3333333333334</ele><time>2026-04-26T08:17:01.237Z</time></trkpt><trkpt lat="44.3108108" lon="10.7455044"><ele>872.0</ele><time>2026-04-26T08:17:02.233Z</time></trkpt><trkpt lat="44.3108346" lon="10.7451586"><ele>872.0</ele><time>2026-04-26T08:17:03.235Z</time></trkpt><trkpt lat="44.3108298" lon="10.7448236"><ele>872.0</ele><time>2026-04-26T08:17:04.237Z</time></trkpt><trkpt lat="44.3108228" lon="10.7445005"><ele>871.0</ele><time>2026-04-26T08:17:05.238Z</time></trkpt><trkpt lat="44.3108395" lon="10.7442117"><ele>870.0</ele><time>2026-04-26T08:17:06.241Z</time></trkpt><trkpt lat="44.3109003" lon="10.7439085"><ele>869.0</ele><time>2026-04-26T08:17:07.234Z</time></trkpt><trkpt lat="44.3109719" lon="10.7435865"><ele>869.0</ele><time>2026-04-26T08:17:08.244Z</time></trkpt><trkpt lat="44.3109883" lon="10.7432838"><ele>869.0</ele><time>2026-04-26T08:17:09.242Z</time></trkpt><trkpt lat="44.3109897" lon="10.7430123"><ele>869.0</ele><time>2026-04-26T08:17:10.237Z</time></trkpt><trkpt lat="44.3109579" lon="10.7427169"><ele>870.5</ele><time>2026-04-26T08:17:11.236Z</time></trkpt><trkpt lat="44.3108913" lon="10.7424073"><ele>872.0</ele><time>2026-04-26T08:17:12.237Z</time></trkpt><trkpt lat="44.3108042" lon="10.7421052"><ele>874.0</ele><time>2026-04-26T08:17:13.237Z</time></trkpt><trkpt lat="44.3107112" lon="10.74182"><ele>876.0</ele><time>2026-04-26T08:17:14.24Z</time></trkpt><trkpt lat="44.310607" lon="10.7415744"><ele>878.0</ele><time>2026-04-26T08:17:15.236Z</time></trkpt><trkpt lat="44.3104914" lon="10.7413699"><ele>878.3333333333334</ele><time>2026-04-26T08:17:16.233Z</time></trkpt><trkpt lat="44.3103465" lon="10.7412124"><ele>878.6666666666667</ele><time>2026-04-26T08:17:17.237Z</time></trkpt><trkpt lat="44.3101656" lon="10.7411021"><ele>879.0</ele><time>2026-04-26T08:17:18.236Z</time></trkpt><trkpt lat="44.3099617" lon="10.7410385"><ele>879.0</ele><time>2026-04-26T08:17:19.24Z</time></trkpt><trkpt lat="44.3097606" lon="10.7410013"><ele>879.0</ele><time>2026-04-26T08:17:20.237Z</time></trkpt><trkpt lat="44.3095781" lon="10.7409571"><ele>879.0</ele><time>2026-04-26T08:17:21.236Z</time></trkpt><trkpt lat="44.3094446" lon="10.7408941"><ele>876.25</ele><time>2026-04-26T08:17:22.236Z</time></trkpt><trkpt lat="44.3093501" lon="10.740775"><ele>873.5</ele><time>2026-04-26T08:17:23.239Z</time></trkpt><trkpt lat="44.3092854" lon="10.7406104"><ele>870.75</ele><time>2026-04-26T08:17:24.239Z</time></trkpt><trkpt lat="44.3092364" lon="10.7403934"><ele>868.0</ele><time>2026-04-26T08:17:25.243Z</time></trkpt><trkpt lat="44.3091921" lon="10.7401615"><ele>868.0</ele><time>2026-04-26T08:17:26.236Z</time></trkpt><trkpt lat="44.3091392" lon="10.7399103"><ele>868.0</ele><time>2026-04-26T08:17:27.239Z</time></trkpt><trkpt lat="44.3090801" lon="10.7396589"><ele>868.0</ele><time>2026-04-26T08:17:28.236Z</time></trkpt><trkpt lat="44.3090062" lon="10.7394165"><ele>865.6666666666666</ele><time>2026-04-26T08:17:29.244Z</time></trkpt><trkpt lat="44.3089287" lon="10.73918"><ele>863.3333333333333</ele><time>2026-04-26T08:17:30.236Z</time></trkpt><trkpt lat="44.3088419" lon="10.7389549"><ele>861.0</ele><time>2026-04-26T08:17:31.252Z</time></trkpt><trkpt lat="44.3087374" lon="10.7387353"><ele>859.0</ele><time>2026-04-26T08:17:32.238Z</time></trkpt><trkpt lat="44.308625" lon="10.7385286"><ele>857.0</ele><time>2026-04-26T08:17:33.243Z</time></trkpt><trkpt lat="44.3085207" lon="10.7383301"><ele>855.0</ele><time>2026-04-26T08:17:34.239Z</time></trkpt><trkpt lat="44.3084297" lon="10.7381341"><ele>855.0</ele><time>2026-04-26T08:17:35.239Z</time></trkpt><trkpt lat="44.3083544" lon="10.7379245"><ele>855.0</ele><time>2026-04-26T08:17:36.247Z</time></trkpt><trkpt lat="44.3082907" lon="10.7377023"><ele>855.0</ele><time>2026-04-26T08:17:37.242Z</time></trkpt><trkpt lat="44.308238" lon="10.7374709"><ele>853.3333333333333</ele><time>2026-04-26T08:17:38.24Z</time></trkpt><trkpt lat="44.3081881" lon="10.7372359"><ele>851.6666666666666</ele><time>2026-04-26T08:17:39.243Z</time></trkpt><trkpt lat="44.3081381" lon="10.7369994"><ele>850.0</ele><time>2026-04-26T08:17:40.242Z</time></trkpt><trkpt lat="44.3080914" lon="10.7367606"><ele>848.3333333333333</ele><time>2026-04-26T08:17:41.242Z</time></trkpt><trkpt lat="44.3080483" lon="10.7365241"><ele>846.6666666666667</ele><time>2026-04-26T08:17:42.236Z</time></trkpt><trkpt lat="44.3080066" lon="10.7362949"><ele>845.0</ele><time>2026-04-26T08:17:43.24Z</time></trkpt><trkpt lat="44.3079734" lon="10.7360699"><ele>846.0</ele><time>2026-04-26T08:17:44.241Z</time></trkpt><trkpt lat="44.3079556" lon="10.7358547"><ele>847.0</ele><time>2026-04-26T08:17:45.239Z</time></trkpt><trkpt lat="44.3079319" lon="10.7356565"><ele>848.0</ele><time>2026-04-26T08:17:46.246Z</time></trkpt><trkpt lat="44.307915" lon="10.7354566"><ele>849.0</ele><time>2026-04-26T08:17:47.236Z</time></trkpt><trkpt lat="44.3079034" lon="10.735262"><ele>848.5</ele><time>2026-04-26T08:17:48.24Z</time></trkpt><trkpt lat="44.3078883" lon="10.7350685"><ele>848.0</ele><time>2026-04-26T08:17:49.237Z</time></trkpt><trkpt lat="44.3078789" lon="10.7348842"><ele>847.5</ele><time>2026-04-26T08:17:50.24Z</time></trkpt><trkpt lat="44.3078797" lon="10.7347066"><ele>847.0</ele><time>2026-04-26T08:17:51.239Z</time></trkpt><trkpt lat="44.3078694" lon="10.7345344"><ele>846.4000000000001</ele><time>2026-04-26T08:17:52.24Z</time></trkpt><trkpt lat="44.3078613" lon="10.7343601"><ele>845.8000000000001</ele><time>2026-04-26T08:17:53.237Z</time></trkpt><trkpt lat="44.3078576" lon="10.7342002"><ele>845.2</ele><time>2026-04-26T08:17:54.236Z</time></trkpt><trkpt lat="44.307851" lon="10.7340529"><ele>844.6</ele><time>2026-04-26T08:17:55.243Z</time></trkpt><trkpt lat="44.3078468" lon="10.7339139"><ele>844.0</ele><time>2026-04-26T08:17:56.246Z</time></trkpt><trkpt lat="44.3078396" lon="10.7337807"><ele>844.0</ele><time>2026-04-26T08:17:57.238Z</time></trkpt><trkpt lat="44.3078339" lon="10.7336494"><ele>844.0</ele><time>2026-04-26T08:17:58.239Z</time></trkpt><trkpt lat="44.3078225" lon="10.7335113"><ele>844.0</ele><time>2026-04-26T08:17:59.242Z</time></trkpt><trkpt lat="44.3078077" lon="10.7333724"><ele>844.0</ele><time>2026-04-26T08:18:00.235Z</time></trkpt><trkpt lat="44.3077772" lon="10.7332347"><ele>844.0</ele><time>2026-04-26T08:18:01.241Z</time></trkpt><trkpt lat="44.3077328" lon="10.733098"><ele>844.2</ele><time>2026-04-26T08:18:02.236Z</time></trkpt><trkpt lat="44.3076804" lon="10.732966"><ele>844.4000000000001</ele><time>2026-04-26T08:18:03.236Z</time></trkpt><trkpt lat="44.3076265" lon="10.7328329"><ele>844.6</ele><time>2026-04-26T08:18:04.237Z</time></trkpt><trkpt lat="44.3075738" lon="10.7327056"><ele>844.8</ele><time>2026-04-26T08:18:05.235Z</time></trkpt><trkpt lat="44.3075239" lon="10.7325893"><ele>845.0</ele><time>2026-04-26T08:18:06.233Z</time></trkpt><trkpt lat="44.307481" lon="10.7324734"><ele>844.6666666666667</ele><time>2026-04-26T08:18:07.235Z</time></trkpt><trkpt lat="44.3074444" lon="10.7323601"><ele>844.3333333333334</ele><time>2026-04-26T08:18:08.246Z</time></trkpt><trkpt lat="44.3074086" lon="10.7322635"><ele>844.0</ele><time>2026-04-26T08:18:09.234Z</time></trkpt><trkpt lat="44.3073767" lon="10.7321786"><ele>843.6666666666667</ele><time>2026-04-26T08:18:10.236Z</time></trkpt><trkpt lat="44.3073385" lon="10.7320375"><ele>843.3333333333334</ele><time>2026-04-26T08:18:12.235Z</time></trkpt><trkpt lat="44.3073688" lon="10.7318993"><ele>843.0</ele><time>2026-04-26T08:18:16.242Z</time></trkpt><trkpt lat="44.3073629" lon="10.7317741"><ele>843.0</ele><time>2026-04-26T08:18:28.246Z</time></trkpt><trkpt lat="44.3072775" lon="10.7317693"><ele>843.0</ele><time>2026-04-26T08:41:55.238Z</time></trkpt><trkpt lat="44.3072255" lon="10.7316755"><ele>843.0</ele><time>2026-04-26T08:41:58.231Z</time></trkpt><trkpt lat="44.3071827" lon="10.731529"><ele>843.0</ele><time>2026-04-26T08:42:00.237Z</time></trkpt><trkpt lat="44.3071449" lon="10.7313884"><ele>843.0</ele><time>2026-04-26T08:42:02.235Z</time></trkpt><trkpt lat="44.3071051" lon="10.7312537"><ele>843.0</ele><time>2026-04-26T08:42:04.231Z</time></trkpt><trkpt lat="44.307068" lon="10.731128"><ele>843.0</ele><time>2026-04-26T08:42:06.236Z</time></trkpt><trkpt lat="44.3070355" lon="10.7309944"><ele>843.0</ele><time>2026-04-26T08:42:08.23Z</time></trkpt><trkpt lat="44.3070099" lon="10.7308316"><ele>843.0</ele><time>2026-04-26T08:42:10.233Z</time></trkpt><trkpt lat="44.3069991" lon="10.7306791"><ele>843.0</ele><time>2026-04-26T08:42:12.234Z</time></trkpt><trkpt lat="44.306999" lon="10.7305095"><ele>843.0</ele><time>2026-04-26T08:42:14.235Z</time></trkpt><trkpt lat="44.3070053" lon="10.7303424"><ele>843.0</ele><time>2026-04-26T08:42:16.232Z</time></trkpt><trkpt lat="44.307012" lon="10.7301819"><ele>843.0</ele><time>2026-04-26T08:42:18.242Z</time></trkpt><trkpt lat="44.3070177" lon="10.7300122"><ele>843.0</ele><time>2026-04-26T08:42:20.233Z</time></trkpt><trkpt lat="44.3070152" lon="10.7299179"><ele>843.0</ele><time>2026-04-26T08:42:21.232Z</time></trkpt><trkpt lat="44.3070119" lon="10.7298209"><ele>842.8333333333334</ele><time>2026-04-26T08:42:22.232Z</time></trkpt><trkpt lat="44.3070054" lon="10.7297229"><ele>842.6666666666667</ele><time>2026-04-26T08:42:23.256Z</time></trkpt><trkpt lat="44.3069946" lon="10.7296101"><ele>842.5</ele><time>2026-04-26T08:42:24.235Z</time></trkpt><trkpt lat="44.3069868" lon="10.7295007"><ele>842.3333333333334</ele><time>2026-04-26T08:42:25.23Z</time></trkpt><trkpt lat="44.3069653" lon="10.7293772"><ele>842.1666666666667</ele><time>2026-04-26T08:42:26.238Z</time></trkpt><trkpt lat="44.3069365" lon="10.7292492"><ele>842.0</ele><time>2026-04-26T08:42:27.235Z</time></trkpt><trkpt lat="44.3069034" lon="10.7291249"><ele>841.8</ele><time>2026-04-26T08:42:28.263Z</time></trkpt><trkpt lat="44.3068704" lon="10.7290032"><ele>841.6</ele><time>2026-04-26T08:42:29.231Z</time></trkpt><trkpt lat="44.3068361" lon="10.7288857"><ele>841.4</ele><time>2026-04-26T08:42:30.231Z</time></trkpt><trkpt lat="44.3067916" lon="10.7287496"><ele>841.1999999999999</ele><time>2026-04-26T08:42:31.233Z</time></trkpt><trkpt lat="44.3067428" lon="10.7285946"><ele>841.0</ele><time>2026-04-26T08:42:32.235Z</time></trkpt><trkpt lat="44.3066787" lon="10.728395"><ele>840.6666666666666</ele><time>2026-04-26T08:42:33.234Z</time></trkpt><trkpt lat="44.3066008" lon="10.7281698"><ele>840.3333333333333</ele><time>2026-04-26T08:42:34.239Z</time></trkpt><trkpt lat="44.3064947" lon="10.7279578"><ele>840.0</ele><time>2026-04-26T08:42:35.233Z</time></trkpt><trkpt lat="44.306384" lon="10.7277344"><ele>838.6666666666667</ele><time>2026-04-26T08:42:36.252Z</time></trkpt><trkpt lat="44.3062982" lon="10.7275139"><ele>837.3333333333334</ele><time>2026-04-26T08:42:37.232Z</time></trkpt><trkpt lat="44.3062259" lon="10.7272946"><ele>836.0</ele><time>2026-04-26T08:42:38.239Z</time></trkpt><trkpt lat="44.3061626" lon="10.7270805"><ele>836.6666666666667</ele><time>2026-04-26T08:42:39.236Z</time></trkpt><trkpt lat="44.3061126" lon="10.7268654"><ele>837.3333333333333</ele><time>2026-04-26T08:42:40.234Z</time></trkpt><trkpt lat="44.3060815" lon="10.7266525"><ele>838.0</ele><time>2026-04-26T08:42:41.235Z</time></trkpt><trkpt lat="44.3060764" lon="10.7264393"><ele>838.0</ele><time>2026-04-26T08:42:42.233Z</time></trkpt><trkpt lat="44.3060938" lon="10.7262223"><ele>838.0</ele><time>2026-04-26T08:42:43.235Z</time></trkpt><trkpt lat="44.3061168" lon="10.7260042"><ele>838.0</ele><time>2026-04-26T08:42:44.236Z</time></trkpt><trkpt lat="44.3061283" lon="10.7257805"><ele>838.5</ele><time>2026-04-26T08:42:45.232Z</time></trkpt><trkpt lat="44.306119" lon="10.7255706"><ele>839.0</ele><time>2026-04-26T08:42:46.255Z</time></trkpt><trkpt lat="44.3061007" lon="10.7253756"><ele>839.5</ele><time>2026-04-26T08:42:47.229Z</time></trkpt><trkpt lat="44.3060892" lon="10.7251981"><ele>840.0</ele><time>2026-04-26T08:42:48.239Z</time></trkpt><trkpt lat="44.3060859" lon="10.7250481"><ele>841.0</ele><time>2026-04-26T08:42:49.238Z</time></trkpt><trkpt lat="44.3061447" lon="10.7249062"><ele>842.0</ele><time>2026-04-26T08:42:50.234Z</time></trkpt><trkpt lat="44.3062254" lon="10.7247612"><ele>843.0</ele><time>2026-04-26T08:42:51.232Z</time></trkpt><trkpt lat="44.3063442" lon="10.7246392"><ele>844.0</ele><time>2026-04-26T08:42:52.235Z</time></trkpt><trkpt lat="44.3064266" lon="10.724505"><ele>845.0</ele><time>2026-04-26T08:42:53.242Z</time></trkpt><trkpt lat="44.3064607" lon="10.7243683"><ele>846.0</ele><time>2026-04-26T08:42:54.235Z</time></trkpt><trkpt lat="44.3064558" lon="10.7242284"><ele>847.0</ele><time>2026-04-26T08:42:55.238Z</time></trkpt><trkpt lat="44.3064075" lon="10.7240923"><ele>848.0</ele><time>2026-04-26T08:42:56.243Z</time></trkpt><trkpt lat="44.3063408" lon="10.7239605"><ele>849.0</ele><time>2026-04-26T08:42:57.236Z</time></trkpt><trkpt lat="44.3062174" lon="10.7238217"><ele>849.0</ele><time>2026-04-26T08:42:58.243Z</time></trkpt><trkpt lat="44.3060742" lon="10.7236778"><ele>849.0</ele><time>2026-04-26T08:42:59.237Z</time></trkpt><trkpt lat="44.3059421" lon="10.7235278"><ele>849.0</ele><time>2026-04-26T08:43:00.231Z</time></trkpt><trkpt lat="44.3058292" lon="10.7233782"><ele>848.5</ele><time>2026-04-26T08:43:01.233Z</time></trkpt><trkpt lat="44.3057237" lon="10.7232351"><ele>848.0</ele><time>2026-04-26T08:43:02.238Z</time></trkpt><trkpt lat="44.3056727" lon="10.7230546"><ele>847.5</ele><time>2026-04-26T08:43:03.235Z</time></trkpt><trkpt lat="44.3056142" lon="10.7229001"><ele>847.0</ele><time>2026-04-26T08:43:04.242Z</time></trkpt><trkpt lat="44.3055463" lon="10.72278"><ele>845.75</ele><time>2026-04-26T08:43:05.233Z</time></trkpt><trkpt lat="44.3054717" lon="10.722674"><ele>844.5</ele><time>2026-04-26T08:43:06.237Z</time></trkpt><trkpt lat="44.3053439" lon="10.7226466"><ele>843.25</ele><time>2026-04-26T08:43:07.231Z</time></trkpt><trkpt lat="44.305216" lon="10.722634"><ele>842.0</ele><time>2026-04-26T08:43:08.228Z</time></trkpt><trkpt lat="44.3050666" lon="10.7226042"><ele>842.0</ele><time>2026-04-26T08:43:09.229Z</time></trkpt><trkpt lat="44.3049377" lon="10.7225538"><ele>842.0</ele><time>2026-04-26T08:43:10.236Z</time></trkpt><trkpt lat="44.304817" lon="10.722502"><ele>842.0</ele><time>2026-04-26T08:43:11.235Z</time></trkpt><trkpt lat="44.3047003" lon="10.7224428"><ele>842.0</ele><time>2026-04-26T08:43:12.231Z</time></trkpt><trkpt lat="44.3045811" lon="10.7223783"><ele>842.0</ele><time>2026-04-26T08:43:13.254Z</time></trkpt><trkpt lat="44.3044648" lon="10.7223069"><ele>842.0</ele><time>2026-04-26T08:43:14.239Z</time></trkpt><trkpt lat="44.3043487" lon="10.7222136"><ele>842.0</ele><time>2026-04-26T08:43:15.231Z</time></trkpt><trkpt lat="44.3042405" lon="10.7221016"><ele>842.0</ele><time>2026-04-26T08:43:16.237Z</time></trkpt><trkpt lat="44.304136" lon="10.7219781"><ele>842.5</ele><time>2026-04-26T08:43:17.237Z</time></trkpt><trkpt lat="44.3040411" lon="10.7218553"><ele>843.0</ele><time>2026-04-26T08:43:18.254Z</time></trkpt><trkpt lat="44.3039488" lon="10.721735"><ele>843.5</ele><time>2026-04-26T08:43:19.232Z</time></trkpt><trkpt lat="44.3038602" lon="10.7216137"><ele>844.0</ele><time>2026-04-26T08:43:20.236Z</time></trkpt><trkpt lat="44.3037815" lon="10.7214872"><ele>845.0</ele><time>2026-04-26T08:43:21.229Z</time></trkpt><trkpt lat="44.3037255" lon="10.7213447"><ele>846.0</ele><time>2026-04-26T08:43:22.239Z</time></trkpt><trkpt lat="44.3036941" lon="10.7211884"><ele>847.0</ele><time>2026-04-26T08:43:23.236Z</time></trkpt><trkpt lat="44.3036867" lon="10.7210231"><ele>848.0</ele><time>2026-04-26T08:43:24.235Z</time></trkpt><trkpt lat="44.303701" lon="10.7208494"><ele>850.5</ele><time>2026-04-26T08:43:25.233Z</time></trkpt><trkpt lat="44.3037199" lon="10.7206681"><ele>853.0</ele><time>2026-04-26T08:43:26.234Z</time></trkpt><trkpt lat="44.303723" lon="10.7204902"><ele>855.5</ele><time>2026-04-26T08:43:27.242Z</time></trkpt><trkpt lat="44.3036986" lon="10.7203194"><ele>858.0</ele><time>2026-04-26T08:43:28.236Z</time></trkpt><trkpt lat="44.3036457" lon="10.7201612"><ele>860.0</ele><time>2026-04-26T08:43:29.248Z</time></trkpt><trkpt lat="44.3035741" lon="10.720013"><ele>862.0</ele><time>2026-04-26T08:43:30.232Z</time></trkpt><trkpt lat="44.3035027" lon="10.7198637"><ele>864.0</ele><time>2026-04-26T08:43:31.232Z</time></trkpt><trkpt lat="44.3034365" lon="10.7197064"><ele>866.0</ele><time>2026-04-26T08:43:32.237Z</time></trkpt><trkpt lat="44.303375" lon="10.7195534"><ele>866.1999999999999</ele><time>2026-04-26T08:43:33.232Z</time></trkpt><trkpt lat="44.3033536" lon="10.7193875"><ele>866.3999999999999</ele><time>2026-04-26T08:43:34.233Z</time></trkpt><trkpt lat="44.3033454" lon="10.7192542"><ele>866.6</ele><time>2026-04-26T08:43:35.238Z</time></trkpt><trkpt lat="44.3033527" lon="10.7191297"><ele>866.8</ele><time>2026-04-26T08:43:36.234Z</time></trkpt><trkpt lat="44.3033432" lon="10.7190162"><ele>867.0</ele><time>2026-04-26T08:43:37.238Z</time></trkpt><trkpt lat="44.3032796" lon="10.718901"><ele>867.0</ele><time>2026-04-26T08:43:39.233Z</time></trkpt><trkpt lat="44.3031808" lon="10.7189717"><ele>867.0</ele><time>2026-04-26T08:43:41.241Z</time></trkpt><trkpt lat="44.3031698" lon="10.7190662"><ele>867.0</ele><time>2026-04-26T08:43:42.236Z</time></trkpt><trkpt lat="44.3031775" lon="10.7191879"><ele>867.0</ele><time>2026-04-26T08:43:43.24Z</time></trkpt><trkpt lat="44.3031954" lon="10.7193208"><ele>867.0</ele><time>2026-04-26T08:43:44.233Z</time></trkpt><trkpt lat="44.3032108" lon="10.7194335"><ele>867.0</ele><time>2026-04-26T08:43:45.245Z</time></trkpt><trkpt lat="44.3032217" lon="10.7195282"><ele>866.8</ele><time>2026-04-26T08:43:46.232Z</time></trkpt><trkpt lat="44.3031987" lon="10.7196729"><ele>866.6</ele><time>2026-04-26T08:43:48.232Z</time></trkpt><trkpt lat="44.3031223" lon="10.7196587"><ele>866.3999999999999</ele><time>2026-04-26T08:43:50.234Z</time></trkpt><trkpt lat="44.3030837" lon="10.7194753"><ele>866.1999999999999</ele><time>2026-04-26T08:43:52.239Z</time></trkpt><trkpt lat="44.3030593" lon="10.7193278"><ele>866.0</ele><time>2026-04-26T08:43:53.235Z</time></trkpt><trkpt lat="44.3030229" lon="10.7191555"><ele>871.5</ele><time>2026-04-26T08:43:54.233Z</time></trkpt><trkpt lat="44.3029705" lon="10.7189851"><ele>877.0</ele><time>2026-04-26T08:43:55.239Z</time></trkpt><trkpt lat="44.3029031" lon="10.7188228"><ele>882.5</ele><time>2026-04-26T08:43:56.24Z</time></trkpt><trkpt lat="44.3028217" lon="10.7186554"><ele>888.0</ele><time>2026-04-26T08:43:57.235Z</time></trkpt><trkpt lat="44.3027441" lon="10.7184922"><ele>888.0</ele><time>2026-04-26T08:43:58.24Z</time></trkpt><trkpt lat="44.3026843" lon="10.718329"><ele>888.0</ele><time>2026-04-26T08:43:59.237Z</time></trkpt><trkpt lat="44.3026399" lon="10.7181589"><ele>888.0</ele><time>2026-04-26T08:44:00.253Z</time></trkpt><trkpt lat="44.3026061" lon="10.7179929"><ele>888.0</ele><time>2026-04-26T08:44:01.235Z</time></trkpt><trkpt lat="44.3025785" lon="10.7178333"><ele>887.2</ele><time>2026-04-26T08:44:02.231Z</time></trkpt><trkpt lat="44.3025542" lon="10.7176744"><ele>886.4</ele><time>2026-04-26T08:44:03.232Z</time></trkpt><trkpt lat="44.3025264" lon="10.7175185"><ele>885.6000000000001</ele><time>2026-04-26T08:44:04.24Z</time></trkpt><trkpt lat="44.3024935" lon="10.7173744"><ele>884.8000000000001</ele><time>2026-04-26T08:44:05.235Z</time></trkpt><trkpt lat="44.3024603" lon="10.717243"><ele>884.0</ele><time>2026-04-26T08:44:06.229Z</time></trkpt><trkpt lat="44.3023815" lon="10.7171454"><ele>884.0</ele><time>2026-04-26T08:44:07.231Z</time></trkpt><trkpt lat="44.3022929" lon="10.7170811"><ele>884.0</ele><time>2026-04-26T08:44:08.232Z</time></trkpt><trkpt lat="44.3021847" lon="10.7170735"><ele>884.0</ele><time>2026-04-26T08:44:09.281Z</time></trkpt><trkpt lat="44.302062" lon="10.7170611"><ele>884.0</ele><time>2026-04-26T08:44:10.232Z</time></trkpt><trkpt lat="44.3018881" lon="10.7170861"><ele>891.3333333333334</ele><time>2026-04-26T08:44:11.231Z</time></trkpt><trkpt lat="44.3016975" lon="10.7170956"><ele>898.6666666666667</ele><time>2026-04-26T08:44:12.23Z</time></trkpt><trkpt lat="44.3014989" lon="10.7170681"><ele>906.0</ele><time>2026-04-26T08:44:13.232Z</time></trkpt><trkpt lat="44.3012989" lon="10.7170365"><ele>907.5</ele><time>2026-04-26T08:44:14.264Z</time></trkpt><trkpt lat="44.3011487" lon="10.7169859"><ele>909.0</ele><time>2026-04-26T08:44:15.227Z</time></trkpt><trkpt lat="44.3010184" lon="10.7168881"><ele>910.5</ele><time>2026-04-26T08:44:16.232Z</time></trkpt><trkpt lat="44.3008903" lon="10.7167872"><ele>912.0</ele><time>2026-04-26T08:44:17.233Z</time></trkpt><trkpt lat="44.3007775" lon="10.7166139"><ele>907.6666666666667</ele><time>2026-04-26T08:44:18.225Z</time></trkpt><trkpt lat="44.3006809" lon="10.7164097"><ele>903.3333333333334</ele><time>2026-04-26T08:44:19.228Z</time></trkpt><trkpt lat="44.3005894" lon="10.7161981"><ele>899.0</ele><time>2026-04-26T08:44:20.228Z</time></trkpt><trkpt lat="44.3005112" lon="10.7159546"><ele>899.0</ele><time>2026-04-26T08:44:21.232Z</time></trkpt><trkpt lat="44.3004437" lon="10.7156898"><ele>899.0</ele><time>2026-04-26T08:44:22.228Z</time></trkpt><trkpt lat="44.3003811" lon="10.7154442"><ele>899.0</ele><time>2026-04-26T08:44:23.232Z</time></trkpt><trkpt lat="44.300313" lon="10.7152249"><ele>898.6666666666667</ele><time>2026-04-26T08:44:24.246Z</time></trkpt><trkpt lat="44.3002221" lon="10.7150358"><ele>898.3333333333333</ele><time>2026-04-26T08:44:25.231Z</time></trkpt><trkpt lat="44.3001197" lon="10.7148682"><ele>898.0</ele><time>2026-04-26T08:44:26.235Z</time></trkpt><trkpt lat="44.2999918" lon="10.7147048"><ele>898.0</ele><time>2026-04-26T08:44:27.233Z</time></trkpt><trkpt lat="44.2998718" lon="10.7145415"><ele>898.0</ele><time>2026-04-26T08:44:28.235Z</time></trkpt><trkpt lat="44.2997454" lon="10.7143762"><ele>898.0</ele><time>2026-04-26T08:44:29.232Z</time></trkpt><trkpt lat="44.2996133" lon="10.7142118"><ele>897.3333333333333</ele><time>2026-04-26T08:44:30.252Z</time></trkpt><trkpt lat="44.2994838" lon="10.714043"><ele>896.6666666666667</ele><time>2026-04-26T08:44:31.237Z</time></trkpt><trkpt lat="44.2993638" lon="10.7138827"><ele>896.0</ele><time>2026-04-26T08:44:32.236Z</time></trkpt><trkpt lat="44.2992547" lon="10.7137401"><ele>896.0</ele><time>2026-04-26T08:44:33.232Z</time></trkpt><trkpt lat="44.2991877" lon="10.7136031"><ele>896.0</ele><time>2026-04-26T08:44:34.235Z</time></trkpt><trkpt lat="44.2991628" lon="10.7134481"><ele>896.0</ele><time>2026-04-26T08:44:35.235Z</time></trkpt><trkpt lat="44.2991488" lon="10.7132677"><ele>896.0</ele><time>2026-04-26T08:44:36.237Z</time></trkpt><trkpt lat="44.2990951" lon="10.7130831"><ele>900.3333333333334</ele><time>2026-04-26T08:44:37.229Z</time></trkpt><trkpt lat="44.2990226" lon="10.7129019"><ele>904.6666666666667</ele><time>2026-04-26T08:44:38.239Z</time></trkpt><trkpt lat="44.2989118" lon="10.7127308"><ele>909.0</ele><time>2026-04-26T08:44:39.233Z</time></trkpt><trkpt lat="44.2987629" lon="10.7125646"><ele>910.0</ele><time>2026-04-26T08:44:40.232Z</time></trkpt><trkpt lat="44.2986041" lon="10.7124181"><ele>911.0</ele><time>2026-04-26T08:44:41.23Z</time></trkpt><trkpt lat="44.2984402" lon="10.7122839"><ele>912.0</ele><time>2026-04-26T08:44:42.23Z</time></trkpt><trkpt lat="44.2982994" lon="10.7121469"><ele>912.0</ele><time>2026-04-26T08:44:43.251Z</time></trkpt><trkpt lat="44.2981637" lon="10.7119844"><ele>912.0</ele><time>2026-04-26T08:44:44.237Z</time></trkpt><trkpt lat="44.2980281" lon="10.7118075"><ele>912.0</ele><time>2026-04-26T08:44:45.234Z</time></trkpt><trkpt lat="44.2978833" lon="10.7116255"><ele>912.3333333333333</ele><time>2026-04-26T08:44:46.235Z</time></trkpt><trkpt lat="44.2977164" lon="10.7114765"><ele>912.6666666666666</ele><time>2026-04-26T08:44:47.243Z</time></trkpt><trkpt lat="44.2975576" lon="10.711319"><ele>913.0</ele><time>2026-04-26T08:44:48.235Z</time></trkpt><trkpt lat="44.297395" lon="10.7111765"><ele>917.3333333333333</ele><time>2026-04-26T08:44:49.256Z</time></trkpt><trkpt lat="44.2972416" lon="10.7110501"><ele>921.6666666666667</ele><time>2026-04-26T08:44:50.236Z</time></trkpt><trkpt lat="44.2970864" lon="10.7109424"><ele>926.0</ele><time>2026-04-26T08:44:51.235Z</time></trkpt><trkpt lat="44.2969373" lon="10.7108476"><ele>926.0</ele><time>2026-04-26T08:44:52.233Z</time></trkpt><trkpt lat="44.2967995" lon="10.7107703"><ele>926.0</ele><time>2026-04-26T08:44:53.232Z</time></trkpt><trkpt lat="44.2966716" lon="10.7107154"><ele>926.0</ele><time>2026-04-26T08:44:54.233Z</time></trkpt><trkpt lat="44.2965525" lon="10.7106594"><ele>926.0</ele><time>2026-04-26T08:44:55.232Z</time></trkpt><trkpt lat="44.2964219" lon="10.7106352"><ele>926.25</ele><time>2026-04-26T08:44:56.231Z</time></trkpt><trkpt lat="44.2962864" lon="10.7106372"><ele>926.5</ele><time>2026-04-26T08:44:57.239Z</time></trkpt><trkpt lat="44.2961427" lon="10.7106496"><ele>926.75</ele><time>2026-04-26T08:44:58.234Z</time></trkpt><trkpt lat="44.2960008" lon="10.7106495"><ele>927.0</ele><time>2026-04-26T08:44:59.252Z</time></trkpt><trkpt lat="44.2958549" lon="10.7106013"><ele>927.0</ele><time>2026-04-26T08:45:00.236Z</time></trkpt><trkpt lat="44.2957089" lon="10.7105293"><ele>927.0</ele><time>2026-04-26T08:45:01.237Z</time></trkpt><trkpt lat="44.2955703" lon="10.7104245"><ele>927.0</ele><time>2026-04-26T08:45:02.233Z</time></trkpt><trkpt lat="44.295436" lon="10.7103151"><ele>928.6666666666667</ele><time>2026-04-26T08:45:03.231Z</time></trkpt><trkpt lat="44.2953094" lon="10.7101857"><ele>930.3333333333334</ele><time>2026-04-26T08:45:04.264Z</time></trkpt><trkpt lat="44.2951841" lon="10.7100575"><ele>932.0</ele><time>2026-04-26T08:45:05.243Z</time></trkpt><trkpt lat="44.2950883" lon="10.7098985"><ele>932.0</ele><time>2026-04-26T08:45:06.232Z</time></trkpt><trkpt lat="44.2950024" lon="10.7097334"><ele>932.0</ele><time>2026-04-26T08:45:07.234Z</time></trkpt><trkpt lat="44.2949201" lon="10.7095957"><ele>932.0</ele><time>2026-04-26T08:45:08.239Z</time></trkpt><trkpt lat="44.2948164" lon="10.7094957"><ele>932.0</ele><time>2026-04-26T08:45:09.239Z</time></trkpt><trkpt lat="44.2946946" lon="10.7094492"><ele>931.0</ele><time>2026-04-26T08:45:10.233Z</time></trkpt><trkpt lat="44.2945655" lon="10.7094206"><ele>930.0</ele><time>2026-04-26T08:45:11.233Z</time></trkpt><trkpt lat="44.2944024" lon="10.7093938"><ele>929.0</ele><time>2026-04-26T08:45:12.226Z</time></trkpt><trkpt lat="44.2942365" lon="10.7093462"><ele>932.6666666666667</ele><time>2026-04-26T08:45:13.239Z</time></trkpt><trkpt lat="44.2940701" lon="10.7092835"><ele>936.3333333333333</ele><time>2026-04-26T08:45:14.231Z</time></trkpt><trkpt lat="44.2939101" lon="10.7091926"><ele>940.0</ele><time>2026-04-26T08:45:15.237Z</time></trkpt><trkpt lat="44.2937539" lon="10.7090918"><ele>940.0</ele><time>2026-04-26T08:45:16.232Z</time></trkpt><trkpt lat="44.2936073" lon="10.7089936"><ele>940.0</ele><time>2026-04-26T08:45:17.235Z</time></trkpt><trkpt lat="44.2934555" lon="10.7089049"><ele>940.0</ele><time>2026-04-26T08:45:18.245Z</time></trkpt><trkpt lat="44.2933042" lon="10.7088219"><ele>940.0</ele><time>2026-04-26T08:45:19.235Z</time></trkpt><trkpt lat="44.293151" lon="10.7087478"><ele>940.0</ele><time>2026-04-26T08:45:20.233Z</time></trkpt><trkpt lat="44.2929996" lon="10.7086757"><ele>940.0</ele><time>2026-04-26T08:45:21.232Z</time></trkpt><trkpt lat="44.2928489" lon="10.7086083"><ele>942.6666666666666</ele><time>2026-04-26T08:45:22.237Z</time></trkpt><trkpt lat="44.2926984" lon="10.7085424"><ele>945.3333333333333</ele><time>2026-04-26T08:45:23.23Z</time></trkpt><trkpt lat="44.2925461" lon="10.708483"><ele>948.0</ele><time>2026-04-26T08:45:24.228Z</time></trkpt><trkpt lat="44.292408" lon="10.7084098"><ele>948.0</ele><time>2026-04-26T08:45:25.23Z</time></trkpt><trkpt lat="44.2922905" lon="10.7082963"><ele>948.0</ele><time>2026-04-26T08:45:26.226Z</time></trkpt><trkpt lat="44.2921849" lon="10.7081547"><ele>948.0</ele><time>2026-04-26T08:45:27.232Z</time></trkpt><trkpt lat="44.2920785" lon="10.708008"><ele>948.0</ele><time>2026-04-26T08:45:28.235Z</time></trkpt><trkpt lat="44.2919989" lon="10.7078148"><ele>950.6666666666667</ele><time>2026-04-26T08:45:29.233Z</time></trkpt><trkpt lat="44.2918944" lon="10.7076248"><ele>953.3333333333334</ele><time>2026-04-26T08:45:30.247Z</time></trkpt><trkpt lat="44.2917706" lon="10.7074469"><ele>956.0</ele><time>2026-04-26T08:45:31.232Z</time></trkpt><trkpt lat="44.2916257" lon="10.7072815"><ele>956.0</ele><time>2026-04-26T08:45:32.229Z</time></trkpt><trkpt lat="44.2914966" lon="10.7070985"><ele>956.0</ele><time>2026-04-26T08:45:33.238Z</time></trkpt><trkpt lat="44.2913783" lon="10.7069116"><ele>956.0</ele><time>2026-04-26T08:45:34.235Z</time></trkpt><trkpt lat="44.2912558" lon="10.7067434"><ele>959.0</ele><time>2026-04-26T08:45:35.252Z</time></trkpt><trkpt lat="44.2911219" lon="10.7066126"><ele>962.0</ele><time>2026-04-26T08:45:36.236Z</time></trkpt><trkpt lat="44.2909751" lon="10.7065258"><ele>965.0</ele><time>2026-04-26T08:45:37.231Z</time></trkpt><trkpt lat="44.2908132" lon="10.7064849"><ele>965.0</ele><time>2026-04-26T08:45:38.236Z</time></trkpt><trkpt lat="44.2906452" lon="10.7064626"><ele>965.0</ele><time>2026-04-26T08:45:39.232Z</time></trkpt><trkpt lat="44.2904659" lon="10.7064495"><ele>965.0</ele><time>2026-04-26T08:45:40.23Z</time></trkpt><trkpt lat="44.2902835" lon="10.7064352"><ele>966.0</ele><time>2026-04-26T08:45:41.234Z</time></trkpt><trkpt lat="44.2901032" lon="10.7064233"><ele>967.0</ele><time>2026-04-26T08:45:42.234Z</time></trkpt><trkpt lat="44.2899218" lon="10.7064189"><ele>968.0</ele><time>2026-04-26T08:45:43.232Z</time></trkpt><trkpt lat="44.2897433" lon="10.7064262"><ele>970.6666666666667</ele><time>2026-04-26T08:45:44.232Z</time></trkpt><trkpt lat="44.2895656" lon="10.7064478"><ele>973.3333333333333</ele><time>2026-04-26T08:45:45.228Z</time></trkpt><trkpt lat="44.2893916" lon="10.7064823"><ele>976.0</ele><time>2026-04-26T08:45:46.254Z</time></trkpt><trkpt lat="44.2892264" lon="10.7065206"><ele>976.0</ele><time>2026-04-26T08:45:47.231Z</time></trkpt><trkpt lat="44.2890722" lon="10.7065568"><ele>976.0</ele><time>2026-04-26T08:45:48.233Z</time></trkpt><trkpt lat="44.288917" lon="10.7065991"><ele>976.0</ele><time>2026-04-26T08:45:49.234Z</time></trkpt><trkpt lat="44.2887639" lon="10.7066575"><ele>979.3333333333333</ele><time>2026-04-26T08:45:50.238Z</time></trkpt><trkpt lat="44.2886027" lon="10.7067276"><ele>982.6666666666667</ele><time>2026-04-26T08:45:51.237Z</time></trkpt><trkpt lat="44.2884508" lon="10.7068052"><ele>986.0</ele><time>2026-04-26T08:45:52.236Z</time></trkpt><trkpt lat="44.2882997" lon="10.7068931"><ele>984.25</ele><time>2026-04-26T08:45:53.251Z</time></trkpt><trkpt lat="44.2881511" lon="10.7069411"><ele>982.5</ele><time>2026-04-26T08:45:54.24Z</time></trkpt><trkpt lat="44.2880062" lon="10.7069601"><ele>980.75</ele><time>2026-04-26T08:45:55.235Z</time></trkpt><trkpt lat="44.2878812" lon="10.7069448"><ele>979.0</ele><time>2026-04-26T08:45:56.232Z</time></trkpt><trkpt lat="44.287752" lon="10.7068559"><ele>979.0</ele><time>2026-04-26T08:45:57.245Z</time></trkpt><trkpt lat="44.2876206" lon="10.7067371"><ele>979.0</ele><time>2026-04-26T08:45:58.242Z</time></trkpt><trkpt lat="44.287498" lon="10.7066001"><ele>979.0</ele><time>2026-04-26T08:45:59.237Z</time></trkpt><trkpt lat="44.2874265" lon="10.7064625"><ele>979.0</ele><time>2026-04-26T08:46:00.247Z</time></trkpt><trkpt lat="44.2874032" lon="10.7063149"><ele>979.0</ele><time>2026-04-26T08:46:01.231Z</time></trkpt><trkpt lat="44.2874131" lon="10.7061457"><ele>979.0</ele><time>2026-04-26T08:46:02.235Z</time></trkpt><trkpt lat="44.2873963" lon="10.7059681"><ele>979.0</ele><time>2026-04-26T08:46:03.23Z</time></trkpt><trkpt lat="44.2873349" lon="10.7058044"><ele>979.0</ele><time>2026-04-26T08:46:04.236Z</time></trkpt><trkpt lat="44.2872321" lon="10.7056545"><ele>982.3333333333333</ele><time>2026-04-26T08:46:05.234Z</time></trkpt><trkpt lat="44.2870908" lon="10.7055321"><ele>985.6666666666667</ele><time>2026-04-26T08:46:06.232Z</time></trkpt><trkpt lat="44.2869208" lon="10.7054393"><ele>989.0</ele><time>2026-04-26T08:46:07.245Z</time></trkpt><trkpt lat="44.2867367" lon="10.7053803"><ele>989.0</ele><time>2026-04-26T08:46:08.232Z</time></trkpt><trkpt lat="44.2865669" lon="10.7053376"><ele>989.0</ele><time>2026-04-26T08:46:09.231Z</time></trkpt><trkpt lat="44.2864291" lon="10.705317"><ele>989.0</ele><time>2026-04-26T08:46:10.231Z</time></trkpt><trkpt lat="44.2863191" lon="10.7052892"><ele>989.0</ele><time>2026-04-26T08:46:11.229Z</time></trkpt><trkpt lat="44.2862181" lon="10.7052252"><ele>988.0</ele><time>2026-04-26T08:46:12.234Z</time></trkpt><trkpt lat="44.2861802" lon="10.7050627"><ele>987.0</ele><time>2026-04-26T08:46:13.248Z</time></trkpt><trkpt lat="44.2861795" lon="10.704848"><ele>986.0</ele><time>2026-04-26T08:46:14.235Z</time></trkpt><trkpt lat="44.286225" lon="10.7046369"><ele>985.0</ele><time>2026-04-26T08:46:15.235Z</time></trkpt><trkpt lat="44.2862768" lon="10.7044151"><ele>985.6666666666666</ele><time>2026-04-26T08:46:16.235Z</time></trkpt><trkpt lat="44.286392" lon="10.7042283"><ele>986.3333333333333</ele><time>2026-04-26T08:46:17.232Z</time></trkpt><trkpt lat="44.2864616" lon="10.7040182"><ele>987.0</ele><time>2026-04-26T08:46:18.232Z</time></trkpt><trkpt lat="44.2864784" lon="10.7038031"><ele>994.0</ele><time>2026-04-26T08:46:19.227Z</time></trkpt><trkpt lat="44.2864917" lon="10.7036066"><ele>1001.0</ele><time>2026-04-26T08:46:20.226Z</time></trkpt><trkpt lat="44.2865054" lon="10.7034092"><ele>1008.0</ele><time>2026-04-26T08:46:21.248Z</time></trkpt><trkpt lat="44.2865709" lon="10.7032064"><ele>1015.0</ele><time>2026-04-26T08:46:22.229Z</time></trkpt><trkpt lat="44.2866507" lon="10.7029883"><ele>1013.6666666666666</ele><time>2026-04-26T08:46:23.227Z</time></trkpt><trkpt lat="44.2867707" lon="10.7027281"><ele>1012.3333333333333</ele><time>2026-04-26T08:46:24.232Z</time></trkpt><trkpt lat="44.286857" lon="10.7024723"><ele>1011.0</ele><time>2026-04-26T08:46:25.228Z</time></trkpt><trkpt lat="44.286914" lon="10.7022128"><ele>1011.0</ele><time>2026-04-26T08:46:26.247Z</time></trkpt><trkpt lat="44.2869566" lon="10.7019525"><ele>1011.0</ele><time>2026-04-26T08:46:27.231Z</time></trkpt><trkpt lat="44.2869938" lon="10.7016917"><ele>1011.0</ele><time>2026-04-26T08:46:28.236Z</time></trkpt><trkpt lat="44.2870209" lon="10.7014423"><ele>1012.3333333333333</ele><time>2026-04-26T08:46:29.228Z</time></trkpt><trkpt lat="44.2870265" lon="10.701219"><ele>1013.6666666666666</ele><time>2026-04-26T08:46:30.227Z</time></trkpt><trkpt lat="44.2870149" lon="10.7010088"><ele>1015.0</ele><time>2026-04-26T08:46:31.227Z</time></trkpt><trkpt lat="44.2869985" lon="10.7008069"><ele>1017.3333333333333</ele><time>2026-04-26T08:46:32.228Z</time></trkpt><trkpt lat="44.2869027" lon="10.7006043"><ele>1019.6666666666667</ele><time>2026-04-26T08:46:33.232Z</time></trkpt><trkpt lat="44.2868052" lon="10.7004448"><ele>1022.0</ele><time>2026-04-26T08:46:34.235Z</time></trkpt><trkpt lat="44.2866961" lon="10.700312"><ele>1022.0</ele><time>2026-04-26T08:46:35.232Z</time></trkpt><trkpt lat="44.2865625" lon="10.700252"><ele>1022.0</ele><time>2026-04-26T08:46:36.229Z</time></trkpt><trkpt lat="44.2864332" lon="10.7002626"><ele>1022.0</ele><time>2026-04-26T08:46:37.233Z</time></trkpt><trkpt lat="44.2862933" lon="10.7003018"><ele>1022.0</ele><time>2026-04-26T08:46:38.229Z</time></trkpt><trkpt lat="44.2861397" lon="10.7003765"><ele>1021.5</ele><time>2026-04-26T08:46:39.247Z</time></trkpt><trkpt lat="44.2860068" lon="10.7004156"><ele>1021.0</ele><time>2026-04-26T08:46:40.232Z</time></trkpt><trkpt lat="44.2858706" lon="10.700404"><ele>1020.5</ele><time>2026-04-26T08:46:41.228Z</time></trkpt><trkpt lat="44.2857519" lon="10.7002769"><ele>1020.0</ele><time>2026-04-26T08:46:42.228Z</time></trkpt><trkpt lat="44.2856467" lon="10.7001115"><ele>1019.6666666666667</ele><time>2026-04-26T08:46:43.227Z</time></trkpt><trkpt lat="44.2855724" lon="10.6998859"><ele>1019.3333333333334</ele><time>2026-04-26T08:46:44.234Z</time></trkpt><trkpt lat="44.285492" lon="10.6996297"><ele>1019.0</ele><time>2026-04-26T08:46:45.236Z</time></trkpt><trkpt lat="44.2854044" lon="10.6994096"><ele>1023.3333333333334</ele><time>2026-04-26T08:46:46.244Z</time></trkpt><trkpt lat="44.285321" lon="10.6992249"><ele>1027.6666666666667</ele><time>2026-04-26T08:46:47.235Z</time></trkpt><trkpt lat="44.2852961" lon="10.6990318"><ele>1032.0</ele><time>2026-04-26T08:46:48.233Z</time></trkpt><trkpt lat="44.2852982" lon="10.6988074"><ele>1033.3333333333333</ele><time>2026-04-26T08:46:49.233Z</time></trkpt><trkpt lat="44.2852906" lon="10.6985656"><ele>1034.6666666666665</ele><time>2026-04-26T08:46:50.237Z</time></trkpt><trkpt lat="44.2852913" lon="10.698293"><ele>1036.0</ele><time>2026-04-26T08:46:51.232Z</time></trkpt><trkpt lat="44.2853058" lon="10.6980227"><ele>1036.0</ele><time>2026-04-26T08:46:52.247Z</time></trkpt><trkpt lat="44.2853247" lon="10.6977787"><ele>1036.0</ele><time>2026-04-26T08:46:53.228Z</time></trkpt><trkpt lat="44.2853535" lon="10.6975705"><ele>1036.0</ele><time>2026-04-26T08:46:54.227Z</time></trkpt><trkpt lat="44.2853748" lon="10.6973836"><ele>1037.75</ele><time>2026-04-26T08:46:55.231Z</time></trkpt><trkpt lat="44.2853831" lon="10.697201"><ele>1039.5</ele><time>2026-04-26T08:46:56.238Z</time></trkpt><trkpt lat="44.2853333" lon="10.697032"><ele>1041.25</ele><time>2026-04-26T08:46:57.236Z</time></trkpt><trkpt lat="44.2852523" lon="10.6969033"><ele>1043.0</ele><time>2026-04-26T08:46:58.249Z</time></trkpt><trkpt lat="44.2851426" lon="10.6968131"><ele>1045.0</ele><time>2026-04-26T08:46:59.24Z</time></trkpt><trkpt lat="44.2850137" lon="10.6967096"><ele>1047.0</ele><time>2026-04-26T08:47:00.235Z</time></trkpt><trkpt lat="44.2848855" lon="10.6965704"><ele>1049.0</ele><time>2026-04-26T08:47:01.237Z</time></trkpt><trkpt lat="44.2847601" lon="10.6964304"><ele>1049.0</ele><time>2026-04-26T08:47:02.239Z</time></trkpt><trkpt lat="44.2846361" lon="10.6962859"><ele>1049.0</ele><time>2026-04-26T08:47:03.252Z</time></trkpt><trkpt lat="44.2844869" lon="10.6962059"><ele>1049.0</ele><time>2026-04-26T08:47:04.233Z</time></trkpt><trkpt lat="44.2843311" lon="10.6961426"><ele>1052.3333333333335</ele><time>2026-04-26T08:47:05.235Z</time></trkpt><trkpt lat="44.2841774" lon="10.6960609"><ele>1055.6666666666667</ele><time>2026-04-26T08:47:06.232Z</time></trkpt><trkpt lat="44.2840179" lon="10.6959753"><ele>1059.0</ele><time>2026-04-26T08:47:07.234Z</time></trkpt><trkpt lat="44.2838885" lon="10.695827"><ele>1059.0</ele><time>2026-04-26T08:47:08.236Z</time></trkpt><trkpt lat="44.2837769" lon="10.6956573"><ele>1059.0</ele><time>2026-04-26T08:47:09.233Z</time></trkpt><trkpt lat="44.2836573" lon="10.6954941"><ele>1059.0</ele><time>2026-04-26T08:47:10.253Z</time></trkpt><trkpt lat="44.2835284" lon="10.6953374"><ele>1058.6666666666667</ele><time>2026-04-26T08:47:11.226Z</time></trkpt><trkpt lat="44.2833721" lon="10.6952399"><ele>1058.3333333333335</ele><time>2026-04-26T08:47:12.237Z</time></trkpt><trkpt lat="44.2832188" lon="10.6951567"><ele>1058.0</ele><time>2026-04-26T08:47:13.235Z</time></trkpt><trkpt lat="44.2830736" lon="10.6950889"><ele>1058.0</ele><time>2026-04-26T08:47:14.234Z</time></trkpt><trkpt lat="44.2829677" lon="10.6950118"><ele>1058.0</ele><time>2026-04-26T08:47:15.252Z</time></trkpt><trkpt lat="44.2828539" lon="10.6949369"><ele>1058.0</ele><time>2026-04-26T08:47:16.229Z</time></trkpt><trkpt lat="44.2828" lon="10.694777"><ele>1058.0</ele><time>2026-04-26T08:47:17.237Z</time></trkpt><trkpt lat="44.2827576" lon="10.6946243"><ele>1058.0</ele><time>2026-04-26T08:47:18.234Z</time></trkpt><trkpt lat="44.2827677" lon="10.6944348"><ele>1058.0</ele><time>2026-04-26T08:47:19.235Z</time></trkpt><trkpt lat="44.2828221" lon="10.6942205"><ele>1058.0</ele><time>2026-04-26T08:47:20.236Z</time></trkpt><trkpt lat="44.2828879" lon="10.6940714"><ele>1058.0</ele><time>2026-04-26T08:47:21.235Z</time></trkpt><trkpt lat="44.2828909" lon="10.6938814"><ele>1061.5</ele><time>2026-04-26T08:47:22.23Z</time></trkpt><trkpt lat="44.2828808" lon="10.6936851"><ele>1065.0</ele><time>2026-04-26T08:47:23.229Z</time></trkpt><trkpt lat="44.2827876" lon="10.6935442"><ele>1068.5</ele><time>2026-04-26T08:47:24.245Z</time></trkpt><trkpt lat="44.2826645" lon="10.693424"><ele>1072.0</ele><time>2026-04-26T08:47:25.231Z</time></trkpt><trkpt lat="44.2825188" lon="10.6933083"><ele>1073.25</ele><time>2026-04-26T08:47:26.228Z</time></trkpt><trkpt lat="44.2823992" lon="10.6931903"><ele>1074.5</ele><time>2026-04-26T08:47:27.229Z</time></trkpt><trkpt lat="44.2822861" lon="10.6930783"><ele>1075.75</ele><time>2026-04-26T08:47:28.235Z</time></trkpt><trkpt lat="44.2822509" lon="10.6928963"><ele>1077.0</ele><time>2026-04-26T08:47:29.232Z</time></trkpt><trkpt lat="44.2822232" lon="10.6926957"><ele>1077.0</ele><time>2026-04-26T08:47:30.232Z</time></trkpt><trkpt lat="44.282253" lon="10.6925016"><ele>1077.0</ele><time>2026-04-26T08:47:31.229Z</time></trkpt><trkpt lat="44.2823519" lon="10.6922948"><ele>1077.0</ele><time>2026-04-26T08:47:32.238Z</time></trkpt><trkpt lat="44.2824806" lon="10.6921082"><ele>1083.0</ele><time>2026-04-26T08:47:33.226Z</time></trkpt><trkpt lat="44.2826039" lon="10.6919046"><ele>1089.0</ele><time>2026-04-26T08:47:34.23Z</time></trkpt><trkpt lat="44.2826855" lon="10.6916995"><ele>1095.0</ele><time>2026-04-26T08:47:35.231Z</time></trkpt><trkpt lat="44.282674" lon="10.691501"><ele>1095.0</ele><time>2026-04-26T08:47:36.233Z</time></trkpt><trkpt lat="44.2826679" lon="10.6912952"><ele>1095.0</ele><time>2026-04-26T08:47:37.23Z</time></trkpt><trkpt lat="44.2825942" lon="10.6911007"><ele>1095.0</ele><time>2026-04-26T08:47:38.226Z</time></trkpt><trkpt lat="44.2824977" lon="10.6908881"><ele>1094.6666666666667</ele><time>2026-04-26T08:47:39.225Z</time></trkpt><trkpt lat="44.2824" lon="10.6906779"><ele>1094.3333333333335</ele><time>2026-04-26T08:47:40.234Z</time></trkpt><trkpt lat="44.2823117" lon="10.69048"><ele>1094.0</ele><time>2026-04-26T08:47:41.229Z</time></trkpt><trkpt lat="44.282219" lon="10.6902836"><ele>1096.5</ele><time>2026-04-26T08:47:42.232Z</time></trkpt><trkpt lat="44.2821292" lon="10.6901129"><ele>1099.0</ele><time>2026-04-26T08:47:43.225Z</time></trkpt><trkpt lat="44.282031" lon="10.6899671"><ele>1101.5</ele><time>2026-04-26T08:47:44.254Z</time></trkpt><trkpt lat="44.2819293" lon="10.6898306"><ele>1104.0</ele><time>2026-04-26T08:47:45.226Z</time></trkpt><trkpt lat="44.2818224" lon="10.6897332"><ele>1104.0</ele><time>2026-04-26T08:47:46.235Z</time></trkpt><trkpt lat="44.2817" lon="10.6896568"><ele>1104.0</ele><time>2026-04-26T08:47:47.227Z</time></trkpt><trkpt lat="44.2815919" lon="10.6895547"><ele>1104.0</ele><time>2026-04-26T08:47:48.229Z</time></trkpt><trkpt lat="44.2814662" lon="10.6894721"><ele>1104.0</ele><time>2026-04-26T08:47:49.237Z</time></trkpt><trkpt lat="44.2813506" lon="10.6894164"><ele>1105.5</ele><time>2026-04-26T08:47:50.234Z</time></trkpt><trkpt lat="44.2812411" lon="10.6893751"><ele>1107.0</ele><time>2026-04-26T08:47:51.23Z</time></trkpt><trkpt lat="44.2811414" lon="10.6893374"><ele>1108.5</ele><time>2026-04-26T08:47:52.233Z</time></trkpt><trkpt lat="44.2810531" lon="10.6892466"><ele>1110.0</ele><time>2026-04-26T08:47:53.238Z</time></trkpt><trkpt lat="44.2809553" lon="10.689142"><ele>1110.0</ele><time>2026-04-26T08:47:54.231Z</time></trkpt><trkpt lat="44.2808532" lon="10.6889948"><ele>1110.0</ele><time>2026-04-26T08:47:55.227Z</time></trkpt><trkpt lat="44.2807312" lon="10.688851"><ele>1110.0</ele><time>2026-04-26T08:47:56.232Z</time></trkpt><trkpt lat="44.2806101" lon="10.6886917"><ele>1109.6666666666667</ele><time>2026-04-26T08:47:57.227Z</time></trkpt><trkpt lat="44.2804638" lon="10.6885233"><ele>1109.3333333333335</ele><time>2026-04-26T08:47:58.234Z</time></trkpt><trkpt lat="44.2802867" lon="10.6883492"><ele>1109.0</ele><time>2026-04-26T08:47:59.235Z</time></trkpt><trkpt lat="44.2801175" lon="10.6881445"><ele>1109.0</ele><time>2026-04-26T08:48:00.233Z</time></trkpt><trkpt lat="44.2799469" lon="10.687979"><ele>1109.0</ele><time>2026-04-26T08:48:01.235Z</time></trkpt><trkpt lat="44.2797817" lon="10.6878319"><ele>1109.0</ele><time>2026-04-26T08:48:02.227Z</time></trkpt><trkpt lat="44.2796557" lon="10.6876522"><ele>1109.6666666666667</ele><time>2026-04-26T08:48:03.242Z</time></trkpt><trkpt lat="44.2795483" lon="10.687484"><ele>1110.3333333333333</ele><time>2026-04-26T08:48:04.228Z</time></trkpt><trkpt lat="44.2794479" lon="10.6873118"><ele>1111.0</ele><time>2026-04-26T08:48:05.236Z</time></trkpt><trkpt lat="44.2793813" lon="10.6871061"><ele>1115.3333333333333</ele><time>2026-04-26T08:48:06.223Z</time></trkpt><trkpt lat="44.2793247" lon="10.6869091"><ele>1119.6666666666667</ele><time>2026-04-26T08:48:07.23Z</time></trkpt><trkpt lat="44.2792555" lon="10.6867251"><ele>1124.0</ele><time>2026-04-26T08:48:08.228Z</time></trkpt><trkpt lat="44.2791726" lon="10.6865348"><ele>1124.0</ele><time>2026-04-26T08:48:09.227Z</time></trkpt><trkpt lat="44.2791051" lon="10.6863083"><ele>1124.0</ele><time>2026-04-26T08:48:10.225Z</time></trkpt><trkpt lat="44.2790015" lon="10.6860948"><ele>1124.0</ele><time>2026-04-26T08:48:11.247Z</time></trkpt><trkpt lat="44.2788951" lon="10.6859124"><ele>1122.3333333333335</ele><time>2026-04-26T08:48:12.226Z</time></trkpt><trkpt lat="44.2787699" lon="10.6857541"><ele>1120.6666666666667</ele><time>2026-04-26T08:48:13.235Z</time></trkpt><trkpt lat="44.2786478" lon="10.6855802"><ele>1119.0</ele><time>2026-04-26T08:48:14.225Z</time></trkpt><trkpt lat="44.2785" lon="10.6854419"><ele>1119.0</ele><time>2026-04-26T08:48:15.225Z</time></trkpt><trkpt lat="44.2783604" lon="10.6853011"><ele>1119.0</ele><time>2026-04-26T08:48:16.228Z</time></trkpt><trkpt lat="44.2782175" lon="10.6851748"><ele>1119.0</ele><time>2026-04-26T08:48:17.228Z</time></trkpt><trkpt lat="44.2780642" lon="10.6850911"><ele>1124.0</ele><time>2026-04-26T08:48:18.23Z</time></trkpt><trkpt lat="44.2778998" lon="10.6850307"><ele>1129.0</ele><time>2026-04-26T08:48:19.23Z</time></trkpt><trkpt lat="44.2777213" lon="10.6850018"><ele>1134.0</ele><time>2026-04-26T08:48:20.245Z</time></trkpt><trkpt lat="44.2775346" lon="10.6849781"><ele>1134.0</ele><time>2026-04-26T08:48:21.232Z</time></trkpt><trkpt lat="44.277332" lon="10.6849869"><ele>1134.0</ele><time>2026-04-26T08:48:22.224Z</time></trkpt><trkpt lat="44.2771388" lon="10.6849981"><ele>1134.0</ele><time>2026-04-26T08:48:23.228Z</time></trkpt><trkpt lat="44.276943" lon="10.6850139"><ele>1135.0</ele><time>2026-04-26T08:48:24.228Z</time></trkpt><trkpt lat="44.2767551" lon="10.6850256"><ele>1136.0</ele><time>2026-04-26T08:48:25.232Z</time></trkpt><trkpt lat="44.2765671" lon="10.6850414"><ele>1137.0</ele><time>2026-04-26T08:48:26.23Z</time></trkpt><trkpt lat="44.2763807" lon="10.6850549"><ele>1139.6666666666667</ele><time>2026-04-26T08:48:27.225Z</time></trkpt><trkpt lat="44.2762048" lon="10.6850507"><ele>1142.3333333333335</ele><time>2026-04-26T08:48:28.228Z</time></trkpt><trkpt lat="44.2760331" lon="10.6850647"><ele>1145.0</ele><time>2026-04-26T08:48:29.23Z</time></trkpt><trkpt lat="44.2758659" lon="10.6850904"><ele>1145.0</ele><time>2026-04-26T08:48:30.23Z</time></trkpt><trkpt lat="44.2757021" lon="10.6851925"><ele>1145.0</ele><time>2026-04-26T08:48:31.228Z</time></trkpt><trkpt lat="44.2755428" lon="10.6852934"><ele>1145.0</ele><time>2026-04-26T08:48:32.228Z</time></trkpt><trkpt lat="44.2753881" lon="10.6853988"><ele>1139.25</ele><time>2026-04-26T08:48:33.23Z</time></trkpt><trkpt lat="44.2752528" lon="10.685462"><ele>1133.5</ele><time>2026-04-26T08:48:34.25Z</time></trkpt><trkpt lat="44.2751377" lon="10.6855354"><ele>1127.75</ele><time>2026-04-26T08:48:35.234Z</time></trkpt><trkpt lat="44.2750075" lon="10.685561"><ele>1122.0</ele><time>2026-04-26T08:48:36.228Z</time></trkpt><trkpt lat="44.2748507" lon="10.6855013"><ele>1119.6666666666667</ele><time>2026-04-26T08:48:37.229Z</time></trkpt><trkpt lat="44.2747072" lon="10.6854347"><ele>1117.3333333333335</ele><time>2026-04-26T08:48:38.23Z</time></trkpt><trkpt lat="44.2745283" lon="10.6853646"><ele>1115.0</ele><time>2026-04-26T08:48:39.251Z</time></trkpt><trkpt lat="44.2743554" lon="10.6853191"><ele>1119.6666666666667</ele><time>2026-04-26T08:48:40.228Z</time></trkpt><trkpt lat="44.2742017" lon="10.6852542"><ele>1124.3333333333333</ele><time>2026-04-26T08:48:41.228Z</time></trkpt><trkpt lat="44.2740264" lon="10.6852018"><ele>1129.0</ele><time>2026-04-26T08:48:42.231Z</time></trkpt><trkpt lat="44.2738716" lon="10.6851013"><ele>1129.0</ele><time>2026-04-26T08:48:43.228Z</time></trkpt><trkpt lat="44.2737275" lon="10.6849581"><ele>1129.0</ele><time>2026-04-26T08:48:44.242Z</time></trkpt><trkpt lat="44.2736055" lon="10.6848007"><ele>1129.0</ele><time>2026-04-26T08:48:45.232Z</time></trkpt><trkpt lat="44.2734587" lon="10.6847248"><ele>1129.0</ele><time>2026-04-26T08:48:46.234Z</time></trkpt><trkpt lat="44.2733022" lon="10.6846704"><ele>1129.0</ele><time>2026-04-26T08:48:47.229Z</time></trkpt><trkpt lat="44.2731269" lon="10.6846418"><ele>1129.0</ele><time>2026-04-26T08:48:48.236Z</time></trkpt><trkpt lat="44.2729392" lon="10.6845852"><ele>1127.0</ele><time>2026-04-26T08:48:49.236Z</time></trkpt><trkpt lat="44.2727753" lon="10.6845512"><ele>1125.0</ele><time>2026-04-26T08:48:50.237Z</time></trkpt><trkpt lat="44.2726152" lon="10.6845069"><ele>1123.0</ele><time>2026-04-26T08:48:51.234Z</time></trkpt><trkpt lat="44.272457" lon="10.6844748"><ele>1126.5</ele><time>2026-04-26T08:48:52.248Z</time></trkpt><trkpt lat="44.2723268" lon="10.6843974"><ele>1130.0</ele><time>2026-04-26T08:48:53.231Z</time></trkpt><trkpt lat="44.2722412" lon="10.6842603"><ele>1133.5</ele><time>2026-04-26T08:48:54.233Z</time></trkpt><trkpt lat="44.272213" lon="10.6840665"><ele>1137.0</ele><time>2026-04-26T08:48:55.229Z</time></trkpt><trkpt lat="44.2722263" lon="10.6838187"><ele>1139.6666666666667</ele><time>2026-04-26T08:48:56.234Z</time></trkpt><trkpt lat="44.2722554" lon="10.6835668"><ele>1142.3333333333335</ele><time>2026-04-26T08:48:57.251Z</time></trkpt><trkpt lat="44.2723258" lon="10.6833001"><ele>1145.0</ele><time>2026-04-26T08:48:58.231Z</time></trkpt><trkpt lat="44.2724011" lon="10.6830892"><ele>1145.0</ele><time>2026-04-26T08:48:59.232Z</time></trkpt><trkpt lat="44.2724241" lon="10.6828527"><ele>1145.0</ele><time>2026-04-26T08:49:00.234Z</time></trkpt><trkpt lat="44.2724351" lon="10.6826287"><ele>1145.0</ele><time>2026-04-26T08:49:01.238Z</time></trkpt><trkpt lat="44.2723811" lon="10.6823747"><ele>1146.6666666666667</ele><time>2026-04-26T08:49:02.238Z</time></trkpt><trkpt lat="44.2723154" lon="10.6821097"><ele>1148.3333333333333</ele><time>2026-04-26T08:49:03.232Z</time></trkpt><trkpt lat="44.2722607" lon="10.6818513"><ele>1150.0</ele><time>2026-04-26T08:49:04.232Z</time></trkpt><trkpt lat="44.2722084" lon="10.6816048"><ele>1147.6666666666665</ele><time>2026-04-26T08:49:05.235Z</time></trkpt><trkpt lat="44.2721541" lon="10.6813668"><ele>1145.3333333333333</ele><time>2026-04-26T08:49:06.231Z</time></trkpt><trkpt lat="44.2720887" lon="10.6811335"><ele>1143.0</ele><time>2026-04-26T08:49:07.228Z</time></trkpt><trkpt lat="44.2720157" lon="10.6809216"><ele>1143.0</ele><time>2026-04-26T08:49:08.231Z</time></trkpt><trkpt lat="44.2719444" lon="10.6807289"><ele>1143.0</ele><time>2026-04-26T08:49:09.231Z</time></trkpt><trkpt lat="44.2718767" lon="10.6805533"><ele>1143.0</ele><time>2026-04-26T08:49:10.232Z</time></trkpt><trkpt lat="44.2718119" lon="10.6803832"><ele>1143.0</ele><time>2026-04-26T08:49:11.232Z</time></trkpt><trkpt lat="44.2717549" lon="10.6802086"><ele>1145.6666666666667</ele><time>2026-04-26T08:49:12.231Z</time></trkpt><trkpt lat="44.2717094" lon="10.6800198"><ele>1148.3333333333335</ele><time>2026-04-26T08:49:13.232Z</time></trkpt><trkpt lat="44.2716596" lon="10.6798196"><ele>1151.0</ele><time>2026-04-26T08:49:14.259Z</time></trkpt><trkpt lat="44.2716529" lon="10.6796013"><ele>1152.6666666666667</ele><time>2026-04-26T08:49:15.238Z</time></trkpt><trkpt lat="44.27165" lon="10.6793657"><ele>1154.3333333333333</ele><time>2026-04-26T08:49:16.23Z</time></trkpt><trkpt lat="44.271653" lon="10.6791124"><ele>1156.0</ele><time>2026-04-26T08:49:17.236Z</time></trkpt><trkpt lat="44.271657" lon="10.6788487"><ele>1156.6666666666665</ele><time>2026-04-26T08:49:18.234Z</time></trkpt><trkpt lat="44.2716687" lon="10.6785742"><ele>1157.3333333333333</ele><time>2026-04-26T08:49:19.233Z</time></trkpt><trkpt lat="44.2716676" lon="10.6782818"><ele>1158.0</ele><time>2026-04-26T08:49:20.245Z</time></trkpt><trkpt lat="44.2716583" lon="10.6779972"><ele>1157.6666666666667</ele><time>2026-04-26T08:49:21.227Z</time></trkpt><trkpt lat="44.271645" lon="10.6777276"><ele>1157.3333333333335</ele><time>2026-04-26T08:49:22.232Z</time></trkpt><trkpt lat="44.2716348" lon="10.6774873"><ele>1157.0</ele><time>2026-04-26T08:49:23.228Z</time></trkpt><trkpt lat="44.2716384" lon="10.6772632"><ele>1157.0</ele><time>2026-04-26T08:49:24.232Z</time></trkpt><trkpt lat="44.2716444" lon="10.6770381"><ele>1157.0</ele><time>2026-04-26T08:49:25.236Z</time></trkpt><trkpt lat="44.2717032" lon="10.6768079"><ele>1157.0</ele><time>2026-04-26T08:49:26.235Z</time></trkpt><trkpt lat="44.2717731" lon="10.6765675"><ele>1156.3333333333335</ele><time>2026-04-26T08:49:27.228Z</time></trkpt><trkpt lat="44.2718581" lon="10.676326"><ele>1155.6666666666667</ele><time>2026-04-26T08:49:28.231Z</time></trkpt><trkpt lat="44.2719454" lon="10.6761085"><ele>1155.0</ele><time>2026-04-26T08:49:29.237Z</time></trkpt><trkpt lat="44.2720449" lon="10.6759085"><ele>1152.6666666666667</ele><time>2026-04-26T08:49:30.232Z</time></trkpt><trkpt lat="44.2721371" lon="10.6756894"><ele>1150.3333333333335</ele><time>2026-04-26T08:49:31.248Z</time></trkpt><trkpt lat="44.2722004" lon="10.6754603"><ele>1148.0</ele><time>2026-04-26T08:49:32.229Z</time></trkpt><trkpt lat="44.2722329" lon="10.6752138"><ele>1146.0</ele><time>2026-04-26T08:49:33.231Z</time></trkpt><trkpt lat="44.2722248" lon="10.6749525"><ele>1144.0</ele><time>2026-04-26T08:49:34.229Z</time></trkpt><trkpt lat="44.2721916" lon="10.6746955"><ele>1142.0</ele><time>2026-04-26T08:49:35.228Z</time></trkpt><trkpt lat="44.2721542" lon="10.6744279"><ele>1142.0</ele><time>2026-04-26T08:49:36.231Z</time></trkpt><trkpt lat="44.2721419" lon="10.6741585"><ele>1142.0</ele><time>2026-04-26T08:49:37.231Z</time></trkpt><trkpt lat="44.2721369" lon="10.6738873"><ele>1142.0</ele><time>2026-04-26T08:49:38.231Z</time></trkpt><trkpt lat="44.2721231" lon="10.673617"><ele>1144.3333333333335</ele><time>2026-04-26T08:49:39.246Z</time></trkpt><trkpt lat="44.2720985" lon="10.6733472"><ele>1146.6666666666667</ele><time>2026-04-26T08:49:40.233Z</time></trkpt><trkpt lat="44.2720689" lon="10.6730839"><ele>1149.0</ele><time>2026-04-26T08:49:41.23Z</time></trkpt><trkpt lat="44.2720382" lon="10.6728329"><ele>1150.3333333333333</ele><time>2026-04-26T08:49:42.232Z</time></trkpt><trkpt lat="44.2720043" lon="10.6725949"><ele>1151.6666666666665</ele><time>2026-04-26T08:49:43.227Z</time></trkpt><trkpt lat="44.2719668" lon="10.6723652"><ele>1153.0</ele><time>2026-04-26T08:49:44.23Z</time></trkpt><trkpt lat="44.2719286" lon="10.6721408"><ele>1155.3333333333333</ele><time>2026-04-26T08:49:45.233Z</time></trkpt><trkpt lat="44.271893" lon="10.671919"><ele>1157.6666666666667</ele><time>2026-04-26T08:49:46.238Z</time></trkpt><trkpt lat="44.2718626" lon="10.6716998"><ele>1160.0</ele><time>2026-04-26T08:49:47.231Z</time></trkpt><trkpt lat="44.2718401" lon="10.6714847"><ele>1160.0</ele><time>2026-04-26T08:49:48.227Z</time></trkpt><trkpt lat="44.2718268" lon="10.6712688"><ele>1160.0</ele><time>2026-04-26T08:49:49.227Z</time></trkpt><trkpt lat="44.2718291" lon="10.6710497"><ele>1160.0</ele><time>2026-04-26T08:49:50.226Z</time></trkpt><trkpt lat="44.2718417" lon="10.6708208"><ele>1160.3333333333335</ele><time>2026-04-26T08:49:51.232Z</time></trkpt><trkpt lat="44.2718571" lon="10.6705839"><ele>1160.6666666666667</ele><time>2026-04-26T08:49:52.228Z</time></trkpt><trkpt lat="44.2718666" lon="10.670344"><ele>1161.0</ele><time>2026-04-26T08:49:53.238Z</time></trkpt><trkpt lat="44.2718584" lon="10.6700999"><ele>1161.6666666666667</ele><time>2026-04-26T08:49:54.23Z</time></trkpt><trkpt lat="44.271838" lon="10.6698566"><ele>1162.3333333333335</ele><time>2026-04-26T08:49:55.232Z</time></trkpt><trkpt lat="44.2718114" lon="10.6696206"><ele>1163.0</ele><time>2026-04-26T08:49:56.227Z</time></trkpt><trkpt lat="44.2717916" lon="10.6694146"><ele>1164.5</ele><time>2026-04-26T08:49:57.232Z</time></trkpt><trkpt lat="44.2717701" lon="10.6692292"><ele>1166.0</ele><time>2026-04-26T08:49:58.227Z</time></trkpt><trkpt lat="44.2717422" lon="10.6690519"><ele>1167.5</ele><time>2026-04-26T08:49:59.229Z</time></trkpt><trkpt lat="44.2717122" lon="10.668877"><ele>1169.0</ele><time>2026-04-26T08:50:00.227Z</time></trkpt><trkpt lat="44.2716726" lon="10.6687263"><ele>1170.0</ele><time>2026-04-26T08:50:01.227Z</time></trkpt><trkpt lat="44.2716264" lon="10.6686023"><ele>1171.0</ele><time>2026-04-26T08:50:02.246Z</time></trkpt><trkpt lat="44.271587" lon="10.6685051"><ele>1172.0</ele><time>2026-04-26T08:50:03.229Z</time></trkpt><trkpt lat="44.2715905" lon="10.6684087"><ele>1173.0</ele><time>2026-04-26T08:50:05.229Z</time></trkpt><trkpt lat="44.2716933" lon="10.6683791"><ele>1174.0</ele><time>2026-04-26T08:50:07.251Z</time></trkpt><trkpt lat="44.2717584" lon="10.6684122"><ele>1175.0</ele><time>2026-04-26T08:50:08.228Z</time></trkpt><trkpt lat="44.2718386" lon="10.6685111"><ele>1173.8</ele><time>2026-04-26T08:50:09.23Z</time></trkpt><trkpt lat="44.2719306" lon="10.6686358"><ele>1172.6</ele><time>2026-04-26T08:50:10.23Z</time></trkpt><trkpt lat="44.2719732" lon="10.6687728"><ele>1171.4</ele><time>2026-04-26T08:50:11.231Z</time></trkpt><trkpt lat="44.2720162" lon="10.6688913"><ele>1170.2</ele><time>2026-04-26T08:50:12.228Z</time></trkpt><trkpt lat="44.2720527" lon="10.6689862"><ele>1169.0</ele><time>2026-04-26T08:50:13.228Z</time></trkpt><trkpt lat="44.2720979" lon="10.6691049"><ele>1169.0</ele><time>2026-04-26T08:50:15.251Z</time></trkpt><trkpt lat="44.2721649" lon="10.6691251"><ele>1169.0</ele><time>2026-04-26T08:50:18.238Z</time></trkpt><trkpt lat="44.2721386" lon="10.6689575"><ele>1169.0</ele><time>2026-04-26T08:50:22.235Z</time></trkpt><trkpt lat="44.2720917" lon="10.668793"><ele>1169.0</ele><time>2026-04-26T08:50:24.232Z</time></trkpt><trkpt lat="44.2720595" lon="10.6686989"><ele>1169.0</ele><time>2026-04-26T08:50:25.233Z</time></trkpt><trkpt lat="44.2720263" lon="10.6685748"><ele>1170.2</ele><time>2026-04-26T08:50:26.229Z</time></trkpt><trkpt lat="44.2719841" lon="10.6684405"><ele>1171.4</ele><time>2026-04-26T08:50:27.232Z</time></trkpt><trkpt lat="44.2719457" lon="10.6683202"><ele>1172.6</ele><time>2026-04-26T08:50:28.237Z</time></trkpt><trkpt lat="44.2718994" lon="10.6681898"><ele>1173.8</ele><time>2026-04-26T08:50:29.233Z</time></trkpt><trkpt lat="44.2718426" lon="10.6680703"><ele>1175.0</ele><time>2026-04-26T08:50:30.228Z</time></trkpt><trkpt lat="44.2717746" lon="10.6679531"><ele>1175.0</ele><time>2026-04-26T08:50:31.232Z</time></trkpt><trkpt lat="44.2717031" lon="10.6678284"><ele>1175.0</ele><time>2026-04-26T08:50:32.231Z</time></trkpt><trkpt lat="44.2716353" lon="10.6677137"><ele>1175.0</ele><time>2026-04-26T08:50:33.23Z</time></trkpt><trkpt lat="44.2715785" lon="10.6676057"><ele>1175.0</ele><time>2026-04-26T08:50:34.232Z</time></trkpt><trkpt lat="44.2715281" lon="10.6675178"><ele>1175.0</ele><time>2026-04-26T08:50:35.232Z</time></trkpt><trkpt lat="44.2714585" lon="10.667447"><ele>1174.8333333333335</ele><time>2026-04-26T08:50:36.232Z</time></trkpt><trkpt lat="44.2713844" lon="10.6673781"><ele>1174.6666666666667</ele><time>2026-04-26T08:50:37.228Z</time></trkpt><trkpt lat="44.2713151" lon="10.6673021"><ele>1174.5</ele><time>2026-04-26T08:50:38.232Z</time></trkpt><trkpt lat="44.271265" lon="10.6672142"><ele>1174.3333333333333</ele><time>2026-04-26T08:50:39.228Z</time></trkpt><trkpt lat="44.2712251" lon="10.6671387"><ele>1174.1666666666665</ele><time>2026-04-26T08:50:40.228Z</time></trkpt><trkpt lat="44.2712234" lon="10.6670372"><ele>1174.0</ele><time>2026-04-26T08:50:41.242Z</time></trkpt><trkpt lat="44.2712817" lon="10.6668949"><ele>1176.1666666666665</ele><time>2026-04-26T08:50:43.236Z</time></trkpt><trkpt lat="44.2713168" lon="10.6668066"><ele>1178.3333333333333</ele><time>2026-04-26T08:50:44.233Z</time></trkpt><trkpt lat="44.2713534" lon="10.666717"><ele>1180.5</ele><time>2026-04-26T08:50:45.232Z</time></trkpt><trkpt lat="44.2713241" lon="10.6665379"><ele>1182.6666666666667</ele><time>2026-04-26T08:50:47.227Z</time></trkpt><trkpt lat="44.2712979" lon="10.6664431"><ele>1184.8333333333335</ele><time>2026-04-26T08:50:48.229Z</time></trkpt><trkpt lat="44.2712639" lon="10.6663658"><ele>1187.0</ele><time>2026-04-26T08:50:49.227Z</time></trkpt><trkpt lat="44.2711965" lon="10.6661981"><ele>1189.5</ele><time>2026-04-26T08:50:51.231Z</time></trkpt><trkpt lat="44.2711504" lon="10.6660888"><ele>1192.0</ele><time>2026-04-26T08:50:52.234Z</time></trkpt><trkpt lat="44.2711288" lon="10.6659789"><ele>1194.5</ele><time>2026-04-26T08:50:53.239Z</time></trkpt><trkpt lat="44.2711108" lon="10.6658809"><ele>1197.0</ele><time>2026-04-26T08:50:54.234Z</time></trkpt><trkpt lat="44.2710958" lon="10.6657573"><ele>1199.5</ele><time>2026-04-26T08:50:55.233Z</time></trkpt><trkpt lat="44.2710734" lon="10.6656169"><ele>1202.0</ele><time>2026-04-26T08:50:56.233Z</time></trkpt><trkpt lat="44.2710712" lon="10.6654456"><ele>1205.5</ele><time>2026-04-26T08:50:57.237Z</time></trkpt><trkpt lat="44.2710439" lon="10.6652558"><ele>1209.0</ele><time>2026-04-26T08:50:58.228Z</time></trkpt><trkpt lat="44.2710231" lon="10.6650899"><ele>1212.5</ele><time>2026-04-26T08:50:59.231Z</time></trkpt><trkpt lat="44.2709729" lon="10.6649289"><ele>1216.0</ele><time>2026-04-26T08:51:00.237Z</time></trkpt><trkpt lat="44.2709437" lon="10.6647618"><ele>1216.0</ele><time>2026-04-26T08:51:01.243Z</time></trkpt><trkpt lat="44.2709207" lon="10.6646435"><ele>1216.0</ele><time>2026-04-26T08:51:02.233Z</time></trkpt><trkpt lat="44.2708624" lon="10.6645069"><ele>1216.0</ele><time>2026-04-26T08:51:04.232Z</time></trkpt><trkpt lat="44.2708095" lon="10.6644261"><ele>1216.0</ele><time>2026-04-26T08:51:06.233Z</time></trkpt><trkpt lat="44.270773" lon="10.6643243"><ele>1216.0</ele><time>2026-04-26T08:51:12.235Z</time></trkpt><trkpt lat="44.2707031" lon="10.6642644"><ele>1216.0</ele><time>2026-04-26T08:51:13.233Z</time></trkpt><trkpt lat="44.2706331" lon="10.664288"><ele>1215.4285714285713</ele><time>2026-04-26T08:51:21.241Z</time></trkpt><trkpt lat="44.2705841" lon="10.664379"><ele>1214.857142857143</ele><time>2026-04-26T08:51:22.236Z</time></trkpt><trkpt lat="44.2705222" lon="10.66446"><ele>1214.2857142857142</ele><time>2026-04-26T08:51:34.243Z</time></trkpt><trkpt lat="44.2704697" lon="10.6645215"><ele>1213.7142857142858</ele><time>2026-04-26T08:51:57.242Z</time></trkpt><trkpt lat="44.2704305" lon="10.6644305"><ele>1213.142857142857</ele><time>2026-04-26T08:51:59.243Z</time></trkpt><trkpt lat="44.2704266" lon="10.6643404"><ele>1212.5714285714287</ele><time>2026-04-26T08:52:00.231Z</time></trkpt><trkpt lat="44.2704437" lon="10.6642423"><ele>1212.0</ele><time>2026-04-26T08:52:01.238Z</time></trkpt><trkpt lat="44.2704394" lon="10.664152"><ele>1213.8</ele><time>2026-04-26T08:52:02.233Z</time></trkpt><trkpt lat="44.2703801" lon="10.6639849"><ele>1215.6</ele><time>2026-04-26T08:52:04.235Z</time></trkpt><trkpt lat="44.2703387" lon="10.6638629"><ele>1217.3999999999999</ele><time>2026-04-26T08:52:05.228Z</time></trkpt><trkpt lat="44.2703035" lon="10.6637277"><ele>1219.2</ele><time>2026-04-26T08:52:06.235Z</time></trkpt><trkpt lat="44.2702667" lon="10.6635879"><ele>1221.0</ele><time>2026-04-26T08:52:07.229Z</time></trkpt><trkpt lat="44.2702287" lon="10.6634547"><ele>1223.3333333333333</ele><time>2026-04-26T08:52:08.241Z</time></trkpt><trkpt lat="44.2701869" lon="10.6633582"><ele>1225.6666666666667</ele><time>2026-04-26T08:52:09.236Z</time></trkpt><trkpt lat="44.2701204" lon="10.6632144"><ele>1228.0</ele><time>2026-04-26T08:52:11.236Z</time></trkpt><trkpt lat="44.2700926" lon="10.6631269"><ele>1230.3333333333335</ele><time>2026-04-26T08:52:12.236Z</time></trkpt><trkpt lat="44.2700589" lon="10.6630146"><ele>1232.6666666666667</ele><time>2026-04-26T08:52:13.229Z</time></trkpt><trkpt lat="44.2700259" lon="10.6629088"><ele>1235.0</ele><time>2026-04-26T08:52:14.233Z</time></trkpt><trkpt lat="44.2700053" lon="10.6628136"><ele>1238.0</ele><time>2026-04-26T08:52:15.234Z</time></trkpt><trkpt lat="44.2699535" lon="10.6626669"><ele>1241.0</ele><time>2026-04-26T08:52:17.233Z</time></trkpt><trkpt lat="44.2698489" lon="10.6625904"><ele>1244.0</ele><time>2026-04-26T08:52:19.233Z</time></trkpt><trkpt lat="44.2697915" lon="10.6624474"><ele>1247.0</ele><time>2026-04-26T08:52:21.228Z</time></trkpt><trkpt lat="44.2697105" lon="10.6624006"><ele>1250.0</ele><time>2026-04-26T08:52:23.241Z</time></trkpt><trkpt lat="44.2696375" lon="10.6625052"><ele>1250.5714285714287</ele><time>2026-04-26T08:52:25.232Z</time></trkpt><trkpt lat="44.2696056" lon="10.662583"><ele>1251.142857142857</ele><time>2026-04-26T08:52:26.23Z</time></trkpt><trkpt lat="44.2695626" lon="10.6626623"><ele>1251.7142857142858</ele><time>2026-04-26T08:52:27.228Z</time></trkpt><trkpt lat="44.2695219" lon="10.6627425"><ele>1252.2857142857142</ele><time>2026-04-26T08:52:28.229Z</time></trkpt><trkpt lat="44.2694772" lon="10.6628271"><ele>1252.857142857143</ele><time>2026-04-26T08:52:29.229Z</time></trkpt><trkpt lat="44.2694155" lon="10.6629079"><ele>1253.4285714285716</ele><time>2026-04-26T08:52:30.231Z</time></trkpt><trkpt lat="44.269364" lon="10.6629671"><ele>1254.0</ele><time>2026-04-26T08:52:31.234Z</time></trkpt><trkpt lat="44.2692925" lon="10.6630435"><ele>1254.0</ele><time>2026-04-26T08:52:32.228Z</time></trkpt><trkpt lat="44.2692386" lon="10.6631426"><ele>1254.0</ele><time>2026-04-26T08:52:33.234Z</time></trkpt><trkpt lat="44.2691779" lon="10.6632278"><ele>1254.0</ele><time>2026-04-26T08:52:34.248Z</time></trkpt><trkpt lat="44.269113" lon="10.663297"><ele>1254.0</ele><time>2026-04-26T08:52:35.235Z</time></trkpt><trkpt lat="44.26905" lon="10.6633389"><ele>1254.0</ele><time>2026-04-26T08:52:36.238Z</time></trkpt><trkpt lat="44.2689629" lon="10.6633529"><ele>1254.0</ele><time>2026-04-26T08:52:38.239Z</time></trkpt><trkpt lat="44.2688983" lon="10.6633095"><ele>1253.8</ele><time>2026-04-26T08:52:40.233Z</time></trkpt><trkpt lat="44.2688362" lon="10.6632217"><ele>1253.6000000000001</ele><time>2026-04-26T08:52:52.24Z</time></trkpt><trkpt lat="44.2688091" lon="10.663122"><ele>1253.4</ele><time>2026-04-26T08:52:54.235Z</time></trkpt><trkpt lat="44.2687718" lon="10.6629806"><ele>1253.2</ele><time>2026-04-26T08:52:56.241Z</time></trkpt><trkpt lat="44.2687291" lon="10.6628536"><ele>1253.0</ele><time>2026-04-26T08:52:58.237Z</time></trkpt><trkpt lat="44.268754" lon="10.6627174"><ele>1258.0</ele><time>2026-04-26T08:53:00.237Z</time></trkpt><trkpt lat="44.268804" lon="10.6625526"><ele>1263.0</ele><time>2026-04-26T08:53:02.235Z</time></trkpt><trkpt lat="44.2688272" lon="10.6623865"><ele>1268.0</ele><time>2026-04-26T08:53:04.237Z</time></trkpt><trkpt lat="44.2688087" lon="10.6622476"><ele>1273.0</ele><time>2026-04-26T08:53:06.231Z</time></trkpt><trkpt lat="44.2687488" lon="10.6621044"><ele>1273.0</ele><time>2026-04-26T08:53:08.229Z</time></trkpt><trkpt lat="44.2686916" lon="10.6619513"><ele>1273.0</ele><time>2026-04-26T08:53:10.23Z</time></trkpt><trkpt lat="44.2686768" lon="10.6618557"><ele>1273.0</ele><time>2026-04-26T08:53:11.232Z</time></trkpt><trkpt lat="44.2686704" lon="10.6616946"><ele>1273.0</ele><time>2026-04-26T08:53:13.232Z</time></trkpt><trkpt lat="44.2686523" lon="10.6615306"><ele>1273.0</ele><time>2026-04-26T08:53:15.231Z</time></trkpt><trkpt lat="44.2686399" lon="10.6614218"><ele>1276.0</ele><time>2026-04-26T08:53:16.233Z</time></trkpt><trkpt lat="44.2686278" lon="10.6613147"><ele>1279.0</ele><time>2026-04-26T08:53:17.242Z</time></trkpt><trkpt lat="44.2686265" lon="10.6612008"><ele>1282.0</ele><time>2026-04-26T08:53:18.227Z</time></trkpt><trkpt lat="44.2686311" lon="10.6610596"><ele>1285.0</ele><time>2026-04-26T08:53:19.234Z</time></trkpt><trkpt lat="44.2686222" lon="10.660954"><ele>1288.0</ele><time>2026-04-26T08:53:20.229Z</time></trkpt><trkpt lat="44.2686108" lon="10.6608626"><ele>1291.0</ele><time>2026-04-26T08:53:21.236Z</time></trkpt><trkpt lat="44.2685972" lon="10.6607492"><ele>1291.5</ele><time>2026-04-26T08:53:22.238Z</time></trkpt><trkpt lat="44.2685767" lon="10.6606288"><ele>1292.0</ele><time>2026-04-26T08:53:23.249Z</time></trkpt><trkpt lat="44.268554" lon="10.6604972"><ele>1292.5</ele><time>2026-04-26T08:53:24.235Z</time></trkpt><trkpt lat="44.2685252" lon="10.6603949"><ele>1293.0</ele><time>2026-04-26T08:53:25.231Z</time></trkpt><trkpt lat="44.2685032" lon="10.6603039"><ele>1293.5</ele><time>2026-04-26T08:53:26.228Z</time></trkpt><trkpt lat="44.2685191" lon="10.6601754"><ele>1294.0</ele><time>2026-04-26T08:53:28.232Z</time></trkpt><trkpt lat="44.2685557" lon="10.6600915"><ele>1294.6666666666665</ele><time>2026-04-26T08:53:29.24Z</time></trkpt><trkpt lat="44.2685924" lon="10.659985"><ele>1295.3333333333333</ele><time>2026-04-26T08:53:30.231Z</time></trkpt><trkpt lat="44.2686158" lon="10.6598868"><ele>1296.0</ele><time>2026-04-26T08:53:31.235Z</time></trkpt><trkpt lat="44.268614" lon="10.6597421"><ele>1296.6666666666667</ele><time>2026-04-26T08:53:33.231Z</time></trkpt><trkpt lat="44.2685313" lon="10.6596521"><ele>1297.3333333333335</ele><time>2026-04-26T08:53:35.238Z</time></trkpt><trkpt lat="44.2684688" lon="10.6596269"><ele>1298.0</ele><time>2026-04-26T08:53:36.233Z</time></trkpt><trkpt lat="44.268411" lon="10.6595756"><ele>1298.0</ele><time>2026-04-26T08:53:37.228Z</time></trkpt><trkpt lat="44.2683524" lon="10.6595001"><ele>1298.0</ele><time>2026-04-26T08:53:38.232Z</time></trkpt><trkpt lat="44.2682938" lon="10.6594167"><ele>1298.0</ele><time>2026-04-26T08:53:39.239Z</time></trkpt><trkpt lat="44.2682432" lon="10.6593397"><ele>1298.0</ele><time>2026-04-26T08:53:40.237Z</time></trkpt><trkpt lat="44.2682426" lon="10.6592008"><ele>1298.0</ele><time>2026-04-26T08:53:42.239Z</time></trkpt><trkpt lat="44.2682896" lon="10.6590067"><ele>1299.6666666666667</ele><time>2026-04-26T08:53:44.238Z</time></trkpt><trkpt lat="44.2682981" lon="10.6589174"><ele>1301.3333333333335</ele><time>2026-04-26T08:53:45.236Z</time></trkpt><trkpt lat="44.2683078" lon="10.6588256"><ele>1303.0</ele><time>2026-04-26T08:53:46.231Z</time></trkpt><trkpt lat="44.2683099" lon="10.6587303"><ele>1304.6666666666667</ele><time>2026-04-26T08:53:47.228Z</time></trkpt><trkpt lat="44.2683175" lon="10.6585881"><ele>1306.3333333333333</ele><time>2026-04-26T08:53:48.232Z</time></trkpt><trkpt lat="44.268317" lon="10.6584427"><ele>1308.0</ele><time>2026-04-26T08:53:49.243Z</time></trkpt><trkpt lat="44.2683082" lon="10.6582869"><ele>1308.6666666666667</ele><time>2026-04-26T08:53:50.23Z</time></trkpt><trkpt lat="44.2682902" lon="10.6581684"><ele>1309.3333333333333</ele><time>2026-04-26T08:53:51.233Z</time></trkpt><trkpt lat="44.2682836" lon="10.6580573"><ele>1310.0</ele><time>2026-04-26T08:53:52.233Z</time></trkpt><trkpt lat="44.2682875" lon="10.6579578"><ele>1310.6666666666665</ele><time>2026-04-26T08:53:53.231Z</time></trkpt><trkpt lat="44.2683145" lon="10.6578401"><ele>1311.3333333333333</ele><time>2026-04-26T08:53:54.232Z</time></trkpt><trkpt lat="44.268361" lon="10.6577297"><ele>1312.0</ele><time>2026-04-26T08:53:55.234Z</time></trkpt><trkpt lat="44.2683935" lon="10.6576397"><ele>1312.0</ele><time>2026-04-26T08:53:56.227Z</time></trkpt><trkpt lat="44.268452" lon="10.657513"><ele>1312.0</ele><time>2026-04-26T08:53:58.234Z</time></trkpt><trkpt lat="44.2684895" lon="10.6574355"><ele>1312.0</ele><time>2026-04-26T08:53:59.228Z</time></trkpt><trkpt lat="44.2685507" lon="10.6572934"><ele>1312.0</ele><time>2026-04-26T08:54:01.239Z</time></trkpt><trkpt lat="44.2685733" lon="10.6572083"><ele>1312.0</ele><time>2026-04-26T08:54:02.23Z</time></trkpt><trkpt lat="44.2685938" lon="10.6570848"><ele>1312.0</ele><time>2026-04-26T08:54:04.245Z</time></trkpt><trkpt lat="44.2685665" lon="10.6568972"><ele>1311.5</ele><time>2026-04-26T08:54:06.23Z</time></trkpt><trkpt lat="44.2685655" lon="10.6567879"><ele>1311.0</ele><time>2026-04-26T08:54:07.227Z</time></trkpt><trkpt lat="44.2685661" lon="10.6566587"><ele>1310.5</ele><time>2026-04-26T08:54:08.234Z</time></trkpt><trkpt lat="44.2685644" lon="10.656498"><ele>1310.0</ele><time>2026-04-26T08:54:09.232Z</time></trkpt><trkpt lat="44.2685689" lon="10.6563734"><ele>1309.5</ele><time>2026-04-26T08:54:10.229Z</time></trkpt><trkpt lat="44.2685794" lon="10.6562815"><ele>1309.0</ele><time>2026-04-26T08:54:11.228Z</time></trkpt><trkpt lat="44.2686416" lon="10.6561669"><ele>1309.0</ele><time>2026-04-26T08:54:13.243Z</time></trkpt><trkpt lat="44.2687086" lon="10.6561277"><ele>1309.0</ele><time>2026-04-26T08:54:16.235Z</time></trkpt><trkpt lat="44.2687689" lon="10.6560969"><ele>1309.0</ele><time>2026-04-26T08:54:20.228Z</time></trkpt><trkpt lat="44.2688278" lon="10.656064"><ele>1309.0</ele><time>2026-04-26T08:54:25.232Z</time></trkpt><trkpt lat="44.2688896" lon="10.6560121"><ele>1309.0</ele><time>2026-04-26T08:54:46.229Z</time></trkpt><trkpt lat="44.2689758" lon="10.655903"><ele>1309.0</ele><time>2026-04-26T08:54:48.231Z</time></trkpt><trkpt lat="44.2690387" lon="10.6557998"><ele>1309.3333333333333</ele><time>2026-04-26T08:54:49.231Z</time></trkpt><trkpt lat="44.2690993" lon="10.6556781"><ele>1309.6666666666665</ele><time>2026-04-26T08:54:50.232Z</time></trkpt><trkpt lat="44.269143" lon="10.6555657"><ele>1310.0</ele><time>2026-04-26T08:54:51.228Z</time></trkpt><trkpt lat="44.2691777" lon="10.655458"><ele>1310.3333333333333</ele><time>2026-04-26T08:54:52.231Z</time></trkpt><trkpt lat="44.2692016" lon="10.6553527"><ele>1310.6666666666667</ele><time>2026-04-26T08:54:53.228Z</time></trkpt><trkpt lat="44.2692076" lon="10.6552519"><ele>1311.0</ele><time>2026-04-26T08:54:54.233Z</time></trkpt><trkpt lat="44.2692185" lon="10.6551578"><ele>1311.0</ele><time>2026-04-26T08:54:55.229Z</time></trkpt><trkpt lat="44.2692538" lon="10.6550207"><ele>1311.0</ele><time>2026-04-26T08:54:57.23Z</time></trkpt><trkpt lat="44.2692781" lon="10.6549343"><ele>1311.0</ele><time>2026-04-26T08:54:59.239Z</time></trkpt><trkpt lat="44.2692905" lon="10.6547702"><ele>1311.0</ele><time>2026-04-26T08:55:01.232Z</time></trkpt><trkpt lat="44.2693019" lon="10.6546699"><ele>1311.0</ele><time>2026-04-26T08:55:02.232Z</time></trkpt><trkpt lat="44.2693167" lon="10.6545657"><ele>1311.0</ele><time>2026-04-26T08:55:03.227Z</time></trkpt><trkpt lat="44.2693306" lon="10.6544601"><ele>1310.5</ele><time>2026-04-26T08:55:04.231Z</time></trkpt><trkpt lat="44.269347" lon="10.6543547"><ele>1310.0</ele><time>2026-04-26T08:55:05.229Z</time></trkpt><trkpt lat="44.2693603" lon="10.6542438"><ele>1309.5</ele><time>2026-04-26T08:55:06.228Z</time></trkpt><trkpt lat="44.2693725" lon="10.6541269"><ele>1309.0</ele><time>2026-04-26T08:55:07.224Z</time></trkpt><trkpt lat="44.2693827" lon="10.6540164"><ele>1308.5</ele><time>2026-04-26T08:55:08.231Z</time></trkpt><trkpt lat="44.2693835" lon="10.6539122"><ele>1308.0</ele><time>2026-04-26T08:55:09.233Z</time></trkpt><trkpt lat="44.2693737" lon="10.6538058"><ele>1308.0</ele><time>2026-04-26T08:55:10.229Z</time></trkpt><trkpt lat="44.2693677" lon="10.6536746"><ele>1308.0</ele><time>2026-04-26T08:55:11.233Z</time></trkpt><trkpt lat="44.2693547" lon="10.6535497"><ele>1308.0</ele><time>2026-04-26T08:55:12.231Z</time></trkpt><trkpt lat="44.2693477" lon="10.6533979"><ele>1308.0</ele><time>2026-04-26T08:55:13.23Z</time></trkpt><trkpt lat="44.2693468" lon="10.6532563"><ele>1308.0</ele><time>2026-04-26T08:55:14.228Z</time></trkpt><trkpt lat="44.2693661" lon="10.6531247"><ele>1307.6000000000001</ele><time>2026-04-26T08:55:15.23Z</time></trkpt><trkpt lat="44.2693873" lon="10.6530091"><ele>1307.2</ele><time>2026-04-26T08:55:16.232Z</time></trkpt><trkpt lat="44.2694309" lon="10.6528938"><ele>1306.8</ele><time>2026-04-26T08:55:17.247Z</time></trkpt><trkpt lat="44.2694907" lon="10.6527846"><ele>1306.4</ele><time>2026-04-26T08:55:18.235Z</time></trkpt><trkpt lat="44.2695532" lon="10.6526704"><ele>1306.0</ele><time>2026-04-26T08:55:19.229Z</time></trkpt><trkpt lat="44.2696074" lon="10.6525643"><ele>1306.0</ele><time>2026-04-26T08:55:20.228Z</time></trkpt><trkpt lat="44.2696337" lon="10.6524461"><ele>1306.0</ele><time>2026-04-26T08:55:21.233Z</time></trkpt><trkpt lat="44.2696322" lon="10.6523045"><ele>1306.0</ele><time>2026-04-26T08:55:22.235Z</time></trkpt><trkpt lat="44.2696166" lon="10.6521523"><ele>1306.0</ele><time>2026-04-26T08:55:23.231Z</time></trkpt><trkpt lat="44.2695939" lon="10.6519931"><ele>1306.0</ele><time>2026-04-26T08:55:24.229Z</time></trkpt><trkpt lat="44.2695593" lon="10.6518424"><ele>1308.6</ele><time>2026-04-26T08:55:25.228Z</time></trkpt><trkpt lat="44.2695186" lon="10.6517017"><ele>1311.1999999999998</ele><time>2026-04-26T08:55:26.231Z</time></trkpt><trkpt lat="44.2694726" lon="10.6515688"><ele>1313.8000000000002</ele><time>2026-04-26T08:55:27.232Z</time></trkpt><trkpt lat="44.2694308" lon="10.651418"><ele>1316.4</ele><time>2026-04-26T08:55:28.23Z</time></trkpt><trkpt lat="44.2693968" lon="10.6513072"><ele>1319.0</ele><time>2026-04-26T08:55:29.232Z</time></trkpt><trkpt lat="44.2693645" lon="10.6512076"><ele>1320.0</ele><time>2026-04-26T08:55:30.228Z</time></trkpt><trkpt lat="44.2693312" lon="10.6510404"><ele>1321.0</ele><time>2026-04-26T08:55:32.231Z</time></trkpt><trkpt lat="44.2693207" lon="10.6509344"><ele>1322.0</ele><time>2026-04-26T08:55:33.236Z</time></trkpt><trkpt lat="44.2693188" lon="10.6508217"><ele>1323.0</ele><time>2026-04-26T08:55:34.237Z</time></trkpt><trkpt lat="44.2693255" lon="10.6507248"><ele>1324.0</ele><time>2026-04-26T08:55:35.234Z</time></trkpt><trkpt lat="44.269351" lon="10.6505706"><ele>1324.0</ele><time>2026-04-26T08:55:37.229Z</time></trkpt><trkpt lat="44.269289" lon="10.6504247"><ele>1324.0</ele><time>2026-04-26T08:55:39.23Z</time></trkpt><trkpt lat="44.2692314" lon="10.6503363"><ele>1324.0</ele><time>2026-04-26T08:55:40.248Z</time></trkpt><trkpt lat="44.269179" lon="10.6502596"><ele>1324.0</ele><time>2026-04-26T08:55:41.23Z</time></trkpt><trkpt lat="44.2691262" lon="10.6501044"><ele>1324.0</ele><time>2026-04-26T08:55:43.232Z</time></trkpt><trkpt lat="44.2691052" lon="10.6499793"><ele>1324.6</ele><time>2026-04-26T08:55:44.229Z</time></trkpt><trkpt lat="44.2690891" lon="10.6498157"><ele>1325.2</ele><time>2026-04-26T08:55:45.231Z</time></trkpt><trkpt lat="44.2690807" lon="10.6496609"><ele>1325.8</ele><time>2026-04-26T08:55:46.228Z</time></trkpt><trkpt lat="44.2690717" lon="10.6495024"><ele>1326.3999999999999</ele><time>2026-04-26T08:55:47.232Z</time></trkpt><trkpt lat="44.2690678" lon="10.6493654"><ele>1327.0</ele><time>2026-04-26T08:55:48.235Z</time></trkpt><trkpt lat="44.2690433" lon="10.6492526"><ele>1328.2857142857144</ele><time>2026-04-26T08:55:49.232Z</time></trkpt><trkpt lat="44.2690096" lon="10.6491617"><ele>1329.5714285714287</ele><time>2026-04-26T08:55:50.231Z</time></trkpt><trkpt lat="44.2689681" lon="10.6490843"><ele>1330.857142857143</ele><time>2026-04-26T08:55:51.226Z</time></trkpt><trkpt lat="44.2689169" lon="10.6490216"><ele>1332.1428571428573</ele><time>2026-04-26T08:55:52.228Z</time></trkpt><trkpt lat="44.2688661" lon="10.648956"><ele>1333.4285714285716</ele><time>2026-04-26T08:55:53.233Z</time></trkpt><trkpt lat="44.2688152" lon="10.6488911"><ele>1334.7142857142858</ele><time>2026-04-26T08:55:54.228Z</time></trkpt><trkpt lat="44.2687696" lon="10.6488081"><ele>1336.0</ele><time>2026-04-26T08:55:55.23Z</time></trkpt><trkpt lat="44.2687126" lon="10.6487019"><ele>1333.8333333333333</ele><time>2026-04-26T08:55:57.232Z</time></trkpt><trkpt lat="44.2686362" lon="10.6486104"><ele>1331.6666666666665</ele><time>2026-04-26T08:55:59.236Z</time></trkpt><trkpt lat="44.2685801" lon="10.6485348"><ele>1329.5</ele><time>2026-04-26T08:56:00.231Z</time></trkpt><trkpt lat="44.26856" lon="10.6484186"><ele>1327.3333333333333</ele><time>2026-04-26T08:56:01.233Z</time></trkpt><trkpt lat="44.2685663" lon="10.6483007"><ele>1325.1666666666667</ele><time>2026-04-26T08:56:02.232Z</time></trkpt><trkpt lat="44.2685958" lon="10.6482059"><ele>1323.0</ele><time>2026-04-26T08:56:03.235Z</time></trkpt><trkpt lat="44.2686352" lon="10.6480998"><ele>1323.0</ele><time>2026-04-26T08:56:04.232Z</time></trkpt><trkpt lat="44.2686596" lon="10.6479898"><ele>1323.0</ele><time>2026-04-26T08:56:05.236Z</time></trkpt><trkpt lat="44.2686606" lon="10.6478594"><ele>1323.0</ele><time>2026-04-26T08:56:06.233Z</time></trkpt><trkpt lat="44.2686548" lon="10.6477497"><ele>1323.0</ele><time>2026-04-26T08:56:07.235Z</time></trkpt><trkpt lat="44.2686324" lon="10.6476301"><ele>1323.0</ele><time>2026-04-26T08:56:08.23Z</time></trkpt><trkpt lat="44.2686184" lon="10.6475096"><ele>1323.0</ele><time>2026-04-26T08:56:09.227Z</time></trkpt><trkpt lat="44.2686079" lon="10.6473864"><ele>1323.6000000000001</ele><time>2026-04-26T08:56:10.225Z</time></trkpt><trkpt lat="44.2686087" lon="10.6472692"><ele>1324.2</ele><time>2026-04-26T08:56:11.235Z</time></trkpt><trkpt lat="44.2686221" lon="10.6471259"><ele>1324.8</ele><time>2026-04-26T08:56:12.234Z</time></trkpt><trkpt lat="44.2686227" lon="10.6469778"><ele>1325.4</ele><time>2026-04-26T08:56:13.229Z</time></trkpt><trkpt lat="44.2686225" lon="10.6468512"><ele>1326.0</ele><time>2026-04-26T08:56:14.23Z</time></trkpt><trkpt lat="44.2686153" lon="10.6467252"><ele>1327.4</ele><time>2026-04-26T08:56:15.233Z</time></trkpt><trkpt lat="44.2685775" lon="10.6466132"><ele>1328.8</ele><time>2026-04-26T08:56:16.231Z</time></trkpt><trkpt lat="44.2685345" lon="10.6465056"><ele>1330.2</ele><time>2026-04-26T08:56:17.233Z</time></trkpt><trkpt lat="44.2684959" lon="10.6463981"><ele>1331.6000000000001</ele><time>2026-04-26T08:56:18.231Z</time></trkpt><trkpt lat="44.2684526" lon="10.6462814"><ele>1333.0</ele><time>2026-04-26T08:56:19.232Z</time></trkpt><trkpt lat="44.2684064" lon="10.6461503"><ele>1331.8000000000002</ele><time>2026-04-26T08:56:20.23Z</time></trkpt><trkpt lat="44.2683635" lon="10.6460101"><ele>1330.6</ele><time>2026-04-26T08:56:21.239Z</time></trkpt><trkpt lat="44.2683013" lon="10.6458761"><ele>1329.4</ele><time>2026-04-26T08:56:22.228Z</time></trkpt><trkpt lat="44.2682357" lon="10.6457763"><ele>1328.1999999999998</ele><time>2026-04-26T08:56:23.228Z</time></trkpt><trkpt lat="44.2681666" lon="10.6456973"><ele>1327.0</ele><time>2026-04-26T08:56:24.233Z</time></trkpt><trkpt lat="44.2680792" lon="10.6456406"><ele>1327.0</ele><time>2026-04-26T08:56:25.228Z</time></trkpt><trkpt lat="44.2679804" lon="10.6455889"><ele>1327.0</ele><time>2026-04-26T08:56:26.233Z</time></trkpt><trkpt lat="44.2678827" lon="10.6455168"><ele>1327.0</ele><time>2026-04-26T08:56:27.233Z</time></trkpt><trkpt lat="44.2678102" lon="10.6454646"><ele>1327.0</ele><time>2026-04-26T08:56:28.237Z</time></trkpt><trkpt lat="44.2677486" lon="10.645396"><ele>1327.0</ele><time>2026-04-26T08:56:29.232Z</time></trkpt><trkpt lat="44.2676852" lon="10.6453084"><ele>1326.6666666666665</ele><time>2026-04-26T08:56:30.234Z</time></trkpt><trkpt lat="44.2676137" lon="10.6452559"><ele>1326.3333333333333</ele><time>2026-04-26T08:56:31.232Z</time></trkpt><trkpt lat="44.2675432" lon="10.6452172"><ele>1326.0</ele><time>2026-04-26T08:56:32.235Z</time></trkpt><trkpt lat="44.2674326" lon="10.645246"><ele>1325.6666666666667</ele><time>2026-04-26T08:56:34.238Z</time></trkpt><trkpt lat="44.2673408" lon="10.6452238"><ele>1325.3333333333335</ele><time>2026-04-26T08:56:36.24Z</time></trkpt><trkpt lat="44.2672731" lon="10.6451579"><ele>1325.0</ele><time>2026-04-26T08:56:38.232Z</time></trkpt><trkpt lat="44.2672154" lon="10.6450771"><ele>1325.0</ele><time>2026-04-26T08:56:40.23Z</time></trkpt><trkpt lat="44.2671571" lon="10.644956"><ele>1325.0</ele><time>2026-04-26T08:56:42.235Z</time></trkpt><trkpt lat="44.2671161" lon="10.6448789"><ele>1325.0</ele><time>2026-04-26T08:56:43.235Z</time></trkpt><trkpt lat="44.2670686" lon="10.6447913"><ele>1325.0</ele><time>2026-04-26T08:56:44.235Z</time></trkpt><trkpt lat="44.2670069" lon="10.6446956"><ele>1325.0</ele><time>2026-04-26T08:56:45.236Z</time></trkpt><trkpt lat="44.2669492" lon="10.6446099"><ele>1325.0</ele><time>2026-04-26T08:56:46.233Z</time></trkpt><trkpt lat="44.2668889" lon="10.6445278"><ele>1327.1666666666667</ele><time>2026-04-26T08:56:47.239Z</time></trkpt><trkpt lat="44.266826" lon="10.644455"><ele>1329.3333333333335</ele><time>2026-04-26T08:56:48.231Z</time></trkpt><trkpt lat="44.2667632" lon="10.6443919"><ele>1331.5</ele><time>2026-04-26T08:56:49.227Z</time></trkpt><trkpt lat="44.2667135" lon="10.644319"><ele>1333.6666666666667</ele><time>2026-04-26T08:56:50.235Z</time></trkpt><trkpt lat="44.2666429" lon="10.6441876"><ele>1335.8333333333333</ele><time>2026-04-26T08:56:52.232Z</time></trkpt><trkpt lat="44.2666437" lon="10.6440811"><ele>1338.0</ele><time>2026-04-26T08:56:54.241Z</time></trkpt><trkpt lat="44.2666651" lon="10.6439919"><ele>1338.0</ele><time>2026-04-26T08:56:55.24Z</time></trkpt><trkpt lat="44.2667015" lon="10.6438698"><ele>1338.0</ele><time>2026-04-26T08:56:56.24Z</time></trkpt><trkpt lat="44.2667504" lon="10.643695"><ele>1338.0</ele><time>2026-04-26T08:56:57.23Z</time></trkpt><trkpt lat="44.2667893" lon="10.6435284"><ele>1338.0</ele><time>2026-04-26T08:56:58.236Z</time></trkpt><trkpt lat="44.2668173" lon="10.6433718"><ele>1337.4</ele><time>2026-04-26T08:56:59.236Z</time></trkpt><trkpt lat="44.2668381" lon="10.6432164"><ele>1336.8000000000002</ele><time>2026-04-26T08:57:00.231Z</time></trkpt><trkpt lat="44.2668521" lon="10.6430754"><ele>1336.2</ele><time>2026-04-26T08:57:01.235Z</time></trkpt><trkpt lat="44.2668599" lon="10.6429508"><ele>1335.6</ele><time>2026-04-26T08:57:02.234Z</time></trkpt><trkpt lat="44.26685" lon="10.642822"><ele>1335.0</ele><time>2026-04-26T08:57:03.236Z</time></trkpt><trkpt lat="44.2668242" lon="10.6426937"><ele>1335.0</ele><time>2026-04-26T08:57:04.235Z</time></trkpt><trkpt lat="44.266798" lon="10.642568"><ele>1335.0</ele><time>2026-04-26T08:57:05.231Z</time></trkpt><trkpt lat="44.2667556" lon="10.6424517"><ele>1335.0</ele><time>2026-04-26T08:57:06.232Z</time></trkpt><trkpt lat="44.2667055" lon="10.6423407"><ele>1335.0</ele><time>2026-04-26T08:57:07.236Z</time></trkpt><trkpt lat="44.2666509" lon="10.642228"><ele>1335.0</ele><time>2026-04-26T08:57:08.235Z</time></trkpt><trkpt lat="44.2666009" lon="10.6421141"><ele>1335.0</ele><time>2026-04-26T08:57:09.234Z</time></trkpt><trkpt lat="44.2665462" lon="10.6419897"><ele>1335.0</ele><time>2026-04-26T08:57:10.233Z</time></trkpt><trkpt lat="44.2665031" lon="10.6418766"><ele>1335.0</ele><time>2026-04-26T08:57:11.235Z</time></trkpt><trkpt lat="44.2664652" lon="10.6417738"><ele>1335.0</ele><time>2026-04-26T08:57:12.234Z</time></trkpt><trkpt lat="44.2664275" lon="10.6416567"><ele>1335.0</ele><time>2026-04-26T08:57:13.232Z</time></trkpt><trkpt lat="44.2663936" lon="10.6415202"><ele>1333.3333333333333</ele><time>2026-04-26T08:57:14.234Z</time></trkpt><trkpt lat="44.2663485" lon="10.6413949"><ele>1331.6666666666667</ele><time>2026-04-26T08:57:15.235Z</time></trkpt><trkpt lat="44.2663081" lon="10.6413009"><ele>1330.0</ele><time>2026-04-26T08:57:16.237Z</time></trkpt><trkpt lat="44.266253" lon="10.641152"><ele>1328.3333333333335</ele><time>2026-04-26T08:57:18.256Z</time></trkpt><trkpt lat="44.2662287" lon="10.6410586"><ele>1326.6666666666667</ele><time>2026-04-26T08:57:19.232Z</time></trkpt><trkpt lat="44.2662103" lon="10.64097"><ele>1325.0</ele><time>2026-04-26T08:57:20.228Z</time></trkpt><trkpt lat="44.2661962" lon="10.6407926"><ele>1325.5</ele><time>2026-04-26T08:57:22.227Z</time></trkpt><trkpt lat="44.2661966" lon="10.6406818"><ele>1326.0</ele><time>2026-04-26T08:57:23.228Z</time></trkpt><trkpt lat="44.2662249" lon="10.640574"><ele>1326.5</ele><time>2026-04-26T08:57:24.233Z</time></trkpt><trkpt lat="44.2662786" lon="10.6404812"><ele>1327.0</ele><time>2026-04-26T08:57:25.232Z</time></trkpt><trkpt lat="44.266339" lon="10.6404051"><ele>1327.5</ele><time>2026-04-26T08:57:26.229Z</time></trkpt><trkpt lat="44.2663959" lon="10.6402792"><ele>1328.0</ele><time>2026-04-26T08:57:27.233Z</time></trkpt><trkpt lat="44.2664582" lon="10.6401336"><ele>1328.0</ele><time>2026-04-26T08:57:28.237Z</time></trkpt><trkpt lat="44.2665192" lon="10.6399948"><ele>1328.0</ele><time>2026-04-26T08:57:29.231Z</time></trkpt><trkpt lat="44.2665637" lon="10.6398484"><ele>1328.0</ele><time>2026-04-26T08:57:30.233Z</time></trkpt><trkpt lat="44.2665949" lon="10.6396981"><ele>1328.0</ele><time>2026-04-26T08:57:31.23Z</time></trkpt><trkpt lat="44.2666337" lon="10.6395539"><ele>1328.4</ele><time>2026-04-26T08:57:32.232Z</time></trkpt><trkpt lat="44.2666705" lon="10.6394178"><ele>1328.8000000000002</ele><time>2026-04-26T08:57:33.228Z</time></trkpt><trkpt lat="44.2666957" lon="10.6393129"><ele>1329.2</ele><time>2026-04-26T08:57:34.234Z</time></trkpt><trkpt lat="44.2667051" lon="10.6391536"><ele>1329.6</ele><time>2026-04-26T08:57:36.235Z</time></trkpt><trkpt lat="44.2666705" lon="10.639074"><ele>1330.0</ele><time>2026-04-26T08:57:37.231Z</time></trkpt><trkpt lat="44.2666023" lon="10.6389814"><ele>1330.0</ele><time>2026-04-26T08:57:38.233Z</time></trkpt><trkpt lat="44.2665466" lon="10.638893"><ele>1330.0</ele><time>2026-04-26T08:57:39.225Z</time></trkpt><trkpt lat="44.2664982" lon="10.6388041"><ele>1330.0</ele><time>2026-04-26T08:57:40.234Z</time></trkpt><trkpt lat="44.2664618" lon="10.6387263"><ele>1330.0</ele><time>2026-04-26T08:57:41.236Z</time></trkpt><trkpt lat="44.2664364" lon="10.638557"><ele>1330.0</ele><time>2026-04-26T08:57:43.251Z</time></trkpt><trkpt lat="44.2664456" lon="10.6384466"><ele>1330.0</ele><time>2026-04-26T08:57:44.24Z</time></trkpt><trkpt lat="44.2664467" lon="10.6383409"><ele>1330.4285714285713</ele><time>2026-04-26T08:57:45.235Z</time></trkpt><trkpt lat="44.2664463" lon="10.6382498"><ele>1330.857142857143</ele><time>2026-04-26T08:57:46.233Z</time></trkpt><trkpt lat="44.2664295" lon="10.6381572"><ele>1331.2857142857142</ele><time>2026-04-26T08:57:47.233Z</time></trkpt><trkpt lat="44.266418" lon="10.6380655"><ele>1331.7142857142858</ele><time>2026-04-26T08:57:48.228Z</time></trkpt><trkpt lat="44.266401" lon="10.6379753"><ele>1332.142857142857</ele><time>2026-04-26T08:57:49.233Z</time></trkpt><trkpt lat="44.2663699" lon="10.6378819"><ele>1332.5714285714284</ele><time>2026-04-26T08:57:50.241Z</time></trkpt><trkpt lat="44.2663264" lon="10.6377897"><ele>1333.0</ele><time>2026-04-26T08:57:51.233Z</time></trkpt><trkpt lat="44.2662692" lon="10.6377089"><ele>1329.5</ele><time>2026-04-26T08:57:52.234Z</time></trkpt><trkpt lat="44.2661953" lon="10.6376286"><ele>1326.0</ele><time>2026-04-26T08:57:53.235Z</time></trkpt><trkpt lat="44.2661181" lon="10.6375831"><ele>1322.5</ele><time>2026-04-26T08:57:54.232Z</time></trkpt><trkpt lat="44.2660428" lon="10.6375664"><ele>1319.0</ele><time>2026-04-26T08:57:55.234Z</time></trkpt><trkpt lat="44.2659654" lon="10.6375309"><ele>1315.5</ele><time>2026-04-26T08:57:56.235Z</time></trkpt><trkpt lat="44.265876" lon="10.6374869"><ele>1312.0</ele><time>2026-04-26T08:57:57.239Z</time></trkpt><trkpt lat="44.2657908" lon="10.6374428"><ele>1312.0</ele><time>2026-04-26T08:57:58.233Z</time></trkpt><trkpt lat="44.2657119" lon="10.6373939"><ele>1312.0</ele><time>2026-04-26T08:57:59.231Z</time></trkpt><trkpt lat="44.2656423" lon="10.6373446"><ele>1312.0</ele><time>2026-04-26T08:58:00.23Z</time></trkpt><trkpt lat="44.2655765" lon="10.6372897"><ele>1312.0</ele><time>2026-04-26T08:58:01.236Z</time></trkpt><trkpt lat="44.2655177" lon="10.6372222"><ele>1312.0</ele><time>2026-04-26T08:58:02.233Z</time></trkpt><trkpt lat="44.2654743" lon="10.6370566"><ele>1312.0</ele><time>2026-04-26T08:58:04.236Z</time></trkpt><trkpt lat="44.2654709" lon="10.6369362"><ele>1308.3999999999999</ele><time>2026-04-26T08:58:05.236Z</time></trkpt><trkpt lat="44.2654667" lon="10.6368116"><ele>1304.8</ele><time>2026-04-26T08:58:06.23Z</time></trkpt><trkpt lat="44.2654469" lon="10.6366574"><ele>1301.2</ele><time>2026-04-26T08:58:07.232Z</time></trkpt><trkpt lat="44.2654247" lon="10.6365122"><ele>1297.6</ele><time>2026-04-26T08:58:08.23Z</time></trkpt><trkpt lat="44.2654048" lon="10.6363623"><ele>1294.0</ele><time>2026-04-26T08:58:09.252Z</time></trkpt><trkpt lat="44.2653863" lon="10.6362052"><ele>1295.8000000000002</ele><time>2026-04-26T08:58:10.231Z</time></trkpt><trkpt lat="44.2653662" lon="10.6360537"><ele>1297.6000000000001</ele><time>2026-04-26T08:58:11.228Z</time></trkpt><trkpt lat="44.2653485" lon="10.6359143"><ele>1299.4</ele><time>2026-04-26T08:58:12.228Z</time></trkpt><trkpt lat="44.2653308" lon="10.6357763"><ele>1301.2</ele><time>2026-04-26T08:58:13.23Z</time></trkpt><trkpt lat="44.2653143" lon="10.6356463"><ele>1303.0</ele><time>2026-04-26T08:58:14.227Z</time></trkpt><trkpt lat="44.2653174" lon="10.6355316"><ele>1303.0</ele><time>2026-04-26T08:58:15.238Z</time></trkpt><trkpt lat="44.2653137" lon="10.635427"><ele>1303.0</ele><time>2026-04-26T08:58:16.232Z</time></trkpt><trkpt lat="44.2652877" lon="10.6353316"><ele>1303.0</ele><time>2026-04-26T08:58:17.233Z</time></trkpt><trkpt lat="44.2652525" lon="10.6352381"><ele>1303.0</ele><time>2026-04-26T08:58:18.229Z</time></trkpt><trkpt lat="44.2652166" lon="10.6351386"><ele>1303.0</ele><time>2026-04-26T08:58:19.227Z</time></trkpt><trkpt lat="44.2651772" lon="10.6350454"><ele>1303.0</ele><time>2026-04-26T08:58:20.247Z</time></trkpt><trkpt lat="44.2651004" lon="10.6349778"><ele>1302.1666666666665</ele><time>2026-04-26T08:58:21.228Z</time></trkpt><trkpt lat="44.2650204" lon="10.6349061"><ele>1301.3333333333333</ele><time>2026-04-26T08:58:22.227Z</time></trkpt><trkpt lat="44.2649495" lon="10.6348258"><ele>1300.5</ele><time>2026-04-26T08:58:23.226Z</time></trkpt><trkpt lat="44.2648814" lon="10.634752"><ele>1299.6666666666667</ele><time>2026-04-26T08:58:24.235Z</time></trkpt><trkpt lat="44.264822" lon="10.6346703"><ele>1298.8333333333335</ele><time>2026-04-26T08:58:25.231Z</time></trkpt><trkpt lat="44.2647627" lon="10.6345904"><ele>1298.0</ele><time>2026-04-26T08:58:26.226Z</time></trkpt><trkpt lat="44.2646977" lon="10.6344845"><ele>1299.6000000000001</ele><time>2026-04-26T08:58:27.234Z</time></trkpt><trkpt lat="44.2646373" lon="10.634366"><ele>1301.2</ele><time>2026-04-26T08:58:28.232Z</time></trkpt><trkpt lat="44.2645859" lon="10.6342345"><ele>1302.8</ele><time>2026-04-26T08:58:29.233Z</time></trkpt><trkpt lat="44.2645293" lon="10.6341091"><ele>1304.4</ele><time>2026-04-26T08:58:30.227Z</time></trkpt><trkpt lat="44.2644453" lon="10.6339867"><ele>1306.0</ele><time>2026-04-26T08:58:31.226Z</time></trkpt><trkpt lat="44.2643442" lon="10.633903"><ele>1306.0</ele><time>2026-04-26T08:58:32.233Z</time></trkpt><trkpt lat="44.2642167" lon="10.6337849"><ele>1306.0</ele><time>2026-04-26T08:58:33.228Z</time></trkpt><trkpt lat="44.2641039" lon="10.6336812"><ele>1306.0</ele><time>2026-04-26T08:58:34.23Z</time></trkpt><trkpt lat="44.2640036" lon="10.6335881"><ele>1306.0</ele><time>2026-04-26T08:58:35.232Z</time></trkpt><trkpt lat="44.2639081" lon="10.6334747"><ele>1305.8333333333333</ele><time>2026-04-26T08:58:36.237Z</time></trkpt><trkpt lat="44.2638216" lon="10.633359"><ele>1305.6666666666665</ele><time>2026-04-26T08:58:37.231Z</time></trkpt><trkpt lat="44.2637405" lon="10.6332673"><ele>1305.5</ele><time>2026-04-26T08:58:38.241Z</time></trkpt><trkpt lat="44.2636835" lon="10.6331974"><ele>1305.3333333333333</ele><time>2026-04-26T08:58:39.242Z</time></trkpt><trkpt lat="44.2636367" lon="10.6331291"><ele>1305.1666666666667</ele><time>2026-04-26T08:58:40.24Z</time></trkpt><trkpt lat="44.2636027" lon="10.6330431"><ele>1305.0</ele><time>2026-04-26T08:58:41.241Z</time></trkpt><trkpt lat="44.2635753" lon="10.6328994"><ele>1306.4</ele><time>2026-04-26T08:58:42.233Z</time></trkpt><trkpt lat="44.2635681" lon="10.6327312"><ele>1307.8</ele><time>2026-04-26T08:58:43.235Z</time></trkpt><trkpt lat="44.2635705" lon="10.632597"><ele>1309.1999999999998</ele><time>2026-04-26T08:58:44.236Z</time></trkpt><trkpt lat="44.2635697" lon="10.6324824"><ele>1310.6</ele><time>2026-04-26T08:58:45.232Z</time></trkpt><trkpt lat="44.2635544" lon="10.6323567"><ele>1312.0</ele><time>2026-04-26T08:58:46.233Z</time></trkpt><trkpt lat="44.2635146" lon="10.632233"><ele>1312.0</ele><time>2026-04-26T08:58:47.228Z</time></trkpt><trkpt lat="44.2634587" lon="10.6320787"><ele>1312.0</ele><time>2026-04-26T08:58:48.233Z</time></trkpt><trkpt lat="44.2634185" lon="10.6319604"><ele>1312.0</ele><time>2026-04-26T08:58:49.231Z</time></trkpt><trkpt lat="44.2633681" lon="10.6318484"><ele>1312.0</ele><time>2026-04-26T08:58:50.233Z</time></trkpt><trkpt lat="44.2633049" lon="10.631755"><ele>1312.0</ele><time>2026-04-26T08:58:51.231Z</time></trkpt><trkpt lat="44.2632437" lon="10.6316613"><ele>1311.0</ele><time>2026-04-26T08:58:52.233Z</time></trkpt><trkpt lat="44.263163" lon="10.6315574"><ele>1310.0</ele><time>2026-04-26T08:58:53.227Z</time></trkpt><trkpt lat="44.2630673" lon="10.6314488"><ele>1309.0</ele><time>2026-04-26T08:58:54.233Z</time></trkpt><trkpt lat="44.2629719" lon="10.6313419"><ele>1308.0</ele><time>2026-04-26T08:58:55.234Z</time></trkpt><trkpt lat="44.2628644" lon="10.6311909"><ele>1313.75</ele><time>2026-04-26T08:58:56.239Z</time></trkpt><trkpt lat="44.2627541" lon="10.6310588"><ele>1319.5</ele><time>2026-04-26T08:58:57.228Z</time></trkpt><trkpt lat="44.2626572" lon="10.6309389"><ele>1325.25</ele><time>2026-04-26T08:58:58.231Z</time></trkpt><trkpt lat="44.2625645" lon="10.6308392"><ele>1331.0</ele><time>2026-04-26T08:58:59.241Z</time></trkpt><trkpt lat="44.2624714" lon="10.6307513"><ele>1331.0</ele><time>2026-04-26T08:59:00.236Z</time></trkpt><trkpt lat="44.2623796" lon="10.6306681"><ele>1331.0</ele><time>2026-04-26T08:59:01.235Z</time></trkpt><trkpt lat="44.2622814" lon="10.6305944"><ele>1331.0</ele><time>2026-04-26T08:59:02.235Z</time></trkpt><trkpt lat="44.2621819" lon="10.6305227"><ele>1331.0</ele><time>2026-04-26T08:59:03.236Z</time></trkpt><trkpt lat="44.2620788" lon="10.6304496"><ele>1331.0</ele><time>2026-04-26T08:59:04.228Z</time></trkpt><trkpt lat="44.2619969" lon="10.6303811"><ele>1332.5</ele><time>2026-04-26T08:59:05.228Z</time></trkpt><trkpt lat="44.2619229" lon="10.6303033"><ele>1334.0</ele><time>2026-04-26T08:59:06.235Z</time></trkpt><trkpt lat="44.2618591" lon="10.6302222"><ele>1335.5</ele><time>2026-04-26T08:59:07.23Z</time></trkpt><trkpt lat="44.261833" lon="10.6300854"><ele>1337.0</ele><time>2026-04-26T08:59:08.234Z</time></trkpt><trkpt lat="44.2618317" lon="10.6299505"><ele>1338.5</ele><time>2026-04-26T08:59:09.231Z</time></trkpt><trkpt lat="44.26184" lon="10.6298519"><ele>1340.0</ele><time>2026-04-26T08:59:10.232Z</time></trkpt><trkpt lat="44.2618932" lon="10.6297749"><ele>1340.0</ele><time>2026-04-26T08:59:12.235Z</time></trkpt><trkpt lat="44.2619925" lon="10.6297635"><ele>1340.0</ele><time>2026-04-26T09:01:04.237Z</time></trkpt><trkpt lat="44.2621092" lon="10.6297188"><ele>1340.0</ele><time>2026-04-26T09:01:06.236Z</time></trkpt><trkpt lat="44.2621841" lon="10.6296885"><ele>1340.0</ele><time>2026-04-26T09:01:07.235Z</time></trkpt><trkpt lat="44.2622593" lon="10.6296416"><ele>1340.0</ele><time>2026-04-26T09:01:08.232Z</time></trkpt><trkpt lat="44.2623276" lon="10.6295894"><ele>1340.6</ele><time>2026-04-26T09:01:09.236Z</time></trkpt><trkpt lat="44.2623943" lon="10.6295358"><ele>1341.2</ele><time>2026-04-26T09:01:10.235Z</time></trkpt><trkpt lat="44.2625026" lon="10.6294258"><ele>1341.8000000000002</ele><time>2026-04-26T09:01:12.232Z</time></trkpt><trkpt lat="44.2625723" lon="10.6293212"><ele>1342.4</ele><time>2026-04-26T09:01:14.236Z</time></trkpt><trkpt lat="44.2625993" lon="10.6292405"><ele>1343.0</ele><time>2026-04-26T09:01:16.266Z</time></trkpt><trkpt lat="44.2626441" lon="10.6291506"><ele>1343.0</ele><time>2026-04-26T09:01:18.231Z</time></trkpt><trkpt lat="44.2627252" lon="10.6290101"><ele>1343.0</ele><time>2026-04-26T09:01:20.229Z</time></trkpt><trkpt lat="44.2627703" lon="10.6289438"><ele>1343.0</ele><time>2026-04-26T09:01:21.259Z</time></trkpt><trkpt lat="44.2628533" lon="10.6288057"><ele>1343.0</ele><time>2026-04-26T09:01:23.238Z</time></trkpt><trkpt lat="44.2628933" lon="10.6287223"><ele>1343.0</ele><time>2026-04-26T09:01:24.232Z</time></trkpt><trkpt lat="44.2629146" lon="10.6286269"><ele>1341.5</ele><time>2026-04-26T09:01:25.232Z</time></trkpt><trkpt lat="44.2629379" lon="10.6285153"><ele>1340.0</ele><time>2026-04-26T09:01:26.231Z</time></trkpt><trkpt lat="44.2629576" lon="10.6284014"><ele>1338.5</ele><time>2026-04-26T09:01:27.236Z</time></trkpt><trkpt lat="44.2629775" lon="10.6282868"><ele>1337.0</ele><time>2026-04-26T09:01:28.242Z</time></trkpt><trkpt lat="44.262996" lon="10.628194"><ele>1335.5</ele><time>2026-04-26T09:01:29.228Z</time></trkpt><trkpt lat="44.2630282" lon="10.6281147"><ele>1334.0</ele><time>2026-04-26T09:01:30.23Z</time></trkpt><trkpt lat="44.2630619" lon="10.6280303"><ele>1334.0</ele><time>2026-04-26T09:01:31.232Z</time></trkpt><trkpt lat="44.2630908" lon="10.6279403"><ele>1334.0</ele><time>2026-04-26T09:01:32.232Z</time></trkpt><trkpt lat="44.2631183" lon="10.6278416"><ele>1334.0</ele><time>2026-04-26T09:01:33.231Z</time></trkpt><trkpt lat="44.2631533" lon="10.6277202"><ele>1334.0</ele><time>2026-04-26T09:01:34.233Z</time></trkpt><trkpt lat="44.2631876" lon="10.6275815"><ele>1334.0</ele><time>2026-04-26T09:01:35.233Z</time></trkpt><trkpt lat="44.2632204" lon="10.6274449"><ele>1334.0</ele><time>2026-04-26T09:01:36.234Z</time></trkpt><trkpt lat="44.2632572" lon="10.6273119"><ele>1334.6666666666667</ele><time>2026-04-26T09:01:37.246Z</time></trkpt><trkpt lat="44.2632983" lon="10.6271829"><ele>1335.3333333333335</ele><time>2026-04-26T09:01:38.231Z</time></trkpt><trkpt lat="44.263337" lon="10.6270506"><ele>1336.0</ele><time>2026-04-26T09:01:39.228Z</time></trkpt><trkpt lat="44.2633484" lon="10.6269255"><ele>1336.6666666666667</ele><time>2026-04-26T09:01:40.232Z</time></trkpt><trkpt lat="44.2633426" lon="10.626818"><ele>1337.3333333333333</ele><time>2026-04-26T09:01:41.228Z</time></trkpt><trkpt lat="44.2633122" lon="10.6267265"><ele>1338.0</ele><time>2026-04-26T09:01:42.238Z</time></trkpt><trkpt lat="44.2632604" lon="10.6266538"><ele>1338.0</ele><time>2026-04-26T09:01:43.231Z</time></trkpt><trkpt lat="44.2632002" lon="10.6266102"><ele>1338.0</ele><time>2026-04-26T09:01:44.25Z</time></trkpt><trkpt lat="44.2631374" lon="10.6266018"><ele>1338.0</ele><time>2026-04-26T09:01:45.231Z</time></trkpt><trkpt lat="44.2630289" lon="10.6266014"><ele>1338.0</ele><time>2026-04-26T09:01:47.231Z</time></trkpt><trkpt lat="44.2629515" lon="10.6264518"><ele>1338.0</ele><time>2026-04-26T09:01:49.23Z</time></trkpt><trkpt lat="44.2629314" lon="10.6263461"><ele>1337.6666666666667</ele><time>2026-04-26T09:01:50.235Z</time></trkpt><trkpt lat="44.2629531" lon="10.6262276"><ele>1337.3333333333333</ele><time>2026-04-26T09:01:51.236Z</time></trkpt><trkpt lat="44.2629915" lon="10.6261366"><ele>1337.0</ele><time>2026-04-26T09:01:52.236Z</time></trkpt><trkpt lat="44.2630355" lon="10.6260599"><ele>1336.6666666666665</ele><time>2026-04-26T09:01:53.27Z</time></trkpt><trkpt lat="44.2630899" lon="10.6259805"><ele>1336.3333333333333</ele><time>2026-04-26T09:01:54.236Z</time></trkpt><trkpt lat="44.2631354" lon="10.6258989"><ele>1336.0</ele><time>2026-04-26T09:01:55.229Z</time></trkpt><trkpt lat="44.2631633" lon="10.6258057"><ele>1336.0</ele><time>2026-04-26T09:01:56.233Z</time></trkpt><trkpt lat="44.2631738" lon="10.6257127"><ele>1336.0</ele><time>2026-04-26T09:01:57.233Z</time></trkpt><trkpt lat="44.2631692" lon="10.625615"><ele>1336.0</ele><time>2026-04-26T09:01:58.235Z</time></trkpt><trkpt lat="44.2631511" lon="10.6255253"><ele>1336.0</ele><time>2026-04-26T09:01:59.227Z</time></trkpt><trkpt lat="44.2631258" lon="10.6253991"><ele>1336.0</ele><time>2026-04-26T09:02:01.227Z</time></trkpt><trkpt lat="44.2630676" lon="10.6252982"><ele>1336.0</ele><time>2026-04-26T09:02:03.23Z</time></trkpt><trkpt lat="44.2629822" lon="10.6251453"><ele>1332.1666666666665</ele><time>2026-04-26T09:02:05.261Z</time></trkpt><trkpt lat="44.2629382" lon="10.6250464"><ele>1328.3333333333333</ele><time>2026-04-26T09:02:06.232Z</time></trkpt><trkpt lat="44.2628878" lon="10.6249452"><ele>1324.5</ele><time>2026-04-26T09:02:07.229Z</time></trkpt><trkpt lat="44.2628469" lon="10.6248504"><ele>1320.6666666666667</ele><time>2026-04-26T09:02:08.225Z</time></trkpt><trkpt lat="44.2628233" lon="10.6247307"><ele>1316.8333333333335</ele><time>2026-04-26T09:02:09.222Z</time></trkpt><trkpt lat="44.2628122" lon="10.624607"><ele>1313.0</ele><time>2026-04-26T09:02:10.227Z</time></trkpt><trkpt lat="44.2627982" lon="10.6244777"><ele>1312.8333333333335</ele><time>2026-04-26T09:02:11.23Z</time></trkpt><trkpt lat="44.2628017" lon="10.6243606"><ele>1312.6666666666667</ele><time>2026-04-26T09:02:12.227Z</time></trkpt><trkpt lat="44.262816" lon="10.6242616"><ele>1312.5</ele><time>2026-04-26T09:02:13.243Z</time></trkpt><trkpt lat="44.2628392" lon="10.6241641"><ele>1312.3333333333333</ele><time>2026-04-26T09:02:14.226Z</time></trkpt><trkpt lat="44.2628686" lon="10.6240508"><ele>1312.1666666666665</ele><time>2026-04-26T09:02:15.226Z</time></trkpt><trkpt lat="44.2628973" lon="10.6239328"><ele>1312.0</ele><time>2026-04-26T09:02:16.228Z</time></trkpt><trkpt lat="44.2629297" lon="10.6238197"><ele>1312.0</ele><time>2026-04-26T09:02:17.233Z</time></trkpt><trkpt lat="44.2629707" lon="10.6237264"><ele>1312.0</ele><time>2026-04-26T09:02:18.225Z</time></trkpt><trkpt lat="44.263017" lon="10.6236422"><ele>1312.0</ele><time>2026-04-26T09:02:19.248Z</time></trkpt><trkpt lat="44.2630483" lon="10.6235485"><ele>1312.0</ele><time>2026-04-26T09:02:20.228Z</time></trkpt><trkpt lat="44.2630784" lon="10.623414"><ele>1312.0</ele><time>2026-04-26T09:02:22.232Z</time></trkpt><trkpt lat="44.2630646" lon="10.6232899"><ele>1312.0</ele><time>2026-04-26T09:02:24.227Z</time></trkpt><trkpt lat="44.2630404" lon="10.6232053"><ele>1310.1666666666665</ele><time>2026-04-26T09:02:25.228Z</time></trkpt><trkpt lat="44.2630211" lon="10.6231116"><ele>1308.3333333333333</ele><time>2026-04-26T09:02:26.227Z</time></trkpt><trkpt lat="44.2630066" lon="10.623016"><ele>1306.5</ele><time>2026-04-26T09:02:27.224Z</time></trkpt><trkpt lat="44.262988" lon="10.6228942"><ele>1304.6666666666667</ele><time>2026-04-26T09:02:28.228Z</time></trkpt><trkpt lat="44.2629626" lon="10.6227644"><ele>1302.8333333333335</ele><time>2026-04-26T09:02:29.228Z</time></trkpt><trkpt lat="44.2629455" lon="10.6226545"><ele>1301.0</ele><time>2026-04-26T09:02:30.228Z</time></trkpt><trkpt lat="44.2629328" lon="10.622537"><ele>1299.3333333333335</ele><time>2026-04-26T09:02:31.229Z</time></trkpt><trkpt lat="44.2629004" lon="10.6224326"><ele>1297.6666666666667</ele><time>2026-04-26T09:02:32.244Z</time></trkpt><trkpt lat="44.262837" lon="10.6222871"><ele>1296.0</ele><time>2026-04-26T09:02:34.227Z</time></trkpt><trkpt lat="44.2627797" lon="10.6222121"><ele>1294.3333333333333</ele><time>2026-04-26T09:02:35.23Z</time></trkpt><trkpt lat="44.2627169" lon="10.6221889"><ele>1292.6666666666665</ele><time>2026-04-26T09:02:36.231Z</time></trkpt><trkpt lat="44.2626273" lon="10.6221918"><ele>1291.0</ele><time>2026-04-26T09:02:37.231Z</time></trkpt><trkpt lat="44.2625534" lon="10.622208"><ele>1291.0</ele><time>2026-04-26T09:02:38.227Z</time></trkpt><trkpt lat="44.2624894" lon="10.6222293"><ele>1291.0</ele><time>2026-04-26T09:02:39.24Z</time></trkpt><trkpt lat="44.2624271" lon="10.6222425"><ele>1291.0</ele><time>2026-04-26T09:02:40.232Z</time></trkpt><trkpt lat="44.262323" lon="10.6222905"><ele>1291.0</ele><time>2026-04-26T09:02:42.231Z</time></trkpt><trkpt lat="44.262249" lon="10.6223045"><ele>1291.0</ele><time>2026-04-26T09:02:43.236Z</time></trkpt><trkpt lat="44.2621717" lon="10.6223142"><ele>1291.0</ele><time>2026-04-26T09:02:44.231Z</time></trkpt><trkpt lat="44.2620748" lon="10.622323"><ele>1288.5</ele><time>2026-04-26T09:02:45.23Z</time></trkpt><trkpt lat="44.2619969" lon="10.6223352"><ele>1286.0</ele><time>2026-04-26T09:02:46.229Z</time></trkpt><trkpt lat="44.2619279" lon="10.6223351"><ele>1283.5</ele><time>2026-04-26T09:02:47.23Z</time></trkpt><trkpt lat="44.2618408" lon="10.6222649"><ele>1281.0</ele><time>2026-04-26T09:02:49.235Z</time></trkpt><trkpt lat="44.2617841" lon="10.6221919"><ele>1278.5</ele><time>2026-04-26T09:02:50.266Z</time></trkpt><trkpt lat="44.2617142" lon="10.622101"><ele>1276.0</ele><time>2026-04-26T09:02:51.228Z</time></trkpt><trkpt lat="44.2616635" lon="10.6220047"><ele>1276.3999999999999</ele><time>2026-04-26T09:02:52.231Z</time></trkpt><trkpt lat="44.2616292" lon="10.6219232"><ele>1276.8</ele><time>2026-04-26T09:02:53.236Z</time></trkpt><trkpt lat="44.2615863" lon="10.6218207"><ele>1277.1999999999998</ele><time>2026-04-26T09:02:54.227Z</time></trkpt><trkpt lat="44.2615511" lon="10.6216838"><ele>1277.6</ele><time>2026-04-26T09:02:55.23Z</time></trkpt><trkpt lat="44.2615199" lon="10.6215373"><ele>1278.0</ele><time>2026-04-26T09:02:56.227Z</time></trkpt><trkpt lat="44.2614792" lon="10.6213871"><ele>1274.8</ele><time>2026-04-26T09:02:57.24Z</time></trkpt><trkpt lat="44.2614358" lon="10.6212349"><ele>1271.6</ele><time>2026-04-26T09:02:58.231Z</time></trkpt><trkpt lat="44.2613895" lon="10.6210994"><ele>1268.4</ele><time>2026-04-26T09:02:59.229Z</time></trkpt><trkpt lat="44.2613467" lon="10.6209768"><ele>1265.2</ele><time>2026-04-26T09:03:00.228Z</time></trkpt><trkpt lat="44.2613048" lon="10.6208551"><ele>1262.0</ele><time>2026-04-26T09:03:01.236Z</time></trkpt><trkpt lat="44.2612536" lon="10.6207534"><ele>1262.0</ele><time>2026-04-26T09:03:02.232Z</time></trkpt><trkpt lat="44.2612095" lon="10.6206671"><ele>1262.0</ele><time>2026-04-26T09:03:03.249Z</time></trkpt><trkpt lat="44.2611622" lon="10.6205799"><ele>1262.0</ele><time>2026-04-26T09:03:04.232Z</time></trkpt><trkpt lat="44.2611276" lon="10.6204835"><ele>1262.0</ele><time>2026-04-26T09:03:05.23Z</time></trkpt><trkpt lat="44.2610821" lon="10.6203736"><ele>1262.0</ele><time>2026-04-26T09:03:06.231Z</time></trkpt><trkpt lat="44.2610233" lon="10.620277"><ele>1262.0</ele><time>2026-04-26T09:03:07.232Z</time></trkpt><trkpt lat="44.2609619" lon="10.6201977"><ele>1262.1666666666667</ele><time>2026-04-26T09:03:08.241Z</time></trkpt><trkpt lat="44.2608972" lon="10.620144"><ele>1262.3333333333335</ele><time>2026-04-26T09:03:09.232Z</time></trkpt><trkpt lat="44.2608332" lon="10.6201137"><ele>1262.5</ele><time>2026-04-26T09:03:10.231Z</time></trkpt><trkpt lat="44.2607243" lon="10.6200857"><ele>1262.6666666666667</ele><time>2026-04-26T09:03:12.233Z</time></trkpt><trkpt lat="44.2606564" lon="10.6200619"><ele>1262.8333333333333</ele><time>2026-04-26T09:03:14.229Z</time></trkpt><trkpt lat="44.2605722" lon="10.6200401"><ele>1263.0</ele><time>2026-04-26T09:03:16.23Z</time></trkpt><trkpt lat="44.2604861" lon="10.6200239"><ele>1263.25</ele><time>2026-04-26T09:03:18.233Z</time></trkpt><trkpt lat="44.2603721" lon="10.6199828"><ele>1263.5</ele><time>2026-04-26T09:04:29.237Z</time></trkpt><trkpt lat="44.2602403" lon="10.6199331"><ele>1263.75</ele><time>2026-04-26T09:04:31.23Z</time></trkpt><trkpt lat="44.2601497" lon="10.6198687"><ele>1264.0</ele><time>2026-04-26T09:04:32.235Z</time></trkpt><trkpt lat="44.2600537" lon="10.6197981"><ele>1264.0</ele><time>2026-04-26T09:04:33.228Z</time></trkpt><trkpt lat="44.2599473" lon="10.6197239"><ele>1264.0</ele><time>2026-04-26T09:04:34.229Z</time></trkpt><trkpt lat="44.2598374" lon="10.6196463"><ele>1264.0</ele><time>2026-04-26T09:04:35.232Z</time></trkpt><trkpt lat="44.2597395" lon="10.6195722"><ele>1264.0</ele><time>2026-04-26T09:04:36.234Z</time></trkpt><trkpt lat="44.2596465" lon="10.6195071"><ele>1264.1666666666665</ele><time>2026-04-26T09:04:37.231Z</time></trkpt><trkpt lat="44.2595608" lon="10.619454"><ele>1264.3333333333333</ele><time>2026-04-26T09:04:38.229Z</time></trkpt><trkpt lat="44.2594828" lon="10.6194046"><ele>1264.5</ele><time>2026-04-26T09:04:39.226Z</time></trkpt><trkpt lat="44.2594181" lon="10.6193492"><ele>1264.6666666666667</ele><time>2026-04-26T09:04:40.223Z</time></trkpt><trkpt lat="44.2593654" lon="10.619295"><ele>1264.8333333333335</ele><time>2026-04-26T09:04:41.227Z</time></trkpt><trkpt lat="44.2592869" lon="10.6192029"><ele>1265.0</ele><time>2026-04-26T09:04:43.228Z</time></trkpt><trkpt lat="44.259235" lon="10.6191241"><ele>1265.0</ele><time>2026-04-26T09:04:45.226Z</time></trkpt><trkpt lat="44.2591933" lon="10.6190386"><ele>1265.0</ele><time>2026-04-26T09:04:47.227Z</time></trkpt><trkpt lat="44.259135" lon="10.6189094"><ele>1265.0</ele><time>2026-04-26T09:04:49.231Z</time></trkpt><trkpt lat="44.2590991" lon="10.6188243"><ele>1265.0</ele><time>2026-04-26T09:04:50.227Z</time></trkpt><trkpt lat="44.2590409" lon="10.6187048"><ele>1265.0</ele><time>2026-04-26T09:04:51.229Z</time></trkpt><trkpt lat="44.2589865" lon="10.6185813"><ele>1263.0</ele><time>2026-04-26T09:04:52.229Z</time></trkpt><trkpt lat="44.2589085" lon="10.6184518"><ele>1261.0</ele><time>2026-04-26T09:04:53.237Z</time></trkpt><trkpt lat="44.2588203" lon="10.6183358"><ele>1259.0</ele><time>2026-04-26T09:04:54.231Z</time></trkpt><trkpt lat="44.2587179" lon="10.61824"><ele>1257.0</ele><time>2026-04-26T09:04:55.228Z</time></trkpt><trkpt lat="44.2586023" lon="10.6181574"><ele>1257.0</ele><time>2026-04-26T09:04:56.229Z</time></trkpt><trkpt lat="44.2584849" lon="10.6180788"><ele>1257.0</ele><time>2026-04-26T09:04:57.229Z</time></trkpt><trkpt lat="44.2583369" lon="10.6180316"><ele>1257.0</ele><time>2026-04-26T09:04:58.232Z</time></trkpt><trkpt lat="44.2581758" lon="10.6179834"><ele>1257.0</ele><time>2026-04-26T09:04:59.23Z</time></trkpt><trkpt lat="44.2580127" lon="10.6179339"><ele>1256.0</ele><time>2026-04-26T09:05:00.228Z</time></trkpt><trkpt lat="44.2578616" lon="10.6178837"><ele>1255.0</ele><time>2026-04-26T09:05:01.228Z</time></trkpt><trkpt lat="44.2577166" lon="10.6178162"><ele>1254.0</ele><time>2026-04-26T09:05:02.231Z</time></trkpt><trkpt lat="44.2575699" lon="10.6177402"><ele>1254.0</ele><time>2026-04-26T09:05:03.231Z</time></trkpt><trkpt lat="44.25742" lon="10.6176685"><ele>1254.0</ele><time>2026-04-26T09:05:04.235Z</time></trkpt><trkpt lat="44.2572704" lon="10.6176102"><ele>1254.0</ele><time>2026-04-26T09:05:05.24Z</time></trkpt><trkpt lat="44.2571298" lon="10.6175789"><ele>1254.75</ele><time>2026-04-26T09:05:06.233Z</time></trkpt><trkpt lat="44.2570018" lon="10.617556"><ele>1255.5</ele><time>2026-04-26T09:05:07.235Z</time></trkpt><trkpt lat="44.256896" lon="10.6175031"><ele>1256.25</ele><time>2026-04-26T09:05:08.232Z</time></trkpt><trkpt lat="44.2567992" lon="10.6174178"><ele>1257.0</ele><time>2026-04-26T09:05:09.239Z</time></trkpt><trkpt lat="44.2567456" lon="10.6173037"><ele>1257.0</ele><time>2026-04-26T09:05:10.237Z</time></trkpt><trkpt lat="44.2567177" lon="10.6171594"><ele>1257.0</ele><time>2026-04-26T09:05:11.235Z</time></trkpt><trkpt lat="44.2567161" lon="10.6169788"><ele>1257.0</ele><time>2026-04-26T09:05:12.229Z</time></trkpt><trkpt lat="44.256685" lon="10.6168057"><ele>1257.0</ele><time>2026-04-26T09:05:13.23Z</time></trkpt><trkpt lat="44.2566458" lon="10.6166279"><ele>1256.6</ele><time>2026-04-26T09:05:14.239Z</time></trkpt><trkpt lat="44.2565828" lon="10.6164975"><ele>1256.2</ele><time>2026-04-26T09:05:15.232Z</time></trkpt><trkpt lat="44.2564974" lon="10.6164087"><ele>1255.8</ele><time>2026-04-26T09:05:16.229Z</time></trkpt><trkpt lat="44.2563994" lon="10.6163681"><ele>1255.4</ele><time>2026-04-26T09:05:17.227Z</time></trkpt><trkpt lat="44.2563008" lon="10.6163366"><ele>1255.0</ele><time>2026-04-26T09:05:18.238Z</time></trkpt><trkpt lat="44.2561743" lon="10.6163247"><ele>1257.0</ele><time>2026-04-26T09:05:19.24Z</time></trkpt><trkpt lat="44.2560248" lon="10.6163193"><ele>1259.0</ele><time>2026-04-26T09:05:20.23Z</time></trkpt><trkpt lat="44.2558673" lon="10.6163068"><ele>1261.0</ele><time>2026-04-26T09:05:21.234Z</time></trkpt><trkpt lat="44.2557065" lon="10.6162667"><ele>1262.25</ele><time>2026-04-26T09:05:22.237Z</time></trkpt><trkpt lat="44.2555586" lon="10.6162359"><ele>1263.5</ele><time>2026-04-26T09:05:23.229Z</time></trkpt><trkpt lat="44.2554153" lon="10.616213"><ele>1264.75</ele><time>2026-04-26T09:05:24.231Z</time></trkpt><trkpt lat="44.2552795" lon="10.6162093"><ele>1266.0</ele><time>2026-04-26T09:05:25.231Z</time></trkpt><trkpt lat="44.2551389" lon="10.6162428"><ele>1266.0</ele><time>2026-04-26T09:05:26.226Z</time></trkpt><trkpt lat="44.255011" lon="10.6163018"><ele>1266.0</ele><time>2026-04-26T09:05:27.226Z</time></trkpt><trkpt lat="44.2548662" lon="10.6163714"><ele>1266.0</ele><time>2026-04-26T09:05:28.23Z</time></trkpt><trkpt lat="44.2547332" lon="10.6164581"><ele>1266.0</ele><time>2026-04-26T09:05:29.234Z</time></trkpt><trkpt lat="44.2545433" lon="10.6165944"><ele>1267.5</ele><time>2026-04-26T09:05:30.235Z</time></trkpt><trkpt lat="44.2544087" lon="10.616656"><ele>1269.0</ele><time>2026-04-26T09:05:31.228Z</time></trkpt><trkpt lat="44.2542612" lon="10.6167443"><ele>1270.5</ele><time>2026-04-26T09:05:32.236Z</time></trkpt><trkpt lat="44.2541515" lon="10.6167968"><ele>1272.0</ele><time>2026-04-26T09:05:33.235Z</time></trkpt><trkpt lat="44.2540512" lon="10.6167941"><ele>1270.5</ele><time>2026-04-26T09:05:34.236Z</time></trkpt><trkpt lat="44.2539483" lon="10.6167715"><ele>1269.0</ele><time>2026-04-26T09:05:35.229Z</time></trkpt><trkpt lat="44.25383" lon="10.6167118"><ele>1267.5</ele><time>2026-04-26T09:05:36.227Z</time></trkpt><trkpt lat="44.2537115" lon="10.6166466"><ele>1266.0</ele><time>2026-04-26T09:05:37.227Z</time></trkpt><trkpt lat="44.2535804" lon="10.6165872"><ele>1266.0</ele><time>2026-04-26T09:05:38.227Z</time></trkpt><trkpt lat="44.2534489" lon="10.6165197"><ele>1266.0</ele><time>2026-04-26T09:05:39.229Z</time></trkpt><trkpt lat="44.2533219" lon="10.6164724"><ele>1266.0</ele><time>2026-04-26T09:05:40.226Z</time></trkpt><trkpt lat="44.2531944" lon="10.6164561"><ele>1266.0</ele><time>2026-04-26T09:05:41.228Z</time></trkpt><trkpt lat="44.2530659" lon="10.6164775"><ele>1265.0</ele><time>2026-04-26T09:05:42.235Z</time></trkpt><trkpt lat="44.2529444" lon="10.6165199"><ele>1264.0</ele><time>2026-04-26T09:05:43.232Z</time></trkpt><trkpt lat="44.252815" lon="10.6165522"><ele>1263.0</ele><time>2026-04-26T09:05:44.227Z</time></trkpt><trkpt lat="44.2526791" lon="10.616607"><ele>1262.0</ele><time>2026-04-26T09:05:45.227Z</time></trkpt><trkpt lat="44.2525595" lon="10.616684"><ele>1262.0</ele><time>2026-04-26T09:05:46.223Z</time></trkpt><trkpt lat="44.2524298" lon="10.6167371"><ele>1262.0</ele><time>2026-04-26T09:05:47.226Z</time></trkpt><trkpt lat="44.252312" lon="10.6168003"><ele>1262.0</ele><time>2026-04-26T09:05:48.242Z</time></trkpt><trkpt lat="44.2522066" lon="10.6168705"><ele>1262.0</ele><time>2026-04-26T09:05:49.228Z</time></trkpt><trkpt lat="44.252121" lon="10.6169331"><ele>1262.25</ele><time>2026-04-26T09:05:50.231Z</time></trkpt><trkpt lat="44.2520096" lon="10.6169207"><ele>1262.5</ele><time>2026-04-26T09:05:51.231Z</time></trkpt><trkpt lat="44.2518973" lon="10.6168548"><ele>1262.75</ele><time>2026-04-26T09:05:52.227Z</time></trkpt><trkpt lat="44.2518142" lon="10.6167493"><ele>1263.0</ele><time>2026-04-26T09:05:53.225Z</time></trkpt><trkpt lat="44.2517115" lon="10.6166902"><ele>1263.0</ele><time>2026-04-26T09:05:54.223Z</time></trkpt><trkpt lat="44.2516087" lon="10.6167097"><ele>1263.0</ele><time>2026-04-26T09:05:55.224Z</time></trkpt><trkpt lat="44.2514534" lon="10.6167855"><ele>1263.0</ele><time>2026-04-26T09:05:56.225Z</time></trkpt><trkpt lat="44.251319" lon="10.6168282"><ele>1263.0</ele><time>2026-04-26T09:05:57.23Z</time></trkpt><trkpt lat="44.2511737" lon="10.6168022"><ele>1263.2</ele><time>2026-04-26T09:05:58.226Z</time></trkpt><trkpt lat="44.2510626" lon="10.6167532"><ele>1263.4</ele><time>2026-04-26T09:05:59.227Z</time></trkpt><trkpt lat="44.2509598" lon="10.6166879"><ele>1263.6000000000001</ele><time>2026-04-26T09:06:00.225Z</time></trkpt><trkpt lat="44.250862" lon="10.6166067"><ele>1263.8</ele><time>2026-04-26T09:06:01.228Z</time></trkpt><trkpt lat="44.2507837" lon="10.6165161"><ele>1264.0</ele><time>2026-04-26T09:06:02.225Z</time></trkpt><trkpt lat="44.2507141" lon="10.6164492"><ele>1266.0</ele><time>2026-04-26T09:06:03.226Z</time></trkpt><trkpt lat="44.2506167" lon="10.616433"><ele>1268.0</ele><time>2026-04-26T09:06:04.225Z</time></trkpt><trkpt lat="44.2505128" lon="10.6164669"><ele>1270.0</ele><time>2026-04-26T09:06:05.228Z</time></trkpt><trkpt lat="44.2503424" lon="10.6165308"><ele>1272.0</ele><time>2026-04-26T09:06:06.231Z</time></trkpt><trkpt lat="44.2501796" lon="10.6166097"><ele>1272.0</ele><time>2026-04-26T09:06:07.228Z</time></trkpt><trkpt lat="44.2500411" lon="10.6166771"><ele>1272.0</ele><time>2026-04-26T09:06:08.231Z</time></trkpt><trkpt lat="44.249919" lon="10.6167583"><ele>1272.0</ele><time>2026-04-26T09:06:09.232Z</time></trkpt><trkpt lat="44.2497569" lon="10.6168631"><ele>1272.25</ele><time>2026-04-26T09:06:10.235Z</time></trkpt><trkpt lat="44.2496237" lon="10.6169365"><ele>1272.5</ele><time>2026-04-26T09:06:11.228Z</time></trkpt><trkpt lat="44.2495067" lon="10.6170191"><ele>1272.75</ele><time>2026-04-26T09:06:12.23Z</time></trkpt><trkpt lat="44.249388" lon="10.6170839"><ele>1273.0</ele><time>2026-04-26T09:06:13.237Z</time></trkpt><trkpt lat="44.2492636" lon="10.6171885"><ele>1273.0</ele><time>2026-04-26T09:06:14.237Z</time></trkpt><trkpt lat="44.2491652" lon="10.6172404"><ele>1273.0</ele><time>2026-04-26T09:06:15.237Z</time></trkpt><trkpt lat="44.2490572" lon="10.6172382"><ele>1273.0</ele><time>2026-04-26T09:06:16.23Z</time></trkpt><trkpt lat="44.2489363" lon="10.6172074"><ele>1273.0</ele><time>2026-04-26T09:06:17.227Z</time></trkpt><trkpt lat="44.2487925" lon="10.6171791"><ele>1274.3333333333333</ele><time>2026-04-26T09:06:18.224Z</time></trkpt><trkpt lat="44.2486503" lon="10.6171755"><ele>1275.6666666666667</ele><time>2026-04-26T09:06:19.229Z</time></trkpt><trkpt lat="44.2485022" lon="10.617164"><ele>1277.0</ele><time>2026-04-26T09:06:20.232Z</time></trkpt><trkpt lat="44.2483365" lon="10.6171564"><ele>1277.0</ele><time>2026-04-26T09:06:21.231Z</time></trkpt><trkpt lat="44.2481731" lon="10.6171354"><ele>1277.0</ele><time>2026-04-26T09:06:22.235Z</time></trkpt><trkpt lat="44.2480354" lon="10.6171558"><ele>1277.0</ele><time>2026-04-26T09:06:23.227Z</time></trkpt><trkpt lat="44.24792" lon="10.6171841"><ele>1277.0</ele><time>2026-04-26T09:06:24.232Z</time></trkpt><trkpt lat="44.2478143" lon="10.6172192"><ele>1283.75</ele><time>2026-04-26T09:06:25.227Z</time></trkpt><trkpt lat="44.2477241" lon="10.6173038"><ele>1290.5</ele><time>2026-04-26T09:06:26.234Z</time></trkpt><trkpt lat="44.2476293" lon="10.6174102"><ele>1297.25</ele><time>2026-04-26T09:06:27.227Z</time></trkpt><trkpt lat="44.2475178" lon="10.6175495"><ele>1304.0</ele><time>2026-04-26T09:06:28.227Z</time></trkpt><trkpt lat="44.2474136" lon="10.6177169"><ele>1304.0</ele><time>2026-04-26T09:06:29.231Z</time></trkpt><trkpt lat="44.2473271" lon="10.6178529"><ele>1304.0</ele><time>2026-04-26T09:06:30.233Z</time></trkpt><trkpt lat="44.2472561" lon="10.6179913"><ele>1304.0</ele><time>2026-04-26T09:06:31.223Z</time></trkpt><trkpt lat="44.2471744" lon="10.6181127"><ele>1304.0</ele><time>2026-04-26T09:06:32.226Z</time></trkpt><trkpt lat="44.2470737" lon="10.6182155"><ele>1304.0</ele><time>2026-04-26T09:06:33.225Z</time></trkpt><trkpt lat="44.2469644" lon="10.6183307"><ele>1304.0</ele><time>2026-04-26T09:06:34.225Z</time></trkpt><trkpt lat="44.2467985" lon="10.6184593"><ele>1304.0</ele><time>2026-04-26T09:06:35.225Z</time></trkpt><trkpt lat="44.2466273" lon="10.618558"><ele>1304.6666666666667</ele><time>2026-04-26T09:06:36.225Z</time></trkpt><trkpt lat="44.2464798" lon="10.6186918"><ele>1305.3333333333333</ele><time>2026-04-26T09:06:37.227Z</time></trkpt><trkpt lat="44.2463557" lon="10.6188387"><ele>1306.0</ele><time>2026-04-26T09:06:38.24Z</time></trkpt><trkpt lat="44.2462217" lon="10.6189455"><ele>1306.0</ele><time>2026-04-26T09:06:39.229Z</time></trkpt><trkpt lat="44.2461016" lon="10.6190448"><ele>1306.0</ele><time>2026-04-26T09:06:40.226Z</time></trkpt><trkpt lat="44.2459711" lon="10.6190978"><ele>1306.0</ele><time>2026-04-26T09:06:41.225Z</time></trkpt><trkpt lat="44.245833" lon="10.6191133"><ele>1306.0</ele><time>2026-04-26T09:06:42.227Z</time></trkpt><trkpt lat="44.2456935" lon="10.6191309"><ele>1304.4</ele><time>2026-04-26T09:06:43.225Z</time></trkpt><trkpt lat="44.2455641" lon="10.6191477"><ele>1302.8</ele><time>2026-04-26T09:06:44.231Z</time></trkpt><trkpt lat="44.2454648" lon="10.6191181"><ele>1301.2</ele><time>2026-04-26T09:06:45.232Z</time></trkpt><trkpt lat="44.2453679" lon="10.6190801"><ele>1299.6000000000001</ele><time>2026-04-26T09:06:46.241Z</time></trkpt><trkpt lat="44.245274" lon="10.6189907"><ele>1298.0</ele><time>2026-04-26T09:06:47.223Z</time></trkpt><trkpt lat="44.2451729" lon="10.6188601"><ele>1298.0</ele><time>2026-04-26T09:06:48.229Z</time></trkpt><trkpt lat="44.2450453" lon="10.6186964"><ele>1298.0</ele><time>2026-04-26T09:06:49.225Z</time></trkpt><trkpt lat="44.244917" lon="10.6185492"><ele>1298.0</ele><time>2026-04-26T09:06:50.227Z</time></trkpt><trkpt lat="44.2448183" lon="10.6184189"><ele>1296.25</ele><time>2026-04-26T09:06:51.229Z</time></trkpt><trkpt lat="44.2447399" lon="10.6182985"><ele>1294.5</ele><time>2026-04-26T09:06:52.228Z</time></trkpt><trkpt lat="44.2446959" lon="10.6181541"><ele>1292.75</ele><time>2026-04-26T09:06:53.231Z</time></trkpt><trkpt lat="44.2446576" lon="10.617987"><ele>1291.0</ele><time>2026-04-26T09:06:54.228Z</time></trkpt><trkpt lat="44.2446322" lon="10.6177985"><ele>1291.0</ele><time>2026-04-26T09:06:55.228Z</time></trkpt><trkpt lat="44.2446043" lon="10.6176073"><ele>1291.0</ele><time>2026-04-26T09:06:56.228Z</time></trkpt><trkpt lat="44.2445541" lon="10.6174498"><ele>1291.0</ele><time>2026-04-26T09:06:57.227Z</time></trkpt><trkpt lat="44.2444842" lon="10.6173221"><ele>1291.0</ele><time>2026-04-26T09:06:58.232Z</time></trkpt><trkpt lat="44.2444" lon="10.6171652"><ele>1291.0</ele><time>2026-04-26T09:06:59.229Z</time></trkpt><trkpt lat="44.2442867" lon="10.6170391"><ele>1291.0</ele><time>2026-04-26T09:07:00.229Z</time></trkpt><trkpt lat="44.244179" lon="10.6169338"><ele>1291.0</ele><time>2026-04-26T09:07:01.23Z</time></trkpt><trkpt lat="44.2441089" lon="10.616858"><ele>1291.0</ele><time>2026-04-26T09:07:02.227Z</time></trkpt><trkpt lat="44.2439831" lon="10.6168132"><ele>1290.75</ele><time>2026-04-26T09:07:04.224Z</time></trkpt><trkpt lat="44.243894" lon="10.616805"><ele>1290.5</ele><time>2026-04-26T09:07:05.227Z</time></trkpt><trkpt lat="44.2437362" lon="10.616819"><ele>1290.25</ele><time>2026-04-26T09:07:06.225Z</time></trkpt><trkpt lat="44.243579" lon="10.6168286"><ele>1290.0</ele><time>2026-04-26T09:07:07.225Z</time></trkpt><trkpt lat="44.2434437" lon="10.6168427"><ele>1290.0</ele><time>2026-04-26T09:07:08.231Z</time></trkpt><trkpt lat="44.2433201" lon="10.6168126"><ele>1290.0</ele><time>2026-04-26T09:07:09.226Z</time></trkpt><trkpt lat="44.243216" lon="10.6167763"><ele>1290.0</ele><time>2026-04-26T09:07:10.225Z</time></trkpt><trkpt lat="44.2431381" lon="10.6166934"><ele>1290.0</ele><time>2026-04-26T09:07:11.232Z</time></trkpt><trkpt lat="44.243066" lon="10.6165711"><ele>1290.0</ele><time>2026-04-26T09:07:12.239Z</time></trkpt><trkpt lat="44.2429963" lon="10.6163745"><ele>1289.75</ele><time>2026-04-26T09:07:13.228Z</time></trkpt><trkpt lat="44.2429365" lon="10.6161784"><ele>1289.5</ele><time>2026-04-26T09:07:14.228Z</time></trkpt><trkpt lat="44.242864" lon="10.616023"><ele>1289.25</ele><time>2026-04-26T09:07:15.226Z</time></trkpt><trkpt lat="44.2427784" lon="10.6158978"><ele>1289.0</ele><time>2026-04-26T09:07:16.227Z</time></trkpt><trkpt lat="44.242666" lon="10.6157828"><ele>1288.75</ele><time>2026-04-26T09:07:17.233Z</time></trkpt><trkpt lat="44.2425262" lon="10.6157098"><ele>1288.5</ele><time>2026-04-26T09:07:18.236Z</time></trkpt><trkpt lat="44.2423932" lon="10.6156186"><ele>1288.25</ele><time>2026-04-26T09:07:19.225Z</time></trkpt><trkpt lat="44.2422692" lon="10.6155262"><ele>1288.0</ele><time>2026-04-26T09:07:20.225Z</time></trkpt><trkpt lat="44.242158" lon="10.6154443"><ele>1287.25</ele><time>2026-04-26T09:07:21.227Z</time></trkpt><trkpt lat="44.2420439" lon="10.6153569"><ele>1286.5</ele><time>2026-04-26T09:07:22.225Z</time></trkpt><trkpt lat="44.2419379" lon="10.6152244"><ele>1285.75</ele><time>2026-04-26T09:07:23.227Z</time></trkpt><trkpt lat="44.2418571" lon="10.6150495"><ele>1285.0</ele><time>2026-04-26T09:07:24.228Z</time></trkpt><trkpt lat="44.2417553" lon="10.6148922"><ele>1284.6666666666665</ele><time>2026-04-26T09:07:25.225Z</time></trkpt><trkpt lat="44.2416889" lon="10.6147263"><ele>1284.3333333333333</ele><time>2026-04-26T09:07:26.237Z</time></trkpt><trkpt lat="44.241562" lon="10.61457"><ele>1284.0</ele><time>2026-04-26T09:07:27.229Z</time></trkpt><trkpt lat="44.2414165" lon="10.6144554"><ele>1284.0</ele><time>2026-04-26T09:07:28.227Z</time></trkpt><trkpt lat="44.2412567" lon="10.6143202"><ele>1284.0</ele><time>2026-04-26T09:07:29.229Z</time></trkpt><trkpt lat="44.2411083" lon="10.6141917"><ele>1284.0</ele><time>2026-04-26T09:07:30.23Z</time></trkpt><trkpt lat="44.2409604" lon="10.6140995"><ele>1284.0</ele><time>2026-04-26T09:07:31.227Z</time></trkpt><trkpt lat="44.2408482" lon="10.6140302"><ele>1284.0</ele><time>2026-04-26T09:07:32.223Z</time></trkpt><trkpt lat="44.2407561" lon="10.6139633"><ele>1284.0</ele><time>2026-04-26T09:07:33.226Z</time></trkpt><trkpt lat="44.2406187" lon="10.6139363"><ele>1284.0</ele><time>2026-04-26T09:07:34.229Z</time></trkpt><trkpt lat="44.2404739" lon="10.6139107"><ele>1285.2</ele><time>2026-04-26T09:07:35.224Z</time></trkpt><trkpt lat="44.2403783" lon="10.6138763"><ele>1286.4</ele><time>2026-04-26T09:07:36.223Z</time></trkpt><trkpt lat="44.2403069" lon="10.613875"><ele>1287.6</ele><time>2026-04-26T09:07:37.224Z</time></trkpt><trkpt lat="44.2402086" lon="10.6138762"><ele>1288.8</ele><time>2026-04-26T09:07:38.233Z</time></trkpt><trkpt lat="44.2401164" lon="10.6139214"><ele>1290.0</ele><time>2026-04-26T09:07:39.229Z</time></trkpt><trkpt lat="44.2400235" lon="10.6139818"><ele>1290.0</ele><time>2026-04-26T09:07:40.233Z</time></trkpt><trkpt lat="44.2399033" lon="10.6140416"><ele>1290.0</ele><time>2026-04-26T09:07:41.224Z</time></trkpt><trkpt lat="44.2398006" lon="10.6140688"><ele>1290.0</ele><time>2026-04-26T09:07:42.228Z</time></trkpt><trkpt lat="44.2397311" lon="10.6140842"><ele>1290.0</ele><time>2026-04-26T09:07:43.223Z</time></trkpt><trkpt lat="44.2395981" lon="10.6140741"><ele>1290.0</ele><time>2026-04-26T09:07:44.225Z</time></trkpt><trkpt lat="44.2394772" lon="10.6140581"><ele>1290.8</ele><time>2026-04-26T09:07:45.252Z</time></trkpt><trkpt lat="44.2393674" lon="10.6140578"><ele>1291.6</ele><time>2026-04-26T09:07:46.233Z</time></trkpt><trkpt lat="44.2392624" lon="10.6140491"><ele>1292.4</ele><time>2026-04-26T09:07:47.236Z</time></trkpt><trkpt lat="44.2391529" lon="10.6139911"><ele>1293.2</ele><time>2026-04-26T09:07:48.227Z</time></trkpt><trkpt lat="44.2390537" lon="10.6139166"><ele>1294.0</ele><time>2026-04-26T09:07:49.231Z</time></trkpt><trkpt lat="44.2389669" lon="10.6138368"><ele>1294.75</ele><time>2026-04-26T09:07:50.226Z</time></trkpt><trkpt lat="44.2388568" lon="10.6137668"><ele>1295.5</ele><time>2026-04-26T09:07:51.228Z</time></trkpt><trkpt lat="44.238739" lon="10.6136822"><ele>1296.25</ele><time>2026-04-26T09:07:52.229Z</time></trkpt><trkpt lat="44.2386196" lon="10.6135973"><ele>1297.0</ele><time>2026-04-26T09:07:53.232Z</time></trkpt><trkpt lat="44.2384776" lon="10.6134713"><ele>1298.6666666666665</ele><time>2026-04-26T09:07:54.236Z</time></trkpt><trkpt lat="44.2383257" lon="10.6133689"><ele>1300.3333333333333</ele><time>2026-04-26T09:07:55.231Z</time></trkpt><trkpt lat="44.2381865" lon="10.6132987"><ele>1302.0</ele><time>2026-04-26T09:07:56.226Z</time></trkpt><trkpt lat="44.2380355" lon="10.6132467"><ele>1302.0</ele><time>2026-04-26T09:07:57.223Z</time></trkpt><trkpt lat="44.2378876" lon="10.6131941"><ele>1302.0</ele><time>2026-04-26T09:07:58.226Z</time></trkpt><trkpt lat="44.2377325" lon="10.613154"><ele>1302.0</ele><time>2026-04-26T09:07:59.229Z</time></trkpt><trkpt lat="44.2375817" lon="10.6131126"><ele>1302.0</ele><time>2026-04-26T09:08:00.23Z</time></trkpt><trkpt lat="44.2374471" lon="10.6130682"><ele>1302.0</ele><time>2026-04-26T09:08:01.232Z</time></trkpt><trkpt lat="44.2373289" lon="10.6130304"><ele>1302.0</ele><time>2026-04-26T09:08:02.225Z</time></trkpt><trkpt lat="44.2372305" lon="10.6129867"><ele>1302.0</ele><time>2026-04-26T09:08:03.231Z</time></trkpt><trkpt lat="44.2371327" lon="10.6129195"><ele>1303.3333333333333</ele><time>2026-04-26T09:08:04.228Z</time></trkpt><trkpt lat="44.2370457" lon="10.6128258"><ele>1304.6666666666667</ele><time>2026-04-26T09:08:05.224Z</time></trkpt><trkpt lat="44.236978" lon="10.6127268"><ele>1306.0</ele><time>2026-04-26T09:08:06.226Z</time></trkpt><trkpt lat="44.2369284" lon="10.6126257"><ele>1307.3333333333335</ele><time>2026-04-26T09:08:07.231Z</time></trkpt><trkpt lat="44.2368713" lon="10.612557"><ele>1308.6666666666667</ele><time>2026-04-26T09:08:08.228Z</time></trkpt><trkpt lat="44.2368049" lon="10.6125163"><ele>1310.0</ele><time>2026-04-26T09:08:09.225Z</time></trkpt><trkpt lat="44.2367424" lon="10.6124907"><ele>1310.0</ele><time>2026-04-26T09:08:10.231Z</time></trkpt><trkpt lat="44.2366296" lon="10.6124609"><ele>1310.0</ele><time>2026-04-26T09:08:12.226Z</time></trkpt><trkpt lat="44.2365208" lon="10.6124298"><ele>1310.0</ele><time>2026-04-26T09:08:14.228Z</time></trkpt><trkpt lat="44.236401" lon="10.6124167"><ele>1310.0</ele><time>2026-04-26T09:08:16.228Z</time></trkpt><trkpt lat="44.2363388" lon="10.6123929"><ele>1310.0</ele><time>2026-04-26T09:08:17.235Z</time></trkpt><trkpt lat="44.2362511" lon="10.6123198"><ele>1307.2</ele><time>2026-04-26T09:08:19.232Z</time></trkpt><trkpt lat="44.2361932" lon="10.6122614"><ele>1304.4</ele><time>2026-04-26T09:08:21.228Z</time></trkpt><trkpt lat="44.2361622" lon="10.6121595"><ele>1301.6</ele><time>2026-04-26T09:21:33.227Z</time></trkpt><trkpt lat="44.2361163" lon="10.6119763"><ele>1298.8</ele><time>2026-04-26T09:21:35.229Z</time></trkpt><trkpt lat="44.236102" lon="10.6118508"><ele>1296.0</ele><time>2026-04-26T09:21:36.238Z</time></trkpt><trkpt lat="44.2360835" lon="10.6117163"><ele>1296.0</ele><time>2026-04-26T09:21:37.231Z</time></trkpt><trkpt lat="44.2360714" lon="10.6115628"><ele>1296.0</ele><time>2026-04-26T09:21:38.228Z</time></trkpt><trkpt lat="44.2360535" lon="10.6113823"><ele>1296.0</ele><time>2026-04-26T09:21:39.239Z</time></trkpt><trkpt lat="44.2360209" lon="10.6111963"><ele>1296.0</ele><time>2026-04-26T09:21:40.23Z</time></trkpt><trkpt lat="44.2359816" lon="10.6110065"><ele>1298.25</ele><time>2026-04-26T09:21:41.223Z</time></trkpt><trkpt lat="44.235932" lon="10.6108148"><ele>1300.5</ele><time>2026-04-26T09:21:42.224Z</time></trkpt><trkpt lat="44.2358778" lon="10.6106162"><ele>1302.75</ele><time>2026-04-26T09:21:43.231Z</time></trkpt><trkpt lat="44.2358277" lon="10.610427"><ele>1305.0</ele><time>2026-04-26T09:21:44.228Z</time></trkpt><trkpt lat="44.2357634" lon="10.6102471"><ele>1306.75</ele><time>2026-04-26T09:21:45.225Z</time></trkpt><trkpt lat="44.2356841" lon="10.6100761"><ele>1308.5</ele><time>2026-04-26T09:21:46.226Z</time></trkpt><trkpt lat="44.2355974" lon="10.6099251"><ele>1310.25</ele><time>2026-04-26T09:21:47.23Z</time></trkpt><trkpt lat="44.2355106" lon="10.6097846"><ele>1312.0</ele><time>2026-04-26T09:21:48.232Z</time></trkpt><trkpt lat="44.2354299" lon="10.6096449"><ele>1306.6</ele><time>2026-04-26T09:21:49.227Z</time></trkpt><trkpt lat="44.2353629" lon="10.609523"><ele>1301.1999999999998</ele><time>2026-04-26T09:21:50.227Z</time></trkpt><trkpt lat="44.2353047" lon="10.6093923"><ele>1295.8</ele><time>2026-04-26T09:21:51.224Z</time></trkpt><trkpt lat="44.2352727" lon="10.6092524"><ele>1290.4</ele><time>2026-04-26T09:21:52.227Z</time></trkpt><trkpt lat="44.2352477" lon="10.609108"><ele>1285.0</ele><time>2026-04-26T09:21:53.236Z</time></trkpt><trkpt lat="44.235244" lon="10.6089507"><ele>1285.0</ele><time>2026-04-26T09:21:54.23Z</time></trkpt><trkpt lat="44.2352547" lon="10.6088023"><ele>1285.0</ele><time>2026-04-26T09:21:55.225Z</time></trkpt><trkpt lat="44.2353014" lon="10.6086776"><ele>1285.0</ele><time>2026-04-26T09:21:56.224Z</time></trkpt><trkpt lat="44.2353601" lon="10.6085509"><ele>1285.0</ele><time>2026-04-26T09:21:57.228Z</time></trkpt><trkpt lat="44.2354276" lon="10.6084271"><ele>1285.0</ele><time>2026-04-26T09:21:58.224Z</time></trkpt><trkpt lat="44.235535" lon="10.6083516"><ele>1288.0</ele><time>2026-04-26T09:21:59.225Z</time></trkpt><trkpt lat="44.2356409" lon="10.6082256"><ele>1291.0</ele><time>2026-04-26T09:22:00.228Z</time></trkpt><trkpt lat="44.2357449" lon="10.6081179"><ele>1294.0</ele><time>2026-04-26T09:22:01.226Z</time></trkpt><trkpt lat="44.2358403" lon="10.6079791"><ele>1297.0</ele><time>2026-04-26T09:22:02.227Z</time></trkpt><trkpt lat="44.2358982" lon="10.607836"><ele>1294.0</ele><time>2026-04-26T09:22:03.228Z</time></trkpt><trkpt lat="44.235954" lon="10.60766"><ele>1291.0</ele><time>2026-04-26T09:22:04.235Z</time></trkpt><trkpt lat="44.2359758" lon="10.6074981"><ele>1288.0</ele><time>2026-04-26T09:22:05.237Z</time></trkpt><trkpt lat="44.2359832" lon="10.6073529"><ele>1285.0</ele><time>2026-04-26T09:22:06.229Z</time></trkpt><trkpt lat="44.2359684" lon="10.6072271"><ele>1285.0</ele><time>2026-04-26T09:22:07.23Z</time></trkpt><trkpt lat="44.2359246" lon="10.6070945"><ele>1285.0</ele><time>2026-04-26T09:22:08.228Z</time></trkpt><trkpt lat="44.2358627" lon="10.606938"><ele>1285.0</ele><time>2026-04-26T09:22:09.235Z</time></trkpt><trkpt lat="44.2358053" lon="10.6067719"><ele>1285.0</ele><time>2026-04-26T09:22:10.231Z</time></trkpt><trkpt lat="44.235762" lon="10.6065793"><ele>1284.25</ele><time>2026-04-26T09:22:11.231Z</time></trkpt><trkpt lat="44.2357351" lon="10.606385"><ele>1283.5</ele><time>2026-04-26T09:22:12.227Z</time></trkpt><trkpt lat="44.2356867" lon="10.606192"><ele>1282.75</ele><time>2026-04-26T09:22:13.236Z</time></trkpt><trkpt lat="44.2356331" lon="10.6060061"><ele>1282.0</ele><time>2026-04-26T09:22:14.232Z</time></trkpt><trkpt lat="44.235546" lon="10.6058503"><ele>1279.75</ele><time>2026-04-26T09:22:15.233Z</time></trkpt><trkpt lat="44.2354289" lon="10.6056992"><ele>1277.5</ele><time>2026-04-26T09:22:16.243Z</time></trkpt><trkpt lat="44.235322" lon="10.6055515"><ele>1275.25</ele><time>2026-04-26T09:22:17.235Z</time></trkpt><trkpt lat="44.2352325" lon="10.6054048"><ele>1273.0</ele><time>2026-04-26T09:22:18.233Z</time></trkpt><trkpt lat="44.235156" lon="10.6052749"><ele>1273.0</ele><time>2026-04-26T09:22:19.233Z</time></trkpt><trkpt lat="44.2350903" lon="10.6051591"><ele>1273.0</ele><time>2026-04-26T09:22:20.236Z</time></trkpt><trkpt lat="44.2350401" lon="10.6050744"><ele>1273.0</ele><time>2026-04-26T09:22:21.233Z</time></trkpt><trkpt lat="44.2349936" lon="10.6049421"><ele>1273.0</ele><time>2026-04-26T09:22:23.233Z</time></trkpt><trkpt lat="44.2350162" lon="10.6048323"><ele>1273.0</ele><time>2026-04-26T09:22:25.235Z</time></trkpt><trkpt lat="44.2350403" lon="10.60472"><ele>1273.0</ele><time>2026-04-26T09:22:27.23Z</time></trkpt><trkpt lat="44.235061" lon="10.6046197"><ele>1273.0</ele><time>2026-04-26T09:22:29.232Z</time></trkpt><trkpt lat="44.2350848" lon="10.6044824"><ele>1273.0</ele><time>2026-04-26T09:22:31.232Z</time></trkpt><trkpt lat="44.2351207" lon="10.6043886"><ele>1273.0</ele><time>2026-04-26T09:22:32.231Z</time></trkpt><trkpt lat="44.2351863" lon="10.6043205"><ele>1273.0</ele><time>2026-04-26T09:22:33.229Z</time></trkpt><trkpt lat="44.2352516" lon="10.6042523"><ele>1273.0</ele><time>2026-04-26T09:22:34.232Z</time></trkpt><trkpt lat="44.2353081" lon="10.6041783"><ele>1272.4</ele><time>2026-04-26T09:22:35.229Z</time></trkpt><trkpt lat="44.2353617" lon="10.6040837"><ele>1271.8</ele><time>2026-04-26T09:22:36.244Z</time></trkpt><trkpt lat="44.2354028" lon="10.6039576"><ele>1271.2</ele><time>2026-04-26T09:22:37.233Z</time></trkpt><trkpt lat="44.2354157" lon="10.6038646"><ele>1270.6</ele><time>2026-04-26T09:22:38.239Z</time></trkpt><trkpt lat="44.2354294" lon="10.6037782"><ele>1270.0</ele><time>2026-04-26T09:22:39.239Z</time></trkpt><trkpt lat="44.2353961" lon="10.6035951"><ele>1269.2</ele><time>2026-04-26T09:22:41.228Z</time></trkpt><trkpt lat="44.2353527" lon="10.6034776"><ele>1268.4</ele><time>2026-04-26T09:22:42.227Z</time></trkpt><trkpt lat="44.235313" lon="10.6033562"><ele>1267.6</ele><time>2026-04-26T09:22:43.231Z</time></trkpt><trkpt lat="44.2352851" lon="10.6032165"><ele>1266.8</ele><time>2026-04-26T09:22:44.248Z</time></trkpt><trkpt lat="44.2352809" lon="10.6030719"><ele>1266.0</ele><time>2026-04-26T09:22:45.233Z</time></trkpt><trkpt lat="44.2352698" lon="10.6029273"><ele>1265.5</ele><time>2026-04-26T09:22:46.226Z</time></trkpt><trkpt lat="44.2352767" lon="10.6027687"><ele>1265.0</ele><time>2026-04-26T09:22:47.231Z</time></trkpt><trkpt lat="44.2352927" lon="10.6026115"><ele>1264.5</ele><time>2026-04-26T09:22:48.225Z</time></trkpt><trkpt lat="44.235312" lon="10.6024566"><ele>1264.0</ele><time>2026-04-26T09:22:49.227Z</time></trkpt><trkpt lat="44.2353396" lon="10.6023087"><ele>1264.0</ele><time>2026-04-26T09:22:50.257Z</time></trkpt><trkpt lat="44.2353757" lon="10.6021719"><ele>1264.0</ele><time>2026-04-26T09:22:51.229Z</time></trkpt><trkpt lat="44.2354242" lon="10.6020429"><ele>1264.0</ele><time>2026-04-26T09:22:52.246Z</time></trkpt><trkpt lat="44.2354887" lon="10.6019231"><ele>1264.0</ele><time>2026-04-26T09:22:53.227Z</time></trkpt><trkpt lat="44.2355518" lon="10.601808"><ele>1264.0</ele><time>2026-04-26T09:22:54.225Z</time></trkpt><trkpt lat="44.2356115" lon="10.6016913"><ele>1265.5</ele><time>2026-04-26T09:22:55.23Z</time></trkpt><trkpt lat="44.2356632" lon="10.6015847"><ele>1267.0</ele><time>2026-04-26T09:22:56.23Z</time></trkpt><trkpt lat="44.2357003" lon="10.6014961"><ele>1268.5</ele><time>2026-04-26T09:22:57.226Z</time></trkpt><trkpt lat="44.2357368" lon="10.601423"><ele>1270.0</ele><time>2026-04-26T09:22:58.229Z</time></trkpt><trkpt lat="44.2357613" lon="10.6012899"><ele>1271.5</ele><time>2026-04-26T09:23:00.228Z</time></trkpt><trkpt lat="44.2357315" lon="10.6012052"><ele>1273.0</ele><time>2026-04-26T09:23:01.228Z</time></trkpt><trkpt lat="44.2356806" lon="10.6011005"><ele>1269.4</ele><time>2026-04-26T09:23:02.228Z</time></trkpt><trkpt lat="44.2356252" lon="10.6009732"><ele>1265.8</ele><time>2026-04-26T09:23:03.231Z</time></trkpt><trkpt lat="44.2355744" lon="10.600848"><ele>1262.2</ele><time>2026-04-26T09:23:04.232Z</time></trkpt><trkpt lat="44.2355174" lon="10.6007279"><ele>1258.6</ele><time>2026-04-26T09:23:05.23Z</time></trkpt><trkpt lat="44.2354521" lon="10.600638"><ele>1255.0</ele><time>2026-04-26T09:23:06.231Z</time></trkpt><trkpt lat="44.2353899" lon="10.600553"><ele>1255.0</ele><time>2026-04-26T09:23:07.229Z</time></trkpt><trkpt lat="44.2353065" lon="10.6005083"><ele>1255.0</ele><time>2026-04-26T09:23:08.239Z</time></trkpt><trkpt lat="44.2352088" lon="10.6004768"><ele>1255.0</ele><time>2026-04-26T09:23:09.227Z</time></trkpt><trkpt lat="44.235119" lon="10.6004186"><ele>1255.0</ele><time>2026-04-26T09:23:10.227Z</time></trkpt><trkpt lat="44.2350521" lon="10.6003246"><ele>1255.0</ele><time>2026-04-26T09:23:11.228Z</time></trkpt><trkpt lat="44.2349967" lon="10.6002375"><ele>1256.0</ele><time>2026-04-26T09:23:12.224Z</time></trkpt><trkpt lat="44.2349397" lon="10.6001746"><ele>1257.0</ele><time>2026-04-26T09:23:13.226Z</time></trkpt><trkpt lat="44.2348841" lon="10.6001324"><ele>1258.0</ele><time>2026-04-26T09:23:14.23Z</time></trkpt><trkpt lat="44.2348322" lon="10.6000734"><ele>1259.0</ele><time>2026-04-26T09:23:15.238Z</time></trkpt><trkpt lat="44.2347966" lon="10.5999865"><ele>1260.0</ele><time>2026-04-26T09:23:16.227Z</time></trkpt><trkpt lat="44.234793" lon="10.5998839"><ele>1261.0</ele><time>2026-04-26T09:23:17.229Z</time></trkpt><trkpt lat="44.234802" lon="10.5997795"><ele>1262.0</ele><time>2026-04-26T09:23:18.229Z</time></trkpt><trkpt lat="44.2348465" lon="10.5996683"><ele>1262.0</ele><time>2026-04-26T09:23:19.227Z</time></trkpt><trkpt lat="44.2348851" lon="10.599544"><ele>1262.0</ele><time>2026-04-26T09:23:20.227Z</time></trkpt><trkpt lat="44.2349014" lon="10.5994296"><ele>1262.0</ele><time>2026-04-26T09:23:21.229Z</time></trkpt><trkpt lat="44.2348719" lon="10.5993253"><ele>1262.0</ele><time>2026-04-26T09:23:22.225Z</time></trkpt><trkpt lat="44.2348295" lon="10.5992013"><ele>1262.0</ele><time>2026-04-26T09:23:23.226Z</time></trkpt><trkpt lat="44.2347554" lon="10.5990885"><ele>1260.0</ele><time>2026-04-26T09:23:24.229Z</time></trkpt><trkpt lat="44.2346522" lon="10.5989924"><ele>1258.0</ele><time>2026-04-26T09:23:25.223Z</time></trkpt><trkpt lat="44.234536" lon="10.5989"><ele>1256.0</ele><time>2026-04-26T09:23:26.228Z</time></trkpt><trkpt lat="44.2344145" lon="10.5988182"><ele>1254.0</ele><time>2026-04-26T09:23:27.228Z</time></trkpt><trkpt lat="44.2342978" lon="10.5987522"><ele>1254.0</ele><time>2026-04-26T09:23:28.226Z</time></trkpt><trkpt lat="44.2341854" lon="10.5987206"><ele>1254.0</ele><time>2026-04-26T09:23:29.229Z</time></trkpt><trkpt lat="44.2340812" lon="10.5986674"><ele>1254.0</ele><time>2026-04-26T09:23:30.226Z</time></trkpt><trkpt lat="44.2339875" lon="10.5985737"><ele>1254.0</ele><time>2026-04-26T09:23:31.225Z</time></trkpt><trkpt lat="44.2339088" lon="10.5984773"><ele>1254.0</ele><time>2026-04-26T09:23:32.225Z</time></trkpt><trkpt lat="44.2338434" lon="10.5983603"><ele>1253.0</ele><time>2026-04-26T09:23:33.228Z</time></trkpt><trkpt lat="44.2338066" lon="10.598208"><ele>1252.0</ele><time>2026-04-26T09:23:34.23Z</time></trkpt><trkpt lat="44.2337665" lon="10.5980464"><ele>1251.0</ele><time>2026-04-26T09:23:35.231Z</time></trkpt><trkpt lat="44.2337494" lon="10.5978835"><ele>1250.0</ele><time>2026-04-26T09:23:36.223Z</time></trkpt><trkpt lat="44.2337465" lon="10.5977203"><ele>1253.4</ele><time>2026-04-26T09:23:37.23Z</time></trkpt><trkpt lat="44.2337751" lon="10.5975912"><ele>1256.8</ele><time>2026-04-26T09:23:38.229Z</time></trkpt><trkpt lat="44.2337818" lon="10.5974749"><ele>1260.2</ele><time>2026-04-26T09:23:40.223Z</time></trkpt><trkpt lat="44.2337602" lon="10.597365"><ele>1263.6</ele><time>2026-04-26T09:23:43.234Z</time></trkpt><trkpt lat="44.2336783" lon="10.5972801"><ele>1267.0</ele><time>2026-04-26T09:24:36.229Z</time></trkpt><trkpt lat="44.2335413" lon="10.597256"><ele>1267.0</ele><time>2026-04-26T09:24:38.226Z</time></trkpt><trkpt lat="44.233426" lon="10.5972588"><ele>1267.0</ele><time>2026-04-26T09:24:39.224Z</time></trkpt><trkpt lat="44.2333239" lon="10.5972623"><ele>1267.0</ele><time>2026-04-26T09:24:40.222Z</time></trkpt><trkpt lat="44.2332171" lon="10.5972551"><ele>1267.0</ele><time>2026-04-26T09:24:41.227Z</time></trkpt><trkpt lat="44.2331538" lon="10.5972253"><ele>1267.0</ele><time>2026-04-26T09:24:42.219Z</time></trkpt><trkpt lat="44.233092" lon="10.5971542"><ele>1268.0</ele><time>2026-04-26T09:24:43.227Z</time></trkpt><trkpt lat="44.2330208" lon="10.5970303"><ele>1269.0</ele><time>2026-04-26T09:24:44.23Z</time></trkpt><trkpt lat="44.2329488" lon="10.5969221"><ele>1270.0</ele><time>2026-04-26T09:24:45.223Z</time></trkpt><trkpt lat="44.2328752" lon="10.5968176"><ele>1271.0</ele><time>2026-04-26T09:24:46.231Z</time></trkpt><trkpt lat="44.2328144" lon="10.5967093"><ele>1272.0</ele><time>2026-04-26T09:24:47.226Z</time></trkpt><trkpt lat="44.2327409" lon="10.596638"><ele>1272.0</ele><time>2026-04-26T09:24:48.226Z</time></trkpt><trkpt lat="44.2326673" lon="10.5965576"><ele>1272.0</ele><time>2026-04-26T09:24:49.225Z</time></trkpt><trkpt lat="44.2325739" lon="10.5964748"><ele>1272.0</ele><time>2026-04-26T09:24:50.223Z</time></trkpt><trkpt lat="44.2324792" lon="10.5964083"><ele>1272.0</ele><time>2026-04-26T09:24:51.222Z</time></trkpt><trkpt lat="44.2323925" lon="10.5963394"><ele>1272.0</ele><time>2026-04-26T09:24:52.223Z</time></trkpt><trkpt lat="44.2323136" lon="10.5962669"><ele>1272.6666666666667</ele><time>2026-04-26T09:24:53.22Z</time></trkpt><trkpt lat="44.2322389" lon="10.5962103"><ele>1273.3333333333333</ele><time>2026-04-26T09:24:54.226Z</time></trkpt><trkpt lat="44.2321629" lon="10.5961411"><ele>1274.0</ele><time>2026-04-26T09:24:55.225Z</time></trkpt><trkpt lat="44.2320982" lon="10.5960691"><ele>1274.6666666666665</ele><time>2026-04-26T09:24:56.222Z</time></trkpt><trkpt lat="44.2320438" lon="10.5959611"><ele>1275.3333333333333</ele><time>2026-04-26T09:24:57.221Z</time></trkpt><trkpt lat="44.2320135" lon="10.5958413"><ele>1276.0</ele><time>2026-04-26T09:24:58.226Z</time></trkpt><trkpt lat="44.2319687" lon="10.5957562"><ele>1276.0</ele><time>2026-04-26T09:24:59.223Z</time></trkpt><trkpt lat="44.2318952" lon="10.5956928"><ele>1276.0</ele><time>2026-04-26T09:25:00.228Z</time></trkpt><trkpt lat="44.2318097" lon="10.5956523"><ele>1276.0</ele><time>2026-04-26T09:25:01.227Z</time></trkpt><trkpt lat="44.2317131" lon="10.595597"><ele>1276.0</ele><time>2026-04-26T09:25:02.229Z</time></trkpt><trkpt lat="44.2316032" lon="10.5955548"><ele>1276.0</ele><time>2026-04-26T09:25:03.224Z</time></trkpt><trkpt lat="44.2314873" lon="10.5955282"><ele>1275.25</ele><time>2026-04-26T09:25:04.219Z</time></trkpt><trkpt lat="44.2313617" lon="10.5955078"><ele>1274.5</ele><time>2026-04-26T09:25:05.228Z</time></trkpt><trkpt lat="44.2312364" lon="10.5954917"><ele>1273.75</ele><time>2026-04-26T09:25:06.226Z</time></trkpt><trkpt lat="44.2311164" lon="10.5954707"><ele>1273.0</ele><time>2026-04-26T09:25:07.239Z</time></trkpt><trkpt lat="44.2309924" lon="10.5954286"><ele>1273.0</ele><time>2026-04-26T09:25:08.228Z</time></trkpt><trkpt lat="44.2308339" lon="10.5953785"><ele>1273.0</ele><time>2026-04-26T09:25:09.222Z</time></trkpt><trkpt lat="44.2307055" lon="10.5953477"><ele>1273.0</ele><time>2026-04-26T09:25:10.227Z</time></trkpt><trkpt lat="44.2305883" lon="10.5953445"><ele>1273.0</ele><time>2026-04-26T09:25:11.227Z</time></trkpt><trkpt lat="44.2304579" lon="10.595331"><ele>1273.8</ele><time>2026-04-26T09:25:12.226Z</time></trkpt><trkpt lat="44.2303487" lon="10.5953181"><ele>1274.6</ele><time>2026-04-26T09:25:13.245Z</time></trkpt><trkpt lat="44.2302465" lon="10.595282"><ele>1275.4</ele><time>2026-04-26T09:25:14.221Z</time></trkpt><trkpt lat="44.2301545" lon="10.5952141"><ele>1276.2</ele><time>2026-04-26T09:25:15.221Z</time></trkpt><trkpt lat="44.2300591" lon="10.5951415"><ele>1277.0</ele><time>2026-04-26T09:25:16.234Z</time></trkpt><trkpt lat="44.2299705" lon="10.5950625"><ele>1277.0</ele><time>2026-04-26T09:25:17.223Z</time></trkpt><trkpt lat="44.2298711" lon="10.5949605"><ele>1277.0</ele><time>2026-04-26T09:25:18.25Z</time></trkpt><trkpt lat="44.2297786" lon="10.5948453"><ele>1277.0</ele><time>2026-04-26T09:25:19.231Z</time></trkpt><trkpt lat="44.2297052" lon="10.5947706"><ele>1277.0</ele><time>2026-04-26T09:25:20.23Z</time></trkpt><trkpt lat="44.2296397" lon="10.5946914"><ele>1277.0</ele><time>2026-04-26T09:25:21.228Z</time></trkpt><trkpt lat="44.2295862" lon="10.5945977"><ele>1273.6</ele><time>2026-04-26T09:25:22.227Z</time></trkpt><trkpt lat="44.2295341" lon="10.5944944"><ele>1270.2</ele><time>2026-04-26T09:25:23.229Z</time></trkpt><trkpt lat="44.2294728" lon="10.5943801"><ele>1266.8</ele><time>2026-04-26T09:25:24.23Z</time></trkpt><trkpt lat="44.2294112" lon="10.5942974"><ele>1263.4</ele><time>2026-04-26T09:25:25.232Z</time></trkpt><trkpt lat="44.2293503" lon="10.5942046"><ele>1260.0</ele><time>2026-04-26T09:25:26.23Z</time></trkpt><trkpt lat="44.2292986" lon="10.5940782"><ele>1260.0</ele><time>2026-04-26T09:25:27.227Z</time></trkpt><trkpt lat="44.2292425" lon="10.5939446"><ele>1260.0</ele><time>2026-04-26T09:25:28.225Z</time></trkpt><trkpt lat="44.2291758" lon="10.5938146"><ele>1260.0</ele><time>2026-04-26T09:25:29.233Z</time></trkpt><trkpt lat="44.2291053" lon="10.5936634"><ele>1260.0</ele><time>2026-04-26T09:25:30.224Z</time></trkpt><trkpt lat="44.2290283" lon="10.5935213"><ele>1256.5</ele><time>2026-04-26T09:25:31.24Z</time></trkpt><trkpt lat="44.2289473" lon="10.5933798"><ele>1253.0</ele><time>2026-04-26T09:25:32.227Z</time></trkpt><trkpt lat="44.2288886" lon="10.5932361"><ele>1249.5</ele><time>2026-04-26T09:25:33.23Z</time></trkpt><trkpt lat="44.2288503" lon="10.5930869"><ele>1246.0</ele><time>2026-04-26T09:25:34.229Z</time></trkpt><trkpt lat="44.2288181" lon="10.5929434"><ele>1248.0</ele><time>2026-04-26T09:25:35.23Z</time></trkpt><trkpt lat="44.2288002" lon="10.5928342"><ele>1250.0</ele><time>2026-04-26T09:25:36.228Z</time></trkpt><trkpt lat="44.22879" lon="10.5927391"><ele>1252.0</ele><time>2026-04-26T09:25:37.23Z</time></trkpt><trkpt lat="44.2287895" lon="10.5925812"><ele>1254.0</ele><time>2026-04-26T09:25:39.235Z</time></trkpt><trkpt lat="44.2287895" lon="10.5924248"><ele>1256.0</ele><time>2026-04-26T09:25:41.23Z</time></trkpt><trkpt lat="44.2287831" lon="10.59227"><ele>1256.0</ele><time>2026-04-26T09:25:43.225Z</time></trkpt><trkpt lat="44.2287172" lon="10.5921827"><ele>1256.0</ele><time>2026-04-26T09:25:45.227Z</time></trkpt><trkpt lat="44.2286271" lon="10.5922177"><ele>1256.0</ele><time>2026-04-26T09:25:47.23Z</time></trkpt><trkpt lat="44.22853" lon="10.5922922"><ele>1256.0</ele><time>2026-04-26T09:25:49.23Z</time></trkpt><trkpt lat="44.2284636" lon="10.5923429"><ele>1256.0</ele><time>2026-04-26T09:25:50.242Z</time></trkpt><trkpt lat="44.2283688" lon="10.5924175"><ele>1256.0</ele><time>2026-04-26T09:25:51.227Z</time></trkpt><trkpt lat="44.2282414" lon="10.5925309"><ele>1256.0</ele><time>2026-04-26T09:25:52.229Z</time></trkpt><trkpt lat="44.2281505" lon="10.5926473"><ele>1256.0</ele><time>2026-04-26T09:25:53.231Z</time></trkpt><trkpt lat="44.2280187" lon="10.5927663"><ele>1256.0</ele><time>2026-04-26T09:25:54.227Z</time></trkpt><trkpt lat="44.2279242" lon="10.5928641"><ele>1254.1666666666667</ele><time>2026-04-26T09:25:55.243Z</time></trkpt><trkpt lat="44.2278533" lon="10.5929375"><ele>1252.3333333333335</ele><time>2026-04-26T09:25:56.228Z</time></trkpt><trkpt lat="44.227782" lon="10.5929971"><ele>1250.5</ele><time>2026-04-26T09:25:58.228Z</time></trkpt><trkpt lat="44.2277046" lon="10.5930531"><ele>1248.6666666666667</ele><time>2026-04-26T09:26:00.232Z</time></trkpt><trkpt lat="44.2276466" lon="10.5930897"><ele>1246.8333333333333</ele><time>2026-04-26T09:26:01.229Z</time></trkpt><trkpt lat="44.2275663" lon="10.5931206"><ele>1245.0</ele><time>2026-04-26T09:26:02.228Z</time></trkpt><trkpt lat="44.2274845" lon="10.5931474"><ele>1245.0</ele><time>2026-04-26T09:26:03.241Z</time></trkpt><trkpt lat="44.2274138" lon="10.5931706"><ele>1245.0</ele><time>2026-04-26T09:26:04.233Z</time></trkpt><trkpt lat="44.2273399" lon="10.5931735"><ele>1245.0</ele><time>2026-04-26T09:26:05.228Z</time></trkpt><trkpt lat="44.2272707" lon="10.5931502"><ele>1245.0</ele><time>2026-04-26T09:26:06.231Z</time></trkpt><trkpt lat="44.2272067" lon="10.5931144"><ele>1245.0</ele><time>2026-04-26T09:26:07.225Z</time></trkpt><trkpt lat="44.2271037" lon="10.5930239"><ele>1245.0</ele><time>2026-04-26T09:26:09.231Z</time></trkpt><trkpt lat="44.2270658" lon="10.5929256"><ele>1245.8333333333333</ele><time>2026-04-26T09:26:10.223Z</time></trkpt><trkpt lat="44.227055" lon="10.5927968"><ele>1246.6666666666667</ele><time>2026-04-26T09:26:11.225Z</time></trkpt><trkpt lat="44.2270481" lon="10.5926685"><ele>1247.5</ele><time>2026-04-26T09:26:12.224Z</time></trkpt><trkpt lat="44.2270308" lon="10.5925742"><ele>1248.3333333333335</ele><time>2026-04-26T09:26:13.226Z</time></trkpt><trkpt lat="44.2269778" lon="10.5925186"><ele>1249.1666666666667</ele><time>2026-04-26T09:26:14.234Z</time></trkpt><trkpt lat="44.2269105" lon="10.5924878"><ele>1250.0</ele><time>2026-04-26T09:26:15.23Z</time></trkpt><trkpt lat="44.2268413" lon="10.5924788"><ele>1250.0</ele><time>2026-04-26T09:26:16.23Z</time></trkpt><trkpt lat="44.2267636" lon="10.5924505"><ele>1250.0</ele><time>2026-04-26T09:26:17.232Z</time></trkpt><trkpt lat="44.2266897" lon="10.5923773"><ele>1250.0</ele><time>2026-04-26T09:26:18.229Z</time></trkpt><trkpt lat="44.2266232" lon="10.5922815"><ele>1250.0</ele><time>2026-04-26T09:26:19.244Z</time></trkpt><trkpt lat="44.2265601" lon="10.5921895"><ele>1250.0</ele><time>2026-04-26T09:26:20.231Z</time></trkpt><trkpt lat="44.2264745" lon="10.592085"><ele>1251.25</ele><time>2026-04-26T09:26:21.224Z</time></trkpt><trkpt lat="44.2263689" lon="10.5919532"><ele>1252.5</ele><time>2026-04-26T09:26:22.227Z</time></trkpt><trkpt lat="44.2262694" lon="10.591826"><ele>1253.75</ele><time>2026-04-26T09:26:23.229Z</time></trkpt><trkpt lat="44.2261729" lon="10.5917171"><ele>1255.0</ele><time>2026-04-26T09:26:24.247Z</time></trkpt><trkpt lat="44.2260855" lon="10.5916265"><ele>1255.0</ele><time>2026-04-26T09:26:25.232Z</time></trkpt><trkpt lat="44.2260061" lon="10.5915404"><ele>1255.0</ele><time>2026-04-26T09:26:26.229Z</time></trkpt><trkpt lat="44.2258869" lon="10.5914222"><ele>1255.0</ele><time>2026-04-26T09:26:27.228Z</time></trkpt><trkpt lat="44.2257731" lon="10.5913112"><ele>1255.0</ele><time>2026-04-26T09:26:28.229Z</time></trkpt><trkpt lat="44.2256636" lon="10.5912034"><ele>1253.75</ele><time>2026-04-26T09:26:29.228Z</time></trkpt><trkpt lat="44.2255424" lon="10.5910787"><ele>1252.5</ele><time>2026-04-26T09:26:30.23Z</time></trkpt><trkpt lat="44.225433" lon="10.5909497"><ele>1251.25</ele><time>2026-04-26T09:26:31.244Z</time></trkpt><trkpt lat="44.2253238" lon="10.5908245"><ele>1250.0</ele><time>2026-04-26T09:26:32.229Z</time></trkpt><trkpt lat="44.2252278" lon="10.5906975"><ele>1250.0</ele><time>2026-04-26T09:26:33.228Z</time></trkpt><trkpt lat="44.2251414" lon="10.5905857"><ele>1250.0</ele><time>2026-04-26T09:26:34.229Z</time></trkpt><trkpt lat="44.2250535" lon="10.5904733"><ele>1250.0</ele><time>2026-04-26T09:26:35.229Z</time></trkpt><trkpt lat="44.2249665" lon="10.5903465"><ele>1250.0</ele><time>2026-04-26T09:26:36.235Z</time></trkpt><trkpt lat="44.2248834" lon="10.5902341"><ele>1245.5</ele><time>2026-04-26T09:26:37.228Z</time></trkpt><trkpt lat="44.2248066" lon="10.5901144"><ele>1241.0</ele><time>2026-04-26T09:26:38.229Z</time></trkpt><trkpt lat="44.2247458" lon="10.590006"><ele>1236.5</ele><time>2026-04-26T09:26:39.223Z</time></trkpt><trkpt lat="44.2246946" lon="10.5898502"><ele>1232.0</ele><time>2026-04-26T09:26:40.227Z</time></trkpt><trkpt lat="44.2246709" lon="10.5896765"><ele>1231.0</ele><time>2026-04-26T09:26:41.225Z</time></trkpt><trkpt lat="44.2246601" lon="10.5894975"><ele>1230.0</ele><time>2026-04-26T09:26:42.234Z</time></trkpt><trkpt lat="44.2246543" lon="10.5893199"><ele>1229.0</ele><time>2026-04-26T09:26:43.222Z</time></trkpt><trkpt lat="44.2246646" lon="10.5891069"><ele>1228.0</ele><time>2026-04-26T09:26:44.223Z</time></trkpt><trkpt lat="44.2246693" lon="10.5889615"><ele>1228.0</ele><time>2026-04-26T09:26:45.22Z</time></trkpt><trkpt lat="44.2246751" lon="10.5887972"><ele>1228.0</ele><time>2026-04-26T09:26:46.219Z</time></trkpt><trkpt lat="44.2247016" lon="10.5885768"><ele>1228.0</ele><time>2026-04-26T09:26:47.226Z</time></trkpt><trkpt lat="44.2247172" lon="10.5883876"><ele>1228.0</ele><time>2026-04-26T09:26:48.23Z</time></trkpt><trkpt lat="44.2247406" lon="10.5882163"><ele>1227.75</ele><time>2026-04-26T09:26:49.229Z</time></trkpt><trkpt lat="44.2247668" lon="10.5880458"><ele>1227.5</ele><time>2026-04-26T09:26:50.228Z</time></trkpt><trkpt lat="44.2248092" lon="10.5878537"><ele>1227.25</ele><time>2026-04-26T09:26:51.237Z</time></trkpt><trkpt lat="44.2248416" lon="10.5877131"><ele>1227.0</ele><time>2026-04-26T09:26:52.225Z</time></trkpt><trkpt lat="44.2248854" lon="10.5875526"><ele>1234.2</ele><time>2026-04-26T09:26:53.231Z</time></trkpt><trkpt lat="44.2249251" lon="10.587432"><ele>1241.4</ele><time>2026-04-26T09:26:54.227Z</time></trkpt><trkpt lat="44.2249707" lon="10.5873012"><ele>1248.6</ele><time>2026-04-26T09:26:55.224Z</time></trkpt><trkpt lat="44.2250447" lon="10.5871528"><ele>1255.8</ele><time>2026-04-26T09:26:56.22Z</time></trkpt><trkpt lat="44.2250932" lon="10.5870317"><ele>1263.0</ele><time>2026-04-26T09:26:57.23Z</time></trkpt><trkpt lat="44.225123" lon="10.5869351"><ele>1263.0</ele><time>2026-04-26T09:26:58.228Z</time></trkpt><trkpt lat="44.2251452" lon="10.5867845"><ele>1263.0</ele><time>2026-04-26T09:27:00.224Z</time></trkpt><trkpt lat="44.2251394" lon="10.5866859"><ele>1263.0</ele><time>2026-04-26T09:27:01.229Z</time></trkpt><trkpt lat="44.2250996" lon="10.5865811"><ele>1263.0</ele><time>2026-04-26T09:27:02.228Z</time></trkpt><trkpt lat="44.2250565" lon="10.5864672"><ele>1263.0</ele><time>2026-04-26T09:27:03.227Z</time></trkpt><trkpt lat="44.2249782" lon="10.5863634"><ele>1263.0</ele><time>2026-04-26T09:27:04.226Z</time></trkpt><trkpt lat="44.224931" lon="10.5862938"><ele>1263.0</ele><time>2026-04-26T09:27:05.247Z</time></trkpt><trkpt lat="44.2248826" lon="10.5861337"><ele>1263.0</ele><time>2026-04-26T09:27:07.231Z</time></trkpt><trkpt lat="44.2248969" lon="10.5860311"><ele>1263.0</ele><time>2026-04-26T09:27:08.239Z</time></trkpt><trkpt lat="44.2249127" lon="10.5859184"><ele>1263.0</ele><time>2026-04-26T09:27:09.233Z</time></trkpt><trkpt lat="44.2249269" lon="10.585787"><ele>1263.0</ele><time>2026-04-26T09:27:10.233Z</time></trkpt><trkpt lat="44.2249618" lon="10.5856882"><ele>1263.8</ele><time>2026-04-26T09:27:11.224Z</time></trkpt><trkpt lat="44.2250086" lon="10.5855747"><ele>1264.6</ele><time>2026-04-26T09:27:12.225Z</time></trkpt><trkpt lat="44.2250702" lon="10.5854522"><ele>1265.4</ele><time>2026-04-26T09:27:13.226Z</time></trkpt><trkpt lat="44.2251296" lon="10.5853227"><ele>1266.2</ele><time>2026-04-26T09:27:14.227Z</time></trkpt><trkpt lat="44.2251371" lon="10.585213"><ele>1267.0</ele><time>2026-04-26T09:27:15.229Z</time></trkpt><trkpt lat="44.2251258" lon="10.585115"><ele>1267.5</ele><time>2026-04-26T09:27:16.239Z</time></trkpt><trkpt lat="44.2250814" lon="10.5850399"><ele>1268.0</ele><time>2026-04-26T09:27:17.224Z</time></trkpt><trkpt lat="44.2250263" lon="10.5849827"><ele>1268.5</ele><time>2026-04-26T09:27:18.223Z</time></trkpt><trkpt lat="44.2249568" lon="10.5849426"><ele>1269.0</ele><time>2026-04-26T09:27:19.227Z</time></trkpt><trkpt lat="44.2248902" lon="10.5848967"><ele>1269.5</ele><time>2026-04-26T09:27:20.225Z</time></trkpt><trkpt lat="44.2248246" lon="10.5848242"><ele>1270.0</ele><time>2026-04-26T09:27:21.226Z</time></trkpt><trkpt lat="44.2247659" lon="10.5847176"><ele>1267.5</ele><time>2026-04-26T09:27:22.229Z</time></trkpt><trkpt lat="44.2246865" lon="10.5845823"><ele>1265.0</ele><time>2026-04-26T09:27:23.227Z</time></trkpt><trkpt lat="44.2245986" lon="10.584438"><ele>1262.5</ele><time>2026-04-26T09:27:24.23Z</time></trkpt><trkpt lat="44.2245264" lon="10.5843027"><ele>1260.0</ele><time>2026-04-26T09:27:25.229Z</time></trkpt><trkpt lat="44.2244813" lon="10.5842168"><ele>1260.0</ele><time>2026-04-26T09:27:26.23Z</time></trkpt><trkpt lat="44.2244254" lon="10.5840623"><ele>1260.0</ele><time>2026-04-26T09:27:28.22Z</time></trkpt><trkpt lat="44.2244354" lon="10.5839612"><ele>1260.0</ele><time>2026-04-26T09:27:29.226Z</time></trkpt><trkpt lat="44.2244515" lon="10.583856"><ele>1260.0</ele><time>2026-04-26T09:27:30.231Z</time></trkpt><trkpt lat="44.2244512" lon="10.5837198"><ele>1260.0</ele><time>2026-04-26T09:27:31.227Z</time></trkpt><trkpt lat="44.2244348" lon="10.5835825"><ele>1262.0</ele><time>2026-04-26T09:27:32.241Z</time></trkpt><trkpt lat="44.2244386" lon="10.5834426"><ele>1264.0</ele><time>2026-04-26T09:27:33.225Z</time></trkpt><trkpt lat="44.224435" lon="10.5833075"><ele>1266.0</ele><time>2026-04-26T09:27:34.228Z</time></trkpt><trkpt lat="44.2244316" lon="10.5831968"><ele>1268.0</ele><time>2026-04-26T09:27:35.226Z</time></trkpt><trkpt lat="44.2244273" lon="10.583106"><ele>1270.0</ele><time>2026-04-26T09:27:36.225Z</time></trkpt><trkpt lat="44.2243866" lon="10.5829456"><ele>1272.2</ele><time>2026-04-26T09:27:38.226Z</time></trkpt><trkpt lat="44.2243462" lon="10.5828164"><ele>1274.4</ele><time>2026-04-26T09:27:40.235Z</time></trkpt><trkpt lat="44.2242926" lon="10.5826752"><ele>1276.6</ele><time>2026-04-26T09:27:42.229Z</time></trkpt><trkpt lat="44.2242323" lon="10.5825661"><ele>1278.8</ele><time>2026-04-26T09:27:44.234Z</time></trkpt><trkpt lat="44.2241475" lon="10.582443"><ele>1281.0</ele><time>2026-04-26T09:27:46.229Z</time></trkpt><trkpt lat="44.2240997" lon="10.582379"><ele>1281.0</ele><time>2026-04-26T09:27:47.236Z</time></trkpt><trkpt lat="44.2240521" lon="10.5823043"><ele>1281.0</ele><time>2026-04-26T09:27:48.243Z</time></trkpt><trkpt lat="44.2239947" lon="10.5821936"><ele>1281.0</ele><time>2026-04-26T09:27:49.229Z</time></trkpt><trkpt lat="44.2239465" lon="10.582094"><ele>1281.0</ele><time>2026-04-26T09:27:50.224Z</time></trkpt><trkpt lat="44.2239089" lon="10.582011"><ele>1281.0</ele><time>2026-04-26T09:27:51.232Z</time></trkpt><trkpt lat="44.2238852" lon="10.5818557"><ele>1281.0</ele><time>2026-04-26T09:27:53.224Z</time></trkpt><trkpt lat="44.2239052" lon="10.5817359"><ele>1281.1666666666667</ele><time>2026-04-26T09:27:54.232Z</time></trkpt><trkpt lat="44.22394" lon="10.5816302"><ele>1281.3333333333333</ele><time>2026-04-26T09:27:55.223Z</time></trkpt><trkpt lat="44.2239866" lon="10.5815464"><ele>1281.5</ele><time>2026-04-26T09:27:56.229Z</time></trkpt><trkpt lat="44.2240229" lon="10.5814493"><ele>1281.6666666666665</ele><time>2026-04-26T09:27:57.224Z</time></trkpt><trkpt lat="44.2240399" lon="10.5813545"><ele>1281.8333333333333</ele><time>2026-04-26T09:27:58.231Z</time></trkpt><trkpt lat="44.2240494" lon="10.5812054"><ele>1282.0</ele><time>2026-04-26T09:27:59.228Z</time></trkpt><trkpt lat="44.2240407" lon="10.581027"><ele>1281.6</ele><time>2026-04-26T09:28:00.228Z</time></trkpt><trkpt lat="44.2240381" lon="10.580861"><ele>1281.1999999999998</ele><time>2026-04-26T09:28:01.226Z</time></trkpt><trkpt lat="44.2240299" lon="10.5807114"><ele>1280.8</ele><time>2026-04-26T09:28:02.23Z</time></trkpt><trkpt lat="44.2240214" lon="10.5805827"><ele>1280.4</ele><time>2026-04-26T09:28:03.226Z</time></trkpt><trkpt lat="44.2240053" lon="10.5804733"><ele>1280.0</ele><time>2026-04-26T09:28:04.226Z</time></trkpt><trkpt lat="44.2239711" lon="10.5803698"><ele>1278.0</ele><time>2026-04-26T09:28:05.227Z</time></trkpt><trkpt lat="44.2239346" lon="10.5802567"><ele>1276.0</ele><time>2026-04-26T09:28:06.226Z</time></trkpt><trkpt lat="44.2239217" lon="10.5801479"><ele>1274.0</ele><time>2026-04-26T09:28:07.227Z</time></trkpt><trkpt lat="44.2239117" lon="10.5800302"><ele>1272.0</ele><time>2026-04-26T09:28:08.231Z</time></trkpt><trkpt lat="44.2239049" lon="10.5799037"><ele>1270.0</ele><time>2026-04-26T09:28:09.227Z</time></trkpt><trkpt lat="44.2238865" lon="10.5798018"><ele>1268.0</ele><time>2026-04-26T09:28:10.233Z</time></trkpt><trkpt lat="44.2238908" lon="10.5796817"><ele>1268.0</ele><time>2026-04-26T09:28:11.226Z</time></trkpt><trkpt lat="44.2238637" lon="10.5795717"><ele>1268.0</ele><time>2026-04-26T09:28:12.228Z</time></trkpt><trkpt lat="44.2238143" lon="10.5795028"><ele>1268.0</ele><time>2026-04-26T09:28:13.222Z</time></trkpt><trkpt lat="44.2236806" lon="10.5794502"><ele>1268.0</ele><time>2026-04-26T09:28:15.226Z</time></trkpt><trkpt lat="44.2236058" lon="10.5794073"><ele>1268.0</ele><time>2026-04-26T09:28:16.23Z</time></trkpt><trkpt lat="44.2235343" lon="10.5793823"><ele>1268.0</ele><time>2026-04-26T09:28:17.23Z</time></trkpt><trkpt lat="44.2234306" lon="10.5793814"><ele>1269.0</ele><time>2026-04-26T09:28:18.228Z</time></trkpt><trkpt lat="44.2233159" lon="10.5793022"><ele>1270.0</ele><time>2026-04-26T09:28:19.224Z</time></trkpt><trkpt lat="44.2232181" lon="10.5792195"><ele>1271.0</ele><time>2026-04-26T09:28:20.223Z</time></trkpt><trkpt lat="44.2231206" lon="10.5791407"><ele>1272.0</ele><time>2026-04-26T09:28:21.236Z</time></trkpt><trkpt lat="44.2230232" lon="10.5790657"><ele>1272.0</ele><time>2026-04-26T09:28:22.229Z</time></trkpt><trkpt lat="44.2229324" lon="10.5789929"><ele>1272.0</ele><time>2026-04-26T09:28:23.248Z</time></trkpt><trkpt lat="44.2228311" lon="10.5789034"><ele>1272.0</ele><time>2026-04-26T09:28:24.226Z</time></trkpt><trkpt lat="44.222726" lon="10.5788208"><ele>1272.0</ele><time>2026-04-26T09:28:25.225Z</time></trkpt><trkpt lat="44.2226228" lon="10.5787448"><ele>1274.0</ele><time>2026-04-26T09:28:26.226Z</time></trkpt><trkpt lat="44.2225214" lon="10.5786668"><ele>1276.0</ele><time>2026-04-26T09:28:27.232Z</time></trkpt><trkpt lat="44.2224283" lon="10.5785925"><ele>1278.0</ele><time>2026-04-26T09:28:28.23Z</time></trkpt><trkpt lat="44.2223452" lon="10.5785181"><ele>1280.0</ele><time>2026-04-26T09:28:29.23Z</time></trkpt><trkpt lat="44.2222806" lon="10.5784361"><ele>1282.0</ele><time>2026-04-26T09:28:30.226Z</time></trkpt><trkpt lat="44.2222281" lon="10.578338"><ele>1277.3999999999999</ele><time>2026-04-26T09:28:31.225Z</time></trkpt><trkpt lat="44.2222" lon="10.5781993"><ele>1272.8</ele><time>2026-04-26T09:28:32.244Z</time></trkpt><trkpt lat="44.2221804" lon="10.5780554"><ele>1268.2</ele><time>2026-04-26T09:28:33.23Z</time></trkpt><trkpt lat="44.2221872" lon="10.5779115"><ele>1263.6</ele><time>2026-04-26T09:28:34.223Z</time></trkpt><trkpt lat="44.2222057" lon="10.5777857"><ele>1259.0</ele><time>2026-04-26T09:28:35.23Z</time></trkpt><trkpt lat="44.2222249" lon="10.5776649"><ele>1259.0</ele><time>2026-04-26T09:28:36.231Z</time></trkpt><trkpt lat="44.2222599" lon="10.5775237"><ele>1259.0</ele><time>2026-04-26T09:28:37.229Z</time></trkpt><trkpt lat="44.2222857" lon="10.5773834"><ele>1259.0</ele><time>2026-04-26T09:28:38.242Z</time></trkpt><trkpt lat="44.2223117" lon="10.5772408"><ele>1259.0</ele><time>2026-04-26T09:28:39.223Z</time></trkpt><trkpt lat="44.2223378" lon="10.5770903"><ele>1259.0</ele><time>2026-04-26T09:28:40.224Z</time></trkpt><trkpt lat="44.2223659" lon="10.5769634"><ele>1262.8</ele><time>2026-04-26T09:28:41.228Z</time></trkpt><trkpt lat="44.2224003" lon="10.5768366"><ele>1266.6000000000001</ele><time>2026-04-26T09:28:42.224Z</time></trkpt><trkpt lat="44.2224362" lon="10.5767109"><ele>1270.4</ele><time>2026-04-26T09:28:43.227Z</time></trkpt><trkpt lat="44.2224794" lon="10.5765778"><ele>1274.2</ele><time>2026-04-26T09:28:44.23Z</time></trkpt><trkpt lat="44.2225615" lon="10.5764557"><ele>1278.0</ele><time>2026-04-26T09:28:45.24Z</time></trkpt><trkpt lat="44.2226548" lon="10.5763252"><ele>1278.0</ele><time>2026-04-26T09:28:46.226Z</time></trkpt><trkpt lat="44.2227446" lon="10.5762205"><ele>1278.0</ele><time>2026-04-26T09:28:47.231Z</time></trkpt><trkpt lat="44.2228048" lon="10.576128"><ele>1278.0</ele><time>2026-04-26T09:28:48.223Z</time></trkpt><trkpt lat="44.2228554" lon="10.5760489"><ele>1278.0</ele><time>2026-04-26T09:28:49.227Z</time></trkpt><trkpt lat="44.2228912" lon="10.5759705"><ele>1278.0</ele><time>2026-04-26T09:28:50.225Z</time></trkpt><trkpt lat="44.2229127" lon="10.5758641"><ele>1278.0</ele><time>2026-04-26T09:28:51.225Z</time></trkpt><trkpt lat="44.2229353" lon="10.5757124"><ele>1277.6</ele><time>2026-04-26T09:28:52.235Z</time></trkpt><trkpt lat="44.222943" lon="10.5755654"><ele>1277.1999999999998</ele><time>2026-04-26T09:28:53.226Z</time></trkpt><trkpt lat="44.2229055" lon="10.5754368"><ele>1276.8</ele><time>2026-04-26T09:28:54.221Z</time></trkpt><trkpt lat="44.2228718" lon="10.5753141"><ele>1276.3999999999999</ele><time>2026-04-26T09:28:55.223Z</time></trkpt><trkpt lat="44.2228477" lon="10.5751894"><ele>1276.0</ele><time>2026-04-26T09:28:56.229Z</time></trkpt><trkpt lat="44.2228199" lon="10.5750425"><ele>1278.25</ele><time>2026-04-26T09:28:57.236Z</time></trkpt><trkpt lat="44.2227882" lon="10.5748822"><ele>1280.5</ele><time>2026-04-26T09:28:58.225Z</time></trkpt><trkpt lat="44.2227781" lon="10.574732"><ele>1282.75</ele><time>2026-04-26T09:28:59.226Z</time></trkpt><trkpt lat="44.2227547" lon="10.5745732"><ele>1285.0</ele><time>2026-04-26T09:29:00.224Z</time></trkpt><trkpt lat="44.2227373" lon="10.5744089"><ele>1285.6</ele><time>2026-04-26T09:29:01.233Z</time></trkpt><trkpt lat="44.2227186" lon="10.5742594"><ele>1286.2</ele><time>2026-04-26T09:29:02.228Z</time></trkpt><trkpt lat="44.2226825" lon="10.5741386"><ele>1286.8000000000002</ele><time>2026-04-26T09:29:03.226Z</time></trkpt><trkpt lat="44.2226336" lon="10.5740301"><ele>1287.4</ele><time>2026-04-26T09:29:04.232Z</time></trkpt><trkpt lat="44.2225738" lon="10.5739226"><ele>1288.0</ele><time>2026-04-26T09:29:05.227Z</time></trkpt><trkpt lat="44.2225297" lon="10.5737484"><ele>1288.6000000000001</ele><time>2026-04-26T09:29:06.257Z</time></trkpt><trkpt lat="44.2225098" lon="10.5735707"><ele>1289.2</ele><time>2026-04-26T09:29:07.227Z</time></trkpt><trkpt lat="44.2224857" lon="10.5733996"><ele>1289.8</ele><time>2026-04-26T09:29:08.231Z</time></trkpt><trkpt lat="44.2224775" lon="10.5732497"><ele>1290.4</ele><time>2026-04-26T09:29:09.227Z</time></trkpt><trkpt lat="44.2224746" lon="10.5731362"><ele>1291.0</ele><time>2026-04-26T09:29:10.23Z</time></trkpt><trkpt lat="44.2224737" lon="10.5730243"><ele>1291.0</ele><time>2026-04-26T09:29:11.227Z</time></trkpt><trkpt lat="44.2224252" lon="10.5729262"><ele>1291.0</ele><time>2026-04-26T09:29:12.229Z</time></trkpt><trkpt lat="44.2223486" lon="10.5728331"><ele>1291.0</ele><time>2026-04-26T09:29:13.237Z</time></trkpt><trkpt lat="44.2222863" lon="10.5727574"><ele>1291.0</ele><time>2026-04-26T09:29:14.235Z</time></trkpt><trkpt lat="44.2222239" lon="10.5726518"><ele>1291.0</ele><time>2026-04-26T09:29:15.245Z</time></trkpt><trkpt lat="44.2221728" lon="10.5725387"><ele>1289.8</ele><time>2026-04-26T09:29:16.232Z</time></trkpt><trkpt lat="44.222144" lon="10.5724135"><ele>1288.6</ele><time>2026-04-26T09:29:17.237Z</time></trkpt><trkpt lat="44.2221002" lon="10.5722905"><ele>1287.4</ele><time>2026-04-26T09:29:18.232Z</time></trkpt><trkpt lat="44.222059" lon="10.5721685"><ele>1286.2</ele><time>2026-04-26T09:29:19.235Z</time></trkpt><trkpt lat="44.2220576" lon="10.5720637"><ele>1285.0</ele><time>2026-04-26T09:29:20.229Z</time></trkpt><trkpt lat="44.2220974" lon="10.5719545"><ele>1285.0</ele><time>2026-04-26T09:29:21.233Z</time></trkpt><trkpt lat="44.2221486" lon="10.5718303"><ele>1285.0</ele><time>2026-04-26T09:29:22.232Z</time></trkpt><trkpt lat="44.222206" lon="10.5717016"><ele>1285.0</ele><time>2026-04-26T09:29:23.237Z</time></trkpt><trkpt lat="44.2222604" lon="10.5715813"><ele>1285.0</ele><time>2026-04-26T09:29:24.228Z</time></trkpt><trkpt lat="44.2222839" lon="10.5714978"><ele>1285.0</ele><time>2026-04-26T09:29:25.232Z</time></trkpt><trkpt lat="44.2222414" lon="10.5714249"><ele>1285.0</ele><time>2026-04-26T09:29:27.235Z</time></trkpt><trkpt lat="44.2221653" lon="10.5714085"><ele>1285.0</ele><time>2026-04-26T09:29:29.227Z</time></trkpt><trkpt lat="44.2220858" lon="10.5714111"><ele>1285.0</ele><time>2026-04-26T09:29:31.228Z</time></trkpt><trkpt lat="44.2220046" lon="10.571449"><ele>1285.0</ele><time>2026-04-26T09:29:34.23Z</time></trkpt><trkpt lat="44.2219051" lon="10.5715469"><ele>1285.0</ele><time>2026-04-26T09:30:11.226Z</time></trkpt><trkpt lat="44.2218002" lon="10.5715648"><ele>1285.0</ele><time>2026-04-26T09:31:35.231Z</time></trkpt><trkpt lat="44.2217303" lon="10.571584"><ele>1285.0</ele><time>2026-04-26T09:31:36.227Z</time></trkpt><trkpt lat="44.2216368" lon="10.5715921"><ele>1285.0</ele><time>2026-04-26T09:31:37.224Z</time></trkpt><trkpt lat="44.2215582" lon="10.5715811"><ele>1285.0</ele><time>2026-04-26T09:31:38.243Z</time></trkpt><trkpt lat="44.2214921" lon="10.5715544"><ele>1285.0</ele><time>2026-04-26T09:31:39.228Z</time></trkpt><trkpt lat="44.2214009" lon="10.5714893"><ele>1285.0</ele><time>2026-04-26T09:31:41.227Z</time></trkpt><trkpt lat="44.2213636" lon="10.5714145"><ele>1285.0</ele><time>2026-04-26T09:31:42.235Z</time></trkpt><trkpt lat="44.221361" lon="10.5713183"><ele>1285.4</ele><time>2026-04-26T09:31:43.229Z</time></trkpt><trkpt lat="44.2213734" lon="10.5712088"><ele>1285.8</ele><time>2026-04-26T09:31:44.232Z</time></trkpt><trkpt lat="44.2213853" lon="10.5711109"><ele>1286.1999999999998</ele><time>2026-04-26T09:31:45.227Z</time></trkpt><trkpt lat="44.2214069" lon="10.5709275"><ele>1286.6</ele><time>2026-04-26T09:31:47.226Z</time></trkpt><trkpt lat="44.2214168" lon="10.5708117"><ele>1287.0</ele><time>2026-04-26T09:31:48.229Z</time></trkpt><trkpt lat="44.2214205" lon="10.5706918"><ele>1287.0</ele><time>2026-04-26T09:31:49.23Z</time></trkpt><trkpt lat="44.221422" lon="10.5705652"><ele>1287.0</ele><time>2026-04-26T09:31:50.228Z</time></trkpt><trkpt lat="44.2214172" lon="10.5704539"><ele>1287.0</ele><time>2026-04-26T09:31:51.223Z</time></trkpt><trkpt lat="44.2214037" lon="10.5703642"><ele>1287.0</ele><time>2026-04-26T09:31:52.23Z</time></trkpt><trkpt lat="44.2213429" lon="10.5702321"><ele>1287.0</ele><time>2026-04-26T09:31:54.227Z</time></trkpt><trkpt lat="44.2212507" lon="10.5701732"><ele>1287.6666666666667</ele><time>2026-04-26T09:31:56.23Z</time></trkpt><trkpt lat="44.2212144" lon="10.5700905"><ele>1288.3333333333333</ele><time>2026-04-26T09:31:57.232Z</time></trkpt><trkpt lat="44.2211789" lon="10.5699641"><ele>1289.0</ele><time>2026-04-26T09:31:58.233Z</time></trkpt><trkpt lat="44.2211422" lon="10.5698424"><ele>1289.6666666666665</ele><time>2026-04-26T09:31:59.227Z</time></trkpt><trkpt lat="44.2211025" lon="10.5697463"><ele>1290.3333333333333</ele><time>2026-04-26T09:32:00.23Z</time></trkpt><trkpt lat="44.2210798" lon="10.5696616"><ele>1291.0</ele><time>2026-04-26T09:32:01.235Z</time></trkpt><trkpt lat="44.2210867" lon="10.5694925"><ele>1292.6</ele><time>2026-04-26T09:32:03.228Z</time></trkpt><trkpt lat="44.2211414" lon="10.5693668"><ele>1294.1999999999998</ele><time>2026-04-26T09:32:05.225Z</time></trkpt><trkpt lat="44.2211787" lon="10.5692959"><ele>1295.8000000000002</ele><time>2026-04-26T09:32:06.226Z</time></trkpt><trkpt lat="44.2212663" lon="10.5691685"><ele>1297.4</ele><time>2026-04-26T09:32:08.232Z</time></trkpt><trkpt lat="44.2213227" lon="10.569084"><ele>1299.0</ele><time>2026-04-26T09:32:09.229Z</time></trkpt><trkpt lat="44.2213804" lon="10.5690015"><ele>1299.0</ele><time>2026-04-26T09:32:10.228Z</time></trkpt><trkpt lat="44.2214449" lon="10.5689101"><ele>1299.0</ele><time>2026-04-26T09:32:11.231Z</time></trkpt><trkpt lat="44.2215141" lon="10.5688078"><ele>1299.0</ele><time>2026-04-26T09:32:12.235Z</time></trkpt><trkpt lat="44.221567" lon="10.5687261"><ele>1299.0</ele><time>2026-04-26T09:32:13.223Z</time></trkpt><trkpt lat="44.2216303" lon="10.5686205"><ele>1299.0</ele><time>2026-04-26T09:32:14.23Z</time></trkpt><trkpt lat="44.2216724" lon="10.5684581"><ele>1300.5</ele><time>2026-04-26T09:32:16.227Z</time></trkpt><trkpt lat="44.2216676" lon="10.5683413"><ele>1302.0</ele><time>2026-04-26T09:32:17.231Z</time></trkpt><trkpt lat="44.221636" lon="10.5682576"><ele>1303.5</ele><time>2026-04-26T09:32:18.229Z</time></trkpt><trkpt lat="44.2215846" lon="10.5682061"><ele>1305.0</ele><time>2026-04-26T09:32:19.227Z</time></trkpt><trkpt lat="44.2215223" lon="10.5681477"><ele>1306.5</ele><time>2026-04-26T09:32:20.225Z</time></trkpt><trkpt lat="44.2214355" lon="10.5680982"><ele>1308.0</ele><time>2026-04-26T09:32:21.224Z</time></trkpt><trkpt lat="44.2213513" lon="10.5680403"><ele>1308.0</ele><time>2026-04-26T09:32:22.228Z</time></trkpt><trkpt lat="44.2212818" lon="10.5679733"><ele>1308.0</ele><time>2026-04-26T09:32:23.224Z</time></trkpt><trkpt lat="44.221217" lon="10.5679178"><ele>1308.0</ele><time>2026-04-26T09:32:24.235Z</time></trkpt><trkpt lat="44.221154" lon="10.5678418"><ele>1308.0</ele><time>2026-04-26T09:32:25.232Z</time></trkpt><trkpt lat="44.2210712" lon="10.567778"><ele>1308.0</ele><time>2026-04-26T09:32:26.227Z</time></trkpt><trkpt lat="44.2209766" lon="10.5677096"><ele>1308.0</ele><time>2026-04-26T09:32:27.228Z</time></trkpt><trkpt lat="44.2208846" lon="10.5676348"><ele>1308.4</ele><time>2026-04-26T09:32:28.223Z</time></trkpt><trkpt lat="44.2207985" lon="10.567576"><ele>1308.8000000000002</ele><time>2026-04-26T09:32:29.229Z</time></trkpt><trkpt lat="44.2207222" lon="10.5675238"><ele>1309.2</ele><time>2026-04-26T09:32:30.228Z</time></trkpt><trkpt lat="44.2206448" lon="10.5674689"><ele>1309.6</ele><time>2026-04-26T09:32:31.224Z</time></trkpt><trkpt lat="44.2205603" lon="10.5674078"><ele>1310.0</ele><time>2026-04-26T09:32:32.225Z</time></trkpt><trkpt lat="44.2204791" lon="10.5672952"><ele>1310.0</ele><time>2026-04-26T09:32:33.223Z</time></trkpt><trkpt lat="44.2203917" lon="10.567209"><ele>1310.0</ele><time>2026-04-26T09:32:34.227Z</time></trkpt><trkpt lat="44.2202994" lon="10.5671128"><ele>1310.0</ele><time>2026-04-26T09:32:35.225Z</time></trkpt><trkpt lat="44.2202155" lon="10.5670422"><ele>1310.0</ele><time>2026-04-26T09:32:36.228Z</time></trkpt><trkpt lat="44.2201443" lon="10.5669756"><ele>1310.0</ele><time>2026-04-26T09:32:37.227Z</time></trkpt><trkpt lat="44.220058" lon="10.5669099"><ele>1311.4</ele><time>2026-04-26T09:32:38.228Z</time></trkpt><trkpt lat="44.2199657" lon="10.5668582"><ele>1312.8</ele><time>2026-04-26T09:32:39.226Z</time></trkpt><trkpt lat="44.2198707" lon="10.5667894"><ele>1314.1999999999998</ele><time>2026-04-26T09:32:40.223Z</time></trkpt><trkpt lat="44.2197888" lon="10.5667279"><ele>1315.6</ele><time>2026-04-26T09:32:41.224Z</time></trkpt><trkpt lat="44.2197176" lon="10.5667014"><ele>1317.0</ele><time>2026-04-26T09:32:42.226Z</time></trkpt><trkpt lat="44.2196376" lon="10.5666761"><ele>1317.0</ele><time>2026-04-26T09:32:43.225Z</time></trkpt><trkpt lat="44.2195604" lon="10.566616"><ele>1317.0</ele><time>2026-04-26T09:32:44.224Z</time></trkpt><trkpt lat="44.2194743" lon="10.5665447"><ele>1317.0</ele><time>2026-04-26T09:32:45.225Z</time></trkpt><trkpt lat="44.2194091" lon="10.5664763"><ele>1317.0</ele><time>2026-04-26T09:32:46.222Z</time></trkpt><trkpt lat="44.219335" lon="10.5664216"><ele>1317.0</ele><time>2026-04-26T09:32:47.227Z</time></trkpt><trkpt lat="44.2192705" lon="10.5664035"><ele>1317.0</ele><time>2026-04-26T09:32:48.245Z</time></trkpt><trkpt lat="44.2191741" lon="10.5663868"><ele>1317.0</ele><time>2026-04-26T09:32:50.223Z</time></trkpt><trkpt lat="44.2190893" lon="10.5663945"><ele>1317.0</ele><time>2026-04-26T09:32:51.233Z</time></trkpt><trkpt lat="44.2189844" lon="10.5664414"><ele>1317.0</ele><time>2026-04-26T09:32:52.224Z</time></trkpt><trkpt lat="44.2188755" lon="10.5664585"><ele>1317.0</ele><time>2026-04-26T09:32:53.232Z</time></trkpt><trkpt lat="44.21878" lon="10.5664782"><ele>1317.0</ele><time>2026-04-26T09:32:54.223Z</time></trkpt><trkpt lat="44.2186871" lon="10.5664948"><ele>1318.6</ele><time>2026-04-26T09:32:55.226Z</time></trkpt><trkpt lat="44.2186071" lon="10.5664921"><ele>1320.1999999999998</ele><time>2026-04-26T09:32:56.23Z</time></trkpt><trkpt lat="44.2185275" lon="10.5664613"><ele>1321.8</ele><time>2026-04-26T09:32:57.226Z</time></trkpt><trkpt lat="44.2184436" lon="10.5664064"><ele>1323.4</ele><time>2026-04-26T09:32:58.237Z</time></trkpt><trkpt lat="44.2183579" lon="10.5663478"><ele>1325.0</ele><time>2026-04-26T09:32:59.225Z</time></trkpt><trkpt lat="44.2182763" lon="10.5662634"><ele>1326.25</ele><time>2026-04-26T09:33:00.222Z</time></trkpt><trkpt lat="44.2181661" lon="10.56616"><ele>1327.5</ele><time>2026-04-26T09:33:01.224Z</time></trkpt><trkpt lat="44.2180507" lon="10.566073"><ele>1328.75</ele><time>2026-04-26T09:33:02.223Z</time></trkpt><trkpt lat="44.2179445" lon="10.5660024"><ele>1330.0</ele><time>2026-04-26T09:33:03.224Z</time></trkpt><trkpt lat="44.2178425" lon="10.5659473"><ele>1330.25</ele><time>2026-04-26T09:33:04.229Z</time></trkpt><trkpt lat="44.2177352" lon="10.5659102"><ele>1330.5</ele><time>2026-04-26T09:33:05.226Z</time></trkpt><trkpt lat="44.2176246" lon="10.5658748"><ele>1330.75</ele><time>2026-04-26T09:33:06.226Z</time></trkpt><trkpt lat="44.2175075" lon="10.5657949"><ele>1331.0</ele><time>2026-04-26T09:33:07.23Z</time></trkpt><trkpt lat="44.2174001" lon="10.5657419"><ele>1332.25</ele><time>2026-04-26T09:33:08.234Z</time></trkpt><trkpt lat="44.217286" lon="10.5656967"><ele>1333.5</ele><time>2026-04-26T09:33:09.227Z</time></trkpt><trkpt lat="44.2171592" lon="10.5656473"><ele>1334.75</ele><time>2026-04-26T09:33:10.222Z</time></trkpt><trkpt lat="44.2170248" lon="10.5656243"><ele>1336.0</ele><time>2026-04-26T09:33:11.225Z</time></trkpt><trkpt lat="44.2168985" lon="10.5655778"><ele>1336.0</ele><time>2026-04-26T09:33:12.224Z</time></trkpt><trkpt lat="44.2168192" lon="10.56555"><ele>1336.0</ele><time>2026-04-26T09:33:13.224Z</time></trkpt><trkpt lat="44.2167813" lon="10.5654688"><ele>1336.0</ele><time>2026-04-26T09:33:14.228Z</time></trkpt><trkpt lat="44.2167418" lon="10.5653228"><ele>1336.0</ele><time>2026-04-26T09:33:16.226Z</time></trkpt><trkpt lat="44.2167631" lon="10.56515"><ele>1336.0</ele><time>2026-04-26T09:33:18.24Z</time></trkpt><trkpt lat="44.2167753" lon="10.565062"><ele>1337.1999999999998</ele><time>2026-04-26T09:33:19.23Z</time></trkpt><trkpt lat="44.2167835" lon="10.5648818"><ele>1338.3999999999999</ele><time>2026-04-26T09:33:21.229Z</time></trkpt><trkpt lat="44.2167561" lon="10.5647702"><ele>1339.6</ele><time>2026-04-26T09:33:22.231Z</time></trkpt><trkpt lat="44.2167158" lon="10.5646455"><ele>1340.8</ele><time>2026-04-26T09:33:23.228Z</time></trkpt><trkpt lat="44.2166609" lon="10.5644999"><ele>1342.0</ele><time>2026-04-26T09:33:24.23Z</time></trkpt><trkpt lat="44.2165962" lon="10.5643915"><ele>1341.1666666666665</ele><time>2026-04-26T09:33:25.224Z</time></trkpt><trkpt lat="44.2165276" lon="10.5642895"><ele>1340.3333333333333</ele><time>2026-04-26T09:33:26.232Z</time></trkpt><trkpt lat="44.2164721" lon="10.5641785"><ele>1339.5</ele><time>2026-04-26T09:33:27.226Z</time></trkpt><trkpt lat="44.2164592" lon="10.5640721"><ele>1338.6666666666667</ele><time>2026-04-26T09:33:28.228Z</time></trkpt><trkpt lat="44.2164448" lon="10.5639671"><ele>1337.8333333333335</ele><time>2026-04-26T09:33:29.234Z</time></trkpt><trkpt lat="44.2164334" lon="10.5638516"><ele>1337.0</ele><time>2026-04-26T09:33:30.23Z</time></trkpt><trkpt lat="44.2163867" lon="10.5637223"><ele>1338.75</ele><time>2026-04-26T09:33:31.228Z</time></trkpt><trkpt lat="44.2163154" lon="10.563578"><ele>1340.5</ele><time>2026-04-26T09:33:32.231Z</time></trkpt><trkpt lat="44.2162342" lon="10.563444"><ele>1342.25</ele><time>2026-04-26T09:33:33.222Z</time></trkpt><trkpt lat="44.2161648" lon="10.5633119"><ele>1344.0</ele><time>2026-04-26T09:33:34.227Z</time></trkpt><trkpt lat="44.2160926" lon="10.5632027"><ele>1344.0</ele><time>2026-04-26T09:33:35.231Z</time></trkpt><trkpt lat="44.2160207" lon="10.5630912"><ele>1344.0</ele><time>2026-04-26T09:33:36.228Z</time></trkpt><trkpt lat="44.2159497" lon="10.5629566"><ele>1344.0</ele><time>2026-04-26T09:33:37.222Z</time></trkpt><trkpt lat="44.2158885" lon="10.5627793"><ele>1344.0</ele><time>2026-04-26T09:33:38.228Z</time></trkpt><trkpt lat="44.2158345" lon="10.5626114"><ele>1344.5</ele><time>2026-04-26T09:33:39.225Z</time></trkpt><trkpt lat="44.2157793" lon="10.5624549"><ele>1345.0</ele><time>2026-04-26T09:33:40.223Z</time></trkpt><trkpt lat="44.2157322" lon="10.5622874"><ele>1345.5</ele><time>2026-04-26T09:33:41.231Z</time></trkpt><trkpt lat="44.2156819" lon="10.5621102"><ele>1346.0</ele><time>2026-04-26T09:33:42.23Z</time></trkpt><trkpt lat="44.2156286" lon="10.5619351"><ele>1342.25</ele><time>2026-04-26T09:33:43.232Z</time></trkpt><trkpt lat="44.2155944" lon="10.5617852"><ele>1338.5</ele><time>2026-04-26T09:33:44.232Z</time></trkpt><trkpt lat="44.2155716" lon="10.5616319"><ele>1334.75</ele><time>2026-04-26T09:33:45.232Z</time></trkpt><trkpt lat="44.21556" lon="10.5614634"><ele>1331.0</ele><time>2026-04-26T09:33:46.231Z</time></trkpt><trkpt lat="44.2155523" lon="10.5613073"><ele>1331.8</ele><time>2026-04-26T09:33:47.224Z</time></trkpt><trkpt lat="44.2155275" lon="10.5610428"><ele>1332.6</ele><time>2026-04-26T09:33:48.229Z</time></trkpt><trkpt lat="44.2154848" lon="10.5609263"><ele>1333.4</ele><time>2026-04-26T09:33:49.242Z</time></trkpt><trkpt lat="44.2154284" lon="10.5608692"><ele>1334.2</ele><time>2026-04-26T09:33:50.225Z</time></trkpt><trkpt lat="44.2153693" lon="10.5608125"><ele>1335.0</ele><time>2026-04-26T09:33:51.228Z</time></trkpt><trkpt lat="44.2152989" lon="10.5607977"><ele>1335.0</ele><time>2026-04-26T09:33:52.227Z</time></trkpt><trkpt lat="44.2152265" lon="10.5607749"><ele>1335.0</ele><time>2026-04-26T09:33:53.225Z</time></trkpt><trkpt lat="44.2151434" lon="10.5607361"><ele>1335.0</ele><time>2026-04-26T09:33:54.229Z</time></trkpt><trkpt lat="44.2150616" lon="10.5606743"><ele>1335.0</ele><time>2026-04-26T09:33:55.224Z</time></trkpt><trkpt lat="44.214978" lon="10.560617"><ele>1335.0</ele><time>2026-04-26T09:33:56.245Z</time></trkpt><trkpt lat="44.2148885" lon="10.5605538"><ele>1335.0</ele><time>2026-04-26T09:33:57.224Z</time></trkpt><trkpt lat="44.2147926" lon="10.5604785"><ele>1334.1666666666667</ele><time>2026-04-26T09:33:58.227Z</time></trkpt><trkpt lat="44.2147044" lon="10.5604495"><ele>1333.3333333333333</ele><time>2026-04-26T09:33:59.23Z</time></trkpt><trkpt lat="44.2146205" lon="10.5604458"><ele>1332.5</ele><time>2026-04-26T09:34:00.227Z</time></trkpt><trkpt lat="44.2145367" lon="10.5604221"><ele>1331.6666666666665</ele><time>2026-04-26T09:34:01.228Z</time></trkpt><trkpt lat="44.2144639" lon="10.5603872"><ele>1330.8333333333333</ele><time>2026-04-26T09:34:02.228Z</time></trkpt><trkpt lat="44.2144025" lon="10.5603228"><ele>1330.0</ele><time>2026-04-26T09:34:03.23Z</time></trkpt><trkpt lat="44.2143324" lon="10.5602735"><ele>1330.0</ele><time>2026-04-26T09:34:04.229Z</time></trkpt><trkpt lat="44.2142475" lon="10.5602216"><ele>1330.0</ele><time>2026-04-26T09:34:05.231Z</time></trkpt><trkpt lat="44.2141501" lon="10.5601718"><ele>1330.0</ele><time>2026-04-26T09:34:06.24Z</time></trkpt><trkpt lat="44.2140784" lon="10.5601417"><ele>1330.0</ele><time>2026-04-26T09:34:07.235Z</time></trkpt><trkpt lat="44.2139893" lon="10.560117"><ele>1330.0</ele><time>2026-04-26T09:34:08.231Z</time></trkpt><trkpt lat="44.2139136" lon="10.5601081"><ele>1330.0</ele><time>2026-04-26T09:34:09.234Z</time></trkpt><trkpt lat="44.213841" lon="10.5600985"><ele>1328.0</ele><time>2026-04-26T09:34:10.228Z</time></trkpt><trkpt lat="44.213767" lon="10.5600839"><ele>1326.0</ele><time>2026-04-26T09:34:11.235Z</time></trkpt><trkpt lat="44.2137053" lon="10.560056"><ele>1324.0</ele><time>2026-04-26T09:34:12.228Z</time></trkpt><trkpt lat="44.213645" lon="10.5599867"><ele>1322.0</ele><time>2026-04-26T09:34:13.233Z</time></trkpt><trkpt lat="44.2135908" lon="10.5599146"><ele>1320.0</ele><time>2026-04-26T09:34:14.234Z</time></trkpt><trkpt lat="44.213536" lon="10.5598311"><ele>1318.0</ele><time>2026-04-26T09:34:15.236Z</time></trkpt><trkpt lat="44.2134616" lon="10.5597353"><ele>1318.0</ele><time>2026-04-26T09:34:16.235Z</time></trkpt><trkpt lat="44.2133985" lon="10.5596696"><ele>1318.0</ele><time>2026-04-26T09:34:17.232Z</time></trkpt><trkpt lat="44.2133372" lon="10.5595954"><ele>1318.0</ele><time>2026-04-26T09:34:18.236Z</time></trkpt><trkpt lat="44.2132784" lon="10.5595357"><ele>1318.0</ele><time>2026-04-26T09:34:19.233Z</time></trkpt><trkpt lat="44.2132168" lon="10.5594789"><ele>1318.0</ele><time>2026-04-26T09:34:20.261Z</time></trkpt><trkpt lat="44.2131431" lon="10.5594712"><ele>1318.0</ele><time>2026-04-26T09:34:21.231Z</time></trkpt><trkpt lat="44.2130726" lon="10.559504"><ele>1318.4285714285716</ele><time>2026-04-26T09:34:22.241Z</time></trkpt><trkpt lat="44.2130096" lon="10.5595473"><ele>1318.8571428571427</ele><time>2026-04-26T09:34:23.239Z</time></trkpt><trkpt lat="44.212953" lon="10.5595902"><ele>1319.2857142857142</ele><time>2026-04-26T09:34:24.232Z</time></trkpt><trkpt lat="44.2128883" lon="10.5596088"><ele>1319.7142857142858</ele><time>2026-04-26T09:34:25.232Z</time></trkpt><trkpt lat="44.2128232" lon="10.559601"><ele>1320.1428571428573</ele><time>2026-04-26T09:34:26.233Z</time></trkpt><trkpt lat="44.2127352" lon="10.5595599"><ele>1320.5714285714284</ele><time>2026-04-26T09:34:28.234Z</time></trkpt><trkpt lat="44.2127001" lon="10.5594463"><ele>1321.0</ele><time>2026-04-26T09:34:30.236Z</time></trkpt><trkpt lat="44.2126913" lon="10.5592181"><ele>1321.0</ele><time>2026-04-26T09:34:32.231Z</time></trkpt><trkpt lat="44.2126881" lon="10.5590699"><ele>1321.0</ele><time>2026-04-26T09:34:33.248Z</time></trkpt><trkpt lat="44.2126616" lon="10.5589337"><ele>1321.0</ele><time>2026-04-26T09:34:34.237Z</time></trkpt><trkpt lat="44.2126136" lon="10.5588061"><ele>1321.0</ele><time>2026-04-26T09:34:35.239Z</time></trkpt><trkpt lat="44.2125733" lon="10.5586859"><ele>1321.0</ele><time>2026-04-26T09:34:36.228Z</time></trkpt><trkpt lat="44.2125348" lon="10.558579"><ele>1323.0</ele><time>2026-04-26T09:34:37.232Z</time></trkpt><trkpt lat="44.2124988" lon="10.5584583"><ele>1325.0</ele><time>2026-04-26T09:34:38.23Z</time></trkpt><trkpt lat="44.2124712" lon="10.5583174"><ele>1327.0</ele><time>2026-04-26T09:34:39.229Z</time></trkpt><trkpt lat="44.2124436" lon="10.5581607"><ele>1329.0</ele><time>2026-04-26T09:34:40.236Z</time></trkpt><trkpt lat="44.2124135" lon="10.5580094"><ele>1331.0</ele><time>2026-04-26T09:34:41.236Z</time></trkpt><trkpt lat="44.2123749" lon="10.5578498"><ele>1330.1999999999998</ele><time>2026-04-26T09:34:42.24Z</time></trkpt><trkpt lat="44.212336" lon="10.5577044"><ele>1329.3999999999999</ele><time>2026-04-26T09:34:43.231Z</time></trkpt><trkpt lat="44.2123018" lon="10.5575986"><ele>1328.6</ele><time>2026-04-26T09:34:44.233Z</time></trkpt><trkpt lat="44.2122682" lon="10.5574825"><ele>1327.8</ele><time>2026-04-26T09:34:45.231Z</time></trkpt><trkpt lat="44.2122293" lon="10.5573648"><ele>1327.0</ele><time>2026-04-26T09:34:46.229Z</time></trkpt><trkpt lat="44.212163" lon="10.5572073"><ele>1327.0</ele><time>2026-04-26T09:34:47.243Z</time></trkpt><trkpt lat="44.2121035" lon="10.5570684"><ele>1327.0</ele><time>2026-04-26T09:34:48.225Z</time></trkpt><trkpt lat="44.2120468" lon="10.556949"><ele>1327.0</ele><time>2026-04-26T09:34:49.229Z</time></trkpt><trkpt lat="44.211995" lon="10.556844"><ele>1327.0</ele><time>2026-04-26T09:34:50.228Z</time></trkpt><trkpt lat="44.2119332" lon="10.5567208"><ele>1327.0</ele><time>2026-04-26T09:34:51.233Z</time></trkpt><trkpt lat="44.2118537" lon="10.5566049"><ele>1327.25</ele><time>2026-04-26T09:34:52.224Z</time></trkpt><trkpt lat="44.2117551" lon="10.5564854"><ele>1327.5</ele><time>2026-04-26T09:34:53.23Z</time></trkpt><trkpt lat="44.211647" lon="10.55642"><ele>1327.75</ele><time>2026-04-26T09:34:54.234Z</time></trkpt><trkpt lat="44.2115338" lon="10.5563733"><ele>1328.0</ele><time>2026-04-26T09:34:55.231Z</time></trkpt><trkpt lat="44.2113931" lon="10.556322"><ele>1325.5</ele><time>2026-04-26T09:34:56.231Z</time></trkpt><trkpt lat="44.2112855" lon="10.5562844"><ele>1323.0</ele><time>2026-04-26T09:34:57.242Z</time></trkpt><trkpt lat="44.2111551" lon="10.5562756"><ele>1320.5</ele><time>2026-04-26T09:34:58.232Z</time></trkpt><trkpt lat="44.2110246" lon="10.5563018"><ele>1318.0</ele><time>2026-04-26T09:34:59.234Z</time></trkpt><trkpt lat="44.2108835" lon="10.5563475"><ele>1318.0</ele><time>2026-04-26T09:35:00.232Z</time></trkpt><trkpt lat="44.2107261" lon="10.5564104"><ele>1318.0</ele><time>2026-04-26T09:35:01.235Z</time></trkpt><trkpt lat="44.2105711" lon="10.5564755"><ele>1318.0</ele><time>2026-04-26T09:35:02.232Z</time></trkpt><trkpt lat="44.2104317" lon="10.5565409"><ele>1317.4</ele><time>2026-04-26T09:35:03.239Z</time></trkpt><trkpt lat="44.2103151" lon="10.5565877"><ele>1316.8000000000002</ele><time>2026-04-26T09:35:04.235Z</time></trkpt><trkpt lat="44.2102112" lon="10.5566382"><ele>1316.2</ele><time>2026-04-26T09:35:05.249Z</time></trkpt><trkpt lat="44.2101199" lon="10.5566918"><ele>1315.6</ele><time>2026-04-26T09:35:06.233Z</time></trkpt><trkpt lat="44.2100222" lon="10.5567435"><ele>1315.0</ele><time>2026-04-26T09:35:07.241Z</time></trkpt><trkpt lat="44.2099292" lon="10.5567358"><ele>1315.0</ele><time>2026-04-26T09:35:08.235Z</time></trkpt><trkpt lat="44.2098416" lon="10.5566932"><ele>1315.0</ele><time>2026-04-26T09:35:09.229Z</time></trkpt><trkpt lat="44.2097504" lon="10.556628"><ele>1315.0</ele><time>2026-04-26T09:35:10.232Z</time></trkpt><trkpt lat="44.2096564" lon="10.5565637"><ele>1315.0</ele><time>2026-04-26T09:35:11.228Z</time></trkpt><trkpt lat="44.2095369" lon="10.556504"><ele>1315.0</ele><time>2026-04-26T09:35:12.25Z</time></trkpt><trkpt lat="44.2093757" lon="10.5564577"><ele>1313.75</ele><time>2026-04-26T09:35:13.228Z</time></trkpt><trkpt lat="44.2092403" lon="10.5563875"><ele>1312.5</ele><time>2026-04-26T09:35:14.233Z</time></trkpt><trkpt lat="44.2091214" lon="10.5563129"><ele>1311.25</ele><time>2026-04-26T09:35:15.225Z</time></trkpt><trkpt lat="44.2090065" lon="10.556238"><ele>1310.0</ele><time>2026-04-26T09:35:16.229Z</time></trkpt><trkpt lat="44.2089001" lon="10.556172"><ele>1312.2</ele><time>2026-04-26T09:35:17.227Z</time></trkpt><trkpt lat="44.2087987" lon="10.5561241"><ele>1314.4</ele><time>2026-04-26T09:35:18.228Z</time></trkpt><trkpt lat="44.2087051" lon="10.5560816"><ele>1316.6</ele><time>2026-04-26T09:35:19.229Z</time></trkpt><trkpt lat="44.2086088" lon="10.5560776"><ele>1318.8</ele><time>2026-04-26T09:35:20.232Z</time></trkpt><trkpt lat="44.208505" lon="10.5561006"><ele>1321.0</ele><time>2026-04-26T09:35:21.228Z</time></trkpt><trkpt lat="44.2083844" lon="10.5561373"><ele>1321.0</ele><time>2026-04-26T09:35:22.247Z</time></trkpt><trkpt lat="44.2082247" lon="10.5561571"><ele>1321.0</ele><time>2026-04-26T09:35:23.226Z</time></trkpt><trkpt lat="44.2080329" lon="10.5561669"><ele>1321.0</ele><time>2026-04-26T09:35:24.227Z</time></trkpt><trkpt lat="44.2078474" lon="10.5562018"><ele>1317.6666666666665</ele><time>2026-04-26T09:35:25.229Z</time></trkpt><trkpt lat="44.2076808" lon="10.5562301"><ele>1314.3333333333333</ele><time>2026-04-26T09:35:26.227Z</time></trkpt><trkpt lat="44.2075315" lon="10.5562558"><ele>1311.0</ele><time>2026-04-26T09:35:27.228Z</time></trkpt><trkpt lat="44.2073983" lon="10.5562949"><ele>1309.75</ele><time>2026-04-26T09:35:28.227Z</time></trkpt><trkpt lat="44.2072584" lon="10.5563285"><ele>1308.5</ele><time>2026-04-26T09:35:29.226Z</time></trkpt><trkpt lat="44.2071248" lon="10.5563574"><ele>1307.25</ele><time>2026-04-26T09:35:30.229Z</time></trkpt><trkpt lat="44.2069937" lon="10.556386"><ele>1306.0</ele><time>2026-04-26T09:35:31.231Z</time></trkpt><trkpt lat="44.2068568" lon="10.5564072"><ele>1306.0</ele><time>2026-04-26T09:35:32.242Z</time></trkpt><trkpt lat="44.2067166" lon="10.5564017"><ele>1306.0</ele><time>2026-04-26T09:35:33.229Z</time></trkpt><trkpt lat="44.2065675" lon="10.5564145"><ele>1306.0</ele><time>2026-04-26T09:35:34.23Z</time></trkpt><trkpt lat="44.2064615" lon="10.5564125"><ele>1306.0</ele><time>2026-04-26T09:35:35.227Z</time></trkpt><trkpt lat="44.2063672" lon="10.5564146"><ele>1305.8333333333333</ele><time>2026-04-26T09:35:36.227Z</time></trkpt><trkpt lat="44.2062762" lon="10.5564243"><ele>1305.6666666666665</ele><time>2026-04-26T09:35:37.229Z</time></trkpt><trkpt lat="44.2061921" lon="10.5564268"><ele>1305.5</ele><time>2026-04-26T09:35:38.227Z</time></trkpt><trkpt lat="44.2060972" lon="10.5563629"><ele>1305.3333333333333</ele><time>2026-04-26T09:35:40.23Z</time></trkpt><trkpt lat="44.2060532" lon="10.5562934"><ele>1305.1666666666667</ele><time>2026-04-26T09:35:42.246Z</time></trkpt><trkpt lat="44.2060759" lon="10.5561825"><ele>1305.0</ele><time>2026-04-26T09:38:58.24Z</time></trkpt><trkpt lat="44.2061045" lon="10.5560836"><ele>1304.1666666666667</ele><time>2026-04-26T09:41:44.234Z</time></trkpt><trkpt lat="44.2061313" lon="10.5559892"><ele>1303.3333333333333</ele><time>2026-04-26T09:41:45.234Z</time></trkpt><trkpt lat="44.206166" lon="10.5558926"><ele>1302.5</ele><time>2026-04-26T09:41:46.235Z</time></trkpt><trkpt lat="44.2061889" lon="10.5558003"><ele>1301.6666666666665</ele><time>2026-04-26T09:41:47.238Z</time></trkpt><trkpt lat="44.2062203" lon="10.555663"><ele>1300.8333333333333</ele><time>2026-04-26T09:41:48.232Z</time></trkpt><trkpt lat="44.2062656" lon="10.5555311"><ele>1300.0</ele><time>2026-04-26T09:41:49.232Z</time></trkpt><trkpt lat="44.2063283" lon="10.5554011"><ele>1298.2</ele><time>2026-04-26T09:41:50.234Z</time></trkpt><trkpt lat="44.2063963" lon="10.5552638"><ele>1296.4</ele><time>2026-04-26T09:41:51.239Z</time></trkpt><trkpt lat="44.2064496" lon="10.5551106"><ele>1294.6</ele><time>2026-04-26T09:41:52.235Z</time></trkpt><trkpt lat="44.2065003" lon="10.5549731"><ele>1292.8</ele><time>2026-04-26T09:41:53.236Z</time></trkpt><trkpt lat="44.206538" lon="10.5548637"><ele>1291.0</ele><time>2026-04-26T09:41:54.236Z</time></trkpt><trkpt lat="44.206572" lon="10.5547665"><ele>1293.5</ele><time>2026-04-26T09:41:55.245Z</time></trkpt><trkpt lat="44.2066095" lon="10.554683"><ele>1296.0</ele><time>2026-04-26T09:41:56.234Z</time></trkpt><trkpt lat="44.2066667" lon="10.554591"><ele>1298.5</ele><time>2026-04-26T09:41:57.232Z</time></trkpt><trkpt lat="44.2067386" lon="10.5545323"><ele>1301.0</ele><time>2026-04-26T09:41:58.238Z</time></trkpt><trkpt lat="44.206799" lon="10.5544891"><ele>1303.5</ele><time>2026-04-26T09:41:59.238Z</time></trkpt><trkpt lat="44.2068943" lon="10.5543616"><ele>1306.0</ele><time>2026-04-26T09:42:01.228Z</time></trkpt><trkpt lat="44.206931" lon="10.5542475"><ele>1306.0</ele><time>2026-04-26T09:42:02.239Z</time></trkpt><trkpt lat="44.2069544" lon="10.5541233"><ele>1306.0</ele><time>2026-04-26T09:42:03.233Z</time></trkpt><trkpt lat="44.206967" lon="10.5539926"><ele>1306.0</ele><time>2026-04-26T09:42:04.235Z</time></trkpt><trkpt lat="44.2069743" lon="10.5538632"><ele>1306.0</ele><time>2026-04-26T09:42:05.232Z</time></trkpt><trkpt lat="44.2069902" lon="10.5537423"><ele>1306.0</ele><time>2026-04-26T09:42:06.231Z</time></trkpt><trkpt lat="44.2070159" lon="10.5536261"><ele>1304.6</ele><time>2026-04-26T09:42:07.232Z</time></trkpt><trkpt lat="44.207051" lon="10.553512"><ele>1303.1999999999998</ele><time>2026-04-26T09:42:08.233Z</time></trkpt><trkpt lat="44.2070921" lon="10.5534001"><ele>1301.8000000000002</ele><time>2026-04-26T09:42:09.234Z</time></trkpt><trkpt lat="44.2071384" lon="10.5532948"><ele>1300.4</ele><time>2026-04-26T09:42:10.229Z</time></trkpt><trkpt lat="44.2072124" lon="10.553173"><ele>1299.0</ele><time>2026-04-26T09:42:11.232Z</time></trkpt><trkpt lat="44.2072744" lon="10.5530571"><ele>1304.2</ele><time>2026-04-26T09:42:12.231Z</time></trkpt><trkpt lat="44.2073279" lon="10.5529254"><ele>1309.4</ele><time>2026-04-26T09:42:13.235Z</time></trkpt><trkpt lat="44.2073624" lon="10.5527921"><ele>1314.6</ele><time>2026-04-26T09:42:14.231Z</time></trkpt><trkpt lat="44.2073952" lon="10.5526604"><ele>1319.8</ele><time>2026-04-26T09:42:15.238Z</time></trkpt><trkpt lat="44.2074333" lon="10.5525435"><ele>1325.0</ele><time>2026-04-26T09:42:16.232Z</time></trkpt><trkpt lat="44.2074825" lon="10.5524371"><ele>1325.0</ele><time>2026-04-26T09:42:17.235Z</time></trkpt><trkpt lat="44.2075443" lon="10.5523336"><ele>1325.0</ele><time>2026-04-26T09:42:18.23Z</time></trkpt><trkpt lat="44.2076195" lon="10.5522183"><ele>1325.0</ele><time>2026-04-26T09:42:19.234Z</time></trkpt><trkpt lat="44.2077" lon="10.552088"><ele>1325.0</ele><time>2026-04-26T09:42:20.234Z</time></trkpt><trkpt lat="44.207779" lon="10.5519517"><ele>1322.8</ele><time>2026-04-26T09:42:21.25Z</time></trkpt><trkpt lat="44.2078402" lon="10.5518137"><ele>1320.6</ele><time>2026-04-26T09:42:22.233Z</time></trkpt><trkpt lat="44.2078832" lon="10.5516685"><ele>1318.4</ele><time>2026-04-26T09:42:23.237Z</time></trkpt><trkpt lat="44.2079114" lon="10.5515237"><ele>1316.2</ele><time>2026-04-26T09:42:24.236Z</time></trkpt><trkpt lat="44.2079241" lon="10.5513811"><ele>1314.0</ele><time>2026-04-26T09:42:25.239Z</time></trkpt><trkpt lat="44.207925" lon="10.5512416"><ele>1312.6666666666667</ele><time>2026-04-26T09:42:26.232Z</time></trkpt><trkpt lat="44.2079214" lon="10.5511061"><ele>1311.3333333333333</ele><time>2026-04-26T09:42:27.232Z</time></trkpt><trkpt lat="44.2079162" lon="10.5509864"><ele>1310.0</ele><time>2026-04-26T09:42:28.232Z</time></trkpt><trkpt lat="44.2078973" lon="10.5508847"><ele>1308.6666666666665</ele><time>2026-04-26T09:42:29.234Z</time></trkpt><trkpt lat="44.2078505" lon="10.5508043"><ele>1307.3333333333333</ele><time>2026-04-26T09:42:30.236Z</time></trkpt><trkpt lat="44.207784" lon="10.5507452"><ele>1306.0</ele><time>2026-04-26T09:42:31.233Z</time></trkpt><trkpt lat="44.207693" lon="10.5507186"><ele>1306.0</ele><time>2026-04-26T09:42:32.236Z</time></trkpt><trkpt lat="44.2075876" lon="10.5506964"><ele>1306.0</ele><time>2026-04-26T09:42:33.234Z</time></trkpt><trkpt lat="44.207477" lon="10.5506816"><ele>1306.0</ele><time>2026-04-26T09:42:34.235Z</time></trkpt><trkpt lat="44.2073745" lon="10.5506785"><ele>1306.0</ele><time>2026-04-26T09:42:35.235Z</time></trkpt><trkpt lat="44.207282" lon="10.5506837"><ele>1306.0</ele><time>2026-04-26T09:42:36.234Z</time></trkpt><trkpt lat="44.2072133" lon="10.5506989"><ele>1301.5</ele><time>2026-04-26T09:42:37.232Z</time></trkpt><trkpt lat="44.207111" lon="10.5507052"><ele>1297.0</ele><time>2026-04-26T09:42:39.231Z</time></trkpt><trkpt lat="44.2070397" lon="10.5506167"><ele>1292.5</ele><time>2026-04-26T09:42:41.235Z</time></trkpt><trkpt lat="44.2069844" lon="10.5505065"><ele>1288.0</ele><time>2026-04-26T09:42:43.234Z</time></trkpt><trkpt lat="44.207002" lon="10.5502848"><ele>1288.0</ele><time>2026-04-26T09:42:45.237Z</time></trkpt><trkpt lat="44.2070083" lon="10.5501608"><ele>1288.0</ele><time>2026-04-26T09:42:46.235Z</time></trkpt><trkpt lat="44.2070026" lon="10.5500368"><ele>1288.0</ele><time>2026-04-26T09:42:47.237Z</time></trkpt><trkpt lat="44.2069715" lon="10.549913"><ele>1288.0</ele><time>2026-04-26T09:42:48.24Z</time></trkpt><trkpt lat="44.2069335" lon="10.5497975"><ele>1288.0</ele><time>2026-04-26T09:42:49.238Z</time></trkpt><trkpt lat="44.2068991" lon="10.549685"><ele>1288.0</ele><time>2026-04-26T09:42:50.239Z</time></trkpt><trkpt lat="44.2068607" lon="10.5495809"><ele>1288.0</ele><time>2026-04-26T09:42:51.232Z</time></trkpt><trkpt lat="44.2068269" lon="10.5494624"><ele>1288.0</ele><time>2026-04-26T09:42:52.236Z</time></trkpt><trkpt lat="44.2068015" lon="10.5493336"><ele>1288.0</ele><time>2026-04-26T09:42:53.236Z</time></trkpt><trkpt lat="44.2067751" lon="10.5492182"><ele>1288.0</ele><time>2026-04-26T09:42:54.233Z</time></trkpt><trkpt lat="44.2067547" lon="10.5491287"><ele>1288.0</ele><time>2026-04-26T09:42:55.236Z</time></trkpt><trkpt lat="44.2066894" lon="10.5490061"><ele>1288.8000000000002</ele><time>2026-04-26T09:42:57.231Z</time></trkpt><trkpt lat="44.2066245" lon="10.5489372"><ele>1289.6</ele><time>2026-04-26T09:42:58.239Z</time></trkpt><trkpt lat="44.2065501" lon="10.5488615"><ele>1290.4</ele><time>2026-04-26T09:42:59.238Z</time></trkpt><trkpt lat="44.2064685" lon="10.548784"><ele>1291.1999999999998</ele><time>2026-04-26T09:43:00.236Z</time></trkpt><trkpt lat="44.2063739" lon="10.5487006"><ele>1292.0</ele><time>2026-04-26T09:43:01.24Z</time></trkpt><trkpt lat="44.2062824" lon="10.5486161"><ele>1288.8</ele><time>2026-04-26T09:43:02.236Z</time></trkpt><trkpt lat="44.2061898" lon="10.5485358"><ele>1285.6</ele><time>2026-04-26T09:43:03.232Z</time></trkpt><trkpt lat="44.206106" lon="10.5484699"><ele>1282.3999999999999</ele><time>2026-04-26T09:43:04.235Z</time></trkpt><trkpt lat="44.2060165" lon="10.5483991"><ele>1279.1999999999998</ele><time>2026-04-26T09:43:05.232Z</time></trkpt><trkpt lat="44.2059367" lon="10.548342"><ele>1276.0</ele><time>2026-04-26T09:43:06.234Z</time></trkpt><trkpt lat="44.2058641" lon="10.5482792"><ele>1276.0</ele><time>2026-04-26T09:43:07.232Z</time></trkpt><trkpt lat="44.2058047" lon="10.5482146"><ele>1276.0</ele><time>2026-04-26T09:43:08.233Z</time></trkpt><trkpt lat="44.2057472" lon="10.5481504"><ele>1276.0</ele><time>2026-04-26T09:43:09.231Z</time></trkpt><trkpt lat="44.2056937" lon="10.548083"><ele>1276.0</ele><time>2026-04-26T09:43:10.23Z</time></trkpt><trkpt lat="44.2056474" lon="10.547972"><ele>1276.0</ele><time>2026-04-26T09:43:11.231Z</time></trkpt><trkpt lat="44.2056109" lon="10.5478614"><ele>1276.0</ele><time>2026-04-26T09:43:12.236Z</time></trkpt><trkpt lat="44.2055607" lon="10.5477536"><ele>1272.3999999999999</ele><time>2026-04-26T09:43:13.236Z</time></trkpt><trkpt lat="44.2054935" lon="10.5476401"><ele>1268.8</ele><time>2026-04-26T09:43:14.234Z</time></trkpt><trkpt lat="44.2054203" lon="10.5475385"><ele>1265.1999999999998</ele><time>2026-04-26T09:43:15.235Z</time></trkpt><trkpt lat="44.2053563" lon="10.5474475"><ele>1261.6</ele><time>2026-04-26T09:43:16.241Z</time></trkpt><trkpt lat="44.2052989" lon="10.5473672"><ele>1258.0</ele><time>2026-04-26T09:43:17.236Z</time></trkpt><trkpt lat="44.2052529" lon="10.5472768"><ele>1258.0</ele><time>2026-04-26T09:43:18.235Z</time></trkpt><trkpt lat="44.2052026" lon="10.5470975"><ele>1258.0</ele><time>2026-04-26T09:43:19.235Z</time></trkpt><trkpt lat="44.2051793" lon="10.5469926"><ele>1258.0</ele><time>2026-04-26T09:43:20.239Z</time></trkpt><trkpt lat="44.2051633" lon="10.5469056"><ele>1258.0</ele><time>2026-04-26T09:43:21.231Z</time></trkpt><trkpt lat="44.205136" lon="10.5468131"><ele>1258.0</ele><time>2026-04-26T09:43:22.238Z</time></trkpt><trkpt lat="44.2051209" lon="10.5466965"><ele>1258.0</ele><time>2026-04-26T09:43:23.236Z</time></trkpt><trkpt lat="44.2051044" lon="10.5465324"><ele>1258.6666666666665</ele><time>2026-04-26T09:43:25.234Z</time></trkpt><trkpt lat="44.2051127" lon="10.5464257"><ele>1259.3333333333333</ele><time>2026-04-26T09:43:26.238Z</time></trkpt><trkpt lat="44.2051497" lon="10.5463103"><ele>1260.0</ele><time>2026-04-26T09:43:27.235Z</time></trkpt><trkpt lat="44.2051921" lon="10.5461927"><ele>1260.6666666666667</ele><time>2026-04-26T09:43:28.235Z</time></trkpt><trkpt lat="44.205243" lon="10.5460903"><ele>1261.3333333333335</ele><time>2026-04-26T09:43:29.235Z</time></trkpt><trkpt lat="44.2053042" lon="10.5459976"><ele>1262.0</ele><time>2026-04-26T09:43:30.236Z</time></trkpt><trkpt lat="44.2053747" lon="10.5458981"><ele>1260.4</ele><time>2026-04-26T09:43:31.237Z</time></trkpt><trkpt lat="44.2054476" lon="10.5457777"><ele>1258.8000000000002</ele><time>2026-04-26T09:43:32.232Z</time></trkpt><trkpt lat="44.2054998" lon="10.5456954"><ele>1257.2</ele><time>2026-04-26T09:43:33.231Z</time></trkpt><trkpt lat="44.2055425" lon="10.5456199"><ele>1255.6000000000001</ele><time>2026-04-26T09:43:34.233Z</time></trkpt><trkpt lat="44.2055821" lon="10.5455315"><ele>1254.0</ele><time>2026-04-26T09:43:35.239Z</time></trkpt><trkpt lat="44.2056137" lon="10.5453507"><ele>1253.3333333333333</ele><time>2026-04-26T09:43:37.239Z</time></trkpt><trkpt lat="44.2056365" lon="10.5452555"><ele>1252.6666666666667</ele><time>2026-04-26T09:43:38.234Z</time></trkpt><trkpt lat="44.2056631" lon="10.5451505"><ele>1252.0</ele><time>2026-04-26T09:43:39.237Z</time></trkpt><trkpt lat="44.2056756" lon="10.5450361"><ele>1251.3333333333335</ele><time>2026-04-26T09:43:40.233Z</time></trkpt><trkpt lat="44.205667" lon="10.544899"><ele>1250.6666666666667</ele><time>2026-04-26T09:43:41.235Z</time></trkpt><trkpt lat="44.2056452" lon="10.5447514"><ele>1250.0</ele><time>2026-04-26T09:43:42.236Z</time></trkpt><trkpt lat="44.2056154" lon="10.5446333"><ele>1250.4</ele><time>2026-04-26T09:43:43.232Z</time></trkpt><trkpt lat="44.2055927" lon="10.5444978"><ele>1250.8</ele><time>2026-04-26T09:43:44.232Z</time></trkpt><trkpt lat="44.2055842" lon="10.5443749"><ele>1251.2</ele><time>2026-04-26T09:43:45.237Z</time></trkpt><trkpt lat="44.2055882" lon="10.5442689"><ele>1251.6</ele><time>2026-04-26T09:43:46.232Z</time></trkpt><trkpt lat="44.2056059" lon="10.5441823"><ele>1252.0</ele><time>2026-04-26T09:43:47.233Z</time></trkpt><trkpt lat="44.2056883" lon="10.5440589"><ele>1255.4</ele><time>2026-04-26T09:43:49.235Z</time></trkpt><trkpt lat="44.2057528" lon="10.5440076"><ele>1258.8000000000002</ele><time>2026-04-26T09:43:50.24Z</time></trkpt><trkpt lat="44.2058349" lon="10.5439259"><ele>1262.2</ele><time>2026-04-26T09:43:51.239Z</time></trkpt><trkpt lat="44.2059367" lon="10.5438303"><ele>1265.6000000000001</ele><time>2026-04-26T09:43:52.232Z</time></trkpt><trkpt lat="44.2060382" lon="10.543745"><ele>1269.0</ele><time>2026-04-26T09:43:53.236Z</time></trkpt><trkpt lat="44.2061464" lon="10.543661"><ele>1269.0</ele><time>2026-04-26T09:43:54.239Z</time></trkpt><trkpt lat="44.2062424" lon="10.5435892"><ele>1269.0</ele><time>2026-04-26T09:43:55.235Z</time></trkpt><trkpt lat="44.2063382" lon="10.5435055"><ele>1269.0</ele><time>2026-04-26T09:43:56.239Z</time></trkpt><trkpt lat="44.2064406" lon="10.5434235"><ele>1269.0</ele><time>2026-04-26T09:43:57.236Z</time></trkpt><trkpt lat="44.2065226" lon="10.54334"><ele>1269.0</ele><time>2026-04-26T09:43:58.235Z</time></trkpt><trkpt lat="44.2066236" lon="10.5432249"><ele>1271.0</ele><time>2026-04-26T09:43:59.234Z</time></trkpt><trkpt lat="44.2066815" lon="10.5431241"><ele>1273.0</ele><time>2026-04-26T09:44:00.242Z</time></trkpt><trkpt lat="44.2067072" lon="10.5430279"><ele>1275.0</ele><time>2026-04-26T09:44:01.237Z</time></trkpt><trkpt lat="44.2067219" lon="10.5429243"><ele>1277.0</ele><time>2026-04-26T09:44:02.234Z</time></trkpt><trkpt lat="44.2067363" lon="10.5427999"><ele>1279.0</ele><time>2026-04-26T09:44:03.235Z</time></trkpt><trkpt lat="44.2067525" lon="10.5426616"><ele>1281.0</ele><time>2026-04-26T09:44:04.24Z</time></trkpt><trkpt lat="44.2067618" lon="10.5424981"><ele>1281.0</ele><time>2026-04-26T09:44:05.238Z</time></trkpt><trkpt lat="44.2067513" lon="10.542366"><ele>1281.0</ele><time>2026-04-26T09:44:06.234Z</time></trkpt><trkpt lat="44.2067225" lon="10.5422356"><ele>1281.0</ele><time>2026-04-26T09:44:07.241Z</time></trkpt><trkpt lat="44.2066755" lon="10.5420941"><ele>1281.0</ele><time>2026-04-26T09:44:08.237Z</time></trkpt><trkpt lat="44.2066281" lon="10.5419311"><ele>1281.0</ele><time>2026-04-26T09:44:09.235Z</time></trkpt><trkpt lat="44.2065871" lon="10.5417659"><ele>1281.3333333333333</ele><time>2026-04-26T09:44:10.237Z</time></trkpt><trkpt lat="44.2065617" lon="10.5416385"><ele>1281.6666666666667</ele><time>2026-04-26T09:44:11.24Z</time></trkpt><trkpt lat="44.2065356" lon="10.5415287"><ele>1282.0</ele><time>2026-04-26T09:44:12.236Z</time></trkpt><trkpt lat="44.2064936" lon="10.541443"><ele>1282.3333333333335</ele><time>2026-04-26T09:44:13.236Z</time></trkpt><trkpt lat="44.2064523" lon="10.5413581"><ele>1282.6666666666667</ele><time>2026-04-26T09:44:14.24Z</time></trkpt><trkpt lat="44.2064228" lon="10.5412698"><ele>1283.0</ele><time>2026-04-26T09:44:15.234Z</time></trkpt><trkpt lat="44.2064172" lon="10.5411663"><ele>1283.0</ele><time>2026-04-26T09:44:16.239Z</time></trkpt><trkpt lat="44.2064313" lon="10.5410531"><ele>1283.0</ele><time>2026-04-26T09:44:17.235Z</time></trkpt><trkpt lat="44.2064748" lon="10.540949"><ele>1283.0</ele><time>2026-04-26T09:44:18.239Z</time></trkpt><trkpt lat="44.2065475" lon="10.5408381"><ele>1283.0</ele><time>2026-04-26T09:44:19.239Z</time></trkpt><trkpt lat="44.2066151" lon="10.5407205"><ele>1283.0</ele><time>2026-04-26T09:44:20.237Z</time></trkpt><trkpt lat="44.2066712" lon="10.54061"><ele>1283.0</ele><time>2026-04-26T09:44:21.241Z</time></trkpt><trkpt lat="44.2067277" lon="10.5405027"><ele>1283.0</ele><time>2026-04-26T09:44:22.241Z</time></trkpt><trkpt lat="44.2067864" lon="10.5404027"><ele>1283.0</ele><time>2026-04-26T09:44:23.245Z</time></trkpt><trkpt lat="44.2068397" lon="10.5403027"><ele>1283.0</ele><time>2026-04-26T09:44:24.235Z</time></trkpt><trkpt lat="44.2068687" lon="10.5401967"><ele>1283.0</ele><time>2026-04-26T09:44:25.235Z</time></trkpt><trkpt lat="44.2068699" lon="10.5400945"><ele>1283.0</ele><time>2026-04-26T09:44:26.237Z</time></trkpt><trkpt lat="44.2068614" lon="10.5400036"><ele>1281.8333333333335</ele><time>2026-04-26T09:44:27.237Z</time></trkpt><trkpt lat="44.206851" lon="10.5399154"><ele>1280.6666666666667</ele><time>2026-04-26T09:44:28.235Z</time></trkpt><trkpt lat="44.2068056" lon="10.5397735"><ele>1279.5</ele><time>2026-04-26T09:44:30.238Z</time></trkpt><trkpt lat="44.2067468" lon="10.5397055"><ele>1278.3333333333333</ele><time>2026-04-26T09:44:31.243Z</time></trkpt><trkpt lat="44.2066771" lon="10.5396302"><ele>1277.1666666666665</ele><time>2026-04-26T09:44:32.24Z</time></trkpt><trkpt lat="44.2066152" lon="10.5395757"><ele>1276.0</ele><time>2026-04-26T09:44:33.239Z</time></trkpt><trkpt lat="44.206539" lon="10.5395252"><ele>1274.5</ele><time>2026-04-26T09:44:34.236Z</time></trkpt><trkpt lat="44.2064467" lon="10.5395154"><ele>1273.0</ele><time>2026-04-26T09:44:35.244Z</time></trkpt><trkpt lat="44.2063657" lon="10.5395169"><ele>1271.5</ele><time>2026-04-26T09:44:36.24Z</time></trkpt><trkpt lat="44.2062911" lon="10.5394985"><ele>1270.0</ele><time>2026-04-26T09:44:37.234Z</time></trkpt><trkpt lat="44.2062219" lon="10.5394746"><ele>1268.5</ele><time>2026-04-26T09:44:38.247Z</time></trkpt><trkpt lat="44.2061478" lon="10.5394438"><ele>1267.0</ele><time>2026-04-26T09:44:39.238Z</time></trkpt><trkpt lat="44.2060633" lon="10.5394059"><ele>1267.0</ele><time>2026-04-26T09:44:40.237Z</time></trkpt><trkpt lat="44.2059875" lon="10.5393388"><ele>1267.0</ele><time>2026-04-26T09:44:41.241Z</time></trkpt><trkpt lat="44.205892" lon="10.5392689"><ele>1267.0</ele><time>2026-04-26T09:44:42.244Z</time></trkpt><trkpt lat="44.2058054" lon="10.539219"><ele>1267.0</ele><time>2026-04-26T09:44:43.236Z</time></trkpt><trkpt lat="44.2057166" lon="10.5391767"><ele>1267.0</ele><time>2026-04-26T09:44:44.234Z</time></trkpt><trkpt lat="44.2056279" lon="10.5391171"><ele>1265.0</ele><time>2026-04-26T09:44:45.233Z</time></trkpt><trkpt lat="44.2055451" lon="10.539036"><ele>1263.0</ele><time>2026-04-26T09:44:46.246Z</time></trkpt><trkpt lat="44.2054761" lon="10.5389294"><ele>1261.0</ele><time>2026-04-26T09:44:47.236Z</time></trkpt><trkpt lat="44.2054226" lon="10.5388136"><ele>1259.0</ele><time>2026-04-26T09:44:48.235Z</time></trkpt><trkpt lat="44.2053654" lon="10.5386923"><ele>1257.0</ele><time>2026-04-26T09:44:49.241Z</time></trkpt><trkpt lat="44.2052715" lon="10.5386055"><ele>1257.0</ele><time>2026-04-26T09:44:51.233Z</time></trkpt><trkpt lat="44.2051959" lon="10.5385987"><ele>1257.0</ele><time>2026-04-26T09:44:52.234Z</time></trkpt><trkpt lat="44.2051054" lon="10.5387459"><ele>1257.0</ele><time>2026-04-26T09:44:54.233Z</time></trkpt><trkpt lat="44.2050673" lon="10.5388462"><ele>1257.0</ele><time>2026-04-26T09:44:55.241Z</time></trkpt><trkpt lat="44.2050136" lon="10.5389207"><ele>1257.0</ele><time>2026-04-26T09:44:56.232Z</time></trkpt><trkpt lat="44.2049499" lon="10.5389615"><ele>1257.0</ele><time>2026-04-26T09:44:57.229Z</time></trkpt><trkpt lat="44.2048764" lon="10.5389579"><ele>1252.6666666666667</ele><time>2026-04-26T09:44:58.237Z</time></trkpt><trkpt lat="44.2047964" lon="10.5389084"><ele>1248.3333333333333</ele><time>2026-04-26T09:44:59.234Z</time></trkpt><trkpt lat="44.204712" lon="10.5388713"><ele>1244.0</ele><time>2026-04-26T09:45:00.234Z</time></trkpt><trkpt lat="44.2046225" lon="10.5388271"><ele>1239.6666666666665</ele><time>2026-04-26T09:45:01.236Z</time></trkpt><trkpt lat="44.2045306" lon="10.5387852"><ele>1235.3333333333333</ele><time>2026-04-26T09:45:02.241Z</time></trkpt><trkpt lat="44.2044732" lon="10.5387303"><ele>1231.0</ele><time>2026-04-26T09:45:03.236Z</time></trkpt><trkpt lat="44.2044211" lon="10.5386731"><ele>1231.0</ele><time>2026-04-26T09:45:04.24Z</time></trkpt><trkpt lat="44.2044037" lon="10.5385812"><ele>1231.0</ele><time>2026-04-26T09:45:05.24Z</time></trkpt><trkpt lat="44.2044304" lon="10.5384631"><ele>1231.0</ele><time>2026-04-26T09:45:06.237Z</time></trkpt><trkpt lat="44.2044566" lon="10.5383348"><ele>1231.0</ele><time>2026-04-26T09:45:07.236Z</time></trkpt><trkpt lat="44.2044748" lon="10.5382197"><ele>1231.0</ele><time>2026-04-26T09:45:08.236Z</time></trkpt><trkpt lat="44.2044877" lon="10.5381272"><ele>1231.0</ele><time>2026-04-26T09:45:09.247Z</time></trkpt><trkpt lat="44.2044617" lon="10.5379728"><ele>1231.0</ele><time>2026-04-26T09:45:11.236Z</time></trkpt><trkpt lat="44.204422" lon="10.5378116"><ele>1231.0</ele><time>2026-04-26T09:45:13.235Z</time></trkpt><trkpt lat="44.2043893" lon="10.5377067"><ele>1231.0</ele><time>2026-04-26T09:45:14.233Z</time></trkpt><trkpt lat="44.2043651" lon="10.5375757"><ele>1231.0</ele><time>2026-04-26T09:45:15.235Z</time></trkpt><trkpt lat="44.2043383" lon="10.5374433"><ele>1231.0</ele><time>2026-04-26T09:45:16.233Z</time></trkpt><trkpt lat="44.2043191" lon="10.537328"><ele>1231.0</ele><time>2026-04-26T09:45:17.237Z</time></trkpt><trkpt lat="44.204297" lon="10.537218"><ele>1231.0</ele><time>2026-04-26T09:45:18.235Z</time></trkpt><trkpt lat="44.2042404" lon="10.537115"><ele>1231.0</ele><time>2026-04-26T09:45:19.238Z</time></trkpt><trkpt lat="44.2041926" lon="10.5370127"><ele>1231.0</ele><time>2026-04-26T09:45:20.236Z</time></trkpt><trkpt lat="44.2041517" lon="10.5368965"><ele>1231.0</ele><time>2026-04-26T09:45:21.235Z</time></trkpt><trkpt lat="44.2041127" lon="10.5367686"><ele>1230.8</ele><time>2026-04-26T09:45:22.234Z</time></trkpt><trkpt lat="44.2040669" lon="10.5366626"><ele>1230.6</ele><time>2026-04-26T09:45:23.239Z</time></trkpt><trkpt lat="44.2040297" lon="10.5365686"><ele>1230.4</ele><time>2026-04-26T09:45:24.234Z</time></trkpt><trkpt lat="44.2040071" lon="10.5364311"><ele>1230.2</ele><time>2026-04-26T09:45:25.233Z</time></trkpt><trkpt lat="44.2040116" lon="10.5362874"><ele>1230.0</ele><time>2026-04-26T09:45:26.235Z</time></trkpt><trkpt lat="44.204013" lon="10.5361665"><ele>1227.2</ele><time>2026-04-26T09:45:27.239Z</time></trkpt><trkpt lat="44.2039906" lon="10.5360408"><ele>1224.4</ele><time>2026-04-26T09:45:29.233Z</time></trkpt><trkpt lat="44.2039212" lon="10.5359765"><ele>1221.6</ele><time>2026-04-26T09:45:32.235Z</time></trkpt><trkpt lat="44.2038559" lon="10.5358676"><ele>1218.8</ele><time>2026-04-26T09:51:56.22Z</time></trkpt><trkpt lat="44.2038167" lon="10.5357879"><ele>1216.0</ele><time>2026-04-26T09:51:59.242Z</time></trkpt><trkpt lat="44.2037194" lon="10.5356703"><ele>1216.0</ele><time>2026-04-26T09:52:01.259Z</time></trkpt><trkpt lat="44.2036653" lon="10.5355898"><ele>1216.0</ele><time>2026-04-26T09:52:02.237Z</time></trkpt><trkpt lat="44.2036049" lon="10.5354979"><ele>1216.0</ele><time>2026-04-26T09:52:03.24Z</time></trkpt><trkpt lat="44.2035475" lon="10.5354029"><ele>1216.0</ele><time>2026-04-26T09:52:04.238Z</time></trkpt><trkpt lat="44.2034919" lon="10.5352907"><ele>1216.0</ele><time>2026-04-26T09:52:05.238Z</time></trkpt><trkpt lat="44.2034376" lon="10.5351733"><ele>1217.25</ele><time>2026-04-26T09:52:06.239Z</time></trkpt><trkpt lat="44.2033771" lon="10.5350468"><ele>1218.5</ele><time>2026-04-26T09:52:07.236Z</time></trkpt><trkpt lat="44.2033136" lon="10.534922"><ele>1219.75</ele><time>2026-04-26T09:52:08.236Z</time></trkpt><trkpt lat="44.2032484" lon="10.5347916"><ele>1221.0</ele><time>2026-04-26T09:52:09.246Z</time></trkpt><trkpt lat="44.2031809" lon="10.534653"><ele>1221.5</ele><time>2026-04-26T09:52:10.236Z</time></trkpt><trkpt lat="44.2031115" lon="10.5345103"><ele>1222.0</ele><time>2026-04-26T09:52:11.239Z</time></trkpt><trkpt lat="44.2030432" lon="10.53436"><ele>1222.5</ele><time>2026-04-26T09:52:12.236Z</time></trkpt><trkpt lat="44.2029744" lon="10.5342021"><ele>1223.0</ele><time>2026-04-26T09:52:13.236Z</time></trkpt><trkpt lat="44.2028993" lon="10.5340381"><ele>1223.0</ele><time>2026-04-26T09:52:14.236Z</time></trkpt><trkpt lat="44.2028227" lon="10.5338728"><ele>1223.0</ele><time>2026-04-26T09:52:15.236Z</time></trkpt><trkpt lat="44.2027331" lon="10.5336923"><ele>1223.0</ele><time>2026-04-26T09:52:16.237Z</time></trkpt><trkpt lat="44.2026338" lon="10.5335055"><ele>1223.0</ele><time>2026-04-26T09:52:17.239Z</time></trkpt><trkpt lat="44.202531" lon="10.5333182"><ele>1223.0</ele><time>2026-04-26T09:52:18.236Z</time></trkpt><trkpt lat="44.202427" lon="10.5331308"><ele>1223.0</ele><time>2026-04-26T09:52:19.237Z</time></trkpt><trkpt lat="44.2023207" lon="10.5329466"><ele>1221.6666666666667</ele><time>2026-04-26T09:52:20.236Z</time></trkpt><trkpt lat="44.2022153" lon="10.5327602"><ele>1220.3333333333333</ele><time>2026-04-26T09:52:21.237Z</time></trkpt><trkpt lat="44.2021142" lon="10.532572"><ele>1219.0</ele><time>2026-04-26T09:52:22.241Z</time></trkpt><trkpt lat="44.2020141" lon="10.5323832"><ele>1219.0</ele><time>2026-04-26T09:52:23.236Z</time></trkpt><trkpt lat="44.201913" lon="10.5321963"><ele>1219.0</ele><time>2026-04-26T09:52:24.237Z</time></trkpt><trkpt lat="44.2018138" lon="10.5320132"><ele>1219.0</ele><time>2026-04-26T09:52:25.234Z</time></trkpt><trkpt lat="44.2017186" lon="10.5318336"><ele>1221.3333333333333</ele><time>2026-04-26T09:52:26.246Z</time></trkpt><trkpt lat="44.2016242" lon="10.5316554"><ele>1223.6666666666667</ele><time>2026-04-26T09:52:27.238Z</time></trkpt><trkpt lat="44.2015308" lon="10.5314894"><ele>1226.0</ele><time>2026-04-26T09:52:28.238Z</time></trkpt><trkpt lat="44.2014295" lon="10.5313506"><ele>1226.0</ele><time>2026-04-26T09:52:29.239Z</time></trkpt><trkpt lat="44.201314" lon="10.5312372"><ele>1226.0</ele><time>2026-04-26T09:52:30.24Z</time></trkpt><trkpt lat="44.2011815" lon="10.5311451"><ele>1226.0</ele><time>2026-04-26T09:52:31.241Z</time></trkpt><trkpt lat="44.2010381" lon="10.5310689"><ele>1226.0</ele><time>2026-04-26T09:52:32.236Z</time></trkpt><trkpt lat="44.20089" lon="10.5309936"><ele>1228.0</ele><time>2026-04-26T09:52:33.235Z</time></trkpt><trkpt lat="44.2007362" lon="10.530934"><ele>1230.0</ele><time>2026-04-26T09:52:34.238Z</time></trkpt><trkpt lat="44.2005849" lon="10.5308745"><ele>1232.0</ele><time>2026-04-26T09:52:35.236Z</time></trkpt><trkpt lat="44.2004371" lon="10.5308125"><ele>1232.5</ele><time>2026-04-26T09:52:36.237Z</time></trkpt><trkpt lat="44.2002941" lon="10.5307615"><ele>1233.0</ele><time>2026-04-26T09:52:37.237Z</time></trkpt><trkpt lat="44.2001534" lon="10.53073"><ele>1233.5</ele><time>2026-04-26T09:52:38.24Z</time></trkpt><trkpt lat="44.2000163" lon="10.5306815"><ele>1234.0</ele><time>2026-04-26T09:52:39.242Z</time></trkpt><trkpt lat="44.1998877" lon="10.5306033"><ele>1233.0</ele><time>2026-04-26T09:52:40.245Z</time></trkpt><trkpt lat="44.1997626" lon="10.5305059"><ele>1232.0</ele><time>2026-04-26T09:52:41.242Z</time></trkpt><trkpt lat="44.199637" lon="10.5304009"><ele>1231.0</ele><time>2026-04-26T09:52:42.235Z</time></trkpt><trkpt lat="44.1995081" lon="10.5303283"><ele>1230.0</ele><time>2026-04-26T09:52:43.242Z</time></trkpt><trkpt lat="44.1993665" lon="10.5302619"><ele>1231.0</ele><time>2026-04-26T09:52:44.24Z</time></trkpt><trkpt lat="44.1992392" lon="10.5301891"><ele>1232.0</ele><time>2026-04-26T09:52:45.232Z</time></trkpt><trkpt lat="44.1991356" lon="10.5300718"><ele>1233.0</ele><time>2026-04-26T09:52:46.242Z</time></trkpt><trkpt lat="44.199042" lon="10.5299283"><ele>1234.0</ele><time>2026-04-26T09:52:47.239Z</time></trkpt><trkpt lat="44.1989656" lon="10.5297685"><ele>1234.0</ele><time>2026-04-26T09:52:48.24Z</time></trkpt><trkpt lat="44.1988931" lon="10.5296259"><ele>1234.0</ele><time>2026-04-26T09:52:49.245Z</time></trkpt><trkpt lat="44.198832" lon="10.5294955"><ele>1234.0</ele><time>2026-04-26T09:52:50.24Z</time></trkpt><trkpt lat="44.1987802" lon="10.5293902"><ele>1234.0</ele><time>2026-04-26T09:52:51.237Z</time></trkpt><trkpt lat="44.1987424" lon="10.5293175"><ele>1234.0</ele><time>2026-04-26T09:52:52.24Z</time></trkpt><trkpt lat="44.1986866" lon="10.5292327"><ele>1235.4</ele><time>2026-04-26T09:52:54.238Z</time></trkpt><trkpt lat="44.1985945" lon="10.5291921"><ele>1236.8000000000002</ele><time>2026-04-26T09:52:56.247Z</time></trkpt><trkpt lat="44.1985083" lon="10.5291696"><ele>1238.1999999999998</ele><time>2026-04-26T09:52:59.241Z</time></trkpt><trkpt lat="44.1983797" lon="10.5290932"><ele>1239.6</ele><time>2026-04-26T09:53:31.241Z</time></trkpt><trkpt lat="44.1982987" lon="10.5289704"><ele>1241.0</ele><time>2026-04-26T09:53:33.239Z</time></trkpt><trkpt lat="44.1982475" lon="10.5289048"><ele>1241.2</ele><time>2026-04-26T09:53:34.238Z</time></trkpt><trkpt lat="44.1981672" lon="10.5288289"><ele>1241.3999999999999</ele><time>2026-04-26T09:53:35.236Z</time></trkpt><trkpt lat="44.1980906" lon="10.5287493"><ele>1241.6</ele><time>2026-04-26T09:53:36.241Z</time></trkpt><trkpt lat="44.1980103" lon="10.528663"><ele>1241.8</ele><time>2026-04-26T09:53:37.24Z</time></trkpt><trkpt lat="44.1979324" lon="10.5285922"><ele>1242.0</ele><time>2026-04-26T09:53:38.235Z</time></trkpt><trkpt lat="44.1978423" lon="10.5285235"><ele>1244.0</ele><time>2026-04-26T09:53:39.239Z</time></trkpt><trkpt lat="44.1977487" lon="10.5284221"><ele>1246.0</ele><time>2026-04-26T09:53:40.244Z</time></trkpt><trkpt lat="44.1976757" lon="10.5283174"><ele>1248.0</ele><time>2026-04-26T09:53:41.237Z</time></trkpt><trkpt lat="44.1976025" lon="10.5282355"><ele>1250.0</ele><time>2026-04-26T09:53:42.236Z</time></trkpt><trkpt lat="44.1975443" lon="10.5281497"><ele>1252.0</ele><time>2026-04-26T09:53:43.239Z</time></trkpt><trkpt lat="44.1974801" lon="10.52806"><ele>1252.0</ele><time>2026-04-26T09:53:44.241Z</time></trkpt><trkpt lat="44.1974169" lon="10.5279894"><ele>1252.0</ele><time>2026-04-26T09:53:45.237Z</time></trkpt><trkpt lat="44.1973462" lon="10.5279342"><ele>1252.0</ele><time>2026-04-26T09:53:46.244Z</time></trkpt><trkpt lat="44.1972762" lon="10.5278964"><ele>1252.0</ele><time>2026-04-26T09:53:47.238Z</time></trkpt><trkpt lat="44.1972044" lon="10.5278554"><ele>1252.0</ele><time>2026-04-26T09:53:48.245Z</time></trkpt><trkpt lat="44.1971337" lon="10.5278207"><ele>1252.0</ele><time>2026-04-26T09:53:49.237Z</time></trkpt><trkpt lat="44.1970632" lon="10.5277682"><ele>1254.3333333333333</ele><time>2026-04-26T09:53:50.239Z</time></trkpt><trkpt lat="44.1969975" lon="10.5277112"><ele>1256.6666666666665</ele><time>2026-04-26T09:53:51.236Z</time></trkpt><trkpt lat="44.1969225" lon="10.5276428"><ele>1259.0</ele><time>2026-04-26T09:53:52.239Z</time></trkpt><trkpt lat="44.1968454" lon="10.5275748"><ele>1261.3333333333333</ele><time>2026-04-26T09:53:53.237Z</time></trkpt><trkpt lat="44.1967768" lon="10.5275085"><ele>1263.6666666666667</ele><time>2026-04-26T09:53:54.235Z</time></trkpt><trkpt lat="44.1967343" lon="10.5273995"><ele>1266.0</ele><time>2026-04-26T09:53:55.235Z</time></trkpt><trkpt lat="44.1966871" lon="10.5272673"><ele>1266.0</ele><time>2026-04-26T09:53:56.24Z</time></trkpt><trkpt lat="44.1966065" lon="10.527142"><ele>1266.0</ele><time>2026-04-26T09:53:57.243Z</time></trkpt><trkpt lat="44.1965471" lon="10.5270293"><ele>1266.0</ele><time>2026-04-26T09:53:58.24Z</time></trkpt><trkpt lat="44.196502" lon="10.5269351"><ele>1266.0</ele><time>2026-04-26T09:53:59.244Z</time></trkpt><trkpt lat="44.1964651" lon="10.5268385"><ele>1266.0</ele><time>2026-04-26T09:54:01.239Z</time></trkpt><trkpt lat="44.1964686" lon="10.5267181"><ele>1269.8</ele><time>2026-04-26T09:54:03.237Z</time></trkpt><trkpt lat="44.1964538" lon="10.5265575"><ele>1273.6</ele><time>2026-04-26T09:54:05.242Z</time></trkpt><trkpt lat="44.1964565" lon="10.5264066"><ele>1277.4</ele><time>2026-04-26T09:54:07.243Z</time></trkpt><trkpt lat="44.1964561" lon="10.5262773"><ele>1281.2</ele><time>2026-04-26T09:54:09.238Z</time></trkpt><trkpt lat="44.1964561" lon="10.5261145"><ele>1285.0</ele><time>2026-04-26T09:54:11.235Z</time></trkpt><trkpt lat="44.1964519" lon="10.5259719"><ele>1285.0</ele><time>2026-04-26T09:54:13.239Z</time></trkpt><trkpt lat="44.196461" lon="10.5258309"><ele>1285.0</ele><time>2026-04-26T09:54:15.24Z</time></trkpt><trkpt lat="44.1964804" lon="10.5257445"><ele>1285.0</ele><time>2026-04-26T09:54:16.243Z</time></trkpt><trkpt lat="44.1965042" lon="10.5256287"><ele>1285.0</ele><time>2026-04-26T09:54:18.243Z</time></trkpt><trkpt lat="44.1965092" lon="10.5255389"><ele>1285.0</ele><time>2026-04-26T09:54:19.236Z</time></trkpt><trkpt lat="44.1965382" lon="10.5253532"><ele>1285.0</ele><time>2026-04-26T09:54:21.237Z</time></trkpt><trkpt lat="44.1965568" lon="10.5252667"><ele>1285.0</ele><time>2026-04-26T09:54:22.238Z</time></trkpt><trkpt lat="44.19657" lon="10.5251696"><ele>1285.0</ele><time>2026-04-26T09:54:23.235Z</time></trkpt><trkpt lat="44.1965671" lon="10.525014"><ele>1285.0</ele><time>2026-04-26T09:54:25.233Z</time></trkpt><trkpt lat="44.1965457" lon="10.5248737"><ele>1285.0</ele><time>2026-04-26T09:54:28.238Z</time></trkpt><trkpt lat="44.1965311" lon="10.5247871"><ele>1285.0</ele><time>2026-04-26T09:54:30.239Z</time></trkpt><trkpt lat="44.1964975" lon="10.5246877"><ele>1285.6666666666665</ele><time>2026-04-26T09:54:32.232Z</time></trkpt><trkpt lat="44.1965117" lon="10.524562"><ele>1286.3333333333333</ele><time>2026-04-26T09:54:34.24Z</time></trkpt><trkpt lat="44.1965335" lon="10.5244586"><ele>1287.0</ele><time>2026-04-26T09:54:36.238Z</time></trkpt><trkpt lat="44.1965642" lon="10.5243782"><ele>1287.6666666666667</ele><time>2026-04-26T09:54:37.241Z</time></trkpt><trkpt lat="44.1966024" lon="10.524255"><ele>1288.3333333333335</ele><time>2026-04-26T09:54:39.239Z</time></trkpt><trkpt lat="44.1966428" lon="10.5241243"><ele>1289.0</ele><time>2026-04-26T09:54:49.239Z</time></trkpt><trkpt lat="44.1966713" lon="10.5240068"><ele>1289.0</ele><time>2026-04-26T09:54:52.243Z</time></trkpt><trkpt lat="44.1967489" lon="10.5239235"><ele>1289.0</ele><time>2026-04-26T09:54:55.237Z</time></trkpt><trkpt lat="44.1968144" lon="10.5238571"><ele>1289.0</ele><time>2026-04-26T09:54:57.238Z</time></trkpt><trkpt lat="44.1969003" lon="10.523754"><ele>1289.0</ele><time>2026-04-26T09:54:59.232Z</time></trkpt><trkpt lat="44.196951" lon="10.523684"><ele>1289.0</ele><time>2026-04-26T09:55:00.235Z</time></trkpt><trkpt lat="44.1970105" lon="10.5235863"><ele>1290.2</ele><time>2026-04-26T09:55:01.24Z</time></trkpt><trkpt lat="44.1970657" lon="10.523467"><ele>1291.4</ele><time>2026-04-26T09:55:02.24Z</time></trkpt><trkpt lat="44.1971087" lon="10.5233489"><ele>1292.6</ele><time>2026-04-26T09:55:03.24Z</time></trkpt><trkpt lat="44.1971357" lon="10.5232066"><ele>1293.8</ele><time>2026-04-26T09:55:04.241Z</time></trkpt><trkpt lat="44.1971519" lon="10.5230595"><ele>1295.0</ele><time>2026-04-26T09:55:05.236Z</time></trkpt><trkpt lat="44.1971592" lon="10.5229295"><ele>1294.5</ele><time>2026-04-26T09:55:06.237Z</time></trkpt><trkpt lat="44.1971549" lon="10.5228094"><ele>1294.0</ele><time>2026-04-26T09:55:07.235Z</time></trkpt><trkpt lat="44.1971531" lon="10.5226904"><ele>1293.5</ele><time>2026-04-26T09:55:08.236Z</time></trkpt><trkpt lat="44.1971556" lon="10.5225762"><ele>1293.0</ele><time>2026-04-26T09:55:09.237Z</time></trkpt><trkpt lat="44.1971533" lon="10.5224794"><ele>1292.5</ele><time>2026-04-26T09:55:10.24Z</time></trkpt><trkpt lat="44.1971528" lon="10.5223771"><ele>1292.0</ele><time>2026-04-26T09:55:11.235Z</time></trkpt><trkpt lat="44.197155" lon="10.5222519"><ele>1292.0</ele><time>2026-04-26T09:55:12.238Z</time></trkpt><trkpt lat="44.1971591" lon="10.5221311"><ele>1292.0</ele><time>2026-04-26T09:55:13.238Z</time></trkpt><trkpt lat="44.1971719" lon="10.5220333"><ele>1292.0</ele><time>2026-04-26T09:55:14.238Z</time></trkpt><trkpt lat="44.1971796" lon="10.5218573"><ele>1292.0</ele><time>2026-04-26T09:55:16.241Z</time></trkpt><trkpt lat="44.1971547" lon="10.5217127"><ele>1292.0</ele><time>2026-04-26T09:55:18.241Z</time></trkpt><trkpt lat="44.1971487" lon="10.5215527"><ele>1291.1999999999998</ele><time>2026-04-26T09:55:20.236Z</time></trkpt><trkpt lat="44.1972086" lon="10.5214004"><ele>1290.4</ele><time>2026-04-26T09:55:22.237Z</time></trkpt><trkpt lat="44.1972513" lon="10.5213344"><ele>1289.6</ele><time>2026-04-26T09:55:23.234Z</time></trkpt><trkpt lat="44.1973484" lon="10.5212638"><ele>1288.8000000000002</ele><time>2026-04-26T09:55:25.239Z</time></trkpt><trkpt lat="44.1973973" lon="10.5211417"><ele>1288.0</ele><time>2026-04-26T09:55:27.245Z</time></trkpt><trkpt lat="44.1974259" lon="10.5210284"><ele>1285.4</ele><time>2026-04-26T09:55:29.24Z</time></trkpt><trkpt lat="44.1974722" lon="10.520905"><ele>1282.8000000000002</ele><time>2026-04-26T09:56:14.236Z</time></trkpt><trkpt lat="44.1974935" lon="10.5208168"><ele>1280.2</ele><time>2026-04-26T09:56:15.239Z</time></trkpt><trkpt lat="44.197541" lon="10.5206956"><ele>1277.6</ele><time>2026-04-26T09:56:16.236Z</time></trkpt><trkpt lat="44.1976131" lon="10.520564"><ele>1275.0</ele><time>2026-04-26T09:56:17.243Z</time></trkpt><trkpt lat="44.1976887" lon="10.5204254"><ele>1276.0</ele><time>2026-04-26T09:56:18.239Z</time></trkpt><trkpt lat="44.1977862" lon="10.5202648"><ele>1277.0</ele><time>2026-04-26T09:56:19.24Z</time></trkpt><trkpt lat="44.1978654" lon="10.5201028"><ele>1278.0</ele><time>2026-04-26T09:56:20.238Z</time></trkpt><trkpt lat="44.1979021" lon="10.519936"><ele>1279.0</ele><time>2026-04-26T09:56:21.235Z</time></trkpt><trkpt lat="44.1978999" lon="10.5197436"><ele>1279.0</ele><time>2026-04-26T09:56:22.235Z</time></trkpt><trkpt lat="44.197861" lon="10.5195277"><ele>1279.0</ele><time>2026-04-26T09:56:23.24Z</time></trkpt><trkpt lat="44.1977922" lon="10.519297"><ele>1279.0</ele><time>2026-04-26T09:56:24.24Z</time></trkpt><trkpt lat="44.197706" lon="10.5190609"><ele>1279.0</ele><time>2026-04-26T09:56:25.236Z</time></trkpt><trkpt lat="44.1976132" lon="10.5188363"><ele>1279.0</ele><time>2026-04-26T09:56:26.236Z</time></trkpt><trkpt lat="44.1975321" lon="10.5186209"><ele>1279.0</ele><time>2026-04-26T09:56:27.241Z</time></trkpt><trkpt lat="44.1974406" lon="10.5184065"><ele>1278.6666666666665</ele><time>2026-04-26T09:56:28.237Z</time></trkpt><trkpt lat="44.1973425" lon="10.5182095"><ele>1278.3333333333333</ele><time>2026-04-26T09:56:29.241Z</time></trkpt><trkpt lat="44.1972349" lon="10.5180176"><ele>1278.0</ele><time>2026-04-26T09:56:30.235Z</time></trkpt><trkpt lat="44.1971222" lon="10.5178559"><ele>1278.0</ele><time>2026-04-26T09:56:31.241Z</time></trkpt><trkpt lat="44.1970045" lon="10.5177074"><ele>1278.0</ele><time>2026-04-26T09:56:32.24Z</time></trkpt><trkpt lat="44.1968708" lon="10.5175872"><ele>1278.0</ele><time>2026-04-26T09:56:33.236Z</time></trkpt><trkpt lat="44.1967358" lon="10.517497"><ele>1278.0</ele><time>2026-04-26T09:56:34.246Z</time></trkpt><trkpt lat="44.196596" lon="10.5174239"><ele>1278.0</ele><time>2026-04-26T09:56:35.234Z</time></trkpt><trkpt lat="44.1964688" lon="10.5173528"><ele>1278.0</ele><time>2026-04-26T09:56:36.26Z</time></trkpt><trkpt lat="44.1963721" lon="10.517268"><ele>1278.0</ele><time>2026-04-26T09:56:37.243Z</time></trkpt><trkpt lat="44.1963039" lon="10.5171628"><ele>1279.8333333333333</ele><time>2026-04-26T09:56:38.235Z</time></trkpt><trkpt lat="44.1962475" lon="10.517052"><ele>1281.6666666666667</ele><time>2026-04-26T09:56:39.24Z</time></trkpt><trkpt lat="44.1962487" lon="10.5169247"><ele>1283.5</ele><time>2026-04-26T09:56:40.242Z</time></trkpt><trkpt lat="44.1962864" lon="10.5168067"><ele>1285.3333333333335</ele><time>2026-04-26T09:56:41.252Z</time></trkpt><trkpt lat="44.196323" lon="10.5167145"><ele>1287.1666666666667</ele><time>2026-04-26T09:56:42.235Z</time></trkpt><trkpt lat="44.1963861" lon="10.5166347"><ele>1289.0</ele><time>2026-04-26T09:56:43.236Z</time></trkpt><trkpt lat="44.1964522" lon="10.516563"><ele>1287.6666666666667</ele><time>2026-04-26T09:56:44.236Z</time></trkpt><trkpt lat="44.1965159" lon="10.5164953"><ele>1286.3333333333335</ele><time>2026-04-26T09:56:45.241Z</time></trkpt><trkpt lat="44.1965836" lon="10.5164318"><ele>1285.0</ele><time>2026-04-26T09:56:46.237Z</time></trkpt><trkpt lat="44.1966439" lon="10.5163561"><ele>1283.6666666666667</ele><time>2026-04-26T09:56:47.235Z</time></trkpt><trkpt lat="44.1967155" lon="10.5162806"><ele>1282.3333333333333</ele><time>2026-04-26T09:56:48.24Z</time></trkpt><trkpt lat="44.1967913" lon="10.5162123"><ele>1281.0</ele><time>2026-04-26T09:56:49.234Z</time></trkpt><trkpt lat="44.1968746" lon="10.5161678"><ele>1284.6</ele><time>2026-04-26T09:56:50.253Z</time></trkpt><trkpt lat="44.1969579" lon="10.5161206"><ele>1288.1999999999998</ele><time>2026-04-26T09:56:51.234Z</time></trkpt><trkpt lat="44.1970562" lon="10.5160999"><ele>1291.8000000000002</ele><time>2026-04-26T09:56:52.236Z</time></trkpt><trkpt lat="44.1971482" lon="10.5160723"><ele>1295.4</ele><time>2026-04-26T09:56:53.239Z</time></trkpt><trkpt lat="44.1972324" lon="10.5160263"><ele>1299.0</ele><time>2026-04-26T09:56:54.233Z</time></trkpt><trkpt lat="44.1973229" lon="10.5159082"><ele>1296.75</ele><time>2026-04-26T09:56:55.259Z</time></trkpt><trkpt lat="44.1974051" lon="10.5157686"><ele>1294.5</ele><time>2026-04-26T09:56:56.237Z</time></trkpt><trkpt lat="44.1975089" lon="10.5156804"><ele>1292.25</ele><time>2026-04-26T09:56:57.235Z</time></trkpt><trkpt lat="44.1976158" lon="10.5156274"><ele>1290.0</ele><time>2026-04-26T09:56:58.233Z</time></trkpt><trkpt lat="44.1977428" lon="10.5155179"><ele>1294.5</ele><time>2026-04-26T09:56:59.235Z</time></trkpt><trkpt lat="44.1978307" lon="10.5153782"><ele>1299.0</ele><time>2026-04-26T09:57:00.238Z</time></trkpt><trkpt lat="44.1978943" lon="10.5151969"><ele>1303.5</ele><time>2026-04-26T09:57:01.237Z</time></trkpt><trkpt lat="44.1979788" lon="10.5150111"><ele>1308.0</ele><time>2026-04-26T09:57:02.238Z</time></trkpt><trkpt lat="44.1980642" lon="10.5148198"><ele>1308.0</ele><time>2026-04-26T09:57:03.252Z</time></trkpt><trkpt lat="44.1981599" lon="10.5146505"><ele>1308.0</ele><time>2026-04-26T09:57:04.237Z</time></trkpt><trkpt lat="44.1982487" lon="10.5145022"><ele>1308.0</ele><time>2026-04-26T09:57:05.234Z</time></trkpt><trkpt lat="44.1983296" lon="10.5143696"><ele>1308.0</ele><time>2026-04-26T09:57:06.242Z</time></trkpt><trkpt lat="44.1983613" lon="10.5142331"><ele>1307.2</ele><time>2026-04-26T09:57:07.238Z</time></trkpt><trkpt lat="44.198385" lon="10.5140911"><ele>1306.4</ele><time>2026-04-26T09:57:08.247Z</time></trkpt><trkpt lat="44.1983207" lon="10.5139708"><ele>1305.6000000000001</ele><time>2026-04-26T09:57:09.241Z</time></trkpt><trkpt lat="44.1982363" lon="10.5138727"><ele>1304.8000000000002</ele><time>2026-04-26T09:57:10.239Z</time></trkpt><trkpt lat="44.1981361" lon="10.5137829"><ele>1304.0</ele><time>2026-04-26T09:57:11.238Z</time></trkpt><trkpt lat="44.1980722" lon="10.5136616"><ele>1307.25</ele><time>2026-04-26T09:57:12.237Z</time></trkpt><trkpt lat="44.1980605" lon="10.5134881"><ele>1310.5</ele><time>2026-04-26T09:57:13.235Z</time></trkpt><trkpt lat="44.1981149" lon="10.513303"><ele>1313.75</ele><time>2026-04-26T09:57:14.239Z</time></trkpt><trkpt lat="44.1981387" lon="10.5131064"><ele>1317.0</ele><time>2026-04-26T09:57:15.24Z</time></trkpt><trkpt lat="44.1981418" lon="10.5128754"><ele>1317.0</ele><time>2026-04-26T09:57:16.235Z</time></trkpt><trkpt lat="44.1981184" lon="10.512662"><ele>1317.0</ele><time>2026-04-26T09:57:17.236Z</time></trkpt><trkpt lat="44.1980803" lon="10.512488"><ele>1317.0</ele><time>2026-04-26T09:57:18.24Z</time></trkpt><trkpt lat="44.1980197" lon="10.5123577"><ele>1317.0</ele><time>2026-04-26T09:57:19.235Z</time></trkpt><trkpt lat="44.1979368" lon="10.5122974"><ele>1317.0</ele><time>2026-04-26T09:57:20.261Z</time></trkpt><trkpt lat="44.1978388" lon="10.5123055"><ele>1317.0</ele><time>2026-04-26T09:57:21.237Z</time></trkpt><trkpt lat="44.1977264" lon="10.5123828"><ele>1317.0</ele><time>2026-04-26T09:57:22.235Z</time></trkpt><trkpt lat="44.197606" lon="10.5125153"><ele>1317.0</ele><time>2026-04-26T09:57:23.234Z</time></trkpt><trkpt lat="44.1974808" lon="10.5126578"><ele>1317.0</ele><time>2026-04-26T09:57:24.236Z</time></trkpt><trkpt lat="44.1973633" lon="10.5128024"><ele>1317.0</ele><time>2026-04-26T09:57:25.248Z</time></trkpt><trkpt lat="44.1972381" lon="10.5129199"><ele>1317.0</ele><time>2026-04-26T09:57:26.238Z</time></trkpt><trkpt lat="44.197105" lon="10.5129818"><ele>1317.0</ele><time>2026-04-26T09:57:27.236Z</time></trkpt><trkpt lat="44.1969659" lon="10.5130335"><ele>1318.0</ele><time>2026-04-26T09:57:28.237Z</time></trkpt><trkpt lat="44.1968178" lon="10.5129714"><ele>1319.0</ele><time>2026-04-26T09:57:29.236Z</time></trkpt><trkpt lat="44.1966509" lon="10.5128665"><ele>1320.0</ele><time>2026-04-26T09:57:30.252Z</time></trkpt><trkpt lat="44.1964899" lon="10.5127439"><ele>1322.0</ele><time>2026-04-26T09:57:31.232Z</time></trkpt><trkpt lat="44.1963206" lon="10.5126275"><ele>1324.0</ele><time>2026-04-26T09:57:32.234Z</time></trkpt><trkpt lat="44.1961696" lon="10.5125163"><ele>1326.0</ele><time>2026-04-26T09:57:33.234Z</time></trkpt><trkpt lat="44.196042" lon="10.5123975"><ele>1326.0</ele><time>2026-04-26T09:57:34.232Z</time></trkpt><trkpt lat="44.1959372" lon="10.5122547"><ele>1326.0</ele><time>2026-04-26T09:57:35.252Z</time></trkpt><trkpt lat="44.1958389" lon="10.5121058"><ele>1326.0</ele><time>2026-04-26T09:57:36.236Z</time></trkpt><trkpt lat="44.195781" lon="10.5119151"><ele>1326.0</ele><time>2026-04-26T09:57:37.232Z</time></trkpt><trkpt lat="44.1957433" lon="10.5116655"><ele>1325.0</ele><time>2026-04-26T09:57:38.239Z</time></trkpt><trkpt lat="44.19571" lon="10.5113986"><ele>1324.0</ele><time>2026-04-26T09:57:39.236Z</time></trkpt><trkpt lat="44.1956697" lon="10.511149"><ele>1323.0</ele><time>2026-04-26T09:57:40.251Z</time></trkpt><trkpt lat="44.1956404" lon="10.5108903"><ele>1328.3333333333333</ele><time>2026-04-26T09:57:41.239Z</time></trkpt><trkpt lat="44.1956163" lon="10.5106333"><ele>1333.6666666666665</ele><time>2026-04-26T09:57:42.232Z</time></trkpt><trkpt lat="44.1956185" lon="10.5103727"><ele>1339.0</ele><time>2026-04-26T09:57:43.239Z</time></trkpt><trkpt lat="44.1956338" lon="10.5101057"><ele>1339.0</ele><time>2026-04-26T09:57:44.236Z</time></trkpt><trkpt lat="44.1956505" lon="10.5098559"><ele>1339.0</ele><time>2026-04-26T09:57:45.248Z</time></trkpt><trkpt lat="44.195667" lon="10.5096346"><ele>1339.0</ele><time>2026-04-26T09:57:46.235Z</time></trkpt><trkpt lat="44.195685" lon="10.5094326"><ele>1339.0</ele><time>2026-04-26T09:57:47.239Z</time></trkpt><trkpt lat="44.1957336" lon="10.5092578"><ele>1339.0</ele><time>2026-04-26T09:57:48.24Z</time></trkpt><trkpt lat="44.1958439" lon="10.5091073"><ele>1339.0</ele><time>2026-04-26T09:57:49.235Z</time></trkpt><trkpt lat="44.1959499" lon="10.508932"><ele>1339.0</ele><time>2026-04-26T09:57:50.247Z</time></trkpt><trkpt lat="44.1960653" lon="10.5087512"><ele>1339.0</ele><time>2026-04-26T09:57:51.237Z</time></trkpt><trkpt lat="44.1961295" lon="10.5084924"><ele>1339.0</ele><time>2026-04-26T09:57:52.232Z</time></trkpt><trkpt lat="44.1961917" lon="10.5082444"><ele>1345.0</ele><time>2026-04-26T09:57:53.237Z</time></trkpt><trkpt lat="44.1962721" lon="10.5080225"><ele>1351.0</ele><time>2026-04-26T09:57:54.237Z</time></trkpt><trkpt lat="44.1963537" lon="10.5078134"><ele>1357.0</ele><time>2026-04-26T09:57:55.239Z</time></trkpt><trkpt lat="44.1964489" lon="10.5076513"><ele>1356.5</ele><time>2026-04-26T09:57:56.238Z</time></trkpt><trkpt lat="44.1965485" lon="10.5075045"><ele>1356.0</ele><time>2026-04-26T09:57:57.237Z</time></trkpt><trkpt lat="44.1965781" lon="10.507349"><ele>1355.5</ele><time>2026-04-26T09:57:58.24Z</time></trkpt><trkpt lat="44.1965839" lon="10.507164"><ele>1355.0</ele><time>2026-04-26T09:57:59.248Z</time></trkpt><trkpt lat="44.196561" lon="10.5069662"><ele>1355.0</ele><time>2026-04-26T09:58:00.239Z</time></trkpt><trkpt lat="44.1965318" lon="10.5067609"><ele>1355.0</ele><time>2026-04-26T09:58:01.236Z</time></trkpt><trkpt lat="44.1965644" lon="10.5065836"><ele>1355.0</ele><time>2026-04-26T09:58:02.236Z</time></trkpt><trkpt lat="44.1966226" lon="10.5064504"><ele>1355.0</ele><time>2026-04-26T09:58:03.237Z</time></trkpt><trkpt lat="44.1966719" lon="10.5063425"><ele>1356.8</ele><time>2026-04-26T09:58:04.245Z</time></trkpt><trkpt lat="44.1967203" lon="10.5062327"><ele>1358.6</ele><time>2026-04-26T09:58:05.246Z</time></trkpt><trkpt lat="44.1967536" lon="10.5060972"><ele>1360.4</ele><time>2026-04-26T09:58:06.231Z</time></trkpt><trkpt lat="44.1967892" lon="10.5059509"><ele>1362.2</ele><time>2026-04-26T09:58:07.239Z</time></trkpt><trkpt lat="44.1968019" lon="10.5057899"><ele>1364.0</ele><time>2026-04-26T09:58:08.241Z</time></trkpt><trkpt lat="44.1968196" lon="10.5056242"><ele>1364.0</ele><time>2026-04-26T09:58:09.256Z</time></trkpt><trkpt lat="44.1968439" lon="10.5054605"><ele>1364.0</ele><time>2026-04-26T09:58:10.239Z</time></trkpt><trkpt lat="44.1968734" lon="10.5052933"><ele>1364.0</ele><time>2026-04-26T09:58:11.242Z</time></trkpt><trkpt lat="44.1969023" lon="10.5051311"><ele>1364.0</ele><time>2026-04-26T09:58:12.237Z</time></trkpt><trkpt lat="44.1969299" lon="10.5049562"><ele>1366.5</ele><time>2026-04-26T09:58:13.236Z</time></trkpt><trkpt lat="44.1969605" lon="10.5047734"><ele>1369.0</ele><time>2026-04-26T09:58:14.247Z</time></trkpt><trkpt lat="44.1969879" lon="10.5045829"><ele>1371.5</ele><time>2026-04-26T09:58:15.236Z</time></trkpt><trkpt lat="44.1970165" lon="10.5044087"><ele>1374.0</ele><time>2026-04-26T09:58:16.26Z</time></trkpt><trkpt lat="44.1970454" lon="10.504246"><ele>1376.4</ele><time>2026-04-26T09:58:17.237Z</time></trkpt><trkpt lat="44.1970589" lon="10.5040797"><ele>1378.8000000000002</ele><time>2026-04-26T09:58:18.239Z</time></trkpt><trkpt lat="44.1970937" lon="10.5039329"><ele>1381.1999999999998</ele><time>2026-04-26T09:58:19.238Z</time></trkpt><trkpt lat="44.1971396" lon="10.5037902"><ele>1383.6</ele><time>2026-04-26T09:58:20.237Z</time></trkpt><trkpt lat="44.1972212" lon="10.5037304"><ele>1386.0</ele><time>2026-04-26T09:58:21.243Z</time></trkpt><trkpt lat="44.1973133" lon="10.5036992"><ele>1383.5</ele><time>2026-04-26T09:58:22.235Z</time></trkpt><trkpt lat="44.1974009" lon="10.5036725"><ele>1381.0</ele><time>2026-04-26T09:58:23.234Z</time></trkpt><trkpt lat="44.1974842" lon="10.5036429"><ele>1378.5</ele><time>2026-04-26T09:58:24.237Z</time></trkpt><trkpt lat="44.1975728" lon="10.5035998"><ele>1376.0</ele><time>2026-04-26T09:58:25.237Z</time></trkpt><trkpt lat="44.1976464" lon="10.5035732"><ele>1373.5</ele><time>2026-04-26T09:58:26.241Z</time></trkpt><trkpt lat="44.1977217" lon="10.5034872"><ele>1371.0</ele><time>2026-04-26T09:58:27.236Z</time></trkpt><trkpt lat="44.1977542" lon="10.5033719"><ele>1371.0</ele><time>2026-04-26T09:58:28.254Z</time></trkpt><trkpt lat="44.1977459" lon="10.5032379"><ele>1371.0</ele><time>2026-04-26T09:58:29.238Z</time></trkpt><trkpt lat="44.197729" lon="10.5030867"><ele>1371.0</ele><time>2026-04-26T09:58:30.237Z</time></trkpt><trkpt lat="44.1976717" lon="10.5029367"><ele>1371.0</ele><time>2026-04-26T09:58:31.235Z</time></trkpt><trkpt lat="44.1976524" lon="10.502807"><ele>1371.0</ele><time>2026-04-26T09:58:32.236Z</time></trkpt><trkpt lat="44.1976541" lon="10.5027083"><ele>1374.0</ele><time>2026-04-26T09:58:33.234Z</time></trkpt><trkpt lat="44.1977231" lon="10.5026363"><ele>1377.0</ele><time>2026-04-26T09:58:34.238Z</time></trkpt><trkpt lat="44.1978165" lon="10.5025871"><ele>1380.0</ele><time>2026-04-26T09:58:35.236Z</time></trkpt><trkpt lat="44.1978814" lon="10.5024496"><ele>1383.0</ele><time>2026-04-26T09:58:36.251Z</time></trkpt><trkpt lat="44.1979166" lon="10.5022702"><ele>1386.0</ele><time>2026-04-26T09:58:37.237Z</time></trkpt><trkpt lat="44.1979509" lon="10.502085"><ele>1384.25</ele><time>2026-04-26T09:58:38.24Z</time></trkpt><trkpt lat="44.1979735" lon="10.5019141"><ele>1382.5</ele><time>2026-04-26T09:58:39.243Z</time></trkpt><trkpt lat="44.1980146" lon="10.5017701"><ele>1380.75</ele><time>2026-04-26T09:58:40.239Z</time></trkpt><trkpt lat="44.1980916" lon="10.5016791"><ele>1379.0</ele><time>2026-04-26T09:58:41.247Z</time></trkpt><trkpt lat="44.1982038" lon="10.5016311"><ele>1379.0</ele><time>2026-04-26T09:58:42.24Z</time></trkpt><trkpt lat="44.1983673" lon="10.5015921"><ele>1379.0</ele><time>2026-04-26T09:58:43.24Z</time></trkpt><trkpt lat="44.1985201" lon="10.5014974"><ele>1379.0</ele><time>2026-04-26T09:58:44.239Z</time></trkpt><trkpt lat="44.1986494" lon="10.5013298"><ele>1381.3333333333335</ele><time>2026-04-26T09:58:45.24Z</time></trkpt><trkpt lat="44.1987724" lon="10.501138"><ele>1383.6666666666667</ele><time>2026-04-26T09:58:46.239Z</time></trkpt><trkpt lat="44.1988934" lon="10.5009755"><ele>1386.0</ele><time>2026-04-26T09:58:47.237Z</time></trkpt><trkpt lat="44.1990331" lon="10.5008741"><ele>1386.0</ele><time>2026-04-26T09:58:48.251Z</time></trkpt><trkpt lat="44.1992025" lon="10.5007406"><ele>1386.0</ele><time>2026-04-26T09:58:49.243Z</time></trkpt><trkpt lat="44.199333" lon="10.5005541"><ele>1386.0</ele><time>2026-04-26T09:58:50.238Z</time></trkpt><trkpt lat="44.1994026" lon="10.500298"><ele>1393.6666666666667</ele><time>2026-04-26T09:58:51.235Z</time></trkpt><trkpt lat="44.1994804" lon="10.5000599"><ele>1401.3333333333335</ele><time>2026-04-26T09:58:52.236Z</time></trkpt><trkpt lat="44.1995519" lon="10.4998354"><ele>1409.0</ele><time>2026-04-26T09:58:53.264Z</time></trkpt><trkpt lat="44.1996545" lon="10.4996306"><ele>1409.6666666666667</ele><time>2026-04-26T09:58:54.239Z</time></trkpt><trkpt lat="44.199786" lon="10.4994655"><ele>1410.3333333333333</ele><time>2026-04-26T09:58:55.239Z</time></trkpt><trkpt lat="44.1999232" lon="10.4993169"><ele>1411.0</ele><time>2026-04-26T09:58:56.235Z</time></trkpt><trkpt lat="44.2000574" lon="10.499168"><ele>1411.0</ele><time>2026-04-26T09:58:57.238Z</time></trkpt><trkpt lat="44.200167" lon="10.498991"><ele>1411.0</ele><time>2026-04-26T09:58:58.25Z</time></trkpt><trkpt lat="44.2002909" lon="10.49882"><ele>1411.0</ele><time>2026-04-26T09:58:59.24Z</time></trkpt><trkpt lat="44.2004792" lon="10.4987369"><ele>1414.3333333333333</ele><time>2026-04-26T09:59:00.233Z</time></trkpt><trkpt lat="44.2006692" lon="10.4986712"><ele>1417.6666666666667</ele><time>2026-04-26T09:59:01.242Z</time></trkpt><trkpt lat="44.2008795" lon="10.4985793"><ele>1421.0</ele><time>2026-04-26T09:59:02.239Z</time></trkpt><trkpt lat="44.201046" lon="10.498425"><ele>1421.0</ele><time>2026-04-26T09:59:03.258Z</time></trkpt><trkpt lat="44.2011927" lon="10.4982451"><ele>1421.0</ele><time>2026-04-26T09:59:04.236Z</time></trkpt><trkpt lat="44.2013136" lon="10.4980544"><ele>1421.0</ele><time>2026-04-26T09:59:05.239Z</time></trkpt><trkpt lat="44.2014225" lon="10.4978496"><ele>1420.3333333333335</ele><time>2026-04-26T09:59:06.244Z</time></trkpt><trkpt lat="44.2015027" lon="10.4976276"><ele>1419.6666666666667</ele><time>2026-04-26T09:59:07.242Z</time></trkpt><trkpt lat="44.2015809" lon="10.497413"><ele>1419.0</ele><time>2026-04-26T09:59:08.239Z</time></trkpt><trkpt lat="44.2016637" lon="10.4972445"><ele>1419.0</ele><time>2026-04-26T09:59:09.244Z</time></trkpt><trkpt lat="44.2017856" lon="10.4971218"><ele>1419.0</ele><time>2026-04-26T09:59:10.239Z</time></trkpt><trkpt lat="44.2019548" lon="10.4970702"><ele>1419.0</ele><time>2026-04-26T09:59:11.237Z</time></trkpt><trkpt lat="44.2021108" lon="10.4969939"><ele>1415.0</ele><time>2026-04-26T09:59:12.24Z</time></trkpt><trkpt lat="44.2022308" lon="10.4968677"><ele>1411.0</ele><time>2026-04-26T09:59:13.231Z</time></trkpt><trkpt lat="44.2023196" lon="10.4967562"><ele>1407.0</ele><time>2026-04-26T09:59:14.251Z</time></trkpt><trkpt lat="44.202338" lon="10.4965795"><ele>1403.0</ele><time>2026-04-26T09:59:15.239Z</time></trkpt><trkpt lat="44.202321" lon="10.4963957"><ele>1409.75</ele><time>2026-04-26T09:59:16.239Z</time></trkpt><trkpt lat="44.2023102" lon="10.4962276"><ele>1416.5</ele><time>2026-04-26T09:59:17.238Z</time></trkpt><trkpt lat="44.2023379" lon="10.496065"><ele>1423.25</ele><time>2026-04-26T09:59:18.242Z</time></trkpt><trkpt lat="44.2024249" lon="10.4959683"><ele>1430.0</ele><time>2026-04-26T09:59:19.255Z</time></trkpt><trkpt lat="44.2025434" lon="10.4958923"><ele>1430.0</ele><time>2026-04-26T09:59:20.236Z</time></trkpt><trkpt lat="44.2026722" lon="10.4958254"><ele>1430.0</ele><time>2026-04-26T09:59:21.239Z</time></trkpt><trkpt lat="44.2028046" lon="10.495661"><ele>1430.0</ele><time>2026-04-26T09:59:22.241Z</time></trkpt><trkpt lat="44.2029352" lon="10.4954827"><ele>1430.0</ele><time>2026-04-26T09:59:23.238Z</time></trkpt><trkpt lat="44.2030431" lon="10.4952414"><ele>1430.0</ele><time>2026-04-26T09:59:24.24Z</time></trkpt><trkpt lat="44.2031252" lon="10.494969"><ele>1430.0</ele><time>2026-04-26T09:59:25.236Z</time></trkpt><trkpt lat="44.2032167" lon="10.494709"><ele>1439.0</ele><time>2026-04-26T09:59:26.239Z</time></trkpt><trkpt lat="44.2033246" lon="10.4944574"><ele>1448.0</ele><time>2026-04-26T09:59:27.258Z</time></trkpt><trkpt lat="44.2034606" lon="10.4942875"><ele>1457.0</ele><time>2026-04-26T09:59:28.236Z</time></trkpt><trkpt lat="44.2036044" lon="10.4941615"><ele>1457.0</ele><time>2026-04-26T09:59:29.242Z</time></trkpt><trkpt lat="44.2037473" lon="10.4940914"><ele>1457.0</ele><time>2026-04-26T09:59:30.245Z</time></trkpt><trkpt lat="44.2038529" lon="10.4939696"><ele>1457.0</ele><time>2026-04-26T09:59:31.239Z</time></trkpt><trkpt lat="44.2039259" lon="10.4938213"><ele>1457.0</ele><time>2026-04-26T09:59:32.241Z</time></trkpt><trkpt lat="44.2040122" lon="10.4937063"><ele>1459.5</ele><time>2026-04-26T09:59:33.244Z</time></trkpt><trkpt lat="44.2041243" lon="10.4936815"><ele>1462.0</ele><time>2026-04-26T09:59:34.24Z</time></trkpt><trkpt lat="44.2042629" lon="10.493723"><ele>1464.5</ele><time>2026-04-26T09:59:35.244Z</time></trkpt><trkpt lat="44.2043902" lon="10.4938375"><ele>1467.0</ele><time>2026-04-26T09:59:36.244Z</time></trkpt><trkpt lat="44.2045263" lon="10.4939345"><ele>1461.3333333333333</ele><time>2026-04-26T09:59:37.237Z</time></trkpt><trkpt lat="44.2046822" lon="10.4939594"><ele>1455.6666666666665</ele><time>2026-04-26T09:59:38.236Z</time></trkpt><trkpt lat="44.2048588" lon="10.4939321"><ele>1450.0</ele><time>2026-04-26T09:59:39.242Z</time></trkpt><trkpt lat="44.2050257" lon="10.4939025"><ele>1450.0</ele><time>2026-04-26T09:59:40.24Z</time></trkpt><trkpt lat="44.2051754" lon="10.4938338"><ele>1450.0</ele><time>2026-04-26T09:59:41.254Z</time></trkpt><trkpt lat="44.2053018" lon="10.4938523"><ele>1450.0</ele><time>2026-04-26T09:59:42.242Z</time></trkpt><trkpt lat="44.2053979" lon="10.4939562"><ele>1450.0</ele><time>2026-04-26T09:59:43.234Z</time></trkpt><trkpt lat="44.2055061" lon="10.4940515"><ele>1450.0</ele><time>2026-04-26T09:59:44.239Z</time></trkpt><trkpt lat="44.2056375" lon="10.4939762"><ele>1450.0</ele><time>2026-04-26T09:59:45.239Z</time></trkpt><trkpt lat="44.2057575" lon="10.4938559"><ele>1450.0</ele><time>2026-04-26T09:59:46.246Z</time></trkpt><trkpt lat="44.2058834" lon="10.4936969"><ele>1459.6666666666665</ele><time>2026-04-26T09:59:47.238Z</time></trkpt><trkpt lat="44.2060149" lon="10.4935591"><ele>1469.3333333333333</ele><time>2026-04-26T09:59:48.241Z</time></trkpt><trkpt lat="44.2061639" lon="10.4934737"><ele>1479.0</ele><time>2026-04-26T09:59:49.24Z</time></trkpt><trkpt lat="44.2062857" lon="10.4934157"><ele>1479.0</ele><time>2026-04-26T09:59:50.239Z</time></trkpt><trkpt lat="44.2063546" lon="10.4933178"><ele>1479.0</ele><time>2026-04-26T09:59:51.249Z</time></trkpt><trkpt lat="44.2063697" lon="10.4931905"><ele>1479.0</ele><time>2026-04-26T09:59:52.24Z</time></trkpt><trkpt lat="44.2063256" lon="10.4930673"><ele>1479.0</ele><time>2026-04-26T09:59:53.236Z</time></trkpt><trkpt lat="44.2062309" lon="10.4929446"><ele>1479.0</ele><time>2026-04-26T09:59:54.241Z</time></trkpt><trkpt lat="44.2061252" lon="10.4927996"><ele>1478.6666666666667</ele><time>2026-04-26T09:59:55.244Z</time></trkpt><trkpt lat="44.2059737" lon="10.492674"><ele>1478.3333333333335</ele><time>2026-04-26T09:59:56.243Z</time></trkpt><trkpt lat="44.2058172" lon="10.4925745"><ele>1478.0</ele><time>2026-04-26T09:59:57.249Z</time></trkpt><trkpt lat="44.2056558" lon="10.4925513"><ele>1480.75</ele><time>2026-04-26T09:59:58.242Z</time></trkpt><trkpt lat="44.2055308" lon="10.4925268"><ele>1483.5</ele><time>2026-04-26T09:59:59.241Z</time></trkpt><trkpt lat="44.2054237" lon="10.4924722"><ele>1486.25</ele><time>2026-04-26T10:00:00.239Z</time></trkpt><trkpt lat="44.2053527" lon="10.4923305"><ele>1489.0</ele><time>2026-04-26T10:00:01.24Z</time></trkpt><trkpt lat="44.2053546" lon="10.4921347"><ele>1491.3333333333333</ele><time>2026-04-26T10:00:02.241Z</time></trkpt><trkpt lat="44.2053671" lon="10.4919162"><ele>1493.6666666666667</ele><time>2026-04-26T10:00:03.238Z</time></trkpt><trkpt lat="44.2054416" lon="10.4916769"><ele>1496.0</ele><time>2026-04-26T10:00:04.243Z</time></trkpt><trkpt lat="44.2055214" lon="10.4914409"><ele>1496.6666666666667</ele><time>2026-04-26T10:00:05.236Z</time></trkpt><trkpt lat="44.2056132" lon="10.4912023"><ele>1497.3333333333333</ele><time>2026-04-26T10:00:06.235Z</time></trkpt><trkpt lat="44.2056953" lon="10.4909584"><ele>1498.0</ele><time>2026-04-26T10:00:07.239Z</time></trkpt><trkpt lat="44.2057686" lon="10.4907384"><ele>1498.0</ele><time>2026-04-26T10:00:08.242Z</time></trkpt><trkpt lat="44.2058488" lon="10.4905582"><ele>1498.0</ele><time>2026-04-26T10:00:09.239Z</time></trkpt><trkpt lat="44.2059486" lon="10.4904461"><ele>1498.0</ele><time>2026-04-26T10:00:10.244Z</time></trkpt><trkpt lat="44.2061038" lon="10.490399"><ele>1498.0</ele><time>2026-04-26T10:00:11.236Z</time></trkpt><trkpt lat="44.2062512" lon="10.4902786"><ele>1499.25</ele><time>2026-04-26T10:00:12.239Z</time></trkpt><trkpt lat="44.2063176" lon="10.4900681"><ele>1500.5</ele><time>2026-04-26T10:00:13.24Z</time></trkpt><trkpt lat="44.2063911" lon="10.4899211"><ele>1501.75</ele><time>2026-04-26T10:00:14.236Z</time></trkpt><trkpt lat="44.206475" lon="10.4898041"><ele>1503.0</ele><time>2026-04-26T10:00:15.238Z</time></trkpt><trkpt lat="44.2066278" lon="10.4897544"><ele>1503.0</ele><time>2026-04-26T10:00:16.236Z</time></trkpt><trkpt lat="44.2068114" lon="10.4897547"><ele>1503.0</ele><time>2026-04-26T10:00:17.25Z</time></trkpt><trkpt lat="44.2069815" lon="10.4896859"><ele>1503.0</ele><time>2026-04-26T10:00:18.234Z</time></trkpt><trkpt lat="44.2071304" lon="10.4895991"><ele>1505.75</ele><time>2026-04-26T10:00:19.231Z</time></trkpt><trkpt lat="44.207236" lon="10.489448"><ele>1508.5</ele><time>2026-04-26T10:00:20.232Z</time></trkpt><trkpt lat="44.2072975" lon="10.4892724"><ele>1511.25</ele><time>2026-04-26T10:00:21.239Z</time></trkpt><trkpt lat="44.2073594" lon="10.4891326"><ele>1514.0</ele><time>2026-04-26T10:00:22.242Z</time></trkpt><trkpt lat="44.207478" lon="10.4890527"><ele>1514.0</ele><time>2026-04-26T10:00:23.236Z</time></trkpt><trkpt lat="44.2076352" lon="10.4889929"><ele>1514.0</ele><time>2026-04-26T10:00:24.25Z</time></trkpt><trkpt lat="44.2077795" lon="10.4888873"><ele>1514.0</ele><time>2026-04-26T10:00:25.24Z</time></trkpt><trkpt lat="44.2079211" lon="10.4887921"><ele>1512.6666666666667</ele><time>2026-04-26T10:00:26.236Z</time></trkpt><trkpt lat="44.2080548" lon="10.4887565"><ele>1511.3333333333333</ele><time>2026-04-26T10:00:27.235Z</time></trkpt><trkpt lat="44.2082062" lon="10.4887754"><ele>1510.0</ele><time>2026-04-26T10:00:28.235Z</time></trkpt><trkpt lat="44.208369" lon="10.4888195"><ele>1510.0</ele><time>2026-04-26T10:00:29.246Z</time></trkpt><trkpt lat="44.2085436" lon="10.488878"><ele>1510.0</ele><time>2026-04-26T10:00:30.245Z</time></trkpt><trkpt lat="44.2086998" lon="10.4889934"><ele>1510.0</ele><time>2026-04-26T10:00:31.239Z</time></trkpt><trkpt lat="44.2088277" lon="10.4890268"><ele>1510.0</ele><time>2026-04-26T10:00:32.241Z</time></trkpt><trkpt lat="44.2089528" lon="10.4890071"><ele>1510.0</ele><time>2026-04-26T10:00:33.245Z</time></trkpt><trkpt lat="44.2090576" lon="10.4889821"><ele>1510.0</ele><time>2026-04-26T10:00:34.244Z</time></trkpt><trkpt lat="44.2091423" lon="10.4889144"><ele>1510.0</ele><time>2026-04-26T10:00:35.247Z</time></trkpt><trkpt lat="44.2092131" lon="10.4888669"><ele>1510.0</ele><time>2026-04-26T10:00:36.245Z</time></trkpt><trkpt lat="44.2093119" lon="10.4888122"><ele>1511.8333333333333</ele><time>2026-04-26T10:00:38.249Z</time></trkpt><trkpt lat="44.2093773" lon="10.4887815"><ele>1513.6666666666665</ele><time>2026-04-26T10:00:40.25Z</time></trkpt><trkpt lat="44.2094035" lon="10.4886879"><ele>1515.5</ele><time>2026-04-26T10:01:15.242Z</time></trkpt><trkpt lat="44.209291" lon="10.4886615"><ele>1517.3333333333333</ele><time>2026-04-26T10:01:17.239Z</time></trkpt><trkpt lat="44.2092042" lon="10.4886551"><ele>1519.1666666666667</ele><time>2026-04-26T10:01:18.238Z</time></trkpt><trkpt lat="44.2091276" lon="10.4886335"><ele>1521.0</ele><time>2026-04-26T10:01:19.235Z</time></trkpt><trkpt lat="44.2090508" lon="10.4886102"><ele>1523.1666666666667</ele><time>2026-04-26T10:01:20.245Z</time></trkpt><trkpt lat="44.2089716" lon="10.4885877"><ele>1525.3333333333333</ele><time>2026-04-26T10:01:21.241Z</time></trkpt><trkpt lat="44.2088884" lon="10.4885588"><ele>1527.5</ele><time>2026-04-26T10:01:22.269Z</time></trkpt><trkpt lat="44.2088068" lon="10.4885282"><ele>1529.6666666666665</ele><time>2026-04-26T10:01:23.243Z</time></trkpt><trkpt lat="44.2087242" lon="10.48849"><ele>1531.8333333333333</ele><time>2026-04-26T10:01:24.24Z</time></trkpt><trkpt lat="44.2086424" lon="10.4884491"><ele>1534.0</ele><time>2026-04-26T10:01:25.245Z</time></trkpt><trkpt lat="44.2085587" lon="10.4884106"><ele>1534.0</ele><time>2026-04-26T10:01:26.248Z</time></trkpt><trkpt lat="44.2084713" lon="10.4883703"><ele>1534.0</ele><time>2026-04-26T10:01:27.24Z</time></trkpt><trkpt lat="44.2083843" lon="10.4883253"><ele>1534.0</ele><time>2026-04-26T10:01:28.253Z</time></trkpt><trkpt lat="44.2082987" lon="10.4882785"><ele>1534.0</ele><time>2026-04-26T10:01:29.237Z</time></trkpt><trkpt lat="44.2082152" lon="10.4882262"><ele>1534.0</ele><time>2026-04-26T10:01:30.238Z</time></trkpt><trkpt lat="44.2081239" lon="10.4882165"><ele>1534.8000000000002</ele><time>2026-04-26T10:01:31.236Z</time></trkpt><trkpt lat="44.2080241" lon="10.4882133"><ele>1535.6000000000001</ele><time>2026-04-26T10:01:32.245Z</time></trkpt><trkpt lat="44.2079233" lon="10.4882286"><ele>1536.4</ele><time>2026-04-26T10:01:33.238Z</time></trkpt><trkpt lat="44.2078276" lon="10.4881974"><ele>1537.2</ele><time>2026-04-26T10:01:34.237Z</time></trkpt><trkpt lat="44.2077334" lon="10.4881524"><ele>1538.0</ele><time>2026-04-26T10:01:35.233Z</time></trkpt><trkpt lat="44.2076574" lon="10.4880623"><ele>1538.0</ele><time>2026-04-26T10:01:36.242Z</time></trkpt><trkpt lat="44.2075756" lon="10.4879559"><ele>1538.0</ele><time>2026-04-26T10:01:37.24Z</time></trkpt><trkpt lat="44.2074899" lon="10.4878623"><ele>1538.0</ele><time>2026-04-26T10:01:38.251Z</time></trkpt><trkpt lat="44.2074138" lon="10.4877622"><ele>1538.0</ele><time>2026-04-26T10:01:39.242Z</time></trkpt><trkpt lat="44.2073187" lon="10.4876846"><ele>1538.0</ele><time>2026-04-26T10:01:40.24Z</time></trkpt><trkpt lat="44.207205" lon="10.4876444"><ele>1543.6000000000001</ele><time>2026-04-26T10:01:41.241Z</time></trkpt><trkpt lat="44.2070897" lon="10.4876305"><ele>1549.2</ele><time>2026-04-26T10:01:42.24Z</time></trkpt><trkpt lat="44.2069809" lon="10.4876324"><ele>1554.8</ele><time>2026-04-26T10:01:43.244Z</time></trkpt><trkpt lat="44.2068738" lon="10.4876372"><ele>1560.4</ele><time>2026-04-26T10:01:44.241Z</time></trkpt><trkpt lat="44.2067652" lon="10.4876349"><ele>1566.0</ele><time>2026-04-26T10:01:45.237Z</time></trkpt><trkpt lat="44.2066588" lon="10.4876135"><ele>1566.0</ele><time>2026-04-26T10:01:46.237Z</time></trkpt><trkpt lat="44.2065546" lon="10.487594"><ele>1566.0</ele><time>2026-04-26T10:01:47.25Z</time></trkpt><trkpt lat="44.2064468" lon="10.4875388"><ele>1566.0</ele><time>2026-04-26T10:01:48.243Z</time></trkpt><trkpt lat="44.206342" lon="10.4874934"><ele>1566.0</ele><time>2026-04-26T10:01:49.241Z</time></trkpt><trkpt lat="44.2062355" lon="10.4874482"><ele>1566.0</ele><time>2026-04-26T10:01:50.239Z</time></trkpt><trkpt lat="44.2061257" lon="10.4874029"><ele>1568.25</ele><time>2026-04-26T10:01:51.241Z</time></trkpt><trkpt lat="44.2060143" lon="10.4873798"><ele>1570.5</ele><time>2026-04-26T10:01:52.236Z</time></trkpt><trkpt lat="44.2058961" lon="10.4873657"><ele>1572.75</ele><time>2026-04-26T10:01:53.233Z</time></trkpt><trkpt lat="44.2057796" lon="10.4873536"><ele>1575.0</ele><time>2026-04-26T10:01:54.247Z</time></trkpt><trkpt lat="44.2056709" lon="10.4873287"><ele>1578.2</ele><time>2026-04-26T10:01:55.236Z</time></trkpt><trkpt lat="44.2055742" lon="10.4872882"><ele>1581.4</ele><time>2026-04-26T10:01:56.253Z</time></trkpt><trkpt lat="44.2054691" lon="10.4872329"><ele>1584.6</ele><time>2026-04-26T10:01:57.233Z</time></trkpt><trkpt lat="44.2053642" lon="10.4872054"><ele>1587.8</ele><time>2026-04-26T10:01:58.242Z</time></trkpt><trkpt lat="44.2052676" lon="10.4872354"><ele>1591.0</ele><time>2026-04-26T10:01:59.24Z</time></trkpt><trkpt lat="44.2051569" lon="10.4872836"><ele>1591.0</ele><time>2026-04-26T10:02:00.243Z</time></trkpt><trkpt lat="44.2050695" lon="10.4873881"><ele>1591.0</ele><time>2026-04-26T10:02:01.242Z</time></trkpt><trkpt lat="44.2049593" lon="10.4874985"><ele>1591.0</ele><time>2026-04-26T10:02:02.235Z</time></trkpt><trkpt lat="44.2048356" lon="10.4875555"><ele>1591.0</ele><time>2026-04-26T10:02:03.255Z</time></trkpt><trkpt lat="44.2046876" lon="10.4875958"><ele>1595.0</ele><time>2026-04-26T10:02:04.236Z</time></trkpt><trkpt lat="44.2045454" lon="10.4876125"><ele>1599.0</ele><time>2026-04-26T10:02:05.243Z</time></trkpt><trkpt lat="44.2044041" lon="10.4876544"><ele>1603.0</ele><time>2026-04-26T10:02:06.243Z</time></trkpt><trkpt lat="44.2042754" lon="10.4876921"><ele>1607.0</ele><time>2026-04-26T10:02:07.235Z</time></trkpt><trkpt lat="44.2041464" lon="10.4877118"><ele>1607.0</ele><time>2026-04-26T10:02:08.234Z</time></trkpt><trkpt lat="44.2040203" lon="10.4876935"><ele>1607.0</ele><time>2026-04-26T10:02:09.238Z</time></trkpt><trkpt lat="44.2039008" lon="10.4876711"><ele>1607.0</ele><time>2026-04-26T10:02:10.234Z</time></trkpt><trkpt lat="44.20379" lon="10.4876303"><ele>1607.0</ele><time>2026-04-26T10:02:11.236Z</time></trkpt><trkpt lat="44.2036529" lon="10.4875917"><ele>1606.5</ele><time>2026-04-26T10:02:12.236Z</time></trkpt><trkpt lat="44.2035355" lon="10.4875156"><ele>1606.0</ele><time>2026-04-26T10:02:13.237Z</time></trkpt><trkpt lat="44.2034203" lon="10.4874146"><ele>1605.5</ele><time>2026-04-26T10:02:14.233Z</time></trkpt><trkpt lat="44.2033057" lon="10.4873167"><ele>1605.0</ele><time>2026-04-26T10:02:15.236Z</time></trkpt><trkpt lat="44.2031923" lon="10.4872355"><ele>1604.75</ele><time>2026-04-26T10:02:16.239Z</time></trkpt><trkpt lat="44.2030563" lon="10.4871831"><ele>1604.5</ele><time>2026-04-26T10:02:17.235Z</time></trkpt><trkpt lat="44.2029196" lon="10.4871527"><ele>1604.25</ele><time>2026-04-26T10:02:18.249Z</time></trkpt><trkpt lat="44.2027866" lon="10.4871307"><ele>1604.0</ele><time>2026-04-26T10:02:19.233Z</time></trkpt><trkpt lat="44.2026531" lon="10.4871188"><ele>1604.0</ele><time>2026-04-26T10:02:20.235Z</time></trkpt><trkpt lat="44.2025245" lon="10.4871095"><ele>1604.0</ele><time>2026-04-26T10:02:21.246Z</time></trkpt><trkpt lat="44.2024002" lon="10.4871229"><ele>1604.0</ele><time>2026-04-26T10:02:22.235Z</time></trkpt><trkpt lat="44.2022763" lon="10.4871648"><ele>1604.0</ele><time>2026-04-26T10:02:23.249Z</time></trkpt><trkpt lat="44.2021535" lon="10.4872257"><ele>1605.75</ele><time>2026-04-26T10:02:24.239Z</time></trkpt><trkpt lat="44.20203" lon="10.48729"><ele>1607.5</ele><time>2026-04-26T10:02:25.235Z</time></trkpt><trkpt lat="44.2019106" lon="10.487382"><ele>1609.25</ele><time>2026-04-26T10:02:26.247Z</time></trkpt><trkpt lat="44.2018013" lon="10.4874708"><ele>1611.0</ele><time>2026-04-26T10:02:27.242Z</time></trkpt><trkpt lat="44.2016764" lon="10.4875654"><ele>1611.0</ele><time>2026-04-26T10:02:28.246Z</time></trkpt><trkpt lat="44.2015535" lon="10.48766"><ele>1611.0</ele><time>2026-04-26T10:02:29.243Z</time></trkpt><trkpt lat="44.2014343" lon="10.4877569"><ele>1611.0</ele><time>2026-04-26T10:02:30.246Z</time></trkpt><trkpt lat="44.201322" lon="10.487853"><ele>1611.0</ele><time>2026-04-26T10:02:31.245Z</time></trkpt><trkpt lat="44.2012147" lon="10.4879232"><ele>1613.8</ele><time>2026-04-26T10:02:32.237Z</time></trkpt><trkpt lat="44.2011199" lon="10.4879884"><ele>1616.6</ele><time>2026-04-26T10:02:33.245Z</time></trkpt><trkpt lat="44.2010335" lon="10.4879968"><ele>1619.4</ele><time>2026-04-26T10:02:34.242Z</time></trkpt><trkpt lat="44.2009467" lon="10.4880034"><ele>1622.2</ele><time>2026-04-26T10:02:35.25Z</time></trkpt><trkpt lat="44.2008602" lon="10.4880095"><ele>1625.0</ele><time>2026-04-26T10:02:36.241Z</time></trkpt><trkpt lat="44.2007729" lon="10.4880204"><ele>1625.0</ele><time>2026-04-26T10:02:37.244Z</time></trkpt><trkpt lat="44.2006821" lon="10.4880352"><ele>1625.0</ele><time>2026-04-26T10:02:38.254Z</time></trkpt><trkpt lat="44.2005855" lon="10.4880501"><ele>1625.0</ele><time>2026-04-26T10:02:39.245Z</time></trkpt><trkpt lat="44.2004866" lon="10.4880651"><ele>1625.0</ele><time>2026-04-26T10:02:40.247Z</time></trkpt><trkpt lat="44.2003758" lon="10.4880651"><ele>1625.0</ele><time>2026-04-26T10:02:41.259Z</time></trkpt><trkpt lat="44.2002594" lon="10.4880553"><ele>1625.5</ele><time>2026-04-26T10:02:42.24Z</time></trkpt><trkpt lat="44.2001387" lon="10.488036"><ele>1626.0</ele><time>2026-04-26T10:02:43.245Z</time></trkpt><trkpt lat="44.2000172" lon="10.4879721"><ele>1626.5</ele><time>2026-04-26T10:02:44.243Z</time></trkpt><trkpt lat="44.1998955" lon="10.4878848"><ele>1627.0</ele><time>2026-04-26T10:02:45.239Z</time></trkpt><trkpt lat="44.1997807" lon="10.4877733"><ele>1627.0</ele><time>2026-04-26T10:02:46.25Z</time></trkpt><trkpt lat="44.1996616" lon="10.4876527"><ele>1627.0</ele><time>2026-04-26T10:02:47.237Z</time></trkpt><trkpt lat="44.1995324" lon="10.487533"><ele>1627.0</ele><time>2026-04-26T10:02:48.242Z</time></trkpt><trkpt lat="44.1993991" lon="10.4874138"><ele>1627.0</ele><time>2026-04-26T10:02:49.237Z</time></trkpt><trkpt lat="44.1992657" lon="10.4872952"><ele>1627.0</ele><time>2026-04-26T10:02:50.241Z</time></trkpt><trkpt lat="44.1991458" lon="10.4871617"><ele>1627.0</ele><time>2026-04-26T10:02:51.243Z</time></trkpt><trkpt lat="44.1990362" lon="10.4870301"><ele>1625.5</ele><time>2026-04-26T10:02:52.235Z</time></trkpt><trkpt lat="44.1989326" lon="10.4868923"><ele>1624.0</ele><time>2026-04-26T10:02:53.252Z</time></trkpt><trkpt lat="44.1988197" lon="10.4867586"><ele>1622.5</ele><time>2026-04-26T10:02:54.234Z</time></trkpt><trkpt lat="44.1986963" lon="10.4866357"><ele>1621.0</ele><time>2026-04-26T10:02:55.235Z</time></trkpt><trkpt lat="44.1985703" lon="10.4865161"><ele>1621.0</ele><time>2026-04-26T10:02:56.233Z</time></trkpt><trkpt lat="44.1984467" lon="10.4864043"><ele>1621.0</ele><time>2026-04-26T10:02:57.233Z</time></trkpt><trkpt lat="44.1983244" lon="10.4862966"><ele>1621.0</ele><time>2026-04-26T10:02:58.24Z</time></trkpt><trkpt lat="44.1981996" lon="10.4861935"><ele>1621.0</ele><time>2026-04-26T10:02:59.235Z</time></trkpt><trkpt lat="44.1980659" lon="10.4861135"><ele>1619.0</ele><time>2026-04-26T10:03:00.25Z</time></trkpt><trkpt lat="44.1979255" lon="10.4860652"><ele>1617.0</ele><time>2026-04-26T10:03:01.238Z</time></trkpt><trkpt lat="44.1977859" lon="10.4860178"><ele>1615.0</ele><time>2026-04-26T10:03:02.236Z</time></trkpt><trkpt lat="44.1976537" lon="10.4859623"><ele>1613.0</ele><time>2026-04-26T10:03:03.239Z</time></trkpt><trkpt lat="44.1975284" lon="10.4858915"><ele>1613.0</ele><time>2026-04-26T10:03:04.235Z</time></trkpt><trkpt lat="44.197414" lon="10.4858014"><ele>1613.0</ele><time>2026-04-26T10:03:05.277Z</time></trkpt><trkpt lat="44.1973091" lon="10.4856909"><ele>1613.0</ele><time>2026-04-26T10:03:06.241Z</time></trkpt><trkpt lat="44.197205" lon="10.4855697"><ele>1613.0</ele><time>2026-04-26T10:03:07.238Z</time></trkpt><trkpt lat="44.1971031" lon="10.4854368"><ele>1610.0</ele><time>2026-04-26T10:03:08.24Z</time></trkpt><trkpt lat="44.1970002" lon="10.4853009"><ele>1607.0</ele><time>2026-04-26T10:03:09.241Z</time></trkpt><trkpt lat="44.196902" lon="10.4851615"><ele>1604.0</ele><time>2026-04-26T10:03:10.253Z</time></trkpt><trkpt lat="44.1968043" lon="10.4850217"><ele>1601.0</ele><time>2026-04-26T10:03:11.235Z</time></trkpt><trkpt lat="44.1966996" lon="10.4848893"><ele>1601.0</ele><time>2026-04-26T10:03:12.241Z</time></trkpt><trkpt lat="44.1965866" lon="10.4847739"><ele>1601.0</ele><time>2026-04-26T10:03:13.234Z</time></trkpt><trkpt lat="44.1964665" lon="10.4846822"><ele>1601.0</ele><time>2026-04-26T10:03:14.235Z</time></trkpt><trkpt lat="44.1963388" lon="10.484623"><ele>1601.0</ele><time>2026-04-26T10:03:15.26Z</time></trkpt><trkpt lat="44.1962072" lon="10.4846099"><ele>1602.0</ele><time>2026-04-26T10:03:16.238Z</time></trkpt><trkpt lat="44.1960723" lon="10.4846278"><ele>1603.0</ele><time>2026-04-26T10:03:17.253Z</time></trkpt><trkpt lat="44.1959406" lon="10.484644"><ele>1604.0</ele><time>2026-04-26T10:03:18.234Z</time></trkpt><trkpt lat="44.195817" lon="10.4846654"><ele>1605.0</ele><time>2026-04-26T10:03:19.242Z</time></trkpt><trkpt lat="44.1956813" lon="10.4846579"><ele>1601.25</ele><time>2026-04-26T10:03:20.235Z</time></trkpt><trkpt lat="44.1955547" lon="10.4845764"><ele>1597.5</ele><time>2026-04-26T10:03:21.24Z</time></trkpt><trkpt lat="44.1954288" lon="10.4844866"><ele>1593.75</ele><time>2026-04-26T10:03:22.236Z</time></trkpt><trkpt lat="44.1953063" lon="10.4844006"><ele>1590.0</ele><time>2026-04-26T10:03:23.238Z</time></trkpt><trkpt lat="44.195197" lon="10.4842978"><ele>1590.0</ele><time>2026-04-26T10:03:24.235Z</time></trkpt><trkpt lat="44.1950984" lon="10.4841662"><ele>1590.0</ele><time>2026-04-26T10:03:25.237Z</time></trkpt><trkpt lat="44.1950079" lon="10.4840143"><ele>1590.0</ele><time>2026-04-26T10:03:26.235Z</time></trkpt><trkpt lat="44.1949408" lon="10.4838394"><ele>1590.0</ele><time>2026-04-26T10:03:27.251Z</time></trkpt><trkpt lat="44.1948975" lon="10.4836527"><ele>1593.25</ele><time>2026-04-26T10:03:28.238Z</time></trkpt><trkpt lat="44.1948754" lon="10.4834573"><ele>1596.5</ele><time>2026-04-26T10:03:29.241Z</time></trkpt><trkpt lat="44.1948645" lon="10.4832692"><ele>1599.75</ele><time>2026-04-26T10:03:30.235Z</time></trkpt><trkpt lat="44.1948304" lon="10.4831018"><ele>1603.0</ele><time>2026-04-26T10:03:31.234Z</time></trkpt><trkpt lat="44.194791" lon="10.4829366"><ele>1595.0</ele><time>2026-04-26T10:03:32.235Z</time></trkpt><trkpt lat="44.194682" lon="10.4828205"><ele>1587.0</ele><time>2026-04-26T10:03:33.232Z</time></trkpt><trkpt lat="44.1945514" lon="10.482727"><ele>1579.0</ele><time>2026-04-26T10:03:34.236Z</time></trkpt><trkpt lat="44.1944138" lon="10.4826338"><ele>1571.0</ele><time>2026-04-26T10:03:35.24Z</time></trkpt><trkpt lat="44.194274" lon="10.4825439"><ele>1571.0</ele><time>2026-04-26T10:03:36.235Z</time></trkpt><trkpt lat="44.1941343" lon="10.4824449"><ele>1571.0</ele><time>2026-04-26T10:03:37.255Z</time></trkpt><trkpt lat="44.1940002" lon="10.4823427"><ele>1571.0</ele><time>2026-04-26T10:03:38.24Z</time></trkpt><trkpt lat="44.1938663" lon="10.4822514"><ele>1570.5</ele><time>2026-04-26T10:03:39.238Z</time></trkpt><trkpt lat="44.1937328" lon="10.4821665"><ele>1570.0</ele><time>2026-04-26T10:03:40.236Z</time></trkpt><trkpt lat="44.1936076" lon="10.4820999"><ele>1569.5</ele><time>2026-04-26T10:03:41.236Z</time></trkpt><trkpt lat="44.1934978" lon="10.4820388"><ele>1569.0</ele><time>2026-04-26T10:03:42.237Z</time></trkpt><trkpt lat="44.1934105" lon="10.4819685"><ele>1569.0</ele><time>2026-04-26T10:03:43.236Z</time></trkpt><trkpt lat="44.1933635" lon="10.4818397"><ele>1569.0</ele><time>2026-04-26T10:03:44.243Z</time></trkpt><trkpt lat="44.193358" lon="10.4816586"><ele>1569.0</ele><time>2026-04-26T10:03:45.241Z</time></trkpt><trkpt lat="44.1933449" lon="10.481484"><ele>1569.0</ele><time>2026-04-26T10:03:46.238Z</time></trkpt><trkpt lat="44.1933311" lon="10.481332"><ele>1565.0</ele><time>2026-04-26T10:03:47.236Z</time></trkpt><trkpt lat="44.1933036" lon="10.4812152"><ele>1561.0</ele><time>2026-04-26T10:03:48.238Z</time></trkpt><trkpt lat="44.1932414" lon="10.4811367"><ele>1557.0</ele><time>2026-04-26T10:03:49.235Z</time></trkpt><trkpt lat="44.1931611" lon="10.4811024"><ele>1553.0</ele><time>2026-04-26T10:03:50.237Z</time></trkpt><trkpt lat="44.1930519" lon="10.4811164"><ele>1549.0</ele><time>2026-04-26T10:03:51.237Z</time></trkpt><trkpt lat="44.1929413" lon="10.4811337"><ele>1549.0</ele><time>2026-04-26T10:03:52.233Z</time></trkpt><trkpt lat="44.1928105" lon="10.4811699"><ele>1549.0</ele><time>2026-04-26T10:03:53.244Z</time></trkpt><trkpt lat="44.192679" lon="10.4812032"><ele>1549.0</ele><time>2026-04-26T10:03:54.235Z</time></trkpt><trkpt lat="44.1925544" lon="10.481224"><ele>1549.0</ele><time>2026-04-26T10:03:55.236Z</time></trkpt><trkpt lat="44.1924324" lon="10.4812145"><ele>1546.25</ele><time>2026-04-26T10:03:56.235Z</time></trkpt><trkpt lat="44.192313" lon="10.4812096"><ele>1543.5</ele><time>2026-04-26T10:03:57.237Z</time></trkpt><trkpt lat="44.1921738" lon="10.4811827"><ele>1540.75</ele><time>2026-04-26T10:03:58.251Z</time></trkpt><trkpt lat="44.1920361" lon="10.4811377"><ele>1538.0</ele><time>2026-04-26T10:03:59.235Z</time></trkpt><trkpt lat="44.1918987" lon="10.4811107"><ele>1538.0</ele><time>2026-04-26T10:04:00.239Z</time></trkpt><trkpt lat="44.1917642" lon="10.4810717"><ele>1538.0</ele><time>2026-04-26T10:04:01.234Z</time></trkpt><trkpt lat="44.1916266" lon="10.4810303"><ele>1538.0</ele><time>2026-04-26T10:04:02.242Z</time></trkpt><trkpt lat="44.1914926" lon="10.4809979"><ele>1538.0</ele><time>2026-04-26T10:04:03.249Z</time></trkpt><trkpt lat="44.1913612" lon="10.4809619"><ele>1534.75</ele><time>2026-04-26T10:04:04.242Z</time></trkpt><trkpt lat="44.1912372" lon="10.4809205"><ele>1531.5</ele><time>2026-04-26T10:04:05.249Z</time></trkpt><trkpt lat="44.1911175" lon="10.4808827"><ele>1528.25</ele><time>2026-04-26T10:04:06.241Z</time></trkpt><trkpt lat="44.1910024" lon="10.4808458"><ele>1525.0</ele><time>2026-04-26T10:04:07.235Z</time></trkpt><trkpt lat="44.1908904" lon="10.4808118"><ele>1525.0</ele><time>2026-04-26T10:04:08.238Z</time></trkpt><trkpt lat="44.1907841" lon="10.4807795"><ele>1525.0</ele><time>2026-04-26T10:04:09.236Z</time></trkpt><trkpt lat="44.1906819" lon="10.480748"><ele>1525.0</ele><time>2026-04-26T10:04:10.257Z</time></trkpt><trkpt lat="44.1905825" lon="10.4807197"><ele>1525.0</ele><time>2026-04-26T10:04:11.238Z</time></trkpt><trkpt lat="44.1904926" lon="10.480692"><ele>1525.0</ele><time>2026-04-26T10:04:12.238Z</time></trkpt><trkpt lat="44.1904119" lon="10.4806632"><ele>1523.8333333333333</ele><time>2026-04-26T10:04:13.237Z</time></trkpt><trkpt lat="44.1903381" lon="10.4806349"><ele>1522.6666666666665</ele><time>2026-04-26T10:04:14.237Z</time></trkpt><trkpt lat="44.1902701" lon="10.4806171"><ele>1521.5</ele><time>2026-04-26T10:04:15.247Z</time></trkpt><trkpt lat="44.1902021" lon="10.4806105"><ele>1520.3333333333333</ele><time>2026-04-26T10:04:16.235Z</time></trkpt><trkpt lat="44.1901356" lon="10.480614"><ele>1519.1666666666667</ele><time>2026-04-26T10:04:17.236Z</time></trkpt><trkpt lat="44.1900223" lon="10.4806363"><ele>1518.0</ele><time>2026-04-26T10:04:19.237Z</time></trkpt><trkpt lat="44.1899063" lon="10.4806679"><ele>1514.8333333333333</ele><time>2026-04-26T10:04:21.238Z</time></trkpt><trkpt lat="44.189806" lon="10.4806917"><ele>1511.6666666666667</ele><time>2026-04-26T10:04:23.24Z</time></trkpt><trkpt lat="44.1897466" lon="10.4807578"><ele>1508.5</ele><time>2026-04-26T10:04:25.239Z</time></trkpt><trkpt lat="44.1897293" lon="10.4808575"><ele>1505.3333333333335</ele><time>2026-04-26T10:04:27.238Z</time></trkpt><trkpt lat="44.1897447" lon="10.4809719"><ele>1502.1666666666667</ele><time>2026-04-26T10:04:29.241Z</time></trkpt><trkpt lat="44.1897464" lon="10.4810717"><ele>1499.0</ele><time>2026-04-26T10:04:32.244Z</time></trkpt><trkpt lat="44.1897702" lon="10.4811826"><ele>1501.5</ele><time>2026-04-26T10:04:36.24Z</time></trkpt><trkpt lat="44.1898232" lon="10.4813003"><ele>1504.0</ele><time>2026-04-26T10:04:39.24Z</time></trkpt><trkpt lat="44.1898753" lon="10.4813887"><ele>1506.5</ele><time>2026-04-26T10:04:41.24Z</time></trkpt><trkpt lat="44.1899104" lon="10.4814616"><ele>1509.0</ele><time>2026-04-26T10:04:42.248Z</time></trkpt><trkpt lat="44.1899633" lon="10.4815385"><ele>1511.5</ele><time>2026-04-26T10:04:43.244Z</time></trkpt><trkpt lat="44.1900198" lon="10.4816373"><ele>1514.0</ele><time>2026-04-26T10:04:44.25Z</time></trkpt><trkpt lat="44.1900679" lon="10.4817417"><ele>1514.0</ele><time>2026-04-26T10:04:45.236Z</time></trkpt><trkpt lat="44.1901022" lon="10.4818389"><ele>1514.0</ele><time>2026-04-26T10:04:46.234Z</time></trkpt><trkpt lat="44.1901224" lon="10.4819327"><ele>1514.0</ele><time>2026-04-26T10:04:47.24Z</time></trkpt><trkpt lat="44.1901295" lon="10.4820536"><ele>1514.0</ele><time>2026-04-26T10:04:48.239Z</time></trkpt><trkpt lat="44.1901273" lon="10.4821847"><ele>1514.0</ele><time>2026-04-26T10:04:49.243Z</time></trkpt><trkpt lat="44.1901159" lon="10.4823065"><ele>1514.0</ele><time>2026-04-26T10:04:50.238Z</time></trkpt><trkpt lat="44.190109" lon="10.4824168"><ele>1511.5</ele><time>2026-04-26T10:04:51.249Z</time></trkpt><trkpt lat="44.1901095" lon="10.4825199"><ele>1509.0</ele><time>2026-04-26T10:04:52.235Z</time></trkpt><trkpt lat="44.1901297" lon="10.4826236"><ele>1506.5</ele><time>2026-04-26T10:04:53.235Z</time></trkpt><trkpt lat="44.1901754" lon="10.4827191"><ele>1504.0</ele><time>2026-04-26T10:04:54.238Z</time></trkpt><trkpt lat="44.1902247" lon="10.4828261"><ele>1501.5</ele><time>2026-04-26T10:04:55.235Z</time></trkpt><trkpt lat="44.1902674" lon="10.4829516"><ele>1499.0</ele><time>2026-04-26T10:04:56.249Z</time></trkpt><trkpt lat="44.1903091" lon="10.4830674"><ele>1496.3333333333335</ele><time>2026-04-26T10:04:57.24Z</time></trkpt><trkpt lat="44.1903559" lon="10.4831747"><ele>1493.6666666666667</ele><time>2026-04-26T10:04:58.236Z</time></trkpt><trkpt lat="44.1904125" lon="10.4832818"><ele>1491.0</ele><time>2026-04-26T10:04:59.239Z</time></trkpt><trkpt lat="44.1904669" lon="10.4833751"><ele>1488.3333333333333</ele><time>2026-04-26T10:05:00.235Z</time></trkpt><trkpt lat="44.1905211" lon="10.4834664"><ele>1485.6666666666665</ele><time>2026-04-26T10:05:01.24Z</time></trkpt><trkpt lat="44.19058" lon="10.4835523"><ele>1483.0</ele><time>2026-04-26T10:05:02.24Z</time></trkpt><trkpt lat="44.1906201" lon="10.4836305"><ele>1479.25</ele><time>2026-04-26T10:05:03.237Z</time></trkpt><trkpt lat="44.1906721" lon="10.4837661"><ele>1475.5</ele><time>2026-04-26T10:05:05.249Z</time></trkpt><trkpt lat="44.1906402" lon="10.4839709"><ele>1471.75</ele><time>2026-04-26T10:05:07.239Z</time></trkpt><trkpt lat="44.1906131" lon="10.484106"><ele>1468.0</ele><time>2026-04-26T10:05:08.235Z</time></trkpt><trkpt lat="44.1905868" lon="10.4842258"><ele>1468.0</ele><time>2026-04-26T10:05:09.235Z</time></trkpt><trkpt lat="44.1905385" lon="10.4843518"><ele>1468.0</ele><time>2026-04-26T10:05:10.242Z</time></trkpt><trkpt lat="44.1904847" lon="10.4844713"><ele>1468.0</ele><time>2026-04-26T10:05:11.231Z</time></trkpt><trkpt lat="44.1904457" lon="10.4845931"><ele>1468.0</ele><time>2026-04-26T10:05:12.244Z</time></trkpt><trkpt lat="44.1903998" lon="10.4847225"><ele>1468.0</ele><time>2026-04-26T10:05:13.235Z</time></trkpt><trkpt lat="44.190373" lon="10.4848515"><ele>1466.3333333333333</ele><time>2026-04-26T10:05:14.237Z</time></trkpt><trkpt lat="44.190368" lon="10.4849716"><ele>1464.6666666666665</ele><time>2026-04-26T10:05:15.237Z</time></trkpt><trkpt lat="44.1903669" lon="10.4850688"><ele>1463.0</ele><time>2026-04-26T10:05:16.239Z</time></trkpt><trkpt lat="44.1903737" lon="10.4852221"><ele>1461.3333333333333</ele><time>2026-04-26T10:05:18.237Z</time></trkpt><trkpt lat="44.1903951" lon="10.485327"><ele>1459.6666666666667</ele><time>2026-04-26T10:05:20.241Z</time></trkpt><trkpt lat="44.1903961" lon="10.4854167"><ele>1458.0</ele><time>2026-04-26T10:05:22.231Z</time></trkpt><trkpt lat="44.1904032" lon="10.48551"><ele>1455.6666666666667</ele><time>2026-04-26T10:05:24.239Z</time></trkpt><trkpt lat="44.1904145" lon="10.4856194"><ele>1453.3333333333333</ele><time>2026-04-26T10:05:26.24Z</time></trkpt><trkpt lat="44.1904259" lon="10.4857495"><ele>1451.0</ele><time>2026-04-26T10:05:28.234Z</time></trkpt><trkpt lat="44.1904371" lon="10.4858423"><ele>1448.6666666666665</ele><time>2026-04-26T10:05:29.237Z</time></trkpt><trkpt lat="44.1904493" lon="10.4859422"><ele>1446.3333333333333</ele><time>2026-04-26T10:05:30.239Z</time></trkpt><trkpt lat="44.1904684" lon="10.4860476"><ele>1444.0</ele><time>2026-04-26T10:05:31.237Z</time></trkpt><trkpt lat="44.1904966" lon="10.4861499"><ele>1444.0</ele><time>2026-04-26T10:05:32.237Z</time></trkpt><trkpt lat="44.1905263" lon="10.4862468"><ele>1444.0</ele><time>2026-04-26T10:05:33.236Z</time></trkpt><trkpt lat="44.1905742" lon="10.4863157"><ele>1444.0</ele><time>2026-04-26T10:05:34.232Z</time></trkpt><trkpt lat="44.1906385" lon="10.486375"><ele>1444.0</ele><time>2026-04-26T10:05:35.243Z</time></trkpt><trkpt lat="44.1907134" lon="10.4864305"><ele>1444.0</ele><time>2026-04-26T10:05:36.239Z</time></trkpt><trkpt lat="44.1907954" lon="10.4864962"><ele>1444.0</ele><time>2026-04-26T10:05:37.237Z</time></trkpt><trkpt lat="44.1908645" lon="10.486577"><ele>1448.4</ele><time>2026-04-26T10:05:38.241Z</time></trkpt><trkpt lat="44.1909377" lon="10.4866694"><ele>1452.8000000000002</ele><time>2026-04-26T10:05:39.235Z</time></trkpt><trkpt lat="44.1910105" lon="10.4867495"><ele>1457.1999999999998</ele><time>2026-04-26T10:05:40.252Z</time></trkpt><trkpt lat="44.1910925" lon="10.4868211"><ele>1461.6</ele><time>2026-04-26T10:05:41.239Z</time></trkpt><trkpt lat="44.1911848" lon="10.4868839"><ele>1466.0</ele><time>2026-04-26T10:05:42.237Z</time></trkpt><trkpt lat="44.1912779" lon="10.4869538"><ele>1466.0</ele><time>2026-04-26T10:05:43.239Z</time></trkpt><trkpt lat="44.1913735" lon="10.4870235"><ele>1466.0</ele><time>2026-04-26T10:05:44.241Z</time></trkpt><trkpt lat="44.1914683" lon="10.4870917"><ele>1466.0</ele><time>2026-04-26T10:05:45.234Z</time></trkpt><trkpt lat="44.191553" lon="10.4871901"><ele>1466.0</ele><time>2026-04-26T10:05:46.258Z</time></trkpt><trkpt lat="44.1916339" lon="10.487283"><ele>1466.0</ele><time>2026-04-26T10:05:47.238Z</time></trkpt><trkpt lat="44.191708" lon="10.4873678"><ele>1468.1666666666667</ele><time>2026-04-26T10:05:48.239Z</time></trkpt><trkpt lat="44.1917645" lon="10.4874667"><ele>1470.3333333333335</ele><time>2026-04-26T10:05:49.236Z</time></trkpt><trkpt lat="44.1918018" lon="10.4875934"><ele>1472.5</ele><time>2026-04-26T10:05:50.243Z</time></trkpt><trkpt lat="44.1918396" lon="10.4877025"><ele>1474.6666666666667</ele><time>2026-04-26T10:05:51.235Z</time></trkpt><trkpt lat="44.1918848" lon="10.4877804"><ele>1476.8333333333333</ele><time>2026-04-26T10:05:52.232Z</time></trkpt><trkpt lat="44.1919394" lon="10.4878315"><ele>1479.0</ele><time>2026-04-26T10:05:53.236Z</time></trkpt><trkpt lat="44.1919957" lon="10.487877"><ele>1479.0</ele><time>2026-04-26T10:05:54.233Z</time></trkpt><trkpt lat="44.1921041" lon="10.4879224"><ele>1479.0</ele><time>2026-04-26T10:05:56.24Z</time></trkpt><trkpt lat="44.1921316" lon="10.4880926"><ele>1479.0</ele><time>2026-04-26T10:05:58.235Z</time></trkpt><trkpt lat="44.19213" lon="10.48821"><ele>1479.0</ele><time>2026-04-26T10:05:59.237Z</time></trkpt><trkpt lat="44.1921294" lon="10.4883551"><ele>1479.0</ele><time>2026-04-26T10:06:00.234Z</time></trkpt><trkpt lat="44.1921302" lon="10.4884979"><ele>1478.2</ele><time>2026-04-26T10:06:01.236Z</time></trkpt><trkpt lat="44.1921273" lon="10.4886272"><ele>1477.4</ele><time>2026-04-26T10:06:02.24Z</time></trkpt><trkpt lat="44.1920875" lon="10.4887303"><ele>1476.6</ele><time>2026-04-26T10:06:03.238Z</time></trkpt><trkpt lat="44.1920347" lon="10.4888357"><ele>1475.8</ele><time>2026-04-26T10:06:04.239Z</time></trkpt><trkpt lat="44.1919815" lon="10.4889441"><ele>1475.0</ele><time>2026-04-26T10:06:05.242Z</time></trkpt><trkpt lat="44.1919249" lon="10.4890535"><ele>1475.0</ele><time>2026-04-26T10:06:06.238Z</time></trkpt><trkpt lat="44.1918678" lon="10.4891396"><ele>1475.0</ele><time>2026-04-26T10:06:07.25Z</time></trkpt><trkpt lat="44.1918068" lon="10.489224"><ele>1475.0</ele><time>2026-04-26T10:06:08.238Z</time></trkpt><trkpt lat="44.1917511" lon="10.4893024"><ele>1475.0</ele><time>2026-04-26T10:06:09.238Z</time></trkpt><trkpt lat="44.1917061" lon="10.4893859"><ele>1475.0</ele><time>2026-04-26T10:06:10.234Z</time></trkpt><trkpt lat="44.191665" lon="10.489468"><ele>1475.0</ele><time>2026-04-26T10:06:11.237Z</time></trkpt><trkpt lat="44.1916237" lon="10.489549"><ele>1478.2</ele><time>2026-04-26T10:06:12.236Z</time></trkpt><trkpt lat="44.1915848" lon="10.4896232"><ele>1481.4</ele><time>2026-04-26T10:06:13.241Z</time></trkpt><trkpt lat="44.1914883" lon="10.4897229"><ele>1484.6</ele><time>2026-04-26T10:06:15.263Z</time></trkpt><trkpt lat="44.1913985" lon="10.4898211"><ele>1487.8</ele><time>2026-04-26T10:06:17.233Z</time></trkpt><trkpt lat="44.1913162" lon="10.4899359"><ele>1491.0</ele><time>2026-04-26T10:06:19.243Z</time></trkpt><trkpt lat="44.191268" lon="10.4900574"><ele>1489.4</ele><time>2026-04-26T10:06:21.25Z</time></trkpt><trkpt lat="44.1912404" lon="10.4902209"><ele>1487.8</ele><time>2026-04-26T10:06:23.242Z</time></trkpt><trkpt lat="44.1911944" lon="10.490346"><ele>1486.2</ele><time>2026-04-26T10:06:25.236Z</time></trkpt><trkpt lat="44.1911328" lon="10.4903764"><ele>1484.6000000000001</ele><time>2026-04-26T10:06:26.236Z</time></trkpt><trkpt lat="44.191056" lon="10.4904206"><ele>1483.0</ele><time>2026-04-26T10:06:27.236Z</time></trkpt><trkpt lat="44.1909751" lon="10.4904897"><ele>1483.0</ele><time>2026-04-26T10:06:28.248Z</time></trkpt><trkpt lat="44.1908916" lon="10.4905765"><ele>1483.0</ele><time>2026-04-26T10:06:29.24Z</time></trkpt><trkpt lat="44.1907925" lon="10.4906712"><ele>1483.0</ele><time>2026-04-26T10:06:30.239Z</time></trkpt><trkpt lat="44.1906888" lon="10.4907633"><ele>1483.0</ele><time>2026-04-26T10:06:31.242Z</time></trkpt><trkpt lat="44.1905823" lon="10.4908605"><ele>1478.2</ele><time>2026-04-26T10:06:32.238Z</time></trkpt><trkpt lat="44.1904839" lon="10.4909592"><ele>1473.4</ele><time>2026-04-26T10:06:33.242Z</time></trkpt><trkpt lat="44.1903972" lon="10.491053"><ele>1468.6000000000001</ele><time>2026-04-26T10:06:34.256Z</time></trkpt><trkpt lat="44.1903272" lon="10.4911473"><ele>1463.8000000000002</ele><time>2026-04-26T10:06:35.239Z</time></trkpt><trkpt lat="44.1902668" lon="10.491238"><ele>1459.0</ele><time>2026-04-26T10:06:36.24Z</time></trkpt><trkpt lat="44.1902204" lon="10.4913221"><ele>1459.0</ele><time>2026-04-26T10:06:37.243Z</time></trkpt><trkpt lat="44.1901838" lon="10.4914316"><ele>1459.0</ele><time>2026-04-26T10:06:38.243Z</time></trkpt><trkpt lat="44.1901472" lon="10.4915644"><ele>1459.0</ele><time>2026-04-26T10:06:39.236Z</time></trkpt><trkpt lat="44.190114" lon="10.4916923"><ele>1459.0</ele><time>2026-04-26T10:06:40.24Z</time></trkpt><trkpt lat="44.1900485" lon="10.4918019"><ele>1459.0</ele><time>2026-04-26T10:06:41.239Z</time></trkpt><trkpt lat="44.1899671" lon="10.4919166"><ele>1459.0</ele><time>2026-04-26T10:06:42.253Z</time></trkpt><trkpt lat="44.1899131" lon="10.4920333"><ele>1459.0</ele><time>2026-04-26T10:06:43.237Z</time></trkpt><trkpt lat="44.1898837" lon="10.4921575"><ele>1459.0</ele><time>2026-04-26T10:06:44.26Z</time></trkpt><trkpt lat="44.1898801" lon="10.4922843"><ele>1459.0</ele><time>2026-04-26T10:06:45.236Z</time></trkpt><trkpt lat="44.1898972" lon="10.4924142"><ele>1459.0</ele><time>2026-04-26T10:06:46.237Z</time></trkpt><trkpt lat="44.1899175" lon="10.4925473"><ele>1460.4</ele><time>2026-04-26T10:06:47.235Z</time></trkpt><trkpt lat="44.1899639" lon="10.492685"><ele>1461.8000000000002</ele><time>2026-04-26T10:06:48.241Z</time></trkpt><trkpt lat="44.1900086" lon="10.492809"><ele>1463.1999999999998</ele><time>2026-04-26T10:06:49.236Z</time></trkpt><trkpt lat="44.1900386" lon="10.4929281"><ele>1464.6</ele><time>2026-04-26T10:06:50.239Z</time></trkpt><trkpt lat="44.1900692" lon="10.4930374"><ele>1466.0</ele><time>2026-04-26T10:06:51.245Z</time></trkpt><trkpt lat="44.1900809" lon="10.4931299"><ele>1466.0</ele><time>2026-04-26T10:06:52.237Z</time></trkpt><trkpt lat="44.1900247" lon="10.4932471"><ele>1466.0</ele><time>2026-04-26T10:06:54.241Z</time></trkpt><trkpt lat="44.1899007" lon="10.4932576"><ele>1466.0</ele><time>2026-04-26T10:06:56.24Z</time></trkpt><trkpt lat="44.1897972" lon="10.493286"><ele>1466.0</ele><time>2026-04-26T10:06:58.237Z</time></trkpt><trkpt lat="44.1897211" lon="10.4933873"><ele>1466.0</ele><time>2026-04-26T10:07:00.242Z</time></trkpt><trkpt lat="44.189684" lon="10.4934748"><ele>1463.6666666666667</ele><time>2026-04-26T10:07:01.25Z</time></trkpt><trkpt lat="44.1896333" lon="10.4935372"><ele>1461.3333333333335</ele><time>2026-04-26T10:07:02.236Z</time></trkpt><trkpt lat="44.1895777" lon="10.4935955"><ele>1459.0</ele><time>2026-04-26T10:07:03.234Z</time></trkpt><trkpt lat="44.1895124" lon="10.4936718"><ele>1456.6666666666667</ele><time>2026-04-26T10:07:04.237Z</time></trkpt><trkpt lat="44.1894441" lon="10.4937248"><ele>1454.3333333333333</ele><time>2026-04-26T10:07:05.236Z</time></trkpt><trkpt lat="44.1893224" lon="10.4937546"><ele>1452.0</ele><time>2026-04-26T10:07:07.235Z</time></trkpt><trkpt lat="44.18925" lon="10.4937833"><ele>1452.0</ele><time>2026-04-26T10:07:08.247Z</time></trkpt><trkpt lat="44.189189" lon="10.4938301"><ele>1452.0</ele><time>2026-04-26T10:07:09.235Z</time></trkpt><trkpt lat="44.1891321" lon="10.4938997"><ele>1452.0</ele><time>2026-04-26T10:07:10.239Z</time></trkpt><trkpt lat="44.1890844" lon="10.4940044"><ele>1452.0</ele><time>2026-04-26T10:07:11.238Z</time></trkpt><trkpt lat="44.1890413" lon="10.4941371"><ele>1452.0</ele><time>2026-04-26T10:07:12.243Z</time></trkpt><trkpt lat="44.1890009" lon="10.4942668"><ele>1452.0</ele><time>2026-04-26T10:07:13.238Z</time></trkpt><trkpt lat="44.1889738" lon="10.4943999"><ele>1450.0</ele><time>2026-04-26T10:07:14.254Z</time></trkpt><trkpt lat="44.1889539" lon="10.4945158"><ele>1448.0</ele><time>2026-04-26T10:07:15.239Z</time></trkpt><trkpt lat="44.1889346" lon="10.494629"><ele>1446.0</ele><time>2026-04-26T10:07:16.241Z</time></trkpt><trkpt lat="44.1889077" lon="10.4947325"><ele>1444.0</ele><time>2026-04-26T10:07:17.234Z</time></trkpt><trkpt lat="44.1888556" lon="10.4948366"><ele>1442.0</ele><time>2026-04-26T10:07:18.235Z</time></trkpt><trkpt lat="44.1887897" lon="10.4949362"><ele>1440.0</ele><time>2026-04-26T10:07:19.236Z</time></trkpt><trkpt lat="44.1887412" lon="10.4950455"><ele>1440.0</ele><time>2026-04-26T10:07:20.238Z</time></trkpt><trkpt lat="44.188705" lon="10.4951254"><ele>1440.0</ele><time>2026-04-26T10:07:21.237Z</time></trkpt><trkpt lat="44.1886392" lon="10.4951717"><ele>1440.0</ele><time>2026-04-26T10:07:23.238Z</time></trkpt><trkpt lat="44.1885673" lon="10.4951914"><ele>1440.0</ele><time>2026-04-26T10:07:25.24Z</time></trkpt><trkpt lat="44.1884506" lon="10.49521"><ele>1440.0</ele><time>2026-04-26T10:07:27.237Z</time></trkpt><trkpt lat="44.1883555" lon="10.4952109"><ele>1440.0</ele><time>2026-04-26T10:07:28.236Z</time></trkpt><trkpt lat="44.1882514" lon="10.4952453"><ele>1437.0</ele><time>2026-04-26T10:07:29.257Z</time></trkpt><trkpt lat="44.1881342" lon="10.4952548"><ele>1434.0</ele><time>2026-04-26T10:07:30.235Z</time></trkpt><trkpt lat="44.1880096" lon="10.4953018"><ele>1431.0</ele><time>2026-04-26T10:07:31.238Z</time></trkpt><trkpt lat="44.1879007" lon="10.4953745"><ele>1428.0</ele><time>2026-04-26T10:07:32.238Z</time></trkpt><trkpt lat="44.187811" lon="10.4954462"><ele>1434.4</ele><time>2026-04-26T10:07:33.241Z</time></trkpt><trkpt lat="44.1877274" lon="10.4954998"><ele>1440.8000000000002</ele><time>2026-04-26T10:07:34.252Z</time></trkpt><trkpt lat="44.1876355" lon="10.4955182"><ele>1447.2</ele><time>2026-04-26T10:07:35.236Z</time></trkpt><trkpt lat="44.1875297" lon="10.4954793"><ele>1453.6</ele><time>2026-04-26T10:07:36.235Z</time></trkpt><trkpt lat="44.1874282" lon="10.4954667"><ele>1460.0</ele><time>2026-04-26T10:07:37.242Z</time></trkpt><trkpt lat="44.1873363" lon="10.4954735"><ele>1461.0</ele><time>2026-04-26T10:07:38.235Z</time></trkpt><trkpt lat="44.1872578" lon="10.4955144"><ele>1462.0</ele><time>2026-04-26T10:07:39.256Z</time></trkpt><trkpt lat="44.1871855" lon="10.4955743"><ele>1463.0</ele><time>2026-04-26T10:07:40.235Z</time></trkpt><trkpt lat="44.1871192" lon="10.4956312"><ele>1464.0</ele><time>2026-04-26T10:07:41.239Z</time></trkpt><trkpt lat="44.1870623" lon="10.4956816"><ele>1465.0</ele><time>2026-04-26T10:07:42.235Z</time></trkpt><trkpt lat="44.1869801" lon="10.4956805"><ele>1466.0</ele><time>2026-04-26T10:07:44.239Z</time></trkpt><trkpt lat="44.1868723" lon="10.4955186"><ele>1465.25</ele><time>2026-04-26T10:07:46.256Z</time></trkpt><trkpt lat="44.1867964" lon="10.4953921"><ele>1464.5</ele><time>2026-04-26T10:07:47.247Z</time></trkpt><trkpt lat="44.186699" lon="10.4952818"><ele>1463.75</ele><time>2026-04-26T10:07:48.236Z</time></trkpt><trkpt lat="44.1865897" lon="10.4951693"><ele>1463.0</ele><time>2026-04-26T10:07:49.244Z</time></trkpt><trkpt lat="44.1864504" lon="10.4950397"><ele>1463.0</ele><time>2026-04-26T10:07:50.236Z</time></trkpt><trkpt lat="44.1863197" lon="10.4949211"><ele>1463.0</ele><time>2026-04-26T10:07:51.253Z</time></trkpt><trkpt lat="44.1861849" lon="10.4948017"><ele>1463.0</ele><time>2026-04-26T10:07:52.238Z</time></trkpt><trkpt lat="44.1860436" lon="10.4947035"><ele>1463.0</ele><time>2026-04-26T10:07:53.236Z</time></trkpt><trkpt lat="44.1859097" lon="10.4946157"><ele>1463.0</ele><time>2026-04-26T10:07:54.236Z</time></trkpt><trkpt lat="44.1857625" lon="10.4945205"><ele>1463.0</ele><time>2026-04-26T10:07:55.236Z</time></trkpt><trkpt lat="44.1856173" lon="10.4944256"><ele>1459.3333333333335</ele><time>2026-04-26T10:07:56.236Z</time></trkpt><trkpt lat="44.1854762" lon="10.4943314"><ele>1455.6666666666667</ele><time>2026-04-26T10:07:57.238Z</time></trkpt><trkpt lat="44.1853218" lon="10.4942059"><ele>1452.0</ele><time>2026-04-26T10:07:58.239Z</time></trkpt><trkpt lat="44.1851709" lon="10.4940618"><ele>1452.0</ele><time>2026-04-26T10:07:59.236Z</time></trkpt><trkpt lat="44.1850571" lon="10.493898"><ele>1452.0</ele><time>2026-04-26T10:08:00.259Z</time></trkpt><trkpt lat="44.1849561" lon="10.4937506"><ele>1452.0</ele><time>2026-04-26T10:08:01.24Z</time></trkpt><trkpt lat="44.1848409" lon="10.4936629"><ele>1452.0</ele><time>2026-04-26T10:08:02.236Z</time></trkpt><trkpt lat="44.1847339" lon="10.4935664"><ele>1447.0</ele><time>2026-04-26T10:08:03.239Z</time></trkpt><trkpt lat="44.1846299" lon="10.4935083"><ele>1442.0</ele><time>2026-04-26T10:08:04.237Z</time></trkpt><trkpt lat="44.1845339" lon="10.4934532"><ele>1437.0</ele><time>2026-04-26T10:08:05.24Z</time></trkpt><trkpt lat="44.1844259" lon="10.4934197"><ele>1432.0</ele><time>2026-04-26T10:08:06.242Z</time></trkpt><trkpt lat="44.1843144" lon="10.4934124"><ele>1427.0</ele><time>2026-04-26T10:08:07.235Z</time></trkpt><trkpt lat="44.1842075" lon="10.4934263"><ele>1427.0</ele><time>2026-04-26T10:08:08.231Z</time></trkpt><trkpt lat="44.184102" lon="10.493488"><ele>1427.0</ele><time>2026-04-26T10:08:09.239Z</time></trkpt><trkpt lat="44.1839877" lon="10.4935659"><ele>1427.0</ele><time>2026-04-26T10:08:10.237Z</time></trkpt><trkpt lat="44.1838703" lon="10.4935928"><ele>1427.0</ele><time>2026-04-26T10:08:11.233Z</time></trkpt><trkpt lat="44.1837553" lon="10.4936395"><ele>1426.3333333333335</ele><time>2026-04-26T10:08:12.237Z</time></trkpt><trkpt lat="44.1836442" lon="10.4936591"><ele>1425.6666666666667</ele><time>2026-04-26T10:08:13.236Z</time></trkpt><trkpt lat="44.1835503" lon="10.4936733"><ele>1425.0</ele><time>2026-04-26T10:08:14.235Z</time></trkpt><trkpt lat="44.1834653" lon="10.4936907"><ele>1424.3333333333333</ele><time>2026-04-26T10:08:15.255Z</time></trkpt><trkpt lat="44.1834187" lon="10.4937526"><ele>1423.6666666666665</ele><time>2026-04-26T10:08:16.235Z</time></trkpt><trkpt lat="44.1833771" lon="10.4938518"><ele>1423.0</ele><time>2026-04-26T10:08:17.241Z</time></trkpt><trkpt lat="44.1833318" lon="10.4939515"><ele>1423.0</ele><time>2026-04-26T10:08:18.238Z</time></trkpt><trkpt lat="44.1832854" lon="10.4940395"><ele>1423.0</ele><time>2026-04-26T10:08:19.234Z</time></trkpt><trkpt lat="44.1832254" lon="10.4941175"><ele>1423.0</ele><time>2026-04-26T10:08:20.241Z</time></trkpt><trkpt lat="44.1832179" lon="10.4942295"><ele>1423.0</ele><time>2026-04-26T10:08:21.235Z</time></trkpt><trkpt lat="44.1832077" lon="10.4943686"><ele>1423.0</ele><time>2026-04-26T10:08:22.242Z</time></trkpt><trkpt lat="44.1832203" lon="10.4945306"><ele>1423.2</ele><time>2026-04-26T10:08:23.238Z</time></trkpt><trkpt lat="44.1832285" lon="10.4946934"><ele>1423.4</ele><time>2026-04-26T10:08:24.241Z</time></trkpt><trkpt lat="44.1832263" lon="10.4948453"><ele>1423.6000000000001</ele><time>2026-04-26T10:08:25.239Z</time></trkpt><trkpt lat="44.1832075" lon="10.494965"><ele>1423.8000000000002</ele><time>2026-04-26T10:08:26.241Z</time></trkpt><trkpt lat="44.1831849" lon="10.495066"><ele>1424.0</ele><time>2026-04-26T10:08:27.237Z</time></trkpt><trkpt lat="44.1831988" lon="10.4952125"><ele>1424.0</ele><time>2026-04-26T10:08:29.239Z</time></trkpt><trkpt lat="44.1832406" lon="10.495281"><ele>1424.0</ele><time>2026-04-26T10:08:30.24Z</time></trkpt><trkpt lat="44.183304" lon="10.4953513"><ele>1424.0</ele><time>2026-04-26T10:08:31.235Z</time></trkpt><trkpt lat="44.1833856" lon="10.4954204"><ele>1424.0</ele><time>2026-04-26T10:08:32.241Z</time></trkpt><trkpt lat="44.1834624" lon="10.4955162"><ele>1424.0</ele><time>2026-04-26T10:08:33.236Z</time></trkpt><trkpt lat="44.1835277" lon="10.4956296"><ele>1424.0</ele><time>2026-04-26T10:08:34.238Z</time></trkpt><trkpt lat="44.1835627" lon="10.495759"><ele>1420.8000000000002</ele><time>2026-04-26T10:08:35.239Z</time></trkpt><trkpt lat="44.1835997" lon="10.4958787"><ele>1417.6000000000001</ele><time>2026-04-26T10:08:36.236Z</time></trkpt><trkpt lat="44.1836237" lon="10.4960189"><ele>1414.4</ele><time>2026-04-26T10:08:37.25Z</time></trkpt><trkpt lat="44.1836157" lon="10.4961496"><ele>1411.2</ele><time>2026-04-26T10:08:38.233Z</time></trkpt><trkpt lat="44.1836122" lon="10.4962742"><ele>1408.0</ele><time>2026-04-26T10:08:39.237Z</time></trkpt><trkpt lat="44.1836054" lon="10.4963731"><ele>1405.6000000000001</ele><time>2026-04-26T10:08:40.238Z</time></trkpt><trkpt lat="44.1836082" lon="10.4964704"><ele>1403.2</ele><time>2026-04-26T10:08:41.235Z</time></trkpt><trkpt lat="44.1836158" lon="10.4966351"><ele>1400.8</ele><time>2026-04-26T10:08:43.239Z</time></trkpt><trkpt lat="44.1836199" lon="10.49677"><ele>1398.4</ele><time>2026-04-26T10:08:46.247Z</time></trkpt><trkpt lat="44.1836434" lon="10.4968918"><ele>1396.0</ele><time>2026-04-26T10:08:49.241Z</time></trkpt><trkpt lat="44.1836855" lon="10.4970108"><ele>1395.9999999999998</ele><time>2026-04-26T10:08:51.235Z</time></trkpt><trkpt lat="44.1837235" lon="10.4970823"><ele>1396.0</ele><time>2026-04-26T10:08:52.236Z</time></trkpt><trkpt lat="44.1837681" lon="10.4971622"><ele>1396.0</ele><time>2026-04-26T10:08:53.235Z</time></trkpt><trkpt lat="44.1838229" lon="10.4972381"><ele>1396.0</ele><time>2026-04-26T10:08:54.24Z</time></trkpt><trkpt lat="44.1838781" lon="10.4973065"><ele>1396.0</ele><time>2026-04-26T10:08:55.237Z</time></trkpt><trkpt lat="44.1839325" lon="10.4973757"><ele>1395.9999999999998</ele><time>2026-04-26T10:08:56.237Z</time></trkpt><trkpt lat="44.1839738" lon="10.4974716"><ele>1396.0</ele><time>2026-04-26T10:08:57.255Z</time></trkpt><trkpt lat="44.1839907" lon="10.4975931"><ele>1397.0</ele><time>2026-04-26T10:08:58.237Z</time></trkpt><trkpt lat="44.1839905" lon="10.497739"><ele>1398.0</ele><time>2026-04-26T10:08:59.236Z</time></trkpt><trkpt lat="44.1839885" lon="10.4978914"><ele>1399.0</ele><time>2026-04-26T10:09:00.237Z</time></trkpt><trkpt lat="44.1840002" lon="10.4980316"><ele>1400.0</ele><time>2026-04-26T10:09:01.236Z</time></trkpt><trkpt lat="44.1840222" lon="10.4981724"><ele>1401.0</ele><time>2026-04-26T10:09:02.241Z</time></trkpt><trkpt lat="44.1840635" lon="10.4983234"><ele>1401.0</ele><time>2026-04-26T10:09:03.237Z</time></trkpt><trkpt lat="44.1841065" lon="10.4984473"><ele>1401.0</ele><time>2026-04-26T10:09:04.246Z</time></trkpt><trkpt lat="44.1841543" lon="10.4985383"><ele>1401.0</ele><time>2026-04-26T10:09:05.239Z</time></trkpt><trkpt lat="44.1842207" lon="10.4986455"><ele>1401.0</ele><time>2026-04-26T10:09:07.243Z</time></trkpt><trkpt lat="44.1842816" lon="10.4987231"><ele>1401.0</ele><time>2026-04-26T10:09:09.24Z</time></trkpt><trkpt lat="44.1843407" lon="10.4988304"><ele>1399.1999999999998</ele><time>2026-04-26T10:09:11.241Z</time></trkpt><trkpt lat="44.1843919" lon="10.4989597"><ele>1397.3999999999999</ele><time>2026-04-26T10:09:13.252Z</time></trkpt><trkpt lat="44.1844404" lon="10.4990917"><ele>1395.6</ele><time>2026-04-26T10:09:15.238Z</time></trkpt><trkpt lat="44.1844921" lon="10.4991619"><ele>1393.8</ele><time>2026-04-26T10:09:16.236Z</time></trkpt><trkpt lat="44.1845571" lon="10.4992906"><ele>1392.0</ele><time>2026-04-26T10:09:18.25Z</time></trkpt><trkpt lat="44.1845958" lon="10.4994064"><ele>1392.0</ele><time>2026-04-26T10:09:20.239Z</time></trkpt><trkpt lat="44.1845783" lon="10.4995649"><ele>1392.0</ele><time>2026-04-26T10:09:22.244Z</time></trkpt><trkpt lat="44.1845727" lon="10.4996606"><ele>1392.0</ele><time>2026-04-26T10:09:23.24Z</time></trkpt><trkpt lat="44.1845573" lon="10.4997556"><ele>1392.0</ele><time>2026-04-26T10:09:24.238Z</time></trkpt><trkpt lat="44.1845286" lon="10.499913"><ele>1392.0</ele><time>2026-04-26T10:09:26.243Z</time></trkpt><trkpt lat="44.1844872" lon="10.5000743"><ele>1391.8333333333333</ele><time>2026-04-26T10:09:28.244Z</time></trkpt><trkpt lat="44.1844553" lon="10.5001537"><ele>1391.6666666666667</ele><time>2026-04-26T10:09:29.239Z</time></trkpt><trkpt lat="44.1844049" lon="10.500278"><ele>1391.5</ele><time>2026-04-26T10:09:31.235Z</time></trkpt><trkpt lat="44.1843468" lon="10.5003389"><ele>1391.3333333333335</ele><time>2026-04-26T10:13:01.237Z</time></trkpt><trkpt lat="44.1842834" lon="10.5004459"><ele>1391.1666666666667</ele><time>2026-04-26T10:13:03.245Z</time></trkpt><trkpt lat="44.184235" lon="10.5005485"><ele>1391.0</ele><time>2026-04-26T10:13:05.238Z</time></trkpt><trkpt lat="44.1842035" lon="10.5006571"><ele>1392.1666666666667</ele><time>2026-04-26T10:13:07.238Z</time></trkpt><trkpt lat="44.1841803" lon="10.5007581"><ele>1393.3333333333335</ele><time>2026-04-26T10:13:09.241Z</time></trkpt><trkpt lat="44.1841667" lon="10.5008618"><ele>1394.5</ele><time>2026-04-26T10:13:11.237Z</time></trkpt><trkpt lat="44.1841658" lon="10.5009811"><ele>1395.6666666666667</ele><time>2026-04-26T10:13:13.244Z</time></trkpt><trkpt lat="44.1841539" lon="10.5011542"><ele>1396.8333333333333</ele><time>2026-04-26T10:13:15.236Z</time></trkpt><trkpt lat="44.1841461" lon="10.5012501"><ele>1398.0</ele><time>2026-04-26T10:13:16.241Z</time></trkpt><trkpt lat="44.184139" lon="10.5013414"><ele>1398.0</ele><time>2026-04-26T10:13:17.242Z</time></trkpt><trkpt lat="44.1841402" lon="10.5015047"><ele>1398.0</ele><time>2026-04-26T10:13:19.237Z</time></trkpt><trkpt lat="44.184187" lon="10.5016605"><ele>1398.0</ele><time>2026-04-26T10:13:21.235Z</time></trkpt><trkpt lat="44.1842636" lon="10.501792"><ele>1398.0</ele><time>2026-04-26T10:13:23.242Z</time></trkpt><trkpt lat="44.1842801" lon="10.5018802"><ele>1398.0</ele><time>2026-04-26T10:13:24.238Z</time></trkpt><trkpt lat="44.1842724" lon="10.5019869"><ele>1397.6000000000001</ele><time>2026-04-26T10:13:25.236Z</time></trkpt><trkpt lat="44.1842548" lon="10.5021173"><ele>1397.2</ele><time>2026-04-26T10:13:26.238Z</time></trkpt><trkpt lat="44.1842551" lon="10.5022639"><ele>1396.8</ele><time>2026-04-26T10:13:27.24Z</time></trkpt><trkpt lat="44.184257" lon="10.502418"><ele>1396.4</ele><time>2026-04-26T10:13:28.235Z</time></trkpt><trkpt lat="44.1842555" lon="10.502566"><ele>1396.0</ele><time>2026-04-26T10:13:29.254Z</time></trkpt><trkpt lat="44.1842421" lon="10.5027026"><ele>1396.0</ele><time>2026-04-26T10:13:30.24Z</time></trkpt><trkpt lat="44.1842424" lon="10.5028242"><ele>1396.0</ele><time>2026-04-26T10:13:31.24Z</time></trkpt><trkpt lat="44.1842439" lon="10.5029346"><ele>1396.0</ele><time>2026-04-26T10:13:32.237Z</time></trkpt><trkpt lat="44.1842521" lon="10.5030369"><ele>1396.0</ele><time>2026-04-26T10:13:33.236Z</time></trkpt><trkpt lat="44.1842522" lon="10.5031473"><ele>1396.0</ele><time>2026-04-26T10:13:34.238Z</time></trkpt><trkpt lat="44.1842425" lon="10.503245"><ele>1396.0</ele><time>2026-04-26T10:13:35.241Z</time></trkpt><trkpt lat="44.1842534" lon="10.5033931"><ele>1397.0</ele><time>2026-04-26T10:13:37.241Z</time></trkpt><trkpt lat="44.1842866" lon="10.5035152"><ele>1398.0</ele><time>2026-04-26T10:13:39.235Z</time></trkpt><trkpt lat="44.1842118" lon="10.5036531"><ele>1399.0</ele><time>2026-04-26T10:13:41.235Z</time></trkpt><trkpt lat="44.1841664" lon="10.5037793"><ele>1400.0</ele><time>2026-04-26T10:13:43.235Z</time></trkpt><trkpt lat="44.1841853" lon="10.5039044"><ele>1401.0</ele><time>2026-04-26T10:13:45.255Z</time></trkpt><trkpt lat="44.1842308" lon="10.503972"><ele>1401.8333333333333</ele><time>2026-04-26T10:13:46.233Z</time></trkpt><trkpt lat="44.1842838" lon="10.5040509"><ele>1402.6666666666667</ele><time>2026-04-26T10:13:47.261Z</time></trkpt><trkpt lat="44.1843417" lon="10.5041196"><ele>1403.5</ele><time>2026-04-26T10:13:48.237Z</time></trkpt><trkpt lat="44.1844052" lon="10.5041936"><ele>1404.3333333333335</ele><time>2026-04-26T10:13:49.239Z</time></trkpt><trkpt lat="44.1844633" lon="10.5042538"><ele>1405.1666666666667</ele><time>2026-04-26T10:13:50.241Z</time></trkpt><trkpt lat="44.1845454" lon="10.5043605"><ele>1406.0</ele><time>2026-04-26T10:13:52.232Z</time></trkpt><trkpt lat="44.1845632" lon="10.5044983"><ele>1408.1999999999998</ele><time>2026-04-26T10:13:54.237Z</time></trkpt><trkpt lat="44.1845055" lon="10.5046685"><ele>1410.3999999999999</ele><time>2026-04-26T10:13:56.24Z</time></trkpt><trkpt lat="44.1844636" lon="10.5047583"><ele>1412.6</ele><time>2026-04-26T10:13:57.234Z</time></trkpt><trkpt lat="44.1844209" lon="10.5048709"><ele>1414.8</ele><time>2026-04-26T10:13:58.237Z</time></trkpt><trkpt lat="44.1843773" lon="10.5049594"><ele>1417.0</ele><time>2026-04-26T10:13:59.235Z</time></trkpt><trkpt lat="44.1843319" lon="10.5050335"><ele>1417.0</ele><time>2026-04-26T10:14:00.241Z</time></trkpt><trkpt lat="44.1842188" lon="10.5050831"><ele>1417.0</ele><time>2026-04-26T10:14:02.24Z</time></trkpt><trkpt lat="44.1841536" lon="10.5050786"><ele>1417.0</ele><time>2026-04-26T10:14:03.232Z</time></trkpt><trkpt lat="44.1840733" lon="10.5051478"><ele>1417.0</ele><time>2026-04-26T10:14:05.239Z</time></trkpt><trkpt lat="44.1840616" lon="10.5053093"><ele>1417.0</ele><time>2026-04-26T10:14:07.245Z</time></trkpt><trkpt lat="44.1840972" lon="10.5054657"><ele>1418.0</ele><time>2026-04-26T10:14:09.238Z</time></trkpt><trkpt lat="44.1841447" lon="10.5056203"><ele>1419.0</ele><time>2026-04-26T10:14:11.243Z</time></trkpt><trkpt lat="44.184161" lon="10.5057616"><ele>1420.0</ele><time>2026-04-26T10:14:13.238Z</time></trkpt><trkpt lat="44.1841138" lon="10.5058404"><ele>1421.0</ele><time>2026-04-26T10:14:15.243Z</time></trkpt><trkpt lat="44.1840151" lon="10.5058304"><ele>1422.0</ele><time>2026-04-26T10:14:17.236Z</time></trkpt><trkpt lat="44.1839361" lon="10.5057547"><ele>1422.0</ele><time>2026-04-26T10:14:19.246Z</time></trkpt><trkpt lat="44.1838242" lon="10.5057573"><ele>1422.0</ele><time>2026-04-26T10:14:21.244Z</time></trkpt><trkpt lat="44.1837504" lon="10.5057464"><ele>1422.0</ele><time>2026-04-26T10:14:22.252Z</time></trkpt><trkpt lat="44.1836662" lon="10.5057136"><ele>1422.0</ele><time>2026-04-26T10:14:23.248Z</time></trkpt><trkpt lat="44.1835752" lon="10.5057006"><ele>1422.0</ele><time>2026-04-26T10:14:24.242Z</time></trkpt><trkpt lat="44.1834863" lon="10.5057202"><ele>1422.0</ele><time>2026-04-26T10:14:25.238Z</time></trkpt><trkpt lat="44.1834076" lon="10.5057439"><ele>1422.0</ele><time>2026-04-26T10:14:26.239Z</time></trkpt><trkpt lat="44.1833278" lon="10.5057853"><ele>1422.0</ele><time>2026-04-26T10:14:27.241Z</time></trkpt><trkpt lat="44.1832477" lon="10.5058502"><ele>1422.0</ele><time>2026-04-26T10:14:28.24Z</time></trkpt><trkpt lat="44.183174" lon="10.5059174"><ele>1422.0</ele><time>2026-04-26T10:14:29.24Z</time></trkpt><trkpt lat="44.1831103" lon="10.505969"><ele>1422.0</ele><time>2026-04-26T10:14:30.239Z</time></trkpt><trkpt lat="44.183011" lon="10.5059619"><ele>1423.3999999999999</ele><time>2026-04-26T10:14:32.233Z</time></trkpt><trkpt lat="44.1829513" lon="10.5059091"><ele>1424.8</ele><time>2026-04-26T10:14:33.24Z</time></trkpt><trkpt lat="44.1828545" lon="10.5058596"><ele>1426.2</ele><time>2026-04-26T10:14:34.238Z</time></trkpt><trkpt lat="44.1827531" lon="10.5058226"><ele>1427.6</ele><time>2026-04-26T10:14:35.233Z</time></trkpt><trkpt lat="44.1826373" lon="10.5057857"><ele>1429.0</ele><time>2026-04-26T10:14:36.237Z</time></trkpt><trkpt lat="44.1825308" lon="10.5057662"><ele>1429.0</ele><time>2026-04-26T10:14:37.245Z</time></trkpt><trkpt lat="44.1824296" lon="10.5057485"><ele>1429.0</ele><time>2026-04-26T10:14:38.24Z</time></trkpt><trkpt lat="44.1823257" lon="10.5057098"><ele>1429.0</ele><time>2026-04-26T10:14:39.249Z</time></trkpt><trkpt lat="44.1822266" lon="10.5056801"><ele>1429.0</ele><time>2026-04-26T10:14:40.239Z</time></trkpt><trkpt lat="44.1821212" lon="10.5056682"><ele>1429.0</ele><time>2026-04-26T10:14:41.238Z</time></trkpt><trkpt lat="44.1820246" lon="10.5056896"><ele>1429.0</ele><time>2026-04-26T10:14:42.24Z</time></trkpt><trkpt lat="44.1819284" lon="10.5056889"><ele>1429.0</ele><time>2026-04-26T10:14:43.235Z</time></trkpt><trkpt lat="44.1818431" lon="10.5056683"><ele>1429.0</ele><time>2026-04-26T10:14:44.24Z</time></trkpt><trkpt lat="44.1817613" lon="10.5056389"><ele>1429.0</ele><time>2026-04-26T10:14:45.249Z</time></trkpt><trkpt lat="44.1816873" lon="10.5056399"><ele>1429.0</ele><time>2026-04-26T10:14:46.239Z</time></trkpt><trkpt lat="44.1816229" lon="10.5056745"><ele>1429.0</ele><time>2026-04-26T10:14:47.238Z</time></trkpt><trkpt lat="44.1815725" lon="10.5057326"><ele>1429.0</ele><time>2026-04-26T10:14:48.238Z</time></trkpt><trkpt lat="44.1815253" lon="10.5057986"><ele>1429.0</ele><time>2026-04-26T10:14:49.239Z</time></trkpt><trkpt lat="44.1815037" lon="10.5058982"><ele>1429.0</ele><time>2026-04-26T10:14:50.232Z</time></trkpt><trkpt lat="44.1814908" lon="10.5059879"><ele>1429.0</ele><time>2026-04-26T10:14:51.245Z</time></trkpt><trkpt lat="44.1814716" lon="10.5061528"><ele>1429.0</ele><time>2026-04-26T10:14:53.252Z</time></trkpt><trkpt lat="44.1814555" lon="10.5063202"><ele>1429.0</ele><time>2026-04-26T10:14:55.239Z</time></trkpt><trkpt lat="44.1814516" lon="10.5064087"><ele>1428.6666666666665</ele><time>2026-04-26T10:14:56.237Z</time></trkpt><trkpt lat="44.1814474" lon="10.5065022"><ele>1428.3333333333333</ele><time>2026-04-26T10:14:57.241Z</time></trkpt><trkpt lat="44.1814421" lon="10.5065934"><ele>1428.0</ele><time>2026-04-26T10:14:58.236Z</time></trkpt><trkpt lat="44.1814335" lon="10.5066822"><ele>1427.6666666666667</ele><time>2026-04-26T10:14:59.241Z</time></trkpt><trkpt lat="44.1814129" lon="10.506766"><ele>1427.3333333333335</ele><time>2026-04-26T10:15:00.239Z</time></trkpt><trkpt lat="44.1813404" lon="10.5069009"><ele>1427.0</ele><time>2026-04-26T10:15:02.239Z</time></trkpt><trkpt lat="44.1812358" lon="10.5069878"><ele>1427.0</ele><time>2026-04-26T10:15:04.239Z</time></trkpt><trkpt lat="44.1811247" lon="10.5070579"><ele>1427.0</ele><time>2026-04-26T10:15:06.235Z</time></trkpt><trkpt lat="44.1810551" lon="10.5070793"><ele>1427.0</ele><time>2026-04-26T10:15:07.256Z</time></trkpt><trkpt lat="44.1809798" lon="10.5070844"><ele>1427.0</ele><time>2026-04-26T10:15:08.237Z</time></trkpt><trkpt lat="44.1809007" lon="10.5070859"><ele>1427.0</ele><time>2026-04-26T10:15:09.237Z</time></trkpt><trkpt lat="44.1808188" lon="10.5070993"><ele>1427.0</ele><time>2026-04-26T10:15:10.24Z</time></trkpt><trkpt lat="44.1807427" lon="10.5070892"><ele>1428.6</ele><time>2026-04-26T10:15:11.236Z</time></trkpt><trkpt lat="44.1806737" lon="10.5070664"><ele>1430.1999999999998</ele><time>2026-04-26T10:15:12.249Z</time></trkpt><trkpt lat="44.1805419" lon="10.5070088"><ele>1431.8</ele><time>2026-04-26T10:15:14.243Z</time></trkpt><trkpt lat="44.1804639" lon="10.5070275"><ele>1433.4</ele><time>2026-04-26T10:15:15.241Z</time></trkpt><trkpt lat="44.1803763" lon="10.5070579"><ele>1435.0</ele><time>2026-04-26T10:15:16.242Z</time></trkpt><trkpt lat="44.1802925" lon="10.5071027"><ele>1435.0</ele><time>2026-04-26T10:15:17.237Z</time></trkpt><trkpt lat="44.1801973" lon="10.5071456"><ele>1435.0</ele><time>2026-04-26T10:15:18.239Z</time></trkpt><trkpt lat="44.1801067" lon="10.5071777"><ele>1435.0</ele><time>2026-04-26T10:15:19.24Z</time></trkpt><trkpt lat="44.1800324" lon="10.5071986"><ele>1435.0</ele><time>2026-04-26T10:15:20.24Z</time></trkpt><trkpt lat="44.1799392" lon="10.5072907"><ele>1435.0</ele><time>2026-04-26T10:15:22.243Z</time></trkpt><trkpt lat="44.17992" lon="10.5074267"><ele>1435.0</ele><time>2026-04-26T10:15:24.252Z</time></trkpt><trkpt lat="44.1798784" lon="10.5075984"><ele>1435.0</ele><time>2026-04-26T10:15:26.235Z</time></trkpt><trkpt lat="44.1798032" lon="10.5076787"><ele>1435.0</ele><time>2026-04-26T10:15:27.238Z</time></trkpt><trkpt lat="44.1797173" lon="10.5077523"><ele>1435.0</ele><time>2026-04-26T10:15:28.24Z</time></trkpt><trkpt lat="44.1796245" lon="10.5078209"><ele>1435.0</ele><time>2026-04-26T10:15:29.24Z</time></trkpt><trkpt lat="44.1795232" lon="10.5078752"><ele>1435.2</ele><time>2026-04-26T10:15:30.25Z</time></trkpt><trkpt lat="44.1794214" lon="10.5079248"><ele>1435.4</ele><time>2026-04-26T10:15:31.236Z</time></trkpt><trkpt lat="44.1793173" lon="10.5079617"><ele>1435.6</ele><time>2026-04-26T10:15:32.236Z</time></trkpt><trkpt lat="44.1792171" lon="10.5079939"><ele>1435.8</ele><time>2026-04-26T10:15:33.239Z</time></trkpt><trkpt lat="44.1791174" lon="10.5080323"><ele>1436.0</ele><time>2026-04-26T10:15:34.238Z</time></trkpt><trkpt lat="44.179025" lon="10.508066"><ele>1432.3333333333335</ele><time>2026-04-26T10:15:35.256Z</time></trkpt><trkpt lat="44.1789445" lon="10.5081042"><ele>1428.6666666666667</ele><time>2026-04-26T10:15:36.243Z</time></trkpt><trkpt lat="44.1788846" lon="10.508181"><ele>1425.0</ele><time>2026-04-26T10:15:37.237Z</time></trkpt><trkpt lat="44.1788313" lon="10.5082764"><ele>1421.3333333333333</ele><time>2026-04-26T10:15:38.239Z</time></trkpt><trkpt lat="44.1787782" lon="10.5083734"><ele>1417.6666666666665</ele><time>2026-04-26T10:15:39.239Z</time></trkpt><trkpt lat="44.1787268" lon="10.5084787"><ele>1414.0</ele><time>2026-04-26T10:15:40.242Z</time></trkpt><trkpt lat="44.1786999" lon="10.5085808"><ele>1414.0</ele><time>2026-04-26T10:15:41.236Z</time></trkpt><trkpt lat="44.1786796" lon="10.5086746"><ele>1414.0</ele><time>2026-04-26T10:15:42.243Z</time></trkpt><trkpt lat="44.1786751" lon="10.5087711"><ele>1414.0</ele><time>2026-04-26T10:15:43.239Z</time></trkpt><trkpt lat="44.1786392" lon="10.5089171"><ele>1414.0</ele><time>2026-04-26T10:15:45.242Z</time></trkpt><trkpt lat="44.1785815" lon="10.5089597"><ele>1414.0</ele><time>2026-04-26T10:15:46.239Z</time></trkpt><trkpt lat="44.1785172" lon="10.5090229"><ele>1414.0</ele><time>2026-04-26T10:15:47.242Z</time></trkpt><trkpt lat="44.1784716" lon="10.5090949"><ele>1417.3333333333333</ele><time>2026-04-26T10:15:48.241Z</time></trkpt><trkpt lat="44.1784379" lon="10.5091839"><ele>1420.6666666666665</ele><time>2026-04-26T10:15:49.235Z</time></trkpt><trkpt lat="44.1784157" lon="10.5092957"><ele>1424.0</ele><time>2026-04-26T10:15:50.251Z</time></trkpt><trkpt lat="44.1783946" lon="10.5094087"><ele>1427.3333333333333</ele><time>2026-04-26T10:15:51.236Z</time></trkpt><trkpt lat="44.1783711" lon="10.5095204"><ele>1430.6666666666667</ele><time>2026-04-26T10:15:52.238Z</time></trkpt><trkpt lat="44.1783376" lon="10.5096213"><ele>1434.0</ele><time>2026-04-26T10:15:53.237Z</time></trkpt><trkpt lat="44.178298" lon="10.5097102"><ele>1433.1666666666667</ele><time>2026-04-26T10:15:54.24Z</time></trkpt><trkpt lat="44.1782619" lon="10.5097827"><ele>1432.3333333333333</ele><time>2026-04-26T10:15:55.239Z</time></trkpt><trkpt lat="44.1782125" lon="10.5098508"><ele>1431.5</ele><time>2026-04-26T10:15:56.241Z</time></trkpt><trkpt lat="44.1781634" lon="10.5099211"><ele>1430.6666666666665</ele><time>2026-04-26T10:15:57.238Z</time></trkpt><trkpt lat="44.1780968" lon="10.5100183"><ele>1429.8333333333333</ele><time>2026-04-26T10:15:58.24Z</time></trkpt><trkpt lat="44.1780186" lon="10.5100944"><ele>1429.0</ele><time>2026-04-26T10:15:59.24Z</time></trkpt><trkpt lat="44.17794" lon="10.510168"><ele>1429.0</ele><time>2026-04-26T10:16:00.24Z</time></trkpt><trkpt lat="44.1778803" lon="10.5102215"><ele>1429.0</ele><time>2026-04-26T10:16:01.242Z</time></trkpt><trkpt lat="44.1778277" lon="10.5102789"><ele>1429.0</ele><time>2026-04-26T10:16:02.241Z</time></trkpt><trkpt lat="44.1777695" lon="10.5104127"><ele>1429.0</ele><time>2026-04-26T10:16:04.235Z</time></trkpt><trkpt lat="44.1777624" lon="10.5105124"><ele>1429.0</ele><time>2026-04-26T10:16:05.239Z</time></trkpt><trkpt lat="44.1777505" lon="10.5106006"><ele>1429.0</ele><time>2026-04-26T10:16:06.238Z</time></trkpt><trkpt lat="44.1777307" lon="10.5107224"><ele>1429.0</ele><time>2026-04-26T10:16:08.238Z</time></trkpt><trkpt lat="44.1776649" lon="10.5107154"><ele>1429.0</ele><time>2026-04-26T10:16:12.246Z</time></trkpt><trkpt lat="44.1776223" lon="10.5106322"><ele>1429.0</ele><time>2026-04-26T10:16:14.242Z</time></trkpt><trkpt lat="44.177605" lon="10.5105162"><ele>1429.0</ele><time>2026-04-26T10:16:16.25Z</time></trkpt><trkpt lat="44.1775784" lon="10.5103713"><ele>1429.0</ele><time>2026-04-26T10:16:18.236Z</time></trkpt><trkpt lat="44.1775561" lon="10.5102404"><ele>1429.0</ele><time>2026-04-26T10:16:20.234Z</time></trkpt><trkpt lat="44.177548" lon="10.5101464"><ele>1429.0</ele><time>2026-04-26T10:16:22.236Z</time></trkpt><trkpt lat="44.1775298" lon="10.5100583"><ele>1429.0</ele><time>2026-04-26T10:16:25.24Z</time></trkpt><trkpt lat="44.1774607" lon="10.5101036"><ele>1429.0</ele><time>2026-04-26T10:16:49.239Z</time></trkpt><trkpt lat="44.1774313" lon="10.5101864"><ele>1429.0</ele><time>2026-04-26T10:16:51.245Z</time></trkpt><trkpt lat="44.1773965" lon="10.510321"><ele>1429.0</ele><time>2026-04-26T10:17:15.24Z</time></trkpt><trkpt lat="44.1773489" lon="10.5104951"><ele>1429.0</ele><time>2026-04-26T10:17:17.25Z</time></trkpt><trkpt lat="44.1773032" lon="10.5106095"><ele>1426.8000000000002</ele><time>2026-04-26T10:17:18.256Z</time></trkpt><trkpt lat="44.1772412" lon="10.5107371"><ele>1424.6000000000001</ele><time>2026-04-26T10:17:19.242Z</time></trkpt><trkpt lat="44.1771629" lon="10.5108609"><ele>1422.4</ele><time>2026-04-26T10:17:20.243Z</time></trkpt><trkpt lat="44.1770926" lon="10.5109681"><ele>1420.2</ele><time>2026-04-26T10:17:21.241Z</time></trkpt><trkpt lat="44.1770385" lon="10.5110952"><ele>1418.0</ele><time>2026-04-26T10:17:22.237Z</time></trkpt><trkpt lat="44.1769907" lon="10.5112289"><ele>1421.2</ele><time>2026-04-26T10:17:23.255Z</time></trkpt><trkpt lat="44.1769455" lon="10.511372"><ele>1424.4</ele><time>2026-04-26T10:17:24.239Z</time></trkpt><trkpt lat="44.1769131" lon="10.511491"><ele>1427.6000000000001</ele><time>2026-04-26T10:17:25.245Z</time></trkpt><trkpt lat="44.1768762" lon="10.5116081"><ele>1430.8000000000002</ele><time>2026-04-26T10:17:26.238Z</time></trkpt><trkpt lat="44.1768453" lon="10.51173"><ele>1434.0</ele><time>2026-04-26T10:17:27.237Z</time></trkpt><trkpt lat="44.176818" lon="10.5118703"><ele>1434.0</ele><time>2026-04-26T10:17:28.234Z</time></trkpt><trkpt lat="44.1767954" lon="10.5119868"><ele>1434.0</ele><time>2026-04-26T10:17:29.24Z</time></trkpt><trkpt lat="44.1767842" lon="10.5120807"><ele>1434.0</ele><time>2026-04-26T10:17:30.239Z</time></trkpt><trkpt lat="44.1767708" lon="10.5121863"><ele>1434.0</ele><time>2026-04-26T10:17:31.247Z</time></trkpt><trkpt lat="44.1767812" lon="10.5122896"><ele>1434.0</ele><time>2026-04-26T10:17:32.237Z</time></trkpt><trkpt lat="44.1767918" lon="10.5124187"><ele>1434.0</ele><time>2026-04-26T10:17:33.237Z</time></trkpt><trkpt lat="44.1768194" lon="10.5125622"><ele>1436.6</ele><time>2026-04-26T10:17:34.237Z</time></trkpt><trkpt lat="44.1768388" lon="10.5126941"><ele>1439.2</ele><time>2026-04-26T10:17:35.237Z</time></trkpt><trkpt lat="44.1768394" lon="10.5128141"><ele>1441.8</ele><time>2026-04-26T10:17:36.239Z</time></trkpt><trkpt lat="44.1768077" lon="10.512978"><ele>1444.3999999999999</ele><time>2026-04-26T10:17:38.246Z</time></trkpt><trkpt lat="44.1767664" lon="10.5131121"><ele>1447.0</ele><time>2026-04-26T10:17:40.239Z</time></trkpt><trkpt lat="44.1767812" lon="10.5132132"><ele>1448.6666666666665</ele><time>2026-04-26T10:17:42.249Z</time></trkpt><trkpt lat="44.1767461" lon="10.5133178"><ele>1450.3333333333333</ele><time>2026-04-26T10:17:46.248Z</time></trkpt><trkpt lat="44.1766651" lon="10.5133127"><ele>1452.0</ele><time>2026-04-26T10:17:49.241Z</time></trkpt><trkpt lat="44.1765666" lon="10.5133458"><ele>1453.6666666666667</ele><time>2026-04-26T10:17:51.243Z</time></trkpt><trkpt lat="44.1765146" lon="10.5134244"><ele>1455.3333333333335</ele><time>2026-04-26T10:17:53.242Z</time></trkpt><trkpt lat="44.1765072" lon="10.5135689"><ele>1457.0</ele><time>2026-04-26T10:17:55.239Z</time></trkpt><trkpt lat="44.1764813" lon="10.5137131"><ele>1455.5</ele><time>2026-04-26T10:17:57.237Z</time></trkpt><trkpt lat="44.1764343" lon="10.5138597"><ele>1454.0</ele><time>2026-04-26T10:17:59.24Z</time></trkpt><trkpt lat="44.1763387" lon="10.5139734"><ele>1452.5</ele><time>2026-04-26T10:18:01.242Z</time></trkpt><trkpt lat="44.1762471" lon="10.5140553"><ele>1451.0</ele><time>2026-04-26T10:18:03.237Z</time></trkpt><trkpt lat="44.1761643" lon="10.5141475"><ele>1451.0</ele><time>2026-04-26T10:18:05.237Z</time></trkpt><trkpt lat="44.1760928" lon="10.5142341"><ele>1451.0</ele><time>2026-04-26T10:18:07.238Z</time></trkpt><trkpt lat="44.1759919" lon="10.5142448"><ele>1451.0</ele><time>2026-04-26T10:18:10.241Z</time></trkpt><trkpt lat="44.1758872" lon="10.5142433"><ele>1451.0</ele><time>2026-04-26T10:18:12.241Z</time></trkpt><trkpt lat="44.1757498" lon="10.5142509"><ele>1451.0</ele><time>2026-04-26T10:18:14.235Z</time></trkpt><trkpt lat="44.1756695" lon="10.5142611"><ele>1453.5</ele><time>2026-04-26T10:18:15.236Z</time></trkpt><trkpt lat="44.1755973" lon="10.5143002"><ele>1456.0</ele><time>2026-04-26T10:18:16.236Z</time></trkpt><trkpt lat="44.175528" lon="10.5143565"><ele>1458.5</ele><time>2026-04-26T10:18:17.24Z</time></trkpt><trkpt lat="44.1754658" lon="10.5144204"><ele>1461.0</ele><time>2026-04-26T10:18:18.24Z</time></trkpt><trkpt lat="44.1754154" lon="10.5144961"><ele>1463.5</ele><time>2026-04-26T10:18:19.241Z</time></trkpt><trkpt lat="44.1753709" lon="10.5145822"><ele>1466.0</ele><time>2026-04-26T10:18:20.232Z</time></trkpt><trkpt lat="44.175341" lon="10.5146695"><ele>1466.0</ele><time>2026-04-26T10:18:21.236Z</time></trkpt><trkpt lat="44.1753055" lon="10.5147564"><ele>1466.0</ele><time>2026-04-26T10:18:22.238Z</time></trkpt><trkpt lat="44.1752506" lon="10.5148924"><ele>1466.0</ele><time>2026-04-26T10:18:24.237Z</time></trkpt><trkpt lat="44.1752059" lon="10.514967"><ele>1466.0</ele><time>2026-04-26T10:18:25.239Z</time></trkpt><trkpt lat="44.1751043" lon="10.5150633"><ele>1466.0</ele><time>2026-04-26T10:18:27.236Z</time></trkpt><trkpt lat="44.1750335" lon="10.5151104"><ele>1466.0</ele><time>2026-04-26T10:18:28.246Z</time></trkpt><trkpt lat="44.1749655" lon="10.5151403"><ele>1466.0</ele><time>2026-04-26T10:18:29.238Z</time></trkpt><trkpt lat="44.1748463" lon="10.5151984"><ele>1466.0</ele><time>2026-04-26T10:18:31.236Z</time></trkpt><trkpt lat="44.1747604" lon="10.5152561"><ele>1466.0</ele><time>2026-04-26T10:18:33.248Z</time></trkpt><trkpt lat="44.1746955" lon="10.5154015"><ele>1466.0</ele><time>2026-04-26T10:18:35.251Z</time></trkpt><trkpt lat="44.1746635" lon="10.5154912"><ele>1467.6666666666667</ele><time>2026-04-26T10:18:36.243Z</time></trkpt><trkpt lat="44.1746125" lon="10.5155751"><ele>1469.3333333333335</ele><time>2026-04-26T10:18:37.235Z</time></trkpt><trkpt lat="44.1745509" lon="10.5156478"><ele>1471.0</ele><time>2026-04-26T10:18:38.24Z</time></trkpt><trkpt lat="44.1744989" lon="10.515714"><ele>1472.6666666666667</ele><time>2026-04-26T10:18:39.237Z</time></trkpt><trkpt lat="44.1744381" lon="10.5158061"><ele>1474.3333333333333</ele><time>2026-04-26T10:18:41.25Z</time></trkpt><trkpt lat="44.1745017" lon="10.5158808"><ele>1476.0</ele><time>2026-04-26T10:18:45.235Z</time></trkpt><trkpt lat="44.1745734" lon="10.5158147"><ele>1476.0</ele><time>2026-04-26T10:18:47.237Z</time></trkpt><trkpt lat="44.1746531" lon="10.5157981"><ele>1476.0</ele><time>2026-04-26T10:18:50.237Z</time></trkpt><trkpt lat="44.1747372" lon="10.5158529"><ele>1476.0</ele><time>2026-04-26T10:20:08.243Z</time></trkpt><trkpt lat="44.1747128" lon="10.5159645"><ele>1476.0</ele><time>2026-04-26T10:22:14.239Z</time></trkpt><trkpt lat="44.1746172" lon="10.5161181"><ele>1476.0</ele><time>2026-04-26T10:22:16.24Z</time></trkpt><trkpt lat="44.1745753" lon="10.5162015"><ele>1478.8333333333333</ele><time>2026-04-26T10:22:17.237Z</time></trkpt><trkpt lat="44.1745375" lon="10.5162878"><ele>1481.6666666666667</ele><time>2026-04-26T10:22:18.239Z</time></trkpt><trkpt lat="44.1744947" lon="10.5163827"><ele>1484.5</ele><time>2026-04-26T10:22:19.239Z</time></trkpt><trkpt lat="44.174438" lon="10.5165058"><ele>1487.3333333333335</ele><time>2026-04-26T10:22:20.237Z</time></trkpt><trkpt lat="44.1743847" lon="10.5166097"><ele>1490.1666666666667</ele><time>2026-04-26T10:22:21.239Z</time></trkpt><trkpt lat="44.1743368" lon="10.5166942"><ele>1493.0</ele><time>2026-04-26T10:22:22.239Z</time></trkpt><trkpt lat="44.1742694" lon="10.5168264"><ele>1493.0</ele><time>2026-04-26T10:22:24.234Z</time></trkpt><trkpt lat="44.1742196" lon="10.5168992"><ele>1493.0</ele><time>2026-04-26T10:22:25.241Z</time></trkpt><trkpt lat="44.1741213" lon="10.516982"><ele>1493.0</ele><time>2026-04-26T10:22:27.24Z</time></trkpt><trkpt lat="44.1740194" lon="10.5169965"><ele>1493.0</ele><time>2026-04-26T10:22:29.24Z</time></trkpt><trkpt lat="44.1739143" lon="10.5170557"><ele>1493.0</ele><time>2026-04-26T10:22:31.239Z</time></trkpt><trkpt lat="44.1738298" lon="10.5171459"><ele>1494.2</ele><time>2026-04-26T10:22:33.239Z</time></trkpt><trkpt lat="44.1737751" lon="10.5172346"><ele>1495.4</ele><time>2026-04-26T10:22:35.236Z</time></trkpt><trkpt lat="44.1737459" lon="10.5173385"><ele>1496.6000000000001</ele><time>2026-04-26T10:22:38.24Z</time></trkpt><trkpt lat="44.1736809" lon="10.5174854"><ele>1497.8000000000002</ele><time>2026-04-26T10:23:04.245Z</time></trkpt><trkpt lat="44.1736355" lon="10.5175759"><ele>1499.0</ele><time>2026-04-26T10:23:07.248Z</time></trkpt><trkpt lat="44.1735645" lon="10.5176901"><ele>1499.0</ele><time>2026-04-26T10:23:09.24Z</time></trkpt><trkpt lat="44.17352" lon="10.5177525"><ele>1499.0</ele><time>2026-04-26T10:23:10.241Z</time></trkpt><trkpt lat="44.1734612" lon="10.5178087"><ele>1499.0</ele><time>2026-04-26T10:23:11.236Z</time></trkpt><trkpt lat="44.1733529" lon="10.5179005"><ele>1499.0</ele><time>2026-04-26T10:23:13.245Z</time></trkpt><trkpt lat="44.1732611" lon="10.517999"><ele>1499.0</ele><time>2026-04-26T10:23:15.247Z</time></trkpt><trkpt lat="44.1731698" lon="10.5180832"><ele>1501.2</ele><time>2026-04-26T10:23:17.233Z</time></trkpt><trkpt lat="44.1730919" lon="10.5181624"><ele>1503.4</ele><time>2026-04-26T10:23:19.236Z</time></trkpt><trkpt lat="44.1730182" lon="10.518292"><ele>1505.6</ele><time>2026-04-26T10:23:24.241Z</time></trkpt><trkpt lat="44.17309" lon="10.5183205"><ele>1507.8</ele><time>2026-04-26T10:23:26.243Z</time></trkpt><trkpt lat="44.1732113" lon="10.5183654"><ele>1510.0</ele><time>2026-04-26T10:23:28.236Z</time></trkpt><trkpt lat="44.1733153" lon="10.5184011"><ele>1511.6</ele><time>2026-04-26T10:23:30.24Z</time></trkpt><trkpt lat="44.1734203" lon="10.518416"><ele>1513.2</ele><time>2026-04-26T10:23:32.247Z</time></trkpt><trkpt lat="44.1735296" lon="10.5184033"><ele>1514.8000000000002</ele><time>2026-04-26T10:23:34.241Z</time></trkpt><trkpt lat="44.1736272" lon="10.5183873"><ele>1516.4</ele><time>2026-04-26T10:23:36.242Z</time></trkpt><trkpt lat="44.1737245" lon="10.5183574"><ele>1518.0</ele><time>2026-04-26T10:23:38.24Z</time></trkpt><trkpt lat="44.1738202" lon="10.5183122"><ele>1518.0</ele><time>2026-04-26T10:23:40.237Z</time></trkpt><trkpt lat="44.1739248" lon="10.5182527"><ele>1518.0</ele><time>2026-04-26T10:23:42.239Z</time></trkpt><trkpt lat="44.1739852" lon="10.5182107"><ele>1518.0</ele><time>2026-04-26T10:23:43.238Z</time></trkpt><trkpt lat="44.1740515" lon="10.5181596"><ele>1518.0</ele><time>2026-04-26T10:23:44.24Z</time></trkpt><trkpt lat="44.1741139" lon="10.5181146"><ele>1518.0</ele><time>2026-04-26T10:23:45.237Z</time></trkpt><trkpt lat="44.1741834" lon="10.5180566"><ele>1518.0</ele><time>2026-04-26T10:23:46.234Z</time></trkpt><trkpt lat="44.1742476" lon="10.5180118"><ele>1517.4</ele><time>2026-04-26T10:23:47.241Z</time></trkpt><trkpt lat="44.1743581" lon="10.5179303"><ele>1516.8000000000002</ele><time>2026-04-26T10:23:49.24Z</time></trkpt><trkpt lat="44.174451" lon="10.517885"><ele>1516.2</ele><time>2026-04-26T10:23:51.245Z</time></trkpt><trkpt lat="44.174523" lon="10.5178549"><ele>1515.6</ele><time>2026-04-26T10:23:53.24Z</time></trkpt><trkpt lat="44.174609" lon="10.517833"><ele>1515.0</ele><time>2026-04-26T10:23:55.236Z</time></trkpt><trkpt lat="44.1747079" lon="10.5178321"><ele>1515.0</ele><time>2026-04-26T10:23:57.25Z</time></trkpt><trkpt lat="44.1748059" lon="10.5178318"><ele>1515.0</ele><time>2026-04-26T10:23:59.241Z</time></trkpt><trkpt lat="44.1748662" lon="10.5177727"><ele>1515.0</ele><time>2026-04-26T10:24:01.238Z</time></trkpt><trkpt lat="44.1749167" lon="10.517632"><ele>1515.0</ele><time>2026-04-26T10:24:03.24Z</time></trkpt><trkpt lat="44.1749801" lon="10.517516"><ele>1515.0</ele><time>2026-04-26T10:24:05.239Z</time></trkpt><trkpt lat="44.1750807" lon="10.517447"><ele>1520.0</ele><time>2026-04-26T10:24:07.239Z</time></trkpt><trkpt lat="44.175186" lon="10.5174114"><ele>1525.0</ele><time>2026-04-26T10:24:09.248Z</time></trkpt><trkpt lat="44.1752966" lon="10.5174091"><ele>1530.0</ele><time>2026-04-26T10:24:11.244Z</time></trkpt><trkpt lat="44.1753969" lon="10.5173839"><ele>1535.0</ele><time>2026-04-26T10:24:13.243Z</time></trkpt><trkpt lat="44.1755025" lon="10.5173536"><ele>1540.0</ele><time>2026-04-26T10:24:15.244Z</time></trkpt><trkpt lat="44.1756058" lon="10.5173897"><ele>1540.0</ele><time>2026-04-26T10:24:17.24Z</time></trkpt><trkpt lat="44.1756676" lon="10.5174199"><ele>1540.0</ele><time>2026-04-26T10:24:18.236Z</time></trkpt><trkpt lat="44.175735" lon="10.5174378"><ele>1540.0</ele><time>2026-04-26T10:24:19.239Z</time></trkpt><trkpt lat="44.1757989" lon="10.517457"><ele>1540.0</ele><time>2026-04-26T10:24:20.236Z</time></trkpt><trkpt lat="44.1758692" lon="10.5174613"><ele>1540.0</ele><time>2026-04-26T10:24:21.235Z</time></trkpt><trkpt lat="44.1759385" lon="10.5174693"><ele>1540.0</ele><time>2026-04-26T10:24:22.24Z</time></trkpt><trkpt lat="44.1760472" lon="10.5174775"><ele>1540.0</ele><time>2026-04-26T10:24:24.236Z</time></trkpt><trkpt lat="44.1761357" lon="10.517516"><ele>1543.75</ele><time>2026-04-26T10:24:26.241Z</time></trkpt><trkpt lat="44.1762287" lon="10.517621"><ele>1547.5</ele><time>2026-04-26T10:24:28.25Z</time></trkpt><trkpt lat="44.1763277" lon="10.5176989"><ele>1551.25</ele><time>2026-04-26T10:24:30.237Z</time></trkpt><trkpt lat="44.1764268" lon="10.5177205"><ele>1555.0</ele><time>2026-04-26T10:24:32.244Z</time></trkpt><trkpt lat="44.1765583" lon="10.517719"><ele>1555.6666666666667</ele><time>2026-04-26T10:24:34.237Z</time></trkpt><trkpt lat="44.1766649" lon="10.5177431"><ele>1556.3333333333335</ele><time>2026-04-26T10:24:36.243Z</time></trkpt><trkpt lat="44.1767398" lon="10.5177458"><ele>1557.0</ele><time>2026-04-26T10:24:39.243Z</time></trkpt><trkpt lat="44.176811" lon="10.5177345"><ele>1557.6666666666665</ele><time>2026-04-26T10:25:09.24Z</time></trkpt><trkpt lat="44.1768784" lon="10.5177176"><ele>1558.3333333333333</ele><time>2026-04-26T10:25:11.241Z</time></trkpt><trkpt lat="44.1769848" lon="10.5176858"><ele>1559.0</ele><time>2026-04-26T10:25:13.24Z</time></trkpt><trkpt lat="44.1770571" lon="10.5175149"><ele>1558.9999999999998</ele><time>2026-04-26T10:25:15.243Z</time></trkpt><trkpt lat="44.1770946" lon="10.5174343"><ele>1559.0</ele><time>2026-04-26T10:25:16.236Z</time></trkpt><trkpt lat="44.1771487" lon="10.5173794"><ele>1559.0</ele><time>2026-04-26T10:25:17.235Z</time></trkpt><trkpt lat="44.1772405" lon="10.5173379"><ele>1559.0</ele><time>2026-04-26T10:25:18.236Z</time></trkpt><trkpt lat="44.1773227" lon="10.5172733"><ele>1558.9999999999998</ele><time>2026-04-26T10:25:19.238Z</time></trkpt><trkpt lat="44.1774098" lon="10.5171723"><ele>1559.0</ele><time>2026-04-26T10:25:20.238Z</time></trkpt><trkpt lat="44.1774885" lon="10.5170596"><ele>1557.8000000000002</ele><time>2026-04-26T10:25:21.237Z</time></trkpt><trkpt lat="44.1775665" lon="10.5169524"><ele>1556.6000000000001</ele><time>2026-04-26T10:25:22.234Z</time></trkpt><trkpt lat="44.177633" lon="10.5168548"><ele>1555.4</ele><time>2026-04-26T10:25:23.236Z</time></trkpt><trkpt lat="44.1777099" lon="10.5167634"><ele>1554.2</ele><time>2026-04-26T10:25:24.238Z</time></trkpt><trkpt lat="44.177786" lon="10.5167244"><ele>1553.0</ele><time>2026-04-26T10:25:25.239Z</time></trkpt><trkpt lat="44.1778871" lon="10.5167214"><ele>1553.0</ele><time>2026-04-26T10:25:26.236Z</time></trkpt><trkpt lat="44.1780011" lon="10.5166902"><ele>1553.0</ele><time>2026-04-26T10:25:27.235Z</time></trkpt><trkpt lat="44.1780937" lon="10.5166417"><ele>1553.0</ele><time>2026-04-26T10:25:28.24Z</time></trkpt><trkpt lat="44.1781835" lon="10.516569"><ele>1553.0</ele><time>2026-04-26T10:25:29.235Z</time></trkpt><trkpt lat="44.1782757" lon="10.5164788"><ele>1553.0</ele><time>2026-04-26T10:25:30.238Z</time></trkpt><trkpt lat="44.1783574" lon="10.5163913"><ele>1552.6000000000001</ele><time>2026-04-26T10:25:31.239Z</time></trkpt><trkpt lat="44.1784252" lon="10.5163133"><ele>1552.2</ele><time>2026-04-26T10:25:32.248Z</time></trkpt><trkpt lat="44.1784884" lon="10.5162182"><ele>1551.8</ele><time>2026-04-26T10:25:33.239Z</time></trkpt><trkpt lat="44.1785524" lon="10.5161051"><ele>1551.4</ele><time>2026-04-26T10:25:34.233Z</time></trkpt><trkpt lat="44.1785866" lon="10.5159832"><ele>1551.0</ele><time>2026-04-26T10:25:35.236Z</time></trkpt><trkpt lat="44.1786303" lon="10.5158865"><ele>1551.0</ele><time>2026-04-26T10:25:36.244Z</time></trkpt><trkpt lat="44.1786778" lon="10.5157996"><ele>1551.0</ele><time>2026-04-26T10:25:37.237Z</time></trkpt><trkpt lat="44.1787287" lon="10.5157207"><ele>1551.0</ele><time>2026-04-26T10:25:38.254Z</time></trkpt><trkpt lat="44.178843" lon="10.5156191"><ele>1551.0</ele><time>2026-04-26T10:25:40.243Z</time></trkpt><trkpt lat="44.1789081" lon="10.5155834"><ele>1551.0</ele><time>2026-04-26T10:25:41.239Z</time></trkpt><trkpt lat="44.1789703" lon="10.5155253"><ele>1551.0</ele><time>2026-04-26T10:25:42.246Z</time></trkpt><trkpt lat="44.1790151" lon="10.5154255"><ele>1552.3333333333333</ele><time>2026-04-26T10:25:43.239Z</time></trkpt><trkpt lat="44.1790605" lon="10.5153138"><ele>1553.6666666666665</ele><time>2026-04-26T10:25:44.239Z</time></trkpt><trkpt lat="44.1791077" lon="10.515236"><ele>1555.0</ele><time>2026-04-26T10:25:45.244Z</time></trkpt><trkpt lat="44.1791787" lon="10.5151612"><ele>1556.3333333333333</ele><time>2026-04-26T10:25:46.24Z</time></trkpt><trkpt lat="44.1792601" lon="10.5151316"><ele>1557.6666666666665</ele><time>2026-04-26T10:25:47.238Z</time></trkpt><trkpt lat="44.1793482" lon="10.5151137"><ele>1559.0</ele><time>2026-04-26T10:25:48.244Z</time></trkpt><trkpt lat="44.1794337" lon="10.5150972"><ele>1559.0</ele><time>2026-04-26T10:25:49.235Z</time></trkpt><trkpt lat="44.1795203" lon="10.5151103"><ele>1559.0</ele><time>2026-04-26T10:25:50.235Z</time></trkpt><trkpt lat="44.1796221" lon="10.5151557"><ele>1559.0</ele><time>2026-04-26T10:25:51.241Z</time></trkpt><trkpt lat="44.1797187" lon="10.5152002"><ele>1559.0</ele><time>2026-04-26T10:25:52.235Z</time></trkpt><trkpt lat="44.1798098" lon="10.5152288"><ele>1559.0</ele><time>2026-04-26T10:25:53.232Z</time></trkpt><trkpt lat="44.1798931" lon="10.5152426"><ele>1560.4</ele><time>2026-04-26T10:25:54.24Z</time></trkpt><trkpt lat="44.1799616" lon="10.5152438"><ele>1561.8000000000002</ele><time>2026-04-26T10:25:55.241Z</time></trkpt><trkpt lat="44.1800425" lon="10.5152104"><ele>1563.1999999999998</ele><time>2026-04-26T10:25:56.236Z</time></trkpt><trkpt lat="44.1801221" lon="10.5151445"><ele>1564.6</ele><time>2026-04-26T10:25:57.243Z</time></trkpt><trkpt lat="44.1802012" lon="10.5150492"><ele>1566.0</ele><time>2026-04-26T10:25:58.24Z</time></trkpt><trkpt lat="44.1803043" lon="10.5149734"><ele>1566.0</ele><time>2026-04-26T10:25:59.239Z</time></trkpt><trkpt lat="44.1804369" lon="10.5148758"><ele>1566.0</ele><time>2026-04-26T10:26:00.236Z</time></trkpt><trkpt lat="44.180568" lon="10.5147706"><ele>1566.0</ele><time>2026-04-26T10:26:01.242Z</time></trkpt><trkpt lat="44.1806895" lon="10.5146751"><ele>1566.0</ele><time>2026-04-26T10:26:02.237Z</time></trkpt><trkpt lat="44.1807885" lon="10.5145927"><ele>1566.25</ele><time>2026-04-26T10:26:03.238Z</time></trkpt><trkpt lat="44.1808795" lon="10.5145007"><ele>1566.5</ele><time>2026-04-26T10:26:04.233Z</time></trkpt><trkpt lat="44.180957" lon="10.514357"><ele>1566.75</ele><time>2026-04-26T10:26:05.237Z</time></trkpt><trkpt lat="44.1810349" lon="10.5142227"><ele>1567.0</ele><time>2026-04-26T10:26:06.236Z</time></trkpt><trkpt lat="44.1811109" lon="10.514096"><ele>1567.0</ele><time>2026-04-26T10:26:07.243Z</time></trkpt><trkpt lat="44.1811626" lon="10.5139928"><ele>1567.0</ele><time>2026-04-26T10:26:08.241Z</time></trkpt><trkpt lat="44.1812011" lon="10.5138765"><ele>1567.0</ele><time>2026-04-26T10:26:09.239Z</time></trkpt><trkpt lat="44.1812044" lon="10.5137233"><ele>1567.0</ele><time>2026-04-26T10:26:10.241Z</time></trkpt><trkpt lat="44.181213" lon="10.5135395"><ele>1567.0</ele><time>2026-04-26T10:26:11.242Z</time></trkpt><trkpt lat="44.1812298" lon="10.5133532"><ele>1565.3999999999999</ele><time>2026-04-26T10:26:12.251Z</time></trkpt><trkpt lat="44.1812558" lon="10.5131815"><ele>1563.8</ele><time>2026-04-26T10:26:13.237Z</time></trkpt><trkpt lat="44.1812879" lon="10.5130212"><ele>1562.2</ele><time>2026-04-26T10:26:14.239Z</time></trkpt><trkpt lat="44.1813143" lon="10.5128739"><ele>1560.6</ele><time>2026-04-26T10:26:15.243Z</time></trkpt><trkpt lat="44.1813517" lon="10.5127559"><ele>1559.0</ele><time>2026-04-26T10:26:16.235Z</time></trkpt><trkpt lat="44.1814103" lon="10.5126528"><ele>1556.75</ele><time>2026-04-26T10:26:17.237Z</time></trkpt><trkpt lat="44.1814874" lon="10.5125563"><ele>1554.5</ele><time>2026-04-26T10:26:18.237Z</time></trkpt><trkpt lat="44.1815713" lon="10.5124504"><ele>1552.25</ele><time>2026-04-26T10:26:19.236Z</time></trkpt><trkpt lat="44.1816622" lon="10.5123432"><ele>1550.0</ele><time>2026-04-26T10:26:20.241Z</time></trkpt><trkpt lat="44.18176" lon="10.5122441"><ele>1552.4</ele><time>2026-04-26T10:26:21.243Z</time></trkpt><trkpt lat="44.1818692" lon="10.5121362"><ele>1554.8</ele><time>2026-04-26T10:26:22.244Z</time></trkpt><trkpt lat="44.1819705" lon="10.5120703"><ele>1557.1999999999998</ele><time>2026-04-26T10:26:23.239Z</time></trkpt><trkpt lat="44.1820554" lon="10.5120111"><ele>1559.6</ele><time>2026-04-26T10:26:24.241Z</time></trkpt><trkpt lat="44.1821496" lon="10.5119642"><ele>1562.0</ele><time>2026-04-26T10:26:25.241Z</time></trkpt><trkpt lat="44.1822603" lon="10.5119372"><ele>1563.5</ele><time>2026-04-26T10:26:26.237Z</time></trkpt><trkpt lat="44.1823903" lon="10.511929"><ele>1565.0</ele><time>2026-04-26T10:26:27.24Z</time></trkpt><trkpt lat="44.1825228" lon="10.5119324"><ele>1566.5</ele><time>2026-04-26T10:26:28.238Z</time></trkpt><trkpt lat="44.1826612" lon="10.5119431"><ele>1568.0</ele><time>2026-04-26T10:26:29.236Z</time></trkpt><trkpt lat="44.182797" lon="10.5119619"><ele>1568.0</ele><time>2026-04-26T10:26:30.244Z</time></trkpt><trkpt lat="44.1829209" lon="10.5119822"><ele>1568.0</ele><time>2026-04-26T10:26:31.236Z</time></trkpt><trkpt lat="44.1830341" lon="10.5120135"><ele>1568.0</ele><time>2026-04-26T10:26:32.236Z</time></trkpt><trkpt lat="44.1831385" lon="10.5120277"><ele>1568.0</ele><time>2026-04-26T10:26:33.232Z</time></trkpt><trkpt lat="44.1832452" lon="10.5120405"><ele>1568.5</ele><time>2026-04-26T10:26:34.236Z</time></trkpt><trkpt lat="44.1833564" lon="10.5120334"><ele>1569.0</ele><time>2026-04-26T10:26:35.235Z</time></trkpt><trkpt lat="44.1834771" lon="10.5119951"><ele>1569.5</ele><time>2026-04-26T10:26:36.237Z</time></trkpt><trkpt lat="44.183594" lon="10.5119429"><ele>1570.0</ele><time>2026-04-26T10:26:37.237Z</time></trkpt><trkpt lat="44.1836995" lon="10.5118802"><ele>1570.0</ele><time>2026-04-26T10:26:38.249Z</time></trkpt><trkpt lat="44.1837929" lon="10.5118075"><ele>1570.0</ele><time>2026-04-26T10:26:39.238Z</time></trkpt><trkpt lat="44.1838745" lon="10.5116992"><ele>1570.0</ele><time>2026-04-26T10:26:40.239Z</time></trkpt><trkpt lat="44.1839517" lon="10.5115559"><ele>1570.0</ele><time>2026-04-26T10:26:41.235Z</time></trkpt><trkpt lat="44.1840327" lon="10.5113853"><ele>1570.25</ele><time>2026-04-26T10:26:42.239Z</time></trkpt><trkpt lat="44.1841249" lon="10.5112117"><ele>1570.5</ele><time>2026-04-26T10:26:43.235Z</time></trkpt><trkpt lat="44.1842163" lon="10.5110538"><ele>1570.75</ele><time>2026-04-26T10:26:44.242Z</time></trkpt><trkpt lat="44.1842985" lon="10.5109111"><ele>1571.0</ele><time>2026-04-26T10:26:45.237Z</time></trkpt><trkpt lat="44.1843915" lon="10.5107909"><ele>1571.0</ele><time>2026-04-26T10:26:46.237Z</time></trkpt><trkpt lat="44.1844933" lon="10.5106876"><ele>1571.0</ele><time>2026-04-26T10:26:47.241Z</time></trkpt><trkpt lat="44.1845899" lon="10.5106055"><ele>1571.0</ele><time>2026-04-26T10:26:48.242Z</time></trkpt><trkpt lat="44.1846757" lon="10.5105381"><ele>1571.0</ele><time>2026-04-26T10:26:49.239Z</time></trkpt><trkpt lat="44.1847703" lon="10.5105032"><ele>1571.0</ele><time>2026-04-26T10:26:50.237Z</time></trkpt><trkpt lat="44.1848826" lon="10.5105028"><ele>1575.25</ele><time>2026-04-26T10:26:51.237Z</time></trkpt><trkpt lat="44.185012" lon="10.5105061"><ele>1579.5</ele><time>2026-04-26T10:26:52.238Z</time></trkpt><trkpt lat="44.1851507" lon="10.5105113"><ele>1583.75</ele><time>2026-04-26T10:26:53.238Z</time></trkpt><trkpt lat="44.1852774" lon="10.5104994"><ele>1588.0</ele><time>2026-04-26T10:26:54.242Z</time></trkpt><trkpt lat="44.1854025" lon="10.5104905"><ele>1588.0</ele><time>2026-04-26T10:26:55.248Z</time></trkpt><trkpt lat="44.1855175" lon="10.5104598"><ele>1588.0</ele><time>2026-04-26T10:26:56.24Z</time></trkpt><trkpt lat="44.1856201" lon="10.5104324"><ele>1588.0</ele><time>2026-04-26T10:26:57.236Z</time></trkpt><trkpt lat="44.1857214" lon="10.5104006"><ele>1588.0</ele><time>2026-04-26T10:26:58.236Z</time></trkpt><trkpt lat="44.1858087" lon="10.5103544"><ele>1588.0</ele><time>2026-04-26T10:26:59.235Z</time></trkpt><trkpt lat="44.1858964" lon="10.5102672"><ele>1586.0</ele><time>2026-04-26T10:27:00.24Z</time></trkpt><trkpt lat="44.1859584" lon="10.5101442"><ele>1584.0</ele><time>2026-04-26T10:27:01.234Z</time></trkpt><trkpt lat="44.1860359" lon="10.5099845"><ele>1582.0</ele><time>2026-04-26T10:27:02.234Z</time></trkpt><trkpt lat="44.1861131" lon="10.5097942"><ele>1580.0</ele><time>2026-04-26T10:27:03.236Z</time></trkpt><trkpt lat="44.1861931" lon="10.5096035"><ele>1575.75</ele><time>2026-04-26T10:27:04.241Z</time></trkpt><trkpt lat="44.1862716" lon="10.5094328"><ele>1571.5</ele><time>2026-04-26T10:27:05.238Z</time></trkpt><trkpt lat="44.1863408" lon="10.5092877"><ele>1567.25</ele><time>2026-04-26T10:27:06.238Z</time></trkpt><trkpt lat="44.1864039" lon="10.509151"><ele>1563.0</ele><time>2026-04-26T10:27:07.24Z</time></trkpt><trkpt lat="44.1864691" lon="10.5090184"><ele>1566.6000000000001</ele><time>2026-04-26T10:27:08.24Z</time></trkpt><trkpt lat="44.1865458" lon="10.5089052"><ele>1570.2</ele><time>2026-04-26T10:27:09.237Z</time></trkpt><trkpt lat="44.1866274" lon="10.5088024"><ele>1573.8</ele><time>2026-04-26T10:27:10.235Z</time></trkpt><trkpt lat="44.1867063" lon="10.5086963"><ele>1577.4</ele><time>2026-04-26T10:27:11.239Z</time></trkpt><trkpt lat="44.1867593" lon="10.5085543"><ele>1581.0</ele><time>2026-04-26T10:27:12.241Z</time></trkpt><trkpt lat="44.1868038" lon="10.5084114"><ele>1581.0</ele><time>2026-04-26T10:27:13.237Z</time></trkpt><trkpt lat="44.1868123" lon="10.5082472"><ele>1581.0</ele><time>2026-04-26T10:27:14.249Z</time></trkpt><trkpt lat="44.1868127" lon="10.5080776"><ele>1581.0</ele><time>2026-04-26T10:27:15.24Z</time></trkpt><trkpt lat="44.1868207" lon="10.5078987"><ele>1581.0</ele><time>2026-04-26T10:27:16.239Z</time></trkpt><trkpt lat="44.1868293" lon="10.5077262"><ele>1579.8</ele><time>2026-04-26T10:27:17.236Z</time></trkpt><trkpt lat="44.1868565" lon="10.5075797"><ele>1578.6</ele><time>2026-04-26T10:27:18.24Z</time></trkpt><trkpt lat="44.1868841" lon="10.5074348"><ele>1577.4</ele><time>2026-04-26T10:27:19.241Z</time></trkpt><trkpt lat="44.1869221" lon="10.5073183"><ele>1576.2</ele><time>2026-04-26T10:27:20.239Z</time></trkpt><trkpt lat="44.1869597" lon="10.5072099"><ele>1575.0</ele><time>2026-04-26T10:27:21.239Z</time></trkpt><trkpt lat="44.1870014" lon="10.5071135"><ele>1573.0</ele><time>2026-04-26T10:27:22.24Z</time></trkpt><trkpt lat="44.1870388" lon="10.5070266"><ele>1571.0</ele><time>2026-04-26T10:27:23.241Z</time></trkpt><trkpt lat="44.1870738" lon="10.5069345"><ele>1569.0</ele><time>2026-04-26T10:27:25.245Z</time></trkpt><trkpt lat="44.1871099" lon="10.5068495"><ele>1567.0</ele><time>2026-04-26T10:27:36.243Z</time></trkpt><trkpt lat="44.1871554" lon="10.5067613"><ele>1565.0</ele><time>2026-04-26T10:28:05.241Z</time></trkpt><trkpt lat="44.1872244" lon="10.5066046"><ele>1563.0</ele><time>2026-04-26T10:28:07.255Z</time></trkpt><trkpt lat="44.1872681" lon="10.5065016"><ele>1563.0</ele><time>2026-04-26T10:28:08.252Z</time></trkpt><trkpt lat="44.1873264" lon="10.5063877"><ele>1563.0</ele><time>2026-04-26T10:28:09.24Z</time></trkpt><trkpt lat="44.1873952" lon="10.5062719"><ele>1563.0</ele><time>2026-04-26T10:28:10.247Z</time></trkpt><trkpt lat="44.1874653" lon="10.5061555"><ele>1563.0</ele><time>2026-04-26T10:28:11.238Z</time></trkpt><trkpt lat="44.1875514" lon="10.5060455"><ele>1563.0</ele><time>2026-04-26T10:28:12.248Z</time></trkpt><trkpt lat="44.187643" lon="10.5059349"><ele>1568.25</ele><time>2026-04-26T10:28:13.243Z</time></trkpt><trkpt lat="44.1877354" lon="10.5058294"><ele>1573.5</ele><time>2026-04-26T10:28:14.242Z</time></trkpt><trkpt lat="44.1878257" lon="10.5057275"><ele>1578.75</ele><time>2026-04-26T10:28:15.24Z</time></trkpt><trkpt lat="44.1879178" lon="10.505633"><ele>1584.0</ele><time>2026-04-26T10:28:16.24Z</time></trkpt><trkpt lat="44.188012" lon="10.5055352"><ele>1584.0</ele><time>2026-04-26T10:28:17.256Z</time></trkpt><trkpt lat="44.1880992" lon="10.5054341"><ele>1584.0</ele><time>2026-04-26T10:28:18.246Z</time></trkpt><trkpt lat="44.1881685" lon="10.5053206"><ele>1584.0</ele><time>2026-04-26T10:28:19.24Z</time></trkpt><trkpt lat="44.1882354" lon="10.5051782"><ele>1584.0</ele><time>2026-04-26T10:28:20.244Z</time></trkpt><trkpt lat="44.1883191" lon="10.5050525"><ele>1586.5</ele><time>2026-04-26T10:28:21.24Z</time></trkpt><trkpt lat="44.1884004" lon="10.5049277"><ele>1589.0</ele><time>2026-04-26T10:28:22.259Z</time></trkpt><trkpt lat="44.1884688" lon="10.50479"><ele>1591.5</ele><time>2026-04-26T10:28:23.24Z</time></trkpt><trkpt lat="44.1885259" lon="10.504641"><ele>1594.0</ele><time>2026-04-26T10:28:24.242Z</time></trkpt><trkpt lat="44.1885916" lon="10.5044885"><ele>1594.0</ele><time>2026-04-26T10:28:25.238Z</time></trkpt><trkpt lat="44.1886507" lon="10.5043331"><ele>1594.0</ele><time>2026-04-26T10:28:26.238Z</time></trkpt><trkpt lat="44.188707" lon="10.5041892"><ele>1594.0</ele><time>2026-04-26T10:28:27.238Z</time></trkpt><trkpt lat="44.188754" lon="10.5040339"><ele>1594.0</ele><time>2026-04-26T10:28:28.24Z</time></trkpt><trkpt lat="44.1887937" lon="10.5038895"><ele>1594.0</ele><time>2026-04-26T10:28:29.238Z</time></trkpt><trkpt lat="44.1888481" lon="10.5037776"><ele>1594.0</ele><time>2026-04-26T10:28:30.242Z</time></trkpt><trkpt lat="44.188912" lon="10.5036734"><ele>1594.0</ele><time>2026-04-26T10:28:31.243Z</time></trkpt><trkpt lat="44.1889829" lon="10.5035563"><ele>1594.0</ele><time>2026-04-26T10:28:32.245Z</time></trkpt><trkpt lat="44.1890518" lon="10.5034347"><ele>1594.0</ele><time>2026-04-26T10:28:33.237Z</time></trkpt><trkpt lat="44.1891244" lon="10.5033116"><ele>1598.0</ele><time>2026-04-26T10:28:34.238Z</time></trkpt><trkpt lat="44.1891895" lon="10.5031974"><ele>1602.0</ele><time>2026-04-26T10:28:35.235Z</time></trkpt><trkpt lat="44.1892463" lon="10.5030868"><ele>1606.0</ele><time>2026-04-26T10:28:36.254Z</time></trkpt><trkpt lat="44.1892857" lon="10.5029732"><ele>1610.0</ele><time>2026-04-26T10:28:37.235Z</time></trkpt><trkpt lat="44.1892928" lon="10.5028424"><ele>1614.0</ele><time>2026-04-26T10:28:38.238Z</time></trkpt><trkpt lat="44.1892994" lon="10.5027012"><ele>1614.0</ele><time>2026-04-26T10:28:39.238Z</time></trkpt><trkpt lat="44.1893286" lon="10.5025568"><ele>1614.0</ele><time>2026-04-26T10:28:40.239Z</time></trkpt><trkpt lat="44.1893745" lon="10.5024175"><ele>1614.0</ele><time>2026-04-26T10:28:41.251Z</time></trkpt><trkpt lat="44.1894366" lon="10.5022858"><ele>1614.0</ele><time>2026-04-26T10:28:42.243Z</time></trkpt><trkpt lat="44.1894908" lon="10.5021381"><ele>1614.0</ele><time>2026-04-26T10:28:43.235Z</time></trkpt><trkpt lat="44.1895096" lon="10.5019644"><ele>1613.25</ele><time>2026-04-26T10:28:44.236Z</time></trkpt><trkpt lat="44.1895063" lon="10.5017758"><ele>1612.5</ele><time>2026-04-26T10:28:45.242Z</time></trkpt><trkpt lat="44.1895009" lon="10.5016093"><ele>1611.75</ele><time>2026-04-26T10:28:46.238Z</time></trkpt><trkpt lat="44.1894724" lon="10.5014638"><ele>1611.0</ele><time>2026-04-26T10:28:47.232Z</time></trkpt><trkpt lat="44.1894526" lon="10.5013407"><ele>1610.6</ele><time>2026-04-26T10:28:48.243Z</time></trkpt><trkpt lat="44.1894431" lon="10.5012131"><ele>1610.1999999999998</ele><time>2026-04-26T10:28:49.244Z</time></trkpt><trkpt lat="44.1894578" lon="10.5010916"><ele>1609.8000000000002</ele><time>2026-04-26T10:28:50.238Z</time></trkpt><trkpt lat="44.1894922" lon="10.5009684"><ele>1609.4</ele><time>2026-04-26T10:28:51.25Z</time></trkpt><trkpt lat="44.1895549" lon="10.5008548"><ele>1609.0</ele><time>2026-04-26T10:28:52.24Z</time></trkpt><trkpt lat="44.1896239" lon="10.5007453"><ele>1609.0</ele><time>2026-04-26T10:28:53.251Z</time></trkpt><trkpt lat="44.189695" lon="10.5006424"><ele>1609.0</ele><time>2026-04-26T10:28:54.243Z</time></trkpt><trkpt lat="44.1897783" lon="10.5005666"><ele>1609.0</ele><time>2026-04-26T10:28:55.241Z</time></trkpt><trkpt lat="44.1898683" lon="10.500511"><ele>1609.0</ele><time>2026-04-26T10:28:56.243Z</time></trkpt><trkpt lat="44.1899625" lon="10.5004568"><ele>1609.0</ele><time>2026-04-26T10:28:57.239Z</time></trkpt><trkpt lat="44.1900555" lon="10.5004127"><ele>1610.2</ele><time>2026-04-26T10:28:58.237Z</time></trkpt><trkpt lat="44.1901585" lon="10.5003808"><ele>1611.4</ele><time>2026-04-26T10:28:59.239Z</time></trkpt><trkpt lat="44.190268" lon="10.5003455"><ele>1612.6</ele><time>2026-04-26T10:29:00.249Z</time></trkpt><trkpt lat="44.1903802" lon="10.5003019"><ele>1613.8</ele><time>2026-04-26T10:29:01.24Z</time></trkpt><trkpt lat="44.1904861" lon="10.5002642"><ele>1615.0</ele><time>2026-04-26T10:29:02.237Z</time></trkpt><trkpt lat="44.1905763" lon="10.5001848"><ele>1615.0</ele><time>2026-04-26T10:29:03.238Z</time></trkpt><trkpt lat="44.1906525" lon="10.5000974"><ele>1615.0</ele><time>2026-04-26T10:29:04.237Z</time></trkpt><trkpt lat="44.1907245" lon="10.5000264"><ele>1615.0</ele><time>2026-04-26T10:29:05.243Z</time></trkpt><trkpt lat="44.1908054" lon="10.4999712"><ele>1615.0</ele><time>2026-04-26T10:29:06.237Z</time></trkpt><trkpt lat="44.1908943" lon="10.4999125"><ele>1615.0</ele><time>2026-04-26T10:29:07.252Z</time></trkpt><trkpt lat="44.1910067" lon="10.4998617"><ele>1616.0</ele><time>2026-04-26T10:29:08.244Z</time></trkpt><trkpt lat="44.1911169" lon="10.4998094"><ele>1617.0</ele><time>2026-04-26T10:29:09.238Z</time></trkpt><trkpt lat="44.1912239" lon="10.4997451"><ele>1618.0</ele><time>2026-04-26T10:29:10.24Z</time></trkpt><trkpt lat="44.1913197" lon="10.4996717"><ele>1619.0</ele><time>2026-04-26T10:29:11.24Z</time></trkpt><trkpt lat="44.1914043" lon="10.4995839"><ele>1620.0</ele><time>2026-04-26T10:29:12.249Z</time></trkpt><trkpt lat="44.1914848" lon="10.4994869"><ele>1620.0</ele><time>2026-04-26T10:29:13.242Z</time></trkpt><trkpt lat="44.1915683" lon="10.4993814"><ele>1620.0</ele><time>2026-04-26T10:29:14.239Z</time></trkpt><trkpt lat="44.1916529" lon="10.4992656"><ele>1620.0</ele><time>2026-04-26T10:29:15.239Z</time></trkpt><trkpt lat="44.1917364" lon="10.4991304"><ele>1620.0</ele><time>2026-04-26T10:29:16.236Z</time></trkpt><trkpt lat="44.1918201" lon="10.4989932"><ele>1620.0</ele><time>2026-04-26T10:29:17.241Z</time></trkpt><trkpt lat="44.1918848" lon="10.4988358"><ele>1620.0</ele><time>2026-04-26T10:29:18.236Z</time></trkpt><trkpt lat="44.1919442" lon="10.4986666"><ele>1620.0</ele><time>2026-04-26T10:29:19.254Z</time></trkpt><trkpt lat="44.1920126" lon="10.4984844"><ele>1620.0</ele><time>2026-04-26T10:29:20.241Z</time></trkpt><trkpt lat="44.1920754" lon="10.4983133"><ele>1618.25</ele><time>2026-04-26T10:29:21.241Z</time></trkpt><trkpt lat="44.1921349" lon="10.4981527"><ele>1616.5</ele><time>2026-04-26T10:29:22.237Z</time></trkpt><trkpt lat="44.1921938" lon="10.497997"><ele>1614.75</ele><time>2026-04-26T10:29:23.238Z</time></trkpt><trkpt lat="44.1922477" lon="10.4978507"><ele>1613.0</ele><time>2026-04-26T10:29:24.241Z</time></trkpt><trkpt lat="44.1923069" lon="10.497718"><ele>1614.25</ele><time>2026-04-26T10:29:25.246Z</time></trkpt><trkpt lat="44.1923832" lon="10.4975985"><ele>1615.5</ele><time>2026-04-26T10:29:26.246Z</time></trkpt><trkpt lat="44.1924835" lon="10.4974943"><ele>1616.75</ele><time>2026-04-26T10:29:27.255Z</time></trkpt><trkpt lat="44.1925995" lon="10.4973791"><ele>1618.0</ele><time>2026-04-26T10:29:28.246Z</time></trkpt><trkpt lat="44.1927161" lon="10.4972692"><ele>1618.0</ele><time>2026-04-26T10:29:29.24Z</time></trkpt><trkpt lat="44.1928304" lon="10.4971548"><ele>1618.0</ele><time>2026-04-26T10:29:30.241Z</time></trkpt><trkpt lat="44.1929251" lon="10.4970325"><ele>1618.0</ele><time>2026-04-26T10:29:31.241Z</time></trkpt><trkpt lat="44.1930189" lon="10.4969028"><ele>1618.0</ele><time>2026-04-26T10:29:32.254Z</time></trkpt><trkpt lat="44.1931033" lon="10.4967667"><ele>1618.5</ele><time>2026-04-26T10:29:33.242Z</time></trkpt><trkpt lat="44.193182" lon="10.4966179"><ele>1619.0</ele><time>2026-04-26T10:29:34.235Z</time></trkpt><trkpt lat="44.1932544" lon="10.4964755"><ele>1619.5</ele><time>2026-04-26T10:29:35.239Z</time></trkpt><trkpt lat="44.1933239" lon="10.4963409"><ele>1620.0</ele><time>2026-04-26T10:29:36.244Z</time></trkpt><trkpt lat="44.1933859" lon="10.4962192"><ele>1618.2</ele><time>2026-04-26T10:29:37.24Z</time></trkpt><trkpt lat="44.193436" lon="10.496104"><ele>1616.4</ele><time>2026-04-26T10:29:38.254Z</time></trkpt><trkpt lat="44.1934716" lon="10.4959862"><ele>1614.6</ele><time>2026-04-26T10:29:39.239Z</time></trkpt><trkpt lat="44.1934907" lon="10.4958498"><ele>1612.8</ele><time>2026-04-26T10:29:40.244Z</time></trkpt><trkpt lat="44.1935088" lon="10.495717"><ele>1611.0</ele><time>2026-04-26T10:29:41.245Z</time></trkpt><trkpt lat="44.1935246" lon="10.4955986"><ele>1611.0</ele><time>2026-04-26T10:29:42.238Z</time></trkpt><trkpt lat="44.193551" lon="10.4955057"><ele>1611.0</ele><time>2026-04-26T10:29:43.249Z</time></trkpt><trkpt lat="44.1936115" lon="10.4953592"><ele>1611.0</ele><time>2026-04-26T10:29:45.239Z</time></trkpt><trkpt lat="44.1936687" lon="10.4953214"><ele>1611.0</ele><time>2026-04-26T10:29:46.241Z</time></trkpt><trkpt lat="44.1937289" lon="10.4952856"><ele>1611.0</ele><time>2026-04-26T10:29:47.24Z</time></trkpt><trkpt lat="44.1937903" lon="10.4952553"><ele>1611.0</ele><time>2026-04-26T10:29:48.239Z</time></trkpt><trkpt lat="44.1938948" lon="10.4952182"><ele>1610.0</ele><time>2026-04-26T10:29:50.258Z</time></trkpt><trkpt lat="44.1939735" lon="10.4951782"><ele>1609.0</ele><time>2026-04-26T10:29:52.242Z</time></trkpt><trkpt lat="44.1940301" lon="10.4950968"><ele>1608.0</ele><time>2026-04-26T10:29:54.246Z</time></trkpt><trkpt lat="44.1940479" lon="10.494972"><ele>1607.0</ele><time>2026-04-26T10:29:56.243Z</time></trkpt><trkpt lat="44.194063" lon="10.4948313"><ele>1606.0</ele><time>2026-04-26T10:29:58.239Z</time></trkpt><trkpt lat="44.1940681" lon="10.4946642"><ele>1605.6666666666667</ele><time>2026-04-26T10:30:00.239Z</time></trkpt><trkpt lat="44.1940523" lon="10.4945788"><ele>1605.3333333333335</ele><time>2026-04-26T10:30:01.244Z</time></trkpt><trkpt lat="44.1940245" lon="10.4944984"><ele>1605.0</ele><time>2026-04-26T10:30:02.244Z</time></trkpt><trkpt lat="44.1939703" lon="10.4943497"><ele>1604.6666666666665</ele><time>2026-04-26T10:30:04.247Z</time></trkpt><trkpt lat="44.1939581" lon="10.4942602"><ele>1604.3333333333333</ele><time>2026-04-26T10:30:05.245Z</time></trkpt><trkpt lat="44.193946" lon="10.4941687"><ele>1604.0</ele><time>2026-04-26T10:30:06.247Z</time></trkpt><trkpt lat="44.1939591" lon="10.4940677"><ele>1604.0</ele><time>2026-04-26T10:30:07.246Z</time></trkpt><trkpt lat="44.1939759" lon="10.4939717"><ele>1604.0</ele><time>2026-04-26T10:30:08.255Z</time></trkpt><trkpt lat="44.194" lon="10.4938781"><ele>1604.0</ele><time>2026-04-26T10:30:09.243Z</time></trkpt><trkpt lat="44.1940359" lon="10.4937962"><ele>1604.0</ele><time>2026-04-26T10:30:10.245Z</time></trkpt><trkpt lat="44.1940855" lon="10.4937318"><ele>1604.0</ele><time>2026-04-26T10:30:11.249Z</time></trkpt><trkpt lat="44.194148" lon="10.4936665"><ele>1604.0</ele><time>2026-04-26T10:30:12.242Z</time></trkpt><trkpt lat="44.1942156" lon="10.4935881"><ele>1604.0</ele><time>2026-04-26T10:30:13.255Z</time></trkpt><trkpt lat="44.1942846" lon="10.4934824"><ele>1606.5</ele><time>2026-04-26T10:30:14.245Z</time></trkpt><trkpt lat="44.1943557" lon="10.4933518"><ele>1609.0</ele><time>2026-04-26T10:30:15.242Z</time></trkpt><trkpt lat="44.1944197" lon="10.4932044"><ele>1611.5</ele><time>2026-04-26T10:30:16.245Z</time></trkpt><trkpt lat="44.1944767" lon="10.4930414"><ele>1614.0</ele><time>2026-04-26T10:30:17.245Z</time></trkpt><trkpt lat="44.1945328" lon="10.4928685"><ele>1614.0</ele><time>2026-04-26T10:30:18.265Z</time></trkpt><trkpt lat="44.1945908" lon="10.4926986"><ele>1614.0</ele><time>2026-04-26T10:30:19.243Z</time></trkpt><trkpt lat="44.1946512" lon="10.4925355"><ele>1614.0</ele><time>2026-04-26T10:30:20.242Z</time></trkpt><trkpt lat="44.1947083" lon="10.4923712"><ele>1614.0</ele><time>2026-04-26T10:30:21.246Z</time></trkpt><trkpt lat="44.1947714" lon="10.4922183"><ele>1613.2</ele><time>2026-04-26T10:30:22.25Z</time></trkpt><trkpt lat="44.1948335" lon="10.4920821"><ele>1612.4</ele><time>2026-04-26T10:30:23.243Z</time></trkpt><trkpt lat="44.1948992" lon="10.4919558"><ele>1611.6</ele><time>2026-04-26T10:30:24.258Z</time></trkpt><trkpt lat="44.1949617" lon="10.4918374"><ele>1610.8</ele><time>2026-04-26T10:30:25.245Z</time></trkpt><trkpt lat="44.1950103" lon="10.491727"><ele>1610.0</ele><time>2026-04-26T10:30:26.24Z</time></trkpt><trkpt lat="44.1950532" lon="10.491613"><ele>1613.6</ele><time>2026-04-26T10:30:27.245Z</time></trkpt><trkpt lat="44.195093" lon="10.4914997"><ele>1617.2</ele><time>2026-04-26T10:30:28.248Z</time></trkpt><trkpt lat="44.1951383" lon="10.4913737"><ele>1620.8000000000002</ele><time>2026-04-26T10:30:29.241Z</time></trkpt><trkpt lat="44.1951914" lon="10.4912274"><ele>1624.4</ele><time>2026-04-26T10:30:30.254Z</time></trkpt><trkpt lat="44.19525" lon="10.4910629"><ele>1628.0</ele><time>2026-04-26T10:30:31.241Z</time></trkpt><trkpt lat="44.1953083" lon="10.4908925"><ele>1628.0</ele><time>2026-04-26T10:30:32.246Z</time></trkpt><trkpt lat="44.1953604" lon="10.4907218"><ele>1628.0</ele><time>2026-04-26T10:30:33.25Z</time></trkpt><trkpt lat="44.1954088" lon="10.4905457"><ele>1628.0</ele><time>2026-04-26T10:30:34.246Z</time></trkpt><trkpt lat="44.19545" lon="10.4903783"><ele>1628.0</ele><time>2026-04-26T10:30:35.25Z</time></trkpt><trkpt lat="44.1954898" lon="10.4902138"><ele>1626.75</ele><time>2026-04-26T10:30:36.24Z</time></trkpt><trkpt lat="44.1955301" lon="10.4900393"><ele>1625.5</ele><time>2026-04-26T10:30:37.241Z</time></trkpt><trkpt lat="44.1955671" lon="10.4898803"><ele>1624.25</ele><time>2026-04-26T10:30:38.24Z</time></trkpt><trkpt lat="44.1956044" lon="10.4897373"><ele>1623.0</ele><time>2026-04-26T10:30:39.242Z</time></trkpt><trkpt lat="44.1956427" lon="10.4895977"><ele>1621.2</ele><time>2026-04-26T10:30:40.262Z</time></trkpt><trkpt lat="44.1956662" lon="10.4894597"><ele>1619.4</ele><time>2026-04-26T10:30:41.245Z</time></trkpt><trkpt lat="44.1956893" lon="10.4893225"><ele>1617.6000000000001</ele><time>2026-04-26T10:30:42.24Z</time></trkpt><trkpt lat="44.1957091" lon="10.4891641"><ele>1615.8000000000002</ele><time>2026-04-26T10:30:43.243Z</time></trkpt><trkpt lat="44.1957314" lon="10.4890057"><ele>1614.0</ele><time>2026-04-26T10:30:44.242Z</time></trkpt><trkpt lat="44.1957455" lon="10.4888458"><ele>1620.6</ele><time>2026-04-26T10:30:45.246Z</time></trkpt><trkpt lat="44.1957518" lon="10.4886966"><ele>1627.2</ele><time>2026-04-26T10:30:46.24Z</time></trkpt><trkpt lat="44.1957475" lon="10.488554"><ele>1633.8</ele><time>2026-04-26T10:30:47.241Z</time></trkpt><trkpt lat="44.1957352" lon="10.4884308"><ele>1640.3999999999999</ele><time>2026-04-26T10:30:48.245Z</time></trkpt><trkpt lat="44.1957255" lon="10.4883151"><ele>1647.0</ele><time>2026-04-26T10:30:49.243Z</time></trkpt><trkpt lat="44.1957162" lon="10.4882078"><ele>1647.0</ele><time>2026-04-26T10:30:50.26Z</time></trkpt><trkpt lat="44.1957079" lon="10.4881147"><ele>1647.0</ele><time>2026-04-26T10:30:51.247Z</time></trkpt><trkpt lat="44.1956968" lon="10.4880239"><ele>1647.0</ele><time>2026-04-26T10:30:52.248Z</time></trkpt><trkpt lat="44.1956891" lon="10.4879334"><ele>1647.0</ele><time>2026-04-26T10:30:53.243Z</time></trkpt><trkpt lat="44.1956807" lon="10.4878461"><ele>1647.0</ele><time>2026-04-26T10:30:54.246Z</time></trkpt><trkpt lat="44.1956628" lon="10.4877116"><ele>1647.0</ele><time>2026-04-26T10:30:56.245Z</time></trkpt><trkpt lat="44.1956566" lon="10.487624"><ele>1647.0</ele><time>2026-04-26T10:30:58.249Z</time></trkpt><trkpt lat="44.1957208" lon="10.4876042"><ele>1647.0</ele><time>2026-04-26T10:40:31.248Z</time></trkpt><trkpt lat="44.1957829" lon="10.4876393"><ele>1647.0</ele><time>2026-04-26T10:40:39.244Z</time></trkpt><trkpt lat="44.1958469" lon="10.487697"><ele>1647.0</ele><time>2026-04-26T10:40:41.243Z</time></trkpt><trkpt lat="44.1959248" lon="10.487773"><ele>1647.0</ele><time>2026-04-26T10:40:43.244Z</time></trkpt><trkpt lat="44.1960107" lon="10.4878862"><ele>1647.0</ele><time>2026-04-26T10:40:45.262Z</time></trkpt><trkpt lat="44.1960694" lon="10.4879528"><ele>1647.0</ele><time>2026-04-26T10:40:46.257Z</time></trkpt><trkpt lat="44.1961743" lon="10.4880029"><ele>1647.0</ele><time>2026-04-26T10:40:48.248Z</time></trkpt><trkpt lat="44.1962921" lon="10.4879598"><ele>1647.0</ele><time>2026-04-26T10:40:50.244Z</time></trkpt><trkpt lat="44.1963534" lon="10.4878755"><ele>1647.0</ele><time>2026-04-26T10:40:51.237Z</time></trkpt><trkpt lat="44.1964098" lon="10.487771"><ele>1647.0</ele><time>2026-04-26T10:40:52.249Z</time></trkpt><trkpt lat="44.1964617" lon="10.4876868"><ele>1647.0</ele><time>2026-04-26T10:40:53.236Z</time></trkpt><trkpt lat="44.1965168" lon="10.4876058"><ele>1648.0</ele><time>2026-04-26T10:40:54.244Z</time></trkpt><trkpt lat="44.1965929" lon="10.4875556"><ele>1649.0</ele><time>2026-04-26T10:40:55.242Z</time></trkpt><trkpt lat="44.1966811" lon="10.4875071"><ele>1650.0</ele><time>2026-04-26T10:40:56.236Z</time></trkpt><trkpt lat="44.1967723" lon="10.4874632"><ele>1651.0</ele><time>2026-04-26T10:40:57.234Z</time></trkpt><trkpt lat="44.1968741" lon="10.4874405"><ele>1652.0</ele><time>2026-04-26T10:40:58.237Z</time></trkpt><trkpt lat="44.1969823" lon="10.4874192"><ele>1652.0</ele><time>2026-04-26T10:40:59.239Z</time></trkpt><trkpt lat="44.1971077" lon="10.4874095"><ele>1652.0</ele><time>2026-04-26T10:41:00.241Z</time></trkpt><trkpt lat="44.1972269" lon="10.4873994"><ele>1652.0</ele><time>2026-04-26T10:41:01.24Z</time></trkpt><trkpt lat="44.197337" lon="10.4873883"><ele>1652.0</ele><time>2026-04-26T10:41:02.24Z</time></trkpt><trkpt lat="44.1974343" lon="10.4873781"><ele>1650.5</ele><time>2026-04-26T10:41:03.237Z</time></trkpt><trkpt lat="44.1975285" lon="10.4873823"><ele>1649.0</ele><time>2026-04-26T10:41:04.237Z</time></trkpt><trkpt lat="44.1976361" lon="10.4874045"><ele>1647.5</ele><time>2026-04-26T10:41:05.238Z</time></trkpt><trkpt lat="44.1977532" lon="10.4874292"><ele>1646.0</ele><time>2026-04-26T10:41:06.243Z</time></trkpt><trkpt lat="44.1978836" lon="10.4874765"><ele>1646.0</ele><time>2026-04-26T10:41:07.239Z</time></trkpt><trkpt lat="44.1980197" lon="10.4875302"><ele>1646.0</ele><time>2026-04-26T10:41:08.235Z</time></trkpt><trkpt lat="44.1981515" lon="10.4875961"><ele>1646.0</ele><time>2026-04-26T10:41:09.239Z</time></trkpt><trkpt lat="44.198273" lon="10.4876707"><ele>1646.0</ele><time>2026-04-26T10:41:10.241Z</time></trkpt><trkpt lat="44.1983952" lon="10.4877352"><ele>1643.5</ele><time>2026-04-26T10:41:11.252Z</time></trkpt><trkpt lat="44.1985166" lon="10.4877969"><ele>1641.0</ele><time>2026-04-26T10:41:12.237Z</time></trkpt><trkpt lat="44.1986343" lon="10.4878205"><ele>1638.5</ele><time>2026-04-26T10:41:13.238Z</time></trkpt><trkpt lat="44.1987429" lon="10.4878215"><ele>1636.0</ele><time>2026-04-26T10:41:14.241Z</time></trkpt><trkpt lat="44.19884" lon="10.4878036"><ele>1636.0</ele><time>2026-04-26T10:41:15.236Z</time></trkpt><trkpt lat="44.198934" lon="10.4877861"><ele>1636.0</ele><time>2026-04-26T10:41:16.239Z</time></trkpt><trkpt lat="44.199034" lon="10.4877976"><ele>1636.0</ele><time>2026-04-26T10:41:17.239Z</time></trkpt><trkpt lat="44.1991302" lon="10.4878089"><ele>1636.0</ele><time>2026-04-26T10:41:18.237Z</time></trkpt><trkpt lat="44.1992258" lon="10.4878435"><ele>1636.0</ele><time>2026-04-26T10:41:19.239Z</time></trkpt><trkpt lat="44.1993139" lon="10.4878959"><ele>1638.1999999999998</ele><time>2026-04-26T10:41:20.24Z</time></trkpt><trkpt lat="44.1994026" lon="10.4879524"><ele>1640.3999999999999</ele><time>2026-04-26T10:41:21.24Z</time></trkpt><trkpt lat="44.1994954" lon="10.4880103"><ele>1642.6</ele><time>2026-04-26T10:41:22.243Z</time></trkpt><trkpt lat="44.1995883" lon="10.4880711"><ele>1644.8</ele><time>2026-04-26T10:41:23.236Z</time></trkpt><trkpt lat="44.1996748" lon="10.4881422"><ele>1647.0</ele><time>2026-04-26T10:41:24.24Z</time></trkpt><trkpt lat="44.1997543" lon="10.4882063"><ele>1645.0</ele><time>2026-04-26T10:41:25.238Z</time></trkpt><trkpt lat="44.199836" lon="10.488256"><ele>1643.0</ele><time>2026-04-26T10:41:26.246Z</time></trkpt><trkpt lat="44.1999227" lon="10.4883049"><ele>1641.0</ele><time>2026-04-26T10:41:27.245Z</time></trkpt><trkpt lat="44.2000141" lon="10.4883279"><ele>1639.0</ele><time>2026-04-26T10:41:28.242Z</time></trkpt><trkpt lat="44.2001001" lon="10.4883472"><ele>1637.0</ele><time>2026-04-26T10:41:29.238Z</time></trkpt><trkpt lat="44.2001839" lon="10.4883517"><ele>1635.0</ele><time>2026-04-26T10:41:30.236Z</time></trkpt><trkpt lat="44.200265" lon="10.4883594"><ele>1635.0</ele><time>2026-04-26T10:41:31.241Z</time></trkpt><trkpt lat="44.2003455" lon="10.488337"><ele>1635.0</ele><time>2026-04-26T10:41:32.243Z</time></trkpt><trkpt lat="44.2004338" lon="10.4882944"><ele>1635.0</ele><time>2026-04-26T10:41:33.235Z</time></trkpt><trkpt lat="44.2005228" lon="10.4882386"><ele>1635.0</ele><time>2026-04-26T10:41:34.237Z</time></trkpt><trkpt lat="44.2006063" lon="10.4881941"><ele>1635.0</ele><time>2026-04-26T10:41:35.241Z</time></trkpt><trkpt lat="44.2006782" lon="10.4881551"><ele>1635.0</ele><time>2026-04-26T10:41:36.24Z</time></trkpt><trkpt lat="44.2007727" lon="10.4880978"><ele>1633.3333333333333</ele><time>2026-04-26T10:41:38.246Z</time></trkpt><trkpt lat="44.2008591" lon="10.4880368"><ele>1631.6666666666665</ele><time>2026-04-26T10:41:40.246Z</time></trkpt><trkpt lat="44.2009346" lon="10.4880382"><ele>1630.0</ele><time>2026-04-26T10:41:42.251Z</time></trkpt><trkpt lat="44.2010275" lon="10.4880445"><ele>1628.3333333333333</ele><time>2026-04-26T10:41:44.245Z</time></trkpt><trkpt lat="44.2010951" lon="10.4880486"><ele>1626.6666666666665</ele><time>2026-04-26T10:41:46.243Z</time></trkpt><trkpt lat="44.2011621" lon="10.488041"><ele>1625.0</ele><time>2026-04-26T10:41:49.245Z</time></trkpt><trkpt lat="44.2012294" lon="10.4880108"><ele>1624.9999999999998</ele><time>2026-04-26T10:41:51.247Z</time></trkpt><trkpt lat="44.2013271" lon="10.487941"><ele>1625.0</ele><time>2026-04-26T10:41:53.244Z</time></trkpt><trkpt lat="44.2013835" lon="10.4878975"><ele>1625.0</ele><time>2026-04-26T10:41:54.243Z</time></trkpt><trkpt lat="44.2014388" lon="10.487847"><ele>1625.0</ele><time>2026-04-26T10:41:55.247Z</time></trkpt><trkpt lat="44.2015078" lon="10.4877789"><ele>1624.9999999999998</ele><time>2026-04-26T10:41:56.236Z</time></trkpt><trkpt lat="44.2016021" lon="10.4876939"><ele>1625.0</ele><time>2026-04-26T10:41:57.239Z</time></trkpt><trkpt lat="44.2017039" lon="10.4876198"><ele>1621.5</ele><time>2026-04-26T10:41:58.243Z</time></trkpt><trkpt lat="44.2018081" lon="10.4875456"><ele>1618.0</ele><time>2026-04-26T10:41:59.247Z</time></trkpt><trkpt lat="44.2019249" lon="10.4874634"><ele>1614.5</ele><time>2026-04-26T10:42:00.241Z</time></trkpt><trkpt lat="44.2020436" lon="10.4873827"><ele>1611.0</ele><time>2026-04-26T10:42:01.242Z</time></trkpt><trkpt lat="44.2021559" lon="10.4873056"><ele>1611.0</ele><time>2026-04-26T10:42:02.249Z</time></trkpt><trkpt lat="44.2022583" lon="10.4872345"><ele>1611.0</ele><time>2026-04-26T10:42:03.247Z</time></trkpt><trkpt lat="44.2023698" lon="10.4871902"><ele>1611.0</ele><time>2026-04-26T10:42:04.245Z</time></trkpt><trkpt lat="44.2024916" lon="10.48718"><ele>1611.0</ele><time>2026-04-26T10:42:05.24Z</time></trkpt><trkpt lat="44.202625" lon="10.4871864"><ele>1609.5</ele><time>2026-04-26T10:42:06.244Z</time></trkpt><trkpt lat="44.2027668" lon="10.4871985"><ele>1608.0</ele><time>2026-04-26T10:42:07.24Z</time></trkpt><trkpt lat="44.2029103" lon="10.4872201"><ele>1606.5</ele><time>2026-04-26T10:42:08.243Z</time></trkpt><trkpt lat="44.2030573" lon="10.4872516"><ele>1605.0</ele><time>2026-04-26T10:42:09.239Z</time></trkpt><trkpt lat="44.2032096" lon="10.4872844"><ele>1605.0</ele><time>2026-04-26T10:42:10.239Z</time></trkpt><trkpt lat="44.2033524" lon="10.4873383"><ele>1605.0</ele><time>2026-04-26T10:42:11.239Z</time></trkpt><trkpt lat="44.2034843" lon="10.4874328"><ele>1605.0</ele><time>2026-04-26T10:42:12.24Z</time></trkpt><trkpt lat="44.2036154" lon="10.4875349"><ele>1605.0</ele><time>2026-04-26T10:42:13.235Z</time></trkpt><trkpt lat="44.2037408" lon="10.487612"><ele>1605.0</ele><time>2026-04-26T10:42:14.236Z</time></trkpt><trkpt lat="44.2038717" lon="10.4876627"><ele>1605.0</ele><time>2026-04-26T10:42:15.24Z</time></trkpt><trkpt lat="44.2040075" lon="10.4876926"><ele>1605.0</ele><time>2026-04-26T10:42:16.238Z</time></trkpt><trkpt lat="44.2041429" lon="10.4877224"><ele>1605.0</ele><time>2026-04-26T10:42:17.236Z</time></trkpt><trkpt lat="44.2042896" lon="10.4877177"><ele>1605.5</ele><time>2026-04-26T10:42:18.261Z</time></trkpt><trkpt lat="44.204433" lon="10.4876944"><ele>1606.0</ele><time>2026-04-26T10:42:19.236Z</time></trkpt><trkpt lat="44.2045723" lon="10.4876695"><ele>1606.5</ele><time>2026-04-26T10:42:20.243Z</time></trkpt><trkpt lat="44.204711" lon="10.4876462"><ele>1607.0</ele><time>2026-04-26T10:42:21.238Z</time></trkpt><trkpt lat="44.204845" lon="10.4876242"><ele>1603.0</ele><time>2026-04-26T10:42:22.241Z</time></trkpt><trkpt lat="44.2049895" lon="10.4875758"><ele>1599.0</ele><time>2026-04-26T10:42:23.242Z</time></trkpt><trkpt lat="44.2051139" lon="10.4874693"><ele>1595.0</ele><time>2026-04-26T10:42:24.246Z</time></trkpt><trkpt lat="44.2052197" lon="10.4873782"><ele>1591.0</ele><time>2026-04-26T10:42:25.241Z</time></trkpt><trkpt lat="44.2053227" lon="10.4873229"><ele>1591.0</ele><time>2026-04-26T10:42:26.244Z</time></trkpt><trkpt lat="44.2054185" lon="10.4872721"><ele>1591.0</ele><time>2026-04-26T10:42:27.238Z</time></trkpt><trkpt lat="44.2055524" lon="10.4872924"><ele>1591.0</ele><time>2026-04-26T10:42:28.235Z</time></trkpt><trkpt lat="44.2056835" lon="10.4873702"><ele>1591.0</ele><time>2026-04-26T10:42:29.236Z</time></trkpt><trkpt lat="44.2058173" lon="10.4874141"><ele>1587.0</ele><time>2026-04-26T10:42:30.247Z</time></trkpt><trkpt lat="44.2059572" lon="10.4874509"><ele>1583.0</ele><time>2026-04-26T10:42:31.236Z</time></trkpt><trkpt lat="44.2061025" lon="10.4874755"><ele>1579.0</ele><time>2026-04-26T10:42:32.26Z</time></trkpt><trkpt lat="44.2062369" lon="10.4875289"><ele>1575.0</ele><time>2026-04-26T10:42:33.244Z</time></trkpt><trkpt lat="44.2063673" lon="10.4875941"><ele>1572.75</ele><time>2026-04-26T10:42:34.238Z</time></trkpt><trkpt lat="44.2065053" lon="10.4876562"><ele>1570.5</ele><time>2026-04-26T10:42:35.237Z</time></trkpt><trkpt lat="44.2066431" lon="10.4877013"><ele>1568.25</ele><time>2026-04-26T10:42:36.237Z</time></trkpt><trkpt lat="44.2067825" lon="10.4877232"><ele>1566.0</ele><time>2026-04-26T10:42:37.24Z</time></trkpt><trkpt lat="44.2069209" lon="10.4877396"><ele>1566.0</ele><time>2026-04-26T10:42:38.236Z</time></trkpt><trkpt lat="44.2070619" lon="10.4877288"><ele>1566.0</ele><time>2026-04-26T10:42:39.239Z</time></trkpt><trkpt lat="44.2071945" lon="10.4877288"><ele>1566.0</ele><time>2026-04-26T10:42:40.239Z</time></trkpt><trkpt lat="44.207318" lon="10.4877808"><ele>1566.0</ele><time>2026-04-26T10:42:41.237Z</time></trkpt><trkpt lat="44.2074508" lon="10.4878423"><ele>1559.0</ele><time>2026-04-26T10:42:42.239Z</time></trkpt><trkpt lat="44.2075673" lon="10.4879969"><ele>1552.0</ele><time>2026-04-26T10:42:43.24Z</time></trkpt><trkpt lat="44.2076798" lon="10.4881378"><ele>1545.0</ele><time>2026-04-26T10:42:44.241Z</time></trkpt><trkpt lat="44.2077794" lon="10.4882511"><ele>1538.0</ele><time>2026-04-26T10:42:45.236Z</time></trkpt><trkpt lat="44.2078988" lon="10.4883099"><ele>1538.0</ele><time>2026-04-26T10:42:46.239Z</time></trkpt><trkpt lat="44.2080289" lon="10.4883083"><ele>1538.0</ele><time>2026-04-26T10:42:47.242Z</time></trkpt><trkpt lat="44.208151" lon="10.488299"><ele>1538.0</ele><time>2026-04-26T10:42:48.238Z</time></trkpt><trkpt lat="44.2082806" lon="10.4882933"><ele>1538.0</ele><time>2026-04-26T10:42:49.242Z</time></trkpt><trkpt lat="44.2084104" lon="10.4883533"><ele>1537.0</ele><time>2026-04-26T10:42:50.243Z</time></trkpt><trkpt lat="44.2085264" lon="10.4884179"><ele>1536.0</ele><time>2026-04-26T10:42:51.24Z</time></trkpt><trkpt lat="44.208646" lon="10.4884686"><ele>1535.0</ele><time>2026-04-26T10:42:52.244Z</time></trkpt><trkpt lat="44.2087645" lon="10.4885093"><ele>1534.0</ele><time>2026-04-26T10:42:53.243Z</time></trkpt><trkpt lat="44.2088761" lon="10.4885504"><ele>1534.0</ele><time>2026-04-26T10:42:54.241Z</time></trkpt><trkpt lat="44.2089738" lon="10.488586"><ele>1534.0</ele><time>2026-04-26T10:42:55.242Z</time></trkpt><trkpt lat="44.2090575" lon="10.4886201"><ele>1534.0</ele><time>2026-04-26T10:42:56.245Z</time></trkpt><trkpt lat="44.2091281" lon="10.4886563"><ele>1534.0</ele><time>2026-04-26T10:42:57.25Z</time></trkpt><trkpt lat="44.2091883" lon="10.488762"><ele>1534.0</ele><time>2026-04-26T10:42:59.238Z</time></trkpt><trkpt lat="44.2091368" lon="10.4888794"><ele>1530.75</ele><time>2026-04-26T10:43:01.25Z</time></trkpt><trkpt lat="44.2090452" lon="10.4889258"><ele>1527.5</ele><time>2026-04-26T10:43:02.24Z</time></trkpt><trkpt lat="44.208933" lon="10.4889807"><ele>1524.25</ele><time>2026-04-26T10:43:03.236Z</time></trkpt><trkpt lat="44.2088181" lon="10.4890136"><ele>1521.0</ele><time>2026-04-26T10:43:04.236Z</time></trkpt><trkpt lat="44.2086962" lon="10.4889708"><ele>1519.25</ele><time>2026-04-26T10:43:05.24Z</time></trkpt><trkpt lat="44.2085658" lon="10.4889118"><ele>1517.5</ele><time>2026-04-26T10:43:06.236Z</time></trkpt><trkpt lat="44.2084243" lon="10.4888665"><ele>1515.75</ele><time>2026-04-26T10:43:07.235Z</time></trkpt><trkpt lat="44.2082797" lon="10.4888399"><ele>1514.0</ele><time>2026-04-26T10:43:08.249Z</time></trkpt><trkpt lat="44.2081379" lon="10.4888241"><ele>1514.0</ele><time>2026-04-26T10:43:09.235Z</time></trkpt><trkpt lat="44.2079987" lon="10.4888359"><ele>1514.0</ele><time>2026-04-26T10:43:10.253Z</time></trkpt><trkpt lat="44.2078588" lon="10.4888505"><ele>1514.0</ele><time>2026-04-26T10:43:11.24Z</time></trkpt><trkpt lat="44.2077265" lon="10.4889415"><ele>1514.0</ele><time>2026-04-26T10:43:12.248Z</time></trkpt><trkpt lat="44.2075929" lon="10.4890345"><ele>1514.0</ele><time>2026-04-26T10:43:13.242Z</time></trkpt><trkpt lat="44.2074631" lon="10.4891272"><ele>1514.0</ele><time>2026-04-26T10:43:14.241Z</time></trkpt><trkpt lat="44.2073433" lon="10.4892303"><ele>1514.0</ele><time>2026-04-26T10:43:15.237Z</time></trkpt><trkpt lat="44.2072432" lon="10.4893717"><ele>1514.0</ele><time>2026-04-26T10:43:16.239Z</time></trkpt><trkpt lat="44.2071447" lon="10.4895218"><ele>1510.3333333333335</ele><time>2026-04-26T10:43:17.239Z</time></trkpt><trkpt lat="44.2070601" lon="10.4896901"><ele>1506.6666666666667</ele><time>2026-04-26T10:43:18.239Z</time></trkpt><trkpt lat="44.2069517" lon="10.4898304"><ele>1503.0</ele><time>2026-04-26T10:43:19.241Z</time></trkpt><trkpt lat="44.2068389" lon="10.4899776"><ele>1503.0</ele><time>2026-04-26T10:43:20.239Z</time></trkpt><trkpt lat="44.206722" lon="10.4900611"><ele>1503.0</ele><time>2026-04-26T10:43:21.244Z</time></trkpt><trkpt lat="44.2065959" lon="10.4900784"><ele>1503.0</ele><time>2026-04-26T10:43:22.245Z</time></trkpt><trkpt lat="44.2064795" lon="10.4901216"><ele>1503.0</ele><time>2026-04-26T10:43:23.24Z</time></trkpt><trkpt lat="44.2063713" lon="10.4902017"><ele>1501.75</ele><time>2026-04-26T10:43:24.235Z</time></trkpt><trkpt lat="44.2063092" lon="10.4903409"><ele>1500.5</ele><time>2026-04-26T10:43:25.242Z</time></trkpt><trkpt lat="44.20624" lon="10.4904716"><ele>1499.25</ele><time>2026-04-26T10:43:26.239Z</time></trkpt><trkpt lat="44.2061238" lon="10.490576"><ele>1498.0</ele><time>2026-04-26T10:43:27.238Z</time></trkpt><trkpt lat="44.2059988" lon="10.4906636"><ele>1498.0</ele><time>2026-04-26T10:43:28.236Z</time></trkpt><trkpt lat="44.205881" lon="10.4907671"><ele>1498.0</ele><time>2026-04-26T10:43:29.234Z</time></trkpt><trkpt lat="44.2057849" lon="10.4909176"><ele>1498.0</ele><time>2026-04-26T10:43:30.233Z</time></trkpt><trkpt lat="44.2056952" lon="10.4910976"><ele>1498.0</ele><time>2026-04-26T10:43:31.235Z</time></trkpt><trkpt lat="44.2056295" lon="10.4912884"><ele>1497.3333333333333</ele><time>2026-04-26T10:43:32.232Z</time></trkpt><trkpt lat="44.2055552" lon="10.4914843"><ele>1496.6666666666667</ele><time>2026-04-26T10:43:33.238Z</time></trkpt><trkpt lat="44.2054733" lon="10.4916783"><ele>1496.0</ele><time>2026-04-26T10:43:34.236Z</time></trkpt><trkpt lat="44.2053964" lon="10.4918624"><ele>1496.0</ele><time>2026-04-26T10:43:35.236Z</time></trkpt><trkpt lat="44.2053548" lon="10.4920522"><ele>1496.0</ele><time>2026-04-26T10:43:36.239Z</time></trkpt><trkpt lat="44.205352" lon="10.492238"><ele>1496.0</ele><time>2026-04-26T10:43:37.237Z</time></trkpt><trkpt lat="44.2053769" lon="10.4923944"><ele>1496.0</ele><time>2026-04-26T10:43:38.241Z</time></trkpt><trkpt lat="44.2054311" lon="10.492516"><ele>1494.25</ele><time>2026-04-26T10:43:39.236Z</time></trkpt><trkpt lat="44.2054983" lon="10.4926298"><ele>1492.5</ele><time>2026-04-26T10:43:40.236Z</time></trkpt><trkpt lat="44.2056219" lon="10.4926892"><ele>1490.75</ele><time>2026-04-26T10:43:41.239Z</time></trkpt><trkpt lat="44.2057635" lon="10.4927032"><ele>1489.0</ele><time>2026-04-26T10:43:42.237Z</time></trkpt><trkpt lat="44.2058794" lon="10.4927335"><ele>1486.5</ele><time>2026-04-26T10:43:43.237Z</time></trkpt><trkpt lat="44.2060013" lon="10.4928139"><ele>1484.0</ele><time>2026-04-26T10:43:44.238Z</time></trkpt><trkpt lat="44.206105" lon="10.4929402"><ele>1481.5</ele><time>2026-04-26T10:43:45.233Z</time></trkpt><trkpt lat="44.2062057" lon="10.4930576"><ele>1479.0</ele><time>2026-04-26T10:43:46.234Z</time></trkpt><trkpt lat="44.2062847" lon="10.493186"><ele>1479.0</ele><time>2026-04-26T10:43:47.235Z</time></trkpt><trkpt lat="44.2063282" lon="10.493307"><ele>1479.0</ele><time>2026-04-26T10:43:48.234Z</time></trkpt><trkpt lat="44.2063201" lon="10.4933985"><ele>1479.0</ele><time>2026-04-26T10:43:49.236Z</time></trkpt><trkpt lat="44.2062121" lon="10.4935033"><ele>1479.0</ele><time>2026-04-26T10:43:51.236Z</time></trkpt><trkpt lat="44.2060778" lon="10.4935224"><ele>1479.0</ele><time>2026-04-26T10:43:52.241Z</time></trkpt><trkpt lat="44.205945" lon="10.4935837"><ele>1479.0</ele><time>2026-04-26T10:43:53.239Z</time></trkpt><trkpt lat="44.2058325" lon="10.4936588"><ele>1479.0</ele><time>2026-04-26T10:43:54.24Z</time></trkpt><trkpt lat="44.2057178" lon="10.493771"><ele>1479.0</ele><time>2026-04-26T10:43:55.239Z</time></trkpt><trkpt lat="44.2056065" lon="10.4938773"><ele>1479.0</ele><time>2026-04-26T10:43:56.238Z</time></trkpt><trkpt lat="44.2055171" lon="10.4939725"><ele>1471.75</ele><time>2026-04-26T10:43:57.254Z</time></trkpt><trkpt lat="44.205428" lon="10.4940321"><ele>1464.5</ele><time>2026-04-26T10:43:58.242Z</time></trkpt><trkpt lat="44.2053104" lon="10.4940212"><ele>1457.25</ele><time>2026-04-26T10:43:59.234Z</time></trkpt><trkpt lat="44.2051962" lon="10.4939446"><ele>1450.0</ele><time>2026-04-26T10:44:00.234Z</time></trkpt><trkpt lat="44.2050672" lon="10.4938622"><ele>1450.0</ele><time>2026-04-26T10:44:01.245Z</time></trkpt><trkpt lat="44.2049313" lon="10.4938793"><ele>1450.0</ele><time>2026-04-26T10:44:02.234Z</time></trkpt><trkpt lat="44.2047966" lon="10.493925"><ele>1450.0</ele><time>2026-04-26T10:44:03.239Z</time></trkpt><trkpt lat="44.2046648" lon="10.4939551"><ele>1450.0</ele><time>2026-04-26T10:44:04.236Z</time></trkpt><trkpt lat="44.2045402" lon="10.4939699"><ele>1447.75</ele><time>2026-04-26T10:44:05.236Z</time></trkpt><trkpt lat="44.2044143" lon="10.4939235"><ele>1445.5</ele><time>2026-04-26T10:44:06.236Z</time></trkpt><trkpt lat="44.2042892" lon="10.4938194"><ele>1443.25</ele><time>2026-04-26T10:44:07.239Z</time></trkpt><trkpt lat="44.2041815" lon="10.4937378"><ele>1441.0</ele><time>2026-04-26T10:44:08.241Z</time></trkpt><trkpt lat="44.2040888" lon="10.4936936"><ele>1445.0</ele><time>2026-04-26T10:44:09.245Z</time></trkpt><trkpt lat="44.2039944" lon="10.493755"><ele>1449.0</ele><time>2026-04-26T10:44:10.235Z</time></trkpt><trkpt lat="44.2038912" lon="10.4938835"><ele>1453.0</ele><time>2026-04-26T10:44:11.235Z</time></trkpt><trkpt lat="44.20378" lon="10.4940305"><ele>1457.0</ele><time>2026-04-26T10:44:12.231Z</time></trkpt><trkpt lat="44.2036716" lon="10.4941811"><ele>1457.0</ele><time>2026-04-26T10:44:13.239Z</time></trkpt><trkpt lat="44.2035396" lon="10.4942953"><ele>1457.0</ele><time>2026-04-26T10:44:14.233Z</time></trkpt><trkpt lat="44.2034241" lon="10.4944048"><ele>1457.0</ele><time>2026-04-26T10:44:15.246Z</time></trkpt><trkpt lat="44.2033214" lon="10.4945331"><ele>1457.0</ele><time>2026-04-26T10:44:16.231Z</time></trkpt><trkpt lat="44.2032378" lon="10.4946647"><ele>1459.75</ele><time>2026-04-26T10:44:17.239Z</time></trkpt><trkpt lat="44.2031627" lon="10.4948216"><ele>1462.5</ele><time>2026-04-26T10:44:18.235Z</time></trkpt><trkpt lat="44.2031008" lon="10.4949801"><ele>1465.25</ele><time>2026-04-26T10:44:19.239Z</time></trkpt><trkpt lat="44.2030401" lon="10.4951557"><ele>1468.0</ele><time>2026-04-26T10:44:20.243Z</time></trkpt><trkpt lat="44.202989" lon="10.4953448"><ele>1458.5</ele><time>2026-04-26T10:44:21.236Z</time></trkpt><trkpt lat="44.2028977" lon="10.4955275"><ele>1449.0</ele><time>2026-04-26T10:44:22.234Z</time></trkpt><trkpt lat="44.202787" lon="10.4956727"><ele>1439.5</ele><time>2026-04-26T10:44:23.239Z</time></trkpt><trkpt lat="44.2026825" lon="10.4957907"><ele>1430.0</ele><time>2026-04-26T10:44:24.237Z</time></trkpt><trkpt lat="44.2025523" lon="10.4958894"><ele>1430.0</ele><time>2026-04-26T10:44:25.233Z</time></trkpt><trkpt lat="44.2024359" lon="10.4959528"><ele>1430.0</ele><time>2026-04-26T10:44:26.239Z</time></trkpt><trkpt lat="44.2023523" lon="10.496033"><ele>1430.0</ele><time>2026-04-26T10:44:27.233Z</time></trkpt><trkpt lat="44.202274" lon="10.4961602"><ele>1430.0</ele><time>2026-04-26T10:44:28.234Z</time></trkpt><trkpt lat="44.2022566" lon="10.4963435"><ele>1434.0</ele><time>2026-04-26T10:44:29.237Z</time></trkpt><trkpt lat="44.2022615" lon="10.4965144"><ele>1438.0</ele><time>2026-04-26T10:44:30.244Z</time></trkpt><trkpt lat="44.2022875" lon="10.4966856"><ele>1442.0</ele><time>2026-04-26T10:44:31.242Z</time></trkpt><trkpt lat="44.202293" lon="10.4968568"><ele>1446.0</ele><time>2026-04-26T10:44:32.252Z</time></trkpt><trkpt lat="44.2022373" lon="10.4970167"><ele>1437.0</ele><time>2026-04-26T10:44:33.24Z</time></trkpt><trkpt lat="44.2021363" lon="10.4971444"><ele>1428.0</ele><time>2026-04-26T10:44:34.235Z</time></trkpt><trkpt lat="44.2020016" lon="10.4972322"><ele>1419.0</ele><time>2026-04-26T10:44:35.237Z</time></trkpt><trkpt lat="44.2018435" lon="10.4973079"><ele>1419.0</ele><time>2026-04-26T10:44:36.244Z</time></trkpt><trkpt lat="44.2017129" lon="10.4973802"><ele>1419.0</ele><time>2026-04-26T10:44:37.234Z</time></trkpt><trkpt lat="44.2015902" lon="10.4974897"><ele>1419.0</ele><time>2026-04-26T10:44:38.239Z</time></trkpt><trkpt lat="44.2014289" lon="10.4975786"><ele>1419.6666666666667</ele><time>2026-04-26T10:44:39.235Z</time></trkpt><trkpt lat="44.2012836" lon="10.4977717"><ele>1420.3333333333335</ele><time>2026-04-26T10:44:41.252Z</time></trkpt><trkpt lat="44.2011825" lon="10.4979411"><ele>1421.0</ele><time>2026-04-26T10:44:42.232Z</time></trkpt><trkpt lat="44.2010977" lon="10.4982471"><ele>1421.0</ele><time>2026-04-26T10:44:43.23Z</time></trkpt><trkpt lat="44.2009934" lon="10.4984181"><ele>1421.0</ele><time>2026-04-26T10:44:44.233Z</time></trkpt><trkpt lat="44.2008248" lon="10.4985508"><ele>1421.0</ele><time>2026-04-26T10:44:45.232Z</time></trkpt><trkpt lat="44.2006672" lon="10.4986639"><ele>1417.6666666666667</ele><time>2026-04-26T10:44:46.237Z</time></trkpt><trkpt lat="44.2005279" lon="10.4987699"><ele>1414.3333333333333</ele><time>2026-04-26T10:44:47.231Z</time></trkpt><trkpt lat="44.2003682" lon="10.4988829"><ele>1411.0</ele><time>2026-04-26T10:44:48.237Z</time></trkpt><trkpt lat="44.2002327" lon="10.4989961"><ele>1411.0</ele><time>2026-04-26T10:44:49.232Z</time></trkpt><trkpt lat="44.2001172" lon="10.4991038"><ele>1411.0</ele><time>2026-04-26T10:44:50.235Z</time></trkpt><trkpt lat="44.2000225" lon="10.4992624"><ele>1411.0</ele><time>2026-04-26T10:44:51.232Z</time></trkpt><trkpt lat="44.1999276" lon="10.4993868"><ele>1411.0</ele><time>2026-04-26T10:44:52.235Z</time></trkpt><trkpt lat="44.199829" lon="10.4995201"><ele>1410.5</ele><time>2026-04-26T10:44:53.232Z</time></trkpt><trkpt lat="44.1997001" lon="10.499654"><ele>1410.0</ele><time>2026-04-26T10:44:54.235Z</time></trkpt><trkpt lat="44.1995835" lon="10.4997546"><ele>1409.5</ele><time>2026-04-26T10:44:55.241Z</time></trkpt><trkpt lat="44.1994556" lon="10.4998606"><ele>1409.0</ele><time>2026-04-26T10:44:56.234Z</time></trkpt><trkpt lat="44.1994178" lon="10.5001192"><ele>1409.0</ele><time>2026-04-26T10:44:57.24Z</time></trkpt><trkpt lat="44.1993281" lon="10.5003567"><ele>1409.0</ele><time>2026-04-26T10:44:58.242Z</time></trkpt><trkpt lat="44.1992516" lon="10.5005722"><ele>1409.0</ele><time>2026-04-26T10:44:59.236Z</time></trkpt><trkpt lat="44.1991588" lon="10.5007403"><ele>1408.75</ele><time>2026-04-26T10:45:00.24Z</time></trkpt><trkpt lat="44.1990673" lon="10.5008795"><ele>1408.5</ele><time>2026-04-26T10:45:01.234Z</time></trkpt><trkpt lat="44.1989517" lon="10.5009608"><ele>1408.25</ele><time>2026-04-26T10:45:02.244Z</time></trkpt><trkpt lat="44.1988252" lon="10.5010453"><ele>1408.0</ele><time>2026-04-26T10:45:03.234Z</time></trkpt><trkpt lat="44.1987096" lon="10.5011369"><ele>1398.3333333333333</ele><time>2026-04-26T10:45:04.248Z</time></trkpt><trkpt lat="44.1986024" lon="10.5012804"><ele>1388.6666666666667</ele><time>2026-04-26T10:45:05.237Z</time></trkpt><trkpt lat="44.1985022" lon="10.5014484"><ele>1379.0</ele><time>2026-04-26T10:45:06.235Z</time></trkpt><trkpt lat="44.1983959" lon="10.5015975"><ele>1379.0</ele><time>2026-04-26T10:45:07.235Z</time></trkpt><trkpt lat="44.1982311" lon="10.5016326"><ele>1379.0</ele><time>2026-04-26T10:45:08.238Z</time></trkpt><trkpt lat="44.1981069" lon="10.5016545"><ele>1379.0</ele><time>2026-04-26T10:45:09.236Z</time></trkpt><trkpt lat="44.1980126" lon="10.5017226"><ele>1379.0</ele><time>2026-04-26T10:45:10.24Z</time></trkpt><trkpt lat="44.197937" lon="10.5018337"><ele>1380.75</ele><time>2026-04-26T10:45:11.238Z</time></trkpt><trkpt lat="44.1979105" lon="10.5020272"><ele>1382.5</ele><time>2026-04-26T10:45:12.236Z</time></trkpt><trkpt lat="44.1979" lon="10.5021944"><ele>1384.25</ele><time>2026-04-26T10:45:13.237Z</time></trkpt><trkpt lat="44.1978889" lon="10.5023578"><ele>1386.0</ele><time>2026-04-26T10:45:14.24Z</time></trkpt><trkpt lat="44.1978685" lon="10.5025217"><ele>1386.0</ele><time>2026-04-26T10:45:15.234Z</time></trkpt><trkpt lat="44.1977864" lon="10.5026275"><ele>1386.0</ele><time>2026-04-26T10:45:16.234Z</time></trkpt><trkpt lat="44.1976787" lon="10.5027017"><ele>1386.0</ele><time>2026-04-26T10:45:17.237Z</time></trkpt><trkpt lat="44.1975955" lon="10.5027741"><ele>1386.0</ele><time>2026-04-26T10:45:18.236Z</time></trkpt><trkpt lat="44.1976171" lon="10.5029124"><ele>1386.0</ele><time>2026-04-26T10:45:19.237Z</time></trkpt><trkpt lat="44.1976475" lon="10.5030363"><ele>1383.0</ele><time>2026-04-26T10:45:20.233Z</time></trkpt><trkpt lat="44.197712" lon="10.5031833"><ele>1380.0</ele><time>2026-04-26T10:45:21.239Z</time></trkpt><trkpt lat="44.1977377" lon="10.503324"><ele>1377.0</ele><time>2026-04-26T10:45:22.235Z</time></trkpt><trkpt lat="44.1977325" lon="10.5034532"><ele>1374.0</ele><time>2026-04-26T10:45:23.246Z</time></trkpt><trkpt lat="44.1976743" lon="10.5035485"><ele>1371.0</ele><time>2026-04-26T10:45:24.237Z</time></trkpt><trkpt lat="44.1975889" lon="10.5036064"><ele>1371.0</ele><time>2026-04-26T10:45:25.238Z</time></trkpt><trkpt lat="44.1974675" lon="10.5036366"><ele>1371.0</ele><time>2026-04-26T10:45:26.24Z</time></trkpt><trkpt lat="44.1973623" lon="10.5036661"><ele>1371.0</ele><time>2026-04-26T10:45:27.236Z</time></trkpt><trkpt lat="44.1972436" lon="10.5037199"><ele>1371.0</ele><time>2026-04-26T10:45:28.238Z</time></trkpt><trkpt lat="44.1971419" lon="10.5038013"><ele>1374.75</ele><time>2026-04-26T10:45:29.242Z</time></trkpt><trkpt lat="44.1970672" lon="10.5039037"><ele>1378.5</ele><time>2026-04-26T10:45:30.239Z</time></trkpt><trkpt lat="44.1970168" lon="10.5040729"><ele>1382.25</ele><time>2026-04-26T10:45:31.24Z</time></trkpt><trkpt lat="44.196998" lon="10.5042934"><ele>1386.0</ele><time>2026-04-26T10:45:32.24Z</time></trkpt><trkpt lat="44.1970094" lon="10.5045051"><ele>1383.0</ele><time>2026-04-26T10:45:33.233Z</time></trkpt><trkpt lat="44.1969996" lon="10.5047029"><ele>1380.0</ele><time>2026-04-26T10:45:34.249Z</time></trkpt><trkpt lat="44.1969431" lon="10.5048524"><ele>1377.0</ele><time>2026-04-26T10:45:35.24Z</time></trkpt><trkpt lat="44.1969218" lon="10.505022"><ele>1374.0</ele><time>2026-04-26T10:45:36.235Z</time></trkpt><trkpt lat="44.1968916" lon="10.5051599"><ele>1374.0</ele><time>2026-04-26T10:45:37.239Z</time></trkpt><trkpt lat="44.1968461" lon="10.5053242"><ele>1374.0</ele><time>2026-04-26T10:45:38.235Z</time></trkpt><trkpt lat="44.1968113" lon="10.5054612"><ele>1374.0</ele><time>2026-04-26T10:45:39.238Z</time></trkpt><trkpt lat="44.1967902" lon="10.5056061"><ele>1374.0</ele><time>2026-04-26T10:45:40.235Z</time></trkpt><trkpt lat="44.1967799" lon="10.5057422"><ele>1374.0</ele><time>2026-04-26T10:45:41.235Z</time></trkpt><trkpt lat="44.1967629" lon="10.5058812"><ele>1371.5</ele><time>2026-04-26T10:45:42.24Z</time></trkpt><trkpt lat="44.1967421" lon="10.5060339"><ele>1369.0</ele><time>2026-04-26T10:45:43.238Z</time></trkpt><trkpt lat="44.1967215" lon="10.5062098"><ele>1366.5</ele><time>2026-04-26T10:45:44.24Z</time></trkpt><trkpt lat="44.1966888" lon="10.5063857"><ele>1364.0</ele><time>2026-04-26T10:45:45.239Z</time></trkpt><trkpt lat="44.1966321" lon="10.5065532"><ele>1361.75</ele><time>2026-04-26T10:45:46.238Z</time></trkpt><trkpt lat="44.1965691" lon="10.5067364"><ele>1359.5</ele><time>2026-04-26T10:45:47.235Z</time></trkpt><trkpt lat="44.1965112" lon="10.5069255"><ele>1357.25</ele><time>2026-04-26T10:45:48.239Z</time></trkpt><trkpt lat="44.1964988" lon="10.5071256"><ele>1355.0</ele><time>2026-04-26T10:45:49.239Z</time></trkpt><trkpt lat="44.1965084" lon="10.5073147"><ele>1355.5</ele><time>2026-04-26T10:45:50.237Z</time></trkpt><trkpt lat="44.1965083" lon="10.5074914"><ele>1356.0</ele><time>2026-04-26T10:45:51.237Z</time></trkpt><trkpt lat="44.1964758" lon="10.5076435"><ele>1356.5</ele><time>2026-04-26T10:45:52.233Z</time></trkpt><trkpt lat="44.1964015" lon="10.5078157"><ele>1357.0</ele><time>2026-04-26T10:45:53.235Z</time></trkpt><trkpt lat="44.196307" lon="10.5079822"><ele>1357.0</ele><time>2026-04-26T10:45:54.236Z</time></trkpt><trkpt lat="44.1962007" lon="10.5081662"><ele>1357.0</ele><time>2026-04-26T10:45:55.235Z</time></trkpt><trkpt lat="44.196118" lon="10.5083751"><ele>1357.0</ele><time>2026-04-26T10:45:56.234Z</time></trkpt><trkpt lat="44.1960532" lon="10.5085983"><ele>1351.0</ele><time>2026-04-26T10:45:57.236Z</time></trkpt><trkpt lat="44.1959827" lon="10.5087891"><ele>1345.0</ele><time>2026-04-26T10:45:58.236Z</time></trkpt><trkpt lat="44.1959305" lon="10.5089874"><ele>1339.0</ele><time>2026-04-26T10:45:59.233Z</time></trkpt><trkpt lat="44.1958288" lon="10.5091558"><ele>1339.0</ele><time>2026-04-26T10:46:00.24Z</time></trkpt><trkpt lat="44.1957144" lon="10.509304"><ele>1339.0</ele><time>2026-04-26T10:46:01.236Z</time></trkpt><trkpt lat="44.1956135" lon="10.5094709"><ele>1339.0</ele><time>2026-04-26T10:46:02.238Z</time></trkpt><trkpt lat="44.1955688" lon="10.5096968"><ele>1339.0</ele><time>2026-04-26T10:46:03.235Z</time></trkpt><trkpt lat="44.1955845" lon="10.5099732"><ele>1339.0</ele><time>2026-04-26T10:46:04.236Z</time></trkpt><trkpt lat="44.1955739" lon="10.5102528"><ele>1339.0</ele><time>2026-04-26T10:46:05.235Z</time></trkpt><trkpt lat="44.1955749" lon="10.5105499"><ele>1339.0</ele><time>2026-04-26T10:46:06.242Z</time></trkpt><trkpt lat="44.1955793" lon="10.5108294"><ele>1339.0</ele><time>2026-04-26T10:46:07.237Z</time></trkpt><trkpt lat="44.195619" lon="10.5111173"><ele>1339.0</ele><time>2026-04-26T10:46:08.243Z</time></trkpt><trkpt lat="44.1956792" lon="10.511396"><ele>1333.6666666666665</ele><time>2026-04-26T10:46:09.243Z</time></trkpt><trkpt lat="44.1957255" lon="10.5116493"><ele>1328.3333333333333</ele><time>2026-04-26T10:46:10.24Z</time></trkpt><trkpt lat="44.1957727" lon="10.5118708"><ele>1323.0</ele><time>2026-04-26T10:46:11.239Z</time></trkpt><trkpt lat="44.1958263" lon="10.512072"><ele>1323.6000000000001</ele><time>2026-04-26T10:46:12.24Z</time></trkpt><trkpt lat="44.1958942" lon="10.5122367"><ele>1324.2</ele><time>2026-04-26T10:46:13.238Z</time></trkpt><trkpt lat="44.1959574" lon="10.5123605"><ele>1324.8</ele><time>2026-04-26T10:46:14.24Z</time></trkpt><trkpt lat="44.1960286" lon="10.5124545"><ele>1325.4</ele><time>2026-04-26T10:46:15.239Z</time></trkpt><trkpt lat="44.1961055" lon="10.5125278"><ele>1326.0</ele><time>2026-04-26T10:46:16.238Z</time></trkpt><trkpt lat="44.1961936" lon="10.5125941"><ele>1326.0</ele><time>2026-04-26T10:46:17.24Z</time></trkpt><trkpt lat="44.1962926" lon="10.5126643"><ele>1326.0</ele><time>2026-04-26T10:46:18.241Z</time></trkpt><trkpt lat="44.1964014" lon="10.5127355"><ele>1326.0</ele><time>2026-04-26T10:46:19.239Z</time></trkpt><trkpt lat="44.1965204" lon="10.5128071"><ele>1326.0</ele><time>2026-04-26T10:46:20.261Z</time></trkpt><trkpt lat="44.1966486" lon="10.5128842"><ele>1325.75</ele><time>2026-04-26T10:46:21.245Z</time></trkpt><trkpt lat="44.196774" lon="10.51297"><ele>1325.5</ele><time>2026-04-26T10:46:22.236Z</time></trkpt><trkpt lat="44.1969111" lon="10.5130203"><ele>1325.25</ele><time>2026-04-26T10:46:23.244Z</time></trkpt><trkpt lat="44.1970501" lon="10.5130474"><ele>1325.0</ele><time>2026-04-26T10:46:24.24Z</time></trkpt><trkpt lat="44.1971939" lon="10.5130446"><ele>1325.0</ele><time>2026-04-26T10:46:25.241Z</time></trkpt><trkpt lat="44.1973343" lon="10.5129355"><ele>1325.0</ele><time>2026-04-26T10:46:26.27Z</time></trkpt><trkpt lat="44.1974734" lon="10.5127708"><ele>1325.0</ele><time>2026-04-26T10:46:27.241Z</time></trkpt><trkpt lat="44.1976076" lon="10.5126023"><ele>1323.0</ele><time>2026-04-26T10:46:28.237Z</time></trkpt><trkpt lat="44.1977252" lon="10.5124578"><ele>1321.0</ele><time>2026-04-26T10:46:29.238Z</time></trkpt><trkpt lat="44.1978369" lon="10.5123716"><ele>1319.0</ele><time>2026-04-26T10:46:30.242Z</time></trkpt><trkpt lat="44.1979374" lon="10.5122996"><ele>1317.0</ele><time>2026-04-26T10:46:31.243Z</time></trkpt><trkpt lat="44.1980232" lon="10.5123193"><ele>1317.0</ele><time>2026-04-26T10:46:32.238Z</time></trkpt><trkpt lat="44.1980841" lon="10.5124111"><ele>1317.0</ele><time>2026-04-26T10:46:33.242Z</time></trkpt><trkpt lat="44.1981214" lon="10.5125853"><ele>1317.0</ele><time>2026-04-26T10:46:34.235Z</time></trkpt><trkpt lat="44.1981663" lon="10.5127725"><ele>1317.0</ele><time>2026-04-26T10:46:35.267Z</time></trkpt><trkpt lat="44.1981651" lon="10.5129953"><ele>1317.75</ele><time>2026-04-26T10:46:36.239Z</time></trkpt><trkpt lat="44.1981603" lon="10.5132071"><ele>1318.5</ele><time>2026-04-26T10:46:37.236Z</time></trkpt><trkpt lat="44.1981203" lon="10.5133861"><ele>1319.25</ele><time>2026-04-26T10:46:38.233Z</time></trkpt><trkpt lat="44.1980825" lon="10.5135444"><ele>1320.0</ele><time>2026-04-26T10:46:39.237Z</time></trkpt><trkpt lat="44.1980915" lon="10.5136993"><ele>1319.5</ele><time>2026-04-26T10:46:40.238Z</time></trkpt><trkpt lat="44.1981627" lon="10.5138503"><ele>1319.0</ele><time>2026-04-26T10:46:41.236Z</time></trkpt><trkpt lat="44.1982543" lon="10.5139837"><ele>1318.5</ele><time>2026-04-26T10:46:42.231Z</time></trkpt><trkpt lat="44.1983449" lon="10.5141197"><ele>1318.0</ele><time>2026-04-26T10:46:43.234Z</time></trkpt><trkpt lat="44.1983839" lon="10.5142554"><ele>1315.5</ele><time>2026-04-26T10:46:44.235Z</time></trkpt><trkpt lat="44.1983674" lon="10.5144012"><ele>1313.0</ele><time>2026-04-26T10:46:45.233Z</time></trkpt><trkpt lat="44.19829" lon="10.5145166"><ele>1310.5</ele><time>2026-04-26T10:46:46.252Z</time></trkpt><trkpt lat="44.1981667" lon="10.5146552"><ele>1308.0</ele><time>2026-04-26T10:46:47.241Z</time></trkpt><trkpt lat="44.1980452" lon="10.5148555"><ele>1308.0</ele><time>2026-04-26T10:46:48.237Z</time></trkpt><trkpt lat="44.1979621" lon="10.5150338"><ele>1308.0</ele><time>2026-04-26T10:46:49.239Z</time></trkpt><trkpt lat="44.1978932" lon="10.5151953"><ele>1308.0</ele><time>2026-04-26T10:46:50.24Z</time></trkpt><trkpt lat="44.1978102" lon="10.5153292"><ele>1308.0</ele><time>2026-04-26T10:46:51.25Z</time></trkpt><trkpt lat="44.1977374" lon="10.5154621"><ele>1303.5</ele><time>2026-04-26T10:46:52.249Z</time></trkpt><trkpt lat="44.1976536" lon="10.5155667"><ele>1299.0</ele><time>2026-04-26T10:46:53.239Z</time></trkpt><trkpt lat="44.1975383" lon="10.5156416"><ele>1294.5</ele><time>2026-04-26T10:46:54.242Z</time></trkpt><trkpt lat="44.1974401" lon="10.5157251"><ele>1290.0</ele><time>2026-04-26T10:46:55.239Z</time></trkpt><trkpt lat="44.1973462" lon="10.5158161"><ele>1292.25</ele><time>2026-04-26T10:46:56.244Z</time></trkpt><trkpt lat="44.1972683" lon="10.5159384"><ele>1294.5</ele><time>2026-04-26T10:46:57.267Z</time></trkpt><trkpt lat="44.1972012" lon="10.5160776"><ele>1296.75</ele><time>2026-04-26T10:46:58.236Z</time></trkpt><trkpt lat="44.1970743" lon="10.5161726"><ele>1299.0</ele><time>2026-04-26T10:46:59.236Z</time></trkpt><trkpt lat="44.1968929" lon="10.5162458"><ele>1295.6666666666667</ele><time>2026-04-26T10:47:00.231Z</time></trkpt><trkpt lat="44.1967438" lon="10.5163249"><ele>1292.3333333333335</ele><time>2026-04-26T10:47:01.232Z</time></trkpt><trkpt lat="44.1966021" lon="10.5164316"><ele>1289.0</ele><time>2026-04-26T10:47:02.234Z</time></trkpt><trkpt lat="44.1964851" lon="10.5165533"><ele>1289.0</ele><time>2026-04-26T10:47:03.236Z</time></trkpt><trkpt lat="44.196363" lon="10.5166548"><ele>1289.0</ele><time>2026-04-26T10:47:04.24Z</time></trkpt><trkpt lat="44.196261" lon="10.5167723"><ele>1289.0</ele><time>2026-04-26T10:47:05.235Z</time></trkpt><trkpt lat="44.196203" lon="10.516898"><ele>1289.0</ele><time>2026-04-26T10:47:06.254Z</time></trkpt><trkpt lat="44.1962128" lon="10.5170724"><ele>1288.25</ele><time>2026-04-26T10:47:07.239Z</time></trkpt><trkpt lat="44.1962663" lon="10.5172273"><ele>1287.5</ele><time>2026-04-26T10:47:08.241Z</time></trkpt><trkpt lat="44.1963524" lon="10.5173452"><ele>1286.75</ele><time>2026-04-26T10:47:09.236Z</time></trkpt><trkpt lat="44.1964752" lon="10.5174332"><ele>1286.0</ele><time>2026-04-26T10:47:10.241Z</time></trkpt><trkpt lat="44.1966129" lon="10.5175218"><ele>1285.5</ele><time>2026-04-26T10:47:11.237Z</time></trkpt><trkpt lat="44.1967587" lon="10.517588"><ele>1285.0</ele><time>2026-04-26T10:47:12.242Z</time></trkpt><trkpt lat="44.1968869" lon="10.5176838"><ele>1284.5</ele><time>2026-04-26T10:47:13.243Z</time></trkpt><trkpt lat="44.1970107" lon="10.5177866"><ele>1284.0</ele><time>2026-04-26T10:47:14.241Z</time></trkpt><trkpt lat="44.1971165" lon="10.517915"><ele>1284.0</ele><time>2026-04-26T10:47:15.24Z</time></trkpt><trkpt lat="44.1971903" lon="10.5180702"><ele>1284.0</ele><time>2026-04-26T10:47:16.236Z</time></trkpt><trkpt lat="44.1972737" lon="10.5182327"><ele>1284.0</ele><time>2026-04-26T10:47:17.258Z</time></trkpt><trkpt lat="44.1973712" lon="10.5183952"><ele>1284.0</ele><time>2026-04-26T10:47:18.241Z</time></trkpt><trkpt lat="44.1974794" lon="10.5185671"><ele>1282.3333333333333</ele><time>2026-04-26T10:47:19.241Z</time></trkpt><trkpt lat="44.1975935" lon="10.518727"><ele>1280.6666666666665</ele><time>2026-04-26T10:47:20.243Z</time></trkpt><trkpt lat="44.1976845" lon="10.5189051"><ele>1279.0</ele><time>2026-04-26T10:47:21.233Z</time></trkpt><trkpt lat="44.1977544" lon="10.5191226"><ele>1279.0</ele><time>2026-04-26T10:47:22.241Z</time></trkpt><trkpt lat="44.1978267" lon="10.5193241"><ele>1279.0</ele><time>2026-04-26T10:47:23.235Z</time></trkpt><trkpt lat="44.197895" lon="10.5195029"><ele>1279.0</ele><time>2026-04-26T10:47:24.233Z</time></trkpt><trkpt lat="44.1979205" lon="10.5196809"><ele>1279.0</ele><time>2026-04-26T10:47:25.239Z</time></trkpt><trkpt lat="44.1979187" lon="10.5198575"><ele>1279.0</ele><time>2026-04-26T10:47:26.237Z</time></trkpt><trkpt lat="44.1979023" lon="10.5200428"><ele>1279.0</ele><time>2026-04-26T10:47:27.235Z</time></trkpt><trkpt lat="44.1978533" lon="10.5202048"><ele>1279.0</ele><time>2026-04-26T10:47:28.241Z</time></trkpt><trkpt lat="44.1977338" lon="10.5203624"><ele>1279.0</ele><time>2026-04-26T10:47:29.244Z</time></trkpt><trkpt lat="44.1976137" lon="10.5205143"><ele>1278.0</ele><time>2026-04-26T10:47:30.239Z</time></trkpt><trkpt lat="44.1975398" lon="10.5206879"><ele>1277.0</ele><time>2026-04-26T10:47:31.238Z</time></trkpt><trkpt lat="44.197497" lon="10.520876"><ele>1276.0</ele><time>2026-04-26T10:47:32.235Z</time></trkpt><trkpt lat="44.1974739" lon="10.5210796"><ele>1275.0</ele><time>2026-04-26T10:47:33.238Z</time></trkpt><trkpt lat="44.1974723" lon="10.5212825"><ele>1274.0</ele><time>2026-04-26T10:47:34.235Z</time></trkpt><trkpt lat="44.1974933" lon="10.5214834"><ele>1273.0</ele><time>2026-04-26T10:47:35.242Z</time></trkpt><trkpt lat="44.1975501" lon="10.5216875"><ele>1272.0</ele><time>2026-04-26T10:47:36.24Z</time></trkpt><trkpt lat="44.1976132" lon="10.5219026"><ele>1273.0</ele><time>2026-04-26T10:47:37.232Z</time></trkpt><trkpt lat="44.1977065" lon="10.5221085"><ele>1274.0</ele><time>2026-04-26T10:47:38.257Z</time></trkpt><trkpt lat="44.1977946" lon="10.522331"><ele>1275.0</ele><time>2026-04-26T10:47:39.238Z</time></trkpt><trkpt lat="44.1978619" lon="10.5225493"><ele>1275.0</ele><time>2026-04-26T10:47:40.24Z</time></trkpt><trkpt lat="44.1979043" lon="10.5227381"><ele>1275.0</ele><time>2026-04-26T10:47:41.24Z</time></trkpt><trkpt lat="44.1979543" lon="10.522904"><ele>1275.0</ele><time>2026-04-26T10:47:42.24Z</time></trkpt><trkpt lat="44.197967" lon="10.5230666"><ele>1275.0</ele><time>2026-04-26T10:47:43.243Z</time></trkpt><trkpt lat="44.1979569" lon="10.5232642"><ele>1275.0</ele><time>2026-04-26T10:47:44.241Z</time></trkpt><trkpt lat="44.197924" lon="10.5234745"><ele>1275.0</ele><time>2026-04-26T10:47:45.241Z</time></trkpt><trkpt lat="44.197879" lon="10.5236903"><ele>1275.0</ele><time>2026-04-26T10:47:46.241Z</time></trkpt><trkpt lat="44.1978359" lon="10.5239074"><ele>1273.25</ele><time>2026-04-26T10:47:47.243Z</time></trkpt><trkpt lat="44.1978096" lon="10.5241151"><ele>1271.5</ele><time>2026-04-26T10:47:48.239Z</time></trkpt><trkpt lat="44.197793" lon="10.5243091"><ele>1269.75</ele><time>2026-04-26T10:47:49.243Z</time></trkpt><trkpt lat="44.1977893" lon="10.5244859"><ele>1268.0</ele><time>2026-04-26T10:47:50.25Z</time></trkpt><trkpt lat="44.1978347" lon="10.5246416"><ele>1267.2</ele><time>2026-04-26T10:47:51.243Z</time></trkpt><trkpt lat="44.1978711" lon="10.5248019"><ele>1266.4</ele><time>2026-04-26T10:47:52.239Z</time></trkpt><trkpt lat="44.197877" lon="10.5249423"><ele>1265.6000000000001</ele><time>2026-04-26T10:47:53.238Z</time></trkpt><trkpt lat="44.1978382" lon="10.5250665"><ele>1264.8</ele><time>2026-04-26T10:47:54.236Z</time></trkpt><trkpt lat="44.1977377" lon="10.5251776"><ele>1264.0</ele><time>2026-04-26T10:47:55.244Z</time></trkpt><trkpt lat="44.1976126" lon="10.5252833"><ele>1260.6666666666665</ele><time>2026-04-26T10:47:56.235Z</time></trkpt><trkpt lat="44.1975122" lon="10.5254468"><ele>1257.3333333333333</ele><time>2026-04-26T10:47:57.247Z</time></trkpt><trkpt lat="44.197441" lon="10.5256636"><ele>1254.0</ele><time>2026-04-26T10:47:58.245Z</time></trkpt><trkpt lat="44.1974162" lon="10.525884"><ele>1254.0</ele><time>2026-04-26T10:47:59.24Z</time></trkpt><trkpt lat="44.1973935" lon="10.5261253"><ele>1254.0</ele><time>2026-04-26T10:48:00.244Z</time></trkpt><trkpt lat="44.1973799" lon="10.526337"><ele>1254.0</ele><time>2026-04-26T10:48:01.241Z</time></trkpt><trkpt lat="44.1973479" lon="10.526538"><ele>1253.25</ele><time>2026-04-26T10:48:02.235Z</time></trkpt><trkpt lat="44.1973372" lon="10.5267387"><ele>1252.5</ele><time>2026-04-26T10:48:03.261Z</time></trkpt><trkpt lat="44.1973579" lon="10.5269303"><ele>1251.75</ele><time>2026-04-26T10:48:04.231Z</time></trkpt><trkpt lat="44.1973818" lon="10.5270992"><ele>1251.0</ele><time>2026-04-26T10:48:05.235Z</time></trkpt><trkpt lat="44.1974063" lon="10.5272527"><ele>1251.0</ele><time>2026-04-26T10:48:06.245Z</time></trkpt><trkpt lat="44.1974166" lon="10.5274079"><ele>1251.0</ele><time>2026-04-26T10:48:07.235Z</time></trkpt><trkpt lat="44.1974622" lon="10.5275463"><ele>1251.0</ele><time>2026-04-26T10:48:08.239Z</time></trkpt><trkpt lat="44.1975502" lon="10.5276866"><ele>1251.0</ele><time>2026-04-26T10:48:09.239Z</time></trkpt><trkpt lat="44.1976533" lon="10.5278292"><ele>1251.25</ele><time>2026-04-26T10:48:10.243Z</time></trkpt><trkpt lat="44.1977633" lon="10.5279771"><ele>1251.5</ele><time>2026-04-26T10:48:11.24Z</time></trkpt><trkpt lat="44.1978735" lon="10.5281119"><ele>1251.75</ele><time>2026-04-26T10:48:12.24Z</time></trkpt><trkpt lat="44.1979814" lon="10.5282415"><ele>1252.0</ele><time>2026-04-26T10:48:13.239Z</time></trkpt><trkpt lat="44.1980925" lon="10.5283804"><ele>1250.0</ele><time>2026-04-26T10:48:14.24Z</time></trkpt><trkpt lat="44.1982121" lon="10.5284758"><ele>1248.0</ele><time>2026-04-26T10:48:15.239Z</time></trkpt><trkpt lat="44.1983302" lon="10.5285706"><ele>1246.0</ele><time>2026-04-26T10:48:16.232Z</time></trkpt><trkpt lat="44.1984525" lon="10.528624"><ele>1244.0</ele><time>2026-04-26T10:48:17.24Z</time></trkpt><trkpt lat="44.1985665" lon="10.5286763"><ele>1243.25</ele><time>2026-04-26T10:48:18.241Z</time></trkpt><trkpt lat="44.1986538" lon="10.5287789"><ele>1242.5</ele><time>2026-04-26T10:48:19.246Z</time></trkpt><trkpt lat="44.1987065" lon="10.5289196"><ele>1241.75</ele><time>2026-04-26T10:48:20.237Z</time></trkpt><trkpt lat="44.1987058" lon="10.5290738"><ele>1241.0</ele><time>2026-04-26T10:48:21.239Z</time></trkpt><trkpt lat="44.1986547" lon="10.5292194"><ele>1241.0</ele><time>2026-04-26T10:48:22.24Z</time></trkpt><trkpt lat="44.1985675" lon="10.5293144"><ele>1241.0</ele><time>2026-04-26T10:48:23.245Z</time></trkpt><trkpt lat="44.1984684" lon="10.5293714"><ele>1241.0</ele><time>2026-04-26T10:48:24.24Z</time></trkpt><trkpt lat="44.1983882" lon="10.5294543"><ele>1241.0</ele><time>2026-04-26T10:48:25.257Z</time></trkpt><trkpt lat="44.198319" lon="10.5295564"><ele>1241.0</ele><time>2026-04-26T10:48:26.24Z</time></trkpt><trkpt lat="44.1982894" lon="10.5297015"><ele>1239.25</ele><time>2026-04-26T10:48:27.236Z</time></trkpt><trkpt lat="44.1982788" lon="10.5298847"><ele>1237.5</ele><time>2026-04-26T10:48:28.239Z</time></trkpt><trkpt lat="44.1982418" lon="10.5300379"><ele>1235.75</ele><time>2026-04-26T10:48:29.233Z</time></trkpt><trkpt lat="44.1981742" lon="10.5301441"><ele>1234.0</ele><time>2026-04-26T10:48:30.234Z</time></trkpt><trkpt lat="44.1980702" lon="10.5301654"><ele>1233.6666666666665</ele><time>2026-04-26T10:48:31.238Z</time></trkpt><trkpt lat="44.1979242" lon="10.5301611"><ele>1233.3333333333333</ele><time>2026-04-26T10:48:32.247Z</time></trkpt><trkpt lat="44.1977621" lon="10.5302148"><ele>1233.0</ele><time>2026-04-26T10:48:33.236Z</time></trkpt><trkpt lat="44.1976045" lon="10.5303334"><ele>1231.0</ele><time>2026-04-26T10:48:34.238Z</time></trkpt><trkpt lat="44.1974751" lon="10.5304712"><ele>1229.0</ele><time>2026-04-26T10:48:35.236Z</time></trkpt><trkpt lat="44.1973467" lon="10.5305884"><ele>1227.0</ele><time>2026-04-26T10:48:36.239Z</time></trkpt><trkpt lat="44.1972287" lon="10.5307405"><ele>1227.0</ele><time>2026-04-26T10:48:37.239Z</time></trkpt><trkpt lat="44.197158" lon="10.5309146"><ele>1227.0</ele><time>2026-04-26T10:48:38.24Z</time></trkpt><trkpt lat="44.1970947" lon="10.5310856"><ele>1227.0</ele><time>2026-04-26T10:48:39.241Z</time></trkpt><trkpt lat="44.1970671" lon="10.5312687"><ele>1227.0</ele><time>2026-04-26T10:48:40.241Z</time></trkpt><trkpt lat="44.1970795" lon="10.5314334"><ele>1225.6666666666667</ele><time>2026-04-26T10:48:41.245Z</time></trkpt><trkpt lat="44.1970844" lon="10.5315715"><ele>1224.3333333333333</ele><time>2026-04-26T10:48:42.241Z</time></trkpt><trkpt lat="44.1970609" lon="10.5316927"><ele>1223.0</ele><time>2026-04-26T10:48:43.241Z</time></trkpt><trkpt lat="44.1970252" lon="10.5317943"><ele>1221.6666666666665</ele><time>2026-04-26T10:48:44.239Z</time></trkpt><trkpt lat="44.1969646" lon="10.5318255"><ele>1220.3333333333333</ele><time>2026-04-26T10:48:45.272Z</time></trkpt><trkpt lat="44.1968616" lon="10.5317814"><ele>1219.0</ele><time>2026-04-26T10:48:46.238Z</time></trkpt><trkpt lat="44.1967339" lon="10.5317573"><ele>1219.0</ele><time>2026-04-26T10:48:47.243Z</time></trkpt><trkpt lat="44.1966221" lon="10.5316752"><ele>1219.0</ele><time>2026-04-26T10:48:48.24Z</time></trkpt><trkpt lat="44.1965475" lon="10.5315327"><ele>1219.0</ele><time>2026-04-26T10:48:49.242Z</time></trkpt><trkpt lat="44.1964557" lon="10.5314655"><ele>1219.0</ele><time>2026-04-26T10:48:50.241Z</time></trkpt><trkpt lat="44.1963511" lon="10.531464"><ele>1219.2</ele><time>2026-04-26T10:48:51.237Z</time></trkpt><trkpt lat="44.1962884" lon="10.5315356"><ele>1219.4</ele><time>2026-04-26T10:48:52.237Z</time></trkpt><trkpt lat="44.1962178" lon="10.5316685"><ele>1219.6</ele><time>2026-04-26T10:48:53.242Z</time></trkpt><trkpt lat="44.1962255" lon="10.5318064"><ele>1219.8</ele><time>2026-04-26T10:48:54.238Z</time></trkpt><trkpt lat="44.1962641" lon="10.5319495"><ele>1220.0</ele><time>2026-04-26T10:48:55.239Z</time></trkpt><trkpt lat="44.1963271" lon="10.5320923"><ele>1220.0</ele><time>2026-04-26T10:48:56.24Z</time></trkpt><trkpt lat="44.1963723" lon="10.532256"><ele>1220.0</ele><time>2026-04-26T10:48:57.242Z</time></trkpt><trkpt lat="44.1963662" lon="10.532427"><ele>1220.0</ele><time>2026-04-26T10:48:58.238Z</time></trkpt><trkpt lat="44.1963471" lon="10.5326081"><ele>1220.0</ele><time>2026-04-26T10:48:59.254Z</time></trkpt><trkpt lat="44.1963516" lon="10.5327723"><ele>1219.0</ele><time>2026-04-26T10:49:00.237Z</time></trkpt><trkpt lat="44.1963696" lon="10.5329468"><ele>1218.0</ele><time>2026-04-26T10:49:01.239Z</time></trkpt><trkpt lat="44.1964513" lon="10.5331041"><ele>1217.0</ele><time>2026-04-26T10:49:02.237Z</time></trkpt><trkpt lat="44.1965547" lon="10.5332476"><ele>1216.0</ele><time>2026-04-26T10:49:03.239Z</time></trkpt><trkpt lat="44.1966624" lon="10.5333777"><ele>1213.25</ele><time>2026-04-26T10:49:04.235Z</time></trkpt><trkpt lat="44.1967539" lon="10.5334951"><ele>1210.5</ele><time>2026-04-26T10:49:05.236Z</time></trkpt><trkpt lat="44.1968266" lon="10.5336336"><ele>1207.75</ele><time>2026-04-26T10:49:06.236Z</time></trkpt><trkpt lat="44.1968633" lon="10.5337944"><ele>1205.0</ele><time>2026-04-26T10:49:07.26Z</time></trkpt><trkpt lat="44.1968814" lon="10.5339714"><ele>1203.5</ele><time>2026-04-26T10:49:08.238Z</time></trkpt><trkpt lat="44.1968625" lon="10.5341393"><ele>1202.0</ele><time>2026-04-26T10:49:09.248Z</time></trkpt><trkpt lat="44.1968367" lon="10.5343215"><ele>1200.5</ele><time>2026-04-26T10:49:10.258Z</time></trkpt><trkpt lat="44.1968353" lon="10.5345007"><ele>1199.0</ele><time>2026-04-26T10:49:11.245Z</time></trkpt><trkpt lat="44.1968423" lon="10.5346744"><ele>1198.75</ele><time>2026-04-26T10:49:12.236Z</time></trkpt><trkpt lat="44.1968585" lon="10.5348488"><ele>1198.5</ele><time>2026-04-26T10:49:13.247Z</time></trkpt><trkpt lat="44.196875" lon="10.5350246"><ele>1198.25</ele><time>2026-04-26T10:49:14.239Z</time></trkpt><trkpt lat="44.1968921" lon="10.5352034"><ele>1198.0</ele><time>2026-04-26T10:49:15.247Z</time></trkpt><trkpt lat="44.1969087" lon="10.535384"><ele>1196.75</ele><time>2026-04-26T10:49:16.246Z</time></trkpt><trkpt lat="44.1969168" lon="10.5355523"><ele>1195.5</ele><time>2026-04-26T10:49:17.246Z</time></trkpt><trkpt lat="44.1969095" lon="10.5357147"><ele>1194.25</ele><time>2026-04-26T10:49:18.239Z</time></trkpt><trkpt lat="44.1968975" lon="10.5358964"><ele>1193.0</ele><time>2026-04-26T10:49:19.238Z</time></trkpt><trkpt lat="44.1968702" lon="10.536059"><ele>1193.0</ele><time>2026-04-26T10:49:20.237Z</time></trkpt><trkpt lat="44.1968443" lon="10.5362168"><ele>1193.0</ele><time>2026-04-26T10:49:21.243Z</time></trkpt><trkpt lat="44.1967935" lon="10.5363875"><ele>1193.0</ele><time>2026-04-26T10:49:22.244Z</time></trkpt><trkpt lat="44.1967085" lon="10.5365524"><ele>1193.0</ele><time>2026-04-26T10:49:23.237Z</time></trkpt><trkpt lat="44.1966429" lon="10.5367225"><ele>1190.75</ele><time>2026-04-26T10:49:24.241Z</time></trkpt><trkpt lat="44.1965855" lon="10.5368894"><ele>1188.5</ele><time>2026-04-26T10:49:25.239Z</time></trkpt><trkpt lat="44.196537" lon="10.5370466"><ele>1186.25</ele><time>2026-04-26T10:49:26.248Z</time></trkpt><trkpt lat="44.196502" lon="10.5372003"><ele>1184.0</ele><time>2026-04-26T10:49:27.238Z</time></trkpt><trkpt lat="44.1965163" lon="10.5373854"><ele>1181.75</ele><time>2026-04-26T10:49:28.244Z</time></trkpt><trkpt lat="44.1965452" lon="10.5375801"><ele>1179.5</ele><time>2026-04-26T10:49:29.278Z</time></trkpt><trkpt lat="44.196588" lon="10.5377701"><ele>1177.25</ele><time>2026-04-26T10:49:30.239Z</time></trkpt><trkpt lat="44.1966144" lon="10.5379647"><ele>1175.0</ele><time>2026-04-26T10:49:31.243Z</time></trkpt><trkpt lat="44.1966324" lon="10.5381543"><ele>1173.5</ele><time>2026-04-26T10:49:32.247Z</time></trkpt><trkpt lat="44.1966379" lon="10.5383459"><ele>1172.0</ele><time>2026-04-26T10:49:33.246Z</time></trkpt><trkpt lat="44.1966348" lon="10.5385366"><ele>1170.5</ele><time>2026-04-26T10:49:34.249Z</time></trkpt><trkpt lat="44.1966239" lon="10.5387095"><ele>1169.0</ele><time>2026-04-26T10:49:35.24Z</time></trkpt><trkpt lat="44.1965993" lon="10.5388582"><ele>1168.0</ele><time>2026-04-26T10:49:36.241Z</time></trkpt><trkpt lat="44.1965719" lon="10.5390008"><ele>1167.0</ele><time>2026-04-26T10:49:37.242Z</time></trkpt><trkpt lat="44.1964769" lon="10.5391037"><ele>1166.0</ele><time>2026-04-26T10:49:38.247Z</time></trkpt><trkpt lat="44.1963509" lon="10.5391842"><ele>1165.0</ele><time>2026-04-26T10:49:39.248Z</time></trkpt><trkpt lat="44.196216" lon="10.5392723"><ele>1165.0</ele><time>2026-04-26T10:49:40.239Z</time></trkpt><trkpt lat="44.1960612" lon="10.5394022"><ele>1165.0</ele><time>2026-04-26T10:49:41.236Z</time></trkpt><trkpt lat="44.1959321" lon="10.5395471"><ele>1165.0</ele><time>2026-04-26T10:49:42.241Z</time></trkpt><trkpt lat="44.1958011" lon="10.5396798"><ele>1163.6</ele><time>2026-04-26T10:49:43.236Z</time></trkpt><trkpt lat="44.1956883" lon="10.5397781"><ele>1162.2</ele><time>2026-04-26T10:49:44.236Z</time></trkpt><trkpt lat="44.1955572" lon="10.5397966"><ele>1160.8</ele><time>2026-04-26T10:49:45.236Z</time></trkpt><trkpt lat="44.1954687" lon="10.5397423"><ele>1159.4</ele><time>2026-04-26T10:49:46.238Z</time></trkpt><trkpt lat="44.195382" lon="10.5397307"><ele>1158.0</ele><time>2026-04-26T10:49:47.236Z</time></trkpt><trkpt lat="44.1953209" lon="10.5397902"><ele>1158.0</ele><time>2026-04-26T10:49:48.245Z</time></trkpt><trkpt lat="44.1953152" lon="10.5398994"><ele>1158.0</ele><time>2026-04-26T10:49:49.24Z</time></trkpt><trkpt lat="44.1953405" lon="10.5400458"><ele>1158.0</ele><time>2026-04-26T10:49:50.244Z</time></trkpt><trkpt lat="44.1953716" lon="10.5402078"><ele>1158.0</ele><time>2026-04-26T10:49:51.234Z</time></trkpt><trkpt lat="44.1954305" lon="10.5404364"><ele>1156.6666666666667</ele><time>2026-04-26T10:49:52.246Z</time></trkpt><trkpt lat="44.1955025" lon="10.5406317"><ele>1155.3333333333335</ele><time>2026-04-26T10:49:53.238Z</time></trkpt><trkpt lat="44.195586" lon="10.5408091"><ele>1154.0</ele><time>2026-04-26T10:49:54.246Z</time></trkpt><trkpt lat="44.1956658" lon="10.5409809"><ele>1152.75</ele><time>2026-04-26T10:49:55.243Z</time></trkpt><trkpt lat="44.1957328" lon="10.5411531"><ele>1151.5</ele><time>2026-04-26T10:49:56.236Z</time></trkpt><trkpt lat="44.1957536" lon="10.5413325"><ele>1150.25</ele><time>2026-04-26T10:49:57.233Z</time></trkpt><trkpt lat="44.1957716" lon="10.5414891"><ele>1149.0</ele><time>2026-04-26T10:49:58.235Z</time></trkpt><trkpt lat="44.1957837" lon="10.541643"><ele>1147.5</ele><time>2026-04-26T10:49:59.24Z</time></trkpt><trkpt lat="44.1957911" lon="10.5418009"><ele>1146.0</ele><time>2026-04-26T10:50:00.241Z</time></trkpt><trkpt lat="44.1957814" lon="10.5419601"><ele>1144.5</ele><time>2026-04-26T10:50:01.237Z</time></trkpt><trkpt lat="44.1957753" lon="10.5421248"><ele>1143.0</ele><time>2026-04-26T10:50:02.244Z</time></trkpt><trkpt lat="44.1957699" lon="10.5422784"><ele>1141.6</ele><time>2026-04-26T10:50:03.24Z</time></trkpt><trkpt lat="44.1957575" lon="10.5424243"><ele>1140.1999999999998</ele><time>2026-04-26T10:50:04.239Z</time></trkpt><trkpt lat="44.1957424" lon="10.542571"><ele>1138.8</ele><time>2026-04-26T10:50:05.245Z</time></trkpt><trkpt lat="44.1957218" lon="10.5427214"><ele>1137.3999999999999</ele><time>2026-04-26T10:50:06.238Z</time></trkpt><trkpt lat="44.1956859" lon="10.5428778"><ele>1136.0</ele><time>2026-04-26T10:50:07.24Z</time></trkpt><trkpt lat="44.1956323" lon="10.5430362"><ele>1135.5</ele><time>2026-04-26T10:50:08.237Z</time></trkpt><trkpt lat="44.1955746" lon="10.5431898"><ele>1135.0</ele><time>2026-04-26T10:50:09.235Z</time></trkpt><trkpt lat="44.1955069" lon="10.5433316"><ele>1134.5</ele><time>2026-04-26T10:50:10.257Z</time></trkpt><trkpt lat="44.1954464" lon="10.5434716"><ele>1134.0</ele><time>2026-04-26T10:50:11.236Z</time></trkpt><trkpt lat="44.195384" lon="10.5436084"><ele>1132.5</ele><time>2026-04-26T10:50:12.241Z</time></trkpt><trkpt lat="44.1953078" lon="10.5437392"><ele>1131.0</ele><time>2026-04-26T10:50:13.237Z</time></trkpt><trkpt lat="44.1952181" lon="10.5438539"><ele>1129.5</ele><time>2026-04-26T10:50:14.242Z</time></trkpt><trkpt lat="44.1951152" lon="10.5439309"><ele>1128.0</ele><time>2026-04-26T10:50:15.244Z</time></trkpt><trkpt lat="44.1950008" lon="10.5439912"><ele>1128.0</ele><time>2026-04-26T10:50:16.24Z</time></trkpt><trkpt lat="44.1948703" lon="10.5440063"><ele>1128.0</ele><time>2026-04-26T10:50:17.248Z</time></trkpt><trkpt lat="44.1947588" lon="10.544025"><ele>1128.0</ele><time>2026-04-26T10:50:18.24Z</time></trkpt><trkpt lat="44.1946589" lon="10.5440664"><ele>1128.0</ele><time>2026-04-26T10:50:19.24Z</time></trkpt><trkpt lat="44.1945706" lon="10.5441478"><ele>1128.0</ele><time>2026-04-26T10:50:20.239Z</time></trkpt><trkpt lat="44.194524" lon="10.5442615"><ele>1128.0</ele><time>2026-04-26T10:50:21.234Z</time></trkpt><trkpt lat="44.1945205" lon="10.5444027"><ele>1128.0</ele><time>2026-04-26T10:50:22.239Z</time></trkpt><trkpt lat="44.1945461" lon="10.5445576"><ele>1128.0</ele><time>2026-04-26T10:50:23.234Z</time></trkpt><trkpt lat="44.1945828" lon="10.5447231"><ele>1128.0</ele><time>2026-04-26T10:50:24.24Z</time></trkpt><trkpt lat="44.1946219" lon="10.5448845"><ele>1126.6</ele><time>2026-04-26T10:50:25.239Z</time></trkpt><trkpt lat="44.1946526" lon="10.5450436"><ele>1125.1999999999998</ele><time>2026-04-26T10:50:26.238Z</time></trkpt><trkpt lat="44.1946617" lon="10.5451964"><ele>1123.8</ele><time>2026-04-26T10:50:27.244Z</time></trkpt><trkpt lat="44.1946581" lon="10.5453358"><ele>1122.3999999999999</ele><time>2026-04-26T10:50:28.242Z</time></trkpt><trkpt lat="44.1945969" lon="10.5454582"><ele>1121.0</ele><time>2026-04-26T10:50:29.254Z</time></trkpt><trkpt lat="44.1944906" lon="10.5455509"><ele>1119.75</ele><time>2026-04-26T10:50:30.241Z</time></trkpt><trkpt lat="44.1943661" lon="10.5456367"><ele>1118.5</ele><time>2026-04-26T10:50:31.246Z</time></trkpt><trkpt lat="44.1942258" lon="10.5457235"><ele>1117.25</ele><time>2026-04-26T10:50:32.238Z</time></trkpt><trkpt lat="44.1941181" lon="10.5458125"><ele>1116.0</ele><time>2026-04-26T10:50:33.241Z</time></trkpt><trkpt lat="44.1940251" lon="10.5459093"><ele>1115.6</ele><time>2026-04-26T10:50:34.24Z</time></trkpt><trkpt lat="44.1939283" lon="10.5459907"><ele>1115.1999999999998</ele><time>2026-04-26T10:50:35.246Z</time></trkpt><trkpt lat="44.1938456" lon="10.5460737"><ele>1114.8000000000002</ele><time>2026-04-26T10:50:36.239Z</time></trkpt><trkpt lat="44.1937627" lon="10.546153"><ele>1114.4</ele><time>2026-04-26T10:50:37.242Z</time></trkpt><trkpt lat="44.1936952" lon="10.5462516"><ele>1114.0</ele><time>2026-04-26T10:50:38.239Z</time></trkpt><trkpt lat="44.1936478" lon="10.5463763"><ele>1114.0</ele><time>2026-04-26T10:50:39.251Z</time></trkpt><trkpt lat="44.1936223" lon="10.5465259"><ele>1114.0</ele><time>2026-04-26T10:50:40.241Z</time></trkpt><trkpt lat="44.1935966" lon="10.5466903"><ele>1114.0</ele><time>2026-04-26T10:50:41.245Z</time></trkpt><trkpt lat="44.1935716" lon="10.5468641"><ele>1114.0</ele><time>2026-04-26T10:50:42.241Z</time></trkpt><trkpt lat="44.1935339" lon="10.5470242"><ele>1111.75</ele><time>2026-04-26T10:50:43.237Z</time></trkpt><trkpt lat="44.1934755" lon="10.5471869"><ele>1109.5</ele><time>2026-04-26T10:50:44.248Z</time></trkpt><trkpt lat="44.1933959" lon="10.5473364"><ele>1107.25</ele><time>2026-04-26T10:50:45.243Z</time></trkpt><trkpt lat="44.193314" lon="10.547481"><ele>1105.0</ele><time>2026-04-26T10:50:46.244Z</time></trkpt><trkpt lat="44.1932339" lon="10.5476246"><ele>1104.0</ele><time>2026-04-26T10:50:47.242Z</time></trkpt><trkpt lat="44.1931543" lon="10.5477591"><ele>1103.0</ele><time>2026-04-26T10:50:48.243Z</time></trkpt><trkpt lat="44.1930858" lon="10.5478853"><ele>1102.0</ele><time>2026-04-26T10:50:49.257Z</time></trkpt><trkpt lat="44.1930381" lon="10.5480114"><ele>1101.0</ele><time>2026-04-26T10:50:50.237Z</time></trkpt><trkpt lat="44.1930155" lon="10.5481403"><ele>1100.0</ele><time>2026-04-26T10:50:51.249Z</time></trkpt><trkpt lat="44.1930132" lon="10.5482634"><ele>1100.0</ele><time>2026-04-26T10:50:52.249Z</time></trkpt><trkpt lat="44.193012" lon="10.5483867"><ele>1100.0</ele><time>2026-04-26T10:50:53.24Z</time></trkpt><trkpt lat="44.1930041" lon="10.5484867"><ele>1100.0</ele><time>2026-04-26T10:50:54.244Z</time></trkpt><trkpt lat="44.1929469" lon="10.5485496"><ele>1100.0</ele><time>2026-04-26T10:50:55.24Z</time></trkpt><trkpt lat="44.1928501" lon="10.5485543"><ele>1100.0</ele><time>2026-04-26T10:50:56.236Z</time></trkpt><trkpt lat="44.1927425" lon="10.5485537"><ele>1100.0</ele><time>2026-04-26T10:50:57.246Z</time></trkpt><trkpt lat="44.192614" lon="10.5485332"><ele>1100.0</ele><time>2026-04-26T10:50:58.237Z</time></trkpt><trkpt lat="44.1924839" lon="10.5485097"><ele>1100.0</ele><time>2026-04-26T10:50:59.241Z</time></trkpt><trkpt lat="44.192359" lon="10.5484844"><ele>1100.0</ele><time>2026-04-26T10:51:00.235Z</time></trkpt><trkpt lat="44.1922386" lon="10.5485"><ele>1100.0</ele><time>2026-04-26T10:51:01.236Z</time></trkpt><trkpt lat="44.1921273" lon="10.5485621"><ele>1099.5</ele><time>2026-04-26T10:51:02.24Z</time></trkpt><trkpt lat="44.1920165" lon="10.5486298"><ele>1099.0</ele><time>2026-04-26T10:51:03.239Z</time></trkpt><trkpt lat="44.1919328" lon="10.5487664"><ele>1098.5</ele><time>2026-04-26T10:51:04.246Z</time></trkpt><trkpt lat="44.1918593" lon="10.5489134"><ele>1098.0</ele><time>2026-04-26T10:51:05.237Z</time></trkpt><trkpt lat="44.1918079" lon="10.5490915"><ele>1098.0</ele><time>2026-04-26T10:51:06.246Z</time></trkpt><trkpt lat="44.1917426" lon="10.5492625"><ele>1098.0</ele><time>2026-04-26T10:51:07.241Z</time></trkpt><trkpt lat="44.1916536" lon="10.5494182"><ele>1098.0</ele><time>2026-04-26T10:51:08.242Z</time></trkpt><trkpt lat="44.19158" lon="10.5495535"><ele>1098.0</ele><time>2026-04-26T10:51:09.238Z</time></trkpt><trkpt lat="44.1915182" lon="10.5496797"><ele>1099.25</ele><time>2026-04-26T10:51:10.241Z</time></trkpt><trkpt lat="44.1915086" lon="10.5498679"><ele>1100.5</ele><time>2026-04-26T10:51:11.24Z</time></trkpt><trkpt lat="44.1915052" lon="10.5500281"><ele>1101.75</ele><time>2026-04-26T10:51:12.235Z</time></trkpt><trkpt lat="44.1915036" lon="10.5501926"><ele>1103.0</ele><time>2026-04-26T10:51:13.248Z</time></trkpt><trkpt lat="44.1915144" lon="10.5503565"><ele>1100.5</ele><time>2026-04-26T10:51:14.24Z</time></trkpt><trkpt lat="44.1914982" lon="10.5505109"><ele>1098.0</ele><time>2026-04-26T10:51:15.237Z</time></trkpt><trkpt lat="44.1914609" lon="10.5506621"><ele>1095.5</ele><time>2026-04-26T10:51:16.238Z</time></trkpt><trkpt lat="44.1914112" lon="10.5507947"><ele>1093.0</ele><time>2026-04-26T10:51:17.236Z</time></trkpt><trkpt lat="44.1913338" lon="10.5509306"><ele>1093.0</ele><time>2026-04-26T10:51:18.25Z</time></trkpt><trkpt lat="44.1912672" lon="10.5510562"><ele>1093.0</ele><time>2026-04-26T10:51:19.235Z</time></trkpt><trkpt lat="44.1912018" lon="10.5511554"><ele>1093.0</ele><time>2026-04-26T10:51:20.237Z</time></trkpt><trkpt lat="44.1911362" lon="10.5512424"><ele>1093.0</ele><time>2026-04-26T10:51:21.238Z</time></trkpt><trkpt lat="44.1910829" lon="10.5513431"><ele>1093.0</ele><time>2026-04-26T10:51:22.242Z</time></trkpt><trkpt lat="44.1910468" lon="10.5514318"><ele>1091.4285714285716</ele><time>2026-04-26T10:51:23.24Z</time></trkpt><trkpt lat="44.1910771" lon="10.5515088"><ele>1089.857142857143</ele><time>2026-04-26T10:51:24.25Z</time></trkpt><trkpt lat="44.1911134" lon="10.5515878"><ele>1088.2857142857142</ele><time>2026-04-26T10:51:25.243Z</time></trkpt><trkpt lat="44.1911883" lon="10.5515876"><ele>1086.7142857142858</ele><time>2026-04-26T10:51:26.24Z</time></trkpt><trkpt lat="44.1912566" lon="10.5515803"><ele>1085.142857142857</ele><time>2026-04-26T10:51:27.241Z</time></trkpt><trkpt lat="44.1913343" lon="10.5515547"><ele>1083.5714285714287</ele><time>2026-04-26T10:51:28.243Z</time></trkpt><trkpt lat="44.1914202" lon="10.5515321"><ele>1082.0</ele><time>2026-04-26T10:51:29.244Z</time></trkpt><trkpt lat="44.191516" lon="10.5515048"><ele>1081.0</ele><time>2026-04-26T10:51:30.241Z</time></trkpt><trkpt lat="44.1916182" lon="10.5514668"><ele>1080.0</ele><time>2026-04-26T10:51:31.263Z</time></trkpt><trkpt lat="44.1917138" lon="10.5514326"><ele>1079.0</ele><time>2026-04-26T10:51:32.244Z</time></trkpt><trkpt lat="44.1918031" lon="10.5514415"><ele>1078.0</ele><time>2026-04-26T10:51:33.24Z</time></trkpt><trkpt lat="44.1918732" lon="10.5514858"><ele>1077.0</ele><time>2026-04-26T10:51:34.239Z</time></trkpt><trkpt lat="44.1919495" lon="10.551543"><ele>1077.0</ele><time>2026-04-26T10:51:35.24Z</time></trkpt><trkpt lat="44.1919971" lon="10.5516698"><ele>1077.0</ele><time>2026-04-26T10:51:36.254Z</time></trkpt><trkpt lat="44.1920206" lon="10.5517954"><ele>1077.0</ele><time>2026-04-26T10:51:37.236Z</time></trkpt><trkpt lat="44.1920688" lon="10.5519043"><ele>1077.0</ele><time>2026-04-26T10:51:38.248Z</time></trkpt><trkpt lat="44.1921033" lon="10.552018"><ele>1077.0</ele><time>2026-04-26T10:51:39.245Z</time></trkpt><trkpt lat="44.1920995" lon="10.5521403"><ele>1076.0</ele><time>2026-04-26T10:51:40.241Z</time></trkpt><trkpt lat="44.1920684" lon="10.5522487"><ele>1075.0</ele><time>2026-04-26T10:51:41.248Z</time></trkpt><trkpt lat="44.1920215" lon="10.5523505"><ele>1074.0</ele><time>2026-04-26T10:51:42.238Z</time></trkpt><trkpt lat="44.1919699" lon="10.5524419"><ele>1073.0</ele><time>2026-04-26T10:51:43.254Z</time></trkpt><trkpt lat="44.1919321" lon="10.5525326"><ele>1072.0</ele><time>2026-04-26T10:51:44.244Z</time></trkpt><trkpt lat="44.1918928" lon="10.5526214"><ele>1071.0</ele><time>2026-04-26T10:51:45.24Z</time></trkpt><trkpt lat="44.1918508" lon="10.5527139"><ele>1071.0</ele><time>2026-04-26T10:51:46.238Z</time></trkpt><trkpt lat="44.1918023" lon="10.5527988"><ele>1071.0</ele><time>2026-04-26T10:51:47.242Z</time></trkpt><trkpt lat="44.191742" lon="10.5528747"><ele>1071.0</ele><time>2026-04-26T10:51:48.24Z</time></trkpt><trkpt lat="44.1916693" lon="10.5529394"><ele>1071.0</ele><time>2026-04-26T10:51:49.245Z</time></trkpt><trkpt lat="44.191581" lon="10.5529846"><ele>1071.0</ele><time>2026-04-26T10:51:50.251Z</time></trkpt><trkpt lat="44.1914799" lon="10.5530172"><ele>1071.0</ele><time>2026-04-26T10:51:51.242Z</time></trkpt><trkpt lat="44.1913801" lon="10.5530412"><ele>1069.0</ele><time>2026-04-26T10:51:52.239Z</time></trkpt><trkpt lat="44.1912883" lon="10.5530536"><ele>1067.0</ele><time>2026-04-26T10:51:53.236Z</time></trkpt><trkpt lat="44.1911972" lon="10.553075"><ele>1065.0</ele><time>2026-04-26T10:51:54.237Z</time></trkpt><trkpt lat="44.1911125" lon="10.5531077"><ele>1063.0</ele><time>2026-04-26T10:51:55.245Z</time></trkpt><trkpt lat="44.191031" lon="10.5531448"><ele>1061.0</ele><time>2026-04-26T10:51:56.243Z</time></trkpt><trkpt lat="44.1909568" lon="10.5531819"><ele>1059.0</ele><time>2026-04-26T10:51:57.242Z</time></trkpt><trkpt lat="44.1908824" lon="10.5532225"><ele>1059.0</ele><time>2026-04-26T10:51:58.242Z</time></trkpt><trkpt lat="44.1908027" lon="10.5532742"><ele>1059.0</ele><time>2026-04-26T10:51:59.239Z</time></trkpt><trkpt lat="44.1907176" lon="10.5533366"><ele>1059.0</ele><time>2026-04-26T10:52:00.263Z</time></trkpt><trkpt lat="44.1906291" lon="10.553411"><ele>1059.0</ele><time>2026-04-26T10:52:01.24Z</time></trkpt><trkpt lat="44.1905432" lon="10.5535029"><ele>1059.0</ele><time>2026-04-26T10:52:02.237Z</time></trkpt><trkpt lat="44.1904576" lon="10.5536073"><ele>1059.0</ele><time>2026-04-26T10:52:03.239Z</time></trkpt><trkpt lat="44.1903721" lon="10.5537159"><ele>1059.0</ele><time>2026-04-26T10:52:04.235Z</time></trkpt><trkpt lat="44.1902932" lon="10.5538222"><ele>1059.0</ele><time>2026-04-26T10:52:05.235Z</time></trkpt><trkpt lat="44.1902311" lon="10.5539322"><ele>1059.0</ele><time>2026-04-26T10:52:06.243Z</time></trkpt><trkpt lat="44.1901891" lon="10.5540491"><ele>1059.0</ele><time>2026-04-26T10:52:07.24Z</time></trkpt><trkpt lat="44.1901694" lon="10.5541766"><ele>1059.0</ele><time>2026-04-26T10:52:08.236Z</time></trkpt><trkpt lat="44.1901717" lon="10.5543101"><ele>1059.0</ele><time>2026-04-26T10:52:09.236Z</time></trkpt><trkpt lat="44.1901878" lon="10.5544427"><ele>1059.0</ele><time>2026-04-26T10:52:10.237Z</time></trkpt><trkpt lat="44.1902147" lon="10.5545745"><ele>1059.0</ele><time>2026-04-26T10:52:11.245Z</time></trkpt><trkpt lat="44.1902416" lon="10.5547026"><ele>1059.0</ele><time>2026-04-26T10:52:12.242Z</time></trkpt><trkpt lat="44.1902776" lon="10.5548276"><ele>1058.8333333333333</ele><time>2026-04-26T10:52:13.24Z</time></trkpt><trkpt lat="44.1903207" lon="10.5549404"><ele>1058.6666666666667</ele><time>2026-04-26T10:52:14.243Z</time></trkpt><trkpt lat="44.1903657" lon="10.5550418"><ele>1058.5</ele><time>2026-04-26T10:52:15.239Z</time></trkpt><trkpt lat="44.1904122" lon="10.5551291"><ele>1058.3333333333335</ele><time>2026-04-26T10:52:16.26Z</time></trkpt><trkpt lat="44.1904586" lon="10.5552052"><ele>1058.1666666666667</ele><time>2026-04-26T10:52:17.243Z</time></trkpt><trkpt lat="44.1905071" lon="10.5552729"><ele>1058.0</ele><time>2026-04-26T10:52:18.24Z</time></trkpt><trkpt lat="44.1905937" lon="10.555392"><ele>1058.0</ele><time>2026-04-26T10:52:20.239Z</time></trkpt><trkpt lat="44.1906627" lon="10.5554749"><ele>1058.0</ele><time>2026-04-26T10:52:22.24Z</time></trkpt><trkpt lat="44.1907361" lon="10.555537"><ele>1052.0</ele><time>2026-04-26T10:52:25.248Z</time></trkpt><trkpt lat="44.1908009" lon="10.5555319"><ele>1052.0</ele><time>2026-04-26T10:52:29.241Z</time></trkpt></trkseg></trk></gpx>